<?xml version='1.0' encoding='UTF-8'?><gpx version="1.1" creator="JPX - https://github.com/jenetics/jpx" xmlns="http://www.topografix.com/GPX/1/1"><trk><trkseg><trkpt lat="43.8692567" lon="6.449375"><ele>1058.0</ele><time>2026-05-02T08:24:48.283Z</time></trkpt><trkpt lat="43.8692517" lon="6.4494767"><ele>1058.0</ele><time>2026-05-02T08:24:51.282Z</time></trkpt><trkpt lat="43.8692817" lon="6.4496033"><ele>1058.0</ele><time>2026-05-02T08:24:54.282Z</time></trkpt><trkpt lat="43.86933" lon="6.4496617"><ele>1058.0</ele><time>2026-05-02T08:24:55.282Z</time></trkpt><trkpt lat="43.8693933" lon="6.449725"><ele>1058.0</ele><time>2026-05-02T08:24:56.282Z</time></trkpt><trkpt lat="43.8694833" lon="6.449805"><ele>1058.0</ele><time>2026-05-02T08:24:57.282Z</time></trkpt><trkpt lat="43.8695567" lon="6.4498883"><ele>1057.6</ele><time>2026-05-02T08:24:58.282Z</time></trkpt><trkpt lat="43.8696083" lon="6.449955"><ele>1057.1999999999998</ele><time>2026-05-02T08:24:59.282Z</time></trkpt><trkpt lat="43.8696717" lon="6.4500533"><ele>1056.8</ele><time>2026-05-02T08:25:01.282Z</time></trkpt><trkpt lat="43.8697117" lon="6.4501517"><ele>1056.3999999999999</ele><time>2026-05-02T08:25:04.282Z</time></trkpt><trkpt lat="43.8696817" lon="6.450265"><ele>1056.0</ele><time>2026-05-02T08:25:06.283Z</time></trkpt><trkpt lat="43.8696" lon="6.45042"><ele>1056.2</ele><time>2026-05-02T08:25:08.282Z</time></trkpt><trkpt lat="43.86955" lon="6.4505167"><ele>1056.3999999999999</ele><time>2026-05-02T08:25:09.283Z</time></trkpt><trkpt lat="43.869485" lon="6.4506333"><ele>1056.6</ele><time>2026-05-02T08:25:10.282Z</time></trkpt><trkpt lat="43.86941" lon="6.450745"><ele>1056.8</ele><time>2026-05-02T08:25:11.283Z</time></trkpt><trkpt lat="43.86934" lon="6.4508533"><ele>1057.0</ele><time>2026-05-02T08:25:12.282Z</time></trkpt><trkpt lat="43.86927" lon="6.4509733"><ele>1057.0</ele><time>2026-05-02T08:25:13.283Z</time></trkpt><trkpt lat="43.8692" lon="6.4511017"><ele>1057.0</ele><time>2026-05-02T08:25:14.282Z</time></trkpt><trkpt lat="43.86913" lon="6.4512317"><ele>1057.0</ele><time>2026-05-02T08:25:15.282Z</time></trkpt><trkpt lat="43.86905" lon="6.4513667"><ele>1057.0</ele><time>2026-05-02T08:25:16.282Z</time></trkpt><trkpt lat="43.8689717" lon="6.4514933"><ele>1059.25</ele><time>2026-05-02T08:25:17.282Z</time></trkpt><trkpt lat="43.8688883" lon="6.4516233"><ele>1061.5</ele><time>2026-05-02T08:25:18.282Z</time></trkpt><trkpt lat="43.868805" lon="6.4517583"><ele>1063.75</ele><time>2026-05-02T08:25:19.283Z</time></trkpt><trkpt lat="43.868715" lon="6.451895"><ele>1066.0</ele><time>2026-05-02T08:25:20.282Z</time></trkpt><trkpt lat="43.8686283" lon="6.4520367"><ele>1067.0</ele><time>2026-05-02T08:25:21.282Z</time></trkpt><trkpt lat="43.86854" lon="6.4521733"><ele>1068.0</ele><time>2026-05-02T08:25:22.282Z</time></trkpt><trkpt lat="43.8684683" lon="6.4523167"><ele>1069.0</ele><time>2026-05-02T08:25:23.282Z</time></trkpt><trkpt lat="43.868385" lon="6.4524583"><ele>1070.0</ele><time>2026-05-02T08:25:24.282Z</time></trkpt><trkpt lat="43.8683033" lon="6.4526067"><ele>1070.0</ele><time>2026-05-02T08:25:25.282Z</time></trkpt><trkpt lat="43.868235" lon="6.4527883"><ele>1070.0</ele><time>2026-05-02T08:25:26.282Z</time></trkpt><trkpt lat="43.8681683" lon="6.4529733"><ele>1070.0</ele><time>2026-05-02T08:25:27.282Z</time></trkpt><trkpt lat="43.8680933" lon="6.453165"><ele>1070.75</ele><time>2026-05-02T08:25:28.282Z</time></trkpt><trkpt lat="43.8680217" lon="6.4533417"><ele>1071.5</ele><time>2026-05-02T08:25:29.282Z</time></trkpt><trkpt lat="43.8679383" lon="6.45352"><ele>1072.25</ele><time>2026-05-02T08:25:30.282Z</time></trkpt><trkpt lat="43.867845" lon="6.4536783"><ele>1073.0</ele><time>2026-05-02T08:25:31.282Z</time></trkpt><trkpt lat="43.867745" lon="6.4538233"><ele>1072.25</ele><time>2026-05-02T08:25:32.282Z</time></trkpt><trkpt lat="43.8676367" lon="6.45396"><ele>1071.5</ele><time>2026-05-02T08:25:33.282Z</time></trkpt><trkpt lat="43.8675283" lon="6.4540783"><ele>1070.75</ele><time>2026-05-02T08:25:34.282Z</time></trkpt><trkpt lat="43.8674133" lon="6.4541817"><ele>1070.0</ele><time>2026-05-02T08:25:35.282Z</time></trkpt><trkpt lat="43.867285" lon="6.4542683"><ele>1070.0</ele><time>2026-05-02T08:25:36.282Z</time></trkpt><trkpt lat="43.8671483" lon="6.4543083"><ele>1070.0</ele><time>2026-05-02T08:25:37.282Z</time></trkpt><trkpt lat="43.8669983" lon="6.4543367"><ele>1070.0</ele><time>2026-05-02T08:25:38.283Z</time></trkpt><trkpt lat="43.86685" lon="6.4543983"><ele>1070.0</ele><time>2026-05-02T08:25:39.282Z</time></trkpt><trkpt lat="43.866705" lon="6.4544783"><ele>1070.25</ele><time>2026-05-02T08:25:40.282Z</time></trkpt><trkpt lat="43.8665617" lon="6.454565"><ele>1070.5</ele><time>2026-05-02T08:25:41.282Z</time></trkpt><trkpt lat="43.866445" lon="6.454675"><ele>1070.75</ele><time>2026-05-02T08:25:42.282Z</time></trkpt><trkpt lat="43.866345" lon="6.4548067"><ele>1071.0</ele><time>2026-05-02T08:25:43.282Z</time></trkpt><trkpt lat="43.86625" lon="6.45496"><ele>1073.6666666666667</ele><time>2026-05-02T08:25:44.282Z</time></trkpt><trkpt lat="43.866175" lon="6.4551333"><ele>1076.3333333333335</ele><time>2026-05-02T08:25:45.282Z</time></trkpt><trkpt lat="43.866105" lon="6.45533"><ele>1079.0</ele><time>2026-05-02T08:25:46.282Z</time></trkpt><trkpt lat="43.866045" lon="6.455525"><ele>1081.0</ele><time>2026-05-02T08:25:47.282Z</time></trkpt><trkpt lat="43.8659967" lon="6.4557317"><ele>1083.0</ele><time>2026-05-02T08:25:48.282Z</time></trkpt><trkpt lat="43.865935" lon="6.4559367"><ele>1085.0</ele><time>2026-05-02T08:25:49.282Z</time></trkpt><trkpt lat="43.8658667" lon="6.4561517"><ele>1086.0</ele><time>2026-05-02T08:25:50.282Z</time></trkpt><trkpt lat="43.8657967" lon="6.4563617"><ele>1087.0</ele><time>2026-05-02T08:25:51.283Z</time></trkpt><trkpt lat="43.8657417" lon="6.45656"><ele>1088.0</ele><time>2026-05-02T08:25:52.282Z</time></trkpt><trkpt lat="43.8657117" lon="6.4567733"><ele>1088.0</ele><time>2026-05-02T08:25:53.282Z</time></trkpt><trkpt lat="43.8656917" lon="6.456985"><ele>1088.0</ele><time>2026-05-02T08:25:54.282Z</time></trkpt><trkpt lat="43.8656783" lon="6.4572"><ele>1088.0</ele><time>2026-05-02T08:25:55.283Z</time></trkpt><trkpt lat="43.865645" lon="6.4574183"><ele>1090.3333333333335</ele><time>2026-05-02T08:25:56.283Z</time></trkpt><trkpt lat="43.865605" lon="6.4576333"><ele>1092.6666666666667</ele><time>2026-05-02T08:25:57.282Z</time></trkpt><trkpt lat="43.86554" lon="6.4578433"><ele>1095.0</ele><time>2026-05-02T08:25:58.283Z</time></trkpt><trkpt lat="43.865485" lon="6.4580483"><ele>1098.6666666666667</ele><time>2026-05-02T08:25:59.282Z</time></trkpt><trkpt lat="43.865435" lon="6.458255"><ele>1102.3333333333335</ele><time>2026-05-02T08:26:00.282Z</time></trkpt><trkpt lat="43.8653767" lon="6.4584683"><ele>1106.0</ele><time>2026-05-02T08:26:01.282Z</time></trkpt><trkpt lat="43.865315" lon="6.4586717"><ele>1109.3333333333335</ele><time>2026-05-02T08:26:02.282Z</time></trkpt><trkpt lat="43.8652567" lon="6.4588733"><ele>1112.6666666666667</ele><time>2026-05-02T08:26:03.282Z</time></trkpt><trkpt lat="43.8652117" lon="6.4590817"><ele>1116.0</ele><time>2026-05-02T08:26:04.282Z</time></trkpt><trkpt lat="43.8651717" lon="6.45929"><ele>1116.0</ele><time>2026-05-02T08:26:05.282Z</time></trkpt><trkpt lat="43.865145" lon="6.45951"><ele>1116.0</ele><time>2026-05-02T08:26:06.282Z</time></trkpt><trkpt lat="43.865125" lon="6.45973"><ele>1116.0</ele><time>2026-05-02T08:26:07.282Z</time></trkpt><trkpt lat="43.8650933" lon="6.4599417"><ele>1114.6666666666667</ele><time>2026-05-02T08:26:08.282Z</time></trkpt><trkpt lat="43.8650667" lon="6.4601617"><ele>1113.3333333333335</ele><time>2026-05-02T08:26:09.282Z</time></trkpt><trkpt lat="43.8650283" lon="6.46037"><ele>1112.0</ele><time>2026-05-02T08:26:10.282Z</time></trkpt><trkpt lat="43.8649967" lon="6.4605783"><ele>1112.0</ele><time>2026-05-02T08:26:11.282Z</time></trkpt><trkpt lat="43.8649633" lon="6.4607733"><ele>1112.0</ele><time>2026-05-02T08:26:12.282Z</time></trkpt><trkpt lat="43.8649417" lon="6.46095"><ele>1112.0</ele><time>2026-05-02T08:26:13.282Z</time></trkpt><trkpt lat="43.8649267" lon="6.46111"><ele>1112.0</ele><time>2026-05-02T08:26:14.282Z</time></trkpt><trkpt lat="43.864925" lon="6.46125"><ele>1114.0</ele><time>2026-05-02T08:26:15.282Z</time></trkpt><trkpt lat="43.864945" lon="6.4613583"><ele>1116.0</ele><time>2026-05-02T08:26:16.283Z</time></trkpt><trkpt lat="43.8649917" lon="6.46144"><ele>1118.0</ele><time>2026-05-02T08:26:17.283Z</time></trkpt><trkpt lat="43.86505" lon="6.46148"><ele>1120.0</ele><time>2026-05-02T08:26:18.282Z</time></trkpt><trkpt lat="43.8651733" lon="6.4614183"><ele>1122.0</ele><time>2026-05-02T08:26:20.282Z</time></trkpt><trkpt lat="43.865225" lon="6.4613117"><ele>1124.0</ele><time>2026-05-02T08:26:21.282Z</time></trkpt><trkpt lat="43.8652717" lon="6.4611467"><ele>1126.0</ele><time>2026-05-02T08:26:22.282Z</time></trkpt><trkpt lat="43.8653267" lon="6.4609317"><ele>1128.0</ele><time>2026-05-02T08:26:23.282Z</time></trkpt><trkpt lat="43.8653933" lon="6.46071"><ele>1130.0</ele><time>2026-05-02T08:26:24.282Z</time></trkpt><trkpt lat="43.8654517" lon="6.4605117"><ele>1128.5</ele><time>2026-05-02T08:26:25.282Z</time></trkpt><trkpt lat="43.8655133" lon="6.460325"><ele>1127.0</ele><time>2026-05-02T08:26:26.282Z</time></trkpt><trkpt lat="43.865575" lon="6.4601433"><ele>1125.5</ele><time>2026-05-02T08:26:27.282Z</time></trkpt><trkpt lat="43.8656467" lon="6.4599633"><ele>1124.0</ele><time>2026-05-02T08:26:28.282Z</time></trkpt><trkpt lat="43.8657217" lon="6.45979"><ele>1124.0</ele><time>2026-05-02T08:26:29.282Z</time></trkpt><trkpt lat="43.865825" lon="6.4596283"><ele>1124.0</ele><time>2026-05-02T08:26:30.282Z</time></trkpt><trkpt lat="43.8659383" lon="6.4595017"><ele>1124.0</ele><time>2026-05-02T08:26:31.282Z</time></trkpt><trkpt lat="43.86606" lon="6.4593883"><ele>1124.0</ele><time>2026-05-02T08:26:32.282Z</time></trkpt><trkpt lat="43.8661683" lon="6.4592933"><ele>1126.6000000000001</ele><time>2026-05-02T08:26:33.282Z</time></trkpt><trkpt lat="43.866255" lon="6.45922"><ele>1129.2</ele><time>2026-05-02T08:26:34.282Z</time></trkpt><trkpt lat="43.86634" lon="6.4591617"><ele>1131.8000000000002</ele><time>2026-05-02T08:26:35.282Z</time></trkpt><trkpt lat="43.8664117" lon="6.45918"><ele>1134.4</ele><time>2026-05-02T08:26:36.282Z</time></trkpt><trkpt lat="43.8664633" lon="6.4592317"><ele>1137.0</ele><time>2026-05-02T08:26:37.282Z</time></trkpt><trkpt lat="43.866465" lon="6.4594217"><ele>1137.0</ele><time>2026-05-02T08:26:39.282Z</time></trkpt><trkpt lat="43.8664067" lon="6.4595517"><ele>1137.0</ele><time>2026-05-02T08:26:40.282Z</time></trkpt><trkpt lat="43.86633" lon="6.4597133"><ele>1137.0</ele><time>2026-05-02T08:26:41.282Z</time></trkpt><trkpt lat="43.8662533" lon="6.4598967"><ele>1137.0</ele><time>2026-05-02T08:26:42.282Z</time></trkpt><trkpt lat="43.8661983" lon="6.4600733"><ele>1139.0</ele><time>2026-05-02T08:26:43.282Z</time></trkpt><trkpt lat="43.86614" lon="6.4602667"><ele>1141.0</ele><time>2026-05-02T08:26:44.282Z</time></trkpt><trkpt lat="43.86608" lon="6.46045"><ele>1143.0</ele><time>2026-05-02T08:26:45.282Z</time></trkpt><trkpt lat="43.86602" lon="6.4606367"><ele>1145.0</ele><time>2026-05-02T08:26:46.282Z</time></trkpt><trkpt lat="43.8659517" lon="6.46082"><ele>1143.5</ele><time>2026-05-02T08:26:47.282Z</time></trkpt><trkpt lat="43.8658817" lon="6.461"><ele>1142.0</ele><time>2026-05-02T08:26:48.282Z</time></trkpt><trkpt lat="43.8658167" lon="6.4611867"><ele>1140.5</ele><time>2026-05-02T08:26:49.282Z</time></trkpt><trkpt lat="43.86575" lon="6.46137"><ele>1139.0</ele><time>2026-05-02T08:26:50.283Z</time></trkpt><trkpt lat="43.8656817" lon="6.4615483"><ele>1139.0</ele><time>2026-05-02T08:26:51.282Z</time></trkpt><trkpt lat="43.8656267" lon="6.461725"><ele>1139.0</ele><time>2026-05-02T08:26:52.282Z</time></trkpt><trkpt lat="43.8655717" lon="6.4619033"><ele>1139.0</ele><time>2026-05-02T08:26:53.282Z</time></trkpt><trkpt lat="43.8655167" lon="6.462075"><ele>1139.0</ele><time>2026-05-02T08:26:54.282Z</time></trkpt><trkpt lat="43.8654867" lon="6.462255"><ele>1140.75</ele><time>2026-05-02T08:26:55.282Z</time></trkpt><trkpt lat="43.86548" lon="6.4624517"><ele>1142.5</ele><time>2026-05-02T08:26:56.282Z</time></trkpt><trkpt lat="43.8654817" lon="6.4626467"><ele>1144.25</ele><time>2026-05-02T08:26:57.282Z</time></trkpt><trkpt lat="43.8654717" lon="6.4628517"><ele>1146.0</ele><time>2026-05-02T08:26:58.282Z</time></trkpt><trkpt lat="43.8654667" lon="6.4630667"><ele>1146.75</ele><time>2026-05-02T08:26:59.282Z</time></trkpt><trkpt lat="43.86546" lon="6.4632717"><ele>1147.5</ele><time>2026-05-02T08:27:00.282Z</time></trkpt><trkpt lat="43.8654517" lon="6.4634683"><ele>1148.25</ele><time>2026-05-02T08:27:01.282Z</time></trkpt><trkpt lat="43.8654483" lon="6.4636583"><ele>1149.0</ele><time>2026-05-02T08:27:02.282Z</time></trkpt><trkpt lat="43.865445" lon="6.463835"><ele>1149.25</ele><time>2026-05-02T08:27:03.282Z</time></trkpt><trkpt lat="43.8654417" lon="6.4640033"><ele>1149.5</ele><time>2026-05-02T08:27:04.282Z</time></trkpt><trkpt lat="43.8654217" lon="6.4641767"><ele>1149.75</ele><time>2026-05-02T08:27:05.283Z</time></trkpt><trkpt lat="43.865395" lon="6.46435"><ele>1150.0</ele><time>2026-05-02T08:27:06.282Z</time></trkpt><trkpt lat="43.8653583" lon="6.4645217"><ele>1150.5</ele><time>2026-05-02T08:27:07.282Z</time></trkpt><trkpt lat="43.8653" lon="6.4646917"><ele>1151.0</ele><time>2026-05-02T08:27:08.282Z</time></trkpt><trkpt lat="43.8652417" lon="6.4648617"><ele>1151.5</ele><time>2026-05-02T08:27:09.282Z</time></trkpt><trkpt lat="43.8651817" lon="6.465035"><ele>1152.0</ele><time>2026-05-02T08:27:10.282Z</time></trkpt><trkpt lat="43.8651217" lon="6.4652183"><ele>1149.5</ele><time>2026-05-02T08:27:11.282Z</time></trkpt><trkpt lat="43.8650767" lon="6.46541"><ele>1147.0</ele><time>2026-05-02T08:27:12.282Z</time></trkpt><trkpt lat="43.8650417" lon="6.4656"><ele>1144.5</ele><time>2026-05-02T08:27:13.282Z</time></trkpt><trkpt lat="43.8649983" lon="6.4657683"><ele>1142.0</ele><time>2026-05-02T08:27:14.282Z</time></trkpt><trkpt lat="43.8649583" lon="6.46593"><ele>1141.75</ele><time>2026-05-02T08:27:15.282Z</time></trkpt><trkpt lat="43.8649367" lon="6.4660883"><ele>1141.5</ele><time>2026-05-02T08:27:16.282Z</time></trkpt><trkpt lat="43.8649383" lon="6.4662433"><ele>1141.25</ele><time>2026-05-02T08:27:17.282Z</time></trkpt><trkpt lat="43.8649783" lon="6.4663833"><ele>1141.0</ele><time>2026-05-02T08:27:18.282Z</time></trkpt><trkpt lat="43.8650583" lon="6.4665083"><ele>1142.75</ele><time>2026-05-02T08:27:19.282Z</time></trkpt><trkpt lat="43.8651617" lon="6.4665883"><ele>1144.5</ele><time>2026-05-02T08:27:20.282Z</time></trkpt><trkpt lat="43.8652883" lon="6.466655"><ele>1146.25</ele><time>2026-05-02T08:27:21.282Z</time></trkpt><trkpt lat="43.86542" lon="6.466725"><ele>1148.0</ele><time>2026-05-02T08:27:22.282Z</time></trkpt><trkpt lat="43.865545" lon="6.4668233"><ele>1148.0</ele><time>2026-05-02T08:27:23.282Z</time></trkpt><trkpt lat="43.8656533" lon="6.4669467"><ele>1148.0</ele><time>2026-05-02T08:27:24.282Z</time></trkpt><trkpt lat="43.86574" lon="6.467105"><ele>1148.0</ele><time>2026-05-02T08:27:25.282Z</time></trkpt><trkpt lat="43.86581" lon="6.46726"><ele>1148.0</ele><time>2026-05-02T08:27:26.282Z</time></trkpt><trkpt lat="43.8658667" lon="6.4674167"><ele>1145.4</ele><time>2026-05-02T08:27:27.283Z</time></trkpt><trkpt lat="43.86592" lon="6.46757"><ele>1142.8</ele><time>2026-05-02T08:27:28.282Z</time></trkpt><trkpt lat="43.8659717" lon="6.46771"><ele>1140.2</ele><time>2026-05-02T08:27:29.282Z</time></trkpt><trkpt lat="43.86603" lon="6.4678283"><ele>1137.6</ele><time>2026-05-02T08:27:30.282Z</time></trkpt><trkpt lat="43.8661067" lon="6.4679233"><ele>1135.0</ele><time>2026-05-02T08:27:31.282Z</time></trkpt><trkpt lat="43.8662" lon="6.4679867"><ele>1135.0</ele><time>2026-05-02T08:27:32.283Z</time></trkpt><trkpt lat="43.8663133" lon="6.46799"><ele>1135.0</ele><time>2026-05-02T08:27:33.282Z</time></trkpt><trkpt lat="43.8664417" lon="6.4679467"><ele>1135.0</ele><time>2026-05-02T08:27:34.282Z</time></trkpt><trkpt lat="43.8665717" lon="6.467865"><ele>1135.0</ele><time>2026-05-02T08:27:35.282Z</time></trkpt><trkpt lat="43.8667017" lon="6.4677783"><ele>1133.75</ele><time>2026-05-02T08:27:36.283Z</time></trkpt><trkpt lat="43.8668383" lon="6.467705"><ele>1132.5</ele><time>2026-05-02T08:27:37.282Z</time></trkpt><trkpt lat="43.8669733" lon="6.4676367"><ele>1131.25</ele><time>2026-05-02T08:27:38.282Z</time></trkpt><trkpt lat="43.8671067" lon="6.4676133"><ele>1130.0</ele><time>2026-05-02T08:27:39.282Z</time></trkpt><trkpt lat="43.867245" lon="6.4676083"><ele>1130.0</ele><time>2026-05-02T08:27:40.282Z</time></trkpt><trkpt lat="43.8673767" lon="6.4676333"><ele>1130.0</ele><time>2026-05-02T08:27:41.282Z</time></trkpt><trkpt lat="43.8675067" lon="6.4676617"><ele>1130.0</ele><time>2026-05-02T08:27:42.282Z</time></trkpt><trkpt lat="43.8676317" lon="6.46768"><ele>1130.0</ele><time>2026-05-02T08:27:43.282Z</time></trkpt><trkpt lat="43.8677633" lon="6.4676717"><ele>1130.0</ele><time>2026-05-02T08:27:44.282Z</time></trkpt><trkpt lat="43.8678833" lon="6.4676317"><ele>1130.0</ele><time>2026-05-02T08:27:45.282Z</time></trkpt><trkpt lat="43.8680083" lon="6.4675417"><ele>1130.0</ele><time>2026-05-02T08:27:46.282Z</time></trkpt><trkpt lat="43.8681283" lon="6.4674583"><ele>1130.0</ele><time>2026-05-02T08:27:47.282Z</time></trkpt><trkpt lat="43.868245" lon="6.467395"><ele>1130.0</ele><time>2026-05-02T08:27:48.283Z</time></trkpt><trkpt lat="43.8683633" lon="6.467355"><ele>1130.0</ele><time>2026-05-02T08:27:49.282Z</time></trkpt><trkpt lat="43.86848" lon="6.4673683"><ele>1130.0</ele><time>2026-05-02T08:27:50.282Z</time></trkpt><trkpt lat="43.8685817" lon="6.46744"><ele>1130.0</ele><time>2026-05-02T08:27:51.282Z</time></trkpt><trkpt lat="43.8686767" lon="6.4675433"><ele>1130.75</ele><time>2026-05-02T08:27:52.282Z</time></trkpt><trkpt lat="43.8687633" lon="6.4676733"><ele>1131.5</ele><time>2026-05-02T08:27:53.282Z</time></trkpt><trkpt lat="43.868845" lon="6.4678117"><ele>1132.25</ele><time>2026-05-02T08:27:54.282Z</time></trkpt><trkpt lat="43.8689117" lon="6.4679583"><ele>1133.0</ele><time>2026-05-02T08:27:55.282Z</time></trkpt><trkpt lat="43.8689633" lon="6.4681117"><ele>1133.0</ele><time>2026-05-02T08:27:56.282Z</time></trkpt><trkpt lat="43.86898" lon="6.4682733"><ele>1133.0</ele><time>2026-05-02T08:27:57.282Z</time></trkpt><trkpt lat="43.8689733" lon="6.4684483"><ele>1133.0</ele><time>2026-05-02T08:27:58.282Z</time></trkpt><trkpt lat="43.868935" lon="6.4686083"><ele>1133.0</ele><time>2026-05-02T08:27:59.282Z</time></trkpt><trkpt lat="43.868905" lon="6.4687783"><ele>1132.75</ele><time>2026-05-02T08:28:00.282Z</time></trkpt><trkpt lat="43.8688967" lon="6.46895"><ele>1132.5</ele><time>2026-05-02T08:28:01.282Z</time></trkpt><trkpt lat="43.868925" lon="6.46912"><ele>1132.25</ele><time>2026-05-02T08:28:02.282Z</time></trkpt><trkpt lat="43.868965" lon="6.4692867"><ele>1132.0</ele><time>2026-05-02T08:28:03.282Z</time></trkpt><trkpt lat="43.8689733" lon="6.4694533"><ele>1132.0</ele><time>2026-05-02T08:28:04.282Z</time></trkpt><trkpt lat="43.86894" lon="6.4695983"><ele>1132.0</ele><time>2026-05-02T08:28:05.282Z</time></trkpt><trkpt lat="43.868875" lon="6.4697217"><ele>1132.0</ele><time>2026-05-02T08:28:06.282Z</time></trkpt><trkpt lat="43.86881" lon="6.4698817"><ele>1132.0</ele><time>2026-05-02T08:28:07.282Z</time></trkpt><trkpt lat="43.8687567" lon="6.4700417"><ele>1133.5</ele><time>2026-05-02T08:28:08.282Z</time></trkpt><trkpt lat="43.8687133" lon="6.4702183"><ele>1135.0</ele><time>2026-05-02T08:28:09.282Z</time></trkpt><trkpt lat="43.8686667" lon="6.4703783"><ele>1136.5</ele><time>2026-05-02T08:28:10.282Z</time></trkpt><trkpt lat="43.8686317" lon="6.47055"><ele>1138.0</ele><time>2026-05-02T08:28:11.282Z</time></trkpt><trkpt lat="43.86862" lon="6.4707083"><ele>1140.25</ele><time>2026-05-02T08:28:12.283Z</time></trkpt><trkpt lat="43.8686167" lon="6.4708633"><ele>1142.5</ele><time>2026-05-02T08:28:13.283Z</time></trkpt><trkpt lat="43.8686283" lon="6.471035"><ele>1144.75</ele><time>2026-05-02T08:28:14.282Z</time></trkpt><trkpt lat="43.8686133" lon="6.4711883"><ele>1147.0</ele><time>2026-05-02T08:28:15.282Z</time></trkpt><trkpt lat="43.8685733" lon="6.4713317"><ele>1149.4</ele><time>2026-05-02T08:28:16.282Z</time></trkpt><trkpt lat="43.8685033" lon="6.471425"><ele>1151.8000000000002</ele><time>2026-05-02T08:28:17.282Z</time></trkpt><trkpt lat="43.868405" lon="6.4714767"><ele>1154.2</ele><time>2026-05-02T08:28:18.282Z</time></trkpt><trkpt lat="43.8683033" lon="6.4715183"><ele>1156.6000000000001</ele><time>2026-05-02T08:28:19.282Z</time></trkpt><trkpt lat="43.8682033" lon="6.47159"><ele>1159.0</ele><time>2026-05-02T08:28:20.282Z</time></trkpt><trkpt lat="43.8681233" lon="6.4717183"><ele>1154.5</ele><time>2026-05-02T08:28:21.283Z</time></trkpt><trkpt lat="43.8680633" lon="6.4718933"><ele>1150.0</ele><time>2026-05-02T08:28:22.283Z</time></trkpt><trkpt lat="43.867995" lon="6.472065"><ele>1145.5</ele><time>2026-05-02T08:28:23.282Z</time></trkpt><trkpt lat="43.8679183" lon="6.47223"><ele>1141.0</ele><time>2026-05-02T08:28:24.282Z</time></trkpt><trkpt lat="43.8678383" lon="6.4723833"><ele>1141.0</ele><time>2026-05-02T08:28:25.282Z</time></trkpt><trkpt lat="43.86776" lon="6.4725433"><ele>1141.0</ele><time>2026-05-02T08:28:26.282Z</time></trkpt><trkpt lat="43.8676867" lon="6.4726883"><ele>1141.0</ele><time>2026-05-02T08:28:27.282Z</time></trkpt><trkpt lat="43.86761" lon="6.4728183"><ele>1141.0</ele><time>2026-05-02T08:28:28.282Z</time></trkpt><trkpt lat="43.867535" lon="6.4729567"><ele>1132.0</ele><time>2026-05-02T08:28:29.282Z</time></trkpt><trkpt lat="43.8674617" lon="6.473095"><ele>1123.0</ele><time>2026-05-02T08:28:30.282Z</time></trkpt><trkpt lat="43.867395" lon="6.4732217"><ele>1114.0</ele><time>2026-05-02T08:28:31.283Z</time></trkpt><trkpt lat="43.86733" lon="6.4733417"><ele>1105.0</ele><time>2026-05-02T08:28:32.282Z</time></trkpt><trkpt lat="43.86728" lon="6.473475"><ele>1105.0</ele><time>2026-05-02T08:28:33.282Z</time></trkpt><trkpt lat="43.8672583" lon="6.4736317"><ele>1105.0</ele><time>2026-05-02T08:28:34.282Z</time></trkpt><trkpt lat="43.8672767" lon="6.473795"><ele>1105.0</ele><time>2026-05-02T08:28:35.282Z</time></trkpt><trkpt lat="43.86728" lon="6.473965"><ele>1105.0</ele><time>2026-05-02T08:28:36.282Z</time></trkpt><trkpt lat="43.86725" lon="6.4741117"><ele>1106.0</ele><time>2026-05-02T08:28:37.282Z</time></trkpt><trkpt lat="43.8671767" lon="6.4742633"><ele>1107.0</ele><time>2026-05-02T08:28:38.282Z</time></trkpt><trkpt lat="43.8670917" lon="6.4744167"><ele>1108.0</ele><time>2026-05-02T08:28:39.282Z</time></trkpt><trkpt lat="43.867005" lon="6.47457"><ele>1109.0</ele><time>2026-05-02T08:28:40.282Z</time></trkpt><trkpt lat="43.86692" lon="6.474725"><ele>1112.25</ele><time>2026-05-02T08:28:41.282Z</time></trkpt><trkpt lat="43.8668483" lon="6.4748917"><ele>1115.5</ele><time>2026-05-02T08:28:42.282Z</time></trkpt><trkpt lat="43.8667833" lon="6.475055"><ele>1118.75</ele><time>2026-05-02T08:28:43.282Z</time></trkpt><trkpt lat="43.8667133" lon="6.4752033"><ele>1122.0</ele><time>2026-05-02T08:28:44.282Z</time></trkpt><trkpt lat="43.8666667" lon="6.47537"><ele>1117.25</ele><time>2026-05-02T08:28:45.282Z</time></trkpt><trkpt lat="43.86663" lon="6.47554"><ele>1112.5</ele><time>2026-05-02T08:28:46.282Z</time></trkpt><trkpt lat="43.8666133" lon="6.47573"><ele>1107.75</ele><time>2026-05-02T08:28:47.282Z</time></trkpt><trkpt lat="43.8665933" lon="6.475915"><ele>1103.0</ele><time>2026-05-02T08:28:48.282Z</time></trkpt><trkpt lat="43.8665733" lon="6.4761083"><ele>1104.0</ele><time>2026-05-02T08:28:49.282Z</time></trkpt><trkpt lat="43.8665617" lon="6.4762917"><ele>1105.0</ele><time>2026-05-02T08:28:50.282Z</time></trkpt><trkpt lat="43.86652" lon="6.4764783"><ele>1106.0</ele><time>2026-05-02T08:28:51.282Z</time></trkpt><trkpt lat="43.8664583" lon="6.4766533"><ele>1107.0</ele><time>2026-05-02T08:28:52.282Z</time></trkpt><trkpt lat="43.8663783" lon="6.476825"><ele>1107.0</ele><time>2026-05-02T08:28:53.282Z</time></trkpt><trkpt lat="43.8662817" lon="6.4769967"><ele>1107.0</ele><time>2026-05-02T08:28:54.282Z</time></trkpt><trkpt lat="43.8661883" lon="6.4771483"><ele>1107.0</ele><time>2026-05-02T08:28:55.282Z</time></trkpt><trkpt lat="43.8660967" lon="6.4772983"><ele>1107.0</ele><time>2026-05-02T08:28:56.282Z</time></trkpt><trkpt lat="43.86599" lon="6.4774317"><ele>1102.5</ele><time>2026-05-02T08:28:57.282Z</time></trkpt><trkpt lat="43.86589" lon="6.4775617"><ele>1098.0</ele><time>2026-05-02T08:28:58.282Z</time></trkpt><trkpt lat="43.86578" lon="6.47768"><ele>1093.5</ele><time>2026-05-02T08:28:59.282Z</time></trkpt><trkpt lat="43.8656633" lon="6.4777917"><ele>1089.0</ele><time>2026-05-02T08:29:00.283Z</time></trkpt><trkpt lat="43.865555" lon="6.477915"><ele>1093.25</ele><time>2026-05-02T08:29:01.282Z</time></trkpt><trkpt lat="43.8654567" lon="6.4780433"><ele>1097.5</ele><time>2026-05-02T08:29:02.282Z</time></trkpt><trkpt lat="43.8653683" lon="6.4781683"><ele>1101.75</ele><time>2026-05-02T08:29:03.282Z</time></trkpt><trkpt lat="43.86531" lon="6.478315"><ele>1106.0</ele><time>2026-05-02T08:29:04.283Z</time></trkpt><trkpt lat="43.8652867" lon="6.4784833"><ele>1106.0</ele><time>2026-05-02T08:29:05.282Z</time></trkpt><trkpt lat="43.8652883" lon="6.4786583"><ele>1106.0</ele><time>2026-05-02T08:29:06.282Z</time></trkpt><trkpt lat="43.86529" lon="6.4788567"><ele>1106.0</ele><time>2026-05-02T08:29:07.282Z</time></trkpt><trkpt lat="43.8652817" lon="6.479045"><ele>1106.0</ele><time>2026-05-02T08:29:08.282Z</time></trkpt><trkpt lat="43.8652583" lon="6.4792317"><ele>1108.3333333333335</ele><time>2026-05-02T08:29:09.283Z</time></trkpt><trkpt lat="43.86523" lon="6.4794317"><ele>1110.6666666666667</ele><time>2026-05-02T08:29:10.282Z</time></trkpt><trkpt lat="43.8652133" lon="6.4796467"><ele>1113.0</ele><time>2026-05-02T08:29:11.282Z</time></trkpt><trkpt lat="43.8651883" lon="6.4798533"><ele>1113.6666666666667</ele><time>2026-05-02T08:29:12.282Z</time></trkpt><trkpt lat="43.865135" lon="6.480055"><ele>1114.3333333333335</ele><time>2026-05-02T08:29:13.282Z</time></trkpt><trkpt lat="43.8650767" lon="6.48025"><ele>1115.0</ele><time>2026-05-02T08:29:14.282Z</time></trkpt><trkpt lat="43.8650117" lon="6.48044"><ele>1105.3333333333335</ele><time>2026-05-02T08:29:15.282Z</time></trkpt><trkpt lat="43.864965" lon="6.4806483"><ele>1095.6666666666667</ele><time>2026-05-02T08:29:16.282Z</time></trkpt><trkpt lat="43.8649183" lon="6.4808433"><ele>1086.0</ele><time>2026-05-02T08:29:17.282Z</time></trkpt><trkpt lat="43.8648483" lon="6.48102"><ele>1086.0</ele><time>2026-05-02T08:29:18.283Z</time></trkpt><trkpt lat="43.8647683" lon="6.4812017"><ele>1086.0</ele><time>2026-05-02T08:29:19.282Z</time></trkpt><trkpt lat="43.864675" lon="6.4813683"><ele>1086.0</ele><time>2026-05-02T08:29:20.283Z</time></trkpt><trkpt lat="43.8645583" lon="6.4815117"><ele>1089.5</ele><time>2026-05-02T08:29:21.282Z</time></trkpt><trkpt lat="43.86444" lon="6.481645"><ele>1093.0</ele><time>2026-05-02T08:29:22.282Z</time></trkpt><trkpt lat="43.8643267" lon="6.4817683"><ele>1096.5</ele><time>2026-05-02T08:29:23.282Z</time></trkpt><trkpt lat="43.864225" lon="6.48191"><ele>1100.0</ele><time>2026-05-02T08:29:24.282Z</time></trkpt><trkpt lat="43.8641267" lon="6.4820683"><ele>1092.5</ele><time>2026-05-02T08:29:25.282Z</time></trkpt><trkpt lat="43.8640667" lon="6.4822517"><ele>1085.0</ele><time>2026-05-02T08:29:26.282Z</time></trkpt><trkpt lat="43.8640333" lon="6.48245"><ele>1077.5</ele><time>2026-05-02T08:29:27.282Z</time></trkpt><trkpt lat="43.8639983" lon="6.4826483"><ele>1070.0</ele><time>2026-05-02T08:29:28.282Z</time></trkpt><trkpt lat="43.863965" lon="6.4828617"><ele>1070.5</ele><time>2026-05-02T08:29:29.282Z</time></trkpt><trkpt lat="43.86394" lon="6.4830583"><ele>1071.0</ele><time>2026-05-02T08:29:30.282Z</time></trkpt><trkpt lat="43.8639317" lon="6.4832483"><ele>1071.5</ele><time>2026-05-02T08:29:31.282Z</time></trkpt><trkpt lat="43.8639233" lon="6.4834367"><ele>1072.0</ele><time>2026-05-02T08:29:32.282Z</time></trkpt><trkpt lat="43.8639183" lon="6.483625"><ele>1069.5</ele><time>2026-05-02T08:29:33.282Z</time></trkpt><trkpt lat="43.8639367" lon="6.4838117"><ele>1067.0</ele><time>2026-05-02T08:29:34.282Z</time></trkpt><trkpt lat="43.863995" lon="6.4839917"><ele>1064.5</ele><time>2026-05-02T08:29:35.282Z</time></trkpt><trkpt lat="43.864055" lon="6.484165"><ele>1062.0</ele><time>2026-05-02T08:29:36.282Z</time></trkpt><trkpt lat="43.8640967" lon="6.4843483"><ele>1062.0</ele><time>2026-05-02T08:29:37.282Z</time></trkpt><trkpt lat="43.8641117" lon="6.4845367"><ele>1062.0</ele><time>2026-05-02T08:29:38.282Z</time></trkpt><trkpt lat="43.864105" lon="6.4847083"><ele>1062.0</ele><time>2026-05-02T08:29:39.282Z</time></trkpt><trkpt lat="43.8641067" lon="6.484865"><ele>1062.0</ele><time>2026-05-02T08:29:40.282Z</time></trkpt><trkpt lat="43.8641433" lon="6.48499"><ele>1061.4</ele><time>2026-05-02T08:29:41.282Z</time></trkpt><trkpt lat="43.8642133" lon="6.4850967"><ele>1060.8000000000002</ele><time>2026-05-02T08:29:42.282Z</time></trkpt><trkpt lat="43.8643067" lon="6.48517"><ele>1060.2</ele><time>2026-05-02T08:29:43.282Z</time></trkpt><trkpt lat="43.86442" lon="6.4851833"><ele>1059.6000000000001</ele><time>2026-05-02T08:29:44.282Z</time></trkpt><trkpt lat="43.8645383" lon="6.4851533"><ele>1059.0</ele><time>2026-05-02T08:29:45.282Z</time></trkpt><trkpt lat="43.8646483" lon="6.4851"><ele>1059.0</ele><time>2026-05-02T08:29:46.283Z</time></trkpt><trkpt lat="43.8647483" lon="6.4850517"><ele>1059.0</ele><time>2026-05-02T08:29:47.282Z</time></trkpt><trkpt lat="43.8648317" lon="6.4850267"><ele>1059.0</ele><time>2026-05-02T08:29:48.282Z</time></trkpt><trkpt lat="43.8649083" lon="6.485035"><ele>1059.0</ele><time>2026-05-02T08:29:49.282Z</time></trkpt><trkpt lat="43.8649617" lon="6.48509"><ele>1059.0</ele><time>2026-05-02T08:29:50.282Z</time></trkpt><trkpt lat="43.8649667" lon="6.4852283"><ele>1059.0</ele><time>2026-05-02T08:29:52.282Z</time></trkpt><trkpt lat="43.8649" lon="6.4852833"><ele>1059.0</ele><time>2026-05-02T08:29:53.282Z</time></trkpt><trkpt lat="43.86479" lon="6.4853283"><ele>1059.0</ele><time>2026-05-02T08:29:54.282Z</time></trkpt><trkpt lat="43.8646633" lon="6.4853817"><ele>1059.0</ele><time>2026-05-02T08:29:55.282Z</time></trkpt><trkpt lat="43.8645483" lon="6.48544"><ele>1059.0</ele><time>2026-05-02T08:29:56.283Z</time></trkpt><trkpt lat="43.86445" lon="6.48549"><ele>1057.2</ele><time>2026-05-02T08:29:57.283Z</time></trkpt><trkpt lat="43.864345" lon="6.4855467"><ele>1055.4</ele><time>2026-05-02T08:29:58.282Z</time></trkpt><trkpt lat="43.864235" lon="6.48559"><ele>1053.6</ele><time>2026-05-02T08:29:59.282Z</time></trkpt><trkpt lat="43.8641283" lon="6.4856033"><ele>1051.8</ele><time>2026-05-02T08:30:00.282Z</time></trkpt><trkpt lat="43.8640183" lon="6.485595"><ele>1050.0</ele><time>2026-05-02T08:30:01.282Z</time></trkpt><trkpt lat="43.8639117" lon="6.4855617"><ele>1050.0</ele><time>2026-05-02T08:30:02.282Z</time></trkpt><trkpt lat="43.86382" lon="6.4855017"><ele>1050.0</ele><time>2026-05-02T08:30:03.282Z</time></trkpt><trkpt lat="43.8637367" lon="6.485435"><ele>1050.0</ele><time>2026-05-02T08:30:04.282Z</time></trkpt><trkpt lat="43.863645" lon="6.4853767"><ele>1050.0</ele><time>2026-05-02T08:30:05.283Z</time></trkpt><trkpt lat="43.8635483" lon="6.4853583"><ele>1050.0</ele><time>2026-05-02T08:30:06.282Z</time></trkpt><trkpt lat="43.8634683" lon="6.4853683"><ele>1050.0</ele><time>2026-05-02T08:30:07.283Z</time></trkpt><trkpt lat="43.863405" lon="6.48543"><ele>1050.0</ele><time>2026-05-02T08:30:08.282Z</time></trkpt><trkpt lat="43.86338" lon="6.4855267"><ele>1050.0</ele><time>2026-05-02T08:30:09.282Z</time></trkpt><trkpt lat="43.8633967" lon="6.48564"><ele>1050.0</ele><time>2026-05-02T08:30:10.282Z</time></trkpt><trkpt lat="43.8634583" lon="6.4857567"><ele>1050.0</ele><time>2026-05-02T08:30:11.282Z</time></trkpt><trkpt lat="43.8635583" lon="6.4858583"><ele>1050.0</ele><time>2026-05-02T08:30:12.283Z</time></trkpt><trkpt lat="43.8636833" lon="6.4859367"><ele>1050.0</ele><time>2026-05-02T08:30:13.282Z</time></trkpt><trkpt lat="43.8637883" lon="6.4860333"><ele>1050.0</ele><time>2026-05-02T08:30:14.282Z</time></trkpt><trkpt lat="43.8638783" lon="6.4861517"><ele>1050.0</ele><time>2026-05-02T08:30:15.283Z</time></trkpt><trkpt lat="43.8639617" lon="6.4862767"><ele>1047.0</ele><time>2026-05-02T08:30:16.282Z</time></trkpt><trkpt lat="43.8640433" lon="6.4864117"><ele>1044.0</ele><time>2026-05-02T08:30:17.282Z</time></trkpt><trkpt lat="43.8641267" lon="6.4865483"><ele>1041.0</ele><time>2026-05-02T08:30:18.282Z</time></trkpt><trkpt lat="43.864215" lon="6.4866683"><ele>1038.0</ele><time>2026-05-02T08:30:19.282Z</time></trkpt><trkpt lat="43.8643033" lon="6.4867833"><ele>1037.0</ele><time>2026-05-02T08:30:20.282Z</time></trkpt><trkpt lat="43.8644033" lon="6.4868783"><ele>1036.0</ele><time>2026-05-02T08:30:21.282Z</time></trkpt><trkpt lat="43.8645017" lon="6.48696"><ele>1035.0</ele><time>2026-05-02T08:30:22.282Z</time></trkpt><trkpt lat="43.8646017" lon="6.48703"><ele>1034.0</ele><time>2026-05-02T08:30:23.283Z</time></trkpt><trkpt lat="43.8647183" lon="6.4870667"><ele>1034.0</ele><time>2026-05-02T08:30:24.282Z</time></trkpt><trkpt lat="43.86483" lon="6.4870667"><ele>1034.0</ele><time>2026-05-02T08:30:25.282Z</time></trkpt><trkpt lat="43.8649417" lon="6.4870517"><ele>1034.0</ele><time>2026-05-02T08:30:26.282Z</time></trkpt><trkpt lat="43.865055" lon="6.4870217"><ele>1034.0</ele><time>2026-05-02T08:30:27.282Z</time></trkpt><trkpt lat="43.865155" lon="6.48697"><ele>1034.0</ele><time>2026-05-02T08:30:28.283Z</time></trkpt><trkpt lat="43.8652433" lon="6.48688"><ele>1031.8</ele><time>2026-05-02T08:30:29.282Z</time></trkpt><trkpt lat="43.8653117" lon="6.4867567"><ele>1029.6000000000001</ele><time>2026-05-02T08:30:30.282Z</time></trkpt><trkpt lat="43.8653733" lon="6.4866133"><ele>1027.4</ele><time>2026-05-02T08:30:31.282Z</time></trkpt><trkpt lat="43.8654417" lon="6.4864867"><ele>1025.2</ele><time>2026-05-02T08:30:32.282Z</time></trkpt><trkpt lat="43.8655267" lon="6.48641"><ele>1023.0</ele><time>2026-05-02T08:30:33.282Z</time></trkpt><trkpt lat="43.8656317" lon="6.4863867"><ele>1023.0</ele><time>2026-05-02T08:30:34.282Z</time></trkpt><trkpt lat="43.86574" lon="6.4864233"><ele>1023.0</ele><time>2026-05-02T08:30:35.282Z</time></trkpt><trkpt lat="43.8658633" lon="6.48647"><ele>1023.0</ele><time>2026-05-02T08:30:36.283Z</time></trkpt><trkpt lat="43.8659867" lon="6.486525"><ele>1023.0</ele><time>2026-05-02T08:30:37.282Z</time></trkpt><trkpt lat="43.866115" lon="6.4865667"><ele>1021.0</ele><time>2026-05-02T08:30:38.282Z</time></trkpt><trkpt lat="43.8662483" lon="6.4866"><ele>1019.0</ele><time>2026-05-02T08:30:39.282Z</time></trkpt><trkpt lat="43.8663817" lon="6.4866067"><ele>1017.0</ele><time>2026-05-02T08:30:40.282Z</time></trkpt><trkpt lat="43.8665133" lon="6.4865883"><ele>1015.0</ele><time>2026-05-02T08:30:41.283Z</time></trkpt><trkpt lat="43.8666417" lon="6.4865283"><ele>1015.0</ele><time>2026-05-02T08:30:42.282Z</time></trkpt><trkpt lat="43.8667567" lon="6.48645"><ele>1015.0</ele><time>2026-05-02T08:30:43.282Z</time></trkpt><trkpt lat="43.8668733" lon="6.486365"><ele>1015.0</ele><time>2026-05-02T08:30:44.282Z</time></trkpt><trkpt lat="43.8669833" lon="6.4862883"><ele>1015.0</ele><time>2026-05-02T08:30:45.282Z</time></trkpt><trkpt lat="43.86708" lon="6.4862133"><ele>1015.2</ele><time>2026-05-02T08:30:46.282Z</time></trkpt><trkpt lat="43.867175" lon="6.486155"><ele>1015.4</ele><time>2026-05-02T08:30:47.282Z</time></trkpt><trkpt lat="43.867265" lon="6.4861317"><ele>1015.5999999999999</ele><time>2026-05-02T08:30:48.282Z</time></trkpt><trkpt lat="43.867345" lon="6.48616"><ele>1015.8</ele><time>2026-05-02T08:30:49.282Z</time></trkpt><trkpt lat="43.86742" lon="6.4862267"><ele>1016.0</ele><time>2026-05-02T08:30:50.282Z</time></trkpt><trkpt lat="43.8674667" lon="6.4863417"><ele>1013.5999999999999</ele><time>2026-05-02T08:30:51.283Z</time></trkpt><trkpt lat="43.8674817" lon="6.4864667"><ele>1011.1999999999999</ele><time>2026-05-02T08:30:52.282Z</time></trkpt><trkpt lat="43.8674533" lon="6.4865883"><ele>1008.8000000000001</ele><time>2026-05-02T08:30:53.282Z</time></trkpt><trkpt lat="43.8673817" lon="6.4867083"><ele>1006.4000000000001</ele><time>2026-05-02T08:30:54.282Z</time></trkpt><trkpt lat="43.8672833" lon="6.4868267"><ele>1004.0</ele><time>2026-05-02T08:30:55.282Z</time></trkpt><trkpt lat="43.8671733" lon="6.4869417"><ele>1004.0</ele><time>2026-05-02T08:30:56.283Z</time></trkpt><trkpt lat="43.8670633" lon="6.4870483"><ele>1004.0</ele><time>2026-05-02T08:30:57.282Z</time></trkpt><trkpt lat="43.8669583" lon="6.4871533"><ele>1004.0</ele><time>2026-05-02T08:30:58.282Z</time></trkpt><trkpt lat="43.8668617" lon="6.487255"><ele>1004.0</ele><time>2026-05-02T08:30:59.282Z</time></trkpt><trkpt lat="43.8667533" lon="6.48733"><ele>1002.0</ele><time>2026-05-02T08:31:00.282Z</time></trkpt><trkpt lat="43.8666417" lon="6.48737"><ele>1000.0</ele><time>2026-05-02T08:31:01.282Z</time></trkpt><trkpt lat="43.8665283" lon="6.4873883"><ele>998.0</ele><time>2026-05-02T08:31:02.282Z</time></trkpt><trkpt lat="43.8664183" lon="6.4874"><ele>996.0</ele><time>2026-05-02T08:31:03.282Z</time></trkpt><trkpt lat="43.86631" lon="6.4874417"><ele>996.0</ele><time>2026-05-02T08:31:04.283Z</time></trkpt><trkpt lat="43.8662317" lon="6.4875233"><ele>995.9999999999999</ele><time>2026-05-02T08:31:05.282Z</time></trkpt><trkpt lat="43.866165" lon="6.4876433"><ele>995.9999999999999</ele><time>2026-05-02T08:31:06.283Z</time></trkpt><trkpt lat="43.866125" lon="6.4877983"><ele>996.0</ele><time>2026-05-02T08:31:07.282Z</time></trkpt><trkpt lat="43.866085" lon="6.48796"><ele>996.0</ele><time>2026-05-02T08:31:08.282Z</time></trkpt><trkpt lat="43.8660317" lon="6.4881133"><ele>996.25</ele><time>2026-05-02T08:31:09.282Z</time></trkpt><trkpt lat="43.8659717" lon="6.4882717"><ele>996.5</ele><time>2026-05-02T08:31:10.282Z</time></trkpt><trkpt lat="43.865905" lon="6.4884317"><ele>996.75</ele><time>2026-05-02T08:31:11.283Z</time></trkpt><trkpt lat="43.865825" lon="6.4885817"><ele>997.0</ele><time>2026-05-02T08:31:12.282Z</time></trkpt><trkpt lat="43.8657483" lon="6.48872"><ele>993.75</ele><time>2026-05-02T08:31:13.282Z</time></trkpt><trkpt lat="43.8656617" lon="6.48885"><ele>990.5</ele><time>2026-05-02T08:31:14.282Z</time></trkpt><trkpt lat="43.865565" lon="6.4889667"><ele>987.25</ele><time>2026-05-02T08:31:15.282Z</time></trkpt><trkpt lat="43.8654683" lon="6.489055"><ele>984.0</ele><time>2026-05-02T08:31:16.282Z</time></trkpt><trkpt lat="43.865365" lon="6.4891233"><ele>984.0</ele><time>2026-05-02T08:31:17.282Z</time></trkpt><trkpt lat="43.865255" lon="6.4891617"><ele>984.0</ele><time>2026-05-02T08:31:18.282Z</time></trkpt><trkpt lat="43.8651433" lon="6.4892"><ele>984.0</ele><time>2026-05-02T08:31:19.283Z</time></trkpt><trkpt lat="43.8650167" lon="6.4892483"><ele>984.0</ele><time>2026-05-02T08:31:20.282Z</time></trkpt><trkpt lat="43.86489" lon="6.48932"><ele>985.0</ele><time>2026-05-02T08:31:21.283Z</time></trkpt><trkpt lat="43.8647783" lon="6.48941"><ele>986.0</ele><time>2026-05-02T08:31:22.282Z</time></trkpt><trkpt lat="43.8646667" lon="6.4895017"><ele>987.0</ele><time>2026-05-02T08:31:23.282Z</time></trkpt><trkpt lat="43.8645433" lon="6.4895867"><ele>988.0</ele><time>2026-05-02T08:31:24.283Z</time></trkpt><trkpt lat="43.8644133" lon="6.4896517"><ele>982.5</ele><time>2026-05-02T08:31:25.282Z</time></trkpt><trkpt lat="43.8642783" lon="6.4896917"><ele>977.0</ele><time>2026-05-02T08:31:26.282Z</time></trkpt><trkpt lat="43.8641317" lon="6.4897283"><ele>971.5</ele><time>2026-05-02T08:31:27.282Z</time></trkpt><trkpt lat="43.8639867" lon="6.4897767"><ele>966.0</ele><time>2026-05-02T08:31:28.283Z</time></trkpt><trkpt lat="43.8638467" lon="6.489825"><ele>966.0</ele><time>2026-05-02T08:31:29.282Z</time></trkpt><trkpt lat="43.8637117" lon="6.4898767"><ele>966.0</ele><time>2026-05-02T08:31:30.283Z</time></trkpt><trkpt lat="43.8635783" lon="6.4899317"><ele>966.0</ele><time>2026-05-02T08:31:31.282Z</time></trkpt><trkpt lat="43.863445" lon="6.4899833"><ele>966.0</ele><time>2026-05-02T08:31:32.282Z</time></trkpt><trkpt lat="43.8633117" lon="6.4900283"><ele>967.25</ele><time>2026-05-02T08:31:33.282Z</time></trkpt><trkpt lat="43.8631783" lon="6.4900333"><ele>968.5</ele><time>2026-05-02T08:31:34.282Z</time></trkpt><trkpt lat="43.863045" lon="6.48999"><ele>969.75</ele><time>2026-05-02T08:31:35.282Z</time></trkpt><trkpt lat="43.8629167" lon="6.4899333"><ele>971.0</ele><time>2026-05-02T08:31:36.282Z</time></trkpt><trkpt lat="43.862775" lon="6.489875"><ele>971.0</ele><time>2026-05-02T08:31:37.282Z</time></trkpt><trkpt lat="43.8626333" lon="6.4898333"><ele>971.0</ele><time>2026-05-02T08:31:38.282Z</time></trkpt><trkpt lat="43.8624917" lon="6.4898117"><ele>971.0</ele><time>2026-05-02T08:31:39.282Z</time></trkpt><trkpt lat="43.8623583" lon="6.4898017"><ele>971.0</ele><time>2026-05-02T08:31:40.282Z</time></trkpt><trkpt lat="43.8622367" lon="6.4897967"><ele>970.5999999999999</ele><time>2026-05-02T08:31:41.282Z</time></trkpt><trkpt lat="43.86212" lon="6.4897917"><ele>970.1999999999999</ele><time>2026-05-02T08:31:42.283Z</time></trkpt><trkpt lat="43.8620017" lon="6.489775"><ele>969.8000000000001</ele><time>2026-05-02T08:31:43.282Z</time></trkpt><trkpt lat="43.8619033" lon="6.4897217"><ele>969.4000000000001</ele><time>2026-05-02T08:31:44.282Z</time></trkpt><trkpt lat="43.86183" lon="6.489635"><ele>969.0</ele><time>2026-05-02T08:31:45.282Z</time></trkpt><trkpt lat="43.8617833" lon="6.4895383"><ele>968.1666666666666</ele><time>2026-05-02T08:31:46.282Z</time></trkpt><trkpt lat="43.8617317" lon="6.4894467"><ele>967.3333333333333</ele><time>2026-05-02T08:31:47.282Z</time></trkpt><trkpt lat="43.8616817" lon="6.4893867"><ele>966.5</ele><time>2026-05-02T08:31:48.282Z</time></trkpt><trkpt lat="43.8615767" lon="6.4894333"><ele>965.6666666666666</ele><time>2026-05-02T08:31:50.282Z</time></trkpt><trkpt lat="43.8615517" lon="6.48952"><ele>964.8333333333333</ele><time>2026-05-02T08:31:51.282Z</time></trkpt><trkpt lat="43.8615583" lon="6.4896383"><ele>964.0</ele><time>2026-05-02T08:31:52.282Z</time></trkpt><trkpt lat="43.8616117" lon="6.4897767"><ele>965.25</ele><time>2026-05-02T08:31:53.282Z</time></trkpt><trkpt lat="43.8616967" lon="6.4899283"><ele>966.5</ele><time>2026-05-02T08:31:54.282Z</time></trkpt><trkpt lat="43.8618" lon="6.490065"><ele>967.75</ele><time>2026-05-02T08:31:55.282Z</time></trkpt><trkpt lat="43.8619133" lon="6.4901933"><ele>969.0</ele><time>2026-05-02T08:31:56.282Z</time></trkpt><trkpt lat="43.8620283" lon="6.4903167"><ele>964.75</ele><time>2026-05-02T08:31:57.282Z</time></trkpt><trkpt lat="43.86213" lon="6.4904433"><ele>960.5</ele><time>2026-05-02T08:31:58.283Z</time></trkpt><trkpt lat="43.8622233" lon="6.490565"><ele>956.25</ele><time>2026-05-02T08:31:59.283Z</time></trkpt><trkpt lat="43.862325" lon="6.4906733"><ele>952.0</ele><time>2026-05-02T08:32:00.282Z</time></trkpt><trkpt lat="43.862435" lon="6.4907483"><ele>952.0</ele><time>2026-05-02T08:32:01.282Z</time></trkpt><trkpt lat="43.86255" lon="6.4908033"><ele>952.0</ele><time>2026-05-02T08:32:02.282Z</time></trkpt><trkpt lat="43.862675" lon="6.4908583"><ele>952.0</ele><time>2026-05-02T08:32:03.282Z</time></trkpt><trkpt lat="43.8627967" lon="6.4909117"><ele>952.0</ele><time>2026-05-02T08:32:04.283Z</time></trkpt><trkpt lat="43.8629167" lon="6.4909567"><ele>950.75</ele><time>2026-05-02T08:32:05.282Z</time></trkpt><trkpt lat="43.8630267" lon="6.4909783"><ele>949.5</ele><time>2026-05-02T08:32:06.282Z</time></trkpt><trkpt lat="43.8631433" lon="6.4909467"><ele>948.25</ele><time>2026-05-02T08:32:07.282Z</time></trkpt><trkpt lat="43.863265" lon="6.490895"><ele>947.0</ele><time>2026-05-02T08:32:08.282Z</time></trkpt><trkpt lat="43.863385" lon="6.49082"><ele>943.75</ele><time>2026-05-02T08:32:09.282Z</time></trkpt><trkpt lat="43.86351" lon="6.490755"><ele>940.5</ele><time>2026-05-02T08:32:10.282Z</time></trkpt><trkpt lat="43.8636417" lon="6.4906967"><ele>937.25</ele><time>2026-05-02T08:32:11.283Z</time></trkpt><trkpt lat="43.8637717" lon="6.49065"><ele>934.0</ele><time>2026-05-02T08:32:12.282Z</time></trkpt><trkpt lat="43.8639183" lon="6.4906133"><ele>934.0</ele><time>2026-05-02T08:32:13.283Z</time></trkpt><trkpt lat="43.864055" lon="6.4905917"><ele>934.0</ele><time>2026-05-02T08:32:14.282Z</time></trkpt><trkpt lat="43.8642017" lon="6.4905883"><ele>934.0</ele><time>2026-05-02T08:32:15.283Z</time></trkpt><trkpt lat="43.8643417" lon="6.490595"><ele>934.0</ele><time>2026-05-02T08:32:16.282Z</time></trkpt><trkpt lat="43.8644817" lon="6.4905983"><ele>933.0</ele><time>2026-05-02T08:32:17.282Z</time></trkpt><trkpt lat="43.8646217" lon="6.4905983"><ele>932.0</ele><time>2026-05-02T08:32:18.282Z</time></trkpt><trkpt lat="43.8647667" lon="6.4905917"><ele>931.0</ele><time>2026-05-02T08:32:19.282Z</time></trkpt><trkpt lat="43.8649017" lon="6.4905933"><ele>930.0</ele><time>2026-05-02T08:32:20.282Z</time></trkpt><trkpt lat="43.8650433" lon="6.49061"><ele>931.75</ele><time>2026-05-02T08:32:21.283Z</time></trkpt><trkpt lat="43.86518" lon="6.4906417"><ele>933.5</ele><time>2026-05-02T08:32:22.282Z</time></trkpt><trkpt lat="43.865315" lon="6.4906917"><ele>935.25</ele><time>2026-05-02T08:32:23.282Z</time></trkpt><trkpt lat="43.8654383" lon="6.49075"><ele>937.0</ele><time>2026-05-02T08:32:24.282Z</time></trkpt><trkpt lat="43.8655633" lon="6.4908183"><ele>937.0</ele><time>2026-05-02T08:32:25.282Z</time></trkpt><trkpt lat="43.8656817" lon="6.49089"><ele>937.0</ele><time>2026-05-02T08:32:26.282Z</time></trkpt><trkpt lat="43.8658033" lon="6.4909517"><ele>937.0</ele><time>2026-05-02T08:32:27.283Z</time></trkpt><trkpt lat="43.8659233" lon="6.4910183"><ele>937.0</ele><time>2026-05-02T08:32:28.282Z</time></trkpt><trkpt lat="43.866055" lon="6.4910783"><ele>934.75</ele><time>2026-05-02T08:32:29.282Z</time></trkpt><trkpt lat="43.8661783" lon="6.4911183"><ele>932.5</ele><time>2026-05-02T08:32:30.282Z</time></trkpt><trkpt lat="43.8663033" lon="6.4911417"><ele>930.25</ele><time>2026-05-02T08:32:31.282Z</time></trkpt><trkpt lat="43.8664117" lon="6.4911583"><ele>928.0</ele><time>2026-05-02T08:32:32.282Z</time></trkpt><trkpt lat="43.8664983" lon="6.4911983"><ele>923.4999999999999</ele><time>2026-05-02T08:32:33.282Z</time></trkpt><trkpt lat="43.8665583" lon="6.49127"><ele>919.0</ele><time>2026-05-02T08:32:34.282Z</time></trkpt><trkpt lat="43.8665783" lon="6.49136"><ele>914.5</ele><time>2026-05-02T08:32:35.282Z</time></trkpt><trkpt lat="43.8665583" lon="6.4914533"><ele>910.0</ele><time>2026-05-02T08:32:36.282Z</time></trkpt><trkpt lat="43.8665" lon="6.4915283"><ele>905.4999999999999</ele><time>2026-05-02T08:32:37.282Z</time></trkpt><trkpt lat="43.8664033" lon="6.491555"><ele>901.0</ele><time>2026-05-02T08:32:38.282Z</time></trkpt><trkpt lat="43.8662833" lon="6.4915133"><ele>901.0</ele><time>2026-05-02T08:32:39.282Z</time></trkpt><trkpt lat="43.866135" lon="6.491425"><ele>901.0</ele><time>2026-05-02T08:32:40.282Z</time></trkpt><trkpt lat="43.8659717" lon="6.4913183"><ele>901.0</ele><time>2026-05-02T08:32:41.282Z</time></trkpt><trkpt lat="43.8658233" lon="6.4912417"><ele>910.0</ele><time>2026-05-02T08:32:42.283Z</time></trkpt><trkpt lat="43.86568" lon="6.4911883"><ele>919.0</ele><time>2026-05-02T08:32:43.282Z</time></trkpt><trkpt lat="43.8655367" lon="6.4911517"><ele>928.0</ele><time>2026-05-02T08:32:44.282Z</time></trkpt><trkpt lat="43.8653967" lon="6.4911167"><ele>937.0</ele><time>2026-05-02T08:32:45.282Z</time></trkpt><trkpt lat="43.865265" lon="6.491085"><ele>937.0</ele><time>2026-05-02T08:32:46.282Z</time></trkpt><trkpt lat="43.8651317" lon="6.49106"><ele>937.0</ele><time>2026-05-02T08:32:47.282Z</time></trkpt><trkpt lat="43.8649933" lon="6.491065"><ele>937.0</ele><time>2026-05-02T08:32:48.283Z</time></trkpt><trkpt lat="43.8648467" lon="6.4911067"><ele>937.0</ele><time>2026-05-02T08:32:49.282Z</time></trkpt><trkpt lat="43.8646867" lon="6.4911567"><ele>934.6666666666666</ele><time>2026-05-02T08:32:50.282Z</time></trkpt><trkpt lat="43.8645333" lon="6.4911983"><ele>932.3333333333333</ele><time>2026-05-02T08:32:51.282Z</time></trkpt><trkpt lat="43.8643783" lon="6.4912467"><ele>930.0</ele><time>2026-05-02T08:32:52.282Z</time></trkpt><trkpt lat="43.8642183" lon="6.4913083"><ele>918.6666666666667</ele><time>2026-05-02T08:32:53.282Z</time></trkpt><trkpt lat="43.8640767" lon="6.4913783"><ele>907.3333333333334</ele><time>2026-05-02T08:32:54.282Z</time></trkpt><trkpt lat="43.8639417" lon="6.4914717"><ele>896.0</ele><time>2026-05-02T08:32:55.282Z</time></trkpt><trkpt lat="43.8638033" lon="6.4915967"><ele>896.0</ele><time>2026-05-02T08:32:56.282Z</time></trkpt><trkpt lat="43.8636717" lon="6.49171"><ele>896.0</ele><time>2026-05-02T08:32:57.282Z</time></trkpt><trkpt lat="43.8635383" lon="6.4918433"><ele>896.0</ele><time>2026-05-02T08:32:58.281Z</time></trkpt><trkpt lat="43.863415" lon="6.49196"><ele>890.3333333333334</ele><time>2026-05-02T08:32:59.281Z</time></trkpt><trkpt lat="43.86329" lon="6.4920717"><ele>884.6666666666667</ele><time>2026-05-02T08:33:00.281Z</time></trkpt><trkpt lat="43.8631467" lon="6.4921633"><ele>879.0</ele><time>2026-05-02T08:33:01.281Z</time></trkpt><trkpt lat="43.8629983" lon="6.49225"><ele>879.0</ele><time>2026-05-02T08:33:02.281Z</time></trkpt><trkpt lat="43.8628517" lon="6.492305"><ele>879.0</ele><time>2026-05-02T08:33:03.281Z</time></trkpt><trkpt lat="43.8627067" lon="6.4923483"><ele>879.0</ele><time>2026-05-02T08:33:04.281Z</time></trkpt><trkpt lat="43.8625683" lon="6.4924017"><ele>879.0</ele><time>2026-05-02T08:33:05.281Z</time></trkpt><trkpt lat="43.8624233" lon="6.492475"><ele>882.75</ele><time>2026-05-02T08:33:06.281Z</time></trkpt><trkpt lat="43.8622883" lon="6.4925567"><ele>886.5</ele><time>2026-05-02T08:33:07.281Z</time></trkpt><trkpt lat="43.8621517" lon="6.4926233"><ele>890.25</ele><time>2026-05-02T08:33:08.281Z</time></trkpt><trkpt lat="43.862015" lon="6.4926967"><ele>894.0</ele><time>2026-05-02T08:33:09.281Z</time></trkpt><trkpt lat="43.8618833" lon="6.4927467"><ele>896.25</ele><time>2026-05-02T08:33:10.281Z</time></trkpt><trkpt lat="43.8617417" lon="6.4927733"><ele>898.5</ele><time>2026-05-02T08:33:11.281Z</time></trkpt><trkpt lat="43.8616167" lon="6.49277"><ele>900.75</ele><time>2026-05-02T08:33:12.281Z</time></trkpt><trkpt lat="43.8614817" lon="6.4927283"><ele>903.0</ele><time>2026-05-02T08:33:13.281Z</time></trkpt><trkpt lat="43.8613367" lon="6.4926933"><ele>903.0</ele><time>2026-05-02T08:33:14.282Z</time></trkpt><trkpt lat="43.8611783" lon="6.4926833"><ele>903.0</ele><time>2026-05-02T08:33:15.281Z</time></trkpt><trkpt lat="43.8610283" lon="6.492675"><ele>903.0</ele><time>2026-05-02T08:33:16.281Z</time></trkpt><trkpt lat="43.8608817" lon="6.4926467"><ele>899.0</ele><time>2026-05-02T08:33:17.281Z</time></trkpt><trkpt lat="43.8607233" lon="6.4926183"><ele>895.0</ele><time>2026-05-02T08:33:18.281Z</time></trkpt><trkpt lat="43.86057" lon="6.4925967"><ele>891.0</ele><time>2026-05-02T08:33:19.281Z</time></trkpt><trkpt lat="43.8604167" lon="6.4925967"><ele>891.0</ele><time>2026-05-02T08:33:20.281Z</time></trkpt><trkpt lat="43.8602733" lon="6.4926283"><ele>891.0</ele><time>2026-05-02T08:33:21.282Z</time></trkpt><trkpt lat="43.86014" lon="6.49269"><ele>891.0</ele><time>2026-05-02T08:33:22.281Z</time></trkpt><trkpt lat="43.8600183" lon="6.4927417"><ele>891.0</ele><time>2026-05-02T08:33:23.281Z</time></trkpt><trkpt lat="43.859925" lon="6.4927817"><ele>888.0</ele><time>2026-05-02T08:33:24.281Z</time></trkpt><trkpt lat="43.859835" lon="6.4927967"><ele>885.0</ele><time>2026-05-02T08:33:25.281Z</time></trkpt><trkpt lat="43.8597533" lon="6.4927717"><ele>882.0</ele><time>2026-05-02T08:33:26.281Z</time></trkpt><trkpt lat="43.8597117" lon="6.492685"><ele>879.0</ele><time>2026-05-02T08:33:27.281Z</time></trkpt><trkpt lat="43.8596983" lon="6.4925583"><ele>876.0</ele><time>2026-05-02T08:33:28.281Z</time></trkpt><trkpt lat="43.85973" lon="6.4924183"><ele>873.0</ele><time>2026-05-02T08:33:29.281Z</time></trkpt><trkpt lat="43.8598017" lon="6.492245"><ele>869.75</ele><time>2026-05-02T08:33:30.281Z</time></trkpt><trkpt lat="43.859885" lon="6.49208"><ele>866.5</ele><time>2026-05-02T08:33:31.281Z</time></trkpt><trkpt lat="43.85996" lon="6.4919217"><ele>863.25</ele><time>2026-05-02T08:33:32.281Z</time></trkpt><trkpt lat="43.860035" lon="6.49177"><ele>860.0</ele><time>2026-05-02T08:33:33.281Z</time></trkpt><trkpt lat="43.8601217" lon="6.4916517"><ele>870.25</ele><time>2026-05-02T08:33:34.281Z</time></trkpt><trkpt lat="43.860215" lon="6.4915567"><ele>880.5</ele><time>2026-05-02T08:33:35.281Z</time></trkpt><trkpt lat="43.8603017" lon="6.4914667"><ele>890.75</ele><time>2026-05-02T08:33:36.282Z</time></trkpt><trkpt lat="43.8603783" lon="6.49135"><ele>901.0</ele><time>2026-05-02T08:33:37.281Z</time></trkpt><trkpt lat="43.860425" lon="6.4911883"><ele>901.5</ele><time>2026-05-02T08:33:38.281Z</time></trkpt><trkpt lat="43.86042" lon="6.4910167"><ele>902.0</ele><time>2026-05-02T08:33:39.282Z</time></trkpt><trkpt lat="43.8603633" lon="6.4908517"><ele>902.5</ele><time>2026-05-02T08:33:40.281Z</time></trkpt><trkpt lat="43.8602817" lon="6.490695"><ele>903.0</ele><time>2026-05-02T08:33:41.281Z</time></trkpt><trkpt lat="43.8602067" lon="6.49054"><ele>904.0</ele><time>2026-05-02T08:33:42.281Z</time></trkpt><trkpt lat="43.8601817" lon="6.4903833"><ele>905.0</ele><time>2026-05-02T08:33:43.281Z</time></trkpt><trkpt lat="43.8601883" lon="6.4902267"><ele>906.0</ele><time>2026-05-02T08:33:44.281Z</time></trkpt><trkpt lat="43.8601933" lon="6.490065"><ele>907.0</ele><time>2026-05-02T08:33:45.281Z</time></trkpt><trkpt lat="43.8601933" lon="6.48991"><ele>907.0</ele><time>2026-05-02T08:33:46.281Z</time></trkpt><trkpt lat="43.8601833" lon="6.4897483"><ele>907.0</ele><time>2026-05-02T08:33:47.281Z</time></trkpt><trkpt lat="43.8601667" lon="6.4896033"><ele>907.0</ele><time>2026-05-02T08:33:48.281Z</time></trkpt><trkpt lat="43.8601483" lon="6.4894633"><ele>907.0</ele><time>2026-05-02T08:33:49.281Z</time></trkpt><trkpt lat="43.86012" lon="6.489355"><ele>907.0</ele><time>2026-05-02T08:33:50.281Z</time></trkpt><trkpt lat="43.86008" lon="6.489265"><ele>898.9999999999999</ele><time>2026-05-02T08:33:51.281Z</time></trkpt><trkpt lat="43.86002" lon="6.4892133"><ele>891.0</ele><time>2026-05-02T08:33:52.281Z</time></trkpt><trkpt lat="43.85995" lon="6.4892033"><ele>883.0</ele><time>2026-05-02T08:33:53.281Z</time></trkpt><trkpt lat="43.8598733" lon="6.4892567"><ele>875.0</ele><time>2026-05-02T08:33:54.281Z</time></trkpt><trkpt lat="43.85981" lon="6.4893617"><ele>866.9999999999999</ele><time>2026-05-02T08:33:55.281Z</time></trkpt><trkpt lat="43.8597933" lon="6.489505"><ele>859.0</ele><time>2026-05-02T08:33:56.282Z</time></trkpt><trkpt lat="43.85983" lon="6.4896417"><ele>858.5</ele><time>2026-05-02T08:33:57.281Z</time></trkpt><trkpt lat="43.8599083" lon="6.4897833"><ele>858.0</ele><time>2026-05-02T08:33:58.281Z</time></trkpt><trkpt lat="43.8599483" lon="6.4899367"><ele>857.5</ele><time>2026-05-02T08:33:59.281Z</time></trkpt><trkpt lat="43.8599667" lon="6.4901017"><ele>857.0</ele><time>2026-05-02T08:34:00.281Z</time></trkpt><trkpt lat="43.8599567" lon="6.490275"><ele>855.0</ele><time>2026-05-02T08:34:01.282Z</time></trkpt><trkpt lat="43.8599383" lon="6.4904433"><ele>853.0</ele><time>2026-05-02T08:34:02.281Z</time></trkpt><trkpt lat="43.85995" lon="6.4905983"><ele>851.0</ele><time>2026-05-02T08:34:03.281Z</time></trkpt><trkpt lat="43.8599817" lon="6.49074"><ele>849.0</ele><time>2026-05-02T08:34:04.281Z</time></trkpt><trkpt lat="43.8600117" lon="6.490885"><ele>849.0</ele><time>2026-05-02T08:34:05.281Z</time></trkpt><trkpt lat="43.86002" lon="6.4910333"><ele>849.0</ele><time>2026-05-02T08:34:06.281Z</time></trkpt><trkpt lat="43.8599783" lon="6.4911983"><ele>849.0</ele><time>2026-05-02T08:34:07.281Z</time></trkpt><trkpt lat="43.8598917" lon="6.4913333"><ele>849.0</ele><time>2026-05-02T08:34:08.281Z</time></trkpt><trkpt lat="43.8597717" lon="6.49145"><ele>851.75</ele><time>2026-05-02T08:34:09.282Z</time></trkpt><trkpt lat="43.8596467" lon="6.4915617"><ele>854.5</ele><time>2026-05-02T08:34:10.282Z</time></trkpt><trkpt lat="43.8595217" lon="6.491685"><ele>857.25</ele><time>2026-05-02T08:34:11.281Z</time></trkpt><trkpt lat="43.859415" lon="6.49179"><ele>860.0</ele><time>2026-05-02T08:34:12.281Z</time></trkpt><trkpt lat="43.859315" lon="6.491905"><ele>854.75</ele><time>2026-05-02T08:34:13.282Z</time></trkpt><trkpt lat="43.8592167" lon="6.4920367"><ele>849.5</ele><time>2026-05-02T08:34:14.281Z</time></trkpt><trkpt lat="43.8591383" lon="6.4921783"><ele>844.25</ele><time>2026-05-02T08:34:15.281Z</time></trkpt><trkpt lat="43.859075" lon="6.4923533"><ele>839.0</ele><time>2026-05-02T08:34:16.281Z</time></trkpt><trkpt lat="43.8590117" lon="6.49254"><ele>839.0</ele><time>2026-05-02T08:34:17.281Z</time></trkpt><trkpt lat="43.8589417" lon="6.4927133"><ele>839.0</ele><time>2026-05-02T08:34:18.281Z</time></trkpt><trkpt lat="43.85886" lon="6.49288"><ele>839.0</ele><time>2026-05-02T08:34:19.281Z</time></trkpt><trkpt lat="43.8587783" lon="6.4930267"><ele>839.0</ele><time>2026-05-02T08:34:20.281Z</time></trkpt><trkpt lat="43.8586917" lon="6.4931683"><ele>840.25</ele><time>2026-05-02T08:34:21.281Z</time></trkpt><trkpt lat="43.8586217" lon="6.49331"><ele>841.5</ele><time>2026-05-02T08:34:22.281Z</time></trkpt><trkpt lat="43.8585483" lon="6.4934567"><ele>842.75</ele><time>2026-05-02T08:34:23.281Z</time></trkpt><trkpt lat="43.8584867" lon="6.4935967"><ele>844.0</ele><time>2026-05-02T08:34:24.281Z</time></trkpt><trkpt lat="43.858445" lon="6.4937367"><ele>839.0</ele><time>2026-05-02T08:34:25.281Z</time></trkpt><trkpt lat="43.8584383" lon="6.4938833"><ele>834.0</ele><time>2026-05-02T08:34:26.281Z</time></trkpt><trkpt lat="43.8584917" lon="6.4940083"><ele>829.0</ele><time>2026-05-02T08:34:27.281Z</time></trkpt><trkpt lat="43.858585" lon="6.4940983"><ele>824.0</ele><time>2026-05-02T08:34:28.281Z</time></trkpt><trkpt lat="43.8587083" lon="6.4941633"><ele>824.0</ele><time>2026-05-02T08:34:29.281Z</time></trkpt><trkpt lat="43.8588417" lon="6.49422"><ele>824.0</ele><time>2026-05-02T08:34:30.281Z</time></trkpt><trkpt lat="43.8589917" lon="6.4942617"><ele>824.0</ele><time>2026-05-02T08:34:31.281Z</time></trkpt><trkpt lat="43.8591433" lon="6.4942933"><ele>824.0</ele><time>2026-05-02T08:34:32.281Z</time></trkpt><trkpt lat="43.8592917" lon="6.4943417"><ele>825.75</ele><time>2026-05-02T08:34:33.281Z</time></trkpt><trkpt lat="43.85943" lon="6.4943983"><ele>827.5</ele><time>2026-05-02T08:34:34.281Z</time></trkpt><trkpt lat="43.859565" lon="6.4944617"><ele>829.25</ele><time>2026-05-02T08:34:35.281Z</time></trkpt><trkpt lat="43.8596967" lon="6.4945167"><ele>831.0</ele><time>2026-05-02T08:34:36.282Z</time></trkpt><trkpt lat="43.8598233" lon="6.494555"><ele>831.0</ele><time>2026-05-02T08:34:37.282Z</time></trkpt><trkpt lat="43.8599567" lon="6.4945633"><ele>831.0</ele><time>2026-05-02T08:34:38.281Z</time></trkpt><trkpt lat="43.860095" lon="6.4945667"><ele>831.0</ele><time>2026-05-02T08:34:39.281Z</time></trkpt><trkpt lat="43.8602317" lon="6.4945667"><ele>831.0</ele><time>2026-05-02T08:34:40.282Z</time></trkpt><trkpt lat="43.860365" lon="6.4945733"><ele>824.0</ele><time>2026-05-02T08:34:41.282Z</time></trkpt><trkpt lat="43.8605017" lon="6.4946"><ele>817.0</ele><time>2026-05-02T08:34:42.281Z</time></trkpt><trkpt lat="43.860635" lon="6.4946383"><ele>810.0</ele><time>2026-05-02T08:34:43.282Z</time></trkpt><trkpt lat="43.8607517" lon="6.4946683"><ele>803.0</ele><time>2026-05-02T08:34:44.281Z</time></trkpt><trkpt lat="43.8608467" lon="6.4947117"><ele>803.0</ele><time>2026-05-02T08:34:45.281Z</time></trkpt><trkpt lat="43.8609267" lon="6.4947933"><ele>803.0</ele><time>2026-05-02T08:34:46.281Z</time></trkpt><trkpt lat="43.8609717" lon="6.494915"><ele>803.0</ele><time>2026-05-02T08:34:47.281Z</time></trkpt><trkpt lat="43.8609817" lon="6.495055"><ele>803.0</ele><time>2026-05-02T08:34:48.282Z</time></trkpt><trkpt lat="43.8609567" lon="6.495215"><ele>803.0</ele><time>2026-05-02T08:34:49.281Z</time></trkpt><trkpt lat="43.8608933" lon="6.49535"><ele>803.0</ele><time>2026-05-02T08:34:50.281Z</time></trkpt><trkpt lat="43.8607983" lon="6.49543"><ele>803.0</ele><time>2026-05-02T08:34:51.281Z</time></trkpt><trkpt lat="43.860675" lon="6.49546"><ele>803.0</ele><time>2026-05-02T08:34:52.281Z</time></trkpt><trkpt lat="43.8605433" lon="6.4954317"><ele>803.0</ele><time>2026-05-02T08:34:53.282Z</time></trkpt><trkpt lat="43.8604317" lon="6.4953383"><ele>803.0</ele><time>2026-05-02T08:34:54.281Z</time></trkpt><trkpt lat="43.8603483" lon="6.4952267"><ele>803.0</ele><time>2026-05-02T08:34:55.281Z</time></trkpt><trkpt lat="43.860265" lon="6.4951267"><ele>803.0</ele><time>2026-05-02T08:34:56.281Z</time></trkpt><trkpt lat="43.860165" lon="6.49506"><ele>803.0</ele><time>2026-05-02T08:34:57.281Z</time></trkpt><trkpt lat="43.8600433" lon="6.4950167"><ele>802.0</ele><time>2026-05-02T08:34:58.281Z</time></trkpt><trkpt lat="43.859905" lon="6.4950067"><ele>801.0</ele><time>2026-05-02T08:34:59.282Z</time></trkpt><trkpt lat="43.8597583" lon="6.4949967"><ele>800.0</ele><time>2026-05-02T08:35:00.282Z</time></trkpt><trkpt lat="43.8596167" lon="6.4949683"><ele>799.0</ele><time>2026-05-02T08:35:01.281Z</time></trkpt><trkpt lat="43.8594617" lon="6.4949567"><ele>799.0</ele><time>2026-05-02T08:35:02.282Z</time></trkpt><trkpt lat="43.8593133" lon="6.4949417"><ele>799.0</ele><time>2026-05-02T08:35:03.281Z</time></trkpt><trkpt lat="43.85916" lon="6.494935"><ele>799.0</ele><time>2026-05-02T08:35:04.281Z</time></trkpt><trkpt lat="43.8590017" lon="6.4949283"><ele>796.3333333333333</ele><time>2026-05-02T08:35:05.281Z</time></trkpt><trkpt lat="43.8588533" lon="6.494935"><ele>793.6666666666667</ele><time>2026-05-02T08:35:06.281Z</time></trkpt><trkpt lat="43.8587033" lon="6.49494"><ele>791.0</ele><time>2026-05-02T08:35:07.281Z</time></trkpt><trkpt lat="43.8585517" lon="6.4949767"><ele>789.75</ele><time>2026-05-02T08:35:08.281Z</time></trkpt><trkpt lat="43.8584033" lon="6.49502"><ele>788.5</ele><time>2026-05-02T08:35:09.282Z</time></trkpt><trkpt lat="43.858255" lon="6.4950667"><ele>787.25</ele><time>2026-05-02T08:35:10.281Z</time></trkpt><trkpt lat="43.8581117" lon="6.4951033"><ele>786.0</ele><time>2026-05-02T08:35:11.281Z</time></trkpt><trkpt lat="43.857975" lon="6.4951217"><ele>786.0</ele><time>2026-05-02T08:35:12.281Z</time></trkpt><trkpt lat="43.8578417" lon="6.4951017"><ele>786.0</ele><time>2026-05-02T08:35:13.281Z</time></trkpt><trkpt lat="43.8577033" lon="6.495085"><ele>786.0</ele><time>2026-05-02T08:35:14.281Z</time></trkpt><trkpt lat="43.8575767" lon="6.495105"><ele>786.0</ele><time>2026-05-02T08:35:15.281Z</time></trkpt><trkpt lat="43.8574617" lon="6.4951767"><ele>785.5</ele><time>2026-05-02T08:35:16.281Z</time></trkpt><trkpt lat="43.85736" lon="6.4952733"><ele>785.0</ele><time>2026-05-02T08:35:17.281Z</time></trkpt><trkpt lat="43.8572683" lon="6.4953883"><ele>784.5</ele><time>2026-05-02T08:35:18.281Z</time></trkpt><trkpt lat="43.857175" lon="6.4955117"><ele>784.0</ele><time>2026-05-02T08:35:19.281Z</time></trkpt><trkpt lat="43.857065" lon="6.49559"><ele>780.0</ele><time>2026-05-02T08:35:20.282Z</time></trkpt><trkpt lat="43.85694" lon="6.4956217"><ele>776.0</ele><time>2026-05-02T08:35:21.281Z</time></trkpt><trkpt lat="43.8568117" lon="6.4956133"><ele>772.0</ele><time>2026-05-02T08:35:22.281Z</time></trkpt><trkpt lat="43.85667" lon="6.4955933"><ele>768.0</ele><time>2026-05-02T08:35:23.281Z</time></trkpt><trkpt lat="43.8565267" lon="6.4955733"><ele>768.0</ele><time>2026-05-02T08:35:24.281Z</time></trkpt><trkpt lat="43.8564067" lon="6.495535"><ele>768.0</ele><time>2026-05-02T08:35:25.281Z</time></trkpt><trkpt lat="43.85628" lon="6.4955467"><ele>768.0</ele><time>2026-05-02T08:35:26.282Z</time></trkpt><trkpt lat="43.85616" lon="6.495595"><ele>768.0</ele><time>2026-05-02T08:35:27.281Z</time></trkpt><trkpt lat="43.85605" lon="6.4956833"><ele>768.0</ele><time>2026-05-02T08:35:28.281Z</time></trkpt><trkpt lat="43.8559667" lon="6.4958067"><ele>768.0</ele><time>2026-05-02T08:35:29.281Z</time></trkpt><trkpt lat="43.8559017" lon="6.4959517"><ele>768.0</ele><time>2026-05-02T08:35:30.281Z</time></trkpt><trkpt lat="43.8558667" lon="6.4961267"><ele>768.0</ele><time>2026-05-02T08:35:31.281Z</time></trkpt><trkpt lat="43.8558583" lon="6.4963167"><ele>765.3333333333334</ele><time>2026-05-02T08:35:32.281Z</time></trkpt><trkpt lat="43.855855" lon="6.4965233"><ele>762.6666666666667</ele><time>2026-05-02T08:35:33.281Z</time></trkpt><trkpt lat="43.85586" lon="6.496735"><ele>760.0</ele><time>2026-05-02T08:35:34.281Z</time></trkpt><trkpt lat="43.855855" lon="6.4969483"><ele>759.6666666666667</ele><time>2026-05-02T08:35:35.281Z</time></trkpt><trkpt lat="43.8558433" lon="6.4971667"><ele>759.3333333333334</ele><time>2026-05-02T08:35:36.281Z</time></trkpt><trkpt lat="43.855835" lon="6.49738"><ele>759.0</ele><time>2026-05-02T08:35:37.281Z</time></trkpt><trkpt lat="43.8558267" lon="6.4975967"><ele>759.0</ele><time>2026-05-02T08:35:38.281Z</time></trkpt><trkpt lat="43.85581" lon="6.4978117"><ele>759.0</ele><time>2026-05-02T08:35:39.281Z</time></trkpt><trkpt lat="43.8558017" lon="6.49803"><ele>759.0</ele><time>2026-05-02T08:35:40.281Z</time></trkpt><trkpt lat="43.8557967" lon="6.4982417"><ele>758.3333333333334</ele><time>2026-05-02T08:35:41.282Z</time></trkpt><trkpt lat="43.8557867" lon="6.4984567"><ele>757.6666666666667</ele><time>2026-05-02T08:35:42.281Z</time></trkpt><trkpt lat="43.8557783" lon="6.4986733"><ele>757.0</ele><time>2026-05-02T08:35:43.282Z</time></trkpt><trkpt lat="43.85577" lon="6.4988833"><ele>756.75</ele><time>2026-05-02T08:35:44.281Z</time></trkpt><trkpt lat="43.8557667" lon="6.499085"><ele>756.5</ele><time>2026-05-02T08:35:45.281Z</time></trkpt><trkpt lat="43.855755" lon="6.4992717"><ele>756.25</ele><time>2026-05-02T08:35:46.281Z</time></trkpt><trkpt lat="43.855745" lon="6.499455"><ele>756.0</ele><time>2026-05-02T08:35:47.281Z</time></trkpt><trkpt lat="43.8557417" lon="6.4996267"><ele>755.5999999999999</ele><time>2026-05-02T08:35:48.281Z</time></trkpt><trkpt lat="43.8557367" lon="6.4997867"><ele>755.2</ele><time>2026-05-02T08:35:49.281Z</time></trkpt><trkpt lat="43.85573" lon="6.49994"><ele>754.8</ele><time>2026-05-02T08:35:50.281Z</time></trkpt><trkpt lat="43.85571" lon="6.50009"><ele>754.4000000000001</ele><time>2026-05-02T08:35:51.281Z</time></trkpt><trkpt lat="43.8556733" lon="6.5002367"><ele>754.0</ele><time>2026-05-02T08:35:52.281Z</time></trkpt><trkpt lat="43.855615" lon="6.500375"><ele>753.25</ele><time>2026-05-02T08:35:53.281Z</time></trkpt><trkpt lat="43.8555433" lon="6.500505"><ele>752.5</ele><time>2026-05-02T08:35:54.282Z</time></trkpt><trkpt lat="43.8554583" lon="6.5006317"><ele>751.75</ele><time>2026-05-02T08:35:55.281Z</time></trkpt><trkpt lat="43.8553667" lon="6.5007633"><ele>751.0</ele><time>2026-05-02T08:35:56.281Z</time></trkpt><trkpt lat="43.8552667" lon="6.5008933"><ele>751.0</ele><time>2026-05-02T08:35:57.281Z</time></trkpt><trkpt lat="43.8551683" lon="6.5010217"><ele>751.0</ele><time>2026-05-02T08:35:58.281Z</time></trkpt><trkpt lat="43.85507" lon="6.501155"><ele>751.0</ele><time>2026-05-02T08:35:59.281Z</time></trkpt><trkpt lat="43.8549767" lon="6.50129"><ele>751.0</ele><time>2026-05-02T08:36:00.282Z</time></trkpt><trkpt lat="43.85488" lon="6.5014217"><ele>750.25</ele><time>2026-05-02T08:36:01.282Z</time></trkpt><trkpt lat="43.8547867" lon="6.5015483"><ele>749.5</ele><time>2026-05-02T08:36:02.281Z</time></trkpt><trkpt lat="43.8546917" lon="6.5016733"><ele>748.75</ele><time>2026-05-02T08:36:03.281Z</time></trkpt><trkpt lat="43.8545933" lon="6.501805"><ele>748.0</ele><time>2026-05-02T08:36:04.281Z</time></trkpt><trkpt lat="43.85449" lon="6.5019433"><ele>748.0</ele><time>2026-05-02T08:36:05.282Z</time></trkpt><trkpt lat="43.8543883" lon="6.5020717"><ele>748.0</ele><time>2026-05-02T08:36:06.281Z</time></trkpt><trkpt lat="43.8542933" lon="6.5022217"><ele>748.0</ele><time>2026-05-02T08:36:07.281Z</time></trkpt><trkpt lat="43.8542083" lon="6.5023717"><ele>748.0</ele><time>2026-05-02T08:36:08.281Z</time></trkpt><trkpt lat="43.8541283" lon="6.50252"><ele>747.25</ele><time>2026-05-02T08:36:09.282Z</time></trkpt><trkpt lat="43.8540633" lon="6.5026683"><ele>746.5</ele><time>2026-05-02T08:36:10.281Z</time></trkpt><trkpt lat="43.8540083" lon="6.5028133"><ele>745.75</ele><time>2026-05-02T08:36:11.281Z</time></trkpt><trkpt lat="43.8539517" lon="6.5029483"><ele>745.0</ele><time>2026-05-02T08:36:12.281Z</time></trkpt><trkpt lat="43.8538933" lon="6.503085"><ele>744.25</ele><time>2026-05-02T08:36:13.281Z</time></trkpt><trkpt lat="43.8538333" lon="6.5032267"><ele>743.5</ele><time>2026-05-02T08:36:14.282Z</time></trkpt><trkpt lat="43.8537733" lon="6.5033717"><ele>742.75</ele><time>2026-05-02T08:36:15.282Z</time></trkpt><trkpt lat="43.8537167" lon="6.5035167"><ele>742.0</ele><time>2026-05-02T08:36:16.281Z</time></trkpt><trkpt lat="43.853655" lon="6.50365"><ele>741.75</ele><time>2026-05-02T08:36:17.281Z</time></trkpt><trkpt lat="43.853605" lon="6.5037817"><ele>741.5</ele><time>2026-05-02T08:36:18.281Z</time></trkpt><trkpt lat="43.8535517" lon="6.5039067"><ele>741.25</ele><time>2026-05-02T08:36:19.281Z</time></trkpt><trkpt lat="43.8534917" lon="6.5040433"><ele>741.0</ele><time>2026-05-02T08:36:20.281Z</time></trkpt><trkpt lat="43.853425" lon="6.5041883"><ele>741.0</ele><time>2026-05-02T08:36:21.281Z</time></trkpt><trkpt lat="43.8533567" lon="6.5043333"><ele>741.0</ele><time>2026-05-02T08:36:22.281Z</time></trkpt><trkpt lat="43.85329" lon="6.5044867"><ele>741.0</ele><time>2026-05-02T08:36:23.281Z</time></trkpt><trkpt lat="43.8532217" lon="6.5046367"><ele>741.0</ele><time>2026-05-02T08:36:24.281Z</time></trkpt><trkpt lat="43.85315" lon="6.5047967"><ele>741.0</ele><time>2026-05-02T08:36:25.281Z</time></trkpt><trkpt lat="43.8530883" lon="6.5049383"><ele>741.0</ele><time>2026-05-02T08:36:26.281Z</time></trkpt><trkpt lat="43.8530267" lon="6.505085"><ele>741.0</ele><time>2026-05-02T08:36:27.281Z</time></trkpt><trkpt lat="43.8529583" lon="6.5052317"><ele>741.0</ele><time>2026-05-02T08:36:28.281Z</time></trkpt><trkpt lat="43.85289" lon="6.505375"><ele>741.0</ele><time>2026-05-02T08:36:29.281Z</time></trkpt><trkpt lat="43.8528183" lon="6.5055233"><ele>741.0</ele><time>2026-05-02T08:36:30.281Z</time></trkpt><trkpt lat="43.8527517" lon="6.5056767"><ele>741.0</ele><time>2026-05-02T08:36:31.281Z</time></trkpt><trkpt lat="43.852685" lon="6.505825"><ele>741.0</ele><time>2026-05-02T08:36:32.281Z</time></trkpt><trkpt lat="43.8526217" lon="6.5059817"><ele>742.0</ele><time>2026-05-02T08:36:33.281Z</time></trkpt><trkpt lat="43.8525567" lon="6.5061333"><ele>743.0</ele><time>2026-05-02T08:36:34.281Z</time></trkpt><trkpt lat="43.8524917" lon="6.506285"><ele>744.0</ele><time>2026-05-02T08:36:35.281Z</time></trkpt><trkpt lat="43.8524433" lon="6.5064233"><ele>745.0</ele><time>2026-05-02T08:36:36.281Z</time></trkpt><trkpt lat="43.8523783" lon="6.5065483"><ele>745.0</ele><time>2026-05-02T08:36:37.281Z</time></trkpt><trkpt lat="43.8523117" lon="6.50668"><ele>745.0</ele><time>2026-05-02T08:36:38.281Z</time></trkpt><trkpt lat="43.8522567" lon="6.5068033"><ele>745.0</ele><time>2026-05-02T08:36:39.281Z</time></trkpt><trkpt lat="43.8522067" lon="6.50691"><ele>745.0</ele><time>2026-05-02T08:36:40.281Z</time></trkpt><trkpt lat="43.852165" lon="6.5070033"><ele>745.0</ele><time>2026-05-02T08:36:41.281Z</time></trkpt><trkpt lat="43.852125" lon="6.507075"><ele>745.0</ele><time>2026-05-02T08:36:42.281Z</time></trkpt><trkpt lat="43.8520333" lon="6.5072"><ele>745.0</ele><time>2026-05-02T08:36:44.281Z</time></trkpt><trkpt lat="43.85199" lon="6.5072833"><ele>745.0</ele><time>2026-05-02T08:36:45.281Z</time></trkpt><trkpt lat="43.8519317" lon="6.50737"><ele>745.0</ele><time>2026-05-02T08:36:46.281Z</time></trkpt><trkpt lat="43.8518767" lon="6.5074517"><ele>745.0</ele><time>2026-05-02T08:36:47.281Z</time></trkpt><trkpt lat="43.8518217" lon="6.507525"><ele>745.0</ele><time>2026-05-02T08:36:48.281Z</time></trkpt><trkpt lat="43.851745" lon="6.5075917"><ele>745.3333333333334</ele><time>2026-05-02T08:36:49.281Z</time></trkpt><trkpt lat="43.8516583" lon="6.50766"><ele>745.6666666666667</ele><time>2026-05-02T08:36:50.282Z</time></trkpt><trkpt lat="43.85158" lon="6.5077"><ele>746.0</ele><time>2026-05-02T08:36:51.281Z</time></trkpt><trkpt lat="43.8515067" lon="6.5077383"><ele>746.3333333333334</ele><time>2026-05-02T08:36:52.281Z</time></trkpt><trkpt lat="43.8514467" lon="6.50779"><ele>746.6666666666666</ele><time>2026-05-02T08:36:53.281Z</time></trkpt><trkpt lat="43.8513967" lon="6.507855"><ele>747.0</ele><time>2026-05-02T08:36:54.282Z</time></trkpt><trkpt lat="43.8513983" lon="6.508025"><ele>747.0</ele><time>2026-05-02T08:36:56.281Z</time></trkpt><trkpt lat="43.8514567" lon="6.5080883"><ele>747.0</ele><time>2026-05-02T08:36:57.281Z</time></trkpt><trkpt lat="43.8515383" lon="6.5081183"><ele>747.0</ele><time>2026-05-02T08:36:58.281Z</time></trkpt><trkpt lat="43.8516267" lon="6.5081283"><ele>747.0</ele><time>2026-05-02T08:36:59.281Z</time></trkpt><trkpt lat="43.851715" lon="6.5081533"><ele>747.0</ele><time>2026-05-02T08:37:00.281Z</time></trkpt><trkpt lat="43.8517967" lon="6.5081967"><ele>747.0</ele><time>2026-05-02T08:37:01.281Z</time></trkpt><trkpt lat="43.8518867" lon="6.5082483"><ele>747.0</ele><time>2026-05-02T08:37:02.281Z</time></trkpt><trkpt lat="43.8519633" lon="6.5082917"><ele>747.0</ele><time>2026-05-02T08:37:03.281Z</time></trkpt><trkpt lat="43.8520333" lon="6.50832"><ele>747.0</ele><time>2026-05-02T08:37:04.281Z</time></trkpt><trkpt lat="43.8521167" lon="6.5083367"><ele>747.0</ele><time>2026-05-02T08:37:06.281Z</time></trkpt><trkpt lat="43.8521533" lon="6.5082533"><ele>747.0</ele><time>2026-05-02T08:37:08.281Z</time></trkpt><trkpt lat="43.8521467" lon="6.5081217"><ele>747.0</ele><time>2026-05-02T08:37:10.281Z</time></trkpt><trkpt lat="43.8521017" lon="6.5080017"><ele>746.6666666666666</ele><time>2026-05-02T08:37:12.282Z</time></trkpt><trkpt lat="43.852055" lon="6.507875"><ele>746.3333333333334</ele><time>2026-05-02T08:37:14.282Z</time></trkpt><trkpt lat="43.851995" lon="6.5077683"><ele>746.0</ele><time>2026-05-02T08:37:16.281Z</time></trkpt><trkpt lat="43.851935" lon="6.5077133"><ele>745.6666666666667</ele><time>2026-05-02T08:37:18.281Z</time></trkpt><trkpt lat="43.8518817" lon="6.507785"><ele>745.3333333333334</ele><time>2026-05-02T08:37:21.281Z</time></trkpt><trkpt lat="43.8519383" lon="6.5078433"><ele>745.0</ele><time>2026-05-02T08:37:25.281Z</time></trkpt><trkpt lat="43.8520167" lon="6.5078783"><ele>745.3333333333334</ele><time>2026-05-02T08:43:27.495Z</time></trkpt><trkpt lat="43.85209" lon="6.50795"><ele>745.6666666666667</ele><time>2026-05-02T08:43:29.995Z</time></trkpt><trkpt lat="43.8521783" lon="6.5079583"><ele>746.0</ele><time>2026-05-02T08:43:33.276Z</time></trkpt><trkpt lat="43.852265" lon="6.5080217"><ele>746.3333333333334</ele><time>2026-05-02T08:44:04.276Z</time></trkpt><trkpt lat="43.8522383" lon="6.5081083"><ele>746.6666666666666</ele><time>2026-05-02T08:44:08.276Z</time></trkpt><trkpt lat="43.852145" lon="6.5081367"><ele>747.0</ele><time>2026-05-02T08:44:11.276Z</time></trkpt><trkpt lat="43.8520883" lon="6.5081983"><ele>747.0</ele><time>2026-05-02T08:44:13.276Z</time></trkpt><trkpt lat="43.8519917" lon="6.5082317"><ele>747.0</ele><time>2026-05-02T08:44:16.276Z</time></trkpt><trkpt lat="43.8518917" lon="6.5081767"><ele>747.0</ele><time>2026-05-02T08:44:18.276Z</time></trkpt><trkpt lat="43.8518033" lon="6.5080967"><ele>747.0</ele><time>2026-05-02T08:44:20.276Z</time></trkpt><trkpt lat="43.8517317" lon="6.5079883"><ele>747.0</ele><time>2026-05-02T08:44:22.276Z</time></trkpt><trkpt lat="43.85167" lon="6.5078517"><ele>747.0</ele><time>2026-05-02T08:44:24.276Z</time></trkpt><trkpt lat="43.85158" lon="6.5077717"><ele>747.0</ele><time>2026-05-02T08:44:26.276Z</time></trkpt><trkpt lat="43.8514717" lon="6.5077917"><ele>747.0</ele><time>2026-05-02T08:44:28.276Z</time></trkpt><trkpt lat="43.8513683" lon="6.5078783"><ele>747.0</ele><time>2026-05-02T08:44:30.276Z</time></trkpt><trkpt lat="43.8513133" lon="6.507925"><ele>747.0</ele><time>2026-05-02T08:44:31.276Z</time></trkpt><trkpt lat="43.8512467" lon="6.5079683"><ele>747.0</ele><time>2026-05-02T08:44:32.276Z</time></trkpt><trkpt lat="43.8511717" lon="6.5080117"><ele>747.0</ele><time>2026-05-02T08:44:33.276Z</time></trkpt><trkpt lat="43.8510883" lon="6.5080567"><ele>747.0</ele><time>2026-05-02T08:44:34.276Z</time></trkpt><trkpt lat="43.8510033" lon="6.508105"><ele>747.0</ele><time>2026-05-02T08:44:35.276Z</time></trkpt><trkpt lat="43.85092" lon="6.5081533"><ele>747.0</ele><time>2026-05-02T08:44:36.276Z</time></trkpt><trkpt lat="43.85083" lon="6.508195"><ele>747.0</ele><time>2026-05-02T08:44:37.276Z</time></trkpt><trkpt lat="43.8507483" lon="6.5082383"><ele>746.8</ele><time>2026-05-02T08:44:38.276Z</time></trkpt><trkpt lat="43.850665" lon="6.50828"><ele>746.6</ele><time>2026-05-02T08:44:39.276Z</time></trkpt><trkpt lat="43.850585" lon="6.508325"><ele>746.4</ele><time>2026-05-02T08:44:40.276Z</time></trkpt><trkpt lat="43.8504967" lon="6.50837"><ele>746.1999999999999</ele><time>2026-05-02T08:44:41.277Z</time></trkpt><trkpt lat="43.8504067" lon="6.5084117"><ele>746.0</ele><time>2026-05-02T08:44:42.276Z</time></trkpt><trkpt lat="43.8503117" lon="6.508455"><ele>746.0</ele><time>2026-05-02T08:44:43.276Z</time></trkpt><trkpt lat="43.8502233" lon="6.50851"><ele>746.0</ele><time>2026-05-02T08:44:44.276Z</time></trkpt><trkpt lat="43.850125" lon="6.5085633"><ele>746.0</ele><time>2026-05-02T08:44:45.276Z</time></trkpt><trkpt lat="43.850025" lon="6.50861"><ele>746.0</ele><time>2026-05-02T08:44:46.276Z</time></trkpt><trkpt lat="43.8499283" lon="6.5086617"><ele>746.0</ele><time>2026-05-02T08:44:47.276Z</time></trkpt><trkpt lat="43.8498333" lon="6.5087083"><ele>746.5999999999999</ele><time>2026-05-02T08:44:48.277Z</time></trkpt><trkpt lat="43.8497417" lon="6.5087517"><ele>747.2</ele><time>2026-05-02T08:44:49.277Z</time></trkpt><trkpt lat="43.8496483" lon="6.5087983"><ele>747.8</ele><time>2026-05-02T08:44:50.276Z</time></trkpt><trkpt lat="43.8495567" lon="6.5088483"><ele>748.4000000000001</ele><time>2026-05-02T08:44:51.277Z</time></trkpt><trkpt lat="43.8494567" lon="6.50889"><ele>749.0</ele><time>2026-05-02T08:44:52.276Z</time></trkpt><trkpt lat="43.8493567" lon="6.50895"><ele>746.8000000000001</ele><time>2026-05-02T08:44:53.276Z</time></trkpt><trkpt lat="43.849255" lon="6.5089967"><ele>744.6</ele><time>2026-05-02T08:44:54.276Z</time></trkpt><trkpt lat="43.8491633" lon="6.509055"><ele>742.4</ele><time>2026-05-02T08:44:55.276Z</time></trkpt><trkpt lat="43.8490717" lon="6.50911"><ele>740.2</ele><time>2026-05-02T08:44:56.276Z</time></trkpt><trkpt lat="43.8489767" lon="6.5091883"><ele>738.0</ele><time>2026-05-02T08:44:57.277Z</time></trkpt><trkpt lat="43.8488917" lon="6.5092717"><ele>738.0</ele><time>2026-05-02T08:44:58.276Z</time></trkpt><trkpt lat="43.848815" lon="6.5093833"><ele>738.0</ele><time>2026-05-02T08:44:59.276Z</time></trkpt><trkpt lat="43.8487417" lon="6.50949"><ele>738.0</ele><time>2026-05-02T08:45:00.276Z</time></trkpt><trkpt lat="43.8486783" lon="6.5096183"><ele>738.0</ele><time>2026-05-02T08:45:01.276Z</time></trkpt><trkpt lat="43.848615" lon="6.50974"><ele>738.0</ele><time>2026-05-02T08:45:02.276Z</time></trkpt><trkpt lat="43.8485567" lon="6.509865"><ele>737.3333333333334</ele><time>2026-05-02T08:45:03.277Z</time></trkpt><trkpt lat="43.8484983" lon="6.50997"><ele>736.6666666666666</ele><time>2026-05-02T08:45:04.276Z</time></trkpt><trkpt lat="43.8484467" lon="6.51007"><ele>736.0</ele><time>2026-05-02T08:45:05.276Z</time></trkpt><trkpt lat="43.8483983" lon="6.5101733"><ele>735.3333333333333</ele><time>2026-05-02T08:45:06.276Z</time></trkpt><trkpt lat="43.84835" lon="6.5102667"><ele>734.6666666666666</ele><time>2026-05-02T08:45:07.276Z</time></trkpt><trkpt lat="43.8483033" lon="6.510345"><ele>734.0</ele><time>2026-05-02T08:45:08.277Z</time></trkpt><trkpt lat="43.848255" lon="6.5104317"><ele>734.0</ele><time>2026-05-02T08:45:09.277Z</time></trkpt><trkpt lat="43.8482033" lon="6.5105333"><ele>734.0</ele><time>2026-05-02T08:45:10.276Z</time></trkpt><trkpt lat="43.8481583" lon="6.5106317"><ele>734.0</ele><time>2026-05-02T08:45:11.276Z</time></trkpt><trkpt lat="43.848115" lon="6.510725"><ele>734.0</ele><time>2026-05-02T08:45:12.276Z</time></trkpt><trkpt lat="43.8480717" lon="6.5108267"><ele>734.0</ele><time>2026-05-02T08:45:13.276Z</time></trkpt><trkpt lat="43.848025" lon="6.510935"><ele>734.0</ele><time>2026-05-02T08:45:14.276Z</time></trkpt><trkpt lat="43.8479883" lon="6.511035"><ele>734.0</ele><time>2026-05-02T08:45:15.277Z</time></trkpt><trkpt lat="43.8479533" lon="6.5111483"><ele>734.0</ele><time>2026-05-02T08:45:16.276Z</time></trkpt><trkpt lat="43.8475553" lon="6.5120234"><ele>733.5</ele><time>2026-05-02T08:45:27.817Z</time></trkpt><trkpt lat="43.84736" lon="6.5115133"><ele>733.0</ele><time>2026-05-02T08:45:30.357Z</time></trkpt><trkpt lat="43.8471433" lon="6.5122033"><ele>733.0</ele><time>2026-05-02T08:45:31.357Z</time></trkpt><trkpt lat="43.8470783" lon="6.5121417"><ele>733.0</ele><time>2026-05-02T08:45:33.282Z</time></trkpt><trkpt lat="43.84697" lon="6.51221"><ele>733.0</ele><time>2026-05-02T08:45:35.281Z</time></trkpt><trkpt lat="43.8468883" lon="6.51225"><ele>733.0</ele><time>2026-05-02T08:45:36.281Z</time></trkpt><trkpt lat="43.8468333" lon="6.51231"><ele>733.0</ele><time>2026-05-02T08:45:37.282Z</time></trkpt><trkpt lat="43.8467767" lon="6.512375"><ele>733.0</ele><time>2026-05-02T08:45:38.281Z</time></trkpt><trkpt lat="43.84674" lon="6.51245"><ele>732.0</ele><time>2026-05-02T08:45:39.281Z</time></trkpt><trkpt lat="43.8466733" lon="6.512525"><ele>731.0</ele><time>2026-05-02T08:45:40.281Z</time></trkpt><trkpt lat="43.84661" lon="6.5125917"><ele>730.0</ele><time>2026-05-02T08:45:41.282Z</time></trkpt><trkpt lat="43.846505" lon="6.512565"><ele>729.0</ele><time>2026-05-02T08:45:43.282Z</time></trkpt><trkpt lat="43.84644" lon="6.5125533"><ele>728.0</ele><time>2026-05-02T08:45:44.281Z</time></trkpt><trkpt lat="43.8463767" lon="6.5125383"><ele>727.0</ele><time>2026-05-02T08:45:45.281Z</time></trkpt><trkpt lat="43.846315" lon="6.5125167"><ele>727.0</ele><time>2026-05-02T08:45:46.282Z</time></trkpt><trkpt lat="43.8462083" lon="6.51249"><ele>727.0</ele><time>2026-05-02T08:45:48.281Z</time></trkpt><trkpt lat="43.8461367" lon="6.5124117"><ele>727.0</ele><time>2026-05-02T08:45:50.281Z</time></trkpt><trkpt lat="43.8461317" lon="6.5123217"><ele>727.0</ele><time>2026-05-02T08:45:51.282Z</time></trkpt><trkpt lat="43.8461217" lon="6.5122333"><ele>727.0</ele><time>2026-05-02T08:45:52.281Z</time></trkpt><trkpt lat="43.8461133" lon="6.512135"><ele>727.0</ele><time>2026-05-02T08:45:53.281Z</time></trkpt><trkpt lat="43.846125" lon="6.5119917"><ele>726.6</ele><time>2026-05-02T08:45:54.281Z</time></trkpt><trkpt lat="43.8461317" lon="6.51186"><ele>726.2</ele><time>2026-05-02T08:45:55.281Z</time></trkpt><trkpt lat="43.8461367" lon="6.51173"><ele>725.8</ele><time>2026-05-02T08:45:56.281Z</time></trkpt><trkpt lat="43.8461367" lon="6.5115967"><ele>725.4</ele><time>2026-05-02T08:45:57.281Z</time></trkpt><trkpt lat="43.84614" lon="6.5114633"><ele>725.0</ele><time>2026-05-02T08:45:58.281Z</time></trkpt><trkpt lat="43.8461467" lon="6.51132"><ele>724.6</ele><time>2026-05-02T08:45:59.281Z</time></trkpt><trkpt lat="43.8461467" lon="6.5111817"><ele>724.2</ele><time>2026-05-02T08:46:00.281Z</time></trkpt><trkpt lat="43.8461533" lon="6.5110417"><ele>723.8</ele><time>2026-05-02T08:46:01.281Z</time></trkpt><trkpt lat="43.8461567" lon="6.5109067"><ele>723.4</ele><time>2026-05-02T08:46:02.281Z</time></trkpt><trkpt lat="43.846155" lon="6.5107617"><ele>723.0</ele><time>2026-05-02T08:46:03.281Z</time></trkpt><trkpt lat="43.8461533" lon="6.51061"><ele>723.0</ele><time>2026-05-02T08:46:04.281Z</time></trkpt><trkpt lat="43.8461567" lon="6.5104617"><ele>723.0</ele><time>2026-05-02T08:46:05.281Z</time></trkpt><trkpt lat="43.8461633" lon="6.5103067"><ele>723.0</ele><time>2026-05-02T08:46:06.282Z</time></trkpt><trkpt lat="43.84617" lon="6.51015"><ele>723.0</ele><time>2026-05-02T08:46:07.281Z</time></trkpt><trkpt lat="43.84618" lon="6.5099917"><ele>723.0</ele><time>2026-05-02T08:46:08.281Z</time></trkpt><trkpt lat="43.8461867" lon="6.5098267"><ele>723.0</ele><time>2026-05-02T08:46:09.281Z</time></trkpt><trkpt lat="43.8461883" lon="6.5096667"><ele>723.0</ele><time>2026-05-02T08:46:10.281Z</time></trkpt><trkpt lat="43.8461933" lon="6.5095083"><ele>723.0</ele><time>2026-05-02T08:46:11.281Z</time></trkpt><trkpt lat="43.8461967" lon="6.5093567"><ele>723.0</ele><time>2026-05-02T08:46:12.281Z</time></trkpt><trkpt lat="43.8462033" lon="6.5092"><ele>723.25</ele><time>2026-05-02T08:46:13.281Z</time></trkpt><trkpt lat="43.8462117" lon="6.50905"><ele>723.5</ele><time>2026-05-02T08:46:14.281Z</time></trkpt><trkpt lat="43.8462117" lon="6.508895"><ele>723.75</ele><time>2026-05-02T08:46:15.282Z</time></trkpt><trkpt lat="43.8462083" lon="6.5087333"><ele>724.0</ele><time>2026-05-02T08:46:16.281Z</time></trkpt><trkpt lat="43.8461983" lon="6.50857"><ele>723.5</ele><time>2026-05-02T08:46:17.281Z</time></trkpt><trkpt lat="43.8461783" lon="6.5084183"><ele>723.0</ele><time>2026-05-02T08:46:18.281Z</time></trkpt><trkpt lat="43.8461533" lon="6.5082567"><ele>722.5</ele><time>2026-05-02T08:46:19.281Z</time></trkpt><trkpt lat="43.8461217" lon="6.508095"><ele>722.0</ele><time>2026-05-02T08:46:20.282Z</time></trkpt><trkpt lat="43.8460833" lon="6.5079367"><ele>722.0</ele><time>2026-05-02T08:46:21.281Z</time></trkpt><trkpt lat="43.8460433" lon="6.50777"><ele>722.0</ele><time>2026-05-02T08:46:22.281Z</time></trkpt><trkpt lat="43.846005" lon="6.5076117"><ele>722.0</ele><time>2026-05-02T08:46:23.281Z</time></trkpt><trkpt lat="43.8459633" lon="6.5074467"><ele>722.0</ele><time>2026-05-02T08:46:24.281Z</time></trkpt><trkpt lat="43.845925" lon="6.507295"><ele>722.0</ele><time>2026-05-02T08:46:25.281Z</time></trkpt><trkpt lat="43.8458833" lon="6.5071417"><ele>722.0</ele><time>2026-05-02T08:46:26.281Z</time></trkpt><trkpt lat="43.845845" lon="6.50699"><ele>722.0</ele><time>2026-05-02T08:46:27.281Z</time></trkpt><trkpt lat="43.845805" lon="6.5068283"><ele>722.0</ele><time>2026-05-02T08:46:28.281Z</time></trkpt><trkpt lat="43.8457717" lon="6.5066717"><ele>722.0</ele><time>2026-05-02T08:46:29.281Z</time></trkpt><trkpt lat="43.8457433" lon="6.506525"><ele>722.0</ele><time>2026-05-02T08:46:30.281Z</time></trkpt><trkpt lat="43.84571" lon="6.5063833"><ele>722.0</ele><time>2026-05-02T08:46:31.281Z</time></trkpt><trkpt lat="43.8456717" lon="6.50626"><ele>722.0</ele><time>2026-05-02T08:46:32.281Z</time></trkpt><trkpt lat="43.84564" lon="6.5061567"><ele>722.0</ele><time>2026-05-02T08:46:33.281Z</time></trkpt><trkpt lat="43.8456183" lon="6.5060667"><ele>722.0</ele><time>2026-05-02T08:46:34.281Z</time></trkpt><trkpt lat="43.8455933" lon="6.5059833"><ele>722.0</ele><time>2026-05-02T08:46:35.281Z</time></trkpt><trkpt lat="43.84557" lon="6.5059"><ele>722.0</ele><time>2026-05-02T08:46:36.282Z</time></trkpt><trkpt lat="43.8455467" lon="6.5058183"><ele>722.0</ele><time>2026-05-02T08:46:37.281Z</time></trkpt><trkpt lat="43.84552" lon="6.5057233"><ele>722.0</ele><time>2026-05-02T08:46:38.281Z</time></trkpt><trkpt lat="43.8454867" lon="6.5056233"><ele>722.0</ele><time>2026-05-02T08:46:39.281Z</time></trkpt><trkpt lat="43.8454583" lon="6.5055317"><ele>722.0</ele><time>2026-05-02T08:46:40.281Z</time></trkpt><trkpt lat="43.8454233" lon="6.5054333"><ele>722.0</ele><time>2026-05-02T08:46:41.281Z</time></trkpt><trkpt lat="43.8453933" lon="6.5053283"><ele>722.0</ele><time>2026-05-02T08:46:42.281Z</time></trkpt><trkpt lat="43.8453567" lon="6.5052133"><ele>722.0</ele><time>2026-05-02T08:46:43.281Z</time></trkpt><trkpt lat="43.845315" lon="6.5050867"><ele>722.0</ele><time>2026-05-02T08:46:44.281Z</time></trkpt><trkpt lat="43.8452717" lon="6.5049517"><ele>722.0</ele><time>2026-05-02T08:46:45.281Z</time></trkpt><trkpt lat="43.8452233" lon="6.504815"><ele>722.0</ele><time>2026-05-02T08:46:46.281Z</time></trkpt><trkpt lat="43.8451683" lon="6.5046833"><ele>722.0</ele><time>2026-05-02T08:46:47.281Z</time></trkpt><trkpt lat="43.8451117" lon="6.5045367"><ele>722.0</ele><time>2026-05-02T08:46:48.281Z</time></trkpt><trkpt lat="43.8450617" lon="6.50439"><ele>722.0</ele><time>2026-05-02T08:46:49.281Z</time></trkpt><trkpt lat="43.8450067" lon="6.5042367"><ele>722.5</ele><time>2026-05-02T08:46:50.281Z</time></trkpt><trkpt lat="43.84495" lon="6.5040833"><ele>723.0</ele><time>2026-05-02T08:46:51.281Z</time></trkpt><trkpt lat="43.8448933" lon="6.5039317"><ele>723.5</ele><time>2026-05-02T08:46:52.281Z</time></trkpt><trkpt lat="43.8448383" lon="6.5037783"><ele>724.0</ele><time>2026-05-02T08:46:53.281Z</time></trkpt><trkpt lat="43.8447867" lon="6.5036267"><ele>724.0</ele><time>2026-05-02T08:46:54.281Z</time></trkpt><trkpt lat="43.844725" lon="6.50347"><ele>724.0</ele><time>2026-05-02T08:46:55.281Z</time></trkpt><trkpt lat="43.8446533" lon="6.503315"><ele>724.0</ele><time>2026-05-02T08:46:56.282Z</time></trkpt><trkpt lat="43.844585" lon="6.5031667"><ele>724.0</ele><time>2026-05-02T08:46:57.281Z</time></trkpt><trkpt lat="43.8445033" lon="6.5030167"><ele>724.75</ele><time>2026-05-02T08:46:58.281Z</time></trkpt><trkpt lat="43.8444183" lon="6.5028633"><ele>725.5</ele><time>2026-05-02T08:46:59.281Z</time></trkpt><trkpt lat="43.8443317" lon="6.5027133"><ele>726.25</ele><time>2026-05-02T08:47:00.281Z</time></trkpt><trkpt lat="43.84425" lon="6.5025567"><ele>727.0</ele><time>2026-05-02T08:47:01.281Z</time></trkpt><trkpt lat="43.8441683" lon="6.5024033"><ele>727.0</ele><time>2026-05-02T08:47:02.282Z</time></trkpt><trkpt lat="43.844085" lon="6.5022417"><ele>727.0</ele><time>2026-05-02T08:47:03.281Z</time></trkpt><trkpt lat="43.8440083" lon="6.5020767"><ele>727.0</ele><time>2026-05-02T08:47:04.281Z</time></trkpt><trkpt lat="43.8439267" lon="6.50192"><ele>727.0</ele><time>2026-05-02T08:47:05.282Z</time></trkpt><trkpt lat="43.8438383" lon="6.501765"><ele>727.0</ele><time>2026-05-02T08:47:06.281Z</time></trkpt><trkpt lat="43.84376" lon="6.5016117"><ele>727.0</ele><time>2026-05-02T08:47:07.281Z</time></trkpt><trkpt lat="43.8436833" lon="6.5014617"><ele>727.0</ele><time>2026-05-02T08:47:08.281Z</time></trkpt><trkpt lat="43.8436083" lon="6.501315"><ele>727.0</ele><time>2026-05-02T08:47:09.281Z</time></trkpt><trkpt lat="43.8435383" lon="6.50117"><ele>726.25</ele><time>2026-05-02T08:47:10.281Z</time></trkpt><trkpt lat="43.84346" lon="6.5010233"><ele>725.5</ele><time>2026-05-02T08:47:11.281Z</time></trkpt><trkpt lat="43.8433833" lon="6.5008733"><ele>724.75</ele><time>2026-05-02T08:47:12.281Z</time></trkpt><trkpt lat="43.84331" lon="6.5007167"><ele>724.0</ele><time>2026-05-02T08:47:13.281Z</time></trkpt><trkpt lat="43.843245" lon="6.5005733"><ele>726.25</ele><time>2026-05-02T08:47:14.281Z</time></trkpt><trkpt lat="43.8431867" lon="6.5004117"><ele>728.5</ele><time>2026-05-02T08:47:15.281Z</time></trkpt><trkpt lat="43.84314" lon="6.5002467"><ele>730.75</ele><time>2026-05-02T08:47:16.281Z</time></trkpt><trkpt lat="43.8430983" lon="6.5000717"><ele>733.0</ele><time>2026-05-02T08:47:17.281Z</time></trkpt><trkpt lat="43.843075" lon="6.4998883"><ele>733.0</ele><time>2026-05-02T08:47:18.281Z</time></trkpt><trkpt lat="43.8430617" lon="6.4997067"><ele>733.0</ele><time>2026-05-02T08:47:19.281Z</time></trkpt><trkpt lat="43.8430417" lon="6.4995267"><ele>733.0</ele><time>2026-05-02T08:47:20.281Z</time></trkpt><trkpt lat="43.843025" lon="6.4993467"><ele>733.0</ele><time>2026-05-02T08:47:21.281Z</time></trkpt><trkpt lat="43.84301" lon="6.4991633"><ele>735.5</ele><time>2026-05-02T08:47:22.281Z</time></trkpt><trkpt lat="43.8429883" lon="6.499"><ele>738.0</ele><time>2026-05-02T08:47:23.281Z</time></trkpt><trkpt lat="43.8429667" lon="6.4988383"><ele>740.5</ele><time>2026-05-02T08:47:24.281Z</time></trkpt><trkpt lat="43.84293" lon="6.49869"><ele>743.0</ele><time>2026-05-02T08:47:25.281Z</time></trkpt><trkpt lat="43.8428617" lon="6.4985433"><ele>748.25</ele><time>2026-05-02T08:47:26.281Z</time></trkpt><trkpt lat="43.8427867" lon="6.4984"><ele>753.5</ele><time>2026-05-02T08:47:27.281Z</time></trkpt><trkpt lat="43.8427083" lon="6.4982433"><ele>758.75</ele><time>2026-05-02T08:47:28.281Z</time></trkpt><trkpt lat="43.8426267" lon="6.4980833"><ele>764.0</ele><time>2026-05-02T08:47:29.281Z</time></trkpt><trkpt lat="43.8425433" lon="6.49793"><ele>756.5</ele><time>2026-05-02T08:47:30.281Z</time></trkpt><trkpt lat="43.8424683" lon="6.4977617"><ele>749.0</ele><time>2026-05-02T08:47:31.281Z</time></trkpt><trkpt lat="43.8424033" lon="6.4976083"><ele>741.5</ele><time>2026-05-02T08:47:32.281Z</time></trkpt><trkpt lat="43.8423417" lon="6.4974567"><ele>734.0</ele><time>2026-05-02T08:47:33.281Z</time></trkpt><trkpt lat="43.8422733" lon="6.4973"><ele>734.0</ele><time>2026-05-02T08:47:34.281Z</time></trkpt><trkpt lat="43.84221" lon="6.4971567"><ele>734.0</ele><time>2026-05-02T08:47:35.281Z</time></trkpt><trkpt lat="43.8421417" lon="6.4970117"><ele>734.0</ele><time>2026-05-02T08:47:36.281Z</time></trkpt><trkpt lat="43.8420733" lon="6.496855"><ele>734.0</ele><time>2026-05-02T08:47:37.281Z</time></trkpt><trkpt lat="43.842005" lon="6.4967233"><ele>731.5</ele><time>2026-05-02T08:47:38.282Z</time></trkpt><trkpt lat="43.8419417" lon="6.4965667"><ele>729.0</ele><time>2026-05-02T08:47:39.281Z</time></trkpt><trkpt lat="43.8418683" lon="6.4964283"><ele>726.5</ele><time>2026-05-02T08:47:40.281Z</time></trkpt><trkpt lat="43.84178" lon="6.4962917"><ele>724.0</ele><time>2026-05-02T08:47:41.281Z</time></trkpt><trkpt lat="43.8416817" lon="6.4961583"><ele>724.0</ele><time>2026-05-02T08:47:42.281Z</time></trkpt><trkpt lat="43.841575" lon="6.4960283"><ele>724.0</ele><time>2026-05-02T08:47:43.281Z</time></trkpt><trkpt lat="43.8414633" lon="6.4959033"><ele>724.0</ele><time>2026-05-02T08:47:44.281Z</time></trkpt><trkpt lat="43.841355" lon="6.4957717"><ele>724.0</ele><time>2026-05-02T08:47:45.281Z</time></trkpt><trkpt lat="43.8412283" lon="6.4956367"><ele>724.0</ele><time>2026-05-02T08:47:46.281Z</time></trkpt><trkpt lat="43.8411017" lon="6.495515"><ele>724.0</ele><time>2026-05-02T08:47:47.282Z</time></trkpt><trkpt lat="43.840975" lon="6.4954"><ele>724.0</ele><time>2026-05-02T08:47:48.281Z</time></trkpt><trkpt lat="43.8408483" lon="6.4952867"><ele>724.75</ele><time>2026-05-02T08:47:49.282Z</time></trkpt><trkpt lat="43.8407367" lon="6.49517"><ele>725.5</ele><time>2026-05-02T08:47:50.281Z</time></trkpt><trkpt lat="43.8406283" lon="6.49504"><ele>726.25</ele><time>2026-05-02T08:47:51.281Z</time></trkpt><trkpt lat="43.8405167" lon="6.4949083"><ele>727.0</ele><time>2026-05-02T08:47:52.281Z</time></trkpt><trkpt lat="43.8404" lon="6.4947867"><ele>727.0</ele><time>2026-05-02T08:47:53.282Z</time></trkpt><trkpt lat="43.8403017" lon="6.4946733"><ele>727.0</ele><time>2026-05-02T08:47:54.281Z</time></trkpt><trkpt lat="43.840205" lon="6.4945683"><ele>727.0</ele><time>2026-05-02T08:47:55.282Z</time></trkpt><trkpt lat="43.8401167" lon="6.4944733"><ele>727.0</ele><time>2026-05-02T08:47:56.281Z</time></trkpt><trkpt lat="43.840025" lon="6.4943917"><ele>726.6</ele><time>2026-05-02T08:47:57.282Z</time></trkpt><trkpt lat="43.8399267" lon="6.4943183"><ele>726.2</ele><time>2026-05-02T08:47:58.281Z</time></trkpt><trkpt lat="43.8398317" lon="6.49424"><ele>725.8</ele><time>2026-05-02T08:47:59.281Z</time></trkpt><trkpt lat="43.83975" lon="6.4941633"><ele>725.4</ele><time>2026-05-02T08:48:00.281Z</time></trkpt><trkpt lat="43.8396883" lon="6.4940667"><ele>725.0</ele><time>2026-05-02T08:48:01.281Z</time></trkpt><trkpt lat="43.8396167" lon="6.4939633"><ele>725.0</ele><time>2026-05-02T08:48:02.281Z</time></trkpt><trkpt lat="43.8395433" lon="6.4938683"><ele>725.0</ele><time>2026-05-02T08:48:03.281Z</time></trkpt><trkpt lat="43.8394567" lon="6.4938067"><ele>725.0</ele><time>2026-05-02T08:48:04.281Z</time></trkpt><trkpt lat="43.8393617" lon="6.4937367"><ele>725.0</ele><time>2026-05-02T08:48:05.281Z</time></trkpt><trkpt lat="43.83926" lon="6.4936783"><ele>725.0</ele><time>2026-05-02T08:48:06.281Z</time></trkpt><trkpt lat="43.8391583" lon="6.4936167"><ele>725.0</ele><time>2026-05-02T08:48:07.281Z</time></trkpt><trkpt lat="43.8390517" lon="6.4935467"><ele>725.0</ele><time>2026-05-02T08:48:08.281Z</time></trkpt><trkpt lat="43.838945" lon="6.4934883"><ele>725.0</ele><time>2026-05-02T08:48:09.281Z</time></trkpt><trkpt lat="43.8388417" lon="6.49345"><ele>725.0</ele><time>2026-05-02T08:48:10.281Z</time></trkpt><trkpt lat="43.83873" lon="6.4934533"><ele>725.0</ele><time>2026-05-02T08:48:11.282Z</time></trkpt><trkpt lat="43.83862" lon="6.493495"><ele>725.0</ele><time>2026-05-02T08:48:12.281Z</time></trkpt><trkpt lat="43.83852" lon="6.49355"><ele>725.0</ele><time>2026-05-02T08:48:13.281Z</time></trkpt><trkpt lat="43.83842" lon="6.4936217"><ele>725.0</ele><time>2026-05-02T08:48:14.281Z</time></trkpt><trkpt lat="43.8383283" lon="6.4937233"><ele>723.6</ele><time>2026-05-02T08:48:15.281Z</time></trkpt><trkpt lat="43.8382633" lon="6.4938333"><ele>722.2</ele><time>2026-05-02T08:48:16.282Z</time></trkpt><trkpt lat="43.8382067" lon="6.4939467"><ele>720.8</ele><time>2026-05-02T08:48:17.281Z</time></trkpt><trkpt lat="43.8381433" lon="6.494035"><ele>719.4</ele><time>2026-05-02T08:48:18.281Z</time></trkpt><trkpt lat="43.8380617" lon="6.49407"><ele>718.0</ele><time>2026-05-02T08:48:19.281Z</time></trkpt><trkpt lat="43.8379667" lon="6.4940617"><ele>718.0</ele><time>2026-05-02T08:48:20.281Z</time></trkpt><trkpt lat="43.837885" lon="6.494015"><ele>718.0</ele><time>2026-05-02T08:48:21.281Z</time></trkpt><trkpt lat="43.837805" lon="6.4939017"><ele>718.0</ele><time>2026-05-02T08:48:22.281Z</time></trkpt><trkpt lat="43.8377167" lon="6.493765"><ele>718.0</ele><time>2026-05-02T08:48:23.281Z</time></trkpt><trkpt lat="43.8376383" lon="6.4936333"><ele>722.5</ele><time>2026-05-02T08:48:24.281Z</time></trkpt><trkpt lat="43.83756" lon="6.4935117"><ele>727.0</ele><time>2026-05-02T08:48:25.281Z</time></trkpt><trkpt lat="43.8374683" lon="6.4934017"><ele>731.5</ele><time>2026-05-02T08:48:26.281Z</time></trkpt><trkpt lat="43.83736" lon="6.4932967"><ele>736.0</ele><time>2026-05-02T08:48:27.281Z</time></trkpt><trkpt lat="43.83725" lon="6.4932017"><ele>736.0</ele><time>2026-05-02T08:48:28.281Z</time></trkpt><trkpt lat="43.8371383" lon="6.49313"><ele>736.0</ele><time>2026-05-02T08:48:29.281Z</time></trkpt><trkpt lat="43.837025" lon="6.4930667"><ele>736.0</ele><time>2026-05-02T08:48:30.281Z</time></trkpt><trkpt lat="43.836905" lon="6.4930233"><ele>736.0</ele><time>2026-05-02T08:48:31.281Z</time></trkpt><trkpt lat="43.8367767" lon="6.4929833"><ele>732.25</ele><time>2026-05-02T08:48:32.281Z</time></trkpt><trkpt lat="43.83666" lon="6.4929533"><ele>728.5</ele><time>2026-05-02T08:48:33.281Z</time></trkpt><trkpt lat="43.8365433" lon="6.492925"><ele>724.75</ele><time>2026-05-02T08:48:34.281Z</time></trkpt><trkpt lat="43.83642" lon="6.492915"><ele>721.0</ele><time>2026-05-02T08:48:35.281Z</time></trkpt><trkpt lat="43.83631" lon="6.492915"><ele>721.0</ele><time>2026-05-02T08:48:36.281Z</time></trkpt><trkpt lat="43.8361933" lon="6.4929467"><ele>721.0</ele><time>2026-05-02T08:48:37.281Z</time></trkpt><trkpt lat="43.8360983" lon="6.4930033"><ele>721.0</ele><time>2026-05-02T08:48:38.282Z</time></trkpt><trkpt lat="43.836005" lon="6.4930783"><ele>721.0</ele><time>2026-05-02T08:48:39.281Z</time></trkpt><trkpt lat="43.83592" lon="6.493175"><ele>721.0</ele><time>2026-05-02T08:48:40.281Z</time></trkpt><trkpt lat="43.8358183" lon="6.4932483"><ele>723.1999999999999</ele><time>2026-05-02T08:48:41.281Z</time></trkpt><trkpt lat="43.8357217" lon="6.493305"><ele>725.4</ele><time>2026-05-02T08:48:42.281Z</time></trkpt><trkpt lat="43.835625" lon="6.4933567"><ele>727.6</ele><time>2026-05-02T08:48:43.281Z</time></trkpt><trkpt lat="43.8355233" lon="6.493395"><ele>729.8</ele><time>2026-05-02T08:48:44.281Z</time></trkpt><trkpt lat="43.8354283" lon="6.4934233"><ele>732.0</ele><time>2026-05-02T08:48:45.281Z</time></trkpt><trkpt lat="43.83532" lon="6.4934367"><ele>732.0</ele><time>2026-05-02T08:48:46.281Z</time></trkpt><trkpt lat="43.83521" lon="6.493425"><ele>732.0</ele><time>2026-05-02T08:48:47.281Z</time></trkpt><trkpt lat="43.8351083" lon="6.49339"><ele>732.0</ele><time>2026-05-02T08:48:48.281Z</time></trkpt><trkpt lat="43.8350183" lon="6.4933467"><ele>732.0</ele><time>2026-05-02T08:48:49.281Z</time></trkpt><trkpt lat="43.8349367" lon="6.4932883"><ele>732.0</ele><time>2026-05-02T08:48:50.282Z</time></trkpt><trkpt lat="43.834865" lon="6.4932167"><ele>731.3333333333334</ele><time>2026-05-02T08:48:51.282Z</time></trkpt><trkpt lat="43.83481" lon="6.4931533"><ele>730.6666666666666</ele><time>2026-05-02T08:48:52.281Z</time></trkpt><trkpt lat="43.8347817" lon="6.49306"><ele>730.0</ele><time>2026-05-02T08:48:53.281Z</time></trkpt><trkpt lat="43.834785" lon="6.4929483"><ele>729.3333333333333</ele><time>2026-05-02T08:48:54.281Z</time></trkpt><trkpt lat="43.8348033" lon="6.4928367"><ele>728.6666666666666</ele><time>2026-05-02T08:48:55.281Z</time></trkpt><trkpt lat="43.83483" lon="6.49272"><ele>728.0</ele><time>2026-05-02T08:48:56.282Z</time></trkpt><trkpt lat="43.834865" lon="6.4925967"><ele>728.4</ele><time>2026-05-02T08:48:57.281Z</time></trkpt><trkpt lat="43.8349017" lon="6.4924533"><ele>728.8</ele><time>2026-05-02T08:48:58.282Z</time></trkpt><trkpt lat="43.834945" lon="6.492315"><ele>729.2</ele><time>2026-05-02T08:48:59.281Z</time></trkpt><trkpt lat="43.8349983" lon="6.492175"><ele>729.6</ele><time>2026-05-02T08:49:00.282Z</time></trkpt><trkpt lat="43.8350583" lon="6.4920533"><ele>730.0</ele><time>2026-05-02T08:49:01.281Z</time></trkpt><trkpt lat="43.8351133" lon="6.4919417"><ele>735.6</ele><time>2026-05-02T08:49:02.282Z</time></trkpt><trkpt lat="43.8351667" lon="6.49183"><ele>741.2</ele><time>2026-05-02T08:49:03.281Z</time></trkpt><trkpt lat="43.83521" lon="6.4916967"><ele>746.8</ele><time>2026-05-02T08:49:04.281Z</time></trkpt><trkpt lat="43.83522" lon="6.4915417"><ele>752.4</ele><time>2026-05-02T08:49:05.282Z</time></trkpt><trkpt lat="43.83521" lon="6.4913817"><ele>758.0</ele><time>2026-05-02T08:49:06.281Z</time></trkpt><trkpt lat="43.835185" lon="6.4912117"><ele>758.0</ele><time>2026-05-02T08:49:07.281Z</time></trkpt><trkpt lat="43.835145" lon="6.4910467"><ele>758.0</ele><time>2026-05-02T08:49:08.281Z</time></trkpt><trkpt lat="43.8351067" lon="6.4908883"><ele>758.0</ele><time>2026-05-02T08:49:09.282Z</time></trkpt><trkpt lat="43.8350533" lon="6.490735"><ele>758.0</ele><time>2026-05-02T08:49:10.281Z</time></trkpt><trkpt lat="43.83502" lon="6.49059"><ele>752.4</ele><time>2026-05-02T08:49:11.281Z</time></trkpt><trkpt lat="43.8349883" lon="6.49045"><ele>746.8</ele><time>2026-05-02T08:49:12.281Z</time></trkpt><trkpt lat="43.834965" lon="6.49032"><ele>741.2</ele><time>2026-05-02T08:49:13.282Z</time></trkpt><trkpt lat="43.83496" lon="6.4901917"><ele>735.6</ele><time>2026-05-02T08:49:14.281Z</time></trkpt><trkpt lat="43.834975" lon="6.4900733"><ele>730.0</ele><time>2026-05-02T08:49:15.282Z</time></trkpt><trkpt lat="43.8350183" lon="6.4899717"><ele>730.0</ele><time>2026-05-02T08:49:16.281Z</time></trkpt><trkpt lat="43.83508" lon="6.48986"><ele>730.0</ele><time>2026-05-02T08:49:17.281Z</time></trkpt><trkpt lat="43.83517" lon="6.48976"><ele>730.0</ele><time>2026-05-02T08:49:18.281Z</time></trkpt><trkpt lat="43.8352683" lon="6.48967"><ele>730.0</ele><time>2026-05-02T08:49:19.281Z</time></trkpt><trkpt lat="43.8353583" lon="6.4895667"><ele>731.4</ele><time>2026-05-02T08:49:20.282Z</time></trkpt><trkpt lat="43.8354233" lon="6.4894567"><ele>732.8</ele><time>2026-05-02T08:49:21.282Z</time></trkpt><trkpt lat="43.8354733" lon="6.4893233"><ele>734.2</ele><time>2026-05-02T08:49:22.281Z</time></trkpt><trkpt lat="43.8354867" lon="6.48919"><ele>735.6</ele><time>2026-05-02T08:49:23.281Z</time></trkpt><trkpt lat="43.83547" lon="6.489045"><ele>737.0</ele><time>2026-05-02T08:49:24.281Z</time></trkpt><trkpt lat="43.835435" lon="6.4888983"><ele>739.75</ele><time>2026-05-02T08:49:25.281Z</time></trkpt><trkpt lat="43.8353917" lon="6.4887433"><ele>742.5</ele><time>2026-05-02T08:49:26.281Z</time></trkpt><trkpt lat="43.8353517" lon="6.48858"><ele>745.25</ele><time>2026-05-02T08:49:27.281Z</time></trkpt><trkpt lat="43.8353067" lon="6.4884217"><ele>748.0</ele><time>2026-05-02T08:49:28.281Z</time></trkpt><trkpt lat="43.8352733" lon="6.4882517"><ele>748.0</ele><time>2026-05-02T08:49:29.282Z</time></trkpt><trkpt lat="43.8352417" lon="6.48808"><ele>748.0</ele><time>2026-05-02T08:49:30.281Z</time></trkpt><trkpt lat="43.835205" lon="6.4879133"><ele>748.0</ele><time>2026-05-02T08:49:31.281Z</time></trkpt><trkpt lat="43.8351583" lon="6.4877483"><ele>748.0</ele><time>2026-05-02T08:49:32.281Z</time></trkpt><trkpt lat="43.8351133" lon="6.4875933"><ele>743.0</ele><time>2026-05-02T08:49:33.281Z</time></trkpt><trkpt lat="43.835075" lon="6.4874383"><ele>738.0</ele><time>2026-05-02T08:49:34.282Z</time></trkpt><trkpt lat="43.8350533" lon="6.4872817"><ele>733.0</ele><time>2026-05-02T08:49:35.281Z</time></trkpt><trkpt lat="43.8350533" lon="6.4871067"><ele>728.0</ele><time>2026-05-02T08:49:36.281Z</time></trkpt><trkpt lat="43.8350717" lon="6.4869383"><ele>727.25</ele><time>2026-05-02T08:49:37.281Z</time></trkpt><trkpt lat="43.8350983" lon="6.4867717"><ele>726.5</ele><time>2026-05-02T08:49:38.281Z</time></trkpt><trkpt lat="43.8351267" lon="6.4866117"><ele>725.75</ele><time>2026-05-02T08:49:39.281Z</time></trkpt><trkpt lat="43.8351633" lon="6.4864567"><ele>725.0</ele><time>2026-05-02T08:49:40.281Z</time></trkpt><trkpt lat="43.8352017" lon="6.4863033"><ele>730.2</ele><time>2026-05-02T08:49:41.281Z</time></trkpt><trkpt lat="43.8352467" lon="6.4861667"><ele>735.4</ele><time>2026-05-02T08:49:42.281Z</time></trkpt><trkpt lat="43.8353" lon="6.48605"><ele>740.5999999999999</ele><time>2026-05-02T08:49:43.281Z</time></trkpt><trkpt lat="43.8353617" lon="6.4859633"><ele>745.8</ele><time>2026-05-02T08:49:44.281Z</time></trkpt><trkpt lat="43.8354383" lon="6.4859083"><ele>751.0</ele><time>2026-05-02T08:49:45.281Z</time></trkpt><trkpt lat="43.8355033" lon="6.485825"><ele>751.0</ele><time>2026-05-02T08:49:46.281Z</time></trkpt><trkpt lat="43.8355567" lon="6.4857233"><ele>751.0</ele><time>2026-05-02T08:49:47.281Z</time></trkpt><trkpt lat="43.8355833" lon="6.4855967"><ele>751.0</ele><time>2026-05-02T08:49:48.281Z</time></trkpt><trkpt lat="43.835585" lon="6.485455"><ele>751.0</ele><time>2026-05-02T08:49:49.281Z</time></trkpt><trkpt lat="43.8355583" lon="6.4852933"><ele>751.0</ele><time>2026-05-02T08:49:50.281Z</time></trkpt><trkpt lat="43.8355067" lon="6.48513"><ele>751.75</ele><time>2026-05-02T08:49:51.281Z</time></trkpt><trkpt lat="43.8354667" lon="6.4849617"><ele>752.5</ele><time>2026-05-02T08:49:52.281Z</time></trkpt><trkpt lat="43.835435" lon="6.4847967"><ele>753.25</ele><time>2026-05-02T08:49:53.281Z</time></trkpt><trkpt lat="43.8354067" lon="6.4846383"><ele>754.0</ele><time>2026-05-02T08:49:54.282Z</time></trkpt><trkpt lat="43.8353717" lon="6.4844933"><ele>756.75</ele><time>2026-05-02T08:49:55.281Z</time></trkpt><trkpt lat="43.8353267" lon="6.4843483"><ele>759.5</ele><time>2026-05-02T08:49:56.281Z</time></trkpt><trkpt lat="43.8352683" lon="6.484215"><ele>762.25</ele><time>2026-05-02T08:49:57.281Z</time></trkpt><trkpt lat="43.8351967" lon="6.484085"><ele>765.0</ele><time>2026-05-02T08:49:58.281Z</time></trkpt><trkpt lat="43.835125" lon="6.48397"><ele>762.6</ele><time>2026-05-02T08:49:59.282Z</time></trkpt><trkpt lat="43.8350467" lon="6.48386"><ele>760.2</ele><time>2026-05-02T08:50:00.281Z</time></trkpt><trkpt lat="43.8349533" lon="6.4837733"><ele>757.8</ele><time>2026-05-02T08:50:01.281Z</time></trkpt><trkpt lat="43.83486" lon="6.4836917"><ele>755.4</ele><time>2026-05-02T08:50:02.281Z</time></trkpt><trkpt lat="43.8347633" lon="6.4836067"><ele>753.0</ele><time>2026-05-02T08:50:03.281Z</time></trkpt><trkpt lat="43.834685" lon="6.4835117"><ele>753.0</ele><time>2026-05-02T08:50:04.281Z</time></trkpt><trkpt lat="43.8346183" lon="6.4834133"><ele>753.0</ele><time>2026-05-02T08:50:05.281Z</time></trkpt><trkpt lat="43.8345583" lon="6.48331"><ele>753.0</ele><time>2026-05-02T08:50:06.281Z</time></trkpt><trkpt lat="43.8345067" lon="6.483215"><ele>753.0</ele><time>2026-05-02T08:50:07.281Z</time></trkpt><trkpt lat="43.8344683" lon="6.4831317"><ele>753.0</ele><time>2026-05-02T08:50:08.281Z</time></trkpt><trkpt lat="43.8344083" lon="6.4830167"><ele>754.2</ele><time>2026-05-02T08:50:10.282Z</time></trkpt><trkpt lat="43.83426" lon="6.4829533"><ele>755.4</ele><time>2026-05-02T08:56:05.281Z</time></trkpt><trkpt lat="43.8341967" lon="6.48292"><ele>756.6</ele><time>2026-05-02T08:56:06.28Z</time></trkpt><trkpt lat="43.8341317" lon="6.4828783"><ele>757.8000000000001</ele><time>2026-05-02T08:56:07.28Z</time></trkpt><trkpt lat="43.834055" lon="6.4828383"><ele>759.0</ele><time>2026-05-02T08:56:08.28Z</time></trkpt><trkpt lat="43.83397" lon="6.4827983"><ele>759.0</ele><time>2026-05-02T08:56:09.28Z</time></trkpt><trkpt lat="43.8338783" lon="6.4827567"><ele>759.0</ele><time>2026-05-02T08:56:10.28Z</time></trkpt><trkpt lat="43.83378" lon="6.4827067"><ele>759.0</ele><time>2026-05-02T08:56:11.28Z</time></trkpt><trkpt lat="43.8336783" lon="6.48264"><ele>759.0</ele><time>2026-05-02T08:56:12.28Z</time></trkpt><trkpt lat="43.8335767" lon="6.48257"><ele>759.0</ele><time>2026-05-02T08:56:13.28Z</time></trkpt><trkpt lat="43.8334817" lon="6.482485"><ele>756.5</ele><time>2026-05-02T08:56:14.28Z</time></trkpt><trkpt lat="43.8333817" lon="6.4824083"><ele>754.0</ele><time>2026-05-02T08:56:15.28Z</time></trkpt><trkpt lat="43.8332833" lon="6.4823117"><ele>751.5</ele><time>2026-05-02T08:56:16.28Z</time></trkpt><trkpt lat="43.833195" lon="6.4821917"><ele>749.0</ele><time>2026-05-02T08:56:17.281Z</time></trkpt><trkpt lat="43.83312" lon="6.4820683"><ele>749.0</ele><time>2026-05-02T08:56:18.28Z</time></trkpt><trkpt lat="43.83306" lon="6.481925"><ele>749.0</ele><time>2026-05-02T08:56:19.28Z</time></trkpt><trkpt lat="43.8330033" lon="6.4817717"><ele>749.0</ele><time>2026-05-02T08:56:20.28Z</time></trkpt><trkpt lat="43.832945" lon="6.4815683"><ele>749.0</ele><time>2026-05-02T08:56:21.28Z</time></trkpt><trkpt lat="43.83292" lon="6.4813933"><ele>750.5</ele><time>2026-05-02T08:56:22.28Z</time></trkpt><trkpt lat="43.8329033" lon="6.4812017"><ele>752.0</ele><time>2026-05-02T08:56:23.28Z</time></trkpt><trkpt lat="43.8328817" lon="6.4810133"><ele>753.5</ele><time>2026-05-02T08:56:24.28Z</time></trkpt><trkpt lat="43.8328533" lon="6.4808333"><ele>755.0</ele><time>2026-05-02T08:56:25.28Z</time></trkpt><trkpt lat="43.8328067" lon="6.4806567"><ele>755.0</ele><time>2026-05-02T08:56:26.28Z</time></trkpt><trkpt lat="43.8327367" lon="6.4804883"><ele>755.0</ele><time>2026-05-02T08:56:27.28Z</time></trkpt><trkpt lat="43.8326483" lon="6.4803117"><ele>755.0</ele><time>2026-05-02T08:56:28.28Z</time></trkpt><trkpt lat="43.8325517" lon="6.4801317"><ele>753.3333333333333</ele><time>2026-05-02T08:56:29.28Z</time></trkpt><trkpt lat="43.8324567" lon="6.4799467"><ele>751.6666666666666</ele><time>2026-05-02T08:56:30.28Z</time></trkpt><trkpt lat="43.83236" lon="6.4797683"><ele>750.0</ele><time>2026-05-02T08:56:31.28Z</time></trkpt><trkpt lat="43.8322683" lon="6.4795867"><ele>750.0</ele><time>2026-05-02T08:56:32.28Z</time></trkpt><trkpt lat="43.832175" lon="6.4794167"><ele>750.0</ele><time>2026-05-02T08:56:33.28Z</time></trkpt><trkpt lat="43.8321017" lon="6.4792367"><ele>750.0</ele><time>2026-05-02T08:56:34.28Z</time></trkpt><trkpt lat="43.8320567" lon="6.47905"><ele>750.0</ele><time>2026-05-02T08:56:35.28Z</time></trkpt><trkpt lat="43.8320433" lon="6.4788467"><ele>752.0</ele><time>2026-05-02T08:56:36.28Z</time></trkpt><trkpt lat="43.832045" lon="6.4786467"><ele>754.0</ele><time>2026-05-02T08:56:37.28Z</time></trkpt><trkpt lat="43.83204" lon="6.4784533"><ele>756.0</ele><time>2026-05-02T08:56:38.28Z</time></trkpt><trkpt lat="43.8320017" lon="6.4782683"><ele>758.0</ele><time>2026-05-02T08:56:39.28Z</time></trkpt><trkpt lat="43.8319467" lon="6.4780667"><ele>761.0</ele><time>2026-05-02T08:56:40.281Z</time></trkpt><trkpt lat="43.8319017" lon="6.4778567"><ele>764.0</ele><time>2026-05-02T08:56:41.28Z</time></trkpt><trkpt lat="43.83186" lon="6.4776567"><ele>767.0</ele><time>2026-05-02T08:56:42.28Z</time></trkpt><trkpt lat="43.8318083" lon="6.4774417"><ele>757.25</ele><time>2026-05-02T08:56:43.28Z</time></trkpt><trkpt lat="43.83174" lon="6.477255"><ele>747.5</ele><time>2026-05-02T08:56:44.28Z</time></trkpt><trkpt lat="43.8316833" lon="6.4770833"><ele>737.75</ele><time>2026-05-02T08:56:45.28Z</time></trkpt><trkpt lat="43.8316333" lon="6.476895"><ele>728.0</ele><time>2026-05-02T08:56:46.28Z</time></trkpt><trkpt lat="43.8316017" lon="6.4767133"><ele>728.0</ele><time>2026-05-02T08:56:47.28Z</time></trkpt><trkpt lat="43.831595" lon="6.4765267"><ele>728.0</ele><time>2026-05-02T08:56:48.28Z</time></trkpt><trkpt lat="43.831585" lon="6.4763633"><ele>728.0</ele><time>2026-05-02T08:56:49.28Z</time></trkpt><trkpt lat="43.831565" lon="6.476195"><ele>728.0</ele><time>2026-05-02T08:56:50.28Z</time></trkpt><trkpt lat="43.8315217" lon="6.47602"><ele>729.25</ele><time>2026-05-02T08:56:51.28Z</time></trkpt><trkpt lat="43.831465" lon="6.4758533"><ele>730.5</ele><time>2026-05-02T08:56:52.281Z</time></trkpt><trkpt lat="43.8314" lon="6.475675"><ele>731.75</ele><time>2026-05-02T08:56:53.28Z</time></trkpt><trkpt lat="43.831345" lon="6.4754767"><ele>733.0</ele><time>2026-05-02T08:56:54.281Z</time></trkpt><trkpt lat="43.8312967" lon="6.4752683"><ele>736.0</ele><time>2026-05-02T08:56:55.28Z</time></trkpt><trkpt lat="43.83126" lon="6.475055"><ele>739.0</ele><time>2026-05-02T08:56:56.28Z</time></trkpt><trkpt lat="43.8312367" lon="6.47484"><ele>742.0</ele><time>2026-05-02T08:56:57.28Z</time></trkpt><trkpt lat="43.8312233" lon="6.4746217"><ele>743.5</ele><time>2026-05-02T08:56:58.28Z</time></trkpt><trkpt lat="43.8312117" lon="6.4744233"><ele>745.0</ele><time>2026-05-02T08:56:59.28Z</time></trkpt><trkpt lat="43.8311917" lon="6.47423"><ele>746.5</ele><time>2026-05-02T08:57:00.28Z</time></trkpt><trkpt lat="43.831145" lon="6.47405"><ele>748.0</ele><time>2026-05-02T08:57:01.28Z</time></trkpt><trkpt lat="43.83108" lon="6.473885"><ele>751.5</ele><time>2026-05-02T08:57:02.28Z</time></trkpt><trkpt lat="43.830995" lon="6.47373"><ele>755.0</ele><time>2026-05-02T08:57:03.28Z</time></trkpt><trkpt lat="43.8308833" lon="6.4736083"><ele>758.5</ele><time>2026-05-02T08:57:04.28Z</time></trkpt><trkpt lat="43.8307617" lon="6.47349"><ele>762.0</ele><time>2026-05-02T08:57:05.28Z</time></trkpt><trkpt lat="43.8306483" lon="6.4733867"><ele>756.0</ele><time>2026-05-02T08:57:06.281Z</time></trkpt><trkpt lat="43.8305483" lon="6.4732583"><ele>750.0</ele><time>2026-05-02T08:57:07.28Z</time></trkpt><trkpt lat="43.830475" lon="6.4731083"><ele>744.0</ele><time>2026-05-02T08:57:08.28Z</time></trkpt><trkpt lat="43.8304267" lon="6.4729417"><ele>738.0</ele><time>2026-05-02T08:57:09.281Z</time></trkpt><trkpt lat="43.8303767" lon="6.4727567"><ele>738.0</ele><time>2026-05-02T08:57:10.28Z</time></trkpt><trkpt lat="43.8303117" lon="6.47258"><ele>738.0</ele><time>2026-05-02T08:57:11.28Z</time></trkpt><trkpt lat="43.8302517" lon="6.4723967"><ele>738.0</ele><time>2026-05-02T08:57:12.28Z</time></trkpt><trkpt lat="43.83019" lon="6.4722183"><ele>738.0</ele><time>2026-05-02T08:57:13.281Z</time></trkpt><trkpt lat="43.8301367" lon="6.47206"><ele>735.0</ele><time>2026-05-02T08:57:14.28Z</time></trkpt><trkpt lat="43.8300683" lon="6.4719083"><ele>732.0</ele><time>2026-05-02T08:57:15.28Z</time></trkpt><trkpt lat="43.8299583" lon="6.4718"><ele>729.0</ele><time>2026-05-02T08:57:16.28Z</time></trkpt><trkpt lat="43.82985" lon="6.4716917"><ele>726.0</ele><time>2026-05-02T08:57:17.28Z</time></trkpt><trkpt lat="43.8297333" lon="6.4715667"><ele>726.0</ele><time>2026-05-02T08:57:18.28Z</time></trkpt><trkpt lat="43.8296233" lon="6.4714233"><ele>726.0</ele><time>2026-05-02T08:57:19.28Z</time></trkpt><trkpt lat="43.8295333" lon="6.471265"><ele>726.0</ele><time>2026-05-02T08:57:20.28Z</time></trkpt><trkpt lat="43.8294583" lon="6.4710833"><ele>726.0</ele><time>2026-05-02T08:57:21.28Z</time></trkpt><trkpt lat="43.829395" lon="6.4708917"><ele>724.75</ele><time>2026-05-02T08:57:22.281Z</time></trkpt><trkpt lat="43.829335" lon="6.470705"><ele>723.5</ele><time>2026-05-02T08:57:23.28Z</time></trkpt><trkpt lat="43.8292767" lon="6.4705283"><ele>722.25</ele><time>2026-05-02T08:57:24.28Z</time></trkpt><trkpt lat="43.8292267" lon="6.4703517"><ele>721.0</ele><time>2026-05-02T08:57:25.28Z</time></trkpt><trkpt lat="43.829175" lon="6.4701933"><ele>721.0</ele><time>2026-05-02T08:57:26.28Z</time></trkpt><trkpt lat="43.829135" lon="6.470025"><ele>721.0</ele><time>2026-05-02T08:57:27.28Z</time></trkpt><trkpt lat="43.8290883" lon="6.4698517"><ele>721.0</ele><time>2026-05-02T08:57:28.281Z</time></trkpt><trkpt lat="43.8290717" lon="6.4696633"><ele>721.0</ele><time>2026-05-02T08:57:29.28Z</time></trkpt><trkpt lat="43.829075" lon="6.4694733"><ele>721.25</ele><time>2026-05-02T08:57:30.28Z</time></trkpt><trkpt lat="43.8291067" lon="6.4693"><ele>721.5</ele><time>2026-05-02T08:57:31.28Z</time></trkpt><trkpt lat="43.8291433" lon="6.4691217"><ele>721.75</ele><time>2026-05-02T08:57:32.28Z</time></trkpt><trkpt lat="43.829165" lon="6.4689317"><ele>722.0</ele><time>2026-05-02T08:57:33.28Z</time></trkpt><trkpt lat="43.8291733" lon="6.4687467"><ele>720.75</ele><time>2026-05-02T08:57:34.28Z</time></trkpt><trkpt lat="43.82915" lon="6.4685567"><ele>719.5</ele><time>2026-05-02T08:57:35.28Z</time></trkpt><trkpt lat="43.8291017" lon="6.4683767"><ele>718.25</ele><time>2026-05-02T08:57:36.28Z</time></trkpt><trkpt lat="43.8290467" lon="6.4682017"><ele>717.0</ele><time>2026-05-02T08:57:37.28Z</time></trkpt><trkpt lat="43.8289933" lon="6.4680383"><ele>717.25</ele><time>2026-05-02T08:57:38.28Z</time></trkpt><trkpt lat="43.8289633" lon="6.467865"><ele>717.5</ele><time>2026-05-02T08:57:39.28Z</time></trkpt><trkpt lat="43.8289533" lon="6.4676783"><ele>717.75</ele><time>2026-05-02T08:57:40.28Z</time></trkpt><trkpt lat="43.8289617" lon="6.4674867"><ele>718.0</ele><time>2026-05-02T08:57:41.28Z</time></trkpt><trkpt lat="43.8289833" lon="6.4673133"><ele>718.0</ele><time>2026-05-02T08:57:42.281Z</time></trkpt><trkpt lat="43.8290233" lon="6.4671617"><ele>718.0</ele><time>2026-05-02T08:57:43.28Z</time></trkpt><trkpt lat="43.829055" lon="6.4670067"><ele>718.0</ele><time>2026-05-02T08:57:44.28Z</time></trkpt><trkpt lat="43.8290883" lon="6.46684"><ele>718.0</ele><time>2026-05-02T08:57:45.28Z</time></trkpt><trkpt lat="43.8291033" lon="6.4666833"><ele>718.0</ele><time>2026-05-02T08:57:46.281Z</time></trkpt><trkpt lat="43.829095" lon="6.4665183"><ele>718.0</ele><time>2026-05-02T08:57:47.28Z</time></trkpt><trkpt lat="43.8290617" lon="6.4663767"><ele>718.0</ele><time>2026-05-02T08:57:48.28Z</time></trkpt><trkpt lat="43.829005" lon="6.4662233"><ele>718.0</ele><time>2026-05-02T08:57:49.28Z</time></trkpt><trkpt lat="43.8289333" lon="6.4660783"><ele>719.5</ele><time>2026-05-02T08:57:50.28Z</time></trkpt><trkpt lat="43.82886" lon="6.4659267"><ele>721.0</ele><time>2026-05-02T08:57:51.28Z</time></trkpt><trkpt lat="43.8287883" lon="6.4657833"><ele>722.5</ele><time>2026-05-02T08:57:52.28Z</time></trkpt><trkpt lat="43.82873" lon="6.4656383"><ele>724.0</ele><time>2026-05-02T08:57:53.28Z</time></trkpt><trkpt lat="43.8286917" lon="6.4654783"><ele>724.5</ele><time>2026-05-02T08:57:54.28Z</time></trkpt><trkpt lat="43.8286783" lon="6.46531"><ele>725.0</ele><time>2026-05-02T08:57:55.28Z</time></trkpt><trkpt lat="43.8286733" lon="6.4651317"><ele>725.5</ele><time>2026-05-02T08:57:56.28Z</time></trkpt><trkpt lat="43.8286717" lon="6.4649467"><ele>726.0</ele><time>2026-05-02T08:57:57.28Z</time></trkpt><trkpt lat="43.8286833" lon="6.4647617"><ele>726.5</ele><time>2026-05-02T08:57:58.28Z</time></trkpt><trkpt lat="43.8286967" lon="6.4645833"><ele>727.0</ele><time>2026-05-02T08:57:59.28Z</time></trkpt><trkpt lat="43.8287083" lon="6.4644017"><ele>727.5</ele><time>2026-05-02T08:58:00.28Z</time></trkpt><trkpt lat="43.82872" lon="6.4642417"><ele>728.0</ele><time>2026-05-02T08:58:01.28Z</time></trkpt><trkpt lat="43.8287117" lon="6.46409"><ele>728.0</ele><time>2026-05-02T08:58:02.28Z</time></trkpt><trkpt lat="43.8286883" lon="6.4639617"><ele>728.0</ele><time>2026-05-02T08:58:03.28Z</time></trkpt><trkpt lat="43.8286267" lon="6.46386"><ele>728.0</ele><time>2026-05-02T08:58:04.28Z</time></trkpt><trkpt lat="43.82854" lon="6.4637567"><ele>728.0</ele><time>2026-05-02T08:58:05.28Z</time></trkpt><trkpt lat="43.8284483" lon="6.4636633"><ele>728.0</ele><time>2026-05-02T08:58:06.281Z</time></trkpt><trkpt lat="43.8283583" lon="6.4635517"><ele>722.75</ele><time>2026-05-02T08:58:07.28Z</time></trkpt><trkpt lat="43.82828" lon="6.4634167"><ele>717.5</ele><time>2026-05-02T08:58:08.28Z</time></trkpt><trkpt lat="43.8282083" lon="6.463265"><ele>712.25</ele><time>2026-05-02T08:58:09.28Z</time></trkpt><trkpt lat="43.8281283" lon="6.46312"><ele>707.0</ele><time>2026-05-02T08:58:10.28Z</time></trkpt><trkpt lat="43.82807" lon="6.462975"><ele>709.0</ele><time>2026-05-02T08:58:11.28Z</time></trkpt><trkpt lat="43.82801" lon="6.4628067"><ele>711.0</ele><time>2026-05-02T08:58:12.28Z</time></trkpt><trkpt lat="43.82796" lon="6.4626483"><ele>713.0</ele><time>2026-05-02T08:58:13.28Z</time></trkpt><trkpt lat="43.8279067" lon="6.4624967"><ele>715.0</ele><time>2026-05-02T08:58:14.28Z</time></trkpt><trkpt lat="43.827855" lon="6.4623467"><ele>715.0</ele><time>2026-05-02T08:58:15.28Z</time></trkpt><trkpt lat="43.8278067" lon="6.4622083"><ele>715.0</ele><time>2026-05-02T08:58:16.28Z</time></trkpt><trkpt lat="43.827765" lon="6.4620633"><ele>715.0</ele><time>2026-05-02T08:58:17.28Z</time></trkpt><trkpt lat="43.82774" lon="6.46191"><ele>715.0</ele><time>2026-05-02T08:58:18.28Z</time></trkpt><trkpt lat="43.8277333" lon="6.4617483"><ele>714.0</ele><time>2026-05-02T08:58:19.28Z</time></trkpt><trkpt lat="43.8277467" lon="6.4615817"><ele>713.0</ele><time>2026-05-02T08:58:20.28Z</time></trkpt><trkpt lat="43.8277767" lon="6.461415"><ele>712.0</ele><time>2026-05-02T08:58:21.28Z</time></trkpt><trkpt lat="43.82783" lon="6.4612617"><ele>711.0</ele><time>2026-05-02T08:58:22.28Z</time></trkpt><trkpt lat="43.827895" lon="6.46113"><ele>711.0</ele><time>2026-05-02T08:58:23.28Z</time></trkpt><trkpt lat="43.8279633" lon="6.4610167"><ele>711.0</ele><time>2026-05-02T08:58:24.28Z</time></trkpt><trkpt lat="43.8280383" lon="6.46091"><ele>711.0</ele><time>2026-05-02T08:58:25.28Z</time></trkpt><trkpt lat="43.8281083" lon="6.4608"><ele>711.0</ele><time>2026-05-02T08:58:26.28Z</time></trkpt><trkpt lat="43.8281633" lon="6.4606933"><ele>711.0</ele><time>2026-05-02T08:58:27.28Z</time></trkpt><trkpt lat="43.8282133" lon="6.460575"><ele>711.0</ele><time>2026-05-02T08:58:28.28Z</time></trkpt><trkpt lat="43.8282683" lon="6.46046"><ele>711.0</ele><time>2026-05-02T08:58:29.28Z</time></trkpt><trkpt lat="43.8283217" lon="6.4603433"><ele>711.0</ele><time>2026-05-02T08:58:30.28Z</time></trkpt><trkpt lat="43.82839" lon="6.460245"><ele>711.0</ele><time>2026-05-02T08:58:31.28Z</time></trkpt><trkpt lat="43.82846" lon="6.4601467"><ele>711.0</ele><time>2026-05-02T08:58:32.28Z</time></trkpt><trkpt lat="43.8285283" lon="6.4600483"><ele>712.1999999999999</ele><time>2026-05-02T08:58:33.28Z</time></trkpt><trkpt lat="43.8285833" lon="6.45992"><ele>713.4</ele><time>2026-05-02T08:58:34.281Z</time></trkpt><trkpt lat="43.8286133" lon="6.4597783"><ele>714.6</ele><time>2026-05-02T08:58:35.28Z</time></trkpt><trkpt lat="43.82863" lon="6.459625"><ele>715.8</ele><time>2026-05-02T08:58:36.28Z</time></trkpt><trkpt lat="43.82864" lon="6.4594683"><ele>717.0</ele><time>2026-05-02T08:58:37.28Z</time></trkpt><trkpt lat="43.8286617" lon="6.4593083"><ele>717.0</ele><time>2026-05-02T08:58:38.28Z</time></trkpt><trkpt lat="43.828715" lon="6.459155"><ele>717.0</ele><time>2026-05-02T08:58:39.28Z</time></trkpt><trkpt lat="43.8287783" lon="6.4590233"><ele>717.0</ele><time>2026-05-02T08:58:40.28Z</time></trkpt><trkpt lat="43.8288567" lon="6.45889"><ele>717.0</ele><time>2026-05-02T08:58:41.28Z</time></trkpt><trkpt lat="43.8289383" lon="6.4587717"><ele>712.5</ele><time>2026-05-02T08:58:42.28Z</time></trkpt><trkpt lat="43.829035" lon="6.4586633"><ele>708.0</ele><time>2026-05-02T08:58:43.28Z</time></trkpt><trkpt lat="43.8291283" lon="6.4585633"><ele>703.5</ele><time>2026-05-02T08:58:44.28Z</time></trkpt><trkpt lat="43.8292167" lon="6.4584417"><ele>699.0</ele><time>2026-05-02T08:58:45.28Z</time></trkpt><trkpt lat="43.829295" lon="6.4582883"><ele>702.0</ele><time>2026-05-02T08:58:46.28Z</time></trkpt><trkpt lat="43.8293717" lon="6.4581267"><ele>705.0</ele><time>2026-05-02T08:58:47.281Z</time></trkpt><trkpt lat="43.8294483" lon="6.4579783"><ele>708.0</ele><time>2026-05-02T08:58:48.281Z</time></trkpt><trkpt lat="43.8295267" lon="6.4578367"><ele>711.0</ele><time>2026-05-02T08:58:49.28Z</time></trkpt><trkpt lat="43.8295983" lon="6.457695"><ele>711.0</ele><time>2026-05-02T08:58:50.28Z</time></trkpt><trkpt lat="43.8296667" lon="6.457535"><ele>711.0</ele><time>2026-05-02T08:58:51.28Z</time></trkpt><trkpt lat="43.8297417" lon="6.4573733"><ele>711.0</ele><time>2026-05-02T08:58:52.28Z</time></trkpt><trkpt lat="43.829825" lon="6.4572417"><ele>711.0</ele><time>2026-05-02T08:58:53.281Z</time></trkpt><trkpt lat="43.829915" lon="6.4571083"><ele>707.25</ele><time>2026-05-02T08:58:54.28Z</time></trkpt><trkpt lat="43.8300117" lon="6.4569767"><ele>703.5</ele><time>2026-05-02T08:58:55.28Z</time></trkpt><trkpt lat="43.8301033" lon="6.4568517"><ele>699.75</ele><time>2026-05-02T08:58:56.28Z</time></trkpt><trkpt lat="43.830185" lon="6.456715"><ele>696.0</ele><time>2026-05-02T08:58:57.28Z</time></trkpt><trkpt lat="43.83027" lon="6.4565833"><ele>703.25</ele><time>2026-05-02T08:58:58.28Z</time></trkpt><trkpt lat="43.83035" lon="6.45645"><ele>710.5</ele><time>2026-05-02T08:58:59.28Z</time></trkpt><trkpt lat="43.830425" lon="6.4563167"><ele>717.75</ele><time>2026-05-02T08:59:00.28Z</time></trkpt><trkpt lat="43.8304883" lon="6.4561733"><ele>725.0</ele><time>2026-05-02T08:59:01.28Z</time></trkpt><trkpt lat="43.8305383" lon="6.4560183"><ele>725.0</ele><time>2026-05-02T08:59:02.28Z</time></trkpt><trkpt lat="43.8305617" lon="6.45583"><ele>725.0</ele><time>2026-05-02T08:59:03.28Z</time></trkpt><trkpt lat="43.83056" lon="6.4556333"><ele>725.0</ele><time>2026-05-02T08:59:04.28Z</time></trkpt><trkpt lat="43.8305467" lon="6.4554267"><ele>725.0</ele><time>2026-05-02T08:59:05.28Z</time></trkpt><trkpt lat="43.8305367" lon="6.455235"><ele>723.0</ele><time>2026-05-02T08:59:06.28Z</time></trkpt><trkpt lat="43.8305183" lon="6.4550383"><ele>721.0</ele><time>2026-05-02T08:59:07.281Z</time></trkpt><trkpt lat="43.8305033" lon="6.4548517"><ele>719.0</ele><time>2026-05-02T08:59:08.28Z</time></trkpt><trkpt lat="43.8304967" lon="6.4546567"><ele>717.0</ele><time>2026-05-02T08:59:09.28Z</time></trkpt><trkpt lat="43.8305067" lon="6.4544667"><ele>715.6666666666666</ele><time>2026-05-02T08:59:10.28Z</time></trkpt><trkpt lat="43.83052" lon="6.45425"><ele>714.3333333333333</ele><time>2026-05-02T08:59:11.28Z</time></trkpt><trkpt lat="43.8305383" lon="6.45404"><ele>713.0</ele><time>2026-05-02T08:59:12.28Z</time></trkpt><trkpt lat="43.83055" lon="6.4538233"><ele>709.6666666666666</ele><time>2026-05-02T08:59:13.28Z</time></trkpt><trkpt lat="43.8305817" lon="6.453625"><ele>706.3333333333334</ele><time>2026-05-02T08:59:14.281Z</time></trkpt><trkpt lat="43.83063" lon="6.453415"><ele>703.0</ele><time>2026-05-02T08:59:15.28Z</time></trkpt><trkpt lat="43.8306967" lon="6.453215"><ele>703.0</ele><time>2026-05-02T08:59:16.28Z</time></trkpt><trkpt lat="43.83077" lon="6.4530283"><ele>703.0</ele><time>2026-05-02T08:59:17.28Z</time></trkpt><trkpt lat="43.830855" lon="6.4528717"><ele>703.0</ele><time>2026-05-02T08:59:18.28Z</time></trkpt><trkpt lat="43.8309483" lon="6.4527333"><ele>703.0</ele><time>2026-05-02T08:59:19.28Z</time></trkpt><trkpt lat="43.8310467" lon="6.45261"><ele>706.0</ele><time>2026-05-02T08:59:20.281Z</time></trkpt><trkpt lat="43.8311433" lon="6.4525017"><ele>709.0</ele><time>2026-05-02T08:59:21.28Z</time></trkpt><trkpt lat="43.83124" lon="6.452395"><ele>712.0</ele><time>2026-05-02T08:59:22.28Z</time></trkpt><trkpt lat="43.83133" lon="6.452285"><ele>715.0</ele><time>2026-05-02T08:59:23.28Z</time></trkpt><trkpt lat="43.8314117" lon="6.45216"><ele>712.5</ele><time>2026-05-02T08:59:24.28Z</time></trkpt><trkpt lat="43.8314867" lon="6.4520133"><ele>710.0</ele><time>2026-05-02T08:59:25.28Z</time></trkpt><trkpt lat="43.8315567" lon="6.4518417"><ele>707.5</ele><time>2026-05-02T08:59:26.281Z</time></trkpt><trkpt lat="43.8316217" lon="6.4516667"><ele>705.0</ele><time>2026-05-02T08:59:27.28Z</time></trkpt><trkpt lat="43.831665" lon="6.4514717"><ele>703.5</ele><time>2026-05-02T08:59:28.28Z</time></trkpt><trkpt lat="43.8316967" lon="6.4512817"><ele>702.0</ele><time>2026-05-02T08:59:29.28Z</time></trkpt><trkpt lat="43.8317283" lon="6.4510967"><ele>700.5</ele><time>2026-05-02T08:59:30.28Z</time></trkpt><trkpt lat="43.83175" lon="6.4509267"><ele>699.0</ele><time>2026-05-02T08:59:31.28Z</time></trkpt><trkpt lat="43.8317717" lon="6.45076"><ele>699.0</ele><time>2026-05-02T08:59:32.28Z</time></trkpt><trkpt lat="43.8317517" lon="6.4505867"><ele>699.0</ele><time>2026-05-02T08:59:33.28Z</time></trkpt><trkpt lat="43.831715" lon="6.45042"><ele>699.0</ele><time>2026-05-02T08:59:34.28Z</time></trkpt><trkpt lat="43.8316683" lon="6.450245"><ele>699.0</ele><time>2026-05-02T08:59:35.28Z</time></trkpt><trkpt lat="43.8316317" lon="6.4500683"><ele>698.5</ele><time>2026-05-02T08:59:36.28Z</time></trkpt><trkpt lat="43.8316117" lon="6.449885"><ele>698.0</ele><time>2026-05-02T08:59:37.28Z</time></trkpt><trkpt lat="43.8316283" lon="6.4497067"><ele>697.5</ele><time>2026-05-02T08:59:38.28Z</time></trkpt><trkpt lat="43.8316667" lon="6.4495467"><ele>697.0</ele><time>2026-05-02T08:59:39.28Z</time></trkpt><trkpt lat="43.8317233" lon="6.4493983"><ele>696.25</ele><time>2026-05-02T08:59:40.281Z</time></trkpt><trkpt lat="43.8317833" lon="6.4492667"><ele>695.5</ele><time>2026-05-02T08:59:41.28Z</time></trkpt><trkpt lat="43.8318433" lon="6.4491267"><ele>694.75</ele><time>2026-05-02T08:59:42.28Z</time></trkpt><trkpt lat="43.8318983" lon="6.4489717"><ele>694.0</ele><time>2026-05-02T08:59:43.28Z</time></trkpt><trkpt lat="43.83194" lon="6.44882"><ele>694.0</ele><time>2026-05-02T08:59:44.28Z</time></trkpt><trkpt lat="43.8319617" lon="6.448645"><ele>694.0</ele><time>2026-05-02T08:59:45.28Z</time></trkpt><trkpt lat="43.83199" lon="6.4484583"><ele>694.0</ele><time>2026-05-02T08:59:46.28Z</time></trkpt><trkpt lat="43.8320117" lon="6.448265"><ele>694.0</ele><time>2026-05-02T08:59:47.28Z</time></trkpt><trkpt lat="43.8320283" lon="6.448095"><ele>694.0</ele><time>2026-05-02T08:59:48.28Z</time></trkpt><trkpt lat="43.8320433" lon="6.44791"><ele>694.0</ele><time>2026-05-02T08:59:49.28Z</time></trkpt><trkpt lat="43.8320583" lon="6.4477167"><ele>694.0</ele><time>2026-05-02T08:59:50.28Z</time></trkpt><trkpt lat="43.8320617" lon="6.4475283"><ele>694.0</ele><time>2026-05-02T08:59:51.28Z</time></trkpt><trkpt lat="43.8320567" lon="6.4473317"><ele>710.25</ele><time>2026-05-02T08:59:52.28Z</time></trkpt><trkpt lat="43.8320567" lon="6.4471433"><ele>726.5</ele><time>2026-05-02T08:59:53.28Z</time></trkpt><trkpt lat="43.8320367" lon="6.4469817"><ele>742.75</ele><time>2026-05-02T08:59:54.28Z</time></trkpt><trkpt lat="43.8320267" lon="6.4468017"><ele>759.0</ele><time>2026-05-02T08:59:55.28Z</time></trkpt><trkpt lat="43.8320183" lon="6.446595"><ele>759.0</ele><time>2026-05-02T08:59:56.28Z</time></trkpt><trkpt lat="43.8319767" lon="6.44642"><ele>759.0</ele><time>2026-05-02T08:59:57.28Z</time></trkpt><trkpt lat="43.8319267" lon="6.446255"><ele>759.0</ele><time>2026-05-02T08:59:58.28Z</time></trkpt><trkpt lat="43.8318883" lon="6.4460967"><ele>759.0</ele><time>2026-05-02T08:59:59.28Z</time></trkpt><trkpt lat="43.831835" lon="6.4459367"><ele>755.0</ele><time>2026-05-02T09:00:00.28Z</time></trkpt><trkpt lat="43.8317933" lon="6.4457733"><ele>751.0</ele><time>2026-05-02T09:00:01.28Z</time></trkpt><trkpt lat="43.8317483" lon="6.4455983"><ele>747.0</ele><time>2026-05-02T09:00:02.281Z</time></trkpt><trkpt lat="43.8317" lon="6.4454283"><ele>743.0</ele><time>2026-05-02T09:00:03.28Z</time></trkpt><trkpt lat="43.8316483" lon="6.4452667"><ele>754.5</ele><time>2026-05-02T09:00:04.28Z</time></trkpt><trkpt lat="43.8315867" lon="6.4451167"><ele>766.0</ele><time>2026-05-02T09:00:05.28Z</time></trkpt><trkpt lat="43.831505" lon="6.4449867"><ele>777.5</ele><time>2026-05-02T09:00:06.28Z</time></trkpt><trkpt lat="43.8313967" lon="6.44487"><ele>789.0</ele><time>2026-05-02T09:00:07.28Z</time></trkpt><trkpt lat="43.8312817" lon="6.4447683"><ele>789.0</ele><time>2026-05-02T09:00:08.28Z</time></trkpt><trkpt lat="43.831175" lon="6.44467"><ele>789.0</ele><time>2026-05-02T09:00:09.28Z</time></trkpt><trkpt lat="43.831075" lon="6.4445517"><ele>789.0</ele><time>2026-05-02T09:00:10.28Z</time></trkpt><trkpt lat="43.8309817" lon="6.4444433"><ele>789.0</ele><time>2026-05-02T09:00:11.28Z</time></trkpt><trkpt lat="43.8309017" lon="6.4443283"><ele>769.25</ele><time>2026-05-02T09:00:12.28Z</time></trkpt><trkpt lat="43.8308283" lon="6.4442167"><ele>749.5</ele><time>2026-05-02T09:00:13.28Z</time></trkpt><trkpt lat="43.8307617" lon="6.4441"><ele>729.75</ele><time>2026-05-02T09:00:14.281Z</time></trkpt><trkpt lat="43.830715" lon="6.443945"><ele>710.0</ele><time>2026-05-02T09:00:15.28Z</time></trkpt><trkpt lat="43.8307167" lon="6.44377"><ele>709.75</ele><time>2026-05-02T09:00:16.28Z</time></trkpt><trkpt lat="43.8307467" lon="6.4435867"><ele>709.5</ele><time>2026-05-02T09:00:17.28Z</time></trkpt><trkpt lat="43.8308217" lon="6.4434433"><ele>709.25</ele><time>2026-05-02T09:00:18.28Z</time></trkpt><trkpt lat="43.8309167" lon="6.4432983"><ele>709.0</ele><time>2026-05-02T09:00:19.28Z</time></trkpt><trkpt lat="43.8310267" lon="6.44316"><ele>709.0</ele><time>2026-05-02T09:00:20.28Z</time></trkpt><trkpt lat="43.831145" lon="6.4430467"><ele>709.0</ele><time>2026-05-02T09:00:21.28Z</time></trkpt><trkpt lat="43.8312717" lon="6.4429483"><ele>709.0</ele><time>2026-05-02T09:00:22.28Z</time></trkpt><trkpt lat="43.8314067" lon="6.44287"><ele>709.0</ele><time>2026-05-02T09:00:23.281Z</time></trkpt><trkpt lat="43.8315433" lon="6.4428083"><ele>706.25</ele><time>2026-05-02T09:00:24.28Z</time></trkpt><trkpt lat="43.831685" lon="6.4427383"><ele>703.5</ele><time>2026-05-02T09:00:25.28Z</time></trkpt><trkpt lat="43.8318217" lon="6.44266"><ele>700.75</ele><time>2026-05-02T09:00:26.281Z</time></trkpt><trkpt lat="43.8319533" lon="6.4425767"><ele>698.0</ele><time>2026-05-02T09:00:27.28Z</time></trkpt><trkpt lat="43.83209" lon="6.4424867"><ele>698.0</ele><time>2026-05-02T09:00:28.28Z</time></trkpt><trkpt lat="43.832225" lon="6.4423733"><ele>698.0</ele><time>2026-05-02T09:00:29.281Z</time></trkpt><trkpt lat="43.832355" lon="6.442265"><ele>698.0</ele><time>2026-05-02T09:00:30.28Z</time></trkpt><trkpt lat="43.8324767" lon="6.44212"><ele>702.6666666666666</ele><time>2026-05-02T09:00:31.28Z</time></trkpt><trkpt lat="43.83259" lon="6.4419717"><ele>707.3333333333334</ele><time>2026-05-02T09:00:32.281Z</time></trkpt><trkpt lat="43.83269" lon="6.4418067"><ele>712.0</ele><time>2026-05-02T09:00:33.28Z</time></trkpt><trkpt lat="43.8327817" lon="6.4416283"><ele>712.0</ele><time>2026-05-02T09:00:34.28Z</time></trkpt><trkpt lat="43.8328583" lon="6.4414417"><ele>712.0</ele><time>2026-05-02T09:00:35.281Z</time></trkpt><trkpt lat="43.8329317" lon="6.4412417"><ele>712.0</ele><time>2026-05-02T09:00:36.28Z</time></trkpt><trkpt lat="43.833005" lon="6.4410583"><ele>705.0</ele><time>2026-05-02T09:00:37.28Z</time></trkpt><trkpt lat="43.8330783" lon="6.4408767"><ele>698.0</ele><time>2026-05-02T09:00:38.28Z</time></trkpt><trkpt lat="43.8331517" lon="6.4406917"><ele>691.0</ele><time>2026-05-02T09:00:39.28Z</time></trkpt><trkpt lat="43.83322" lon="6.4405083"><ele>688.75</ele><time>2026-05-02T09:00:40.28Z</time></trkpt><trkpt lat="43.8332783" lon="6.4403283"><ele>686.5</ele><time>2026-05-02T09:00:41.28Z</time></trkpt><trkpt lat="43.8333433" lon="6.44015"><ele>684.25</ele><time>2026-05-02T09:00:42.28Z</time></trkpt><trkpt lat="43.8334033" lon="6.4399767"><ele>682.0</ele><time>2026-05-02T09:00:43.281Z</time></trkpt><trkpt lat="43.8334517" lon="6.43979"><ele>692.0</ele><time>2026-05-02T09:00:44.281Z</time></trkpt><trkpt lat="43.8334883" lon="6.439585"><ele>702.0</ele><time>2026-05-02T09:00:45.28Z</time></trkpt><trkpt lat="43.8334983" lon="6.4393783"><ele>712.0</ele><time>2026-05-02T09:00:46.28Z</time></trkpt><trkpt lat="43.8334967" lon="6.4391833"><ele>722.0</ele><time>2026-05-02T09:00:47.28Z</time></trkpt><trkpt lat="43.8334833" lon="6.4389817"><ele>720.75</ele><time>2026-05-02T09:00:48.281Z</time></trkpt><trkpt lat="43.833475" lon="6.438775"><ele>719.5</ele><time>2026-05-02T09:00:49.28Z</time></trkpt><trkpt lat="43.8334667" lon="6.43857"><ele>718.25</ele><time>2026-05-02T09:00:50.28Z</time></trkpt><trkpt lat="43.8334517" lon="6.4383633"><ele>717.0</ele><time>2026-05-02T09:00:51.28Z</time></trkpt><trkpt lat="43.8334283" lon="6.4381683"><ele>708.75</ele><time>2026-05-02T09:00:52.28Z</time></trkpt><trkpt lat="43.833385" lon="6.43797"><ele>700.5</ele><time>2026-05-02T09:00:53.28Z</time></trkpt><trkpt lat="43.8333467" lon="6.4377767"><ele>692.25</ele><time>2026-05-02T09:00:54.28Z</time></trkpt><trkpt lat="43.8333067" lon="6.4375833"><ele>684.0</ele><time>2026-05-02T09:00:55.28Z</time></trkpt><trkpt lat="43.8332733" lon="6.43738"><ele>684.0</ele><time>2026-05-02T09:00:56.28Z</time></trkpt><trkpt lat="43.8332367" lon="6.4371733"><ele>684.0</ele><time>2026-05-02T09:00:57.28Z</time></trkpt><trkpt lat="43.8332067" lon="6.436975"><ele>684.0</ele><time>2026-05-02T09:00:58.28Z</time></trkpt><trkpt lat="43.833185" lon="6.43679"><ele>684.0</ele><time>2026-05-02T09:00:59.28Z</time></trkpt><trkpt lat="43.8331567" lon="6.4366033"><ele>684.75</ele><time>2026-05-02T09:01:00.281Z</time></trkpt><trkpt lat="43.8331283" lon="6.4364083"><ele>685.5</ele><time>2026-05-02T09:01:01.28Z</time></trkpt><trkpt lat="43.8330983" lon="6.436225"><ele>686.25</ele><time>2026-05-02T09:01:02.28Z</time></trkpt><trkpt lat="43.8330683" lon="6.43605"><ele>687.0</ele><time>2026-05-02T09:01:03.28Z</time></trkpt><trkpt lat="43.8330467" lon="6.4358633"><ele>689.0</ele><time>2026-05-02T09:01:04.28Z</time></trkpt><trkpt lat="43.8330267" lon="6.4356817"><ele>691.0</ele><time>2026-05-02T09:01:05.28Z</time></trkpt><trkpt lat="43.8329933" lon="6.4355033"><ele>693.0</ele><time>2026-05-02T09:01:06.28Z</time></trkpt><trkpt lat="43.8329417" lon="6.435335"><ele>695.0</ele><time>2026-05-02T09:01:07.281Z</time></trkpt><trkpt lat="43.83286" lon="6.435195"><ele>691.5</ele><time>2026-05-02T09:01:08.28Z</time></trkpt><trkpt lat="43.8327417" lon="6.4350733"><ele>688.0</ele><time>2026-05-02T09:01:09.28Z</time></trkpt><trkpt lat="43.8326183" lon="6.4349633"><ele>684.5</ele><time>2026-05-02T09:01:10.28Z</time></trkpt><trkpt lat="43.83249" lon="6.43485"><ele>681.0</ele><time>2026-05-02T09:01:11.28Z</time></trkpt><trkpt lat="43.8323683" lon="6.4347233"><ele>687.75</ele><time>2026-05-02T09:01:12.28Z</time></trkpt><trkpt lat="43.8322517" lon="6.4346033"><ele>694.5</ele><time>2026-05-02T09:01:13.28Z</time></trkpt><trkpt lat="43.8321467" lon="6.43448"><ele>701.25</ele><time>2026-05-02T09:01:14.28Z</time></trkpt><trkpt lat="43.8320433" lon="6.4343567"><ele>708.0</ele><time>2026-05-02T09:01:15.281Z</time></trkpt><trkpt lat="43.8319383" lon="6.4342267"><ele>708.0</ele><time>2026-05-02T09:01:16.28Z</time></trkpt><trkpt lat="43.8318467" lon="6.4340917"><ele>708.0</ele><time>2026-05-02T09:01:17.28Z</time></trkpt><trkpt lat="43.8317417" lon="6.43397"><ele>708.0</ele><time>2026-05-02T09:01:18.28Z</time></trkpt><trkpt lat="43.8316433" lon="6.4338433"><ele>708.0</ele><time>2026-05-02T09:01:19.28Z</time></trkpt><trkpt lat="43.8315517" lon="6.433715"><ele>703.0</ele><time>2026-05-02T09:01:20.28Z</time></trkpt><trkpt lat="43.83147" lon="6.4335867"><ele>698.0</ele><time>2026-05-02T09:01:21.281Z</time></trkpt><trkpt lat="43.83138" lon="6.4334717"><ele>693.0</ele><time>2026-05-02T09:01:22.281Z</time></trkpt><trkpt lat="43.8313183" lon="6.4333467"><ele>688.0</ele><time>2026-05-02T09:01:23.281Z</time></trkpt><trkpt lat="43.831295" lon="6.4331817"><ele>688.0</ele><time>2026-05-02T09:01:24.28Z</time></trkpt><trkpt lat="43.8312883" lon="6.4330167"><ele>688.0</ele><time>2026-05-02T09:01:25.28Z</time></trkpt><trkpt lat="43.8312933" lon="6.43285"><ele>688.0</ele><time>2026-05-02T09:01:26.28Z</time></trkpt><trkpt lat="43.8312933" lon="6.4326683"><ele>688.0</ele><time>2026-05-02T09:01:27.28Z</time></trkpt><trkpt lat="43.831295" lon="6.4324933"><ele>688.0</ele><time>2026-05-02T09:01:28.28Z</time></trkpt><trkpt lat="43.83129" lon="6.4323167"><ele>688.0</ele><time>2026-05-02T09:01:29.28Z</time></trkpt><trkpt lat="43.8312783" lon="6.432145"><ele>688.0</ele><time>2026-05-02T09:01:30.281Z</time></trkpt><trkpt lat="43.8312483" lon="6.4319717"><ele>688.0</ele><time>2026-05-02T09:01:31.28Z</time></trkpt><trkpt lat="43.831215" lon="6.43181"><ele>688.75</ele><time>2026-05-02T09:01:32.28Z</time></trkpt><trkpt lat="43.8311533" lon="6.4316467"><ele>689.5</ele><time>2026-05-02T09:01:33.28Z</time></trkpt><trkpt lat="43.8310933" lon="6.4314833"><ele>690.25</ele><time>2026-05-02T09:01:34.281Z</time></trkpt><trkpt lat="43.8310333" lon="6.4313233"><ele>691.0</ele><time>2026-05-02T09:01:35.28Z</time></trkpt><trkpt lat="43.8309567" lon="6.4311567"><ele>687.5</ele><time>2026-05-02T09:01:36.28Z</time></trkpt><trkpt lat="43.830895" lon="6.4310033"><ele>684.0</ele><time>2026-05-02T09:01:37.281Z</time></trkpt><trkpt lat="43.830825" lon="6.430825"><ele>680.5</ele><time>2026-05-02T09:01:38.28Z</time></trkpt><trkpt lat="43.8307617" lon="6.430665"><ele>677.0</ele><time>2026-05-02T09:01:39.28Z</time></trkpt><trkpt lat="43.8306983" lon="6.43049"><ele>677.5</ele><time>2026-05-02T09:01:40.28Z</time></trkpt><trkpt lat="43.830635" lon="6.43031"><ele>678.0</ele><time>2026-05-02T09:01:41.28Z</time></trkpt><trkpt lat="43.8305883" lon="6.4301183"><ele>678.5</ele><time>2026-05-02T09:01:42.28Z</time></trkpt><trkpt lat="43.8305483" lon="6.4299483"><ele>679.0</ele><time>2026-05-02T09:01:43.28Z</time></trkpt><trkpt lat="43.83052" lon="6.4297667"><ele>679.0</ele><time>2026-05-02T09:01:44.28Z</time></trkpt><trkpt lat="43.8304917" lon="6.4295917"><ele>679.0</ele><time>2026-05-02T09:01:45.281Z</time></trkpt><trkpt lat="43.830475" lon="6.4294133"><ele>679.0</ele><time>2026-05-02T09:01:46.28Z</time></trkpt><trkpt lat="43.830465" lon="6.429235"><ele>679.0</ele><time>2026-05-02T09:01:47.28Z</time></trkpt><trkpt lat="43.8304717" lon="6.4290567"><ele>679.0</ele><time>2026-05-02T09:01:48.28Z</time></trkpt><trkpt lat="43.8304867" lon="6.4288967"><ele>679.0</ele><time>2026-05-02T09:01:49.28Z</time></trkpt><trkpt lat="43.8304883" lon="6.4287233"><ele>679.0</ele><time>2026-05-02T09:01:50.28Z</time></trkpt><trkpt lat="43.8304667" lon="6.4285517"><ele>679.0</ele><time>2026-05-02T09:01:51.28Z</time></trkpt><trkpt lat="43.830415" lon="6.4283933"><ele>679.75</ele><time>2026-05-02T09:01:52.28Z</time></trkpt><trkpt lat="43.8303583" lon="6.428245"><ele>680.5</ele><time>2026-05-02T09:01:53.28Z</time></trkpt><trkpt lat="43.830275" lon="6.4280917"><ele>681.25</ele><time>2026-05-02T09:01:54.28Z</time></trkpt><trkpt lat="43.8302033" lon="6.4279417"><ele>682.0</ele><time>2026-05-02T09:01:55.28Z</time></trkpt><trkpt lat="43.8301067" lon="6.4278067"><ele>680.25</ele><time>2026-05-02T09:01:56.28Z</time></trkpt><trkpt lat="43.8300017" lon="6.427685"><ele>678.5</ele><time>2026-05-02T09:01:57.28Z</time></trkpt><trkpt lat="43.8298933" lon="6.4275767"><ele>676.75</ele><time>2026-05-02T09:01:58.28Z</time></trkpt><trkpt lat="43.82979" lon="6.427465"><ele>675.0</ele><time>2026-05-02T09:01:59.28Z</time></trkpt><trkpt lat="43.8296983" lon="6.4273533"><ele>675.0</ele><time>2026-05-02T09:02:00.28Z</time></trkpt><trkpt lat="43.82962" lon="6.42722"><ele>675.0</ele><time>2026-05-02T09:02:01.28Z</time></trkpt><trkpt lat="43.8295717" lon="6.427075"><ele>675.0</ele><time>2026-05-02T09:02:02.28Z</time></trkpt><trkpt lat="43.82953" lon="6.42693"><ele>675.0</ele><time>2026-05-02T09:02:03.28Z</time></trkpt><trkpt lat="43.82948" lon="6.4267933"><ele>675.25</ele><time>2026-05-02T09:02:04.28Z</time></trkpt><trkpt lat="43.8294067" lon="6.4266867"><ele>675.5</ele><time>2026-05-02T09:02:05.28Z</time></trkpt><trkpt lat="43.8293067" lon="6.4265967"><ele>675.75</ele><time>2026-05-02T09:02:06.28Z</time></trkpt><trkpt lat="43.8291883" lon="6.426525"><ele>676.0</ele><time>2026-05-02T09:02:07.28Z</time></trkpt><trkpt lat="43.8290717" lon="6.4264667"><ele>676.0</ele><time>2026-05-02T09:02:08.28Z</time></trkpt><trkpt lat="43.8289517" lon="6.426405"><ele>676.0</ele><time>2026-05-02T09:02:09.28Z</time></trkpt><trkpt lat="43.8288317" lon="6.4263267"><ele>676.0</ele><time>2026-05-02T09:02:10.28Z</time></trkpt><trkpt lat="43.8287" lon="6.4262583"><ele>676.0</ele><time>2026-05-02T09:02:11.28Z</time></trkpt><trkpt lat="43.828565" lon="6.426185"><ele>678.5</ele><time>2026-05-02T09:02:12.28Z</time></trkpt><trkpt lat="43.8284367" lon="6.42612"><ele>681.0</ele><time>2026-05-02T09:02:13.281Z</time></trkpt><trkpt lat="43.8283117" lon="6.4260633"><ele>683.5</ele><time>2026-05-02T09:02:14.28Z</time></trkpt><trkpt lat="43.8281967" lon="6.4260167"><ele>686.0</ele><time>2026-05-02T09:02:15.28Z</time></trkpt><trkpt lat="43.8280883" lon="6.4259783"><ele>686.0</ele><time>2026-05-02T09:02:16.28Z</time></trkpt><trkpt lat="43.8279733" lon="6.4259567"><ele>686.0</ele><time>2026-05-02T09:02:17.28Z</time></trkpt><trkpt lat="43.8278467" lon="6.4259383"><ele>686.0</ele><time>2026-05-02T09:02:18.281Z</time></trkpt><trkpt lat="43.8277267" lon="6.4259417"><ele>686.0</ele><time>2026-05-02T09:02:19.28Z</time></trkpt><trkpt lat="43.8276117" lon="6.425985"><ele>686.5</ele><time>2026-05-02T09:02:20.28Z</time></trkpt><trkpt lat="43.8275017" lon="6.4260533"><ele>687.0</ele><time>2026-05-02T09:02:21.28Z</time></trkpt><trkpt lat="43.8274017" lon="6.4261533"><ele>687.5</ele><time>2026-05-02T09:02:22.28Z</time></trkpt><trkpt lat="43.827305" lon="6.4262683"><ele>688.0</ele><time>2026-05-02T09:02:23.28Z</time></trkpt><trkpt lat="43.82721" lon="6.42639"><ele>683.75</ele><time>2026-05-02T09:02:24.28Z</time></trkpt><trkpt lat="43.827115" lon="6.4265117"><ele>679.5</ele><time>2026-05-02T09:02:25.28Z</time></trkpt><trkpt lat="43.8270133" lon="6.4266283"><ele>675.25</ele><time>2026-05-02T09:02:26.281Z</time></trkpt><trkpt lat="43.826925" lon="6.4267833"><ele>671.0</ele><time>2026-05-02T09:02:27.28Z</time></trkpt><trkpt lat="43.8268467" lon="6.4269467"><ele>673.0</ele><time>2026-05-02T09:02:28.28Z</time></trkpt><trkpt lat="43.826775" lon="6.4270983"><ele>675.0</ele><time>2026-05-02T09:02:29.28Z</time></trkpt><trkpt lat="43.8267017" lon="6.42724"><ele>677.0</ele><time>2026-05-02T09:02:30.28Z</time></trkpt><trkpt lat="43.8266267" lon="6.4273817"><ele>679.0</ele><time>2026-05-02T09:02:31.28Z</time></trkpt><trkpt lat="43.8265683" lon="6.4275417"><ele>679.0</ele><time>2026-05-02T09:02:32.28Z</time></trkpt><trkpt lat="43.826515" lon="6.42772"><ele>679.0</ele><time>2026-05-02T09:02:33.28Z</time></trkpt><trkpt lat="43.8264767" lon="6.42791"><ele>679.0</ele><time>2026-05-02T09:02:34.28Z</time></trkpt><trkpt lat="43.826445" lon="6.4280933"><ele>679.0</ele><time>2026-05-02T09:02:35.28Z</time></trkpt><trkpt lat="43.8264283" lon="6.428285"><ele>676.75</ele><time>2026-05-02T09:02:36.28Z</time></trkpt><trkpt lat="43.8264217" lon="6.4284617"><ele>674.5</ele><time>2026-05-02T09:02:37.28Z</time></trkpt><trkpt lat="43.82641" lon="6.4286533"><ele>672.25</ele><time>2026-05-02T09:02:38.28Z</time></trkpt><trkpt lat="43.8264033" lon="6.4288433"><ele>670.0</ele><time>2026-05-02T09:02:39.281Z</time></trkpt><trkpt lat="43.8263917" lon="6.429025"><ele>669.25</ele><time>2026-05-02T09:02:40.28Z</time></trkpt><trkpt lat="43.8263783" lon="6.429205"><ele>668.5</ele><time>2026-05-02T09:02:41.281Z</time></trkpt><trkpt lat="43.8263483" lon="6.4293833"><ele>667.75</ele><time>2026-05-02T09:02:42.281Z</time></trkpt><trkpt lat="43.8263133" lon="6.4295517"><ele>667.0</ele><time>2026-05-02T09:02:43.28Z</time></trkpt><trkpt lat="43.826265" lon="6.4297117"><ele>666.75</ele><time>2026-05-02T09:02:44.28Z</time></trkpt><trkpt lat="43.8262167" lon="6.4298833"><ele>666.5</ele><time>2026-05-02T09:02:45.28Z</time></trkpt><trkpt lat="43.8261767" lon="6.4300417"><ele>666.25</ele><time>2026-05-02T09:02:46.28Z</time></trkpt><trkpt lat="43.8261117" lon="6.4301867"><ele>666.0</ele><time>2026-05-02T09:02:47.28Z</time></trkpt><trkpt lat="43.82604" lon="6.4303167"><ele>666.25</ele><time>2026-05-02T09:02:48.28Z</time></trkpt><trkpt lat="43.82595" lon="6.4304117"><ele>666.5</ele><time>2026-05-02T09:02:49.28Z</time></trkpt><trkpt lat="43.8258433" lon="6.4304767"><ele>666.75</ele><time>2026-05-02T09:02:50.28Z</time></trkpt><trkpt lat="43.8257217" lon="6.4304983"><ele>667.0</ele><time>2026-05-02T09:02:51.28Z</time></trkpt><trkpt lat="43.8256017" lon="6.430495"><ele>667.0</ele><time>2026-05-02T09:02:52.28Z</time></trkpt><trkpt lat="43.8254717" lon="6.4304883"><ele>667.0</ele><time>2026-05-02T09:02:53.28Z</time></trkpt><trkpt lat="43.8253317" lon="6.430485"><ele>667.0</ele><time>2026-05-02T09:02:54.28Z</time></trkpt><trkpt lat="43.8251783" lon="6.4304833"><ele>667.0</ele><time>2026-05-02T09:02:55.281Z</time></trkpt><trkpt lat="43.82502" lon="6.4304933"><ele>668.6666666666667</ele><time>2026-05-02T09:02:56.28Z</time></trkpt><trkpt lat="43.8248717" lon="6.4304867"><ele>670.3333333333334</ele><time>2026-05-02T09:02:57.28Z</time></trkpt><trkpt lat="43.8247133" lon="6.4304883"><ele>672.0</ele><time>2026-05-02T09:02:58.28Z</time></trkpt><trkpt lat="43.8245617" lon="6.4304967"><ele>672.0</ele><time>2026-05-02T09:02:59.28Z</time></trkpt><trkpt lat="43.8244183" lon="6.4305183"><ele>672.0</ele><time>2026-05-02T09:03:00.28Z</time></trkpt><trkpt lat="43.8242733" lon="6.4305633"><ele>672.0</ele><time>2026-05-02T09:03:01.28Z</time></trkpt><trkpt lat="43.8241483" lon="6.4306117"><ele>672.0</ele><time>2026-05-02T09:03:02.28Z</time></trkpt><trkpt lat="43.8240283" lon="6.4306733"><ele>672.0</ele><time>2026-05-02T09:03:03.28Z</time></trkpt><trkpt lat="43.8239133" lon="6.4307483"><ele>672.0</ele><time>2026-05-02T09:03:04.281Z</time></trkpt><trkpt lat="43.8238017" lon="6.4308483"><ele>672.0</ele><time>2026-05-02T09:03:05.28Z</time></trkpt><trkpt lat="43.8237017" lon="6.4309417"><ele>672.0</ele><time>2026-05-02T09:03:06.281Z</time></trkpt><trkpt lat="43.823615" lon="6.431025"><ele>672.0</ele><time>2026-05-02T09:03:07.28Z</time></trkpt><trkpt lat="43.8235317" lon="6.4311133"><ele>672.0</ele><time>2026-05-02T09:03:08.28Z</time></trkpt><trkpt lat="43.823455" lon="6.431215"><ele>672.0</ele><time>2026-05-02T09:03:09.28Z</time></trkpt><trkpt lat="43.8233767" lon="6.4313033"><ele>672.0</ele><time>2026-05-02T09:03:10.28Z</time></trkpt><trkpt lat="43.8232933" lon="6.4313667"><ele>672.0</ele><time>2026-05-02T09:03:11.28Z</time></trkpt><trkpt lat="43.823205" lon="6.4313867"><ele>671.8</ele><time>2026-05-02T09:03:12.28Z</time></trkpt><trkpt lat="43.8231133" lon="6.4313917"><ele>671.6</ele><time>2026-05-02T09:03:13.28Z</time></trkpt><trkpt lat="43.8230217" lon="6.4313717"><ele>671.4</ele><time>2026-05-02T09:03:14.28Z</time></trkpt><trkpt lat="43.8229217" lon="6.4313333"><ele>671.1999999999999</ele><time>2026-05-02T09:03:15.28Z</time></trkpt><trkpt lat="43.8228083" lon="6.431295"><ele>671.0</ele><time>2026-05-02T09:03:16.281Z</time></trkpt><trkpt lat="43.8226917" lon="6.43125"><ele>671.0</ele><time>2026-05-02T09:03:17.28Z</time></trkpt><trkpt lat="43.8225733" lon="6.4312067"><ele>671.0</ele><time>2026-05-02T09:03:18.28Z</time></trkpt><trkpt lat="43.8224617" lon="6.43116"><ele>671.0</ele><time>2026-05-02T09:03:19.28Z</time></trkpt><trkpt lat="43.8223517" lon="6.431115"><ele>671.0</ele><time>2026-05-02T09:03:20.279Z</time></trkpt><trkpt lat="43.8222383" lon="6.4310867"><ele>671.0</ele><time>2026-05-02T09:03:21.28Z</time></trkpt><trkpt lat="43.8221417" lon="6.4310733"><ele>671.0</ele><time>2026-05-02T09:03:22.279Z</time></trkpt><trkpt lat="43.82204" lon="6.4311083"><ele>671.0</ele><time>2026-05-02T09:03:23.279Z</time></trkpt><trkpt lat="43.8219383" lon="6.4311617"><ele>671.0</ele><time>2026-05-02T09:03:24.279Z</time></trkpt><trkpt lat="43.82184" lon="6.4312383"><ele>671.0</ele><time>2026-05-02T09:03:25.279Z</time></trkpt><trkpt lat="43.8217383" lon="6.4313067"><ele>671.8</ele><time>2026-05-02T09:03:26.279Z</time></trkpt><trkpt lat="43.821625" lon="6.43133"><ele>672.5999999999999</ele><time>2026-05-02T09:03:27.279Z</time></trkpt><trkpt lat="43.82151" lon="6.4313333"><ele>673.4</ele><time>2026-05-02T09:03:28.279Z</time></trkpt><trkpt lat="43.8213983" lon="6.431325"><ele>674.2</ele><time>2026-05-02T09:03:29.279Z</time></trkpt><trkpt lat="43.821295" lon="6.4312983"><ele>675.0</ele><time>2026-05-02T09:03:30.279Z</time></trkpt><trkpt lat="43.8212" lon="6.4313067"><ele>674.5</ele><time>2026-05-02T09:03:31.279Z</time></trkpt><trkpt lat="43.821115" lon="6.4313433"><ele>674.0</ele><time>2026-05-02T09:03:32.279Z</time></trkpt><trkpt lat="43.8210283" lon="6.4314283"><ele>673.5</ele><time>2026-05-02T09:03:33.279Z</time></trkpt><trkpt lat="43.82095" lon="6.4315633"><ele>673.0</ele><time>2026-05-02T09:03:34.28Z</time></trkpt><trkpt lat="43.8208733" lon="6.4317133"><ele>673.0</ele><time>2026-05-02T09:03:35.279Z</time></trkpt><trkpt lat="43.82079" lon="6.4318667"><ele>673.0</ele><time>2026-05-02T09:03:36.279Z</time></trkpt><trkpt lat="43.8206983" lon="6.4319867"><ele>673.0</ele><time>2026-05-02T09:03:37.279Z</time></trkpt><trkpt lat="43.8206067" lon="6.4321133"><ele>673.0</ele><time>2026-05-02T09:03:38.279Z</time></trkpt><trkpt lat="43.8205167" lon="6.432235"><ele>669.5</ele><time>2026-05-02T09:03:39.28Z</time></trkpt><trkpt lat="43.8204417" lon="6.43236"><ele>666.0</ele><time>2026-05-02T09:03:40.279Z</time></trkpt><trkpt lat="43.8203717" lon="6.432495"><ele>662.5</ele><time>2026-05-02T09:03:41.279Z</time></trkpt><trkpt lat="43.8203117" lon="6.4326367"><ele>659.0</ele><time>2026-05-02T09:03:42.279Z</time></trkpt><trkpt lat="43.82026" lon="6.4327933"><ele>659.0</ele><time>2026-05-02T09:03:43.279Z</time></trkpt><trkpt lat="43.82022" lon="6.4329483"><ele>659.0</ele><time>2026-05-02T09:03:44.279Z</time></trkpt><trkpt lat="43.8201867" lon="6.4331083"><ele>659.0</ele><time>2026-05-02T09:03:45.279Z</time></trkpt><trkpt lat="43.82014" lon="6.433255"><ele>659.0</ele><time>2026-05-02T09:03:46.279Z</time></trkpt><trkpt lat="43.8200667" lon="6.433395"><ele>662.0</ele><time>2026-05-02T09:03:47.279Z</time></trkpt><trkpt lat="43.8199767" lon="6.4335083"><ele>665.0</ele><time>2026-05-02T09:03:48.279Z</time></trkpt><trkpt lat="43.8198667" lon="6.4336067"><ele>668.0</ele><time>2026-05-02T09:03:49.279Z</time></trkpt><trkpt lat="43.8197633" lon="6.4336983"><ele>671.0</ele><time>2026-05-02T09:03:50.279Z</time></trkpt><trkpt lat="43.81966" lon="6.4338033"><ele>670.0</ele><time>2026-05-02T09:03:51.279Z</time></trkpt><trkpt lat="43.8195633" lon="6.4339283"><ele>669.0</ele><time>2026-05-02T09:03:52.279Z</time></trkpt><trkpt lat="43.8194767" lon="6.434085"><ele>668.0</ele><time>2026-05-02T09:03:53.279Z</time></trkpt><trkpt lat="43.8193917" lon="6.4342617"><ele>667.0</ele><time>2026-05-02T09:03:54.279Z</time></trkpt><trkpt lat="43.8193217" lon="6.4344433"><ele>666.5</ele><time>2026-05-02T09:03:55.279Z</time></trkpt><trkpt lat="43.8192533" lon="6.4346133"><ele>666.0</ele><time>2026-05-02T09:03:56.279Z</time></trkpt><trkpt lat="43.8191967" lon="6.43478"><ele>665.5</ele><time>2026-05-02T09:03:57.279Z</time></trkpt><trkpt lat="43.8191317" lon="6.4349367"><ele>665.0</ele><time>2026-05-02T09:03:58.279Z</time></trkpt><trkpt lat="43.8190633" lon="6.4350883"><ele>665.0</ele><time>2026-05-02T09:03:59.279Z</time></trkpt><trkpt lat="43.8189983" lon="6.4352417"><ele>665.0</ele><time>2026-05-02T09:04:00.279Z</time></trkpt><trkpt lat="43.8189367" lon="6.43539"><ele>665.0</ele><time>2026-05-02T09:04:01.279Z</time></trkpt><trkpt lat="43.8188767" lon="6.4355417"><ele>665.0</ele><time>2026-05-02T09:04:02.279Z</time></trkpt><trkpt lat="43.81881" lon="6.4356933"><ele>665.0</ele><time>2026-05-02T09:04:03.279Z</time></trkpt><trkpt lat="43.818735" lon="6.4358233"><ele>665.0</ele><time>2026-05-02T09:04:04.279Z</time></trkpt><trkpt lat="43.8186433" lon="6.4359417"><ele>665.0</ele><time>2026-05-02T09:04:05.28Z</time></trkpt><trkpt lat="43.8185267" lon="6.4360367"><ele>665.0</ele><time>2026-05-02T09:04:06.279Z</time></trkpt><trkpt lat="43.8184067" lon="6.436145"><ele>665.75</ele><time>2026-05-02T09:04:07.279Z</time></trkpt><trkpt lat="43.818285" lon="6.43624"><ele>666.5</ele><time>2026-05-02T09:04:08.28Z</time></trkpt><trkpt lat="43.8181617" lon="6.4363217"><ele>667.25</ele><time>2026-05-02T09:04:09.279Z</time></trkpt><trkpt lat="43.8180217" lon="6.4363883"><ele>668.0</ele><time>2026-05-02T09:04:10.279Z</time></trkpt><trkpt lat="43.817865" lon="6.43645"><ele>668.0</ele><time>2026-05-02T09:04:11.279Z</time></trkpt><trkpt lat="43.8177283" lon="6.4365233"><ele>668.0</ele><time>2026-05-02T09:04:12.279Z</time></trkpt><trkpt lat="43.817585" lon="6.4365767"><ele>668.0</ele><time>2026-05-02T09:04:13.279Z</time></trkpt><trkpt lat="43.817435" lon="6.43661"><ele>668.0</ele><time>2026-05-02T09:04:14.279Z</time></trkpt><trkpt lat="43.817295" lon="6.4366367"><ele>669.5</ele><time>2026-05-02T09:04:15.28Z</time></trkpt><trkpt lat="43.817155" lon="6.4366567"><ele>671.0</ele><time>2026-05-02T09:04:16.279Z</time></trkpt><trkpt lat="43.8170183" lon="6.43666"><ele>672.5</ele><time>2026-05-02T09:04:17.279Z</time></trkpt><trkpt lat="43.8168817" lon="6.4366567"><ele>674.0</ele><time>2026-05-02T09:04:18.279Z</time></trkpt><trkpt lat="43.8167467" lon="6.4366617"><ele>676.0</ele><time>2026-05-02T09:04:19.279Z</time></trkpt><trkpt lat="43.816645" lon="6.436655"><ele>678.0</ele><time>2026-05-02T09:04:20.279Z</time></trkpt><trkpt lat="43.8165433" lon="6.4366683"><ele>680.0</ele><time>2026-05-02T09:04:21.279Z</time></trkpt><trkpt lat="43.816435" lon="6.43673"><ele>682.0</ele><time>2026-05-02T09:04:22.279Z</time></trkpt><trkpt lat="43.8163217" lon="6.4368067"><ele>684.0</ele><time>2026-05-02T09:04:23.279Z</time></trkpt><trkpt lat="43.8162117" lon="6.43689"><ele>684.0</ele><time>2026-05-02T09:04:24.279Z</time></trkpt><trkpt lat="43.8161133" lon="6.4369767"><ele>684.0</ele><time>2026-05-02T09:04:25.279Z</time></trkpt><trkpt lat="43.81602" lon="6.4370633"><ele>684.0</ele><time>2026-05-02T09:04:26.279Z</time></trkpt><trkpt lat="43.815935" lon="6.4371533"><ele>684.0</ele><time>2026-05-02T09:04:27.279Z</time></trkpt><trkpt lat="43.8158583" lon="6.43725"><ele>684.0</ele><time>2026-05-02T09:04:28.28Z</time></trkpt><trkpt lat="43.81576" lon="6.4373817"><ele>682.0</ele><time>2026-05-02T09:04:29.279Z</time></trkpt><trkpt lat="43.8157167" lon="6.4375383"><ele>680.0</ele><time>2026-05-02T09:04:30.28Z</time></trkpt><trkpt lat="43.8156833" lon="6.4376917"><ele>678.0</ele><time>2026-05-02T09:04:31.279Z</time></trkpt><trkpt lat="43.8156467" lon="6.4378417"><ele>676.0</ele><time>2026-05-02T09:04:32.279Z</time></trkpt><trkpt lat="43.815595" lon="6.43799"><ele>682.5</ele><time>2026-05-02T09:04:33.28Z</time></trkpt><trkpt lat="43.815525" lon="6.4381283"><ele>689.0</ele><time>2026-05-02T09:04:34.279Z</time></trkpt><trkpt lat="43.8154283" lon="6.43821"><ele>695.5</ele><time>2026-05-02T09:04:35.279Z</time></trkpt><trkpt lat="43.8153217" lon="6.4382633"><ele>702.0</ele><time>2026-05-02T09:04:36.279Z</time></trkpt><trkpt lat="43.8152033" lon="6.438285"><ele>692.0</ele><time>2026-05-02T09:04:37.279Z</time></trkpt><trkpt lat="43.8150867" lon="6.4382667"><ele>682.0</ele><time>2026-05-02T09:04:38.279Z</time></trkpt><trkpt lat="43.8149667" lon="6.4382533"><ele>672.0</ele><time>2026-05-02T09:04:39.279Z</time></trkpt><trkpt lat="43.814845" lon="6.4382567"><ele>662.0</ele><time>2026-05-02T09:04:40.279Z</time></trkpt><trkpt lat="43.8147283" lon="6.4382733"><ele>662.0</ele><time>2026-05-02T09:04:41.28Z</time></trkpt><trkpt lat="43.8146183" lon="6.4382867"><ele>662.0</ele><time>2026-05-02T09:04:42.279Z</time></trkpt><trkpt lat="43.8145067" lon="6.4383033"><ele>662.0</ele><time>2026-05-02T09:04:43.279Z</time></trkpt><trkpt lat="43.8144" lon="6.4383167"><ele>662.0</ele><time>2026-05-02T09:04:44.279Z</time></trkpt><trkpt lat="43.814295" lon="6.4383317"><ele>662.0</ele><time>2026-05-02T09:04:45.279Z</time></trkpt><trkpt lat="43.8141867" lon="6.4383467"><ele>662.0</ele><time>2026-05-02T09:04:46.279Z</time></trkpt><trkpt lat="43.8140733" lon="6.43835"><ele>662.0</ele><time>2026-05-02T09:04:47.28Z</time></trkpt><trkpt lat="43.8139683" lon="6.4383117"><ele>662.0</ele><time>2026-05-02T09:04:48.279Z</time></trkpt><trkpt lat="43.813865" lon="6.4382767"><ele>662.0</ele><time>2026-05-02T09:04:49.279Z</time></trkpt><trkpt lat="43.8137683" lon="6.4382333"><ele>662.0</ele><time>2026-05-02T09:04:50.28Z</time></trkpt><trkpt lat="43.8136767" lon="6.43816"><ele>658.75</ele><time>2026-05-02T09:04:51.279Z</time></trkpt><trkpt lat="43.8135883" lon="6.4380667"><ele>655.5</ele><time>2026-05-02T09:04:52.279Z</time></trkpt><trkpt lat="43.8135" lon="6.43796"><ele>652.25</ele><time>2026-05-02T09:04:53.28Z</time></trkpt><trkpt lat="43.8134083" lon="6.437835"><ele>649.0</ele><time>2026-05-02T09:04:54.279Z</time></trkpt><trkpt lat="43.8133217" lon="6.4376917"><ele>649.0</ele><time>2026-05-02T09:04:55.279Z</time></trkpt><trkpt lat="43.8132233" lon="6.4375683"><ele>649.0</ele><time>2026-05-02T09:04:56.279Z</time></trkpt><trkpt lat="43.81312" lon="6.43744"><ele>649.0</ele><time>2026-05-02T09:04:57.279Z</time></trkpt><trkpt lat="43.8130167" lon="6.4373167"><ele>649.0</ele><time>2026-05-02T09:04:58.279Z</time></trkpt><trkpt lat="43.8129117" lon="6.43721"><ele>653.75</ele><time>2026-05-02T09:04:59.279Z</time></trkpt><trkpt lat="43.8128083" lon="6.4371117"><ele>658.5</ele><time>2026-05-02T09:05:00.279Z</time></trkpt><trkpt lat="43.8127067" lon="6.4370167"><ele>663.25</ele><time>2026-05-02T09:05:01.279Z</time></trkpt><trkpt lat="43.8126033" lon="6.4369317"><ele>668.0</ele><time>2026-05-02T09:05:02.279Z</time></trkpt><trkpt lat="43.8125017" lon="6.436855"><ele>668.0</ele><time>2026-05-02T09:05:03.279Z</time></trkpt><trkpt lat="43.81241" lon="6.43678"><ele>668.0</ele><time>2026-05-02T09:05:04.279Z</time></trkpt><trkpt lat="43.8123167" lon="6.4367083"><ele>668.0</ele><time>2026-05-02T09:05:05.279Z</time></trkpt><trkpt lat="43.8122133" lon="6.4366433"><ele>668.0</ele><time>2026-05-02T09:05:06.279Z</time></trkpt><trkpt lat="43.8121083" lon="6.4365783"><ele>668.0</ele><time>2026-05-02T09:05:07.279Z</time></trkpt><trkpt lat="43.811985" lon="6.4365083"><ele>668.0</ele><time>2026-05-02T09:05:08.279Z</time></trkpt><trkpt lat="43.81185" lon="6.4364467"><ele>668.0</ele><time>2026-05-02T09:05:09.279Z</time></trkpt><trkpt lat="43.81172" lon="6.4363983"><ele>668.0</ele><time>2026-05-02T09:05:10.279Z</time></trkpt><trkpt lat="43.8115883" lon="6.4363767"><ele>668.0</ele><time>2026-05-02T09:05:11.279Z</time></trkpt><trkpt lat="43.8114483" lon="6.4364283"><ele>669.0</ele><time>2026-05-02T09:05:12.279Z</time></trkpt><trkpt lat="43.8113217" lon="6.4365167"><ele>670.0</ele><time>2026-05-02T09:05:13.279Z</time></trkpt><trkpt lat="43.81119" lon="6.4366183"><ele>671.0</ele><time>2026-05-02T09:05:14.279Z</time></trkpt><trkpt lat="43.811065" lon="6.4367033"><ele>672.0</ele><time>2026-05-02T09:05:15.279Z</time></trkpt><trkpt lat="43.8109383" lon="6.43678"><ele>672.0</ele><time>2026-05-02T09:05:16.279Z</time></trkpt><trkpt lat="43.8108117" lon="6.43684"><ele>672.0</ele><time>2026-05-02T09:05:17.279Z</time></trkpt><trkpt lat="43.8106833" lon="6.436895"><ele>672.0</ele><time>2026-05-02T09:05:18.279Z</time></trkpt><trkpt lat="43.8105583" lon="6.4369467"><ele>672.0</ele><time>2026-05-02T09:05:19.279Z</time></trkpt><trkpt lat="43.8104267" lon="6.4369917"><ele>672.0</ele><time>2026-05-02T09:05:20.279Z</time></trkpt><trkpt lat="43.8102917" lon="6.43707"><ele>672.0</ele><time>2026-05-02T09:05:21.28Z</time></trkpt><trkpt lat="43.810165" lon="6.4371767"><ele>672.0</ele><time>2026-05-02T09:05:22.279Z</time></trkpt><trkpt lat="43.8100317" lon="6.4373017"><ele>672.3333333333334</ele><time>2026-05-02T09:05:23.279Z</time></trkpt><trkpt lat="43.8098983" lon="6.4374217"><ele>672.6666666666667</ele><time>2026-05-02T09:05:24.279Z</time></trkpt><trkpt lat="43.8097583" lon="6.4375383"><ele>673.0</ele><time>2026-05-02T09:05:25.28Z</time></trkpt><trkpt lat="43.8096233" lon="6.4376367"><ele>673.0</ele><time>2026-05-02T09:05:26.28Z</time></trkpt><trkpt lat="43.8094883" lon="6.4377217"><ele>673.0</ele><time>2026-05-02T09:05:27.279Z</time></trkpt><trkpt lat="43.809345" lon="6.4378"><ele>673.0</ele><time>2026-05-02T09:05:28.279Z</time></trkpt><trkpt lat="43.80921" lon="6.4378683"><ele>673.0</ele><time>2026-05-02T09:05:29.279Z</time></trkpt><trkpt lat="43.809085" lon="6.4379567"><ele>669.25</ele><time>2026-05-02T09:05:30.28Z</time></trkpt><trkpt lat="43.808955" lon="6.43805"><ele>665.5</ele><time>2026-05-02T09:05:31.279Z</time></trkpt><trkpt lat="43.8088367" lon="6.4381017"><ele>661.75</ele><time>2026-05-02T09:05:32.279Z</time></trkpt><trkpt lat="43.80869" lon="6.4381117"><ele>658.0</ele><time>2026-05-02T09:05:33.28Z</time></trkpt><trkpt lat="43.8085517" lon="6.4380767"><ele>657.0</ele><time>2026-05-02T09:05:34.28Z</time></trkpt><trkpt lat="43.808415" lon="6.4380267"><ele>656.0</ele><time>2026-05-02T09:05:35.28Z</time></trkpt><trkpt lat="43.8082633" lon="6.4379817"><ele>655.0</ele><time>2026-05-02T09:05:36.279Z</time></trkpt><trkpt lat="43.8081267" lon="6.4379317"><ele>654.0</ele><time>2026-05-02T09:05:37.28Z</time></trkpt><trkpt lat="43.8079817" lon="6.4378967"><ele>658.75</ele><time>2026-05-02T09:05:38.279Z</time></trkpt><trkpt lat="43.8078333" lon="6.4378733"><ele>663.5</ele><time>2026-05-02T09:05:39.279Z</time></trkpt><trkpt lat="43.807695" lon="6.43786"><ele>668.25</ele><time>2026-05-02T09:05:40.28Z</time></trkpt><trkpt lat="43.807545" lon="6.4378633"><ele>673.0</ele><time>2026-05-02T09:05:41.279Z</time></trkpt><trkpt lat="43.8073983" lon="6.4378783"><ele>674.6666666666667</ele><time>2026-05-02T09:05:42.279Z</time></trkpt><trkpt lat="43.8072433" lon="6.437915"><ele>676.3333333333334</ele><time>2026-05-02T09:05:43.279Z</time></trkpt><trkpt lat="43.807095" lon="6.4379633"><ele>678.0</ele><time>2026-05-02T09:05:44.279Z</time></trkpt><trkpt lat="43.8069483" lon="6.4380217"><ele>673.5</ele><time>2026-05-02T09:05:45.279Z</time></trkpt><trkpt lat="43.806805" lon="6.438105"><ele>669.0</ele><time>2026-05-02T09:05:46.279Z</time></trkpt><trkpt lat="43.8066767" lon="6.438195"><ele>664.5</ele><time>2026-05-02T09:05:47.279Z</time></trkpt><trkpt lat="43.8065533" lon="6.4382767"><ele>660.0</ele><time>2026-05-02T09:05:48.279Z</time></trkpt><trkpt lat="43.8064333" lon="6.4383783"><ele>660.0</ele><time>2026-05-02T09:05:49.279Z</time></trkpt><trkpt lat="43.8063233" lon="6.438465"><ele>660.0</ele><time>2026-05-02T09:05:50.279Z</time></trkpt><trkpt lat="43.8062183" lon="6.4385583"><ele>660.0</ele><time>2026-05-02T09:05:51.279Z</time></trkpt><trkpt lat="43.8061167" lon="6.438675"><ele>660.0</ele><time>2026-05-02T09:05:52.279Z</time></trkpt><trkpt lat="43.8060383" lon="6.4388333"><ele>660.0</ele><time>2026-05-02T09:05:53.279Z</time></trkpt><trkpt lat="43.8059883" lon="6.4390033"><ele>660.0</ele><time>2026-05-02T09:05:54.279Z</time></trkpt><trkpt lat="43.8059633" lon="6.439165"><ele>660.0</ele><time>2026-05-02T09:05:55.279Z</time></trkpt><trkpt lat="43.8059367" lon="6.43932"><ele>660.0</ele><time>2026-05-02T09:05:56.28Z</time></trkpt><trkpt lat="43.8059033" lon="6.4394617"><ele>660.0</ele><time>2026-05-02T09:05:57.279Z</time></trkpt><trkpt lat="43.8058633" lon="6.4395917"><ele>660.0</ele><time>2026-05-02T09:05:58.279Z</time></trkpt><trkpt lat="43.8058183" lon="6.4397033"><ele>660.0</ele><time>2026-05-02T09:05:59.279Z</time></trkpt><trkpt lat="43.8057833" lon="6.4397933"><ele>660.0</ele><time>2026-05-02T09:06:00.279Z</time></trkpt><trkpt lat="43.805725" lon="6.439935"><ele>660.0</ele><time>2026-05-02T09:06:02.279Z</time></trkpt><trkpt lat="43.8057067" lon="6.4400283"><ele>659.0</ele><time>2026-05-02T09:06:03.279Z</time></trkpt><trkpt lat="43.805695" lon="6.44014"><ele>658.0</ele><time>2026-05-02T09:06:04.279Z</time></trkpt><trkpt lat="43.8056767" lon="6.4402633"><ele>657.0</ele><time>2026-05-02T09:06:05.28Z</time></trkpt><trkpt lat="43.80566" lon="6.4404167"><ele>656.0</ele><time>2026-05-02T09:06:06.279Z</time></trkpt><trkpt lat="43.8056383" lon="6.440565"><ele>655.0</ele><time>2026-05-02T09:06:07.279Z</time></trkpt><trkpt lat="43.8056217" lon="6.4407283"><ele>653.8</ele><time>2026-05-02T09:06:08.279Z</time></trkpt><trkpt lat="43.8056067" lon="6.4408883"><ele>652.6</ele><time>2026-05-02T09:06:09.279Z</time></trkpt><trkpt lat="43.8056" lon="6.4410383"><ele>651.4000000000001</ele><time>2026-05-02T09:06:10.279Z</time></trkpt><trkpt lat="43.8055917" lon="6.4411833"><ele>650.2</ele><time>2026-05-02T09:06:11.28Z</time></trkpt><trkpt lat="43.8055767" lon="6.4413183"><ele>649.0</ele><time>2026-05-02T09:06:12.279Z</time></trkpt><trkpt lat="43.8055467" lon="6.441435"><ele>650.2</ele><time>2026-05-02T09:06:13.279Z</time></trkpt><trkpt lat="43.8054917" lon="6.4415317"><ele>651.4000000000001</ele><time>2026-05-02T09:06:14.279Z</time></trkpt><trkpt lat="43.805415" lon="6.44161"><ele>652.6</ele><time>2026-05-02T09:06:15.279Z</time></trkpt><trkpt lat="43.8053283" lon="6.4416917"><ele>653.8</ele><time>2026-05-02T09:06:16.279Z</time></trkpt><trkpt lat="43.80523" lon="6.441785"><ele>655.0</ele><time>2026-05-02T09:06:17.279Z</time></trkpt><trkpt lat="43.8051117" lon="6.4418883"><ele>655.0</ele><time>2026-05-02T09:06:18.279Z</time></trkpt><trkpt lat="43.80498" lon="6.4419867"><ele>655.0</ele><time>2026-05-02T09:06:19.279Z</time></trkpt><trkpt lat="43.8048433" lon="6.44207"><ele>655.0</ele><time>2026-05-02T09:06:20.279Z</time></trkpt><trkpt lat="43.804705" lon="6.44212"><ele>655.0</ele><time>2026-05-02T09:06:21.279Z</time></trkpt><trkpt lat="43.8045667" lon="6.44216"><ele>657.5</ele><time>2026-05-02T09:06:22.279Z</time></trkpt><trkpt lat="43.8044367" lon="6.4421983"><ele>660.0</ele><time>2026-05-02T09:06:23.279Z</time></trkpt><trkpt lat="43.80431" lon="6.4422183"><ele>662.5</ele><time>2026-05-02T09:06:24.28Z</time></trkpt><trkpt lat="43.804185" lon="6.4422417"><ele>665.0</ele><time>2026-05-02T09:06:25.279Z</time></trkpt><trkpt lat="43.8040667" lon="6.4422183"><ele>665.0</ele><time>2026-05-02T09:06:26.279Z</time></trkpt><trkpt lat="43.8039633" lon="6.44214"><ele>665.0</ele><time>2026-05-02T09:06:27.279Z</time></trkpt><trkpt lat="43.803895" lon="6.442025"><ele>665.0</ele><time>2026-05-02T09:06:28.279Z</time></trkpt><trkpt lat="43.8038567" lon="6.4418717"><ele>665.0</ele><time>2026-05-02T09:06:29.28Z</time></trkpt><trkpt lat="43.8038433" lon="6.4417017"><ele>661.25</ele><time>2026-05-02T09:06:30.279Z</time></trkpt><trkpt lat="43.8038133" lon="6.441525"><ele>657.5</ele><time>2026-05-02T09:06:31.279Z</time></trkpt><trkpt lat="43.8037783" lon="6.44134"><ele>653.75</ele><time>2026-05-02T09:06:32.279Z</time></trkpt><trkpt lat="43.8037467" lon="6.4411567"><ele>650.0</ele><time>2026-05-02T09:06:33.279Z</time></trkpt><trkpt lat="43.8037133" lon="6.4409633"><ele>650.0</ele><time>2026-05-02T09:06:34.28Z</time></trkpt><trkpt lat="43.8036767" lon="6.4407817"><ele>650.0</ele><time>2026-05-02T09:06:35.279Z</time></trkpt><trkpt lat="43.8036633" lon="6.4406267"><ele>650.0</ele><time>2026-05-02T09:06:36.279Z</time></trkpt><trkpt lat="43.8036633" lon="6.4404667"><ele>650.0</ele><time>2026-05-02T09:06:37.279Z</time></trkpt><trkpt lat="43.8036767" lon="6.4403017"><ele>650.6</ele><time>2026-05-02T09:06:38.279Z</time></trkpt><trkpt lat="43.803685" lon="6.440135"><ele>651.2</ele><time>2026-05-02T09:06:39.279Z</time></trkpt><trkpt lat="43.803685" lon="6.4399767"><ele>651.8</ele><time>2026-05-02T09:06:40.279Z</time></trkpt><trkpt lat="43.8036533" lon="6.43984"><ele>652.4</ele><time>2026-05-02T09:06:41.279Z</time></trkpt><trkpt lat="43.8036033" lon="6.439715"><ele>653.0</ele><time>2026-05-02T09:06:42.279Z</time></trkpt><trkpt lat="43.8035217" lon="6.4395833"><ele>652.75</ele><time>2026-05-02T09:06:43.28Z</time></trkpt><trkpt lat="43.8034183" lon="6.4394783"><ele>652.5</ele><time>2026-05-02T09:06:44.28Z</time></trkpt><trkpt lat="43.8033033" lon="6.4393833"><ele>652.25</ele><time>2026-05-02T09:06:45.279Z</time></trkpt><trkpt lat="43.80321" lon="6.4392833"><ele>652.0</ele><time>2026-05-02T09:06:46.279Z</time></trkpt><trkpt lat="43.8031033" lon="6.4391933"><ele>652.0</ele><time>2026-05-02T09:06:47.279Z</time></trkpt><trkpt lat="43.8029983" lon="6.4391367"><ele>652.0</ele><time>2026-05-02T09:06:48.279Z</time></trkpt><trkpt lat="43.80288" lon="6.4391067"><ele>652.0</ele><time>2026-05-02T09:06:49.28Z</time></trkpt><trkpt lat="43.8027517" lon="6.439095"><ele>652.0</ele><time>2026-05-02T09:06:50.279Z</time></trkpt><trkpt lat="43.8026183" lon="6.439115"><ele>653.0</ele><time>2026-05-02T09:06:51.28Z</time></trkpt><trkpt lat="43.802495" lon="6.4391917"><ele>654.0</ele><time>2026-05-02T09:06:52.279Z</time></trkpt><trkpt lat="43.8023783" lon="6.4392883"><ele>655.0</ele><time>2026-05-02T09:06:53.279Z</time></trkpt><trkpt lat="43.8022683" lon="6.4394"><ele>656.0</ele><time>2026-05-02T09:06:54.279Z</time></trkpt><trkpt lat="43.80216" lon="6.4395117"><ele>656.0</ele><time>2026-05-02T09:06:55.279Z</time></trkpt><trkpt lat="43.8020533" lon="6.439605"><ele>656.0</ele><time>2026-05-02T09:06:56.279Z</time></trkpt><trkpt lat="43.8019217" lon="6.43969"><ele>656.0</ele><time>2026-05-02T09:06:57.279Z</time></trkpt><trkpt lat="43.801775" lon="6.4397517"><ele>656.0</ele><time>2026-05-02T09:06:58.279Z</time></trkpt><trkpt lat="43.8016383" lon="6.4397783"><ele>658.0</ele><time>2026-05-02T09:06:59.279Z</time></trkpt><trkpt lat="43.801495" lon="6.4397867"><ele>660.0</ele><time>2026-05-02T09:07:00.279Z</time></trkpt><trkpt lat="43.8013483" lon="6.439775"><ele>662.0</ele><time>2026-05-02T09:07:01.279Z</time></trkpt><trkpt lat="43.8012033" lon="6.439755"><ele>664.0</ele><time>2026-05-02T09:07:02.279Z</time></trkpt><trkpt lat="43.8010583" lon="6.4397417"><ele>663.25</ele><time>2026-05-02T09:07:03.279Z</time></trkpt><trkpt lat="43.8009217" lon="6.4397433"><ele>662.5</ele><time>2026-05-02T09:07:04.28Z</time></trkpt><trkpt lat="43.8007717" lon="6.4397633"><ele>661.75</ele><time>2026-05-02T09:07:05.279Z</time></trkpt><trkpt lat="43.8006367" lon="6.4398167"><ele>661.0</ele><time>2026-05-02T09:07:06.279Z</time></trkpt><trkpt lat="43.8005133" lon="6.4398917"><ele>661.0</ele><time>2026-05-02T09:07:07.279Z</time></trkpt><trkpt lat="43.8003917" lon="6.4400033"><ele>661.0</ele><time>2026-05-02T09:07:08.28Z</time></trkpt><trkpt lat="43.8002967" lon="6.44013"><ele>661.0</ele><time>2026-05-02T09:07:09.279Z</time></trkpt><trkpt lat="43.8002317" lon="6.44028"><ele>661.0</ele><time>2026-05-02T09:07:10.279Z</time></trkpt><trkpt lat="43.8001883" lon="6.440445"><ele>661.75</ele><time>2026-05-02T09:07:11.279Z</time></trkpt><trkpt lat="43.800165" lon="6.4406217"><ele>662.5</ele><time>2026-05-02T09:07:12.279Z</time></trkpt><trkpt lat="43.8001317" lon="6.44079"><ele>663.25</ele><time>2026-05-02T09:07:13.279Z</time></trkpt><trkpt lat="43.800075" lon="6.440945"><ele>664.0</ele><time>2026-05-02T09:07:14.279Z</time></trkpt><trkpt lat="43.79999" lon="6.4410667"><ele>664.0</ele><time>2026-05-02T09:07:15.279Z</time></trkpt><trkpt lat="43.79987" lon="6.4411267"><ele>664.0</ele><time>2026-05-02T09:07:16.279Z</time></trkpt><trkpt lat="43.7997383" lon="6.4411233"><ele>664.0</ele><time>2026-05-02T09:07:17.279Z</time></trkpt><trkpt lat="43.7996017" lon="6.44111"><ele>664.0</ele><time>2026-05-02T09:07:18.279Z</time></trkpt><trkpt lat="43.799465" lon="6.441135"><ele>664.0</ele><time>2026-05-02T09:07:19.279Z</time></trkpt><trkpt lat="43.79935" lon="6.4412017"><ele>664.0</ele><time>2026-05-02T09:07:20.28Z</time></trkpt><trkpt lat="43.7992133" lon="6.4412867"><ele>664.0</ele><time>2026-05-02T09:07:21.279Z</time></trkpt><trkpt lat="43.79907" lon="6.4413383"><ele>664.0</ele><time>2026-05-02T09:07:22.279Z</time></trkpt><trkpt lat="43.7989367" lon="6.4413717"><ele>665.5</ele><time>2026-05-02T09:07:23.279Z</time></trkpt><trkpt lat="43.798805" lon="6.4414033"><ele>667.0</ele><time>2026-05-02T09:07:24.28Z</time></trkpt><trkpt lat="43.7986817" lon="6.4414333"><ele>668.5</ele><time>2026-05-02T09:07:25.279Z</time></trkpt><trkpt lat="43.7985717" lon="6.44147"><ele>670.0</ele><time>2026-05-02T09:07:26.279Z</time></trkpt><trkpt lat="43.7984517" lon="6.44151"><ele>670.0</ele><time>2026-05-02T09:07:27.279Z</time></trkpt><trkpt lat="43.79833" lon="6.441535"><ele>670.0</ele><time>2026-05-02T09:07:28.28Z</time></trkpt><trkpt lat="43.7982233" lon="6.4415583"><ele>670.0</ele><time>2026-05-02T09:07:29.279Z</time></trkpt><trkpt lat="43.79811" lon="6.441615"><ele>670.0</ele><time>2026-05-02T09:07:30.279Z</time></trkpt><trkpt lat="43.7980067" lon="6.441705"><ele>670.0</ele><time>2026-05-02T09:07:31.279Z</time></trkpt><trkpt lat="43.797925" lon="6.4418217"><ele>670.0</ele><time>2026-05-02T09:07:32.279Z</time></trkpt><trkpt lat="43.7978767" lon="6.4419733"><ele>670.0</ele><time>2026-05-02T09:07:33.279Z</time></trkpt><trkpt lat="43.79787" lon="6.4421283"><ele>670.0</ele><time>2026-05-02T09:07:34.279Z</time></trkpt><trkpt lat="43.7978967" lon="6.4422967"><ele>672.75</ele><time>2026-05-02T09:07:35.279Z</time></trkpt><trkpt lat="43.7979533" lon="6.4424667"><ele>675.5</ele><time>2026-05-02T09:07:36.279Z</time></trkpt><trkpt lat="43.797985" lon="6.4426367"><ele>678.25</ele><time>2026-05-02T09:07:37.28Z</time></trkpt><trkpt lat="43.79798" lon="6.4428083"><ele>681.0</ele><time>2026-05-02T09:07:38.279Z</time></trkpt><trkpt lat="43.79794" lon="6.4429817"><ele>679.25</ele><time>2026-05-02T09:07:39.279Z</time></trkpt><trkpt lat="43.7978583" lon="6.44315"><ele>677.5</ele><time>2026-05-02T09:07:40.28Z</time></trkpt><trkpt lat="43.797755" lon="6.4433017"><ele>675.75</ele><time>2026-05-02T09:07:41.279Z</time></trkpt><trkpt lat="43.797645" lon="6.4434167"><ele>674.0</ele><time>2026-05-02T09:07:42.279Z</time></trkpt><trkpt lat="43.7975217" lon="6.4435083"><ele>674.0</ele><time>2026-05-02T09:07:43.28Z</time></trkpt><trkpt lat="43.7973933" lon="6.4435983"><ele>674.0</ele><time>2026-05-02T09:07:44.279Z</time></trkpt><trkpt lat="43.7972617" lon="6.4436883"><ele>674.0</ele><time>2026-05-02T09:07:45.279Z</time></trkpt><trkpt lat="43.7971333" lon="6.443795"><ele>674.0</ele><time>2026-05-02T09:07:46.279Z</time></trkpt><trkpt lat="43.797015" lon="6.443915"><ele>674.75</ele><time>2026-05-02T09:07:47.279Z</time></trkpt><trkpt lat="43.796905" lon="6.4440533"><ele>675.5</ele><time>2026-05-02T09:07:48.279Z</time></trkpt><trkpt lat="43.7967967" lon="6.444195"><ele>676.25</ele><time>2026-05-02T09:07:49.279Z</time></trkpt><trkpt lat="43.7966967" lon="6.44432"><ele>677.0</ele><time>2026-05-02T09:07:50.28Z</time></trkpt><trkpt lat="43.796605" lon="6.4444467"><ele>677.0</ele><time>2026-05-02T09:07:51.28Z</time></trkpt><trkpt lat="43.7965017" lon="6.4445583"><ele>677.0</ele><time>2026-05-02T09:07:52.279Z</time></trkpt><trkpt lat="43.7963917" lon="6.44465"><ele>677.0</ele><time>2026-05-02T09:07:53.279Z</time></trkpt><trkpt lat="43.7962817" lon="6.4447183"><ele>677.0</ele><time>2026-05-02T09:07:54.279Z</time></trkpt><trkpt lat="43.7961733" lon="6.444735"><ele>678.2</ele><time>2026-05-02T09:07:55.279Z</time></trkpt><trkpt lat="43.7960733" lon="6.4447083"><ele>679.4000000000001</ele><time>2026-05-02T09:07:56.279Z</time></trkpt><trkpt lat="43.79599" lon="6.444635"><ele>680.5999999999999</ele><time>2026-05-02T09:07:57.279Z</time></trkpt><trkpt lat="43.7959267" lon="6.4445233"><ele>681.8</ele><time>2026-05-02T09:07:58.279Z</time></trkpt><trkpt lat="43.7958817" lon="6.4443683"><ele>683.0</ele><time>2026-05-02T09:07:59.28Z</time></trkpt><trkpt lat="43.79585" lon="6.4442117"><ele>683.0</ele><time>2026-05-02T09:08:00.28Z</time></trkpt><trkpt lat="43.7958467" lon="6.444035"><ele>683.0</ele><time>2026-05-02T09:08:01.279Z</time></trkpt><trkpt lat="43.7958567" lon="6.4438433"><ele>683.0</ele><time>2026-05-02T09:08:02.279Z</time></trkpt><trkpt lat="43.79587" lon="6.4436683"><ele>683.0</ele><time>2026-05-02T09:08:03.279Z</time></trkpt><trkpt lat="43.79587" lon="6.4435"><ele>682.4</ele><time>2026-05-02T09:08:04.279Z</time></trkpt><trkpt lat="43.7958317" lon="6.4433583"><ele>681.8</ele><time>2026-05-02T09:08:05.279Z</time></trkpt><trkpt lat="43.795765" lon="6.4432417"><ele>681.2</ele><time>2026-05-02T09:08:06.279Z</time></trkpt><trkpt lat="43.7956683" lon="6.443185"><ele>680.6</ele><time>2026-05-02T09:08:07.279Z</time></trkpt><trkpt lat="43.795545" lon="6.4431633"><ele>680.0</ele><time>2026-05-02T09:08:08.279Z</time></trkpt><trkpt lat="43.7954317" lon="6.4431467"><ele>680.0</ele><time>2026-05-02T09:08:09.279Z</time></trkpt><trkpt lat="43.7953267" lon="6.443115"><ele>680.0</ele><time>2026-05-02T09:08:10.279Z</time></trkpt><trkpt lat="43.7952267" lon="6.4430867"><ele>680.0</ele><time>2026-05-02T09:08:11.279Z</time></trkpt><trkpt lat="43.7951317" lon="6.4430617"><ele>680.0</ele><time>2026-05-02T09:08:12.28Z</time></trkpt><trkpt lat="43.7950283" lon="6.4430417"><ele>680.0</ele><time>2026-05-02T09:08:13.279Z</time></trkpt><trkpt lat="43.7949283" lon="6.4430167"><ele>678.25</ele><time>2026-05-02T09:08:14.279Z</time></trkpt><trkpt lat="43.7948233" lon="6.4429867"><ele>676.5</ele><time>2026-05-02T09:08:15.279Z</time></trkpt><trkpt lat="43.794715" lon="6.44296"><ele>674.75</ele><time>2026-05-02T09:08:16.279Z</time></trkpt><trkpt lat="43.7945917" lon="6.4429083"><ele>673.0</ele><time>2026-05-02T09:08:17.28Z</time></trkpt><trkpt lat="43.7944617" lon="6.4428633"><ele>676.5</ele><time>2026-05-02T09:08:18.279Z</time></trkpt><trkpt lat="43.79433" lon="6.442795"><ele>680.0</ele><time>2026-05-02T09:08:19.279Z</time></trkpt><trkpt lat="43.7942067" lon="6.4427083"><ele>683.5</ele><time>2026-05-02T09:08:20.279Z</time></trkpt><trkpt lat="43.7940883" lon="6.4426067"><ele>687.0</ele><time>2026-05-02T09:08:21.279Z</time></trkpt><trkpt lat="43.7939533" lon="6.442525"><ele>687.0</ele><time>2026-05-02T09:08:22.279Z</time></trkpt><trkpt lat="43.7938233" lon="6.442465"><ele>687.0</ele><time>2026-05-02T09:08:23.279Z</time></trkpt><trkpt lat="43.7936833" lon="6.44244"><ele>687.0</ele><time>2026-05-02T09:08:24.279Z</time></trkpt><trkpt lat="43.7935433" lon="6.44244"><ele>687.0</ele><time>2026-05-02T09:08:25.279Z</time></trkpt><trkpt lat="43.793405" lon="6.4424517"><ele>687.75</ele><time>2026-05-02T09:08:26.28Z</time></trkpt><trkpt lat="43.793275" lon="6.4424917"><ele>688.5</ele><time>2026-05-02T09:08:27.279Z</time></trkpt><trkpt lat="43.793145" lon="6.4425533"><ele>689.25</ele><time>2026-05-02T09:08:28.279Z</time></trkpt><trkpt lat="43.79302" lon="6.4426367"><ele>690.0</ele><time>2026-05-02T09:08:29.279Z</time></trkpt><trkpt lat="43.7929" lon="6.442735"><ele>690.0</ele><time>2026-05-02T09:08:30.279Z</time></trkpt><trkpt lat="43.7927667" lon="6.44281"><ele>690.0</ele><time>2026-05-02T09:08:31.28Z</time></trkpt><trkpt lat="43.792635" lon="6.44285"><ele>690.0</ele><time>2026-05-02T09:08:32.279Z</time></trkpt><trkpt lat="43.792495" lon="6.4428617"><ele>690.0</ele><time>2026-05-02T09:08:33.279Z</time></trkpt><trkpt lat="43.7923533" lon="6.4428367"><ele>690.6666666666666</ele><time>2026-05-02T09:08:34.279Z</time></trkpt><trkpt lat="43.7922117" lon="6.4428083"><ele>691.3333333333333</ele><time>2026-05-02T09:08:35.279Z</time></trkpt><trkpt lat="43.79205" lon="6.442795"><ele>692.0</ele><time>2026-05-02T09:08:36.279Z</time></trkpt><trkpt lat="43.7918967" lon="6.442775"><ele>694.0</ele><time>2026-05-02T09:08:37.279Z</time></trkpt><trkpt lat="43.7917567" lon="6.4427617"><ele>696.0</ele><time>2026-05-02T09:08:38.279Z</time></trkpt><trkpt lat="43.791615" lon="6.4427483"><ele>698.0</ele><time>2026-05-02T09:08:39.279Z</time></trkpt><trkpt lat="43.7914767" lon="6.4427383"><ele>700.0</ele><time>2026-05-02T09:08:40.28Z</time></trkpt><trkpt lat="43.79135" lon="6.4427183"><ele>700.0</ele><time>2026-05-02T09:08:41.279Z</time></trkpt><trkpt lat="43.791235" lon="6.4427183"><ele>700.0</ele><time>2026-05-02T09:08:42.28Z</time></trkpt><trkpt lat="43.7911167" lon="6.44275"><ele>700.0</ele><time>2026-05-02T09:08:43.279Z</time></trkpt><trkpt lat="43.7910067" lon="6.44284"><ele>700.0</ele><time>2026-05-02T09:08:44.279Z</time></trkpt><trkpt lat="43.79091" lon="6.4429633"><ele>701.0</ele><time>2026-05-02T09:08:45.279Z</time></trkpt><trkpt lat="43.7908117" lon="6.4431017"><ele>702.0</ele><time>2026-05-02T09:08:46.279Z</time></trkpt><trkpt lat="43.7907133" lon="6.4432483"><ele>703.0</ele><time>2026-05-02T09:08:47.279Z</time></trkpt><trkpt lat="43.7906167" lon="6.4433883"><ele>704.0</ele><time>2026-05-02T09:08:48.279Z</time></trkpt><trkpt lat="43.7905267" lon="6.4435283"><ele>704.0</ele><time>2026-05-02T09:08:49.279Z</time></trkpt><trkpt lat="43.790425" lon="6.4436683"><ele>704.0</ele><time>2026-05-02T09:08:50.279Z</time></trkpt><trkpt lat="43.79033" lon="6.443785"><ele>704.0</ele><time>2026-05-02T09:08:51.279Z</time></trkpt><trkpt lat="43.790235" lon="6.4439"><ele>704.0</ele><time>2026-05-02T09:08:52.28Z</time></trkpt><trkpt lat="43.7901317" lon="6.443985"><ele>706.0</ele><time>2026-05-02T09:08:53.28Z</time></trkpt><trkpt lat="43.7900233" lon="6.4440517"><ele>708.0</ele><time>2026-05-02T09:08:54.279Z</time></trkpt><trkpt lat="43.789905" lon="6.4440867"><ele>710.0</ele><time>2026-05-02T09:08:55.279Z</time></trkpt><trkpt lat="43.7897933" lon="6.4440933"><ele>712.0</ele><time>2026-05-02T09:08:56.279Z</time></trkpt><trkpt lat="43.7896783" lon="6.4440917"><ele>712.0</ele><time>2026-05-02T09:08:57.279Z</time></trkpt><trkpt lat="43.7895517" lon="6.4440767"><ele>712.0</ele><time>2026-05-02T09:08:58.279Z</time></trkpt><trkpt lat="43.789415" lon="6.444065"><ele>712.0</ele><time>2026-05-02T09:08:59.279Z</time></trkpt><trkpt lat="43.78927" lon="6.4440583"><ele>712.0</ele><time>2026-05-02T09:09:00.279Z</time></trkpt><trkpt lat="43.78914" lon="6.444035"><ele>712.75</ele><time>2026-05-02T09:09:01.279Z</time></trkpt><trkpt lat="43.7890183" lon="6.4439867"><ele>713.5</ele><time>2026-05-02T09:09:02.279Z</time></trkpt><trkpt lat="43.7889033" lon="6.443915"><ele>714.25</ele><time>2026-05-02T09:09:03.279Z</time></trkpt><trkpt lat="43.788795" lon="6.4437967"><ele>715.0</ele><time>2026-05-02T09:09:04.279Z</time></trkpt><trkpt lat="43.7887017" lon="6.4436417"><ele>714.25</ele><time>2026-05-02T09:09:05.279Z</time></trkpt><trkpt lat="43.788615" lon="6.44351"><ele>713.5</ele><time>2026-05-02T09:09:06.279Z</time></trkpt><trkpt lat="43.7885083" lon="6.4434117"><ele>712.75</ele><time>2026-05-02T09:09:07.279Z</time></trkpt><trkpt lat="43.7883917" lon="6.4433417"><ele>712.0</ele><time>2026-05-02T09:09:08.279Z</time></trkpt><trkpt lat="43.7882683" lon="6.4433033"><ele>712.0</ele><time>2026-05-02T09:09:09.28Z</time></trkpt><trkpt lat="43.78813" lon="6.4432983"><ele>712.0</ele><time>2026-05-02T09:09:10.279Z</time></trkpt><trkpt lat="43.787985" lon="6.4433133"><ele>712.0</ele><time>2026-05-02T09:09:11.279Z</time></trkpt><trkpt lat="43.7878317" lon="6.4433333"><ele>712.0</ele><time>2026-05-02T09:09:12.279Z</time></trkpt><trkpt lat="43.7876783" lon="6.4433533"><ele>713.5</ele><time>2026-05-02T09:09:13.279Z</time></trkpt><trkpt lat="43.7875383" lon="6.4433717"><ele>715.0</ele><time>2026-05-02T09:09:14.279Z</time></trkpt><trkpt lat="43.7874017" lon="6.4433817"><ele>716.5</ele><time>2026-05-02T09:09:15.279Z</time></trkpt><trkpt lat="43.787265" lon="6.4433967"><ele>718.0</ele><time>2026-05-02T09:09:16.279Z</time></trkpt><trkpt lat="43.7871217" lon="6.44341"><ele>718.0</ele><time>2026-05-02T09:09:17.28Z</time></trkpt><trkpt lat="43.78698" lon="6.443435"><ele>718.0</ele><time>2026-05-02T09:09:18.279Z</time></trkpt><trkpt lat="43.78684" lon="6.4434483"><ele>718.0</ele><time>2026-05-02T09:09:19.279Z</time></trkpt><trkpt lat="43.786695" lon="6.443465"><ele>718.0</ele><time>2026-05-02T09:09:20.279Z</time></trkpt><trkpt lat="43.7865567" lon="6.4434833"><ele>717.75</ele><time>2026-05-02T09:09:21.28Z</time></trkpt><trkpt lat="43.7864217" lon="6.4434967"><ele>717.5</ele><time>2026-05-02T09:09:22.279Z</time></trkpt><trkpt lat="43.7862983" lon="6.4435083"><ele>717.25</ele><time>2026-05-02T09:09:23.279Z</time></trkpt><trkpt lat="43.7861867" lon="6.44352"><ele>717.0</ele><time>2026-05-02T09:09:24.279Z</time></trkpt><trkpt lat="43.786075" lon="6.443535"><ele>717.0</ele><time>2026-05-02T09:09:25.279Z</time></trkpt><trkpt lat="43.7859683" lon="6.44356"><ele>717.0</ele><time>2026-05-02T09:09:26.279Z</time></trkpt><trkpt lat="43.78586" lon="6.443625"><ele>717.0</ele><time>2026-05-02T09:09:27.279Z</time></trkpt><trkpt lat="43.7857683" lon="6.44372"><ele>717.0</ele><time>2026-05-02T09:09:28.279Z</time></trkpt><trkpt lat="43.7856983" lon="6.4438467"><ele>719.0</ele><time>2026-05-02T09:09:29.279Z</time></trkpt><trkpt lat="43.7856567" lon="6.4440117"><ele>721.0</ele><time>2026-05-02T09:09:30.28Z</time></trkpt><trkpt lat="43.7856417" lon="6.444195"><ele>723.0</ele><time>2026-05-02T09:09:31.279Z</time></trkpt><trkpt lat="43.78564" lon="6.4443917"><ele>725.0</ele><time>2026-05-02T09:09:32.279Z</time></trkpt><trkpt lat="43.7856417" lon="6.44457"><ele>725.25</ele><time>2026-05-02T09:09:33.279Z</time></trkpt><trkpt lat="43.78562" lon="6.44474"><ele>725.5</ele><time>2026-05-02T09:09:34.279Z</time></trkpt><trkpt lat="43.785605" lon="6.444895"><ele>725.75</ele><time>2026-05-02T09:09:35.279Z</time></trkpt><trkpt lat="43.7855833" lon="6.4450483"><ele>726.0</ele><time>2026-05-02T09:09:36.279Z</time></trkpt><trkpt lat="43.785565" lon="6.4451967"><ele>726.0</ele><time>2026-05-02T09:09:37.279Z</time></trkpt><trkpt lat="43.7855417" lon="6.4453267"><ele>726.0</ele><time>2026-05-02T09:09:38.279Z</time></trkpt><trkpt lat="43.7855017" lon="6.445465"><ele>726.0</ele><time>2026-05-02T09:09:39.28Z</time></trkpt><trkpt lat="43.7854317" lon="6.44559"><ele>726.0</ele><time>2026-05-02T09:09:40.279Z</time></trkpt><trkpt lat="43.7853367" lon="6.4457"><ele>726.0</ele><time>2026-05-02T09:09:41.28Z</time></trkpt><trkpt lat="43.7852133" lon="6.4457817"><ele>725.75</ele><time>2026-05-02T09:09:42.279Z</time></trkpt><trkpt lat="43.7850817" lon="6.445825"><ele>725.5</ele><time>2026-05-02T09:09:43.279Z</time></trkpt><trkpt lat="43.7849517" lon="6.44584"><ele>725.25</ele><time>2026-05-02T09:09:44.279Z</time></trkpt><trkpt lat="43.7848167" lon="6.4458517"><ele>725.0</ele><time>2026-05-02T09:09:45.279Z</time></trkpt><trkpt lat="43.7846833" lon="6.4458567"><ele>725.0</ele><time>2026-05-02T09:09:46.279Z</time></trkpt><trkpt lat="43.784555" lon="6.445845"><ele>725.0</ele><time>2026-05-02T09:09:47.279Z</time></trkpt><trkpt lat="43.7844267" lon="6.4458283"><ele>725.0</ele><time>2026-05-02T09:09:48.279Z</time></trkpt><trkpt lat="43.7842917" lon="6.4458217"><ele>725.0</ele><time>2026-05-02T09:09:49.279Z</time></trkpt><trkpt lat="43.7841617" lon="6.4458033"><ele>725.0</ele><time>2026-05-02T09:09:50.279Z</time></trkpt><trkpt lat="43.7840283" lon="6.4457767"><ele>725.0</ele><time>2026-05-02T09:09:51.279Z</time></trkpt><trkpt lat="43.783895" lon="6.4457467"><ele>725.0</ele><time>2026-05-02T09:09:52.279Z</time></trkpt><trkpt lat="43.7837583" lon="6.4457117"><ele>725.0</ele><time>2026-05-02T09:09:53.28Z</time></trkpt><trkpt lat="43.783625" lon="6.44568"><ele>725.75</ele><time>2026-05-02T09:09:54.279Z</time></trkpt><trkpt lat="43.7834867" lon="6.4456367"><ele>726.5</ele><time>2026-05-02T09:09:55.279Z</time></trkpt><trkpt lat="43.7833483" lon="6.4455867"><ele>727.25</ele><time>2026-05-02T09:09:56.279Z</time></trkpt><trkpt lat="43.78322" lon="6.44554"><ele>728.0</ele><time>2026-05-02T09:09:57.279Z</time></trkpt><trkpt lat="43.7830883" lon="6.4455133"><ele>728.0</ele><time>2026-05-02T09:09:58.28Z</time></trkpt><trkpt lat="43.7829383" lon="6.445505"><ele>728.0</ele><time>2026-05-02T09:09:59.279Z</time></trkpt><trkpt lat="43.7827867" lon="6.4455"><ele>728.0</ele><time>2026-05-02T09:10:00.28Z</time></trkpt><trkpt lat="43.78264" lon="6.4454967"><ele>728.0</ele><time>2026-05-02T09:10:01.28Z</time></trkpt><trkpt lat="43.7824983" lon="6.4454683"><ele>725.25</ele><time>2026-05-02T09:10:02.279Z</time></trkpt><trkpt lat="43.78236" lon="6.4454183"><ele>722.5</ele><time>2026-05-02T09:10:03.279Z</time></trkpt><trkpt lat="43.782225" lon="6.4453617"><ele>719.75</ele><time>2026-05-02T09:10:04.279Z</time></trkpt><trkpt lat="43.7820833" lon="6.4452983"><ele>717.0</ele><time>2026-05-02T09:10:05.279Z</time></trkpt><trkpt lat="43.781945" lon="6.445235"><ele>719.25</ele><time>2026-05-02T09:10:06.279Z</time></trkpt><trkpt lat="43.7818067" lon="6.4451667"><ele>721.5</ele><time>2026-05-02T09:10:07.279Z</time></trkpt><trkpt lat="43.78167" lon="6.4450983"><ele>723.75</ele><time>2026-05-02T09:10:08.279Z</time></trkpt><trkpt lat="43.78153" lon="6.445025"><ele>726.0</ele><time>2026-05-02T09:10:09.279Z</time></trkpt><trkpt lat="43.7813933" lon="6.444935"><ele>726.0</ele><time>2026-05-02T09:10:10.279Z</time></trkpt><trkpt lat="43.7812667" lon="6.4448333"><ele>726.0</ele><time>2026-05-02T09:10:11.279Z</time></trkpt><trkpt lat="43.7811483" lon="6.44472"><ele>726.0</ele><time>2026-05-02T09:10:12.279Z</time></trkpt><trkpt lat="43.7810267" lon="6.4446183"><ele>726.0</ele><time>2026-05-02T09:10:13.279Z</time></trkpt><trkpt lat="43.78091" lon="6.4445233"><ele>725.5</ele><time>2026-05-02T09:10:14.279Z</time></trkpt><trkpt lat="43.7807917" lon="6.4444433"><ele>725.0</ele><time>2026-05-02T09:10:15.279Z</time></trkpt><trkpt lat="43.7806683" lon="6.4444167"><ele>724.5</ele><time>2026-05-02T09:10:16.279Z</time></trkpt><trkpt lat="43.7805467" lon="6.4444317"><ele>724.0</ele><time>2026-05-02T09:10:17.28Z</time></trkpt><trkpt lat="43.7804267" lon="6.44449"><ele>724.0</ele><time>2026-05-02T09:10:18.279Z</time></trkpt><trkpt lat="43.7803067" lon="6.4445967"><ele>724.0</ele><time>2026-05-02T09:10:19.279Z</time></trkpt><trkpt lat="43.7802033" lon="6.4447217"><ele>724.0</ele><time>2026-05-02T09:10:20.279Z</time></trkpt><trkpt lat="43.780105" lon="6.4448667"><ele>724.0</ele><time>2026-05-02T09:10:21.279Z</time></trkpt><trkpt lat="43.7800117" lon="6.4450117"><ele>723.25</ele><time>2026-05-02T09:10:22.279Z</time></trkpt><trkpt lat="43.7799117" lon="6.4451233"><ele>722.5</ele><time>2026-05-02T09:10:23.279Z</time></trkpt><trkpt lat="43.7798067" lon="6.44521"><ele>721.75</ele><time>2026-05-02T09:10:24.279Z</time></trkpt><trkpt lat="43.7796967" lon="6.4452667"><ele>721.0</ele><time>2026-05-02T09:10:25.279Z</time></trkpt><trkpt lat="43.7795767" lon="6.44531"><ele>721.0</ele><time>2026-05-02T09:10:26.279Z</time></trkpt><trkpt lat="43.7794617" lon="6.44529"><ele>721.0</ele><time>2026-05-02T09:10:27.279Z</time></trkpt><trkpt lat="43.7793633" lon="6.4452067"><ele>721.0</ele><time>2026-05-02T09:10:28.279Z</time></trkpt><trkpt lat="43.7793133" lon="6.4450717"><ele>721.0</ele><time>2026-05-02T09:10:29.279Z</time></trkpt><trkpt lat="43.7793033" lon="6.44492"><ele>720.8</ele><time>2026-05-02T09:10:30.279Z</time></trkpt><trkpt lat="43.7793083" lon="6.4447483"><ele>720.5999999999999</ele><time>2026-05-02T09:10:31.279Z</time></trkpt><trkpt lat="43.7792833" lon="6.444605"><ele>720.4</ele><time>2026-05-02T09:10:32.279Z</time></trkpt><trkpt lat="43.7792267" lon="6.4444883"><ele>720.2</ele><time>2026-05-02T09:10:33.28Z</time></trkpt><trkpt lat="43.7791433" lon="6.4444333"><ele>720.0</ele><time>2026-05-02T09:10:34.279Z</time></trkpt><trkpt lat="43.7790433" lon="6.4444283"><ele>720.0</ele><time>2026-05-02T09:10:35.279Z</time></trkpt><trkpt lat="43.778925" lon="6.4444767"><ele>720.0</ele><time>2026-05-02T09:10:36.279Z</time></trkpt><trkpt lat="43.7788033" lon="6.4445417"><ele>720.0</ele><time>2026-05-02T09:10:37.279Z</time></trkpt><trkpt lat="43.778665" lon="6.4445967"><ele>720.0</ele><time>2026-05-02T09:10:38.279Z</time></trkpt><trkpt lat="43.77852" lon="6.4446367"><ele>720.5</ele><time>2026-05-02T09:10:39.279Z</time></trkpt><trkpt lat="43.7783817" lon="6.444665"><ele>721.0</ele><time>2026-05-02T09:10:40.279Z</time></trkpt><trkpt lat="43.7782417" lon="6.4447083"><ele>721.5</ele><time>2026-05-02T09:10:41.279Z</time></trkpt><trkpt lat="43.7781033" lon="6.4447533"><ele>722.0</ele><time>2026-05-02T09:10:42.279Z</time></trkpt><trkpt lat="43.777965" lon="6.444815"><ele>722.0</ele><time>2026-05-02T09:10:43.279Z</time></trkpt><trkpt lat="43.7778367" lon="6.444875"><ele>722.0</ele><time>2026-05-02T09:10:44.279Z</time></trkpt><trkpt lat="43.7777133" lon="6.4449517"><ele>722.0</ele><time>2026-05-02T09:10:45.279Z</time></trkpt><trkpt lat="43.7776033" lon="6.4450317"><ele>722.0</ele><time>2026-05-02T09:10:46.279Z</time></trkpt><trkpt lat="43.7774917" lon="6.44512"><ele>723.75</ele><time>2026-05-02T09:10:47.28Z</time></trkpt><trkpt lat="43.7773767" lon="6.4452217"><ele>725.5</ele><time>2026-05-02T09:10:48.279Z</time></trkpt><trkpt lat="43.7772567" lon="6.4453383"><ele>727.25</ele><time>2026-05-02T09:10:49.279Z</time></trkpt><trkpt lat="43.7771333" lon="6.445455"><ele>729.0</ele><time>2026-05-02T09:10:50.279Z</time></trkpt><trkpt lat="43.7770117" lon="6.4455733"><ele>729.0</ele><time>2026-05-02T09:10:51.279Z</time></trkpt><trkpt lat="43.7769" lon="6.44569"><ele>729.0</ele><time>2026-05-02T09:10:52.279Z</time></trkpt><trkpt lat="43.776785" lon="6.4458033"><ele>729.0</ele><time>2026-05-02T09:10:53.279Z</time></trkpt><trkpt lat="43.7766633" lon="6.4459217"><ele>729.0</ele><time>2026-05-02T09:10:54.279Z</time></trkpt><trkpt lat="43.7765533" lon="6.4460433"><ele>726.5</ele><time>2026-05-02T09:10:55.279Z</time></trkpt><trkpt lat="43.776445" lon="6.4461483"><ele>724.0</ele><time>2026-05-02T09:10:56.279Z</time></trkpt><trkpt lat="43.7763483" lon="6.4462817"><ele>721.5</ele><time>2026-05-02T09:10:57.279Z</time></trkpt><trkpt lat="43.7762733" lon="6.44641"><ele>719.0</ele><time>2026-05-02T09:10:58.279Z</time></trkpt><trkpt lat="43.776225" lon="6.4465733"><ele>719.0</ele><time>2026-05-02T09:10:59.279Z</time></trkpt><trkpt lat="43.7762117" lon="6.4467333"><ele>719.0</ele><time>2026-05-02T09:11:00.279Z</time></trkpt><trkpt lat="43.7762233" lon="6.44691"><ele>719.0</ele><time>2026-05-02T09:11:01.28Z</time></trkpt><trkpt lat="43.776245" lon="6.4471"><ele>719.0</ele><time>2026-05-02T09:11:02.279Z</time></trkpt><trkpt lat="43.7762717" lon="6.4472983"><ele>717.5</ele><time>2026-05-02T09:11:03.279Z</time></trkpt><trkpt lat="43.7763017" lon="6.4474883"><ele>716.0</ele><time>2026-05-02T09:11:04.28Z</time></trkpt><trkpt lat="43.7763317" lon="6.44767"><ele>714.5</ele><time>2026-05-02T09:11:05.28Z</time></trkpt><trkpt lat="43.77637" lon="6.447845"><ele>713.0</ele><time>2026-05-02T09:11:06.279Z</time></trkpt><trkpt lat="43.776415" lon="6.4480067"><ele>710.4</ele><time>2026-05-02T09:11:07.279Z</time></trkpt><trkpt lat="43.7764733" lon="6.4481483"><ele>707.8</ele><time>2026-05-02T09:11:08.279Z</time></trkpt><trkpt lat="43.7765317" lon="6.44827"><ele>705.2</ele><time>2026-05-02T09:11:09.279Z</time></trkpt><trkpt lat="43.7765633" lon="6.44839"><ele>702.6</ele><time>2026-05-02T09:11:10.279Z</time></trkpt><trkpt lat="43.7765383" lon="6.4484983"><ele>700.0</ele><time>2026-05-02T09:11:11.279Z</time></trkpt><trkpt lat="43.77649" lon="6.4485833"><ele>700.0</ele><time>2026-05-02T09:11:12.279Z</time></trkpt><trkpt lat="43.7764217" lon="6.4486433"><ele>700.0</ele><time>2026-05-02T09:11:13.279Z</time></trkpt><trkpt lat="43.7763317" lon="6.4486583"><ele>700.0</ele><time>2026-05-02T09:11:14.279Z</time></trkpt><trkpt lat="43.7762217" lon="6.4486417"><ele>700.0</ele><time>2026-05-02T09:11:15.279Z</time></trkpt><trkpt lat="43.776105" lon="6.4485933"><ele>700.0</ele><time>2026-05-02T09:11:16.28Z</time></trkpt><trkpt lat="43.77598" lon="6.4485267"><ele>699.75</ele><time>2026-05-02T09:11:17.279Z</time></trkpt><trkpt lat="43.7758517" lon="6.4484417"><ele>699.5</ele><time>2026-05-02T09:11:18.279Z</time></trkpt><trkpt lat="43.7757367" lon="6.448345"><ele>699.25</ele><time>2026-05-02T09:11:19.279Z</time></trkpt><trkpt lat="43.7756217" lon="6.448255"><ele>699.0</ele><time>2026-05-02T09:11:20.279Z</time></trkpt><trkpt lat="43.775515" lon="6.448145"><ele>699.0</ele><time>2026-05-02T09:11:21.28Z</time></trkpt><trkpt lat="43.7754067" lon="6.4480467"><ele>699.0</ele><time>2026-05-02T09:11:22.279Z</time></trkpt><trkpt lat="43.7752833" lon="6.447985"><ele>699.0</ele><time>2026-05-02T09:11:23.279Z</time></trkpt><trkpt lat="43.7751467" lon="6.4479283"><ele>699.0</ele><time>2026-05-02T09:11:24.279Z</time></trkpt><trkpt lat="43.7750183" lon="6.4478717"><ele>695.75</ele><time>2026-05-02T09:11:25.279Z</time></trkpt><trkpt lat="43.7748883" lon="6.4477917"><ele>692.5</ele><time>2026-05-02T09:11:26.279Z</time></trkpt><trkpt lat="43.7747567" lon="6.44772"><ele>689.25</ele><time>2026-05-02T09:11:27.28Z</time></trkpt><trkpt lat="43.774625" lon="6.447655"><ele>686.0</ele><time>2026-05-02T09:11:28.279Z</time></trkpt><trkpt lat="43.77449" lon="6.44759"><ele>686.0</ele><time>2026-05-02T09:11:29.28Z</time></trkpt><trkpt lat="43.7743617" lon="6.4475367"><ele>686.0</ele><time>2026-05-02T09:11:30.279Z</time></trkpt><trkpt lat="43.7742433" lon="6.4474867"><ele>686.0</ele><time>2026-05-02T09:11:31.279Z</time></trkpt><trkpt lat="43.77413" lon="6.4474383"><ele>686.0</ele><time>2026-05-02T09:11:32.279Z</time></trkpt><trkpt lat="43.7740283" lon="6.4474017"><ele>686.5999999999999</ele><time>2026-05-02T09:11:33.279Z</time></trkpt><trkpt lat="43.773925" lon="6.4473717"><ele>687.2</ele><time>2026-05-02T09:11:34.279Z</time></trkpt><trkpt lat="43.77382" lon="6.4473617"><ele>687.8</ele><time>2026-05-02T09:11:35.279Z</time></trkpt><trkpt lat="43.7737133" lon="6.447365"><ele>688.4000000000001</ele><time>2026-05-02T09:11:36.279Z</time></trkpt><trkpt lat="43.7736133" lon="6.4474167"><ele>689.0</ele><time>2026-05-02T09:11:37.279Z</time></trkpt><trkpt lat="43.773535" lon="6.4475283"><ele>687.75</ele><time>2026-05-02T09:11:38.279Z</time></trkpt><trkpt lat="43.77347" lon="6.4476717"><ele>686.5</ele><time>2026-05-02T09:11:39.279Z</time></trkpt><trkpt lat="43.773415" lon="6.4478367"><ele>685.25</ele><time>2026-05-02T09:11:40.279Z</time></trkpt><trkpt lat="43.773345" lon="6.447975"><ele>684.0</ele><time>2026-05-02T09:11:41.279Z</time></trkpt><trkpt lat="43.77326" lon="6.4481017"><ele>687.75</ele><time>2026-05-02T09:11:42.279Z</time></trkpt><trkpt lat="43.7731683" lon="6.4481983"><ele>691.5</ele><time>2026-05-02T09:11:43.279Z</time></trkpt><trkpt lat="43.77306" lon="6.448275"><ele>695.25</ele><time>2026-05-02T09:11:44.279Z</time></trkpt><trkpt lat="43.7729467" lon="6.44834"><ele>699.0</ele><time>2026-05-02T09:11:45.279Z</time></trkpt><trkpt lat="43.7728433" lon="6.4484117"><ele>699.0</ele><time>2026-05-02T09:11:46.279Z</time></trkpt><trkpt lat="43.77275" lon="6.4485083"><ele>699.0</ele><time>2026-05-02T09:11:47.279Z</time></trkpt><trkpt lat="43.77267" lon="6.44863"><ele>699.0</ele><time>2026-05-02T09:11:48.279Z</time></trkpt><trkpt lat="43.7726083" lon="6.44877"><ele>699.0</ele><time>2026-05-02T09:11:49.28Z</time></trkpt><trkpt lat="43.7725667" lon="6.4489267"><ele>700.0</ele><time>2026-05-02T09:11:50.279Z</time></trkpt><trkpt lat="43.7725383" lon="6.4490883"><ele>701.0</ele><time>2026-05-02T09:11:51.279Z</time></trkpt><trkpt lat="43.772505" lon="6.4492383"><ele>702.0</ele><time>2026-05-02T09:11:52.279Z</time></trkpt><trkpt lat="43.7724583" lon="6.4493733"><ele>703.0</ele><time>2026-05-02T09:11:53.28Z</time></trkpt><trkpt lat="43.772395" lon="6.4494767"><ele>704.0</ele><time>2026-05-02T09:11:54.279Z</time></trkpt><trkpt lat="43.7723167" lon="6.44953"><ele>704.0</ele><time>2026-05-02T09:11:55.279Z</time></trkpt><trkpt lat="43.7722367" lon="6.4495517"><ele>704.0</ele><time>2026-05-02T09:11:56.279Z</time></trkpt><trkpt lat="43.77215" lon="6.4494467"><ele>704.0</ele><time>2026-05-02T09:11:58.279Z</time></trkpt><trkpt lat="43.7721317" lon="6.4493067"><ele>704.0</ele><time>2026-05-02T09:11:59.279Z</time></trkpt><trkpt lat="43.7720833" lon="6.4491467"><ele>704.0</ele><time>2026-05-02T09:12:00.279Z</time></trkpt><trkpt lat="43.7719967" lon="6.449005"><ele>704.0</ele><time>2026-05-02T09:12:01.279Z</time></trkpt><trkpt lat="43.7718833" lon="6.448915"><ele>704.0</ele><time>2026-05-02T09:12:02.279Z</time></trkpt><trkpt lat="43.7717683" lon="6.4488733"><ele>704.0</ele><time>2026-05-02T09:12:03.279Z</time></trkpt><trkpt lat="43.7716383" lon="6.448865"><ele>704.0</ele><time>2026-05-02T09:12:04.279Z</time></trkpt><trkpt lat="43.7715117" lon="6.4488633"><ele>706.0</ele><time>2026-05-02T09:12:05.28Z</time></trkpt><trkpt lat="43.77138" lon="6.4488767"><ele>708.0</ele><time>2026-05-02T09:12:06.279Z</time></trkpt><trkpt lat="43.7712583" lon="6.4488767"><ele>710.0</ele><time>2026-05-02T09:12:07.279Z</time></trkpt><trkpt lat="43.771135" lon="6.4488767"><ele>712.0</ele><time>2026-05-02T09:12:08.279Z</time></trkpt><trkpt lat="43.7710067" lon="6.4488883"><ele>713.75</ele><time>2026-05-02T09:12:09.28Z</time></trkpt><trkpt lat="43.77088" lon="6.448885"><ele>715.5</ele><time>2026-05-02T09:12:10.279Z</time></trkpt><trkpt lat="43.7707533" lon="6.4488667"><ele>717.25</ele><time>2026-05-02T09:12:11.279Z</time></trkpt><trkpt lat="43.7706283" lon="6.44884"><ele>719.0</ele><time>2026-05-02T09:12:12.28Z</time></trkpt><trkpt lat="43.7704983" lon="6.4488067"><ele>715.75</ele><time>2026-05-02T09:12:13.28Z</time></trkpt><trkpt lat="43.7703733" lon="6.4487467"><ele>712.5</ele><time>2026-05-02T09:12:14.279Z</time></trkpt><trkpt lat="43.7702367" lon="6.4486683"><ele>709.25</ele><time>2026-05-02T09:12:15.279Z</time></trkpt><trkpt lat="43.77012" lon="6.44858"><ele>706.0</ele><time>2026-05-02T09:12:16.279Z</time></trkpt><trkpt lat="43.7699983" lon="6.4484817"><ele>706.0</ele><time>2026-05-02T09:12:17.28Z</time></trkpt><trkpt lat="43.7698783" lon="6.448375"><ele>706.0</ele><time>2026-05-02T09:12:18.279Z</time></trkpt><trkpt lat="43.76975" lon="6.4482733"><ele>706.0</ele><time>2026-05-02T09:12:19.279Z</time></trkpt><trkpt lat="43.7696233" lon="6.4481867"><ele>706.0</ele><time>2026-05-02T09:12:20.279Z</time></trkpt><trkpt lat="43.769495" lon="6.4481067"><ele>706.0</ele><time>2026-05-02T09:12:21.279Z</time></trkpt><trkpt lat="43.7693617" lon="6.4480433"><ele>706.0</ele><time>2026-05-02T09:12:22.28Z</time></trkpt><trkpt lat="43.7692233" lon="6.44799"><ele>706.0</ele><time>2026-05-02T09:12:23.279Z</time></trkpt><trkpt lat="43.769095" lon="6.4479367"><ele>706.0</ele><time>2026-05-02T09:12:24.279Z</time></trkpt><trkpt lat="43.768965" lon="6.4478933"><ele>706.0</ele><time>2026-05-02T09:12:25.279Z</time></trkpt><trkpt lat="43.76885" lon="6.4478467"><ele>706.0</ele><time>2026-05-02T09:12:26.279Z</time></trkpt><trkpt lat="43.768715" lon="6.4478167"><ele>706.0</ele><time>2026-05-02T09:12:27.279Z</time></trkpt><trkpt lat="43.7685917" lon="6.4478067"><ele>706.0</ele><time>2026-05-02T09:12:28.279Z</time></trkpt><trkpt lat="43.7684667" lon="6.4478083"><ele>706.0</ele><time>2026-05-02T09:12:29.279Z</time></trkpt><trkpt lat="43.768335" lon="6.4478033"><ele>706.0</ele><time>2026-05-02T09:12:30.279Z</time></trkpt><trkpt lat="43.7682083" lon="6.4477933"><ele>706.0</ele><time>2026-05-02T09:12:31.279Z</time></trkpt><trkpt lat="43.76808" lon="6.4477917"><ele>706.0</ele><time>2026-05-02T09:12:32.279Z</time></trkpt><trkpt lat="43.76795" lon="6.4477917"><ele>706.0</ele><time>2026-05-02T09:12:33.279Z</time></trkpt><trkpt lat="43.7678167" lon="6.44779"><ele>706.0</ele><time>2026-05-02T09:12:34.279Z</time></trkpt><trkpt lat="43.7676783" lon="6.44781"><ele>706.0</ele><time>2026-05-02T09:12:35.279Z</time></trkpt><trkpt lat="43.7675367" lon="6.4478567"><ele>706.0</ele><time>2026-05-02T09:12:36.279Z</time></trkpt><trkpt lat="43.7674017" lon="6.447915"><ele>710.25</ele><time>2026-05-02T09:12:37.279Z</time></trkpt><trkpt lat="43.7672833" lon="6.4479967"><ele>714.5</ele><time>2026-05-02T09:12:38.28Z</time></trkpt><trkpt lat="43.7671633" lon="6.4480883"><ele>718.75</ele><time>2026-05-02T09:12:39.279Z</time></trkpt><trkpt lat="43.7670383" lon="6.4481867"><ele>723.0</ele><time>2026-05-02T09:12:40.279Z</time></trkpt><trkpt lat="43.7669117" lon="6.44829"><ele>719.0</ele><time>2026-05-02T09:12:41.28Z</time></trkpt><trkpt lat="43.76678" lon="6.4483833"><ele>715.0</ele><time>2026-05-02T09:12:42.279Z</time></trkpt><trkpt lat="43.7666417" lon="6.44847"><ele>711.0</ele><time>2026-05-02T09:12:43.279Z</time></trkpt><trkpt lat="43.766505" lon="6.4485583"><ele>711.0</ele><time>2026-05-02T09:12:44.279Z</time></trkpt><trkpt lat="43.766375" lon="6.4486417"><ele>711.0</ele><time>2026-05-02T09:12:45.279Z</time></trkpt><trkpt lat="43.76624" lon="6.44873"><ele>711.0</ele><time>2026-05-02T09:12:46.279Z</time></trkpt><trkpt lat="43.7661067" lon="6.4488133"><ele>711.0</ele><time>2026-05-02T09:12:47.28Z</time></trkpt><trkpt lat="43.76597" lon="6.4489067"><ele>712.75</ele><time>2026-05-02T09:12:48.279Z</time></trkpt><trkpt lat="43.7658417" lon="6.4490017"><ele>714.5</ele><time>2026-05-02T09:12:49.28Z</time></trkpt><trkpt lat="43.765705" lon="6.4490967"><ele>716.25</ele><time>2026-05-02T09:12:50.279Z</time></trkpt><trkpt lat="43.765575" lon="6.449185"><ele>718.0</ele><time>2026-05-02T09:12:51.279Z</time></trkpt><trkpt lat="43.7654417" lon="6.449285"><ele>718.0</ele><time>2026-05-02T09:12:52.279Z</time></trkpt><trkpt lat="43.7653117" lon="6.4493767"><ele>718.0</ele><time>2026-05-02T09:12:53.28Z</time></trkpt><trkpt lat="43.7651817" lon="6.44947"><ele>718.0</ele><time>2026-05-02T09:12:54.279Z</time></trkpt><trkpt lat="43.765055" lon="6.4495567"><ele>718.0</ele><time>2026-05-02T09:12:55.279Z</time></trkpt><trkpt lat="43.764925" lon="6.4496417"><ele>719.0</ele><time>2026-05-02T09:12:56.279Z</time></trkpt><trkpt lat="43.7647933" lon="6.4497283"><ele>720.0</ele><time>2026-05-02T09:12:57.279Z</time></trkpt><trkpt lat="43.7646633" lon="6.44981"><ele>721.0</ele><time>2026-05-02T09:12:58.28Z</time></trkpt><trkpt lat="43.764535" lon="6.4498817"><ele>722.0</ele><time>2026-05-02T09:12:59.278Z</time></trkpt><trkpt lat="43.7643983" lon="6.4499467"><ele>720.25</ele><time>2026-05-02T09:13:00.278Z</time></trkpt><trkpt lat="43.7642633" lon="6.4500133"><ele>718.5</ele><time>2026-05-02T09:13:01.278Z</time></trkpt><trkpt lat="43.7641317" lon="6.450085"><ele>716.75</ele><time>2026-05-02T09:13:02.278Z</time></trkpt><trkpt lat="43.7640017" lon="6.450155"><ele>715.0</ele><time>2026-05-02T09:13:03.278Z</time></trkpt><trkpt lat="43.7638733" lon="6.4502183"><ele>715.0</ele><time>2026-05-02T09:13:04.278Z</time></trkpt><trkpt lat="43.763745" lon="6.4502933"><ele>715.0</ele><time>2026-05-02T09:13:05.278Z</time></trkpt><trkpt lat="43.763615" lon="6.4503917"><ele>715.0</ele><time>2026-05-02T09:13:06.278Z</time></trkpt><trkpt lat="43.7634983" lon="6.4505017"><ele>715.0</ele><time>2026-05-02T09:13:07.278Z</time></trkpt><trkpt lat="43.7633967" lon="6.4506233"><ele>715.6</ele><time>2026-05-02T09:13:08.278Z</time></trkpt><trkpt lat="43.7633083" lon="6.450745"><ele>716.2</ele><time>2026-05-02T09:13:09.278Z</time></trkpt><trkpt lat="43.7632267" lon="6.4508617"><ele>716.8</ele><time>2026-05-02T09:13:10.278Z</time></trkpt><trkpt lat="43.7631533" lon="6.4509633"><ele>717.4</ele><time>2026-05-02T09:13:11.278Z</time></trkpt><trkpt lat="43.76309" lon="6.4510417"><ele>718.0</ele><time>2026-05-02T09:13:12.278Z</time></trkpt><trkpt lat="43.7630383" lon="6.4511017"><ele>718.0</ele><time>2026-05-02T09:13:13.278Z</time></trkpt><trkpt lat="43.7629383" lon="6.4511167"><ele>718.0</ele><time>2026-05-02T09:13:15.278Z</time></trkpt><trkpt lat="43.7628917" lon="6.4509967"><ele>718.0</ele><time>2026-05-02T09:13:17.278Z</time></trkpt><trkpt lat="43.7629117" lon="6.45091"><ele>718.0</ele><time>2026-05-02T09:13:18.278Z</time></trkpt><trkpt lat="43.76296" lon="6.4508083"><ele>718.0</ele><time>2026-05-02T09:13:19.278Z</time></trkpt><trkpt lat="43.763025" lon="6.4506933"><ele>718.0</ele><time>2026-05-02T09:13:20.278Z</time></trkpt><trkpt lat="43.7630983" lon="6.450565"><ele>718.0</ele><time>2026-05-02T09:13:21.278Z</time></trkpt><trkpt lat="43.7631683" lon="6.450435"><ele>718.0</ele><time>2026-05-02T09:13:22.278Z</time></trkpt><trkpt lat="43.7632417" lon="6.450305"><ele>718.0</ele><time>2026-05-02T09:13:23.278Z</time></trkpt><trkpt lat="43.7633083" lon="6.4501717"><ele>716.75</ele><time>2026-05-02T09:13:24.278Z</time></trkpt><trkpt lat="43.7633633" lon="6.4500383"><ele>715.5</ele><time>2026-05-02T09:13:25.278Z</time></trkpt><trkpt lat="43.7633867" lon="6.449875"><ele>714.25</ele><time>2026-05-02T09:13:26.278Z</time></trkpt><trkpt lat="43.76339" lon="6.4497167"><ele>713.0</ele><time>2026-05-02T09:13:27.278Z</time></trkpt><trkpt lat="43.763365" lon="6.4495517"><ele>712.0</ele><time>2026-05-02T09:13:28.278Z</time></trkpt><trkpt lat="43.7633317" lon="6.4493967"><ele>711.0</ele><time>2026-05-02T09:13:29.279Z</time></trkpt><trkpt lat="43.7632933" lon="6.4492533"><ele>710.0</ele><time>2026-05-02T09:13:30.278Z</time></trkpt><trkpt lat="43.7632533" lon="6.4491217"><ele>709.0</ele><time>2026-05-02T09:13:31.278Z</time></trkpt><trkpt lat="43.763235" lon="6.4489867"><ele>708.0</ele><time>2026-05-02T09:13:32.278Z</time></trkpt><trkpt lat="43.7632217" lon="6.4488683"><ele>709.0</ele><time>2026-05-02T09:13:33.278Z</time></trkpt><trkpt lat="43.7632033" lon="6.4487617"><ele>710.0</ele><time>2026-05-02T09:13:34.278Z</time></trkpt><trkpt lat="43.7631883" lon="6.4486767"><ele>711.0</ele><time>2026-05-02T09:13:35.278Z</time></trkpt><trkpt lat="43.7631467" lon="6.4485267"><ele>712.0</ele><time>2026-05-02T09:13:37.278Z</time></trkpt><trkpt lat="43.7630533" lon="6.4484033"><ele>713.0</ele><time>2026-05-02T09:13:39.278Z</time></trkpt><trkpt lat="43.7629633" lon="6.44837"><ele>713.0</ele><time>2026-05-02T09:13:40.278Z</time></trkpt><trkpt lat="43.7628633" lon="6.4483333"><ele>713.0</ele><time>2026-05-02T09:13:41.278Z</time></trkpt><trkpt lat="43.762765" lon="6.448295"><ele>713.0</ele><time>2026-05-02T09:13:42.278Z</time></trkpt><trkpt lat="43.76266" lon="6.4482567"><ele>713.0</ele><time>2026-05-02T09:13:43.278Z</time></trkpt><trkpt lat="43.762545" lon="6.448215"><ele>713.0</ele><time>2026-05-02T09:13:44.278Z</time></trkpt><trkpt lat="43.762435" lon="6.4481683"><ele>713.0</ele><time>2026-05-02T09:13:45.278Z</time></trkpt><trkpt lat="43.76232" lon="6.4481283"><ele>713.0</ele><time>2026-05-02T09:13:46.278Z</time></trkpt><trkpt lat="43.7622067" lon="6.448085"><ele>713.0</ele><time>2026-05-02T09:13:47.278Z</time></trkpt><trkpt lat="43.76209" lon="6.448055"><ele>713.0</ele><time>2026-05-02T09:13:48.279Z</time></trkpt><trkpt lat="43.7619717" lon="6.44802"><ele>712.75</ele><time>2026-05-02T09:13:49.278Z</time></trkpt><trkpt lat="43.7618467" lon="6.4479967"><ele>712.5</ele><time>2026-05-02T09:13:50.278Z</time></trkpt><trkpt lat="43.7617033" lon="6.44801"><ele>712.25</ele><time>2026-05-02T09:13:51.278Z</time></trkpt><trkpt lat="43.7615567" lon="6.448035"><ele>712.0</ele><time>2026-05-02T09:13:52.278Z</time></trkpt><trkpt lat="43.7614167" lon="6.4480633"><ele>712.0</ele><time>2026-05-02T09:13:53.278Z</time></trkpt><trkpt lat="43.761285" lon="6.44809"><ele>712.0</ele><time>2026-05-02T09:13:54.278Z</time></trkpt><trkpt lat="43.7611417" lon="6.4481017"><ele>712.0</ele><time>2026-05-02T09:13:55.278Z</time></trkpt><trkpt lat="43.7610117" lon="6.4481017"><ele>712.0</ele><time>2026-05-02T09:13:56.279Z</time></trkpt><trkpt lat="43.7608917" lon="6.4480967"><ele>712.8</ele><time>2026-05-02T09:13:57.278Z</time></trkpt><trkpt lat="43.7607783" lon="6.4480817"><ele>713.6</ele><time>2026-05-02T09:13:58.278Z</time></trkpt><trkpt lat="43.760675" lon="6.44806"><ele>714.4</ele><time>2026-05-02T09:13:59.278Z</time></trkpt><trkpt lat="43.7605833" lon="6.448015"><ele>715.1999999999999</ele><time>2026-05-02T09:14:00.278Z</time></trkpt><trkpt lat="43.7605033" lon="6.4479617"><ele>716.0</ele><time>2026-05-02T09:14:01.278Z</time></trkpt><trkpt lat="43.760425" lon="6.4479033"><ele>717.4</ele><time>2026-05-02T09:14:02.278Z</time></trkpt><trkpt lat="43.76035" lon="6.447835"><ele>718.8</ele><time>2026-05-02T09:14:03.278Z</time></trkpt><trkpt lat="43.7602717" lon="6.4477583"><ele>720.1999999999999</ele><time>2026-05-02T09:14:04.278Z</time></trkpt><trkpt lat="43.7602033" lon="6.44767"><ele>721.5999999999999</ele><time>2026-05-02T09:14:05.278Z</time></trkpt><trkpt lat="43.7601367" lon="6.447555"><ele>723.0</ele><time>2026-05-02T09:14:06.278Z</time></trkpt><trkpt lat="43.7600583" lon="6.4474317"><ele>723.0</ele><time>2026-05-02T09:14:07.278Z</time></trkpt><trkpt lat="43.7599733" lon="6.4472983"><ele>723.0</ele><time>2026-05-02T09:14:08.278Z</time></trkpt><trkpt lat="43.7598933" lon="6.4471517"><ele>723.0</ele><time>2026-05-02T09:14:09.278Z</time></trkpt><trkpt lat="43.7598183" lon="6.4470117"><ele>723.0</ele><time>2026-05-02T09:14:10.278Z</time></trkpt><trkpt lat="43.75974" lon="6.44687"><ele>724.25</ele><time>2026-05-02T09:14:11.278Z</time></trkpt><trkpt lat="43.7596633" lon="6.4467217"><ele>725.5</ele><time>2026-05-02T09:14:12.278Z</time></trkpt><trkpt lat="43.75959" lon="6.446585"><ele>726.75</ele><time>2026-05-02T09:14:13.278Z</time></trkpt><trkpt lat="43.7595483" lon="6.446425"><ele>728.0</ele><time>2026-05-02T09:14:14.278Z</time></trkpt><trkpt lat="43.75953" lon="6.446235"><ele>730.25</ele><time>2026-05-02T09:14:15.278Z</time></trkpt><trkpt lat="43.75953" lon="6.44603"><ele>732.5</ele><time>2026-05-02T09:14:16.278Z</time></trkpt><trkpt lat="43.7595417" lon="6.4458267"><ele>734.75</ele><time>2026-05-02T09:14:17.278Z</time></trkpt><trkpt lat="43.7595683" lon="6.4456183"><ele>737.0</ele><time>2026-05-02T09:14:18.278Z</time></trkpt><trkpt lat="43.7595917" lon="6.4454217"><ele>738.75</ele><time>2026-05-02T09:14:19.278Z</time></trkpt><trkpt lat="43.75961" lon="6.445235"><ele>740.5</ele><time>2026-05-02T09:14:20.278Z</time></trkpt><trkpt lat="43.7596233" lon="6.445055"><ele>742.25</ele><time>2026-05-02T09:14:21.279Z</time></trkpt><trkpt lat="43.7596317" lon="6.4448767"><ele>744.0</ele><time>2026-05-02T09:14:22.278Z</time></trkpt><trkpt lat="43.7596367" lon="6.4447133"><ele>745.0</ele><time>2026-05-02T09:14:23.279Z</time></trkpt><trkpt lat="43.7596433" lon="6.444555"><ele>746.0</ele><time>2026-05-02T09:14:24.278Z</time></trkpt><trkpt lat="43.7596567" lon="6.444405"><ele>747.0</ele><time>2026-05-02T09:14:25.278Z</time></trkpt><trkpt lat="43.75969" lon="6.4442667"><ele>748.0</ele><time>2026-05-02T09:14:26.278Z</time></trkpt><trkpt lat="43.759725" lon="6.44415"><ele>749.0</ele><time>2026-05-02T09:14:27.279Z</time></trkpt><trkpt lat="43.7597417" lon="6.4440317"><ele>749.0</ele><time>2026-05-02T09:14:28.279Z</time></trkpt><trkpt lat="43.75974" lon="6.4439267"><ele>749.0</ele><time>2026-05-02T09:14:29.278Z</time></trkpt><trkpt lat="43.7596717" lon="6.4438333"><ele>749.0</ele><time>2026-05-02T09:14:31.278Z</time></trkpt><trkpt lat="43.759575" lon="6.44395"><ele>749.0</ele><time>2026-05-02T09:14:33.278Z</time></trkpt><trkpt lat="43.7595483" lon="6.44409"><ele>749.0</ele><time>2026-05-02T09:14:34.278Z</time></trkpt><trkpt lat="43.759525" lon="6.4442517"><ele>749.0</ele><time>2026-05-02T09:14:35.278Z</time></trkpt><trkpt lat="43.7594833" lon="6.4443933"><ele>749.0</ele><time>2026-05-02T09:14:36.278Z</time></trkpt><trkpt lat="43.7594" lon="6.4445083"><ele>749.0</ele><time>2026-05-02T09:14:37.278Z</time></trkpt><trkpt lat="43.759295" lon="6.4446017"><ele>749.0</ele><time>2026-05-02T09:14:38.278Z</time></trkpt><trkpt lat="43.7591917" lon="6.44467"><ele>747.0</ele><time>2026-05-02T09:14:39.278Z</time></trkpt><trkpt lat="43.75908" lon="6.4447317"><ele>745.0</ele><time>2026-05-02T09:14:40.279Z</time></trkpt><trkpt lat="43.7589683" lon="6.444795"><ele>743.0</ele><time>2026-05-02T09:14:41.278Z</time></trkpt><trkpt lat="43.7588633" lon="6.4448767"><ele>741.0</ele><time>2026-05-02T09:14:42.278Z</time></trkpt><trkpt lat="43.7587683" lon="6.4449683"><ele>741.0</ele><time>2026-05-02T09:14:43.278Z</time></trkpt><trkpt lat="43.7586867" lon="6.44505"><ele>741.0</ele><time>2026-05-02T09:14:44.278Z</time></trkpt><trkpt lat="43.75861" lon="6.4451267"><ele>741.0</ele><time>2026-05-02T09:14:45.278Z</time></trkpt><trkpt lat="43.7585417" lon="6.445155"><ele>741.0</ele><time>2026-05-02T09:14:46.278Z</time></trkpt><trkpt lat="43.7584733" lon="6.4451633"><ele>741.0</ele><time>2026-05-02T09:14:47.278Z</time></trkpt><trkpt lat="43.7584383" lon="6.445025"><ele>741.0</ele><time>2026-05-02T09:14:49.278Z</time></trkpt><trkpt lat="43.758475" lon="6.44493"><ele>741.0</ele><time>2026-05-02T09:14:50.278Z</time></trkpt><trkpt lat="43.7585333" lon="6.4448283"><ele>741.0</ele><time>2026-05-02T09:14:51.278Z</time></trkpt><trkpt lat="43.7585867" lon="6.4446967"><ele>741.0</ele><time>2026-05-02T09:14:52.278Z</time></trkpt><trkpt lat="43.7586433" lon="6.444535"><ele>741.0</ele><time>2026-05-02T09:14:53.278Z</time></trkpt><trkpt lat="43.7587" lon="6.4443533"><ele>743.0</ele><time>2026-05-02T09:14:54.278Z</time></trkpt><trkpt lat="43.7587567" lon="6.444175"><ele>745.0</ele><time>2026-05-02T09:14:55.278Z</time></trkpt><trkpt lat="43.7588133" lon="6.4439917"><ele>747.0</ele><time>2026-05-02T09:14:56.278Z</time></trkpt><trkpt lat="43.75887" lon="6.4438317"><ele>749.0</ele><time>2026-05-02T09:14:57.278Z</time></trkpt><trkpt lat="43.7589117" lon="6.4436667"><ele>749.5</ele><time>2026-05-02T09:14:58.278Z</time></trkpt><trkpt lat="43.758955" lon="6.4434933"><ele>750.0</ele><time>2026-05-02T09:14:59.278Z</time></trkpt><trkpt lat="43.7589783" lon="6.4433017"><ele>750.5</ele><time>2026-05-02T09:15:00.278Z</time></trkpt><trkpt lat="43.7589917" lon="6.4431067"><ele>751.0</ele><time>2026-05-02T09:15:01.278Z</time></trkpt><trkpt lat="43.7590067" lon="6.4429233"><ele>754.0</ele><time>2026-05-02T09:15:02.278Z</time></trkpt><trkpt lat="43.7590367" lon="6.4427483"><ele>757.0</ele><time>2026-05-02T09:15:03.278Z</time></trkpt><trkpt lat="43.7590617" lon="6.442595"><ele>760.0</ele><time>2026-05-02T09:15:04.278Z</time></trkpt><trkpt lat="43.759095" lon="6.4424517"><ele>763.0</ele><time>2026-05-02T09:15:05.278Z</time></trkpt><trkpt lat="43.7591417" lon="6.4423267"><ele>763.0</ele><time>2026-05-02T09:15:06.278Z</time></trkpt><trkpt lat="43.7592117" lon="6.4422017"><ele>763.0</ele><time>2026-05-02T09:15:07.278Z</time></trkpt><trkpt lat="43.7593083" lon="6.4421217"><ele>763.0</ele><time>2026-05-02T09:15:08.278Z</time></trkpt><trkpt lat="43.7594033" lon="6.4420883"><ele>763.0</ele><time>2026-05-02T09:15:09.278Z</time></trkpt><trkpt lat="43.7595067" lon="6.44207"><ele>763.0</ele><time>2026-05-02T09:15:10.279Z</time></trkpt><trkpt lat="43.7595983" lon="6.442025"><ele>764.4</ele><time>2026-05-02T09:15:11.278Z</time></trkpt><trkpt lat="43.7596867" lon="6.4419433"><ele>765.8</ele><time>2026-05-02T09:15:12.278Z</time></trkpt><trkpt lat="43.7597717" lon="6.4418533"><ele>767.2</ele><time>2026-05-02T09:15:13.278Z</time></trkpt><trkpt lat="43.7598567" lon="6.4417683"><ele>768.6</ele><time>2026-05-02T09:15:14.278Z</time></trkpt><trkpt lat="43.7599467" lon="6.4417267"><ele>770.0</ele><time>2026-05-02T09:15:15.278Z</time></trkpt><trkpt lat="43.7600483" lon="6.4417133"><ele>770.0</ele><time>2026-05-02T09:15:16.278Z</time></trkpt><trkpt lat="43.760145" lon="6.4417267"><ele>770.0</ele><time>2026-05-02T09:15:17.278Z</time></trkpt><trkpt lat="43.7602267" lon="6.4417383"><ele>770.0</ele><time>2026-05-02T09:15:18.278Z</time></trkpt><trkpt lat="43.7603283" lon="6.4417317"><ele>770.0</ele><time>2026-05-02T09:15:20.278Z</time></trkpt><trkpt lat="43.76038" lon="6.4416117"><ele>770.0</ele><time>2026-05-02T09:15:22.278Z</time></trkpt><trkpt lat="43.7603533" lon="6.4414433"><ele>772.1666666666667</ele><time>2026-05-02T09:15:24.278Z</time></trkpt><trkpt lat="43.760315" lon="6.4413267"><ele>774.3333333333334</ele><time>2026-05-02T09:15:25.278Z</time></trkpt><trkpt lat="43.7602767" lon="6.441195"><ele>776.5</ele><time>2026-05-02T09:15:26.278Z</time></trkpt><trkpt lat="43.7602467" lon="6.4410883"><ele>778.6666666666667</ele><time>2026-05-02T09:15:27.278Z</time></trkpt><trkpt lat="43.7602067" lon="6.441015"><ele>780.8333333333334</ele><time>2026-05-02T09:15:28.278Z</time></trkpt><trkpt lat="43.7601417" lon="6.4409633"><ele>783.0</ele><time>2026-05-02T09:15:29.278Z</time></trkpt><trkpt lat="43.7600683" lon="6.4409417"><ele>783.0</ele><time>2026-05-02T09:15:30.278Z</time></trkpt><trkpt lat="43.7599783" lon="6.4409317"><ele>783.0</ele><time>2026-05-02T09:15:31.278Z</time></trkpt><trkpt lat="43.7598833" lon="6.4409083"><ele>783.0</ele><time>2026-05-02T09:15:32.278Z</time></trkpt><trkpt lat="43.7597933" lon="6.4408683"><ele>783.0</ele><time>2026-05-02T09:15:33.279Z</time></trkpt><trkpt lat="43.7597167" lon="6.4408033"><ele>783.0</ele><time>2026-05-02T09:15:34.278Z</time></trkpt><trkpt lat="43.7596433" lon="6.4407367"><ele>783.0</ele><time>2026-05-02T09:15:35.278Z</time></trkpt><trkpt lat="43.7595383" lon="6.4406983"><ele>783.0</ele><time>2026-05-02T09:15:36.278Z</time></trkpt><trkpt lat="43.7594317" lon="6.4407033"><ele>783.0</ele><time>2026-05-02T09:15:37.278Z</time></trkpt><trkpt lat="43.7593183" lon="6.4407467"><ele>783.0</ele><time>2026-05-02T09:15:38.278Z</time></trkpt><trkpt lat="43.759205" lon="6.4408167"><ele>783.5</ele><time>2026-05-02T09:15:39.278Z</time></trkpt><trkpt lat="43.75909" lon="6.4408683"><ele>784.0</ele><time>2026-05-02T09:15:40.278Z</time></trkpt><trkpt lat="43.75897" lon="6.4408967"><ele>784.5</ele><time>2026-05-02T09:15:41.278Z</time></trkpt><trkpt lat="43.7588467" lon="6.44092"><ele>785.0</ele><time>2026-05-02T09:15:42.278Z</time></trkpt><trkpt lat="43.75873" lon="6.4409467"><ele>785.0</ele><time>2026-05-02T09:15:43.278Z</time></trkpt><trkpt lat="43.75861" lon="6.440985"><ele>785.0</ele><time>2026-05-02T09:15:44.278Z</time></trkpt><trkpt lat="43.7584967" lon="6.4410133"><ele>785.0</ele><time>2026-05-02T09:15:45.278Z</time></trkpt><trkpt lat="43.7583817" lon="6.4410317"><ele>785.0</ele><time>2026-05-02T09:15:46.278Z</time></trkpt><trkpt lat="43.758265" lon="6.4410567"><ele>788.25</ele><time>2026-05-02T09:15:47.278Z</time></trkpt><trkpt lat="43.7581467" lon="6.441085"><ele>791.5</ele><time>2026-05-02T09:15:48.278Z</time></trkpt><trkpt lat="43.7580267" lon="6.441105"><ele>794.75</ele><time>2026-05-02T09:15:49.278Z</time></trkpt><trkpt lat="43.75791" lon="6.4411333"><ele>798.0</ele><time>2026-05-02T09:15:50.278Z</time></trkpt><trkpt lat="43.7578" lon="6.44115"><ele>799.4</ele><time>2026-05-02T09:15:51.278Z</time></trkpt><trkpt lat="43.757685" lon="6.4411467"><ele>800.8</ele><time>2026-05-02T09:15:52.278Z</time></trkpt><trkpt lat="43.7575717" lon="6.4411317"><ele>802.2</ele><time>2026-05-02T09:15:53.279Z</time></trkpt><trkpt lat="43.7574683" lon="6.4410867"><ele>803.6</ele><time>2026-05-02T09:15:54.278Z</time></trkpt><trkpt lat="43.7573733" lon="6.4410067"><ele>805.0</ele><time>2026-05-02T09:15:55.278Z</time></trkpt><trkpt lat="43.7573117" lon="6.44089"><ele>805.0</ele><time>2026-05-02T09:15:56.278Z</time></trkpt><trkpt lat="43.7572767" lon="6.4407517"><ele>805.0</ele><time>2026-05-02T09:15:57.278Z</time></trkpt><trkpt lat="43.7572517" lon="6.4406067"><ele>805.0</ele><time>2026-05-02T09:15:58.278Z</time></trkpt><trkpt lat="43.757235" lon="6.4404483"><ele>805.0</ele><time>2026-05-02T09:15:59.278Z</time></trkpt><trkpt lat="43.757205" lon="6.4402983"><ele>805.0</ele><time>2026-05-02T09:16:00.278Z</time></trkpt><trkpt lat="43.7571783" lon="6.44015"><ele>806.5</ele><time>2026-05-02T09:16:01.278Z</time></trkpt><trkpt lat="43.7571367" lon="6.4399983"><ele>808.0</ele><time>2026-05-02T09:16:02.279Z</time></trkpt><trkpt lat="43.7570867" lon="6.4398433"><ele>809.5</ele><time>2026-05-02T09:16:03.278Z</time></trkpt><trkpt lat="43.7570317" lon="6.4396883"><ele>811.0</ele><time>2026-05-02T09:16:04.279Z</time></trkpt><trkpt lat="43.7569833" lon="6.4395383"><ele>809.75</ele><time>2026-05-02T09:16:05.278Z</time></trkpt><trkpt lat="43.75694" lon="6.439385"><ele>808.5</ele><time>2026-05-02T09:16:06.279Z</time></trkpt><trkpt lat="43.75689" lon="6.43924"><ele>807.25</ele><time>2026-05-02T09:16:07.278Z</time></trkpt><trkpt lat="43.756835" lon="6.4391017"><ele>806.0</ele><time>2026-05-02T09:16:08.278Z</time></trkpt><trkpt lat="43.75678" lon="6.4389567"><ele>806.0</ele><time>2026-05-02T09:16:09.278Z</time></trkpt><trkpt lat="43.7567133" lon="6.4388217"><ele>806.0</ele><time>2026-05-02T09:16:10.278Z</time></trkpt><trkpt lat="43.7566533" lon="6.4386867"><ele>806.0</ele><time>2026-05-02T09:16:11.278Z</time></trkpt><trkpt lat="43.7565867" lon="6.4385633"><ele>806.0</ele><time>2026-05-02T09:16:12.279Z</time></trkpt><trkpt lat="43.7565233" lon="6.4384417"><ele>806.4</ele><time>2026-05-02T09:16:13.278Z</time></trkpt><trkpt lat="43.75645" lon="6.4383267"><ele>806.8</ele><time>2026-05-02T09:16:14.278Z</time></trkpt><trkpt lat="43.7563867" lon="6.4381983"><ele>807.1999999999999</ele><time>2026-05-02T09:16:15.278Z</time></trkpt><trkpt lat="43.75633" lon="6.43807"><ele>807.5999999999999</ele><time>2026-05-02T09:16:16.279Z</time></trkpt><trkpt lat="43.7562833" lon="6.4379317"><ele>808.0</ele><time>2026-05-02T09:16:17.278Z</time></trkpt><trkpt lat="43.7562483" lon="6.4377717"><ele>808.5999999999999</ele><time>2026-05-02T09:16:18.278Z</time></trkpt><trkpt lat="43.756225" lon="6.437615"><ele>809.1999999999999</ele><time>2026-05-02T09:16:19.278Z</time></trkpt><trkpt lat="43.7562167" lon="6.4374633"><ele>809.8</ele><time>2026-05-02T09:16:20.278Z</time></trkpt><trkpt lat="43.7562133" lon="6.4373267"><ele>810.4</ele><time>2026-05-02T09:16:21.279Z</time></trkpt><trkpt lat="43.7561933" lon="6.437215"><ele>811.0</ele><time>2026-05-02T09:16:22.278Z</time></trkpt><trkpt lat="43.75614" lon="6.437135"><ele>809.1999999999999</ele><time>2026-05-02T09:16:23.278Z</time></trkpt><trkpt lat="43.7560767" lon="6.4370733"><ele>807.4</ele><time>2026-05-02T09:16:24.279Z</time></trkpt><trkpt lat="43.7560033" lon="6.4370683"><ele>805.6</ele><time>2026-05-02T09:16:25.278Z</time></trkpt><trkpt lat="43.7559267" lon="6.43713"><ele>803.8</ele><time>2026-05-02T09:16:26.278Z</time></trkpt><trkpt lat="43.7558617" lon="6.437235"><ele>802.0</ele><time>2026-05-02T09:16:27.278Z</time></trkpt><trkpt lat="43.7557983" lon="6.4373867"><ele>797.25</ele><time>2026-05-02T09:16:28.278Z</time></trkpt><trkpt lat="43.7557383" lon="6.4375567"><ele>792.5</ele><time>2026-05-02T09:16:29.278Z</time></trkpt><trkpt lat="43.7556917" lon="6.4377317"><ele>787.75</ele><time>2026-05-02T09:16:30.278Z</time></trkpt><trkpt lat="43.7556767" lon="6.43791"><ele>783.0</ele><time>2026-05-02T09:16:31.278Z</time></trkpt><trkpt lat="43.7556833" lon="6.43808"><ele>783.0</ele><time>2026-05-02T09:16:32.279Z</time></trkpt><trkpt lat="43.7556917" lon="6.4382467"><ele>783.0</ele><time>2026-05-02T09:16:33.278Z</time></trkpt><trkpt lat="43.7556867" lon="6.4384117"><ele>783.0</ele><time>2026-05-02T09:16:34.279Z</time></trkpt><trkpt lat="43.7556483" lon="6.4385733"><ele>783.0</ele><time>2026-05-02T09:16:35.278Z</time></trkpt><trkpt lat="43.75559" lon="6.4387267"><ele>786.25</ele><time>2026-05-02T09:16:36.278Z</time></trkpt><trkpt lat="43.7555067" lon="6.43886"><ele>789.5</ele><time>2026-05-02T09:16:37.278Z</time></trkpt><trkpt lat="43.755415" lon="6.438965"><ele>792.75</ele><time>2026-05-02T09:16:38.278Z</time></trkpt><trkpt lat="43.7553217" lon="6.4390583"><ele>796.0</ele><time>2026-05-02T09:16:39.278Z</time></trkpt><trkpt lat="43.7552233" lon="6.4391633"><ele>795.0</ele><time>2026-05-02T09:16:40.278Z</time></trkpt><trkpt lat="43.755115" lon="6.439285"><ele>794.0</ele><time>2026-05-02T09:16:41.278Z</time></trkpt><trkpt lat="43.7550083" lon="6.4394067"><ele>793.0</ele><time>2026-05-02T09:16:42.278Z</time></trkpt><trkpt lat="43.7549" lon="6.4395367"><ele>792.0</ele><time>2026-05-02T09:16:43.279Z</time></trkpt><trkpt lat="43.754785" lon="6.4396733"><ele>792.0</ele><time>2026-05-02T09:16:44.278Z</time></trkpt><trkpt lat="43.754675" lon="6.4398083"><ele>792.0</ele><time>2026-05-02T09:16:45.278Z</time></trkpt><trkpt lat="43.754565" lon="6.4399467"><ele>792.0</ele><time>2026-05-02T09:16:46.278Z</time></trkpt><trkpt lat="43.754455" lon="6.4400533"><ele>792.0</ele><time>2026-05-02T09:16:47.278Z</time></trkpt><trkpt lat="43.75434" lon="6.4401233"><ele>786.5</ele><time>2026-05-02T09:16:48.278Z</time></trkpt><trkpt lat="43.7542217" lon="6.4401633"><ele>781.0</ele><time>2026-05-02T09:16:49.278Z</time></trkpt><trkpt lat="43.754105" lon="6.4401733"><ele>775.5</ele><time>2026-05-02T09:16:50.278Z</time></trkpt><trkpt lat="43.7539783" lon="6.44017"><ele>770.0</ele><time>2026-05-02T09:16:51.278Z</time></trkpt><trkpt lat="43.7538633" lon="6.4401583"><ele>770.0</ele><time>2026-05-02T09:16:52.278Z</time></trkpt><trkpt lat="43.7537517" lon="6.4401433"><ele>770.0</ele><time>2026-05-02T09:16:53.278Z</time></trkpt><trkpt lat="43.75364" lon="6.4401"><ele>770.0</ele><time>2026-05-02T09:16:54.278Z</time></trkpt><trkpt lat="43.7535467" lon="6.4400283"><ele>770.0</ele><time>2026-05-02T09:16:55.278Z</time></trkpt><trkpt lat="43.7534717" lon="6.43992"><ele>770.0</ele><time>2026-05-02T09:16:56.278Z</time></trkpt><trkpt lat="43.7534167" lon="6.4397833"><ele>770.25</ele><time>2026-05-02T09:16:57.278Z</time></trkpt><trkpt lat="43.7533717" lon="6.4396467"><ele>770.5</ele><time>2026-05-02T09:16:58.278Z</time></trkpt><trkpt lat="43.7533417" lon="6.439485"><ele>770.75</ele><time>2026-05-02T09:16:59.278Z</time></trkpt><trkpt lat="43.7533183" lon="6.4393333"><ele>771.0</ele><time>2026-05-02T09:17:00.278Z</time></trkpt><trkpt lat="43.7533017" lon="6.4391817"><ele>771.0</ele><time>2026-05-02T09:17:01.278Z</time></trkpt><trkpt lat="43.7532633" lon="6.4390367"><ele>771.0</ele><time>2026-05-02T09:17:02.278Z</time></trkpt><trkpt lat="43.7531867" lon="6.4388833"><ele>771.0</ele><time>2026-05-02T09:17:03.278Z</time></trkpt><trkpt lat="43.753085" lon="6.438735"><ele>771.0</ele><time>2026-05-02T09:17:04.278Z</time></trkpt><trkpt lat="43.75296" lon="6.438585"><ele>771.0</ele><time>2026-05-02T09:17:05.278Z</time></trkpt><trkpt lat="43.7528083" lon="6.4384333"><ele>771.0</ele><time>2026-05-02T09:17:06.278Z</time></trkpt><trkpt lat="43.7526417" lon="6.4382817"><ele>771.0</ele><time>2026-05-02T09:17:07.278Z</time></trkpt><trkpt lat="43.752465" lon="6.4381433"><ele>772.0</ele><time>2026-05-02T09:17:08.278Z</time></trkpt><trkpt lat="43.75228" lon="6.438015"><ele>773.0</ele><time>2026-05-02T09:17:09.279Z</time></trkpt><trkpt lat="43.7520867" lon="6.4378967"><ele>774.0</ele><time>2026-05-02T09:17:10.278Z</time></trkpt><trkpt lat="43.7519" lon="6.4377733"><ele>777.3333333333333</ele><time>2026-05-02T09:17:11.278Z</time></trkpt><trkpt lat="43.751735" lon="6.4376467"><ele>780.6666666666666</ele><time>2026-05-02T09:17:12.278Z</time></trkpt><trkpt lat="43.751575" lon="6.4375"><ele>784.0</ele><time>2026-05-02T09:17:13.278Z</time></trkpt><trkpt lat="43.751415" lon="6.43734"><ele>784.0</ele><time>2026-05-02T09:17:14.278Z</time></trkpt><trkpt lat="43.7512817" lon="6.4371833"><ele>784.0</ele><time>2026-05-02T09:17:15.278Z</time></trkpt><trkpt lat="43.7511567" lon="6.4370433"><ele>784.0</ele><time>2026-05-02T09:17:16.278Z</time></trkpt><trkpt lat="43.75105" lon="6.4369133"><ele>786.4000000000001</ele><time>2026-05-02T09:17:17.278Z</time></trkpt><trkpt lat="43.7509417" lon="6.4368133"><ele>788.8</ele><time>2026-05-02T09:17:18.278Z</time></trkpt><trkpt lat="43.7508467" lon="6.4367317"><ele>791.2</ele><time>2026-05-02T09:17:19.278Z</time></trkpt><trkpt lat="43.7507733" lon="6.4366433"><ele>793.5999999999999</ele><time>2026-05-02T09:17:20.278Z</time></trkpt><trkpt lat="43.75072" lon="6.4365417"><ele>796.0</ele><time>2026-05-02T09:17:21.278Z</time></trkpt><trkpt lat="43.7507133" lon="6.436415"><ele>796.75</ele><time>2026-05-02T09:17:22.279Z</time></trkpt><trkpt lat="43.750735" lon="6.4362633"><ele>797.5</ele><time>2026-05-02T09:17:23.278Z</time></trkpt><trkpt lat="43.7507817" lon="6.4361117"><ele>798.25</ele><time>2026-05-02T09:17:24.278Z</time></trkpt><trkpt lat="43.7508267" lon="6.43594"><ele>799.0</ele><time>2026-05-02T09:17:25.279Z</time></trkpt><trkpt lat="43.7508433" lon="6.4357683"><ele>799.0</ele><time>2026-05-02T09:17:26.278Z</time></trkpt><trkpt lat="43.75083" lon="6.4356167"><ele>799.0</ele><time>2026-05-02T09:17:27.278Z</time></trkpt><trkpt lat="43.7507867" lon="6.4355"><ele>799.0</ele><time>2026-05-02T09:17:28.278Z</time></trkpt><trkpt lat="43.7507167" lon="6.4354117"><ele>799.0</ele><time>2026-05-02T09:17:29.278Z</time></trkpt><trkpt lat="43.7506317" lon="6.435385"><ele>799.0</ele><time>2026-05-02T09:17:30.278Z</time></trkpt><trkpt lat="43.7505317" lon="6.4354083"><ele>799.0</ele><time>2026-05-02T09:17:31.278Z</time></trkpt><trkpt lat="43.7504083" lon="6.435465"><ele>799.0</ele><time>2026-05-02T09:17:32.278Z</time></trkpt><trkpt lat="43.7502683" lon="6.4355333"><ele>799.0</ele><time>2026-05-02T09:17:33.278Z</time></trkpt><trkpt lat="43.7501317" lon="6.435595"><ele>799.0</ele><time>2026-05-02T09:17:34.279Z</time></trkpt><trkpt lat="43.7499967" lon="6.435675"><ele>803.3333333333333</ele><time>2026-05-02T09:17:35.278Z</time></trkpt><trkpt lat="43.749865" lon="6.4357633"><ele>807.6666666666667</ele><time>2026-05-02T09:17:36.278Z</time></trkpt><trkpt lat="43.7497317" lon="6.4358933"><ele>812.0</ele><time>2026-05-02T09:17:37.278Z</time></trkpt><trkpt lat="43.749605" lon="6.4360167"><ele>812.0</ele><time>2026-05-02T09:17:38.278Z</time></trkpt><trkpt lat="43.7494733" lon="6.4361483"><ele>812.0</ele><time>2026-05-02T09:17:39.278Z</time></trkpt><trkpt lat="43.7493583" lon="6.436275"><ele>812.0</ele><time>2026-05-02T09:17:40.278Z</time></trkpt><trkpt lat="43.7492467" lon="6.4363933"><ele>814.0</ele><time>2026-05-02T09:17:41.278Z</time></trkpt><trkpt lat="43.7491433" lon="6.4365083"><ele>816.0</ele><time>2026-05-02T09:17:42.279Z</time></trkpt><trkpt lat="43.7490533" lon="6.4366367"><ele>818.0</ele><time>2026-05-02T09:17:43.278Z</time></trkpt><trkpt lat="43.7489717" lon="6.4367867"><ele>820.0</ele><time>2026-05-02T09:17:44.278Z</time></trkpt><trkpt lat="43.7489217" lon="6.4369517"><ele>820.0</ele><time>2026-05-02T09:17:45.279Z</time></trkpt><trkpt lat="43.7488833" lon="6.437105"><ele>820.0</ele><time>2026-05-02T09:17:46.278Z</time></trkpt><trkpt lat="43.7488567" lon="6.437235"><ele>820.0</ele><time>2026-05-02T09:17:47.279Z</time></trkpt><trkpt lat="43.7488067" lon="6.4373567"><ele>820.0</ele><time>2026-05-02T09:17:48.278Z</time></trkpt><trkpt lat="43.7487517" lon="6.43741"><ele>820.0</ele><time>2026-05-02T09:17:49.278Z</time></trkpt><trkpt lat="43.7486717" lon="6.4374183"><ele>820.0</ele><time>2026-05-02T09:17:50.278Z</time></trkpt><trkpt lat="43.7486" lon="6.4373683"><ele>820.0</ele><time>2026-05-02T09:17:51.278Z</time></trkpt><trkpt lat="43.748565" lon="6.4372633"><ele>820.0</ele><time>2026-05-02T09:17:52.278Z</time></trkpt><trkpt lat="43.7485617" lon="6.437125"><ele>820.0</ele><time>2026-05-02T09:17:53.279Z</time></trkpt><trkpt lat="43.748595" lon="6.4369567"><ele>820.0</ele><time>2026-05-02T09:17:54.278Z</time></trkpt><trkpt lat="43.7486233" lon="6.436765"><ele>820.0</ele><time>2026-05-02T09:17:55.278Z</time></trkpt><trkpt lat="43.74862" lon="6.4365767"><ele>820.0</ele><time>2026-05-02T09:17:56.278Z</time></trkpt><trkpt lat="43.7485817" lon="6.4363833"><ele>820.0</ele><time>2026-05-02T09:17:57.278Z</time></trkpt><trkpt lat="43.748545" lon="6.4361867"><ele>820.0</ele><time>2026-05-02T09:17:58.278Z</time></trkpt><trkpt lat="43.748515" lon="6.43598"><ele>824.6666666666666</ele><time>2026-05-02T09:17:59.279Z</time></trkpt><trkpt lat="43.748505" lon="6.435765"><ele>829.3333333333333</ele><time>2026-05-02T09:18:00.278Z</time></trkpt><trkpt lat="43.7485117" lon="6.4355533"><ele>834.0</ele><time>2026-05-02T09:18:01.278Z</time></trkpt><trkpt lat="43.74853" lon="6.4353517"><ele>832.75</ele><time>2026-05-02T09:18:02.278Z</time></trkpt><trkpt lat="43.7485567" lon="6.4351483"><ele>831.5</ele><time>2026-05-02T09:18:03.278Z</time></trkpt><trkpt lat="43.7485883" lon="6.434965"><ele>830.25</ele><time>2026-05-02T09:18:04.279Z</time></trkpt><trkpt lat="43.748635" lon="6.4347983"><ele>829.0</ele><time>2026-05-02T09:18:05.278Z</time></trkpt><trkpt lat="43.7486917" lon="6.4346617"><ele>829.8000000000001</ele><time>2026-05-02T09:18:06.278Z</time></trkpt><trkpt lat="43.7487333" lon="6.4345217"><ele>830.6</ele><time>2026-05-02T09:18:07.278Z</time></trkpt><trkpt lat="43.74874" lon="6.43437"><ele>831.4</ele><time>2026-05-02T09:18:08.278Z</time></trkpt><trkpt lat="43.7487117" lon="6.434235"><ele>832.2</ele><time>2026-05-02T09:18:09.278Z</time></trkpt><trkpt lat="43.7486517" lon="6.4341167"><ele>833.0</ele><time>2026-05-02T09:18:10.278Z</time></trkpt><trkpt lat="43.748565" lon="6.4340383"><ele>835.75</ele><time>2026-05-02T09:18:11.278Z</time></trkpt><trkpt lat="43.7484583" lon="6.43402"><ele>838.5</ele><time>2026-05-02T09:18:12.278Z</time></trkpt><trkpt lat="43.7483417" lon="6.4340683"><ele>841.25</ele><time>2026-05-02T09:18:13.279Z</time></trkpt><trkpt lat="43.7482367" lon="6.4341667"><ele>844.0</ele><time>2026-05-02T09:18:14.278Z</time></trkpt><trkpt lat="43.74813" lon="6.4342917"><ele>844.0</ele><time>2026-05-02T09:18:15.279Z</time></trkpt><trkpt lat="43.7480233" lon="6.434405"><ele>844.0</ele><time>2026-05-02T09:18:16.278Z</time></trkpt><trkpt lat="43.7479117" lon="6.4345233"><ele>844.0</ele><time>2026-05-02T09:18:17.278Z</time></trkpt><trkpt lat="43.747805" lon="6.43464"><ele>844.0</ele><time>2026-05-02T09:18:18.278Z</time></trkpt><trkpt lat="43.7476967" lon="6.43477"><ele>846.25</ele><time>2026-05-02T09:18:19.278Z</time></trkpt><trkpt lat="43.7476083" lon="6.4349033"><ele>848.5</ele><time>2026-05-02T09:18:20.278Z</time></trkpt><trkpt lat="43.7475233" lon="6.4350333"><ele>850.75</ele><time>2026-05-02T09:18:21.278Z</time></trkpt><trkpt lat="43.747435" lon="6.4351533"><ele>853.0</ele><time>2026-05-02T09:18:22.278Z</time></trkpt><trkpt lat="43.74734" lon="6.4352817"><ele>853.0</ele><time>2026-05-02T09:18:23.278Z</time></trkpt><trkpt lat="43.747245" lon="6.435395"><ele>853.0</ele><time>2026-05-02T09:18:24.278Z</time></trkpt><trkpt lat="43.7471517" lon="6.4354983"><ele>853.0</ele><time>2026-05-02T09:18:25.278Z</time></trkpt><trkpt lat="43.74706" lon="6.43561"><ele>853.0</ele><time>2026-05-02T09:18:26.279Z</time></trkpt><trkpt lat="43.74697" lon="6.435725"><ele>854.8</ele><time>2026-05-02T09:18:27.278Z</time></trkpt><trkpt lat="43.7468767" lon="6.4358367"><ele>856.5999999999999</ele><time>2026-05-02T09:18:28.278Z</time></trkpt><trkpt lat="43.7468" lon="6.4359"><ele>858.4000000000001</ele><time>2026-05-02T09:18:29.278Z</time></trkpt><trkpt lat="43.74671" lon="6.435895"><ele>860.2</ele><time>2026-05-02T09:18:30.278Z</time></trkpt><trkpt lat="43.7466333" lon="6.4358283"><ele>862.0</ele><time>2026-05-02T09:18:31.278Z</time></trkpt><trkpt lat="43.7465883" lon="6.4357217"><ele>862.0</ele><time>2026-05-02T09:18:32.278Z</time></trkpt><trkpt lat="43.74658" lon="6.4356017"><ele>862.0</ele><time>2026-05-02T09:18:33.278Z</time></trkpt><trkpt lat="43.7466067" lon="6.4354667"><ele>862.0</ele><time>2026-05-02T09:18:34.279Z</time></trkpt><trkpt lat="43.7466583" lon="6.435305"><ele>862.0</ele><time>2026-05-02T09:18:35.278Z</time></trkpt><trkpt lat="43.746695" lon="6.4351417"><ele>862.0</ele><time>2026-05-02T09:18:36.278Z</time></trkpt><trkpt lat="43.7467117" lon="6.4349867"><ele>862.6</ele><time>2026-05-02T09:18:37.278Z</time></trkpt><trkpt lat="43.746715" lon="6.4348433"><ele>863.2</ele><time>2026-05-02T09:18:38.278Z</time></trkpt><trkpt lat="43.7466717" lon="6.434715"><ele>863.8</ele><time>2026-05-02T09:18:39.278Z</time></trkpt><trkpt lat="43.746605" lon="6.43463"><ele>864.4</ele><time>2026-05-02T09:18:40.278Z</time></trkpt><trkpt lat="43.7464933" lon="6.434575"><ele>865.0</ele><time>2026-05-02T09:18:41.278Z</time></trkpt><trkpt lat="43.7463767" lon="6.43456"><ele>865.0</ele><time>2026-05-02T09:18:42.278Z</time></trkpt><trkpt lat="43.7462533" lon="6.4345417"><ele>865.0</ele><time>2026-05-02T09:18:43.278Z</time></trkpt><trkpt lat="43.746125" lon="6.4345667"><ele>865.0</ele><time>2026-05-02T09:18:44.278Z</time></trkpt><trkpt lat="43.74601" lon="6.43463"><ele>865.0</ele><time>2026-05-02T09:18:45.278Z</time></trkpt><trkpt lat="43.7459" lon="6.4347333"><ele>867.75</ele><time>2026-05-02T09:18:46.278Z</time></trkpt><trkpt lat="43.7458283" lon="6.4348733"><ele>870.5</ele><time>2026-05-02T09:18:47.278Z</time></trkpt><trkpt lat="43.745795" lon="6.4350367"><ele>873.25</ele><time>2026-05-02T09:18:48.278Z</time></trkpt><trkpt lat="43.745775" lon="6.43522"><ele>876.0</ele><time>2026-05-02T09:18:49.278Z</time></trkpt><trkpt lat="43.7457567" lon="6.4353933"><ele>876.25</ele><time>2026-05-02T09:18:50.279Z</time></trkpt><trkpt lat="43.7457283" lon="6.4355633"><ele>876.5</ele><time>2026-05-02T09:18:51.279Z</time></trkpt><trkpt lat="43.7456733" lon="6.435715"><ele>876.75</ele><time>2026-05-02T09:18:52.279Z</time></trkpt><trkpt lat="43.7455883" lon="6.4358333"><ele>877.0</ele><time>2026-05-02T09:18:53.279Z</time></trkpt><trkpt lat="43.7454967" lon="6.4359267"><ele>877.0</ele><time>2026-05-02T09:18:54.278Z</time></trkpt><trkpt lat="43.7453983" lon="6.4359933"><ele>877.0</ele><time>2026-05-02T09:18:55.278Z</time></trkpt><trkpt lat="43.7452867" lon="6.436055"><ele>877.0</ele><time>2026-05-02T09:18:56.278Z</time></trkpt><trkpt lat="43.7451817" lon="6.4361233"><ele>877.0</ele><time>2026-05-02T09:18:57.278Z</time></trkpt><trkpt lat="43.7450783" lon="6.436215"><ele>879.5</ele><time>2026-05-02T09:18:58.278Z</time></trkpt><trkpt lat="43.7449717" lon="6.436315"><ele>882.0</ele><time>2026-05-02T09:18:59.278Z</time></trkpt><trkpt lat="43.7448683" lon="6.436405"><ele>884.5</ele><time>2026-05-02T09:19:00.278Z</time></trkpt><trkpt lat="43.74477" lon="6.4364717"><ele>887.0</ele><time>2026-05-02T09:19:01.278Z</time></trkpt><trkpt lat="43.74466" lon="6.4365267"><ele>887.0</ele><time>2026-05-02T09:19:02.278Z</time></trkpt><trkpt lat="43.74455" lon="6.436555"><ele>887.0</ele><time>2026-05-02T09:19:03.278Z</time></trkpt><trkpt lat="43.7444333" lon="6.4365817"><ele>887.0</ele><time>2026-05-02T09:19:04.278Z</time></trkpt><trkpt lat="43.7443183" lon="6.4366017"><ele>887.0</ele><time>2026-05-02T09:19:05.279Z</time></trkpt><trkpt lat="43.7442017" lon="6.4366367"><ele>888.75</ele><time>2026-05-02T09:19:06.278Z</time></trkpt><trkpt lat="43.7440883" lon="6.436655"><ele>890.5</ele><time>2026-05-02T09:19:07.278Z</time></trkpt><trkpt lat="43.7439733" lon="6.4366633"><ele>892.25</ele><time>2026-05-02T09:19:08.278Z</time></trkpt><trkpt lat="43.743855" lon="6.43666"><ele>894.0</ele><time>2026-05-02T09:19:09.278Z</time></trkpt><trkpt lat="43.7437383" lon="6.4366417"><ele>894.0</ele><time>2026-05-02T09:19:10.278Z</time></trkpt><trkpt lat="43.7436233" lon="6.4366283"><ele>894.0</ele><time>2026-05-02T09:19:11.278Z</time></trkpt><trkpt lat="43.7435067" lon="6.4366017"><ele>894.0</ele><time>2026-05-02T09:19:12.278Z</time></trkpt><trkpt lat="43.7433933" lon="6.436585"><ele>894.0</ele><time>2026-05-02T09:19:13.278Z</time></trkpt><trkpt lat="43.74328" lon="6.4365617"><ele>895.8000000000001</ele><time>2026-05-02T09:19:14.278Z</time></trkpt><trkpt lat="43.743165" lon="6.4365417"><ele>897.6000000000001</ele><time>2026-05-02T09:19:15.278Z</time></trkpt><trkpt lat="43.7430533" lon="6.4365233"><ele>899.4</ele><time>2026-05-02T09:19:16.279Z</time></trkpt><trkpt lat="43.7429517" lon="6.4365033"><ele>901.2</ele><time>2026-05-02T09:19:17.279Z</time></trkpt><trkpt lat="43.7428467" lon="6.4364933"><ele>903.0</ele><time>2026-05-02T09:19:18.278Z</time></trkpt><trkpt lat="43.742745" lon="6.43649"><ele>905.2</ele><time>2026-05-02T09:19:19.278Z</time></trkpt><trkpt lat="43.7426383" lon="6.4365"><ele>907.4</ele><time>2026-05-02T09:19:20.278Z</time></trkpt><trkpt lat="43.742535" lon="6.4365333"><ele>909.6000000000001</ele><time>2026-05-02T09:19:21.279Z</time></trkpt><trkpt lat="43.7424267" lon="6.436575"><ele>911.8000000000001</ele><time>2026-05-02T09:19:22.279Z</time></trkpt><trkpt lat="43.7423083" lon="6.4366083"><ele>914.0</ele><time>2026-05-02T09:19:23.278Z</time></trkpt><trkpt lat="43.7421867" lon="6.4366383"><ele>914.0</ele><time>2026-05-02T09:19:24.278Z</time></trkpt><trkpt lat="43.7420683" lon="6.4366667"><ele>914.0</ele><time>2026-05-02T09:19:25.278Z</time></trkpt><trkpt lat="43.74194" lon="6.4367"><ele>914.0</ele><time>2026-05-02T09:19:26.278Z</time></trkpt><trkpt lat="43.7418233" lon="6.43673"><ele>914.0</ele><time>2026-05-02T09:19:27.278Z</time></trkpt><trkpt lat="43.7417083" lon="6.4367517"><ele>915.75</ele><time>2026-05-02T09:19:28.278Z</time></trkpt><trkpt lat="43.74159" lon="6.4367633"><ele>917.5</ele><time>2026-05-02T09:19:29.279Z</time></trkpt><trkpt lat="43.741465" lon="6.436765"><ele>919.25</ele><time>2026-05-02T09:19:30.278Z</time></trkpt><trkpt lat="43.7413317" lon="6.436755"><ele>921.0</ele><time>2026-05-02T09:19:31.278Z</time></trkpt><trkpt lat="43.7411967" lon="6.436725"><ele>921.0</ele><time>2026-05-02T09:19:32.278Z</time></trkpt><trkpt lat="43.7410567" lon="6.436695"><ele>921.0</ele><time>2026-05-02T09:19:33.279Z</time></trkpt><trkpt lat="43.7409317" lon="6.4366633"><ele>921.0</ele><time>2026-05-02T09:19:34.278Z</time></trkpt><trkpt lat="43.7408017" lon="6.4366283"><ele>921.0</ele><time>2026-05-02T09:19:35.278Z</time></trkpt><trkpt lat="43.740665" lon="6.4365933"><ele>923.25</ele><time>2026-05-02T09:19:36.278Z</time></trkpt><trkpt lat="43.7405317" lon="6.4365567"><ele>925.5</ele><time>2026-05-02T09:19:37.278Z</time></trkpt><trkpt lat="43.7403833" lon="6.43651"><ele>927.75</ele><time>2026-05-02T09:19:38.278Z</time></trkpt><trkpt lat="43.7402317" lon="6.4364517"><ele>930.0</ele><time>2026-05-02T09:19:39.278Z</time></trkpt><trkpt lat="43.7400783" lon="6.43638"><ele>932.3333333333333</ele><time>2026-05-02T09:19:40.278Z</time></trkpt><trkpt lat="43.7399133" lon="6.436315"><ele>934.6666666666666</ele><time>2026-05-02T09:19:41.279Z</time></trkpt><trkpt lat="43.7397333" lon="6.4362567"><ele>937.0</ele><time>2026-05-02T09:19:42.278Z</time></trkpt><trkpt lat="43.7395617" lon="6.436185"><ele>938.3333333333333</ele><time>2026-05-02T09:19:43.278Z</time></trkpt><trkpt lat="43.7394033" lon="6.4360917"><ele>939.6666666666667</ele><time>2026-05-02T09:19:44.279Z</time></trkpt><trkpt lat="43.739235" lon="6.4360017"><ele>941.0</ele><time>2026-05-02T09:19:45.278Z</time></trkpt><trkpt lat="43.7390717" lon="6.4359033"><ele>943.0</ele><time>2026-05-02T09:19:46.278Z</time></trkpt><trkpt lat="43.73891" lon="6.4357833"><ele>945.0</ele><time>2026-05-02T09:19:47.278Z</time></trkpt><trkpt lat="43.7387583" lon="6.4356483"><ele>947.0</ele><time>2026-05-02T09:19:48.278Z</time></trkpt><trkpt lat="43.7386117" lon="6.4355033"><ele>951.3333333333334</ele><time>2026-05-02T09:19:49.278Z</time></trkpt><trkpt lat="43.7384717" lon="6.4353617"><ele>955.6666666666667</ele><time>2026-05-02T09:19:50.278Z</time></trkpt><trkpt lat="43.7383233" lon="6.4352267"><ele>960.0</ele><time>2026-05-02T09:19:51.278Z</time></trkpt><trkpt lat="43.73817" lon="6.435085"><ele>960.0</ele><time>2026-05-02T09:19:52.278Z</time></trkpt><trkpt lat="43.7380233" lon="6.4349383"><ele>960.0</ele><time>2026-05-02T09:19:53.278Z</time></trkpt><trkpt lat="43.737875" lon="6.4348"><ele>960.0</ele><time>2026-05-02T09:19:54.278Z</time></trkpt><trkpt lat="43.73773" lon="6.43466"><ele>963.0</ele><time>2026-05-02T09:19:55.279Z</time></trkpt><trkpt lat="43.7375883" lon="6.4345217"><ele>966.0</ele><time>2026-05-02T09:19:56.278Z</time></trkpt><trkpt lat="43.7374417" lon="6.43439"><ele>969.0</ele><time>2026-05-02T09:19:57.278Z</time></trkpt><trkpt lat="43.737305" lon="6.4342567"><ele>969.0</ele><time>2026-05-02T09:19:58.278Z</time></trkpt><trkpt lat="43.7371733" lon="6.4341183"><ele>969.0</ele><time>2026-05-02T09:19:59.278Z</time></trkpt><trkpt lat="43.7370517" lon="6.4339917"><ele>969.0</ele><time>2026-05-02T09:20:00.278Z</time></trkpt><trkpt lat="43.73694" lon="6.4338867"><ele>970.6</ele><time>2026-05-02T09:20:01.279Z</time></trkpt><trkpt lat="43.7368417" lon="6.4337917"><ele>972.2</ele><time>2026-05-02T09:20:02.278Z</time></trkpt><trkpt lat="43.7367483" lon="6.4337017"><ele>973.8000000000001</ele><time>2026-05-02T09:20:03.278Z</time></trkpt><trkpt lat="43.7366683" lon="6.4336133"><ele>975.4000000000001</ele><time>2026-05-02T09:20:04.279Z</time></trkpt><trkpt lat="43.7365983" lon="6.4335183"><ele>977.0</ele><time>2026-05-02T09:20:05.278Z</time></trkpt><trkpt lat="43.7365383" lon="6.4334233"><ele>977.0</ele><time>2026-05-02T09:20:06.278Z</time></trkpt><trkpt lat="43.736495" lon="6.4333267"><ele>977.0</ele><time>2026-05-02T09:20:07.278Z</time></trkpt><trkpt lat="43.7364667" lon="6.4332117"><ele>977.0</ele><time>2026-05-02T09:20:08.278Z</time></trkpt><trkpt lat="43.7364667" lon="6.4330867"><ele>977.0</ele><time>2026-05-02T09:20:09.279Z</time></trkpt><trkpt lat="43.736485" lon="6.4329533"><ele>977.0</ele><time>2026-05-02T09:20:10.279Z</time></trkpt><trkpt lat="43.736535" lon="6.432795"><ele>976.75</ele><time>2026-05-02T09:20:11.278Z</time></trkpt><trkpt lat="43.7366033" lon="6.4326183"><ele>976.5</ele><time>2026-05-02T09:20:12.278Z</time></trkpt><trkpt lat="43.736675" lon="6.43246"><ele>976.25</ele><time>2026-05-02T09:20:13.278Z</time></trkpt><trkpt lat="43.7367583" lon="6.4323083"><ele>976.0</ele><time>2026-05-02T09:20:14.278Z</time></trkpt><trkpt lat="43.736865" lon="6.4321583"><ele>976.0</ele><time>2026-05-02T09:20:15.278Z</time></trkpt><trkpt lat="43.7369767" lon="6.4320133"><ele>976.0</ele><time>2026-05-02T09:20:16.278Z</time></trkpt><trkpt lat="43.737105" lon="6.4318733"><ele>976.0</ele><time>2026-05-02T09:20:17.279Z</time></trkpt><trkpt lat="43.7372433" lon="6.4317383"><ele>976.0</ele><time>2026-05-02T09:20:18.278Z</time></trkpt><trkpt lat="43.7373833" lon="6.431605"><ele>976.0</ele><time>2026-05-02T09:20:19.278Z</time></trkpt><trkpt lat="43.7375267" lon="6.4314967"><ele>976.0</ele><time>2026-05-02T09:20:20.278Z</time></trkpt><trkpt lat="43.7376683" lon="6.4313983"><ele>976.6666666666666</ele><time>2026-05-02T09:20:21.278Z</time></trkpt><trkpt lat="43.7378233" lon="6.4313017"><ele>977.3333333333333</ele><time>2026-05-02T09:20:22.278Z</time></trkpt><trkpt lat="43.7379667" lon="6.4312017"><ele>978.0</ele><time>2026-05-02T09:20:23.278Z</time></trkpt><trkpt lat="43.7381117" lon="6.4311083"><ele>978.0</ele><time>2026-05-02T09:20:24.278Z</time></trkpt><trkpt lat="43.73825" lon="6.431"><ele>978.0</ele><time>2026-05-02T09:20:25.278Z</time></trkpt><trkpt lat="43.7383767" lon="6.4308767"><ele>978.0</ele><time>2026-05-02T09:20:26.279Z</time></trkpt><trkpt lat="43.7385033" lon="6.4307367"><ele>977.6666666666667</ele><time>2026-05-02T09:20:27.278Z</time></trkpt><trkpt lat="43.7386283" lon="6.430565"><ele>977.3333333333334</ele><time>2026-05-02T09:20:28.278Z</time></trkpt><trkpt lat="43.738745" lon="6.430395"><ele>977.0</ele><time>2026-05-02T09:20:29.278Z</time></trkpt><trkpt lat="43.7388383" lon="6.4302267"><ele>977.6666666666667</ele><time>2026-05-02T09:20:30.278Z</time></trkpt><trkpt lat="43.7389167" lon="6.4300383"><ele>978.3333333333333</ele><time>2026-05-02T09:20:31.278Z</time></trkpt><trkpt lat="43.7389767" lon="6.4298383"><ele>979.0</ele><time>2026-05-02T09:20:32.278Z</time></trkpt><trkpt lat="43.7390133" lon="6.4296083"><ele>979.3333333333333</ele><time>2026-05-02T09:20:33.279Z</time></trkpt><trkpt lat="43.739045" lon="6.4293583"><ele>979.6666666666667</ele><time>2026-05-02T09:20:34.278Z</time></trkpt><trkpt lat="43.7390817" lon="6.429125"><ele>980.0</ele><time>2026-05-02T09:20:35.278Z</time></trkpt><trkpt lat="43.7391183" lon="6.4289117"><ele>981.0</ele><time>2026-05-02T09:20:36.278Z</time></trkpt><trkpt lat="43.73917" lon="6.4287083"><ele>982.0</ele><time>2026-05-02T09:20:37.278Z</time></trkpt><trkpt lat="43.739245" lon="6.42854"><ele>983.0</ele><time>2026-05-02T09:20:38.278Z</time></trkpt><trkpt lat="43.7393383" lon="6.42837"><ele>982.6666666666667</ele><time>2026-05-02T09:20:39.278Z</time></trkpt><trkpt lat="43.7394467" lon="6.4282"><ele>982.3333333333333</ele><time>2026-05-02T09:20:40.278Z</time></trkpt><trkpt lat="43.739565" lon="6.4280317"><ele>982.0</ele><time>2026-05-02T09:20:41.278Z</time></trkpt><trkpt lat="43.7396883" lon="6.427875"><ele>982.0</ele><time>2026-05-02T09:20:42.279Z</time></trkpt><trkpt lat="43.7397967" lon="6.4277133"><ele>982.0</ele><time>2026-05-02T09:20:43.278Z</time></trkpt><trkpt lat="43.739905" lon="6.4275383"><ele>982.0</ele><time>2026-05-02T09:20:44.279Z</time></trkpt><trkpt lat="43.7399983" lon="6.427365"><ele>982.0</ele><time>2026-05-02T09:20:45.278Z</time></trkpt><trkpt lat="43.740085" lon="6.4271833"><ele>982.0</ele><time>2026-05-02T09:20:46.278Z</time></trkpt><trkpt lat="43.74016" lon="6.4269733"><ele>982.0</ele><time>2026-05-02T09:20:47.278Z</time></trkpt><trkpt lat="43.7402167" lon="6.4267633"><ele>981.6666666666666</ele><time>2026-05-02T09:20:48.278Z</time></trkpt><trkpt lat="43.7402983" lon="6.4265533"><ele>981.3333333333333</ele><time>2026-05-02T09:20:49.278Z</time></trkpt><trkpt lat="43.7404117" lon="6.4263717"><ele>981.0</ele><time>2026-05-02T09:20:50.278Z</time></trkpt><trkpt lat="43.74055" lon="6.4262117"><ele>983.3333333333333</ele><time>2026-05-02T09:20:51.279Z</time></trkpt><trkpt lat="43.7407" lon="6.42608"><ele>985.6666666666666</ele><time>2026-05-02T09:20:52.278Z</time></trkpt><trkpt lat="43.74084" lon="6.4259383"><ele>988.0</ele><time>2026-05-02T09:20:53.278Z</time></trkpt><trkpt lat="43.7409733" lon="6.42579"><ele>987.6666666666666</ele><time>2026-05-02T09:20:54.278Z</time></trkpt><trkpt lat="43.741095" lon="6.425635"><ele>987.3333333333333</ele><time>2026-05-02T09:20:55.278Z</time></trkpt><trkpt lat="43.7412217" lon="6.4254717"><ele>987.0</ele><time>2026-05-02T09:20:56.279Z</time></trkpt><trkpt lat="43.74135" lon="6.4253033"><ele>987.0</ele><time>2026-05-02T09:20:57.278Z</time></trkpt><trkpt lat="43.741475" lon="6.4251367"><ele>987.0</ele><time>2026-05-02T09:20:58.279Z</time></trkpt><trkpt lat="43.7415917" lon="6.42496"><ele>987.0</ele><time>2026-05-02T09:20:59.278Z</time></trkpt><trkpt lat="43.7417017" lon="6.42478"><ele>986.6666666666667</ele><time>2026-05-02T09:21:00.278Z</time></trkpt><trkpt lat="43.7418033" lon="6.4245883"><ele>986.3333333333334</ele><time>2026-05-02T09:21:01.278Z</time></trkpt><trkpt lat="43.7419083" lon="6.424395"><ele>986.0</ele><time>2026-05-02T09:21:02.278Z</time></trkpt><trkpt lat="43.7420067" lon="6.4242083"><ele>986.0</ele><time>2026-05-02T09:21:03.278Z</time></trkpt><trkpt lat="43.7421067" lon="6.42402"><ele>986.0</ele><time>2026-05-02T09:21:04.278Z</time></trkpt><trkpt lat="43.7422133" lon="6.4238267"><ele>986.0</ele><time>2026-05-02T09:21:05.278Z</time></trkpt><trkpt lat="43.742315" lon="6.4236417"><ele>987.0</ele><time>2026-05-02T09:21:06.278Z</time></trkpt><trkpt lat="43.7424167" lon="6.4234567"><ele>988.0</ele><time>2026-05-02T09:21:07.278Z</time></trkpt><trkpt lat="43.74251" lon="6.4232867"><ele>989.0</ele><time>2026-05-02T09:21:08.278Z</time></trkpt><trkpt lat="43.7426133" lon="6.4231417"><ele>988.3333333333334</ele><time>2026-05-02T09:21:09.278Z</time></trkpt><trkpt lat="43.7427367" lon="6.4230033"><ele>987.6666666666667</ele><time>2026-05-02T09:21:10.278Z</time></trkpt><trkpt lat="43.742875" lon="6.422895"><ele>987.0</ele><time>2026-05-02T09:21:11.279Z</time></trkpt><trkpt lat="43.7430183" lon="6.4228183"><ele>989.0</ele><time>2026-05-02T09:21:12.278Z</time></trkpt><trkpt lat="43.74319" lon="6.4227617"><ele>991.0</ele><time>2026-05-02T09:21:13.279Z</time></trkpt><trkpt lat="43.7433617" lon="6.4227417"><ele>993.0</ele><time>2026-05-02T09:21:14.278Z</time></trkpt><trkpt lat="43.74353" lon="6.4227367"><ele>993.3333333333333</ele><time>2026-05-02T09:21:15.278Z</time></trkpt><trkpt lat="43.743695" lon="6.4227183"><ele>993.6666666666666</ele><time>2026-05-02T09:21:16.278Z</time></trkpt><trkpt lat="43.7438433" lon="6.4226867"><ele>994.0</ele><time>2026-05-02T09:21:17.278Z</time></trkpt><trkpt lat="43.7439983" lon="6.4226383"><ele>994.0</ele><time>2026-05-02T09:21:18.278Z</time></trkpt><trkpt lat="43.7441467" lon="6.4225733"><ele>994.0</ele><time>2026-05-02T09:21:19.279Z</time></trkpt><trkpt lat="43.7443033" lon="6.4224883"><ele>994.0</ele><time>2026-05-02T09:21:20.278Z</time></trkpt><trkpt lat="43.744445" lon="6.4223817"><ele>994.0</ele><time>2026-05-02T09:21:21.278Z</time></trkpt><trkpt lat="43.7445783" lon="6.4222483"><ele>994.0</ele><time>2026-05-02T09:21:22.278Z</time></trkpt><trkpt lat="43.7446983" lon="6.4220933"><ele>994.0</ele><time>2026-05-02T09:21:23.278Z</time></trkpt><trkpt lat="43.7448083" lon="6.42192"><ele>994.0</ele><time>2026-05-02T09:21:24.278Z</time></trkpt><trkpt lat="43.7448983" lon="6.4217417"><ele>994.0</ele><time>2026-05-02T09:21:25.278Z</time></trkpt><trkpt lat="43.74498" lon="6.4215583"><ele>994.0</ele><time>2026-05-02T09:21:26.278Z</time></trkpt><trkpt lat="43.7450583" lon="6.4213917"><ele>994.25</ele><time>2026-05-02T09:21:27.279Z</time></trkpt><trkpt lat="43.7451483" lon="6.4212333"><ele>994.5</ele><time>2026-05-02T09:21:28.278Z</time></trkpt><trkpt lat="43.7452533" lon="6.4210967"><ele>994.75</ele><time>2026-05-02T09:21:29.278Z</time></trkpt><trkpt lat="43.74538" lon="6.42099"><ele>995.0</ele><time>2026-05-02T09:21:30.278Z</time></trkpt><trkpt lat="43.7455117" lon="6.4208867"><ele>995.0</ele><time>2026-05-02T09:21:31.278Z</time></trkpt><trkpt lat="43.7456433" lon="6.4207767"><ele>995.0</ele><time>2026-05-02T09:21:32.278Z</time></trkpt><trkpt lat="43.7457783" lon="6.4206583"><ele>995.0</ele><time>2026-05-02T09:21:33.278Z</time></trkpt><trkpt lat="43.7459133" lon="6.4205383"><ele>995.3333333333334</ele><time>2026-05-02T09:21:34.278Z</time></trkpt><trkpt lat="43.7460417" lon="6.420425"><ele>995.6666666666667</ele><time>2026-05-02T09:21:35.278Z</time></trkpt><trkpt lat="43.74618" lon="6.4203067"><ele>996.0</ele><time>2026-05-02T09:21:36.278Z</time></trkpt><trkpt lat="43.746315" lon="6.4201817"><ele>996.0</ele><time>2026-05-02T09:21:37.278Z</time></trkpt><trkpt lat="43.7464467" lon="6.4200633"><ele>996.0</ele><time>2026-05-02T09:21:38.278Z</time></trkpt><trkpt lat="43.7465783" lon="6.4199533"><ele>996.0</ele><time>2026-05-02T09:21:39.278Z</time></trkpt><trkpt lat="43.74671" lon="6.41984"><ele>996.0</ele><time>2026-05-02T09:21:40.278Z</time></trkpt><trkpt lat="43.7468383" lon="6.4197183"><ele>996.0</ele><time>2026-05-02T09:21:41.278Z</time></trkpt><trkpt lat="43.746965" lon="6.41959"><ele>996.0</ele><time>2026-05-02T09:21:42.278Z</time></trkpt><trkpt lat="43.7470833" lon="6.4194483"><ele>997.3333333333333</ele><time>2026-05-02T09:21:43.279Z</time></trkpt><trkpt lat="43.7472083" lon="6.4193117"><ele>998.6666666666666</ele><time>2026-05-02T09:21:44.278Z</time></trkpt><trkpt lat="43.7473467" lon="6.4191767"><ele>1000.0</ele><time>2026-05-02T09:21:45.278Z</time></trkpt><trkpt lat="43.7475017" lon="6.4190833"><ele>1000.0</ele><time>2026-05-02T09:21:46.279Z</time></trkpt><trkpt lat="43.7476633" lon="6.41902"><ele>1000.0</ele><time>2026-05-02T09:21:47.278Z</time></trkpt><trkpt lat="43.7478383" lon="6.4189617"><ele>1000.0</ele><time>2026-05-02T09:21:48.278Z</time></trkpt><trkpt lat="43.7479917" lon="6.418925"><ele>999.0</ele><time>2026-05-02T09:21:49.278Z</time></trkpt><trkpt lat="43.748145" lon="6.4188833"><ele>998.0</ele><time>2026-05-02T09:21:50.278Z</time></trkpt><trkpt lat="43.7482967" lon="6.418845"><ele>997.0</ele><time>2026-05-02T09:21:51.278Z</time></trkpt><trkpt lat="43.748455" lon="6.41884"><ele>997.6666666666666</ele><time>2026-05-02T09:21:52.278Z</time></trkpt><trkpt lat="43.7486133" lon="6.4188867"><ele>998.3333333333333</ele><time>2026-05-02T09:21:53.279Z</time></trkpt><trkpt lat="43.7487683" lon="6.4189733"><ele>999.0</ele><time>2026-05-02T09:21:54.278Z</time></trkpt><trkpt lat="43.74892" lon="6.4190717"><ele>999.0</ele><time>2026-05-02T09:21:55.278Z</time></trkpt><trkpt lat="43.74906" lon="6.41916"><ele>999.0</ele><time>2026-05-02T09:21:56.278Z</time></trkpt><trkpt lat="43.7492067" lon="6.419225"><ele>999.0</ele><time>2026-05-02T09:21:57.278Z</time></trkpt><trkpt lat="43.749355" lon="6.41928"><ele>1000.3333333333333</ele><time>2026-05-02T09:21:58.278Z</time></trkpt><trkpt lat="43.7495083" lon="6.4193133"><ele>1001.6666666666666</ele><time>2026-05-02T09:21:59.278Z</time></trkpt><trkpt lat="43.7496683" lon="6.4193333"><ele>1003.0</ele><time>2026-05-02T09:22:00.278Z</time></trkpt><trkpt lat="43.7498267" lon="6.4193433"><ele>1003.0</ele><time>2026-05-02T09:22:01.278Z</time></trkpt><trkpt lat="43.7499817" lon="6.419345"><ele>1003.0</ele><time>2026-05-02T09:22:02.278Z</time></trkpt><trkpt lat="43.7501367" lon="6.4193317"><ele>1003.0</ele><time>2026-05-02T09:22:03.279Z</time></trkpt><trkpt lat="43.7502933" lon="6.4193217"><ele>1002.75</ele><time>2026-05-02T09:22:04.279Z</time></trkpt><trkpt lat="43.7504417" lon="6.419315"><ele>1002.5</ele><time>2026-05-02T09:22:05.278Z</time></trkpt><trkpt lat="43.7505817" lon="6.4192933"><ele>1002.25</ele><time>2026-05-02T09:22:06.278Z</time></trkpt><trkpt lat="43.7507233" lon="6.419245"><ele>1002.0</ele><time>2026-05-02T09:22:07.278Z</time></trkpt><trkpt lat="43.7508717" lon="6.4191733"><ele>1002.0</ele><time>2026-05-02T09:22:08.278Z</time></trkpt><trkpt lat="43.7510117" lon="6.4190667"><ele>1002.0</ele><time>2026-05-02T09:22:09.278Z</time></trkpt><trkpt lat="43.7511533" lon="6.4189333"><ele>1002.0</ele><time>2026-05-02T09:22:10.278Z</time></trkpt><trkpt lat="43.7512933" lon="6.4187917"><ele>1002.0</ele><time>2026-05-02T09:22:11.278Z</time></trkpt><trkpt lat="43.7514183" lon="6.418645"><ele>1002.0</ele><time>2026-05-02T09:22:12.278Z</time></trkpt><trkpt lat="43.7515317" lon="6.4184767"><ele>1002.0</ele><time>2026-05-02T09:22:13.279Z</time></trkpt><trkpt lat="43.751635" lon="6.4183033"><ele>1002.0</ele><time>2026-05-02T09:22:14.278Z</time></trkpt><trkpt lat="43.7517183" lon="6.4181183"><ele>1002.0</ele><time>2026-05-02T09:22:15.278Z</time></trkpt><trkpt lat="43.7517917" lon="6.41793"><ele>1002.0</ele><time>2026-05-02T09:22:16.278Z</time></trkpt><trkpt lat="43.751855" lon="6.4177383"><ele>1003.0</ele><time>2026-05-02T09:22:17.279Z</time></trkpt><trkpt lat="43.7518983" lon="6.4175383"><ele>1004.0</ele><time>2026-05-02T09:22:18.278Z</time></trkpt><trkpt lat="43.7519067" lon="6.417325"><ele>1005.0</ele><time>2026-05-02T09:22:19.278Z</time></trkpt><trkpt lat="43.75189" lon="6.4171217"><ele>1005.6666666666667</ele><time>2026-05-02T09:22:20.278Z</time></trkpt><trkpt lat="43.75187" lon="6.416895"><ele>1006.3333333333334</ele><time>2026-05-02T09:22:21.278Z</time></trkpt><trkpt lat="43.7518483" lon="6.4166767"><ele>1007.0</ele><time>2026-05-02T09:22:22.278Z</time></trkpt><trkpt lat="43.751815" lon="6.4164667"><ele>1008.6666666666667</ele><time>2026-05-02T09:22:23.278Z</time></trkpt><trkpt lat="43.7517383" lon="6.4162717"><ele>1010.3333333333333</ele><time>2026-05-02T09:22:24.279Z</time></trkpt><trkpt lat="43.7516633" lon="6.4160817"><ele>1012.0</ele><time>2026-05-02T09:22:25.278Z</time></trkpt><trkpt lat="43.7515733" lon="6.4159033"><ele>1012.0</ele><time>2026-05-02T09:22:26.278Z</time></trkpt><trkpt lat="43.7514817" lon="6.4157283"><ele>1012.0</ele><time>2026-05-02T09:22:27.279Z</time></trkpt><trkpt lat="43.75139" lon="6.4155533"><ele>1012.0</ele><time>2026-05-02T09:22:28.278Z</time></trkpt><trkpt lat="43.7513217" lon="6.4153767"><ele>1012.75</ele><time>2026-05-02T09:22:29.279Z</time></trkpt><trkpt lat="43.7512683" lon="6.4151933"><ele>1013.5</ele><time>2026-05-02T09:22:30.279Z</time></trkpt><trkpt lat="43.7512517" lon="6.4150167"><ele>1014.25</ele><time>2026-05-02T09:22:31.278Z</time></trkpt><trkpt lat="43.7512783" lon="6.4148283"><ele>1015.0</ele><time>2026-05-02T09:22:32.278Z</time></trkpt><trkpt lat="43.75132" lon="6.4146633"><ele>1013.25</ele><time>2026-05-02T09:22:33.278Z</time></trkpt><trkpt lat="43.7513733" lon="6.41449"><ele>1011.5</ele><time>2026-05-02T09:22:34.278Z</time></trkpt><trkpt lat="43.751445" lon="6.4143217"><ele>1009.75</ele><time>2026-05-02T09:22:35.278Z</time></trkpt><trkpt lat="43.7515383" lon="6.4141733"><ele>1008.0</ele><time>2026-05-02T09:22:36.279Z</time></trkpt><trkpt lat="43.751645" lon="6.4140517"><ele>1008.0</ele><time>2026-05-02T09:22:37.278Z</time></trkpt><trkpt lat="43.7517617" lon="6.4139533"><ele>1008.0</ele><time>2026-05-02T09:22:38.278Z</time></trkpt><trkpt lat="43.7518917" lon="6.41385"><ele>1008.0</ele><time>2026-05-02T09:22:39.278Z</time></trkpt><trkpt lat="43.7520083" lon="6.4137317"><ele>1008.0</ele><time>2026-05-02T09:22:40.278Z</time></trkpt><trkpt lat="43.7521133" lon="6.4136"><ele>1006.5</ele><time>2026-05-02T09:22:41.278Z</time></trkpt><trkpt lat="43.752175" lon="6.4134267"><ele>1005.0</ele><time>2026-05-02T09:22:42.279Z</time></trkpt><trkpt lat="43.7522033" lon="6.41322"><ele>1003.5</ele><time>2026-05-02T09:22:43.278Z</time></trkpt><trkpt lat="43.7522017" lon="6.4130233"><ele>1002.0</ele><time>2026-05-02T09:22:44.278Z</time></trkpt><trkpt lat="43.7521933" lon="6.4128033"><ele>1002.0</ele><time>2026-05-02T09:22:45.278Z</time></trkpt><trkpt lat="43.7521917" lon="6.4125783"><ele>1002.0</ele><time>2026-05-02T09:22:46.278Z</time></trkpt><trkpt lat="43.752185" lon="6.4123567"><ele>1002.0</ele><time>2026-05-02T09:22:47.278Z</time></trkpt><trkpt lat="43.7521817" lon="6.4121433"><ele>1001.6666666666667</ele><time>2026-05-02T09:22:48.279Z</time></trkpt><trkpt lat="43.75218" lon="6.4119317"><ele>1001.3333333333334</ele><time>2026-05-02T09:22:49.278Z</time></trkpt><trkpt lat="43.7521767" lon="6.4117083"><ele>1001.0</ele><time>2026-05-02T09:22:50.279Z</time></trkpt><trkpt lat="43.7521717" lon="6.4114883"><ele>999.0</ele><time>2026-05-02T09:22:51.279Z</time></trkpt><trkpt lat="43.752165" lon="6.4112617"><ele>997.0</ele><time>2026-05-02T09:22:52.278Z</time></trkpt><trkpt lat="43.75216" lon="6.4110367"><ele>995.0</ele><time>2026-05-02T09:22:53.278Z</time></trkpt><trkpt lat="43.7521567" lon="6.4108117"><ele>995.0</ele><time>2026-05-02T09:22:54.278Z</time></trkpt><trkpt lat="43.75217" lon="6.4105967"><ele>995.0</ele><time>2026-05-02T09:22:55.278Z</time></trkpt><trkpt lat="43.7522017" lon="6.410375"><ele>995.0</ele><time>2026-05-02T09:22:56.278Z</time></trkpt><trkpt lat="43.7522383" lon="6.410165"><ele>993.3333333333334</ele><time>2026-05-02T09:22:57.278Z</time></trkpt><trkpt lat="43.75229" lon="6.4099483"><ele>991.6666666666667</ele><time>2026-05-02T09:22:58.278Z</time></trkpt><trkpt lat="43.75234" lon="6.409735"><ele>990.0</ele><time>2026-05-02T09:22:59.278Z</time></trkpt><trkpt lat="43.752385" lon="6.4095317"><ele>988.0</ele><time>2026-05-02T09:23:00.278Z</time></trkpt><trkpt lat="43.7524333" lon="6.4093183"><ele>986.0</ele><time>2026-05-02T09:23:01.279Z</time></trkpt><trkpt lat="43.75248" lon="6.40911"><ele>984.0</ele><time>2026-05-02T09:23:02.278Z</time></trkpt><trkpt lat="43.7525217" lon="6.4089017"><ele>982.6666666666667</ele><time>2026-05-02T09:23:03.278Z</time></trkpt><trkpt lat="43.752565" lon="6.40869"><ele>981.3333333333334</ele><time>2026-05-02T09:23:04.278Z</time></trkpt><trkpt lat="43.7526133" lon="6.408465"><ele>980.0</ele><time>2026-05-02T09:23:05.278Z</time></trkpt><trkpt lat="43.752645" lon="6.4082583"><ele>980.0</ele><time>2026-05-02T09:23:06.278Z</time></trkpt><trkpt lat="43.75267" lon="6.4080417"><ele>980.0</ele><time>2026-05-02T09:23:07.278Z</time></trkpt><trkpt lat="43.7526733" lon="6.407815"><ele>980.0</ele><time>2026-05-02T09:23:08.279Z</time></trkpt><trkpt lat="43.7526667" lon="6.4076017"><ele>980.0</ele><time>2026-05-02T09:23:09.278Z</time></trkpt><trkpt lat="43.75265" lon="6.4073917"><ele>980.0</ele><time>2026-05-02T09:23:10.279Z</time></trkpt><trkpt lat="43.7526333" lon="6.4071833"><ele>980.0</ele><time>2026-05-02T09:23:11.279Z</time></trkpt><trkpt lat="43.7526217" lon="6.4069717"><ele>979.6666666666667</ele><time>2026-05-02T09:23:12.278Z</time></trkpt><trkpt lat="43.7526133" lon="6.4067567"><ele>979.3333333333333</ele><time>2026-05-02T09:23:13.278Z</time></trkpt><trkpt lat="43.752605" lon="6.4065333"><ele>979.0</ele><time>2026-05-02T09:23:14.278Z</time></trkpt><trkpt lat="43.752595" lon="6.4063133"><ele>979.0</ele><time>2026-05-02T09:23:15.278Z</time></trkpt><trkpt lat="43.75259" lon="6.406105"><ele>979.0</ele><time>2026-05-02T09:23:16.278Z</time></trkpt><trkpt lat="43.7525817" lon="6.4059083"><ele>979.0</ele><time>2026-05-02T09:23:17.278Z</time></trkpt><trkpt lat="43.7525883" lon="6.4057083"><ele>979.0</ele><time>2026-05-02T09:23:18.278Z</time></trkpt><trkpt lat="43.7526067" lon="6.40553"><ele>978.25</ele><time>2026-05-02T09:23:19.279Z</time></trkpt><trkpt lat="43.7526517" lon="6.4053433"><ele>977.5</ele><time>2026-05-02T09:23:20.278Z</time></trkpt><trkpt lat="43.7527117" lon="6.4051633"><ele>976.75</ele><time>2026-05-02T09:23:21.278Z</time></trkpt><trkpt lat="43.7527767" lon="6.4049883"><ele>976.0</ele><time>2026-05-02T09:23:22.279Z</time></trkpt><trkpt lat="43.7528383" lon="6.4048017"><ele>979.0</ele><time>2026-05-02T09:23:23.278Z</time></trkpt><trkpt lat="43.7529" lon="6.4046183"><ele>982.0</ele><time>2026-05-02T09:23:24.279Z</time></trkpt><trkpt lat="43.7529583" lon="6.4044317"><ele>985.0</ele><time>2026-05-02T09:23:25.278Z</time></trkpt><trkpt lat="43.7530117" lon="6.4042483"><ele>988.0</ele><time>2026-05-02T09:23:26.279Z</time></trkpt><trkpt lat="43.7530583" lon="6.4040483"><ele>988.0</ele><time>2026-05-02T09:23:27.278Z</time></trkpt><trkpt lat="43.7530817" lon="6.403835"><ele>988.0</ele><time>2026-05-02T09:23:28.279Z</time></trkpt><trkpt lat="43.7531017" lon="6.4036267"><ele>988.0</ele><time>2026-05-02T09:23:29.278Z</time></trkpt><trkpt lat="43.7531217" lon="6.4034183"><ele>986.75</ele><time>2026-05-02T09:23:30.278Z</time></trkpt><trkpt lat="43.75314" lon="6.4032283"><ele>985.5</ele><time>2026-05-02T09:23:31.278Z</time></trkpt><trkpt lat="43.7531467" lon="6.403045"><ele>984.25</ele><time>2026-05-02T09:23:32.278Z</time></trkpt><trkpt lat="43.7531383" lon="6.40288"><ele>983.0</ele><time>2026-05-02T09:23:33.278Z</time></trkpt><trkpt lat="43.7531017" lon="6.4027217"><ele>983.0</ele><time>2026-05-02T09:23:34.278Z</time></trkpt><trkpt lat="43.75303" lon="6.402555"><ele>983.0</ele><time>2026-05-02T09:23:35.278Z</time></trkpt><trkpt lat="43.75294" lon="6.4023733"><ele>983.0</ele><time>2026-05-02T09:23:36.278Z</time></trkpt><trkpt lat="43.752845" lon="6.4022"><ele>986.6666666666667</ele><time>2026-05-02T09:23:37.278Z</time></trkpt><trkpt lat="43.752745" lon="6.4020333"><ele>990.3333333333333</ele><time>2026-05-02T09:23:38.278Z</time></trkpt><trkpt lat="43.7526533" lon="6.40185"><ele>994.0</ele><time>2026-05-02T09:23:39.278Z</time></trkpt><trkpt lat="43.7525567" lon="6.40167"><ele>990.0</ele><time>2026-05-02T09:23:40.279Z</time></trkpt><trkpt lat="43.7524583" lon="6.4014817"><ele>986.0</ele><time>2026-05-02T09:23:41.278Z</time></trkpt><trkpt lat="43.7523667" lon="6.401305"><ele>982.0</ele><time>2026-05-02T09:23:42.278Z</time></trkpt><trkpt lat="43.752295" lon="6.4011333"><ele>982.0</ele><time>2026-05-02T09:23:43.278Z</time></trkpt><trkpt lat="43.75221" lon="6.4009767"><ele>982.0</ele><time>2026-05-02T09:23:44.278Z</time></trkpt><trkpt lat="43.7521067" lon="6.4008717"><ele>982.0</ele><time>2026-05-02T09:23:45.278Z</time></trkpt><trkpt lat="43.7519833" lon="6.4008133"><ele>982.0</ele><time>2026-05-02T09:23:46.278Z</time></trkpt><trkpt lat="43.751835" lon="6.4007567"><ele>980.0</ele><time>2026-05-02T09:23:47.279Z</time></trkpt><trkpt lat="43.751695" lon="6.4006733"><ele>978.0</ele><time>2026-05-02T09:23:48.278Z</time></trkpt><trkpt lat="43.7515567" lon="6.4005717"><ele>976.0</ele><time>2026-05-02T09:23:49.278Z</time></trkpt><trkpt lat="43.7514233" lon="6.4004767"><ele>976.0</ele><time>2026-05-02T09:23:50.278Z</time></trkpt><trkpt lat="43.75131" lon="6.40036"><ele>976.0</ele><time>2026-05-02T09:23:51.278Z</time></trkpt><trkpt lat="43.7512067" lon="6.4002283"><ele>976.0</ele><time>2026-05-02T09:23:52.278Z</time></trkpt><trkpt lat="43.7511383" lon="6.4000733"><ele>976.0</ele><time>2026-05-02T09:23:53.278Z</time></trkpt><trkpt lat="43.7510967" lon="6.3998867"><ele>972.5</ele><time>2026-05-02T09:23:54.278Z</time></trkpt><trkpt lat="43.7510383" lon="6.399725"><ele>969.0</ele><time>2026-05-02T09:23:55.278Z</time></trkpt><trkpt lat="43.7509417" lon="6.3995917"><ele>965.5</ele><time>2026-05-02T09:23:56.278Z</time></trkpt><trkpt lat="43.750825" lon="6.3994667"><ele>962.0</ele><time>2026-05-02T09:23:57.279Z</time></trkpt><trkpt lat="43.75069" lon="6.39934"><ele>962.0</ele><time>2026-05-02T09:23:58.278Z</time></trkpt><trkpt lat="43.75056" lon="6.399195"><ele>962.0</ele><time>2026-05-02T09:23:59.278Z</time></trkpt><trkpt lat="43.7504283" lon="6.39905"><ele>962.0</ele><time>2026-05-02T09:24:00.278Z</time></trkpt><trkpt lat="43.7502983" lon="6.3989033"><ele>956.0</ele><time>2026-05-02T09:24:01.278Z</time></trkpt><trkpt lat="43.7501733" lon="6.3987617"><ele>950.0</ele><time>2026-05-02T09:24:02.278Z</time></trkpt><trkpt lat="43.7500533" lon="6.3986117"><ele>944.0</ele><time>2026-05-02T09:24:03.278Z</time></trkpt><trkpt lat="43.7499433" lon="6.3984467"><ele>944.0</ele><time>2026-05-02T09:24:04.279Z</time></trkpt><trkpt lat="43.749845" lon="6.3982733"><ele>944.0</ele><time>2026-05-02T09:24:05.278Z</time></trkpt><trkpt lat="43.749755" lon="6.3981133"><ele>944.0</ele><time>2026-05-02T09:24:06.278Z</time></trkpt><trkpt lat="43.7496583" lon="6.3979433"><ele>941.0</ele><time>2026-05-02T09:24:07.278Z</time></trkpt><trkpt lat="43.7495433" lon="6.3978017"><ele>938.0</ele><time>2026-05-02T09:24:08.278Z</time></trkpt><trkpt lat="43.7494283" lon="6.3977117"><ele>935.0</ele><time>2026-05-02T09:24:09.278Z</time></trkpt><trkpt lat="43.7492967" lon="6.397615"><ele>932.0</ele><time>2026-05-02T09:24:10.278Z</time></trkpt><trkpt lat="43.7491783" lon="6.3975067"><ele>932.0</ele><time>2026-05-02T09:24:11.279Z</time></trkpt><trkpt lat="43.7490783" lon="6.397375"><ele>932.0</ele><time>2026-05-02T09:24:12.278Z</time></trkpt><trkpt lat="43.74901" lon="6.3972117"><ele>932.0</ele><time>2026-05-02T09:24:13.278Z</time></trkpt><trkpt lat="43.74896" lon="6.3970283"><ele>932.0</ele><time>2026-05-02T09:24:14.278Z</time></trkpt><trkpt lat="43.748925" lon="6.396845"><ele>934.6666666666667</ele><time>2026-05-02T09:24:15.278Z</time></trkpt><trkpt lat="43.74887" lon="6.3966567"><ele>937.3333333333333</ele><time>2026-05-02T09:24:16.278Z</time></trkpt><trkpt lat="43.7487967" lon="6.39647"><ele>940.0</ele><time>2026-05-02T09:24:17.278Z</time></trkpt><trkpt lat="43.7487233" lon="6.3962783"><ele>943.6666666666666</ele><time>2026-05-02T09:24:18.278Z</time></trkpt><trkpt lat="43.748645" lon="6.3960883"><ele>947.3333333333333</ele><time>2026-05-02T09:24:19.278Z</time></trkpt><trkpt lat="43.74856" lon="6.39592"><ele>951.0</ele><time>2026-05-02T09:24:20.278Z</time></trkpt><trkpt lat="43.7484683" lon="6.3957617"><ele>941.3333333333333</ele><time>2026-05-02T09:24:21.278Z</time></trkpt><trkpt lat="43.74837" lon="6.3956067"><ele>931.6666666666666</ele><time>2026-05-02T09:24:22.278Z</time></trkpt><trkpt lat="43.74827" lon="6.395445"><ele>922.0</ele><time>2026-05-02T09:24:23.278Z</time></trkpt><trkpt lat="43.7481817" lon="6.3952783"><ele>922.0</ele><time>2026-05-02T09:24:24.278Z</time></trkpt><trkpt lat="43.748085" lon="6.3951117"><ele>922.0</ele><time>2026-05-02T09:24:25.279Z</time></trkpt><trkpt lat="43.747985" lon="6.3949467"><ele>922.0</ele><time>2026-05-02T09:24:26.278Z</time></trkpt><trkpt lat="43.7478833" lon="6.3947733"><ele>924.0</ele><time>2026-05-02T09:24:27.278Z</time></trkpt><trkpt lat="43.7477783" lon="6.3945967"><ele>926.0</ele><time>2026-05-02T09:24:28.278Z</time></trkpt><trkpt lat="43.7476783" lon="6.3944267"><ele>928.0</ele><time>2026-05-02T09:24:29.278Z</time></trkpt><trkpt lat="43.7475933" lon="6.394235"><ele>921.3333333333333</ele><time>2026-05-02T09:24:30.278Z</time></trkpt><trkpt lat="43.7475067" lon="6.3940467"><ele>914.6666666666667</ele><time>2026-05-02T09:24:31.278Z</time></trkpt><trkpt lat="43.7474167" lon="6.3938567"><ele>908.0</ele><time>2026-05-02T09:24:32.279Z</time></trkpt><trkpt lat="43.7473283" lon="6.3936567"><ele>908.0</ele><time>2026-05-02T09:24:33.278Z</time></trkpt><trkpt lat="43.74724" lon="6.3934667"><ele>908.0</ele><time>2026-05-02T09:24:34.279Z</time></trkpt><trkpt lat="43.7471433" lon="6.3932917"><ele>908.0</ele><time>2026-05-02T09:24:35.278Z</time></trkpt><trkpt lat="43.7470517" lon="6.393115"><ele>908.3333333333334</ele><time>2026-05-02T09:24:36.278Z</time></trkpt><trkpt lat="43.746955" lon="6.3929417"><ele>908.6666666666667</ele><time>2026-05-02T09:24:37.278Z</time></trkpt><trkpt lat="43.7468533" lon="6.3927867"><ele>909.0</ele><time>2026-05-02T09:24:38.278Z</time></trkpt><trkpt lat="43.7467417" lon="6.3926667"><ele>905.5</ele><time>2026-05-02T09:24:39.278Z</time></trkpt><trkpt lat="43.7466333" lon="6.39256"><ele>902.0</ele><time>2026-05-02T09:24:40.278Z</time></trkpt><trkpt lat="43.7465083" lon="6.3924817"><ele>898.5</ele><time>2026-05-02T09:24:41.278Z</time></trkpt><trkpt lat="43.746385" lon="6.3924517"><ele>895.0</ele><time>2026-05-02T09:24:42.278Z</time></trkpt><trkpt lat="43.7462467" lon="6.3924183"><ele>895.0</ele><time>2026-05-02T09:24:43.278Z</time></trkpt><trkpt lat="43.7461183" lon="6.3923633"><ele>895.0</ele><time>2026-05-02T09:24:44.278Z</time></trkpt><trkpt lat="43.746" lon="6.3922617"><ele>895.0</ele><time>2026-05-02T09:24:45.278Z</time></trkpt><trkpt lat="43.7459033" lon="6.39212"><ele>895.0</ele><time>2026-05-02T09:24:46.278Z</time></trkpt><trkpt lat="43.7458283" lon="6.3919467"><ele>891.0</ele><time>2026-05-02T09:24:47.278Z</time></trkpt><trkpt lat="43.745765" lon="6.3917483"><ele>887.0</ele><time>2026-05-02T09:24:48.278Z</time></trkpt><trkpt lat="43.74571" lon="6.3915433"><ele>883.0</ele><time>2026-05-02T09:24:49.278Z</time></trkpt><trkpt lat="43.7456517" lon="6.3913433"><ele>882.5</ele><time>2026-05-02T09:24:50.278Z</time></trkpt><trkpt lat="43.7455917" lon="6.391155"><ele>882.0</ele><time>2026-05-02T09:24:51.278Z</time></trkpt><trkpt lat="43.7455233" lon="6.3909933"><ele>881.5</ele><time>2026-05-02T09:24:52.278Z</time></trkpt><trkpt lat="43.7454317" lon="6.3908633"><ele>881.0</ele><time>2026-05-02T09:24:53.278Z</time></trkpt><trkpt lat="43.745315" lon="6.3907717"><ele>879.75</ele><time>2026-05-02T09:24:54.278Z</time></trkpt><trkpt lat="43.7451883" lon="6.3907083"><ele>878.5</ele><time>2026-05-02T09:24:55.279Z</time></trkpt><trkpt lat="43.7450533" lon="6.390705"><ele>877.25</ele><time>2026-05-02T09:24:56.279Z</time></trkpt><trkpt lat="43.744925" lon="6.39076"><ele>876.0</ele><time>2026-05-02T09:24:57.278Z</time></trkpt><trkpt lat="43.7447983" lon="6.3908517"><ele>876.0</ele><time>2026-05-02T09:24:58.278Z</time></trkpt><trkpt lat="43.7446667" lon="6.390955"><ele>876.0</ele><time>2026-05-02T09:24:59.278Z</time></trkpt><trkpt lat="43.7445317" lon="6.3910383"><ele>876.0</ele><time>2026-05-02T09:25:00.278Z</time></trkpt><trkpt lat="43.7444067" lon="6.3911367"><ele>876.0</ele><time>2026-05-02T09:25:01.278Z</time></trkpt><trkpt lat="43.744295" lon="6.3912833"><ele>874.25</ele><time>2026-05-02T09:25:02.278Z</time></trkpt><trkpt lat="43.74418" lon="6.3914267"><ele>872.5</ele><time>2026-05-02T09:25:03.278Z</time></trkpt><trkpt lat="43.74407" lon="6.3915633"><ele>870.75</ele><time>2026-05-02T09:25:04.278Z</time></trkpt><trkpt lat="43.7439683" lon="6.3916833"><ele>869.0</ele><time>2026-05-02T09:25:05.278Z</time></trkpt><trkpt lat="43.7438683" lon="6.3917717"><ele>869.0</ele><time>2026-05-02T09:25:06.278Z</time></trkpt><trkpt lat="43.7437633" lon="6.3918133"><ele>869.0</ele><time>2026-05-02T09:25:07.278Z</time></trkpt><trkpt lat="43.74364" lon="6.391805"><ele>869.0</ele><time>2026-05-02T09:25:08.278Z</time></trkpt><trkpt lat="43.743525" lon="6.391745"><ele>869.0</ele><time>2026-05-02T09:25:09.279Z</time></trkpt><trkpt lat="43.7434033" lon="6.391665"><ele>867.0</ele><time>2026-05-02T09:25:10.278Z</time></trkpt><trkpt lat="43.743275" lon="6.3915683"><ele>865.0</ele><time>2026-05-02T09:25:11.278Z</time></trkpt><trkpt lat="43.7431433" lon="6.3914667"><ele>863.0</ele><time>2026-05-02T09:25:12.278Z</time></trkpt><trkpt lat="43.7430117" lon="6.3913633"><ele>861.0</ele><time>2026-05-02T09:25:13.278Z</time></trkpt><trkpt lat="43.7428817" lon="6.391265"><ele>861.0</ele><time>2026-05-02T09:25:14.278Z</time></trkpt><trkpt lat="43.7427683" lon="6.3911467"><ele>861.0</ele><time>2026-05-02T09:25:15.278Z</time></trkpt><trkpt lat="43.7426683" lon="6.3910183"><ele>861.0</ele><time>2026-05-02T09:25:16.278Z</time></trkpt><trkpt lat="43.742585" lon="6.3908617"><ele>861.0</ele><time>2026-05-02T09:25:17.278Z</time></trkpt><trkpt lat="43.742505" lon="6.3906833"><ele>856.6666666666667</ele><time>2026-05-02T09:25:18.278Z</time></trkpt><trkpt lat="43.7424267" lon="6.3904917"><ele>852.3333333333334</ele><time>2026-05-02T09:25:19.278Z</time></trkpt><trkpt lat="43.742355" lon="6.3902967"><ele>848.0</ele><time>2026-05-02T09:25:20.279Z</time></trkpt><trkpt lat="43.74228" lon="6.3900967"><ele>848.0</ele><time>2026-05-02T09:25:21.278Z</time></trkpt><trkpt lat="43.7422133" lon="6.3899"><ele>848.0</ele><time>2026-05-02T09:25:22.278Z</time></trkpt><trkpt lat="43.7421533" lon="6.3897"><ele>848.0</ele><time>2026-05-02T09:25:23.278Z</time></trkpt><trkpt lat="43.7421" lon="6.3895"><ele>847.5</ele><time>2026-05-02T09:25:24.278Z</time></trkpt><trkpt lat="43.7420517" lon="6.3893117"><ele>847.0</ele><time>2026-05-02T09:25:25.278Z</time></trkpt><trkpt lat="43.74202" lon="6.389115"><ele>846.5</ele><time>2026-05-02T09:25:26.278Z</time></trkpt><trkpt lat="43.742005" lon="6.3889167"><ele>846.0</ele><time>2026-05-02T09:25:27.278Z</time></trkpt><trkpt lat="43.742005" lon="6.3887167"><ele>845.25</ele><time>2026-05-02T09:25:28.278Z</time></trkpt><trkpt lat="43.7420083" lon="6.3885183"><ele>844.5</ele><time>2026-05-02T09:25:29.278Z</time></trkpt><trkpt lat="43.7420083" lon="6.388325"><ele>843.75</ele><time>2026-05-02T09:25:30.278Z</time></trkpt><trkpt lat="43.7420183" lon="6.3881233"><ele>843.0</ele><time>2026-05-02T09:25:31.278Z</time></trkpt><trkpt lat="43.7420367" lon="6.3879333"><ele>841.5</ele><time>2026-05-02T09:25:32.278Z</time></trkpt><trkpt lat="43.7420717" lon="6.3877517"><ele>840.0</ele><time>2026-05-02T09:25:33.278Z</time></trkpt><trkpt lat="43.7421067" lon="6.38756"><ele>838.5</ele><time>2026-05-02T09:25:34.278Z</time></trkpt><trkpt lat="43.74214" lon="6.387365"><ele>837.0</ele><time>2026-05-02T09:25:35.278Z</time></trkpt><trkpt lat="43.742175" lon="6.3871817"><ele>836.25</ele><time>2026-05-02T09:25:36.278Z</time></trkpt><trkpt lat="43.7422033" lon="6.3870133"><ele>835.5</ele><time>2026-05-02T09:25:37.278Z</time></trkpt><trkpt lat="43.74222" lon="6.38683"><ele>834.75</ele><time>2026-05-02T09:25:38.278Z</time></trkpt><trkpt lat="43.7422083" lon="6.386655"><ele>834.0</ele><time>2026-05-02T09:25:39.278Z</time></trkpt><trkpt lat="43.74217" lon="6.3864867"><ele>832.75</ele><time>2026-05-02T09:25:40.279Z</time></trkpt><trkpt lat="43.7421017" lon="6.3863183"><ele>831.5</ele><time>2026-05-02T09:25:41.278Z</time></trkpt><trkpt lat="43.7420317" lon="6.3861517"><ele>830.25</ele><time>2026-05-02T09:25:42.278Z</time></trkpt><trkpt lat="43.7419667" lon="6.3859833"><ele>829.0</ele><time>2026-05-02T09:25:43.278Z</time></trkpt><trkpt lat="43.7419117" lon="6.38581"><ele>827.5</ele><time>2026-05-02T09:25:44.279Z</time></trkpt><trkpt lat="43.7418783" lon="6.385645"><ele>826.0</ele><time>2026-05-02T09:25:45.278Z</time></trkpt><trkpt lat="43.7418683" lon="6.3854717"><ele>824.5</ele><time>2026-05-02T09:25:46.278Z</time></trkpt><trkpt lat="43.7418733" lon="6.3852917"><ele>823.0</ele><time>2026-05-02T09:25:47.278Z</time></trkpt><trkpt lat="43.74188" lon="6.385105"><ele>823.5</ele><time>2026-05-02T09:25:48.278Z</time></trkpt><trkpt lat="43.741885" lon="6.3849217"><ele>824.0</ele><time>2026-05-02T09:25:49.278Z</time></trkpt><trkpt lat="43.7418933" lon="6.3847367"><ele>824.5</ele><time>2026-05-02T09:25:50.278Z</time></trkpt><trkpt lat="43.74191" lon="6.3845567"><ele>825.0</ele><time>2026-05-02T09:25:51.278Z</time></trkpt><trkpt lat="43.7419333" lon="6.384365"><ele>824.0</ele><time>2026-05-02T09:25:52.278Z</time></trkpt><trkpt lat="43.7419633" lon="6.384175"><ele>823.0</ele><time>2026-05-02T09:25:53.278Z</time></trkpt><trkpt lat="43.7419967" lon="6.383985"><ele>822.0</ele><time>2026-05-02T09:25:54.278Z</time></trkpt><trkpt lat="43.7420383" lon="6.3837933"><ele>821.0</ele><time>2026-05-02T09:25:55.278Z</time></trkpt><trkpt lat="43.74209" lon="6.383605"><ele>819.75</ele><time>2026-05-02T09:25:56.278Z</time></trkpt><trkpt lat="43.742155" lon="6.38343"><ele>818.5</ele><time>2026-05-02T09:25:57.278Z</time></trkpt><trkpt lat="43.74222" lon="6.3832717"><ele>817.25</ele><time>2026-05-02T09:25:58.278Z</time></trkpt><trkpt lat="43.7422817" lon="6.3831117"><ele>816.0</ele><time>2026-05-02T09:25:59.278Z</time></trkpt><trkpt lat="43.74234" lon="6.382965"><ele>814.8</ele><time>2026-05-02T09:26:00.278Z</time></trkpt><trkpt lat="43.7424" lon="6.3828517"><ele>813.5999999999999</ele><time>2026-05-02T09:26:01.278Z</time></trkpt><trkpt lat="43.7424533" lon="6.38273"><ele>812.4</ele><time>2026-05-02T09:26:02.278Z</time></trkpt><trkpt lat="43.74249" lon="6.3826083"><ele>811.2</ele><time>2026-05-02T09:26:03.278Z</time></trkpt><trkpt lat="43.74249" lon="6.3824883"><ele>810.0</ele><time>2026-05-02T09:26:04.278Z</time></trkpt><trkpt lat="43.742465" lon="6.382365"><ele>810.0</ele><time>2026-05-02T09:26:05.279Z</time></trkpt><trkpt lat="43.7424167" lon="6.3822483"><ele>810.0</ele><time>2026-05-02T09:26:06.278Z</time></trkpt><trkpt lat="43.74235" lon="6.382145"><ele>810.0</ele><time>2026-05-02T09:26:07.278Z</time></trkpt><trkpt lat="43.7422667" lon="6.38207"><ele>810.0</ele><time>2026-05-02T09:26:08.278Z</time></trkpt><trkpt lat="43.75221" lon="6.4009767"><ele>847.5</ele><time>2026-05-02T09:23:44.278Z</time></trkpt><trkpt lat="43.7521067" lon="6.4008717"><ele>885.0</ele><time>2026-05-02T09:23:45.278Z</time></trkpt><trkpt lat="43.7519833" lon="6.4008133"><ele>922.5</ele><time>2026-05-02T09:23:46.278Z</time></trkpt><trkpt lat="43.751835" lon="6.4007567"><ele>960.0</ele><time>2026-05-02T09:23:47.279Z</time></trkpt><trkpt lat="43.751695" lon="6.4006733"><ele>960.0</ele><time>2026-05-02T09:23:48.278Z</time></trkpt><trkpt lat="43.7515567" lon="6.4005717"><ele>960.0</ele><time>2026-05-02T09:23:49.278Z</time></trkpt><trkpt lat="43.7514233" lon="6.4004767"><ele>960.0</ele><time>2026-05-02T09:23:50.278Z</time></trkpt><trkpt lat="43.75131" lon="6.40036"><ele>960.0</ele><time>2026-05-02T09:23:51.278Z</time></trkpt><trkpt lat="43.7512067" lon="6.4002283"><ele>960.5</ele><time>2026-05-02T09:23:52.278Z</time></trkpt><trkpt lat="43.7511383" lon="6.4000733"><ele>961.0</ele><time>2026-05-02T09:23:53.278Z</time></trkpt><trkpt lat="43.7510967" lon="6.3998867"><ele>961.5</ele><time>2026-05-02T09:23:54.278Z</time></trkpt><trkpt lat="43.7510383" lon="6.399725"><ele>962.0</ele><time>2026-05-02T09:23:55.278Z</time></trkpt><trkpt lat="43.7509417" lon="6.3995917"><ele>962.0</ele><time>2026-05-02T09:23:56.278Z</time></trkpt><trkpt lat="43.750825" lon="6.3994667"><ele>962.0</ele><time>2026-05-02T09:23:57.279Z</time></trkpt><trkpt lat="43.75069" lon="6.39934"><ele>962.0</ele><time>2026-05-02T09:23:58.278Z</time></trkpt><trkpt lat="43.75056" lon="6.399195"><ele>962.0</ele><time>2026-05-02T09:23:59.278Z</time></trkpt><trkpt lat="43.7504283" lon="6.39905"><ele>962.0</ele><time>2026-05-02T09:24:00.278Z</time></trkpt><trkpt lat="43.7502983" lon="6.3989033"><ele>962.0</ele><time>2026-05-02T09:24:01.278Z</time></trkpt><trkpt lat="43.7501733" lon="6.3987617"><ele>956.0</ele><time>2026-05-02T09:24:02.278Z</time></trkpt><trkpt lat="43.7500533" lon="6.3986117"><ele>950.0</ele><time>2026-05-02T09:24:03.278Z</time></trkpt><trkpt lat="43.7499433" lon="6.3984467"><ele>944.0</ele><time>2026-05-02T09:24:04.279Z</time></trkpt><trkpt lat="43.749845" lon="6.3982733"><ele>944.0</ele><time>2026-05-02T09:24:05.278Z</time></trkpt><trkpt lat="43.749755" lon="6.3981133"><ele>944.0</ele><time>2026-05-02T09:24:06.278Z</time></trkpt><trkpt lat="43.7496583" lon="6.3979433"><ele>944.0</ele><time>2026-05-02T09:24:07.278Z</time></trkpt><trkpt lat="43.7495433" lon="6.3978017"><ele>941.0</ele><time>2026-05-02T09:24:08.278Z</time></trkpt><trkpt lat="43.7494283" lon="6.3977117"><ele>938.0</ele><time>2026-05-02T09:24:09.278Z</time></trkpt><trkpt lat="43.7492967" lon="6.397615"><ele>935.0</ele><time>2026-05-02T09:24:10.278Z</time></trkpt><trkpt lat="43.7491783" lon="6.3975067"><ele>932.0</ele><time>2026-05-02T09:24:11.279Z</time></trkpt><trkpt lat="43.7490783" lon="6.397375"><ele>932.0</ele><time>2026-05-02T09:24:12.278Z</time></trkpt><trkpt lat="43.74901" lon="6.3972117"><ele>932.0</ele><time>2026-05-02T09:24:13.278Z</time></trkpt><trkpt lat="43.74896" lon="6.3970283"><ele>932.0</ele><time>2026-05-02T09:24:14.278Z</time></trkpt><trkpt lat="43.748925" lon="6.396845"><ele>932.0</ele><time>2026-05-02T09:24:15.278Z</time></trkpt><trkpt lat="43.74887" lon="6.3966567"><ele>934.6666666666667</ele><time>2026-05-02T09:24:16.278Z</time></trkpt><trkpt lat="43.7487967" lon="6.39647"><ele>937.3333333333333</ele><time>2026-05-02T09:24:17.278Z</time></trkpt><trkpt lat="43.7487233" lon="6.3962783"><ele>940.0</ele><time>2026-05-02T09:24:18.278Z</time></trkpt><trkpt lat="43.748645" lon="6.3960883"><ele>942.75</ele><time>2026-05-02T09:24:19.278Z</time></trkpt><trkpt lat="43.74856" lon="6.39592"><ele>945.5</ele><time>2026-05-02T09:24:20.278Z</time></trkpt><trkpt lat="43.7484683" lon="6.3957617"><ele>948.25</ele><time>2026-05-02T09:24:21.278Z</time></trkpt><trkpt lat="43.74837" lon="6.3956067"><ele>951.0</ele><time>2026-05-02T09:24:22.278Z</time></trkpt><trkpt lat="43.74827" lon="6.395445"><ele>941.3333333333333</ele><time>2026-05-02T09:24:23.278Z</time></trkpt><trkpt lat="43.7481817" lon="6.3952783"><ele>931.6666666666666</ele><time>2026-05-02T09:24:24.278Z</time></trkpt><trkpt lat="43.748085" lon="6.3951117"><ele>922.0</ele><time>2026-05-02T09:24:25.279Z</time></trkpt><trkpt lat="43.747985" lon="6.3949467"><ele>922.0</ele><time>2026-05-02T09:24:26.278Z</time></trkpt><trkpt lat="43.7478833" lon="6.3947733"><ele>922.0</ele><time>2026-05-02T09:24:27.278Z</time></trkpt><trkpt lat="43.7477783" lon="6.3945967"><ele>922.0</ele><time>2026-05-02T09:24:28.278Z</time></trkpt><trkpt lat="43.7476783" lon="6.3944267"><ele>917.0</ele><time>2026-05-02T09:24:29.278Z</time></trkpt><trkpt lat="43.7475933" lon="6.394235"><ele>912.0</ele><time>2026-05-02T09:24:30.278Z</time></trkpt><trkpt lat="43.7475067" lon="6.3940467"><ele>907.0</ele><time>2026-05-02T09:24:31.278Z</time></trkpt><trkpt lat="43.7474167" lon="6.3938567"><ele>907.3333333333333</ele><time>2026-05-02T09:24:32.279Z</time></trkpt><trkpt lat="43.7473283" lon="6.3936567"><ele>907.6666666666667</ele><time>2026-05-02T09:24:33.278Z</time></trkpt><trkpt lat="43.74724" lon="6.3934667"><ele>908.0</ele><time>2026-05-02T09:24:34.279Z</time></trkpt><trkpt lat="43.7471433" lon="6.3932917"><ele>908.0</ele><time>2026-05-02T09:24:35.278Z</time></trkpt><trkpt lat="43.7470517" lon="6.393115"><ele>908.0</ele><time>2026-05-02T09:24:36.278Z</time></trkpt><trkpt lat="43.746955" lon="6.3929417"><ele>908.0</ele><time>2026-05-02T09:24:37.278Z</time></trkpt><trkpt lat="43.7468533" lon="6.3927867"><ele>904.75</ele><time>2026-05-02T09:24:38.278Z</time></trkpt><trkpt lat="43.7467417" lon="6.3926667"><ele>901.5</ele><time>2026-05-02T09:24:39.278Z</time></trkpt><trkpt lat="43.7466333" lon="6.39256"><ele>898.25</ele><time>2026-05-02T09:24:40.278Z</time></trkpt><trkpt lat="43.7465083" lon="6.3924817"><ele>895.0</ele><time>2026-05-02T09:24:41.278Z</time></trkpt><trkpt lat="43.746385" lon="6.3924517"><ele>895.0</ele><time>2026-05-02T09:24:42.278Z</time></trkpt><trkpt lat="43.7462467" lon="6.3924183"><ele>895.0</ele><time>2026-05-02T09:24:43.278Z</time></trkpt><trkpt lat="43.7461183" lon="6.3923633"><ele>895.0</ele><time>2026-05-02T09:24:44.278Z</time></trkpt><trkpt lat="43.746" lon="6.3922617"><ele>895.0</ele><time>2026-05-02T09:24:45.278Z</time></trkpt><trkpt lat="43.7459033" lon="6.39212"><ele>891.0</ele><time>2026-05-02T09:24:46.278Z</time></trkpt><trkpt lat="43.7458283" lon="6.3919467"><ele>887.0</ele><time>2026-05-02T09:24:47.278Z</time></trkpt><trkpt lat="43.745765" lon="6.3917483"><ele>883.0</ele><time>2026-05-02T09:24:48.278Z</time></trkpt><trkpt lat="43.74571" lon="6.3915433"><ele>883.0</ele><time>2026-05-02T09:24:49.278Z</time></trkpt><trkpt lat="43.7456517" lon="6.3913433"><ele>883.0</ele><time>2026-05-02T09:24:50.278Z</time></trkpt><trkpt lat="43.7455917" lon="6.391155"><ele>883.0</ele><time>2026-05-02T09:24:51.278Z</time></trkpt><trkpt lat="43.7455233" lon="6.3909933"><ele>883.0</ele><time>2026-05-02T09:24:52.278Z</time></trkpt><trkpt lat="43.7454317" lon="6.3908633"><ele>882.5</ele><time>2026-05-02T09:24:53.278Z</time></trkpt><trkpt lat="43.745315" lon="6.3907717"><ele>882.0</ele><time>2026-05-02T09:24:54.278Z</time></trkpt><trkpt lat="43.7451883" lon="6.3907083"><ele>881.5</ele><time>2026-05-02T09:24:55.279Z</time></trkpt><trkpt lat="43.7450533" lon="6.390705"><ele>881.0</ele><time>2026-05-02T09:24:56.279Z</time></trkpt><trkpt lat="43.744925" lon="6.39076"><ele>879.75</ele><time>2026-05-02T09:24:57.278Z</time></trkpt><trkpt lat="43.7447983" lon="6.3908517"><ele>878.5</ele><time>2026-05-02T09:24:58.278Z</time></trkpt><trkpt lat="43.7446667" lon="6.390955"><ele>877.25</ele><time>2026-05-02T09:24:59.278Z</time></trkpt><trkpt lat="43.7445317" lon="6.3910383"><ele>876.0</ele><time>2026-05-02T09:25:00.278Z</time></trkpt><trkpt lat="43.7444067" lon="6.3911367"><ele>874.0</ele><time>2026-05-02T09:25:01.278Z</time></trkpt><trkpt lat="43.744295" lon="6.3912833"><ele>872.0</ele><time>2026-05-02T09:25:02.278Z</time></trkpt><trkpt lat="43.74418" lon="6.3914267"><ele>870.0</ele><time>2026-05-02T09:25:03.278Z</time></trkpt><trkpt lat="43.74407" lon="6.3915633"><ele>869.75</ele><time>2026-05-02T09:25:04.278Z</time></trkpt><trkpt lat="43.7439683" lon="6.3916833"><ele>869.5</ele><time>2026-05-02T09:25:05.278Z</time></trkpt><trkpt lat="43.7438683" lon="6.3917717"><ele>869.25</ele><time>2026-05-02T09:25:06.278Z</time></trkpt><trkpt lat="43.7437633" lon="6.3918133"><ele>869.0</ele><time>2026-05-02T09:25:07.278Z</time></trkpt><trkpt lat="43.74364" lon="6.391805"><ele>866.25</ele><time>2026-05-02T09:25:08.278Z</time></trkpt><trkpt lat="43.743525" lon="6.391745"><ele>863.5</ele><time>2026-05-02T09:25:09.279Z</time></trkpt><trkpt lat="43.7434033" lon="6.391665"><ele>860.75</ele><time>2026-05-02T09:25:10.278Z</time></trkpt><trkpt lat="43.743275" lon="6.3915683"><ele>858.0</ele><time>2026-05-02T09:25:11.278Z</time></trkpt><trkpt lat="43.7431433" lon="6.3914667"><ele>858.0</ele><time>2026-05-02T09:25:12.278Z</time></trkpt><trkpt lat="43.7430117" lon="6.3913633"><ele>858.0</ele><time>2026-05-02T09:25:13.278Z</time></trkpt><trkpt lat="43.7428817" lon="6.391265"><ele>858.0</ele><time>2026-05-02T09:25:14.278Z</time></trkpt><trkpt lat="43.7427683" lon="6.3911467"><ele>858.0</ele><time>2026-05-02T09:25:15.278Z</time></trkpt><trkpt lat="43.7426683" lon="6.3910183"><ele>854.6666666666667</ele><time>2026-05-02T09:25:16.278Z</time></trkpt><trkpt lat="43.742585" lon="6.3908617"><ele>851.3333333333334</ele><time>2026-05-02T09:25:17.278Z</time></trkpt><trkpt lat="43.742505" lon="6.3906833"><ele>848.0</ele><time>2026-05-02T09:25:18.278Z</time></trkpt><trkpt lat="43.7424267" lon="6.3904917"><ele>848.0</ele><time>2026-05-02T09:25:19.278Z</time></trkpt><trkpt lat="43.742355" lon="6.3902967"><ele>848.0</ele><time>2026-05-02T09:25:20.279Z</time></trkpt><trkpt lat="43.74228" lon="6.3900967"><ele>848.0</ele><time>2026-05-02T09:25:21.278Z</time></trkpt><trkpt lat="43.7422133" lon="6.3899"><ele>848.0</ele><time>2026-05-02T09:25:22.278Z</time></trkpt><trkpt lat="43.7421533" lon="6.3897"><ele>848.0</ele><time>2026-05-02T09:25:23.278Z</time></trkpt><trkpt lat="43.7421" lon="6.3895"><ele>848.0</ele><time>2026-05-02T09:25:24.278Z</time></trkpt><trkpt lat="43.7420517" lon="6.3893117"><ele>847.5</ele><time>2026-05-02T09:25:25.278Z</time></trkpt><trkpt lat="43.74202" lon="6.389115"><ele>847.0</ele><time>2026-05-02T09:25:26.278Z</time></trkpt><trkpt lat="43.742005" lon="6.3889167"><ele>846.5</ele><time>2026-05-02T09:25:27.278Z</time></trkpt><trkpt lat="43.742005" lon="6.3887167"><ele>846.0</ele><time>2026-05-02T09:25:28.278Z</time></trkpt><trkpt lat="43.7420083" lon="6.3885183"><ele>845.25</ele><time>2026-05-02T09:25:29.278Z</time></trkpt><trkpt lat="43.7420083" lon="6.388325"><ele>844.5</ele><time>2026-05-02T09:25:30.278Z</time></trkpt><trkpt lat="43.7420183" lon="6.3881233"><ele>843.75</ele><time>2026-05-02T09:25:31.278Z</time></trkpt><trkpt lat="43.7420367" lon="6.3879333"><ele>843.0</ele><time>2026-05-02T09:25:32.278Z</time></trkpt><trkpt lat="43.7420717" lon="6.3877517"><ele>841.5</ele><time>2026-05-02T09:25:33.278Z</time></trkpt><trkpt lat="43.7421067" lon="6.38756"><ele>840.0</ele><time>2026-05-02T09:25:34.278Z</time></trkpt><trkpt lat="43.74214" lon="6.387365"><ele>838.5</ele><time>2026-05-02T09:25:35.278Z</time></trkpt><trkpt lat="43.742175" lon="6.3871817"><ele>837.0</ele><time>2026-05-02T09:25:36.278Z</time></trkpt><trkpt lat="43.7422033" lon="6.3870133"><ele>836.25</ele><time>2026-05-02T09:25:37.278Z</time></trkpt><trkpt lat="43.74222" lon="6.38683"><ele>835.5</ele><time>2026-05-02T09:25:38.278Z</time></trkpt><trkpt lat="43.7422083" lon="6.386655"><ele>834.75</ele><time>2026-05-02T09:25:39.278Z</time></trkpt><trkpt lat="43.74217" lon="6.3864867"><ele>834.0</ele><time>2026-05-02T09:25:40.279Z</time></trkpt><trkpt lat="43.7421017" lon="6.3863183"><ele>832.75</ele><time>2026-05-02T09:25:41.278Z</time></trkpt><trkpt lat="43.7420317" lon="6.3861517"><ele>831.5</ele><time>2026-05-02T09:25:42.278Z</time></trkpt><trkpt lat="43.7419667" lon="6.3859833"><ele>830.25</ele><time>2026-05-02T09:25:43.278Z</time></trkpt><trkpt lat="43.7419117" lon="6.38581"><ele>829.0</ele><time>2026-05-02T09:25:44.279Z</time></trkpt><trkpt lat="43.7418783" lon="6.385645"><ele>828.0</ele><time>2026-05-02T09:25:45.278Z</time></trkpt><trkpt lat="43.7418683" lon="6.3854717"><ele>827.0</ele><time>2026-05-02T09:25:46.278Z</time></trkpt><trkpt lat="43.7418733" lon="6.3852917"><ele>826.0</ele><time>2026-05-02T09:25:47.278Z</time></trkpt><trkpt lat="43.74188" lon="6.385105"><ele>825.0</ele><time>2026-05-02T09:25:48.278Z</time></trkpt><trkpt lat="43.741885" lon="6.3849217"><ele>825.0</ele><time>2026-05-02T09:25:49.278Z</time></trkpt><trkpt lat="43.7418933" lon="6.3847367"><ele>825.0</ele><time>2026-05-02T09:25:50.278Z</time></trkpt><trkpt lat="43.74191" lon="6.3845567"><ele>825.0</ele><time>2026-05-02T09:25:51.278Z</time></trkpt><trkpt lat="43.7419333" lon="6.384365"><ele>825.0</ele><time>2026-05-02T09:25:52.278Z</time></trkpt><trkpt lat="43.7419633" lon="6.384175"><ele>824.0</ele><time>2026-05-02T09:25:53.278Z</time></trkpt><trkpt lat="43.7419967" lon="6.383985"><ele>823.0</ele><time>2026-05-02T09:25:54.278Z</time></trkpt><trkpt lat="43.7420383" lon="6.3837933"><ele>822.0</ele><time>2026-05-02T09:25:55.278Z</time></trkpt><trkpt lat="43.74209" lon="6.383605"><ele>821.0</ele><time>2026-05-02T09:25:56.278Z</time></trkpt><trkpt lat="43.742155" lon="6.38343"><ele>819.75</ele><time>2026-05-02T09:25:57.278Z</time></trkpt><trkpt lat="43.74222" lon="6.3832717"><ele>818.5</ele><time>2026-05-02T09:25:58.278Z</time></trkpt><trkpt lat="43.7422817" lon="6.3831117"><ele>817.25</ele><time>2026-05-02T09:25:59.278Z</time></trkpt><trkpt lat="43.74234" lon="6.382965"><ele>816.0</ele><time>2026-05-02T09:26:00.278Z</time></trkpt><trkpt lat="43.7424" lon="6.3828517"><ele>814.8</ele><time>2026-05-02T09:26:01.278Z</time></trkpt><trkpt lat="43.7424533" lon="6.38273"><ele>813.5999999999999</ele><time>2026-05-02T09:26:02.278Z</time></trkpt><trkpt lat="43.74249" lon="6.3826083"><ele>812.4</ele><time>2026-05-02T09:26:03.278Z</time></trkpt><trkpt lat="43.74249" lon="6.3824883"><ele>811.2</ele><time>2026-05-02T09:26:04.278Z</time></trkpt><trkpt lat="43.742465" lon="6.382365"><ele>810.0</ele><time>2026-05-02T09:26:05.279Z</time></trkpt><trkpt lat="43.7424167" lon="6.3822483"><ele>807.8</ele><time>2026-05-02T09:26:06.278Z</time></trkpt><trkpt lat="43.74235" lon="6.382145"><ele>805.6</ele><time>2026-05-02T09:26:07.278Z</time></trkpt><trkpt lat="43.7422667" lon="6.38207"><ele>803.4000000000001</ele><time>2026-05-02T09:26:08.278Z</time></trkpt><trkpt lat="43.7421567" lon="6.38202"><ele>801.2</ele><time>2026-05-02T09:26:09.278Z</time></trkpt><trkpt lat="43.7420333" lon="6.3819767"><ele>799.0</ele><time>2026-05-02T09:26:10.278Z</time></trkpt><trkpt lat="43.7419133" lon="6.3819233"><ele>798.6</ele><time>2026-05-02T09:26:11.279Z</time></trkpt><trkpt lat="43.7417967" lon="6.3818783"><ele>798.2</ele><time>2026-05-02T09:26:12.278Z</time></trkpt><trkpt lat="43.7416883" lon="6.38186"><ele>797.8000000000001</ele><time>2026-05-02T09:26:13.278Z</time></trkpt><trkpt lat="43.741585" lon="6.3818717"><ele>797.4000000000001</ele><time>2026-05-02T09:26:14.278Z</time></trkpt><trkpt lat="43.741495" lon="6.3819217"><ele>797.0</ele><time>2026-05-02T09:26:15.278Z</time></trkpt><trkpt lat="43.7414067" lon="6.382"><ele>797.0</ele><time>2026-05-02T09:26:16.278Z</time></trkpt><trkpt lat="43.74131" lon="6.3820883"><ele>797.0</ele><time>2026-05-02T09:26:17.278Z</time></trkpt><trkpt lat="43.7412083" lon="6.3821483"><ele>797.0</ele><time>2026-05-02T09:26:18.278Z</time></trkpt><trkpt lat="43.7410933" lon="6.3821767"><ele>797.0</ele><time>2026-05-02T09:26:19.277Z</time></trkpt><trkpt lat="43.7409983" lon="6.3821467"><ele>797.0</ele><time>2026-05-02T09:26:20.277Z</time></trkpt><trkpt lat="43.7409083" lon="6.3821067"><ele>794.8</ele><time>2026-05-02T09:26:21.277Z</time></trkpt><trkpt lat="43.7408233" lon="6.38206"><ele>792.6</ele><time>2026-05-02T09:26:22.277Z</time></trkpt><trkpt lat="43.7407383" lon="6.3820167"><ele>790.4</ele><time>2026-05-02T09:26:23.277Z</time></trkpt><trkpt lat="43.7406483" lon="6.3819833"><ele>788.1999999999999</ele><time>2026-05-02T09:26:24.277Z</time></trkpt><trkpt lat="43.74056" lon="6.3819483"><ele>786.0</ele><time>2026-05-02T09:26:25.278Z</time></trkpt><trkpt lat="43.7404683" lon="6.3819467"><ele>786.0</ele><time>2026-05-02T09:26:26.277Z</time></trkpt><trkpt lat="43.7403867" lon="6.3819333"><ele>786.0</ele><time>2026-05-02T09:26:27.278Z</time></trkpt><trkpt lat="43.74031" lon="6.38193"><ele>786.0</ele><time>2026-05-02T09:26:28.277Z</time></trkpt><trkpt lat="43.7402383" lon="6.3819233"><ele>786.0</ele><time>2026-05-02T09:26:29.277Z</time></trkpt><trkpt lat="43.740175" lon="6.381915"><ele>786.0</ele><time>2026-05-02T09:26:30.277Z</time></trkpt><trkpt lat="43.7400767" lon="6.381905"><ele>786.0</ele><time>2026-05-02T09:26:32.278Z</time></trkpt><trkpt lat="43.74001" lon="6.3819333"><ele>786.0</ele><time>2026-05-02T09:26:34.277Z</time></trkpt><trkpt lat="43.7399717" lon="6.3820483"><ele>786.0</ele><time>2026-05-02T09:26:37.277Z</time></trkpt><trkpt lat="43.7399733" lon="6.38214"><ele>786.0</ele><time>2026-05-02T09:26:39.277Z</time></trkpt></trkseg><trkseg><trkpt lat="43.740045" lon="6.3822133"><ele>787.6666666666667</ele><time>2026-05-02T10:04:20.273Z</time></trkpt><trkpt lat="43.74013" lon="6.3821717"><ele>787.3333333333334</ele><time>2026-05-02T10:04:22.273Z</time></trkpt><trkpt lat="43.7401883" lon="6.382105"><ele>787.0</ele><time>2026-05-02T10:04:24.273Z</time></trkpt><trkpt lat="43.74018" lon="6.38201"><ele>786.6666666666667</ele><time>2026-05-02T10:04:35.272Z</time></trkpt><trkpt lat="43.7400833" lon="6.3818967"><ele>786.3333333333334</ele><time>2026-05-02T10:04:37.272Z</time></trkpt><trkpt lat="43.7400183" lon="6.3818367"><ele>786.0</ele><time>2026-05-02T10:04:38.272Z</time></trkpt><trkpt lat="43.739945" lon="6.3817783"><ele>786.0</ele><time>2026-05-02T10:04:39.272Z</time></trkpt><trkpt lat="43.7398717" lon="6.3817167"><ele>786.0</ele><time>2026-05-02T10:04:40.272Z</time></trkpt><trkpt lat="43.739805" lon="6.381655"><ele>786.0</ele><time>2026-05-02T10:04:41.272Z</time></trkpt><trkpt lat="43.739745" lon="6.3816"><ele>786.0</ele><time>2026-05-02T10:04:42.272Z</time></trkpt><trkpt lat="43.739685" lon="6.381555"><ele>786.0</ele><time>2026-05-02T10:04:43.272Z</time></trkpt><trkpt lat="43.7395767" lon="6.3814833"><ele>786.0</ele><time>2026-05-02T10:04:45.272Z</time></trkpt><trkpt lat="43.73951" lon="6.38145"><ele>786.0</ele><time>2026-05-02T10:04:46.272Z</time></trkpt><trkpt lat="43.739435" lon="6.381415"><ele>786.0</ele><time>2026-05-02T10:04:47.272Z</time></trkpt><trkpt lat="43.7393567" lon="6.3813667"><ele>786.0</ele><time>2026-05-02T10:04:48.272Z</time></trkpt><trkpt lat="43.739275" lon="6.3813267"><ele>786.0</ele><time>2026-05-02T10:04:49.272Z</time></trkpt><trkpt lat="43.7391967" lon="6.38131"><ele>786.0</ele><time>2026-05-02T10:04:50.272Z</time></trkpt><trkpt lat="43.7391067" lon="6.38131"><ele>786.0</ele><time>2026-05-02T10:04:51.272Z</time></trkpt><trkpt lat="43.73901" lon="6.38133"><ele>784.1999999999999</ele><time>2026-05-02T10:04:52.272Z</time></trkpt><trkpt lat="43.7389183" lon="6.3813633"><ele>782.4</ele><time>2026-05-02T10:04:53.272Z</time></trkpt><trkpt lat="43.738825" lon="6.3814133"><ele>780.6</ele><time>2026-05-02T10:04:54.272Z</time></trkpt><trkpt lat="43.7387433" lon="6.38148"><ele>778.8</ele><time>2026-05-02T10:04:55.272Z</time></trkpt><trkpt lat="43.7386583" lon="6.381565"><ele>777.0</ele><time>2026-05-02T10:04:56.272Z</time></trkpt><trkpt lat="43.73857" lon="6.38168"><ele>774.5</ele><time>2026-05-02T10:04:57.272Z</time></trkpt><trkpt lat="43.7384817" lon="6.3818017"><ele>772.0</ele><time>2026-05-02T10:04:58.272Z</time></trkpt><trkpt lat="43.7383983" lon="6.3819117"><ele>769.5</ele><time>2026-05-02T10:04:59.272Z</time></trkpt><trkpt lat="43.7383067" lon="6.3820283"><ele>767.0</ele><time>2026-05-02T10:05:00.272Z</time></trkpt><trkpt lat="43.73821" lon="6.3821417"><ele>770.0</ele><time>2026-05-02T10:05:01.272Z</time></trkpt><trkpt lat="43.7381067" lon="6.3822467"><ele>773.0</ele><time>2026-05-02T10:05:02.272Z</time></trkpt><trkpt lat="43.738005" lon="6.3823467"><ele>776.0</ele><time>2026-05-02T10:05:03.272Z</time></trkpt><trkpt lat="43.7379033" lon="6.382455"><ele>779.0</ele><time>2026-05-02T10:05:04.272Z</time></trkpt><trkpt lat="43.73781" lon="6.382575"><ele>778.0</ele><time>2026-05-02T10:05:05.272Z</time></trkpt><trkpt lat="43.7377183" lon="6.3826983"><ele>777.0</ele><time>2026-05-02T10:05:06.272Z</time></trkpt><trkpt lat="43.73763" lon="6.3828367"><ele>776.0</ele><time>2026-05-02T10:05:07.272Z</time></trkpt><trkpt lat="43.7375533" lon="6.3829783"><ele>775.0</ele><time>2026-05-02T10:05:08.273Z</time></trkpt><trkpt lat="43.7374867" lon="6.3831283"><ele>777.0</ele><time>2026-05-02T10:05:09.273Z</time></trkpt><trkpt lat="43.737435" lon="6.3832883"><ele>779.0</ele><time>2026-05-02T10:05:10.272Z</time></trkpt><trkpt lat="43.73741" lon="6.38345"><ele>781.0</ele><time>2026-05-02T10:05:11.272Z</time></trkpt><trkpt lat="43.7374117" lon="6.3836283"><ele>783.0</ele><time>2026-05-02T10:05:12.272Z</time></trkpt><trkpt lat="43.7374433" lon="6.3838017"><ele>782.5</ele><time>2026-05-02T10:05:13.272Z</time></trkpt><trkpt lat="43.7375033" lon="6.3839717"><ele>782.0</ele><time>2026-05-02T10:05:14.272Z</time></trkpt><trkpt lat="43.737585" lon="6.384125"><ele>781.5</ele><time>2026-05-02T10:05:15.272Z</time></trkpt><trkpt lat="43.7376767" lon="6.38428"><ele>781.0</ele><time>2026-05-02T10:05:16.272Z</time></trkpt><trkpt lat="43.7377667" lon="6.38444"><ele>783.0</ele><time>2026-05-02T10:05:17.272Z</time></trkpt><trkpt lat="43.7378583" lon="6.3846067"><ele>785.0</ele><time>2026-05-02T10:05:18.273Z</time></trkpt><trkpt lat="43.7379483" lon="6.38477"><ele>787.0</ele><time>2026-05-02T10:05:19.272Z</time></trkpt><trkpt lat="43.7380433" lon="6.384935"><ele>788.3333333333333</ele><time>2026-05-02T10:05:20.272Z</time></trkpt><trkpt lat="43.7381433" lon="6.3850883"><ele>789.6666666666667</ele><time>2026-05-02T10:05:21.272Z</time></trkpt><trkpt lat="43.7382383" lon="6.3852467"><ele>791.0</ele><time>2026-05-02T10:05:22.273Z</time></trkpt><trkpt lat="43.73833" lon="6.3854217"><ele>791.0</ele><time>2026-05-02T10:05:23.272Z</time></trkpt><trkpt lat="43.7384217" lon="6.3855833"><ele>791.0</ele><time>2026-05-02T10:05:24.272Z</time></trkpt><trkpt lat="43.7385083" lon="6.385755"><ele>791.0</ele><time>2026-05-02T10:05:25.272Z</time></trkpt><trkpt lat="43.7385867" lon="6.38593"><ele>791.0</ele><time>2026-05-02T10:05:26.272Z</time></trkpt><trkpt lat="43.738645" lon="6.3861033"><ele>793.5</ele><time>2026-05-02T10:05:27.272Z</time></trkpt><trkpt lat="43.7387083" lon="6.3862683"><ele>796.0</ele><time>2026-05-02T10:05:28.272Z</time></trkpt><trkpt lat="43.7387633" lon="6.3864283"><ele>798.5</ele><time>2026-05-02T10:05:29.272Z</time></trkpt><trkpt lat="43.738805" lon="6.3866067"><ele>801.0</ele><time>2026-05-02T10:05:30.272Z</time></trkpt><trkpt lat="43.7388183" lon="6.3868017"><ele>801.25</ele><time>2026-05-02T10:05:31.272Z</time></trkpt><trkpt lat="43.7388267" lon="6.3869983"><ele>801.5</ele><time>2026-05-02T10:05:32.272Z</time></trkpt><trkpt lat="43.73883" lon="6.3871867"><ele>801.75</ele><time>2026-05-02T10:05:33.272Z</time></trkpt><trkpt lat="43.7388333" lon="6.3873583"><ele>802.0</ele><time>2026-05-02T10:05:34.272Z</time></trkpt><trkpt lat="43.7388067" lon="6.3875233"><ele>802.0</ele><time>2026-05-02T10:05:35.272Z</time></trkpt><trkpt lat="43.7387617" lon="6.3876833"><ele>802.0</ele><time>2026-05-02T10:05:36.272Z</time></trkpt><trkpt lat="43.7387017" lon="6.387815"><ele>802.0</ele><time>2026-05-02T10:05:37.272Z</time></trkpt><trkpt lat="43.7386317" lon="6.3879267"><ele>802.0</ele><time>2026-05-02T10:05:38.272Z</time></trkpt><trkpt lat="43.7385383" lon="6.3880017"><ele>800.75</ele><time>2026-05-02T10:05:39.272Z</time></trkpt><trkpt lat="43.7384433" lon="6.3880533"><ele>799.5</ele><time>2026-05-02T10:05:40.272Z</time></trkpt><trkpt lat="43.7383317" lon="6.388095"><ele>798.25</ele><time>2026-05-02T10:05:41.272Z</time></trkpt><trkpt lat="43.7382133" lon="6.3881367"><ele>797.0</ele><time>2026-05-02T10:05:42.272Z</time></trkpt><trkpt lat="43.7380917" lon="6.3881883"><ele>797.0</ele><time>2026-05-02T10:05:43.272Z</time></trkpt><trkpt lat="43.7379633" lon="6.38824"><ele>797.0</ele><time>2026-05-02T10:05:44.272Z</time></trkpt><trkpt lat="43.737845" lon="6.3883117"><ele>797.0</ele><time>2026-05-02T10:05:45.272Z</time></trkpt><trkpt lat="43.7377417" lon="6.3884133"><ele>797.0</ele><time>2026-05-02T10:05:46.272Z</time></trkpt><trkpt lat="43.737645" lon="6.388555"><ele>796.75</ele><time>2026-05-02T10:05:47.272Z</time></trkpt><trkpt lat="43.7375583" lon="6.3887017"><ele>796.5</ele><time>2026-05-02T10:05:48.272Z</time></trkpt><trkpt lat="43.7374717" lon="6.3888617"><ele>796.25</ele><time>2026-05-02T10:05:49.272Z</time></trkpt><trkpt lat="43.7373817" lon="6.3890217"><ele>796.0</ele><time>2026-05-02T10:05:50.272Z</time></trkpt><trkpt lat="43.73729" lon="6.3891867"><ele>796.6666666666666</ele><time>2026-05-02T10:05:51.272Z</time></trkpt><trkpt lat="43.7371967" lon="6.3893517"><ele>797.3333333333333</ele><time>2026-05-02T10:05:52.272Z</time></trkpt><trkpt lat="43.7371" lon="6.3895233"><ele>798.0</ele><time>2026-05-02T10:05:53.272Z</time></trkpt><trkpt lat="43.7370067" lon="6.389695"><ele>797.6666666666667</ele><time>2026-05-02T10:05:54.272Z</time></trkpt><trkpt lat="43.736915" lon="6.3898667"><ele>797.3333333333334</ele><time>2026-05-02T10:05:55.272Z</time></trkpt><trkpt lat="43.7368183" lon="6.3900383"><ele>797.0</ele><time>2026-05-02T10:05:56.272Z</time></trkpt><trkpt lat="43.7367217" lon="6.3902083"><ele>797.0</ele><time>2026-05-02T10:05:57.272Z</time></trkpt><trkpt lat="43.7366217" lon="6.3903783"><ele>797.0</ele><time>2026-05-02T10:05:58.272Z</time></trkpt><trkpt lat="43.7365167" lon="6.3905617"><ele>797.0</ele><time>2026-05-02T10:05:59.273Z</time></trkpt><trkpt lat="43.7364233" lon="6.3907333"><ele>798.6666666666667</ele><time>2026-05-02T10:06:00.272Z</time></trkpt><trkpt lat="43.7363267" lon="6.3909033"><ele>800.3333333333333</ele><time>2026-05-02T10:06:01.272Z</time></trkpt><trkpt lat="43.73623" lon="6.3910733"><ele>802.0</ele><time>2026-05-02T10:06:02.272Z</time></trkpt><trkpt lat="43.7361333" lon="6.3912417"><ele>801.0</ele><time>2026-05-02T10:06:03.273Z</time></trkpt><trkpt lat="43.73604" lon="6.3914167"><ele>800.0</ele><time>2026-05-02T10:06:04.272Z</time></trkpt><trkpt lat="43.7359433" lon="6.3915983"><ele>799.0</ele><time>2026-05-02T10:06:05.272Z</time></trkpt><trkpt lat="43.7358467" lon="6.3917717"><ele>799.0</ele><time>2026-05-02T10:06:06.272Z</time></trkpt><trkpt lat="43.7357483" lon="6.3919467"><ele>799.0</ele><time>2026-05-02T10:06:07.272Z</time></trkpt><trkpt lat="43.735655" lon="6.3921267"><ele>799.0</ele><time>2026-05-02T10:06:08.272Z</time></trkpt><trkpt lat="43.7355583" lon="6.3923017"><ele>799.3333333333333</ele><time>2026-05-02T10:06:09.272Z</time></trkpt><trkpt lat="43.73546" lon="6.3924767"><ele>799.6666666666667</ele><time>2026-05-02T10:06:10.272Z</time></trkpt><trkpt lat="43.73536" lon="6.3926533"><ele>800.0</ele><time>2026-05-02T10:06:11.272Z</time></trkpt><trkpt lat="43.7352633" lon="6.392825"><ele>797.75</ele><time>2026-05-02T10:06:12.272Z</time></trkpt><trkpt lat="43.73517" lon="6.39299"><ele>795.5</ele><time>2026-05-02T10:06:13.272Z</time></trkpt><trkpt lat="43.73508" lon="6.3931517"><ele>793.25</ele><time>2026-05-02T10:06:14.272Z</time></trkpt><trkpt lat="43.7349983" lon="6.3933"><ele>791.0</ele><time>2026-05-02T10:06:15.272Z</time></trkpt><trkpt lat="43.734925" lon="6.3934317"><ele>791.0</ele><time>2026-05-02T10:06:16.272Z</time></trkpt><trkpt lat="43.73486" lon="6.3935417"><ele>791.0</ele><time>2026-05-02T10:06:17.272Z</time></trkpt><trkpt lat="43.7348033" lon="6.39363"><ele>791.0</ele><time>2026-05-02T10:06:18.272Z</time></trkpt><trkpt lat="43.7347333" lon="6.3937"><ele>791.0</ele><time>2026-05-02T10:06:19.272Z</time></trkpt><trkpt lat="43.7346517" lon="6.3937167"><ele>791.0</ele><time>2026-05-02T10:06:20.272Z</time></trkpt><trkpt lat="43.734555" lon="6.39369"><ele>791.0</ele><time>2026-05-02T10:06:21.272Z</time></trkpt><trkpt lat="43.7344667" lon="6.3936233"><ele>791.0</ele><time>2026-05-02T10:06:22.273Z</time></trkpt><trkpt lat="43.7344017" lon="6.3935"><ele>791.0</ele><time>2026-05-02T10:06:23.272Z</time></trkpt><trkpt lat="43.7343517" lon="6.3933467"><ele>791.0</ele><time>2026-05-02T10:06:24.272Z</time></trkpt><trkpt lat="43.734325" lon="6.3931617"><ele>787.75</ele><time>2026-05-02T10:06:25.272Z</time></trkpt><trkpt lat="43.7343017" lon="6.3929917"><ele>784.5</ele><time>2026-05-02T10:06:26.273Z</time></trkpt><trkpt lat="43.7342633" lon="6.3928467"><ele>781.25</ele><time>2026-05-02T10:06:27.272Z</time></trkpt><trkpt lat="43.7341983" lon="6.3927133"><ele>778.0</ele><time>2026-05-02T10:06:28.272Z</time></trkpt><trkpt lat="43.7341133" lon="6.3925933"><ele>778.0</ele><time>2026-05-02T10:06:29.272Z</time></trkpt><trkpt lat="43.7340167" lon="6.392475"><ele>778.0</ele><time>2026-05-02T10:06:30.272Z</time></trkpt><trkpt lat="43.73392" lon="6.39235"><ele>778.0</ele><time>2026-05-02T10:06:31.272Z</time></trkpt><trkpt lat="43.7338167" lon="6.392245"><ele>778.0</ele><time>2026-05-02T10:06:32.272Z</time></trkpt><trkpt lat="43.73371" lon="6.392145"><ele>777.25</ele><time>2026-05-02T10:06:33.272Z</time></trkpt><trkpt lat="43.7336017" lon="6.3920533"><ele>776.5</ele><time>2026-05-02T10:06:34.272Z</time></trkpt><trkpt lat="43.7334817" lon="6.39196"><ele>775.75</ele><time>2026-05-02T10:06:35.272Z</time></trkpt><trkpt lat="43.73336" lon="6.39186"><ele>775.0</ele><time>2026-05-02T10:06:36.272Z</time></trkpt><trkpt lat="43.733235" lon="6.39175"><ele>772.75</ele><time>2026-05-02T10:06:37.272Z</time></trkpt><trkpt lat="43.733115" lon="6.391635"><ele>770.5</ele><time>2026-05-02T10:06:38.272Z</time></trkpt><trkpt lat="43.7329933" lon="6.3915183"><ele>768.25</ele><time>2026-05-02T10:06:39.272Z</time></trkpt><trkpt lat="43.73287" lon="6.391405"><ele>766.0</ele><time>2026-05-02T10:06:40.272Z</time></trkpt><trkpt lat="43.732745" lon="6.3913017"><ele>764.5</ele><time>2026-05-02T10:06:41.273Z</time></trkpt><trkpt lat="43.7326317" lon="6.3911933"><ele>763.0</ele><time>2026-05-02T10:06:42.272Z</time></trkpt><trkpt lat="43.7325167" lon="6.3910883"><ele>761.5</ele><time>2026-05-02T10:06:43.273Z</time></trkpt><trkpt lat="43.7324183" lon="6.390985"><ele>760.0</ele><time>2026-05-02T10:06:44.273Z</time></trkpt><trkpt lat="43.7323283" lon="6.390865"><ele>760.0</ele><time>2026-05-02T10:06:45.272Z</time></trkpt><trkpt lat="43.7322567" lon="6.3907267"><ele>760.0</ele><time>2026-05-02T10:06:46.272Z</time></trkpt><trkpt lat="43.73221" lon="6.3905567"><ele>760.0</ele><time>2026-05-02T10:06:47.272Z</time></trkpt><trkpt lat="43.732165" lon="6.3903783"><ele>760.0</ele><time>2026-05-02T10:06:48.273Z</time></trkpt><trkpt lat="43.7321267" lon="6.3902083"><ele>758.75</ele><time>2026-05-02T10:06:49.272Z</time></trkpt><trkpt lat="43.7320767" lon="6.3900717"><ele>757.5</ele><time>2026-05-02T10:06:50.272Z</time></trkpt><trkpt lat="43.73199" lon="6.38997"><ele>756.25</ele><time>2026-05-02T10:06:51.272Z</time></trkpt><trkpt lat="43.7318917" lon="6.3899033"><ele>755.0</ele><time>2026-05-02T10:06:52.272Z</time></trkpt><trkpt lat="43.731765" lon="6.3898617"><ele>755.0</ele><time>2026-05-02T10:06:53.272Z</time></trkpt><trkpt lat="43.7316217" lon="6.3898383"><ele>755.0</ele><time>2026-05-02T10:06:54.272Z</time></trkpt><trkpt lat="43.7314883" lon="6.389815"><ele>755.0</ele><time>2026-05-02T10:06:55.272Z</time></trkpt><trkpt lat="43.731365" lon="6.3898017"><ele>755.0</ele><time>2026-05-02T10:06:56.272Z</time></trkpt><trkpt lat="43.73124" lon="6.3897833"><ele>755.0</ele><time>2026-05-02T10:06:57.273Z</time></trkpt><trkpt lat="43.7311217" lon="6.3897567"><ele>755.0</ele><time>2026-05-02T10:06:58.272Z</time></trkpt><trkpt lat="43.731005" lon="6.389705"><ele>755.0</ele><time>2026-05-02T10:06:59.272Z</time></trkpt><trkpt lat="43.7309" lon="6.3896417"><ele>755.0</ele><time>2026-05-02T10:07:00.272Z</time></trkpt><trkpt lat="43.7307983" lon="6.389575"><ele>750.6</ele><time>2026-05-02T10:07:01.273Z</time></trkpt><trkpt lat="43.7306967" lon="6.3895083"><ele>746.2</ele><time>2026-05-02T10:07:02.272Z</time></trkpt><trkpt lat="43.7305983" lon="6.3894433"><ele>741.8</ele><time>2026-05-02T10:07:03.272Z</time></trkpt><trkpt lat="43.7305033" lon="6.3893767"><ele>737.4</ele><time>2026-05-02T10:07:04.273Z</time></trkpt><trkpt lat="43.7304083" lon="6.389305"><ele>733.0</ele><time>2026-05-02T10:07:05.272Z</time></trkpt><trkpt lat="43.7303117" lon="6.3892267"><ele>732.4</ele><time>2026-05-02T10:07:06.272Z</time></trkpt><trkpt lat="43.7302117" lon="6.3891567"><ele>731.8</ele><time>2026-05-02T10:07:07.273Z</time></trkpt><trkpt lat="43.7301183" lon="6.389085"><ele>731.2</ele><time>2026-05-02T10:07:08.272Z</time></trkpt><trkpt lat="43.7300317" lon="6.389005"><ele>730.6</ele><time>2026-05-02T10:07:09.272Z</time></trkpt><trkpt lat="43.7299533" lon="6.3889133"><ele>730.0</ele><time>2026-05-02T10:07:10.272Z</time></trkpt><trkpt lat="43.7298867" lon="6.388815"><ele>730.0</ele><time>2026-05-02T10:07:11.272Z</time></trkpt><trkpt lat="43.7298283" lon="6.38871"><ele>730.0</ele><time>2026-05-02T10:07:12.272Z</time></trkpt><trkpt lat="43.7297817" lon="6.3886117"><ele>730.0</ele><time>2026-05-02T10:07:13.272Z</time></trkpt><trkpt lat="43.7297433" lon="6.3885233"><ele>730.0</ele><time>2026-05-02T10:07:14.272Z</time></trkpt><trkpt lat="43.7297083" lon="6.3884333"><ele>730.0</ele><time>2026-05-02T10:07:15.272Z</time></trkpt><trkpt lat="43.7296883" lon="6.388335"><ele>730.0</ele><time>2026-05-02T10:07:16.272Z</time></trkpt><trkpt lat="43.7296817" lon="6.388225"><ele>730.0</ele><time>2026-05-02T10:07:17.272Z</time></trkpt><trkpt lat="43.729695" lon="6.3881117"><ele>730.0</ele><time>2026-05-02T10:07:18.272Z</time></trkpt><trkpt lat="43.72972" lon="6.388"><ele>730.0</ele><time>2026-05-02T10:07:19.272Z</time></trkpt><trkpt lat="43.729755" lon="6.387895"><ele>730.0</ele><time>2026-05-02T10:07:20.272Z</time></trkpt><trkpt lat="43.729795" lon="6.387795"><ele>730.0</ele><time>2026-05-02T10:07:21.272Z</time></trkpt><trkpt lat="43.729845" lon="6.387705"><ele>730.0</ele><time>2026-05-02T10:07:22.272Z</time></trkpt><trkpt lat="43.7298917" lon="6.38763"><ele>726.4</ele><time>2026-05-02T10:07:23.272Z</time></trkpt><trkpt lat="43.7299333" lon="6.3875583"><ele>722.8</ele><time>2026-05-02T10:07:24.272Z</time></trkpt><trkpt lat="43.72997" lon="6.3874817"><ele>719.2</ele><time>2026-05-02T10:07:25.272Z</time></trkpt><trkpt lat="43.73004" lon="6.3873517"><ele>715.6</ele><time>2026-05-02T10:07:27.273Z</time></trkpt><trkpt lat="43.7301117" lon="6.38724"><ele>712.0</ele><time>2026-05-02T10:07:29.272Z</time></trkpt><trkpt lat="43.7301933" lon="6.38713"><ele>713.0</ele><time>2026-05-02T10:07:31.272Z</time></trkpt><trkpt lat="43.73024" lon="6.38707"><ele>714.0</ele><time>2026-05-02T10:07:32.272Z</time></trkpt><trkpt lat="43.7302867" lon="6.3870083"><ele>715.0</ele><time>2026-05-02T10:07:33.272Z</time></trkpt><trkpt lat="43.7303367" lon="6.3869467"><ele>716.0</ele><time>2026-05-02T10:07:34.272Z</time></trkpt><trkpt lat="43.7304183" lon="6.3868283"><ele>717.0</ele><time>2026-05-02T10:07:36.272Z</time></trkpt><trkpt lat="43.73049" lon="6.3867217"><ele>718.0</ele><time>2026-05-02T10:07:38.273Z</time></trkpt><trkpt lat="43.73054" lon="6.3866667"><ele>718.0</ele><time>2026-05-02T10:07:39.272Z</time></trkpt><trkpt lat="43.7306467" lon="6.3865883"><ele>718.0</ele><time>2026-05-02T10:07:41.272Z</time></trkpt><trkpt lat="43.730765" lon="6.3865783"><ele>718.0</ele><time>2026-05-02T10:07:43.272Z</time></trkpt><trkpt lat="43.7308283" lon="6.38661"><ele>718.0</ele><time>2026-05-02T10:07:44.272Z</time></trkpt><trkpt lat="43.7309317" lon="6.3867033"><ele>718.0</ele><time>2026-05-02T10:07:46.273Z</time></trkpt><trkpt lat="43.7310167" lon="6.38682"><ele>718.3333333333334</ele><time>2026-05-02T10:07:48.272Z</time></trkpt><trkpt lat="43.7310717" lon="6.3868867"><ele>718.6666666666667</ele><time>2026-05-02T10:07:50.272Z</time></trkpt><trkpt lat="43.731125" lon="6.3869667"><ele>719.0</ele><time>2026-05-02T10:09:16.272Z</time></trkpt><trkpt lat="43.7311867" lon="6.38702"><ele>719.3333333333334</ele><time>2026-05-02T10:09:18.272Z</time></trkpt><trkpt lat="43.7312517" lon="6.3871167"><ele>719.6666666666666</ele><time>2026-05-02T10:09:20.272Z</time></trkpt><trkpt lat="43.7313283" lon="6.3872267"><ele>720.0</ele><time>2026-05-02T10:09:22.272Z</time></trkpt><trkpt lat="43.731375" lon="6.3872883"><ele>720.0</ele><time>2026-05-02T10:09:23.273Z</time></trkpt><trkpt lat="43.7314217" lon="6.387355"><ele>720.0</ele><time>2026-05-02T10:09:24.273Z</time></trkpt><trkpt lat="43.7314783" lon="6.3874117"><ele>720.0</ele><time>2026-05-02T10:09:25.272Z</time></trkpt><trkpt lat="43.7315433" lon="6.3874383"><ele>720.0</ele><time>2026-05-02T10:09:26.273Z</time></trkpt><trkpt lat="43.731615" lon="6.387445"><ele>720.0</ele><time>2026-05-02T10:09:27.272Z</time></trkpt><trkpt lat="43.731695" lon="6.387435"><ele>720.0</ele><time>2026-05-02T10:09:28.272Z</time></trkpt><trkpt lat="43.7317717" lon="6.3874017"><ele>720.0</ele><time>2026-05-02T10:09:29.273Z</time></trkpt><trkpt lat="43.731855" lon="6.387365"><ele>720.2</ele><time>2026-05-02T10:09:30.272Z</time></trkpt><trkpt lat="43.731935" lon="6.387335"><ele>720.4</ele><time>2026-05-02T10:09:31.272Z</time></trkpt><trkpt lat="43.73204" lon="6.3873283"><ele>720.5999999999999</ele><time>2026-05-02T10:09:32.272Z</time></trkpt><trkpt lat="43.73215" lon="6.3873467"><ele>720.8</ele><time>2026-05-02T10:09:33.272Z</time></trkpt><trkpt lat="43.7322683" lon="6.3873617"><ele>721.0</ele><time>2026-05-02T10:09:34.272Z</time></trkpt><trkpt lat="43.7323833" lon="6.3873817"><ele>721.0</ele><time>2026-05-02T10:09:35.272Z</time></trkpt><trkpt lat="43.7324817" lon="6.3874033"><ele>721.0</ele><time>2026-05-02T10:09:36.272Z</time></trkpt><trkpt lat="43.7325683" lon="6.38742"><ele>721.0</ele><time>2026-05-02T10:09:37.272Z</time></trkpt><trkpt lat="43.7326467" lon="6.3874317"><ele>721.0</ele><time>2026-05-02T10:09:38.272Z</time></trkpt><trkpt lat="43.73272" lon="6.387435"><ele>721.0</ele><time>2026-05-02T10:09:39.272Z</time></trkpt><trkpt lat="43.7327917" lon="6.387415"><ele>721.0</ele><time>2026-05-02T10:09:40.272Z</time></trkpt><trkpt lat="43.732855" lon="6.3873667"><ele>720.8</ele><time>2026-05-02T10:09:41.273Z</time></trkpt><trkpt lat="43.7329117" lon="6.387275"><ele>720.5999999999999</ele><time>2026-05-02T10:09:42.272Z</time></trkpt><trkpt lat="43.7329517" lon="6.3871483"><ele>720.4</ele><time>2026-05-02T10:09:43.272Z</time></trkpt><trkpt lat="43.7329683" lon="6.3869967"><ele>720.2</ele><time>2026-05-02T10:09:44.272Z</time></trkpt><trkpt lat="43.7329733" lon="6.38682"><ele>720.0</ele><time>2026-05-02T10:09:45.272Z</time></trkpt><trkpt lat="43.7329683" lon="6.3866417"><ele>720.0</ele><time>2026-05-02T10:09:46.272Z</time></trkpt><trkpt lat="43.732975" lon="6.386475"><ele>720.0</ele><time>2026-05-02T10:09:47.272Z</time></trkpt><trkpt lat="43.7329933" lon="6.38631"><ele>720.0</ele><time>2026-05-02T10:09:48.272Z</time></trkpt><trkpt lat="43.7329867" lon="6.38614"><ele>720.0</ele><time>2026-05-02T10:09:49.272Z</time></trkpt><trkpt lat="43.73298" lon="6.3859633"><ele>724.75</ele><time>2026-05-02T10:09:50.272Z</time></trkpt><trkpt lat="43.7329633" lon="6.3857917"><ele>729.5</ele><time>2026-05-02T10:09:51.273Z</time></trkpt><trkpt lat="43.732955" lon="6.3856233"><ele>734.25</ele><time>2026-05-02T10:09:52.272Z</time></trkpt><trkpt lat="43.7329733" lon="6.3854617"><ele>739.0</ele><time>2026-05-02T10:09:53.272Z</time></trkpt><trkpt lat="43.7330083" lon="6.3853033"><ele>739.75</ele><time>2026-05-02T10:09:54.272Z</time></trkpt><trkpt lat="43.7330317" lon="6.3851317"><ele>740.5</ele><time>2026-05-02T10:09:55.272Z</time></trkpt><trkpt lat="43.73304" lon="6.384955"><ele>741.25</ele><time>2026-05-02T10:09:56.272Z</time></trkpt><trkpt lat="43.7330383" lon="6.3847833"><ele>742.0</ele><time>2026-05-02T10:09:57.272Z</time></trkpt><trkpt lat="43.7330367" lon="6.384605"><ele>743.5</ele><time>2026-05-02T10:09:58.272Z</time></trkpt><trkpt lat="43.73303" lon="6.3844317"><ele>745.0</ele><time>2026-05-02T10:09:59.272Z</time></trkpt><trkpt lat="43.733015" lon="6.3842517"><ele>746.5</ele><time>2026-05-02T10:10:00.273Z</time></trkpt><trkpt lat="43.733" lon="6.3840767"><ele>748.0</ele><time>2026-05-02T10:10:01.273Z</time></trkpt><trkpt lat="43.732975" lon="6.3839017"><ele>749.25</ele><time>2026-05-02T10:10:02.272Z</time></trkpt><trkpt lat="43.7329483" lon="6.3837283"><ele>750.5</ele><time>2026-05-02T10:10:03.272Z</time></trkpt><trkpt lat="43.732935" lon="6.3835517"><ele>751.75</ele><time>2026-05-02T10:10:04.272Z</time></trkpt><trkpt lat="43.73293" lon="6.3833717"><ele>753.0</ele><time>2026-05-02T10:10:05.272Z</time></trkpt><trkpt lat="43.7329383" lon="6.383185"><ele>755.5</ele><time>2026-05-02T10:10:06.272Z</time></trkpt><trkpt lat="43.7329633" lon="6.3829917"><ele>758.0</ele><time>2026-05-02T10:10:07.272Z</time></trkpt><trkpt lat="43.732985" lon="6.3827933"><ele>760.5</ele><time>2026-05-02T10:10:08.272Z</time></trkpt><trkpt lat="43.73302" lon="6.3825883"><ele>763.0</ele><time>2026-05-02T10:10:09.272Z</time></trkpt><trkpt lat="43.7330517" lon="6.38238"><ele>764.3333333333334</ele><time>2026-05-02T10:10:10.272Z</time></trkpt><trkpt lat="43.7330767" lon="6.3821567"><ele>765.6666666666666</ele><time>2026-05-02T10:10:11.272Z</time></trkpt><trkpt lat="43.7330983" lon="6.38193"><ele>767.0</ele><time>2026-05-02T10:10:12.272Z</time></trkpt><trkpt lat="43.73313" lon="6.38172"><ele>767.0</ele><time>2026-05-02T10:10:13.272Z</time></trkpt><trkpt lat="43.733165" lon="6.3815133"><ele>767.0</ele><time>2026-05-02T10:10:14.272Z</time></trkpt><trkpt lat="43.7331933" lon="6.3812983"><ele>767.0</ele><time>2026-05-02T10:10:15.272Z</time></trkpt><trkpt lat="43.7332117" lon="6.3810733"><ele>769.0</ele><time>2026-05-02T10:10:16.272Z</time></trkpt><trkpt lat="43.7332183" lon="6.3808467"><ele>771.0</ele><time>2026-05-02T10:10:17.272Z</time></trkpt><trkpt lat="43.7332067" lon="6.3806067"><ele>773.0</ele><time>2026-05-02T10:10:18.272Z</time></trkpt><trkpt lat="43.7331983" lon="6.3803733"><ele>775.0</ele><time>2026-05-02T10:10:19.272Z</time></trkpt><trkpt lat="43.73319" lon="6.3801383"><ele>777.0</ele><time>2026-05-02T10:10:20.272Z</time></trkpt><trkpt lat="43.73319" lon="6.379925"><ele>779.0</ele><time>2026-05-02T10:10:21.272Z</time></trkpt><trkpt lat="43.7331783" lon="6.3797133"><ele>778.25</ele><time>2026-05-02T10:10:22.272Z</time></trkpt><trkpt lat="43.7331767" lon="6.3794983"><ele>777.5</ele><time>2026-05-02T10:10:23.272Z</time></trkpt><trkpt lat="43.7331733" lon="6.3793"><ele>776.75</ele><time>2026-05-02T10:10:24.272Z</time></trkpt><trkpt lat="43.733145" lon="6.3791017"><ele>776.0</ele><time>2026-05-02T10:10:25.272Z</time></trkpt><trkpt lat="43.7330983" lon="6.3789017"><ele>777.6666666666667</ele><time>2026-05-02T10:10:26.272Z</time></trkpt><trkpt lat="43.7330383" lon="6.37869"><ele>779.3333333333333</ele><time>2026-05-02T10:10:27.272Z</time></trkpt><trkpt lat="43.7329783" lon="6.378475"><ele>781.0</ele><time>2026-05-02T10:10:28.272Z</time></trkpt><trkpt lat="43.732925" lon="6.3782767"><ele>781.0</ele><time>2026-05-02T10:10:29.272Z</time></trkpt><trkpt lat="43.7328717" lon="6.378085"><ele>781.0</ele><time>2026-05-02T10:10:30.272Z</time></trkpt><trkpt lat="43.7328167" lon="6.3778967"><ele>781.0</ele><time>2026-05-02T10:10:31.272Z</time></trkpt><trkpt lat="43.7327633" lon="6.3777217"><ele>781.0</ele><time>2026-05-02T10:10:32.272Z</time></trkpt><trkpt lat="43.7327117" lon="6.3775533"><ele>783.8</ele><time>2026-05-02T10:10:33.272Z</time></trkpt><trkpt lat="43.7326817" lon="6.3773917"><ele>786.5999999999999</ele><time>2026-05-02T10:10:34.272Z</time></trkpt><trkpt lat="43.73265" lon="6.3772433"><ele>789.4</ele><time>2026-05-02T10:10:35.272Z</time></trkpt><trkpt lat="43.7326583" lon="6.3771117"><ele>792.2</ele><time>2026-05-02T10:10:36.272Z</time></trkpt><trkpt lat="43.7327083" lon="6.3769917"><ele>795.0</ele><time>2026-05-02T10:10:37.273Z</time></trkpt><trkpt lat="43.7327917" lon="6.3768767"><ele>795.0</ele><time>2026-05-02T10:10:38.272Z</time></trkpt><trkpt lat="43.7328567" lon="6.3767267"><ele>795.0</ele><time>2026-05-02T10:10:39.272Z</time></trkpt><trkpt lat="43.7329133" lon="6.376565"><ele>795.0</ele><time>2026-05-02T10:10:40.272Z</time></trkpt><trkpt lat="43.73297" lon="6.3764233"><ele>795.0</ele><time>2026-05-02T10:10:41.272Z</time></trkpt><trkpt lat="43.7330483" lon="6.3763017"><ele>798.6</ele><time>2026-05-02T10:10:42.272Z</time></trkpt><trkpt lat="43.733145" lon="6.376215"><ele>802.2</ele><time>2026-05-02T10:10:43.272Z</time></trkpt><trkpt lat="43.733255" lon="6.3761783"><ele>805.8</ele><time>2026-05-02T10:10:44.272Z</time></trkpt><trkpt lat="43.73336" lon="6.3761783"><ele>809.4</ele><time>2026-05-02T10:10:45.272Z</time></trkpt><trkpt lat="43.7334517" lon="6.3762367"><ele>813.0</ele><time>2026-05-02T10:10:46.272Z</time></trkpt><trkpt lat="43.7335283" lon="6.3763467"><ele>811.5</ele><time>2026-05-02T10:10:47.272Z</time></trkpt><trkpt lat="43.7335967" lon="6.3764733"><ele>810.0</ele><time>2026-05-02T10:10:48.272Z</time></trkpt><trkpt lat="43.733675" lon="6.3765833"><ele>808.5</ele><time>2026-05-02T10:10:49.272Z</time></trkpt><trkpt lat="43.7337683" lon="6.3766833"><ele>807.0</ele><time>2026-05-02T10:10:50.272Z</time></trkpt><trkpt lat="43.733875" lon="6.376765"><ele>807.0</ele><time>2026-05-02T10:10:51.272Z</time></trkpt><trkpt lat="43.733995" lon="6.3768233"><ele>807.0</ele><time>2026-05-02T10:10:52.272Z</time></trkpt><trkpt lat="43.73412" lon="6.376855"><ele>807.0</ele><time>2026-05-02T10:10:53.272Z</time></trkpt><trkpt lat="43.73425" lon="6.3768933"><ele>807.0</ele><time>2026-05-02T10:10:54.272Z</time></trkpt><trkpt lat="43.734385" lon="6.3769283"><ele>811.25</ele><time>2026-05-02T10:10:55.272Z</time></trkpt><trkpt lat="43.7345183" lon="6.3769617"><ele>815.5</ele><time>2026-05-02T10:10:56.273Z</time></trkpt><trkpt lat="43.7346483" lon="6.37701"><ele>819.75</ele><time>2026-05-02T10:10:57.272Z</time></trkpt><trkpt lat="43.7347833" lon="6.377035"><ele>824.0</ele><time>2026-05-02T10:10:58.273Z</time></trkpt><trkpt lat="43.7349267" lon="6.377035"><ele>824.0</ele><time>2026-05-02T10:10:59.272Z</time></trkpt><trkpt lat="43.7350733" lon="6.3770217"><ele>824.0</ele><time>2026-05-02T10:11:00.273Z</time></trkpt><trkpt lat="43.7352283" lon="6.3769933"><ele>824.0</ele><time>2026-05-02T10:11:01.272Z</time></trkpt><trkpt lat="43.7353783" lon="6.3769533"><ele>826.25</ele><time>2026-05-02T10:11:02.272Z</time></trkpt><trkpt lat="43.7355317" lon="6.376935"><ele>828.5</ele><time>2026-05-02T10:11:03.272Z</time></trkpt><trkpt lat="43.7356767" lon="6.376925"><ele>830.75</ele><time>2026-05-02T10:11:04.272Z</time></trkpt><trkpt lat="43.7358217" lon="6.3769133"><ele>833.0</ele><time>2026-05-02T10:11:05.272Z</time></trkpt><trkpt lat="43.7359733" lon="6.3769167"><ele>834.75</ele><time>2026-05-02T10:11:06.272Z</time></trkpt><trkpt lat="43.7361233" lon="6.3769167"><ele>836.5</ele><time>2026-05-02T10:11:07.272Z</time></trkpt><trkpt lat="43.73627" lon="6.3769133"><ele>838.25</ele><time>2026-05-02T10:11:08.272Z</time></trkpt><trkpt lat="43.7364083" lon="6.3769283"><ele>840.0</ele><time>2026-05-02T10:11:09.272Z</time></trkpt><trkpt lat="43.73654" lon="6.37695"><ele>840.0</ele><time>2026-05-02T10:11:10.272Z</time></trkpt><trkpt lat="43.7366467" lon="6.376965"><ele>840.0</ele><time>2026-05-02T10:11:11.272Z</time></trkpt><trkpt lat="43.73674" lon="6.3769667"><ele>840.0</ele><time>2026-05-02T10:11:12.272Z</time></trkpt><trkpt lat="43.7368433" lon="6.37694"><ele>840.0</ele><time>2026-05-02T10:11:13.272Z</time></trkpt><trkpt lat="43.7369583" lon="6.3769033"><ele>840.0</ele><time>2026-05-02T10:11:14.272Z</time></trkpt><trkpt lat="43.7370767" lon="6.3768483"><ele>838.5</ele><time>2026-05-02T10:11:15.272Z</time></trkpt><trkpt lat="43.7372" lon="6.3767967"><ele>837.0</ele><time>2026-05-02T10:11:16.272Z</time></trkpt><trkpt lat="43.737325" lon="6.3767133"><ele>835.5</ele><time>2026-05-02T10:11:17.273Z</time></trkpt><trkpt lat="43.7374283" lon="6.3766367"><ele>834.0</ele><time>2026-05-02T10:11:18.272Z</time></trkpt><trkpt lat="43.737525" lon="6.3765333"><ele>834.0</ele><time>2026-05-02T10:11:19.272Z</time></trkpt><trkpt lat="43.7376033" lon="6.376405"><ele>834.0</ele><time>2026-05-02T10:11:20.272Z</time></trkpt><trkpt lat="43.7376667" lon="6.3762367"><ele>834.0</ele><time>2026-05-02T10:11:21.272Z</time></trkpt><trkpt lat="43.7377183" lon="6.3760717"><ele>834.0</ele><time>2026-05-02T10:11:22.272Z</time></trkpt><trkpt lat="43.7377667" lon="6.3759367"><ele>834.4000000000001</ele><time>2026-05-02T10:11:23.272Z</time></trkpt><trkpt lat="43.7378217" lon="6.375825"><ele>834.8</ele><time>2026-05-02T10:11:24.272Z</time></trkpt><trkpt lat="43.7378883" lon="6.375725"><ele>835.2</ele><time>2026-05-02T10:11:25.272Z</time></trkpt><trkpt lat="43.7379767" lon="6.37565"><ele>835.5999999999999</ele><time>2026-05-02T10:11:26.272Z</time></trkpt><trkpt lat="43.738085" lon="6.3755867"><ele>836.0</ele><time>2026-05-02T10:11:27.273Z</time></trkpt><trkpt lat="43.738195" lon="6.3755267"><ele>838.5</ele><time>2026-05-02T10:11:28.272Z</time></trkpt><trkpt lat="43.738305" lon="6.37545"><ele>841.0</ele><time>2026-05-02T10:11:29.272Z</time></trkpt><trkpt lat="43.738415" lon="6.3753667"><ele>843.5</ele><time>2026-05-02T10:11:30.272Z</time></trkpt><trkpt lat="43.7385267" lon="6.375295"><ele>846.0</ele><time>2026-05-02T10:11:31.273Z</time></trkpt><trkpt lat="43.7386317" lon="6.3752117"><ele>846.0</ele><time>2026-05-02T10:11:32.272Z</time></trkpt><trkpt lat="43.7387383" lon="6.375125"><ele>846.0</ele><time>2026-05-02T10:11:33.272Z</time></trkpt><trkpt lat="43.7388433" lon="6.3750167"><ele>846.0</ele><time>2026-05-02T10:11:34.273Z</time></trkpt><trkpt lat="43.73895" lon="6.3749067"><ele>846.0</ele><time>2026-05-02T10:11:35.272Z</time></trkpt><trkpt lat="43.73905" lon="6.374795"><ele>845.5</ele><time>2026-05-02T10:11:36.272Z</time></trkpt><trkpt lat="43.7391467" lon="6.3746833"><ele>845.0</ele><time>2026-05-02T10:11:37.272Z</time></trkpt><trkpt lat="43.73924" lon="6.3745717"><ele>844.5</ele><time>2026-05-02T10:11:38.273Z</time></trkpt><trkpt lat="43.7393267" lon="6.3744533"><ele>844.0</ele><time>2026-05-02T10:11:39.272Z</time></trkpt><trkpt lat="43.7394167" lon="6.37434"><ele>844.0</ele><time>2026-05-02T10:11:40.273Z</time></trkpt><trkpt lat="43.739515" lon="6.3742383"><ele>844.0</ele><time>2026-05-02T10:11:41.272Z</time></trkpt><trkpt lat="43.7396117" lon="6.3741333"><ele>844.0</ele><time>2026-05-02T10:11:42.272Z</time></trkpt><trkpt lat="43.7396967" lon="6.3740267"><ele>844.0</ele><time>2026-05-02T10:11:43.272Z</time></trkpt><trkpt lat="43.73978" lon="6.3739383"><ele>847.3333333333333</ele><time>2026-05-02T10:11:44.272Z</time></trkpt><trkpt lat="43.7398567" lon="6.373845"><ele>850.6666666666666</ele><time>2026-05-02T10:11:45.272Z</time></trkpt><trkpt lat="43.73993" lon="6.3737617"><ele>854.0</ele><time>2026-05-02T10:11:46.272Z</time></trkpt><trkpt lat="43.7400083" lon="6.3736917"><ele>857.3333333333333</ele><time>2026-05-02T10:11:47.272Z</time></trkpt><trkpt lat="43.7400717" lon="6.3736417"><ele>860.6666666666666</ele><time>2026-05-02T10:11:48.272Z</time></trkpt><trkpt lat="43.7401317" lon="6.3735967"><ele>864.0</ele><time>2026-05-02T10:11:49.272Z</time></trkpt><trkpt lat="43.74019" lon="6.3735617"><ele>864.0</ele><time>2026-05-02T10:11:50.272Z</time></trkpt><trkpt lat="43.7402617" lon="6.37347"><ele>864.0</ele><time>2026-05-02T10:11:52.272Z</time></trkpt><trkpt lat="43.74025" lon="6.3733233"><ele>864.0</ele><time>2026-05-02T10:11:54.272Z</time></trkpt><trkpt lat="43.740205" lon="6.3732533"><ele>864.0</ele><time>2026-05-02T10:11:55.272Z</time></trkpt><trkpt lat="43.7401417" lon="6.3732"><ele>864.0</ele><time>2026-05-02T10:11:56.272Z</time></trkpt><trkpt lat="43.7400683" lon="6.37319"><ele>864.0</ele><time>2026-05-02T10:11:57.272Z</time></trkpt><trkpt lat="43.7399783" lon="6.3731933"><ele>864.0</ele><time>2026-05-02T10:11:58.272Z</time></trkpt><trkpt lat="43.7398967" lon="6.3731783"><ele>864.0</ele><time>2026-05-02T10:11:59.272Z</time></trkpt><trkpt lat="43.7398217" lon="6.3731367"><ele>864.0</ele><time>2026-05-02T10:12:00.272Z</time></trkpt><trkpt lat="43.739745" lon="6.3730883"><ele>864.0</ele><time>2026-05-02T10:12:01.272Z</time></trkpt><trkpt lat="43.7396683" lon="6.3730467"><ele>864.0</ele><time>2026-05-02T10:12:02.272Z</time></trkpt><trkpt lat="43.7395867" lon="6.373025"><ele>864.0</ele><time>2026-05-02T10:12:03.272Z</time></trkpt><trkpt lat="43.7394983" lon="6.373"><ele>867.3333333333334</ele><time>2026-05-02T10:12:04.273Z</time></trkpt><trkpt lat="43.7394117" lon="6.3729683"><ele>870.6666666666667</ele><time>2026-05-02T10:12:05.272Z</time></trkpt><trkpt lat="43.739325" lon="6.37294"><ele>874.0</ele><time>2026-05-02T10:12:06.272Z</time></trkpt><trkpt lat="43.7392383" lon="6.3729183"><ele>877.3333333333334</ele><time>2026-05-02T10:12:07.272Z</time></trkpt><trkpt lat="43.739155" lon="6.3728967"><ele>880.6666666666667</ele><time>2026-05-02T10:12:08.272Z</time></trkpt><trkpt lat="43.7390817" lon="6.372885"><ele>884.0</ele><time>2026-05-02T10:12:09.272Z</time></trkpt><trkpt lat="43.73902" lon="6.37285"><ele>884.0</ele><time>2026-05-02T10:12:10.273Z</time></trkpt><trkpt lat="43.7389667" lon="6.3727717"><ele>884.0000000000001</ele><time>2026-05-02T10:12:12.272Z</time></trkpt><trkpt lat="43.7389983" lon="6.3726917"><ele>884.0000000000001</ele><time>2026-05-02T10:12:14.272Z</time></trkpt><trkpt lat="43.739105" lon="6.37255"><ele>884.0</ele><time>2026-05-02T10:12:16.272Z</time></trkpt><trkpt lat="43.7391567" lon="6.372405"><ele>884.0</ele><time>2026-05-02T10:12:17.272Z</time></trkpt><trkpt lat="43.7391633" lon="6.3722483"><ele>882.8000000000001</ele><time>2026-05-02T10:12:18.272Z</time></trkpt><trkpt lat="43.739215" lon="6.3720967"><ele>881.6000000000001</ele><time>2026-05-02T10:12:19.272Z</time></trkpt><trkpt lat="43.7392467" lon="6.3719517"><ele>880.4</ele><time>2026-05-02T10:12:20.272Z</time></trkpt><trkpt lat="43.7392483" lon="6.371815"><ele>879.2</ele><time>2026-05-02T10:12:21.272Z</time></trkpt><trkpt lat="43.73925" lon="6.371685"><ele>878.0</ele><time>2026-05-02T10:12:22.273Z</time></trkpt><trkpt lat="43.7392417" lon="6.37157"><ele>878.0000000000001</ele><time>2026-05-02T10:12:23.272Z</time></trkpt><trkpt lat="43.7392267" lon="6.371465"><ele>878.0</ele><time>2026-05-02T10:12:24.272Z</time></trkpt><trkpt lat="43.7392" lon="6.37137"><ele>878.0</ele><time>2026-05-02T10:12:25.273Z</time></trkpt><trkpt lat="43.7391433" lon="6.3712983"><ele>878.0</ele><time>2026-05-02T10:12:26.272Z</time></trkpt><trkpt lat="43.73907" lon="6.3712417"><ele>878.0000000000001</ele><time>2026-05-02T10:12:27.272Z</time></trkpt><trkpt lat="43.7389717" lon="6.3711833"><ele>878.0</ele><time>2026-05-02T10:12:28.272Z</time></trkpt><trkpt lat="43.7388733" lon="6.371115"><ele>877.0</ele><time>2026-05-02T10:12:29.272Z</time></trkpt><trkpt lat="43.7387733" lon="6.3710583"><ele>876.0</ele><time>2026-05-02T10:12:30.272Z</time></trkpt><trkpt lat="43.7386717" lon="6.3709933"><ele>875.0</ele><time>2026-05-02T10:12:31.272Z</time></trkpt><trkpt lat="43.7385667" lon="6.3709267"><ele>874.0</ele><time>2026-05-02T10:12:32.272Z</time></trkpt><trkpt lat="43.7384767" lon="6.370865"><ele>873.0</ele><time>2026-05-02T10:12:33.272Z</time></trkpt><trkpt lat="43.7383867" lon="6.3708033"><ele>873.0</ele><time>2026-05-02T10:12:34.273Z</time></trkpt><trkpt lat="43.7383" lon="6.370745"><ele>873.0</ele><time>2026-05-02T10:12:35.273Z</time></trkpt><trkpt lat="43.7382117" lon="6.370685"><ele>873.0</ele><time>2026-05-02T10:12:36.272Z</time></trkpt><trkpt lat="43.7381233" lon="6.37063"><ele>873.0</ele><time>2026-05-02T10:12:37.272Z</time></trkpt><trkpt lat="43.7380317" lon="6.37058"><ele>873.0</ele><time>2026-05-02T10:12:38.272Z</time></trkpt><trkpt lat="43.737935" lon="6.3705383"><ele>869.2</ele><time>2026-05-02T10:12:39.272Z</time></trkpt><trkpt lat="43.7378317" lon="6.37051"><ele>865.4</ele><time>2026-05-02T10:12:40.272Z</time></trkpt><trkpt lat="43.7377283" lon="6.3704983"><ele>861.6000000000001</ele><time>2026-05-02T10:12:41.272Z</time></trkpt><trkpt lat="43.7376167" lon="6.3704933"><ele>857.8000000000001</ele><time>2026-05-02T10:12:42.272Z</time></trkpt><trkpt lat="43.7375017" lon="6.3704867"><ele>854.0</ele><time>2026-05-02T10:12:43.272Z</time></trkpt><trkpt lat="43.7373883" lon="6.3704833"><ele>854.0</ele><time>2026-05-02T10:12:44.273Z</time></trkpt><trkpt lat="43.7372767" lon="6.37048"><ele>854.0</ele><time>2026-05-02T10:12:45.272Z</time></trkpt><trkpt lat="43.7371633" lon="6.3704833"><ele>854.0</ele><time>2026-05-02T10:12:46.272Z</time></trkpt><trkpt lat="43.7370433" lon="6.3704967"><ele>854.0</ele><time>2026-05-02T10:12:47.272Z</time></trkpt><trkpt lat="43.736925" lon="6.37052"><ele>857.25</ele><time>2026-05-02T10:12:48.272Z</time></trkpt><trkpt lat="43.7368033" lon="6.3705583"><ele>860.5</ele><time>2026-05-02T10:12:49.272Z</time></trkpt><trkpt lat="43.7366817" lon="6.3706017"><ele>863.75</ele><time>2026-05-02T10:12:50.272Z</time></trkpt><trkpt lat="43.73656" lon="6.37065"><ele>867.0</ele><time>2026-05-02T10:12:51.272Z</time></trkpt><trkpt lat="43.736435" lon="6.3707083"><ele>867.0</ele><time>2026-05-02T10:12:52.273Z</time></trkpt><trkpt lat="43.7363117" lon="6.3707733"><ele>867.0</ele><time>2026-05-02T10:12:53.272Z</time></trkpt><trkpt lat="43.7361917" lon="6.370835"><ele>867.0</ele><time>2026-05-02T10:12:54.272Z</time></trkpt><trkpt lat="43.7360683" lon="6.3708883"><ele>867.0</ele><time>2026-05-02T10:12:55.272Z</time></trkpt><trkpt lat="43.7359467" lon="6.3709483"><ele>865.0</ele><time>2026-05-02T10:12:56.272Z</time></trkpt><trkpt lat="43.735825" lon="6.3710067"><ele>863.0</ele><time>2026-05-02T10:12:57.272Z</time></trkpt><trkpt lat="43.7356967" lon="6.3710567"><ele>861.0</ele><time>2026-05-02T10:12:58.272Z</time></trkpt><trkpt lat="43.7355583" lon="6.3710917"><ele>859.0</ele><time>2026-05-02T10:12:59.272Z</time></trkpt><trkpt lat="43.7354133" lon="6.3711133"><ele>859.0</ele><time>2026-05-02T10:13:00.272Z</time></trkpt><trkpt lat="43.7352833" lon="6.371145"><ele>859.0</ele><time>2026-05-02T10:13:01.272Z</time></trkpt><trkpt lat="43.735145" lon="6.3711683"><ele>859.0</ele><time>2026-05-02T10:13:02.272Z</time></trkpt><trkpt lat="43.7350083" lon="6.3712017"><ele>859.0</ele><time>2026-05-02T10:13:03.272Z</time></trkpt><trkpt lat="43.734875" lon="6.3712383"><ele>859.0</ele><time>2026-05-02T10:13:04.272Z</time></trkpt><trkpt lat="43.73474" lon="6.371275"><ele>859.0</ele><time>2026-05-02T10:13:05.272Z</time></trkpt><trkpt lat="43.7346033" lon="6.3713317"><ele>859.0</ele><time>2026-05-02T10:13:06.272Z</time></trkpt><trkpt lat="43.7344517" lon="6.3714017"><ele>859.0</ele><time>2026-05-02T10:13:07.273Z</time></trkpt><trkpt lat="43.7343" lon="6.3714717"><ele>861.3333333333333</ele><time>2026-05-02T10:13:08.273Z</time></trkpt><trkpt lat="43.7341533" lon="6.3715483"><ele>863.6666666666667</ele><time>2026-05-02T10:13:09.272Z</time></trkpt><trkpt lat="43.7340083" lon="6.3716283"><ele>866.0</ele><time>2026-05-02T10:13:10.273Z</time></trkpt><trkpt lat="43.733855" lon="6.3717267"><ele>866.0</ele><time>2026-05-02T10:13:11.272Z</time></trkpt><trkpt lat="43.7337183" lon="6.3718183"><ele>866.0</ele><time>2026-05-02T10:13:12.272Z</time></trkpt><trkpt lat="43.73358" lon="6.3719017"><ele>866.0</ele><time>2026-05-02T10:13:13.273Z</time></trkpt><trkpt lat="43.733445" lon="6.3719883"><ele>866.0</ele><time>2026-05-02T10:13:14.272Z</time></trkpt><trkpt lat="43.7333133" lon="6.372075"><ele>866.0</ele><time>2026-05-02T10:13:15.272Z</time></trkpt><trkpt lat="43.7331783" lon="6.3721833"><ele>866.0</ele><time>2026-05-02T10:13:16.272Z</time></trkpt><trkpt lat="43.733045" lon="6.3722983"><ele>866.0</ele><time>2026-05-02T10:13:17.272Z</time></trkpt><trkpt lat="43.7329183" lon="6.3724183"><ele>866.0</ele><time>2026-05-02T10:13:18.273Z</time></trkpt><trkpt lat="43.7328" lon="6.37256"><ele>866.0</ele><time>2026-05-02T10:13:19.272Z</time></trkpt><trkpt lat="43.7326917" lon="6.3726983"><ele>867.1999999999999</ele><time>2026-05-02T10:13:20.272Z</time></trkpt><trkpt lat="43.7326017" lon="6.3728317"><ele>868.3999999999999</ele><time>2026-05-02T10:13:21.272Z</time></trkpt><trkpt lat="43.73254" lon="6.37297"><ele>869.6</ele><time>2026-05-02T10:13:22.272Z</time></trkpt><trkpt lat="43.7324983" lon="6.3730917"><ele>870.8</ele><time>2026-05-02T10:13:23.272Z</time></trkpt><trkpt lat="43.7324517" lon="6.3732"><ele>872.0</ele><time>2026-05-02T10:13:24.272Z</time></trkpt><trkpt lat="43.73239" lon="6.373275"><ele>872.0000000000001</ele><time>2026-05-02T10:13:25.273Z</time></trkpt><trkpt lat="43.7323267" lon="6.3733067"><ele>872.0</ele><time>2026-05-02T10:13:26.272Z</time></trkpt><trkpt lat="43.7322567" lon="6.3732933"><ele>872.0</ele><time>2026-05-02T10:13:27.272Z</time></trkpt><trkpt lat="43.732215" lon="6.373225"><ele>872.0</ele><time>2026-05-02T10:13:28.272Z</time></trkpt><trkpt lat="43.7322217" lon="6.3731233"><ele>872.0000000000001</ele><time>2026-05-02T10:13:29.272Z</time></trkpt><trkpt lat="43.73228" lon="6.37302"><ele>872.0</ele><time>2026-05-02T10:13:30.272Z</time></trkpt><trkpt lat="43.73238" lon="6.3729167"><ele>876.25</ele><time>2026-05-02T10:13:31.272Z</time></trkpt><trkpt lat="43.73248" lon="6.3728033"><ele>880.5</ele><time>2026-05-02T10:13:32.272Z</time></trkpt><trkpt lat="43.7325567" lon="6.37268"><ele>884.75</ele><time>2026-05-02T10:13:33.273Z</time></trkpt><trkpt lat="43.7326167" lon="6.3725417"><ele>889.0</ele><time>2026-05-02T10:13:34.272Z</time></trkpt><trkpt lat="43.732675" lon="6.37242"><ele>888.5</ele><time>2026-05-02T10:13:35.273Z</time></trkpt><trkpt lat="43.732735" lon="6.3723"><ele>888.0</ele><time>2026-05-02T10:13:36.272Z</time></trkpt><trkpt lat="43.7327983" lon="6.3721667"><ele>887.5</ele><time>2026-05-02T10:13:37.272Z</time></trkpt><trkpt lat="43.732875" lon="6.3720317"><ele>887.0</ele><time>2026-05-02T10:13:38.272Z</time></trkpt><trkpt lat="43.7329517" lon="6.3719033"><ele>887.0</ele><time>2026-05-02T10:13:39.272Z</time></trkpt><trkpt lat="43.733045" lon="6.3717783"><ele>887.0</ele><time>2026-05-02T10:13:40.273Z</time></trkpt><trkpt lat="43.7331317" lon="6.3716517"><ele>887.0</ele><time>2026-05-02T10:13:41.272Z</time></trkpt><trkpt lat="43.7332233" lon="6.3715333"><ele>887.0</ele><time>2026-05-02T10:13:42.272Z</time></trkpt><trkpt lat="43.7333217" lon="6.3714167"><ele>886.0</ele><time>2026-05-02T10:13:43.272Z</time></trkpt><trkpt lat="43.7334233" lon="6.371295"><ele>885.0</ele><time>2026-05-02T10:13:44.272Z</time></trkpt><trkpt lat="43.73352" lon="6.3711583"><ele>884.0</ele><time>2026-05-02T10:13:45.272Z</time></trkpt><trkpt lat="43.733605" lon="6.3710417"><ele>883.0</ele><time>2026-05-02T10:13:46.272Z</time></trkpt><trkpt lat="43.7336967" lon="6.370905"><ele>883.0</ele><time>2026-05-02T10:13:47.273Z</time></trkpt><trkpt lat="43.7337883" lon="6.37076"><ele>883.0</ele><time>2026-05-02T10:13:48.272Z</time></trkpt><trkpt lat="43.7338767" lon="6.3706217"><ele>883.0</ele><time>2026-05-02T10:13:49.272Z</time></trkpt><trkpt lat="43.7339633" lon="6.3704767"><ele>883.0</ele><time>2026-05-02T10:13:50.272Z</time></trkpt><trkpt lat="43.7340583" lon="6.3703267"><ele>888.75</ele><time>2026-05-02T10:13:51.272Z</time></trkpt><trkpt lat="43.7341417" lon="6.3701783"><ele>894.5</ele><time>2026-05-02T10:13:52.272Z</time></trkpt><trkpt lat="43.73422" lon="6.3700283"><ele>900.25</ele><time>2026-05-02T10:13:53.272Z</time></trkpt><trkpt lat="43.734295" lon="6.3698733"><ele>906.0</ele><time>2026-05-02T10:13:54.272Z</time></trkpt><trkpt lat="43.73437" lon="6.3697117"><ele>902.75</ele><time>2026-05-02T10:13:55.272Z</time></trkpt><trkpt lat="43.7344333" lon="6.369545"><ele>899.5</ele><time>2026-05-02T10:13:56.272Z</time></trkpt><trkpt lat="43.7344983" lon="6.369375"><ele>896.25</ele><time>2026-05-02T10:13:57.273Z</time></trkpt><trkpt lat="43.7345717" lon="6.3692133"><ele>893.0</ele><time>2026-05-02T10:13:58.272Z</time></trkpt><trkpt lat="43.7346383" lon="6.3690417"><ele>893.0</ele><time>2026-05-02T10:13:59.272Z</time></trkpt><trkpt lat="43.7347" lon="6.368875"><ele>893.0</ele><time>2026-05-02T10:14:00.272Z</time></trkpt><trkpt lat="43.7347633" lon="6.3687117"><ele>893.0</ele><time>2026-05-02T10:14:01.272Z</time></trkpt><trkpt lat="43.7348333" lon="6.368545"><ele>893.0</ele><time>2026-05-02T10:14:02.272Z</time></trkpt><trkpt lat="43.7349117" lon="6.3683883"><ele>895.0</ele><time>2026-05-02T10:14:03.272Z</time></trkpt><trkpt lat="43.7349933" lon="6.3682333"><ele>897.0</ele><time>2026-05-02T10:14:04.272Z</time></trkpt><trkpt lat="43.73508" lon="6.368075"><ele>899.0</ele><time>2026-05-02T10:14:05.273Z</time></trkpt><trkpt lat="43.7351767" lon="6.36792"><ele>901.0</ele><time>2026-05-02T10:14:06.272Z</time></trkpt><trkpt lat="43.7352683" lon="6.3677867"><ele>901.0</ele><time>2026-05-02T10:14:07.272Z</time></trkpt><trkpt lat="43.73535" lon="6.3676583"><ele>900.9999999999999</ele><time>2026-05-02T10:14:08.272Z</time></trkpt><trkpt lat="43.73543" lon="6.3675567"><ele>900.9999999999999</ele><time>2026-05-02T10:14:09.272Z</time></trkpt><trkpt lat="43.7354933" lon="6.3674333"><ele>901.0</ele><time>2026-05-02T10:14:10.272Z</time></trkpt><trkpt lat="43.7355367" lon="6.3673017"><ele>901.0</ele><time>2026-05-02T10:14:11.272Z</time></trkpt><trkpt lat="43.7355467" lon="6.3671617"><ele>902.4999999999999</ele><time>2026-05-02T10:14:12.272Z</time></trkpt><trkpt lat="43.7355383" lon="6.3670183"><ele>904.0</ele><time>2026-05-02T10:14:13.272Z</time></trkpt><trkpt lat="43.7355283" lon="6.3668967"><ele>905.5</ele><time>2026-05-02T10:14:14.272Z</time></trkpt><trkpt lat="43.735525" lon="6.3667767"><ele>907.0</ele><time>2026-05-02T10:14:15.272Z</time></trkpt><trkpt lat="43.73552" lon="6.36666"><ele>908.4999999999999</ele><time>2026-05-02T10:14:16.272Z</time></trkpt><trkpt lat="43.7355183" lon="6.366545"><ele>910.0</ele><time>2026-05-02T10:14:17.272Z</time></trkpt><trkpt lat="43.7355083" lon="6.3664233"><ele>905.2</ele><time>2026-05-02T10:14:18.272Z</time></trkpt><trkpt lat="43.7354967" lon="6.3662883"><ele>900.4</ele><time>2026-05-02T10:14:19.272Z</time></trkpt><trkpt lat="43.73549" lon="6.3661617"><ele>895.5999999999999</ele><time>2026-05-02T10:14:20.272Z</time></trkpt><trkpt lat="43.7354817" lon="6.3660267"><ele>890.8</ele><time>2026-05-02T10:14:21.271Z</time></trkpt><trkpt lat="43.7354783" lon="6.3658917"><ele>886.0</ele><time>2026-05-02T10:14:22.271Z</time></trkpt><trkpt lat="43.735475" lon="6.365765"><ele>885.9999999999999</ele><time>2026-05-02T10:14:23.272Z</time></trkpt><trkpt lat="43.7354633" lon="6.3656483"><ele>886.0</ele><time>2026-05-02T10:14:24.271Z</time></trkpt><trkpt lat="43.73544" lon="6.3655517"><ele>886.0</ele><time>2026-05-02T10:14:25.271Z</time></trkpt><trkpt lat="43.735405" lon="6.3654517"><ele>886.0</ele><time>2026-05-02T10:14:26.271Z</time></trkpt><trkpt lat="43.7353633" lon="6.3653833"><ele>885.9999999999999</ele><time>2026-05-02T10:14:27.271Z</time></trkpt><trkpt lat="43.73536" lon="6.3652917"><ele>886.0</ele><time>2026-05-02T10:14:28.271Z</time></trkpt><trkpt lat="43.7353433" lon="6.3651517"><ele>877.5</ele><time>2026-05-02T10:14:30.271Z</time></trkpt><trkpt lat="43.735315" lon="6.3650117"><ele>869.0</ele><time>2026-05-02T10:14:32.271Z</time></trkpt><trkpt lat="43.735315" lon="6.3648267"><ele>860.5</ele><time>2026-05-02T10:14:34.271Z</time></trkpt><trkpt lat="43.7353267" lon="6.3647167"><ele>852.0</ele><time>2026-05-02T10:14:35.271Z</time></trkpt><trkpt lat="43.7352817" lon="6.3645117"><ele>840.4000000000001</ele><time>2026-05-02T10:14:37.271Z</time></trkpt><trkpt lat="43.735265" lon="6.3643883"><ele>828.8000000000001</ele><time>2026-05-02T10:14:38.271Z</time></trkpt><trkpt lat="43.7352567" lon="6.3642967"><ele>817.2</ele><time>2026-05-02T10:14:39.271Z</time></trkpt><trkpt lat="43.735205" lon="6.3641683"><ele>805.6</ele><time>2026-05-02T10:14:41.271Z</time></trkpt><trkpt lat="43.73515" lon="6.3640617"><ele>794.0</ele><time>2026-05-02T10:14:43.271Z</time></trkpt><trkpt lat="43.7350883" lon="6.3639117"><ele>821.4000000000001</ele><time>2026-05-02T10:14:45.271Z</time></trkpt><trkpt lat="43.735" lon="6.3638167"><ele>848.8</ele><time>2026-05-02T10:14:46.272Z</time></trkpt><trkpt lat="43.7349033" lon="6.3636883"><ele>876.1999999999999</ele><time>2026-05-02T10:14:55.271Z</time></trkpt><trkpt lat="43.734855" lon="6.36363"><ele>903.5999999999999</ele><time>2026-05-02T10:14:56.271Z</time></trkpt><trkpt lat="43.734785" lon="6.3635667"><ele>931.0</ele><time>2026-05-02T10:14:58.271Z</time></trkpt><trkpt lat="43.7346967" lon="6.363545"><ele>931.0</ele><time>2026-05-02T10:17:27.271Z</time></trkpt><trkpt lat="43.7345933" lon="6.36353"><ele>930.9999999999999</ele><time>2026-05-02T10:17:29.271Z</time></trkpt><trkpt lat="43.7345217" lon="6.36353"><ele>930.9999999999999</ele><time>2026-05-02T10:17:30.271Z</time></trkpt><trkpt lat="43.73444" lon="6.363535"><ele>931.0</ele><time>2026-05-02T10:17:31.271Z</time></trkpt><trkpt lat="43.73435" lon="6.3635333"><ele>931.0</ele><time>2026-05-02T10:17:32.271Z</time></trkpt><trkpt lat="43.7342467" lon="6.3635333"><ele>930.0</ele><time>2026-05-02T10:17:33.272Z</time></trkpt><trkpt lat="43.7341333" lon="6.3635317"><ele>929.0</ele><time>2026-05-02T10:17:34.271Z</time></trkpt><trkpt lat="43.73401" lon="6.36353"><ele>928.0</ele><time>2026-05-02T10:17:35.271Z</time></trkpt><trkpt lat="43.733885" lon="6.36354"><ele>927.0</ele><time>2026-05-02T10:17:36.271Z</time></trkpt><trkpt lat="43.73376" lon="6.3635483"><ele>927.0</ele><time>2026-05-02T10:17:37.271Z</time></trkpt><trkpt lat="43.733625" lon="6.36356"><ele>927.0</ele><time>2026-05-02T10:17:38.271Z</time></trkpt><trkpt lat="43.7334867" lon="6.363575"><ele>927.0</ele><time>2026-05-02T10:17:39.271Z</time></trkpt><trkpt lat="43.73335" lon="6.36359"><ele>927.0</ele><time>2026-05-02T10:17:40.271Z</time></trkpt><trkpt lat="43.7332117" lon="6.3636083"><ele>925.5</ele><time>2026-05-02T10:17:41.272Z</time></trkpt><trkpt lat="43.7330717" lon="6.3636283"><ele>924.0</ele><time>2026-05-02T10:17:42.271Z</time></trkpt><trkpt lat="43.7329333" lon="6.3636517"><ele>922.5</ele><time>2026-05-02T10:17:43.271Z</time></trkpt><trkpt lat="43.7327917" lon="6.3636733"><ele>921.0</ele><time>2026-05-02T10:17:44.271Z</time></trkpt><trkpt lat="43.732655" lon="6.3637067"><ele>919.25</ele><time>2026-05-02T10:17:45.271Z</time></trkpt><trkpt lat="43.732515" lon="6.3637383"><ele>917.5</ele><time>2026-05-02T10:17:46.272Z</time></trkpt><trkpt lat="43.7323767" lon="6.3637833"><ele>915.75</ele><time>2026-05-02T10:17:47.271Z</time></trkpt><trkpt lat="43.7322217" lon="6.3638317"><ele>914.0</ele><time>2026-05-02T10:17:48.271Z</time></trkpt><trkpt lat="43.7320617" lon="6.363875"><ele>915.3333333333334</ele><time>2026-05-02T10:17:49.272Z</time></trkpt><trkpt lat="43.7319017" lon="6.3639217"><ele>916.6666666666667</ele><time>2026-05-02T10:17:50.271Z</time></trkpt><trkpt lat="43.731745" lon="6.3639633"><ele>918.0</ele><time>2026-05-02T10:17:51.271Z</time></trkpt><trkpt lat="43.7315967" lon="6.3640133"><ele>918.0</ele><time>2026-05-02T10:17:52.272Z</time></trkpt><trkpt lat="43.73145" lon="6.3640617"><ele>918.0</ele><time>2026-05-02T10:17:53.271Z</time></trkpt><trkpt lat="43.7313017" lon="6.364105"><ele>918.0</ele><time>2026-05-02T10:17:54.271Z</time></trkpt><trkpt lat="43.7311583" lon="6.3641517"><ele>916.25</ele><time>2026-05-02T10:17:55.271Z</time></trkpt><trkpt lat="43.7310117" lon="6.3642033"><ele>914.5</ele><time>2026-05-02T10:17:56.271Z</time></trkpt><trkpt lat="43.7308733" lon="6.364255"><ele>912.75</ele><time>2026-05-02T10:17:57.272Z</time></trkpt><trkpt lat="43.730725" lon="6.3643033"><ele>911.0</ele><time>2026-05-02T10:17:58.271Z</time></trkpt><trkpt lat="43.730565" lon="6.3643383"><ele>911.0</ele><time>2026-05-02T10:17:59.271Z</time></trkpt><trkpt lat="43.7304017" lon="6.3643667"><ele>911.0</ele><time>2026-05-02T10:18:00.271Z</time></trkpt><trkpt lat="43.7302433" lon="6.3643883"><ele>911.0</ele><time>2026-05-02T10:18:01.271Z</time></trkpt><trkpt lat="43.730085" lon="6.3644067"><ele>908.75</ele><time>2026-05-02T10:18:02.271Z</time></trkpt><trkpt lat="43.7299333" lon="6.3644233"><ele>906.5</ele><time>2026-05-02T10:18:03.271Z</time></trkpt><trkpt lat="43.7297817" lon="6.364445"><ele>904.25</ele><time>2026-05-02T10:18:04.271Z</time></trkpt><trkpt lat="43.72964" lon="6.3644733"><ele>902.0</ele><time>2026-05-02T10:18:05.271Z</time></trkpt><trkpt lat="43.7295017" lon="6.3644933"><ele>900.75</ele><time>2026-05-02T10:18:06.271Z</time></trkpt><trkpt lat="43.7293667" lon="6.3645083"><ele>899.5</ele><time>2026-05-02T10:18:07.271Z</time></trkpt><trkpt lat="43.7292283" lon="6.36453"><ele>898.25</ele><time>2026-05-02T10:18:08.271Z</time></trkpt><trkpt lat="43.7290883" lon="6.364545"><ele>897.0</ele><time>2026-05-02T10:18:09.271Z</time></trkpt><trkpt lat="43.7289567" lon="6.3645467"><ele>897.0</ele><time>2026-05-02T10:18:10.271Z</time></trkpt><trkpt lat="43.7288183" lon="6.3645383"><ele>897.0</ele><time>2026-05-02T10:18:11.271Z</time></trkpt><trkpt lat="43.7286767" lon="6.3645333"><ele>897.0</ele><time>2026-05-02T10:18:12.271Z</time></trkpt><trkpt lat="43.7285367" lon="6.3645383"><ele>897.0</ele><time>2026-05-02T10:18:13.271Z</time></trkpt><trkpt lat="43.7284033" lon="6.3645683"><ele>896.0</ele><time>2026-05-02T10:18:14.271Z</time></trkpt><trkpt lat="43.72827" lon="6.364615"><ele>895.0</ele><time>2026-05-02T10:18:15.271Z</time></trkpt><trkpt lat="43.7281467" lon="6.3646817"><ele>894.0</ele><time>2026-05-02T10:18:16.271Z</time></trkpt><trkpt lat="43.728035" lon="6.364775"><ele>893.0</ele><time>2026-05-02T10:18:17.271Z</time></trkpt><trkpt lat="43.7279417" lon="6.36488"><ele>893.2</ele><time>2026-05-02T10:18:18.271Z</time></trkpt><trkpt lat="43.7278483" lon="6.36498"><ele>893.4</ele><time>2026-05-02T10:18:19.271Z</time></trkpt><trkpt lat="43.7277517" lon="6.3650417"><ele>893.6000000000001</ele><time>2026-05-02T10:18:20.271Z</time></trkpt><trkpt lat="43.72765" lon="6.365065"><ele>893.8000000000001</ele><time>2026-05-02T10:18:21.271Z</time></trkpt><trkpt lat="43.7275567" lon="6.3650083"><ele>894.0</ele><time>2026-05-02T10:18:22.271Z</time></trkpt><trkpt lat="43.727495" lon="6.3649"><ele>894.0</ele><time>2026-05-02T10:18:23.271Z</time></trkpt><trkpt lat="43.727475" lon="6.3647567"><ele>894.0</ele><time>2026-05-02T10:18:24.271Z</time></trkpt><trkpt lat="43.7274933" lon="6.3646033"><ele>894.0</ele><time>2026-05-02T10:18:25.272Z</time></trkpt><trkpt lat="43.7275667" lon="6.36445"><ele>894.0</ele><time>2026-05-02T10:18:26.271Z</time></trkpt><trkpt lat="43.7276667" lon="6.3642867"><ele>893.6666666666667</ele><time>2026-05-02T10:18:27.271Z</time></trkpt><trkpt lat="43.7277617" lon="6.3641367"><ele>893.3333333333334</ele><time>2026-05-02T10:18:28.271Z</time></trkpt><trkpt lat="43.7278667" lon="6.3639833"><ele>893.0</ele><time>2026-05-02T10:18:29.271Z</time></trkpt><trkpt lat="43.7279767" lon="6.3638333"><ele>889.6666666666667</ele><time>2026-05-02T10:18:30.271Z</time></trkpt><trkpt lat="43.7280883" lon="6.36368"><ele>886.3333333333333</ele><time>2026-05-02T10:18:31.271Z</time></trkpt><trkpt lat="43.7282067" lon="6.3635217"><ele>883.0</ele><time>2026-05-02T10:18:32.271Z</time></trkpt><trkpt lat="43.7283183" lon="6.3633667"><ele>883.0</ele><time>2026-05-02T10:18:33.271Z</time></trkpt><trkpt lat="43.728425" lon="6.3632167"><ele>883.0</ele><time>2026-05-02T10:18:34.271Z</time></trkpt><trkpt lat="43.72854" lon="6.3630683"><ele>883.0</ele><time>2026-05-02T10:18:35.271Z</time></trkpt><trkpt lat="43.728655" lon="6.3629133"><ele>882.0</ele><time>2026-05-02T10:18:36.271Z</time></trkpt><trkpt lat="43.7287733" lon="6.3627483"><ele>881.0</ele><time>2026-05-02T10:18:37.271Z</time></trkpt><trkpt lat="43.728895" lon="6.362585"><ele>880.0</ele><time>2026-05-02T10:18:38.271Z</time></trkpt><trkpt lat="43.7290167" lon="6.3624167"><ele>880.0</ele><time>2026-05-02T10:18:39.271Z</time></trkpt><trkpt lat="43.7291383" lon="6.362255"><ele>880.0</ele><time>2026-05-02T10:18:40.271Z</time></trkpt><trkpt lat="43.72926" lon="6.3620967"><ele>880.0</ele><time>2026-05-02T10:18:41.271Z</time></trkpt><trkpt lat="43.72938" lon="6.3619367"><ele>878.6666666666666</ele><time>2026-05-02T10:18:42.271Z</time></trkpt><trkpt lat="43.7294983" lon="6.3617833"><ele>877.3333333333333</ele><time>2026-05-02T10:18:43.271Z</time></trkpt><trkpt lat="43.72961" lon="6.36163"><ele>876.0</ele><time>2026-05-02T10:18:44.271Z</time></trkpt><trkpt lat="43.7297267" lon="6.3614617"><ele>874.0</ele><time>2026-05-02T10:18:45.272Z</time></trkpt><trkpt lat="43.72983" lon="6.361285"><ele>872.0</ele><time>2026-05-02T10:18:46.271Z</time></trkpt><trkpt lat="43.72991" lon="6.361085"><ele>870.0</ele><time>2026-05-02T10:18:47.271Z</time></trkpt><trkpt lat="43.7299817" lon="6.36088"><ele>870.0</ele><time>2026-05-02T10:18:48.271Z</time></trkpt><trkpt lat="43.73005" lon="6.3606767"><ele>870.0</ele><time>2026-05-02T10:18:49.271Z</time></trkpt><trkpt lat="43.73011" lon="6.360465"><ele>870.0</ele><time>2026-05-02T10:18:50.271Z</time></trkpt><trkpt lat="43.7301367" lon="6.360235"><ele>868.0</ele><time>2026-05-02T10:18:51.271Z</time></trkpt><trkpt lat="43.730155" lon="6.3600083"><ele>866.0</ele><time>2026-05-02T10:18:52.271Z</time></trkpt><trkpt lat="43.7301633" lon="6.35977"><ele>864.0</ele><time>2026-05-02T10:18:53.271Z</time></trkpt><trkpt lat="43.7301733" lon="6.3595283"><ele>863.6666666666667</ele><time>2026-05-02T10:18:54.271Z</time></trkpt><trkpt lat="43.7301867" lon="6.3592983"><ele>863.3333333333334</ele><time>2026-05-02T10:18:55.271Z</time></trkpt><trkpt lat="43.7301983" lon="6.359075"><ele>863.0</ele><time>2026-05-02T10:18:56.271Z</time></trkpt><trkpt lat="43.7302183" lon="6.3588383"><ele>863.3333333333334</ele><time>2026-05-02T10:18:57.271Z</time></trkpt><trkpt lat="43.730235" lon="6.3586083"><ele>863.6666666666667</ele><time>2026-05-02T10:18:58.271Z</time></trkpt><trkpt lat="43.73025" lon="6.358375"><ele>864.0</ele><time>2026-05-02T10:18:59.271Z</time></trkpt><trkpt lat="43.7302633" lon="6.3581667"><ele>863.5</ele><time>2026-05-02T10:19:00.272Z</time></trkpt><trkpt lat="43.73028" lon="6.3579533"><ele>863.0</ele><time>2026-05-02T10:19:01.271Z</time></trkpt><trkpt lat="43.7302933" lon="6.35775"><ele>862.5</ele><time>2026-05-02T10:19:02.271Z</time></trkpt><trkpt lat="43.730285" lon="6.3575717"><ele>862.0</ele><time>2026-05-02T10:19:03.271Z</time></trkpt><trkpt lat="43.7302483" lon="6.35738"><ele>861.0</ele><time>2026-05-02T10:19:04.272Z</time></trkpt><trkpt lat="43.7302133" lon="6.3572183"><ele>860.0</ele><time>2026-05-02T10:19:05.271Z</time></trkpt><trkpt lat="43.7301917" lon="6.35706"><ele>859.0</ele><time>2026-05-02T10:19:06.271Z</time></trkpt><trkpt lat="43.730195" lon="6.356895"><ele>858.0</ele><time>2026-05-02T10:19:07.271Z</time></trkpt><trkpt lat="43.7302183" lon="6.3567133"><ele>857.25</ele><time>2026-05-02T10:19:08.271Z</time></trkpt><trkpt lat="43.730265" lon="6.356535"><ele>856.5</ele><time>2026-05-02T10:19:09.271Z</time></trkpt><trkpt lat="43.7303233" lon="6.3563483"><ele>855.75</ele><time>2026-05-02T10:19:10.272Z</time></trkpt><trkpt lat="43.7303733" lon="6.3561633"><ele>855.0</ele><time>2026-05-02T10:19:11.271Z</time></trkpt><trkpt lat="43.7304417" lon="6.3559717"><ele>853.3333333333333</ele><time>2026-05-02T10:19:12.271Z</time></trkpt><trkpt lat="43.7305183" lon="6.355785"><ele>851.6666666666666</ele><time>2026-05-02T10:19:13.271Z</time></trkpt><trkpt lat="43.7306133" lon="6.355605"><ele>850.0</ele><time>2026-05-02T10:19:14.271Z</time></trkpt><trkpt lat="43.7307067" lon="6.3554"><ele>848.6666666666666</ele><time>2026-05-02T10:19:15.271Z</time></trkpt><trkpt lat="43.7308" lon="6.3551933"><ele>847.3333333333333</ele><time>2026-05-02T10:19:16.271Z</time></trkpt><trkpt lat="43.7308817" lon="6.3549867"><ele>846.0</ele><time>2026-05-02T10:19:17.271Z</time></trkpt><trkpt lat="43.7309617" lon="6.3547867"><ele>845.3333333333333</ele><time>2026-05-02T10:19:18.271Z</time></trkpt><trkpt lat="43.73105" lon="6.3545917"><ele>844.6666666666666</ele><time>2026-05-02T10:19:19.271Z</time></trkpt><trkpt lat="43.7311467" lon="6.3544183"><ele>844.0</ele><time>2026-05-02T10:19:20.271Z</time></trkpt><trkpt lat="43.7312483" lon="6.3542467"><ele>844.0</ele><time>2026-05-02T10:19:21.271Z</time></trkpt><trkpt lat="43.7313483" lon="6.354075"><ele>844.0</ele><time>2026-05-02T10:19:22.271Z</time></trkpt><trkpt lat="43.7314483" lon="6.3539017"><ele>844.0</ele><time>2026-05-02T10:19:23.271Z</time></trkpt><trkpt lat="43.73155" lon="6.3537383"><ele>842.3333333333333</ele><time>2026-05-02T10:19:24.271Z</time></trkpt><trkpt lat="43.7316583" lon="6.353585"><ele>840.6666666666667</ele><time>2026-05-02T10:19:25.271Z</time></trkpt><trkpt lat="43.73178" lon="6.3534367"><ele>839.0</ele><time>2026-05-02T10:19:26.271Z</time></trkpt><trkpt lat="43.7319017" lon="6.353295"><ele>839.0</ele><time>2026-05-02T10:19:27.271Z</time></trkpt><trkpt lat="43.732015" lon="6.3531567"><ele>839.0</ele><time>2026-05-02T10:19:28.271Z</time></trkpt><trkpt lat="43.7321383" lon="6.3530267"><ele>839.0</ele><time>2026-05-02T10:19:29.271Z</time></trkpt><trkpt lat="43.7322683" lon="6.3529133"><ele>837.3333333333334</ele><time>2026-05-02T10:19:30.271Z</time></trkpt><trkpt lat="43.7324017" lon="6.35282"><ele>835.6666666666667</ele><time>2026-05-02T10:19:31.272Z</time></trkpt><trkpt lat="43.73255" lon="6.35275"><ele>834.0</ele><time>2026-05-02T10:19:32.271Z</time></trkpt><trkpt lat="43.73269" lon="6.3526867"><ele>834.3333333333333</ele><time>2026-05-02T10:19:33.271Z</time></trkpt><trkpt lat="43.73283" lon="6.3526067"><ele>834.6666666666666</ele><time>2026-05-02T10:19:34.271Z</time></trkpt><trkpt lat="43.7329817" lon="6.352505"><ele>835.0</ele><time>2026-05-02T10:19:35.271Z</time></trkpt><trkpt lat="43.7331367" lon="6.3523917"><ele>835.0</ele><time>2026-05-02T10:19:36.271Z</time></trkpt><trkpt lat="43.7332933" lon="6.3522733"><ele>835.0</ele><time>2026-05-02T10:19:37.271Z</time></trkpt><trkpt lat="43.7334517" lon="6.3521517"><ele>835.0</ele><time>2026-05-02T10:19:38.271Z</time></trkpt><trkpt lat="43.7335983" lon="6.3520333"><ele>833.3333333333333</ele><time>2026-05-02T10:19:39.271Z</time></trkpt><trkpt lat="43.7337467" lon="6.3519217"><ele>831.6666666666667</ele><time>2026-05-02T10:19:40.271Z</time></trkpt><trkpt lat="43.733895" lon="6.3518017"><ele>830.0</ele><time>2026-05-02T10:19:41.271Z</time></trkpt><trkpt lat="43.7340433" lon="6.35168"><ele>830.0</ele><time>2026-05-02T10:19:42.271Z</time></trkpt><trkpt lat="43.7341883" lon="6.351565"><ele>830.0</ele><time>2026-05-02T10:19:43.271Z</time></trkpt><trkpt lat="43.73433" lon="6.3514683"><ele>830.0</ele><time>2026-05-02T10:19:44.271Z</time></trkpt><trkpt lat="43.734465" lon="6.3513717"><ele>829.0</ele><time>2026-05-02T10:19:45.271Z</time></trkpt><trkpt lat="43.7346" lon="6.3512833"><ele>828.0</ele><time>2026-05-02T10:19:46.271Z</time></trkpt><trkpt lat="43.7347317" lon="6.3511983"><ele>827.0</ele><time>2026-05-02T10:19:47.271Z</time></trkpt><trkpt lat="43.7348583" lon="6.3511267"><ele>826.0</ele><time>2026-05-02T10:19:48.271Z</time></trkpt><trkpt lat="43.73498" lon="6.35104"><ele>826.0</ele><time>2026-05-02T10:19:49.271Z</time></trkpt><trkpt lat="43.735105" lon="6.3509417"><ele>826.0</ele><time>2026-05-02T10:19:50.271Z</time></trkpt><trkpt lat="43.735205" lon="6.3508183"><ele>826.0</ele><time>2026-05-02T10:19:51.271Z</time></trkpt><trkpt lat="43.735315" lon="6.35067"><ele>826.0</ele><time>2026-05-02T10:19:52.272Z</time></trkpt><trkpt lat="43.7354167" lon="6.3505083"><ele>816.0</ele><time>2026-05-02T10:19:53.271Z</time></trkpt><trkpt lat="43.73551" lon="6.3503283"><ele>806.0</ele><time>2026-05-02T10:19:54.271Z</time></trkpt><trkpt lat="43.7355983" lon="6.35015"><ele>796.0</ele><time>2026-05-02T10:19:55.271Z</time></trkpt><trkpt lat="43.7356817" lon="6.3499667"><ele>796.0</ele><time>2026-05-02T10:19:56.271Z</time></trkpt><trkpt lat="43.7357667" lon="6.3497833"><ele>796.0</ele><time>2026-05-02T10:19:57.271Z</time></trkpt><trkpt lat="43.73586" lon="6.349605"><ele>796.0</ele><time>2026-05-02T10:19:58.271Z</time></trkpt><trkpt lat="43.7359567" lon="6.3494367"><ele>794.75</ele><time>2026-05-02T10:19:59.271Z</time></trkpt><trkpt lat="43.736045" lon="6.3492733"><ele>793.5</ele><time>2026-05-02T10:20:00.271Z</time></trkpt><trkpt lat="43.7361283" lon="6.349125"><ele>792.25</ele><time>2026-05-02T10:20:01.271Z</time></trkpt><trkpt lat="43.73621" lon="6.3489583"><ele>791.0</ele><time>2026-05-02T10:20:02.272Z</time></trkpt><trkpt lat="43.73628" lon="6.3487817"><ele>788.6666666666667</ele><time>2026-05-02T10:20:03.272Z</time></trkpt><trkpt lat="43.7363383" lon="6.3485817"><ele>786.3333333333333</ele><time>2026-05-02T10:20:04.271Z</time></trkpt><trkpt lat="43.73638" lon="6.34838"><ele>784.0</ele><time>2026-05-02T10:20:05.271Z</time></trkpt><trkpt lat="43.7364167" lon="6.348185"><ele>787.5</ele><time>2026-05-02T10:20:06.271Z</time></trkpt><trkpt lat="43.736455" lon="6.3480133"><ele>791.0</ele><time>2026-05-02T10:20:07.271Z</time></trkpt><trkpt lat="43.736495" lon="6.3478667"><ele>794.5</ele><time>2026-05-02T10:20:08.271Z</time></trkpt><trkpt lat="43.7365567" lon="6.3477367"><ele>798.0</ele><time>2026-05-02T10:20:09.271Z</time></trkpt><trkpt lat="43.7366167" lon="6.347635"><ele>798.0</ele><time>2026-05-02T10:20:10.272Z</time></trkpt><trkpt lat="43.7366683" lon="6.347525"><ele>798.0</ele><time>2026-05-02T10:20:11.271Z</time></trkpt><trkpt lat="43.7367083" lon="6.3474083"><ele>798.0</ele><time>2026-05-02T10:20:12.271Z</time></trkpt><trkpt lat="43.7367367" lon="6.34728"><ele>798.0</ele><time>2026-05-02T10:20:13.271Z</time></trkpt><trkpt lat="43.7367633" lon="6.3471383"><ele>798.0</ele><time>2026-05-02T10:20:14.271Z</time></trkpt><trkpt lat="43.736795" lon="6.3469917"><ele>799.5</ele><time>2026-05-02T10:20:15.271Z</time></trkpt><trkpt lat="43.7368267" lon="6.3468433"><ele>801.0</ele><time>2026-05-02T10:20:16.272Z</time></trkpt><trkpt lat="43.73687" lon="6.3466983"><ele>802.5</ele><time>2026-05-02T10:20:17.271Z</time></trkpt><trkpt lat="43.7369333" lon="6.3465533"><ele>804.0</ele><time>2026-05-02T10:20:18.271Z</time></trkpt><trkpt lat="43.7369917" lon="6.34642"><ele>803.2</ele><time>2026-05-02T10:20:19.271Z</time></trkpt><trkpt lat="43.7370583" lon="6.3462917"><ele>802.4000000000001</ele><time>2026-05-02T10:20:20.271Z</time></trkpt><trkpt lat="43.7371133" lon="6.3461633"><ele>801.6</ele><time>2026-05-02T10:20:21.271Z</time></trkpt><trkpt lat="43.7371417" lon="6.3460383"><ele>800.8</ele><time>2026-05-02T10:20:22.271Z</time></trkpt><trkpt lat="43.7371467" lon="6.3459033"><ele>800.0</ele><time>2026-05-02T10:20:23.271Z</time></trkpt><trkpt lat="43.7371267" lon="6.345775"><ele>800.0</ele><time>2026-05-02T10:20:24.271Z</time></trkpt><trkpt lat="43.7371" lon="6.3456483"><ele>800.0</ele><time>2026-05-02T10:20:25.271Z</time></trkpt><trkpt lat="43.73709" lon="6.3455033"><ele>800.0</ele><time>2026-05-02T10:20:26.271Z</time></trkpt><trkpt lat="43.73711" lon="6.3453633"><ele>800.0</ele><time>2026-05-02T10:20:27.271Z</time></trkpt><trkpt lat="43.7371667" lon="6.34526"><ele>800.0</ele><time>2026-05-02T10:20:28.271Z</time></trkpt><trkpt lat="43.73725" lon="6.3451633"><ele>799.25</ele><time>2026-05-02T10:20:29.271Z</time></trkpt><trkpt lat="43.7373467" lon="6.345055"><ele>798.5</ele><time>2026-05-02T10:20:30.271Z</time></trkpt><trkpt lat="43.7374467" lon="6.3449517"><ele>797.75</ele><time>2026-05-02T10:20:31.272Z</time></trkpt><trkpt lat="43.7375483" lon="6.344845"><ele>797.0</ele><time>2026-05-02T10:20:32.271Z</time></trkpt><trkpt lat="43.7376517" lon="6.344745"><ele>796.0</ele><time>2026-05-02T10:20:33.271Z</time></trkpt><trkpt lat="43.73775" lon="6.344625"><ele>795.0</ele><time>2026-05-02T10:20:34.272Z</time></trkpt><trkpt lat="43.73782" lon="6.3444967"><ele>794.0</ele><time>2026-05-02T10:20:35.271Z</time></trkpt><trkpt lat="43.7378583" lon="6.344335"><ele>793.0</ele><time>2026-05-02T10:20:36.271Z</time></trkpt><trkpt lat="43.7378933" lon="6.3441633"><ele>793.0</ele><time>2026-05-02T10:20:37.271Z</time></trkpt><trkpt lat="43.7379533" lon="6.344005"><ele>793.0</ele><time>2026-05-02T10:20:38.271Z</time></trkpt><trkpt lat="43.7380317" lon="6.3438633"><ele>793.0</ele><time>2026-05-02T10:20:39.271Z</time></trkpt><trkpt lat="43.73811" lon="6.3437233"><ele>793.0</ele><time>2026-05-02T10:20:40.271Z</time></trkpt><trkpt lat="43.738185" lon="6.3435867"><ele>793.25</ele><time>2026-05-02T10:20:41.271Z</time></trkpt><trkpt lat="43.7382567" lon="6.3434467"><ele>793.5</ele><time>2026-05-02T10:20:42.271Z</time></trkpt><trkpt lat="43.7383267" lon="6.343315"><ele>793.75</ele><time>2026-05-02T10:20:43.271Z</time></trkpt><trkpt lat="43.7384" lon="6.3431867"><ele>794.0</ele><time>2026-05-02T10:20:44.271Z</time></trkpt><trkpt lat="43.738475" lon="6.343055"><ele>796.5</ele><time>2026-05-02T10:20:45.271Z</time></trkpt><trkpt lat="43.7385417" lon="6.3429167"><ele>799.0</ele><time>2026-05-02T10:20:46.271Z</time></trkpt><trkpt lat="43.7385983" lon="6.342775"><ele>801.5</ele><time>2026-05-02T10:20:47.271Z</time></trkpt><trkpt lat="43.7386433" lon="6.3426383"><ele>804.0</ele><time>2026-05-02T10:20:48.271Z</time></trkpt><trkpt lat="43.73868" lon="6.3424983"><ele>803.0</ele><time>2026-05-02T10:20:49.271Z</time></trkpt><trkpt lat="43.7387033" lon="6.342365"><ele>802.0</ele><time>2026-05-02T10:20:50.272Z</time></trkpt><trkpt lat="43.738735" lon="6.3422217"><ele>801.0</ele><time>2026-05-02T10:20:51.271Z</time></trkpt><trkpt lat="43.7387733" lon="6.34208"><ele>800.0</ele><time>2026-05-02T10:20:52.271Z</time></trkpt><trkpt lat="43.7388217" lon="6.3419483"><ele>799.0</ele><time>2026-05-02T10:20:53.271Z</time></trkpt><trkpt lat="43.7388817" lon="6.341805"><ele>799.0</ele><time>2026-05-02T10:20:54.271Z</time></trkpt><trkpt lat="43.73895" lon="6.3416683"><ele>799.0</ele><time>2026-05-02T10:20:55.271Z</time></trkpt><trkpt lat="43.7390283" lon="6.3415167"><ele>799.0</ele><time>2026-05-02T10:20:56.271Z</time></trkpt><trkpt lat="43.7391017" lon="6.341365"><ele>799.0</ele><time>2026-05-02T10:20:57.271Z</time></trkpt><trkpt lat="43.7391683" lon="6.3412167"><ele>800.2</ele><time>2026-05-02T10:20:58.271Z</time></trkpt><trkpt lat="43.73924" lon="6.34108"><ele>801.4000000000001</ele><time>2026-05-02T10:20:59.271Z</time></trkpt><trkpt lat="43.7393233" lon="6.340975"><ele>802.6</ele><time>2026-05-02T10:21:00.271Z</time></trkpt><trkpt lat="43.7394133" lon="6.3408967"><ele>803.8</ele><time>2026-05-02T10:21:01.271Z</time></trkpt><trkpt lat="43.739515" lon="6.3408583"><ele>805.0</ele><time>2026-05-02T10:21:02.271Z</time></trkpt><trkpt lat="43.73962" lon="6.340855"><ele>805.0</ele><time>2026-05-02T10:21:03.271Z</time></trkpt><trkpt lat="43.7397517" lon="6.3408617"><ele>805.0</ele><time>2026-05-02T10:21:04.271Z</time></trkpt><trkpt lat="43.7398983" lon="6.340875"><ele>805.0</ele><time>2026-05-02T10:21:05.271Z</time></trkpt><trkpt lat="43.7400483" lon="6.340885"><ele>805.0</ele><time>2026-05-02T10:21:06.271Z</time></trkpt><trkpt lat="43.74019" lon="6.3408933"><ele>804.0</ele><time>2026-05-02T10:21:07.271Z</time></trkpt><trkpt lat="43.7403233" lon="6.3409083"><ele>803.0</ele><time>2026-05-02T10:21:08.271Z</time></trkpt><trkpt lat="43.7404467" lon="6.3409133"><ele>802.0</ele><time>2026-05-02T10:21:09.271Z</time></trkpt><trkpt lat="43.74056" lon="6.3409233"><ele>801.0</ele><time>2026-05-02T10:21:10.271Z</time></trkpt><trkpt lat="43.7406717" lon="6.34094"><ele>801.0</ele><time>2026-05-02T10:21:11.271Z</time></trkpt><trkpt lat="43.74078" lon="6.3409483"><ele>801.0</ele><time>2026-05-02T10:21:12.272Z</time></trkpt><trkpt lat="43.7408867" lon="6.3409567"><ele>801.0</ele><time>2026-05-02T10:21:13.271Z</time></trkpt><trkpt lat="43.7409917" lon="6.3409667"><ele>801.0</ele><time>2026-05-02T10:21:14.271Z</time></trkpt><trkpt lat="43.74109" lon="6.3409733"><ele>801.0</ele><time>2026-05-02T10:21:15.271Z</time></trkpt><trkpt lat="43.741185" lon="6.3409733"><ele>798.8</ele><time>2026-05-02T10:21:16.271Z</time></trkpt><trkpt lat="43.7412667" lon="6.3409533"><ele>796.5999999999999</ele><time>2026-05-02T10:21:17.271Z</time></trkpt><trkpt lat="43.7413483" lon="6.340925"><ele>794.4</ele><time>2026-05-02T10:21:18.272Z</time></trkpt><trkpt lat="43.7414317" lon="6.3408817"><ele>792.2</ele><time>2026-05-02T10:21:19.272Z</time></trkpt><trkpt lat="43.7415217" lon="6.3408267"><ele>790.0</ele><time>2026-05-02T10:21:20.271Z</time></trkpt><trkpt lat="43.7416117" lon="6.3407567"><ele>790.0</ele><time>2026-05-02T10:21:21.271Z</time></trkpt><trkpt lat="43.7416917" lon="6.3406767"><ele>790.0</ele><time>2026-05-02T10:21:22.271Z</time></trkpt><trkpt lat="43.741755" lon="6.3405717"><ele>790.0</ele><time>2026-05-02T10:21:23.271Z</time></trkpt><trkpt lat="43.7417883" lon="6.340455"><ele>790.0</ele><time>2026-05-02T10:21:24.271Z</time></trkpt><trkpt lat="43.74179" lon="6.340325"><ele>790.0</ele><time>2026-05-02T10:21:25.271Z</time></trkpt><trkpt lat="43.7417733" lon="6.3401817"><ele>790.75</ele><time>2026-05-02T10:21:26.271Z</time></trkpt><trkpt lat="43.7417317" lon="6.3400267"><ele>791.5</ele><time>2026-05-02T10:21:27.271Z</time></trkpt><trkpt lat="43.7416817" lon="6.3398733"><ele>792.25</ele><time>2026-05-02T10:21:28.271Z</time></trkpt><trkpt lat="43.7416217" lon="6.3397333"><ele>793.0</ele><time>2026-05-02T10:21:29.271Z</time></trkpt><trkpt lat="43.741555" lon="6.33961"><ele>793.0</ele><time>2026-05-02T10:21:30.272Z</time></trkpt><trkpt lat="43.7414883" lon="6.339495"><ele>793.0</ele><time>2026-05-02T10:21:31.271Z</time></trkpt><trkpt lat="43.7414317" lon="6.3393817"><ele>793.0</ele><time>2026-05-02T10:21:32.271Z</time></trkpt><trkpt lat="43.7413767" lon="6.3392667"><ele>793.0</ele><time>2026-05-02T10:21:33.271Z</time></trkpt><trkpt lat="43.7413317" lon="6.339155"><ele>793.0</ele><time>2026-05-02T10:21:34.271Z</time></trkpt><trkpt lat="43.7412967" lon="6.3390367"><ele>793.0</ele><time>2026-05-02T10:21:35.271Z</time></trkpt><trkpt lat="43.7412767" lon="6.338915"><ele>793.0</ele><time>2026-05-02T10:21:36.271Z</time></trkpt><trkpt lat="43.7412733" lon="6.3387883"><ele>793.0</ele><time>2026-05-02T10:21:37.271Z</time></trkpt><trkpt lat="43.7412917" lon="6.3386483"><ele>793.0</ele><time>2026-05-02T10:21:38.272Z</time></trkpt><trkpt lat="43.7413267" lon="6.3385083"><ele>793.0</ele><time>2026-05-02T10:21:39.271Z</time></trkpt><trkpt lat="43.7413767" lon="6.3383717"><ele>796.0</ele><time>2026-05-02T10:21:40.271Z</time></trkpt><trkpt lat="43.7414483" lon="6.338235"><ele>799.0</ele><time>2026-05-02T10:21:41.271Z</time></trkpt><trkpt lat="43.74152" lon="6.338105"><ele>802.0</ele><time>2026-05-02T10:21:42.271Z</time></trkpt><trkpt lat="43.7416017" lon="6.3379733"><ele>805.0</ele><time>2026-05-02T10:21:43.271Z</time></trkpt><trkpt lat="43.7416833" lon="6.3378417"><ele>805.0</ele><time>2026-05-02T10:21:44.271Z</time></trkpt><trkpt lat="43.741755" lon="6.3376983"><ele>805.0</ele><time>2026-05-02T10:21:45.272Z</time></trkpt><trkpt lat="43.741825" lon="6.337555"><ele>805.0</ele><time>2026-05-02T10:21:46.271Z</time></trkpt><trkpt lat="43.741885" lon="6.33741"><ele>805.0</ele><time>2026-05-02T10:21:47.271Z</time></trkpt><trkpt lat="43.7419367" lon="6.3372567"><ele>805.5</ele><time>2026-05-02T10:21:48.271Z</time></trkpt><trkpt lat="43.7419817" lon="6.33711"><ele>806.0</ele><time>2026-05-02T10:21:49.271Z</time></trkpt><trkpt lat="43.74203" lon="6.3369683"><ele>806.5</ele><time>2026-05-02T10:21:50.271Z</time></trkpt><trkpt lat="43.742075" lon="6.3368333"><ele>807.0</ele><time>2026-05-02T10:21:51.271Z</time></trkpt><trkpt lat="43.74212" lon="6.3366883"><ele>807.0</ele><time>2026-05-02T10:21:52.271Z</time></trkpt><trkpt lat="43.7421517" lon="6.3365333"><ele>807.0</ele><time>2026-05-02T10:21:53.271Z</time></trkpt><trkpt lat="43.7421717" lon="6.3363733"><ele>807.0</ele><time>2026-05-02T10:21:54.271Z</time></trkpt><trkpt lat="43.7421883" lon="6.3362"><ele>807.0</ele><time>2026-05-02T10:21:55.271Z</time></trkpt><trkpt lat="43.742215" lon="6.3360367"><ele>810.0</ele><time>2026-05-02T10:21:56.271Z</time></trkpt><trkpt lat="43.74225" lon="6.3358817"><ele>813.0</ele><time>2026-05-02T10:21:57.271Z</time></trkpt><trkpt lat="43.7422933" lon="6.335725"><ele>816.0</ele><time>2026-05-02T10:21:58.271Z</time></trkpt><trkpt lat="43.7423417" lon="6.3355633"><ele>819.0</ele><time>2026-05-02T10:21:59.271Z</time></trkpt><trkpt lat="43.7423917" lon="6.3353983"><ele>821.25</ele><time>2026-05-02T10:22:00.271Z</time></trkpt><trkpt lat="43.7424467" lon="6.3352333"><ele>823.5</ele><time>2026-05-02T10:22:01.271Z</time></trkpt><trkpt lat="43.7425067" lon="6.33507"><ele>825.75</ele><time>2026-05-02T10:22:02.271Z</time></trkpt><trkpt lat="43.742565" lon="6.33491"><ele>828.0</ele><time>2026-05-02T10:22:03.271Z</time></trkpt><trkpt lat="43.742625" lon="6.3347467"><ele>830.0</ele><time>2026-05-02T10:22:04.271Z</time></trkpt><trkpt lat="43.74268" lon="6.334575"><ele>832.0</ele><time>2026-05-02T10:22:05.271Z</time></trkpt><trkpt lat="43.7427383" lon="6.334405"><ele>834.0</ele><time>2026-05-02T10:22:06.271Z</time></trkpt><trkpt lat="43.7428" lon="6.3342417"><ele>836.0</ele><time>2026-05-02T10:22:07.271Z</time></trkpt><trkpt lat="43.7428533" lon="6.3340867"><ele>832.75</ele><time>2026-05-02T10:22:08.271Z</time></trkpt><trkpt lat="43.7429117" lon="6.3339367"><ele>829.5</ele><time>2026-05-02T10:22:09.271Z</time></trkpt><trkpt lat="43.7429583" lon="6.3337967"><ele>826.25</ele><time>2026-05-02T10:22:10.271Z</time></trkpt><trkpt lat="43.743" lon="6.3336633"><ele>823.0</ele><time>2026-05-02T10:22:11.271Z</time></trkpt><trkpt lat="43.74303" lon="6.3335133"><ele>823.0</ele><time>2026-05-02T10:22:12.271Z</time></trkpt><trkpt lat="43.7430517" lon="6.3333517"><ele>823.0</ele><time>2026-05-02T10:22:13.271Z</time></trkpt><trkpt lat="43.7430683" lon="6.3331933"><ele>823.0</ele><time>2026-05-02T10:22:14.271Z</time></trkpt><trkpt lat="43.7430783" lon="6.3330333"><ele>823.0</ele><time>2026-05-02T10:22:15.271Z</time></trkpt><trkpt lat="43.7431133" lon="6.3328783"><ele>826.0</ele><time>2026-05-02T10:22:16.271Z</time></trkpt><trkpt lat="43.7431533" lon="6.3327317"><ele>829.0</ele><time>2026-05-02T10:22:17.271Z</time></trkpt><trkpt lat="43.7432133" lon="6.3325817"><ele>832.0</ele><time>2026-05-02T10:22:18.271Z</time></trkpt><trkpt lat="43.7432733" lon="6.3324317"><ele>835.0</ele><time>2026-05-02T10:22:19.271Z</time></trkpt><trkpt lat="43.74333" lon="6.3322817"><ele>838.0</ele><time>2026-05-02T10:22:20.271Z</time></trkpt><trkpt lat="43.7433833" lon="6.3321283"><ele>841.0</ele><time>2026-05-02T10:22:21.271Z</time></trkpt><trkpt lat="43.7434383" lon="6.3319783"><ele>844.0</ele><time>2026-05-02T10:22:22.271Z</time></trkpt><trkpt lat="43.7434867" lon="6.3318333"><ele>847.0</ele><time>2026-05-02T10:22:23.271Z</time></trkpt><trkpt lat="43.7435283" lon="6.3316833"><ele>846.0</ele><time>2026-05-02T10:22:24.272Z</time></trkpt><trkpt lat="43.7435583" lon="6.3315233"><ele>845.0</ele><time>2026-05-02T10:22:25.271Z</time></trkpt><trkpt lat="43.743585" lon="6.3313683"><ele>844.0</ele><time>2026-05-02T10:22:26.272Z</time></trkpt><trkpt lat="43.743625" lon="6.331235"><ele>843.0</ele><time>2026-05-02T10:22:27.272Z</time></trkpt><trkpt lat="43.7436783" lon="6.3311233"><ele>842.0</ele><time>2026-05-02T10:22:28.271Z</time></trkpt><trkpt lat="43.7437483" lon="6.3310167"><ele>842.0</ele><time>2026-05-02T10:22:29.271Z</time></trkpt><trkpt lat="43.743815" lon="6.3308983"><ele>842.0</ele><time>2026-05-02T10:22:30.271Z</time></trkpt><trkpt lat="43.7438567" lon="6.3307667"><ele>842.0</ele><time>2026-05-02T10:22:31.272Z</time></trkpt><trkpt lat="43.7438567" lon="6.3306333"><ele>842.0</ele><time>2026-05-02T10:22:32.271Z</time></trkpt><trkpt lat="43.743835" lon="6.3305033"><ele>842.0</ele><time>2026-05-02T10:22:33.271Z</time></trkpt><trkpt lat="43.7438467" lon="6.3303867"><ele>842.0</ele><time>2026-05-02T10:22:34.271Z</time></trkpt><trkpt lat="43.7438833" lon="6.3302917"><ele>842.0</ele><time>2026-05-02T10:22:35.271Z</time></trkpt><trkpt lat="43.7439367" lon="6.3302117"><ele>842.0</ele><time>2026-05-02T10:22:36.271Z</time></trkpt><trkpt lat="43.7440033" lon="6.3301267"><ele>842.0</ele><time>2026-05-02T10:22:37.271Z</time></trkpt><trkpt lat="43.7440717" lon="6.3300217"><ele>842.0</ele><time>2026-05-02T10:22:38.271Z</time></trkpt><trkpt lat="43.74411" lon="6.3298883"><ele>842.0</ele><time>2026-05-02T10:22:39.271Z</time></trkpt><trkpt lat="43.7441317" lon="6.32974"><ele>842.0</ele><time>2026-05-02T10:22:40.271Z</time></trkpt><trkpt lat="43.7441617" lon="6.3295867"><ele>842.0</ele><time>2026-05-02T10:22:41.271Z</time></trkpt><trkpt lat="43.7441867" lon="6.3294567"><ele>842.0</ele><time>2026-05-02T10:22:42.272Z</time></trkpt><trkpt lat="43.7441867" lon="6.3293333"><ele>842.0</ele><time>2026-05-02T10:22:43.272Z</time></trkpt><trkpt lat="43.7441567" lon="6.32921"><ele>841.4000000000001</ele><time>2026-05-02T10:22:44.271Z</time></trkpt><trkpt lat="43.7441133" lon="6.3290983"><ele>840.8000000000001</ele><time>2026-05-02T10:22:45.271Z</time></trkpt><trkpt lat="43.7440617" lon="6.32899"><ele>840.2</ele><time>2026-05-02T10:22:46.271Z</time></trkpt><trkpt lat="43.7440167" lon="6.32887"><ele>839.6</ele><time>2026-05-02T10:22:47.271Z</time></trkpt><trkpt lat="43.7439983" lon="6.3287467"><ele>839.0</ele><time>2026-05-02T10:22:48.271Z</time></trkpt><trkpt lat="43.7440217" lon="6.3286333"><ele>839.0</ele><time>2026-05-02T10:22:49.271Z</time></trkpt><trkpt lat="43.7440817" lon="6.328525"><ele>839.0</ele><time>2026-05-02T10:22:50.271Z</time></trkpt><trkpt lat="43.7441533" lon="6.32842"><ele>839.0</ele><time>2026-05-02T10:22:51.271Z</time></trkpt><trkpt lat="43.7442133" lon="6.3283117"><ele>839.0</ele><time>2026-05-02T10:22:52.271Z</time></trkpt><trkpt lat="43.74425" lon="6.3281917"><ele>839.0</ele><time>2026-05-02T10:22:53.271Z</time></trkpt><trkpt lat="43.7442483" lon="6.3280617"><ele>839.3333333333334</ele><time>2026-05-02T10:22:54.271Z</time></trkpt><trkpt lat="43.7442217" lon="6.327925"><ele>839.6666666666667</ele><time>2026-05-02T10:22:55.271Z</time></trkpt><trkpt lat="43.74419" lon="6.3277983"><ele>840.0</ele><time>2026-05-02T10:22:56.272Z</time></trkpt><trkpt lat="43.7441633" lon="6.327685"><ele>840.3333333333333</ele><time>2026-05-02T10:22:57.271Z</time></trkpt><trkpt lat="43.7441417" lon="6.3275717"><ele>840.6666666666666</ele><time>2026-05-02T10:22:58.272Z</time></trkpt><trkpt lat="43.7441233" lon="6.327465"><ele>841.0</ele><time>2026-05-02T10:22:59.271Z</time></trkpt><trkpt lat="43.7441133" lon="6.32735"><ele>840.9999999999999</ele><time>2026-05-02T10:23:00.271Z</time></trkpt><trkpt lat="43.7441283" lon="6.3272317"><ele>841.0</ele><time>2026-05-02T10:23:01.271Z</time></trkpt><trkpt lat="43.7441367" lon="6.3271033"><ele>841.0</ele><time>2026-05-02T10:23:02.271Z</time></trkpt><trkpt lat="43.744125" lon="6.32698"><ele>841.0</ele><time>2026-05-02T10:23:03.271Z</time></trkpt><trkpt lat="43.7441017" lon="6.326865"><ele>840.9999999999999</ele><time>2026-05-02T10:23:04.271Z</time></trkpt><trkpt lat="43.7440967" lon="6.3267533"><ele>841.0</ele><time>2026-05-02T10:23:05.271Z</time></trkpt><trkpt lat="43.7441133" lon="6.3266517"><ele>843.8</ele><time>2026-05-02T10:23:06.271Z</time></trkpt><trkpt lat="43.7441567" lon="6.3265683"><ele>846.5999999999999</ele><time>2026-05-02T10:23:07.271Z</time></trkpt><trkpt lat="43.7442317" lon="6.3264967"><ele>849.4</ele><time>2026-05-02T10:23:08.271Z</time></trkpt><trkpt lat="43.744315" lon="6.3264067"><ele>852.2</ele><time>2026-05-02T10:23:09.271Z</time></trkpt><trkpt lat="43.74439" lon="6.3263017"><ele>855.0</ele><time>2026-05-02T10:23:10.272Z</time></trkpt><trkpt lat="43.7444533" lon="6.3261667"><ele>847.8</ele><time>2026-05-02T10:23:11.272Z</time></trkpt><trkpt lat="43.7445067" lon="6.3260383"><ele>840.6</ele><time>2026-05-02T10:23:12.272Z</time></trkpt><trkpt lat="43.7445467" lon="6.3259083"><ele>833.4000000000001</ele><time>2026-05-02T10:23:13.271Z</time></trkpt><trkpt lat="43.7445867" lon="6.32577"><ele>826.2</ele><time>2026-05-02T10:23:14.271Z</time></trkpt><trkpt lat="43.7446267" lon="6.3256417"><ele>819.0</ele><time>2026-05-02T10:23:15.271Z</time></trkpt><trkpt lat="43.7446683" lon="6.3255183"><ele>819.0</ele><time>2026-05-02T10:23:16.271Z</time></trkpt><trkpt lat="43.7447033" lon="6.3254"><ele>819.0</ele><time>2026-05-02T10:23:17.271Z</time></trkpt><trkpt lat="43.7447267" lon="6.3252833"><ele>819.0</ele><time>2026-05-02T10:23:18.271Z</time></trkpt><trkpt lat="43.74473" lon="6.3251617"><ele>819.0</ele><time>2026-05-02T10:23:19.271Z</time></trkpt><trkpt lat="43.7447117" lon="6.32503"><ele>819.0</ele><time>2026-05-02T10:23:20.271Z</time></trkpt><trkpt lat="43.7446583" lon="6.3249"><ele>819.0</ele><time>2026-05-02T10:23:21.271Z</time></trkpt><trkpt lat="43.7446" lon="6.3247633"><ele>819.0</ele><time>2026-05-02T10:23:22.271Z</time></trkpt><trkpt lat="43.7445433" lon="6.324645"><ele>819.0</ele><time>2026-05-02T10:23:23.271Z</time></trkpt><trkpt lat="43.74449" lon="6.3245367"><ele>819.0</ele><time>2026-05-02T10:23:24.271Z</time></trkpt><trkpt lat="43.74446" lon="6.32442"><ele>819.0</ele><time>2026-05-02T10:23:25.271Z</time></trkpt><trkpt lat="43.74445" lon="6.324315"><ele>820.6</ele><time>2026-05-02T10:23:26.271Z</time></trkpt><trkpt lat="43.7444667" lon="6.3242083"><ele>822.2</ele><time>2026-05-02T10:23:27.271Z</time></trkpt><trkpt lat="43.744505" lon="6.3240917"><ele>823.8000000000001</ele><time>2026-05-02T10:23:28.271Z</time></trkpt><trkpt lat="43.7445667" lon="6.32396"><ele>825.4000000000001</ele><time>2026-05-02T10:23:29.271Z</time></trkpt><trkpt lat="43.74463" lon="6.3238283"><ele>827.0</ele><time>2026-05-02T10:23:30.271Z</time></trkpt><trkpt lat="43.7446933" lon="6.3237083"><ele>835.4000000000001</ele><time>2026-05-02T10:23:31.271Z</time></trkpt><trkpt lat="43.7447583" lon="6.3236017"><ele>843.8000000000001</ele><time>2026-05-02T10:23:32.271Z</time></trkpt><trkpt lat="43.74484" lon="6.32353"><ele>852.2</ele><time>2026-05-02T10:23:33.271Z</time></trkpt><trkpt lat="43.7449433" lon="6.323485"><ele>860.6</ele><time>2026-05-02T10:23:34.272Z</time></trkpt><trkpt lat="43.7450667" lon="6.3234833"><ele>869.0</ele><time>2026-05-02T10:23:35.271Z</time></trkpt><trkpt lat="43.7451867" lon="6.3234933"><ele>867.75</ele><time>2026-05-02T10:23:36.272Z</time></trkpt><trkpt lat="43.745295" lon="6.3235133"><ele>866.5</ele><time>2026-05-02T10:23:37.271Z</time></trkpt><trkpt lat="43.7454017" lon="6.323545"><ele>865.25</ele><time>2026-05-02T10:23:38.271Z</time></trkpt><trkpt lat="43.745515" lon="6.3235617"><ele>864.0</ele><time>2026-05-02T10:23:39.271Z</time></trkpt><trkpt lat="43.745635" lon="6.323575"><ele>864.0</ele><time>2026-05-02T10:23:40.271Z</time></trkpt><trkpt lat="43.745745" lon="6.3235833"><ele>864.0</ele><time>2026-05-02T10:23:41.271Z</time></trkpt><trkpt lat="43.7458533" lon="6.32358"><ele>864.0</ele><time>2026-05-02T10:23:42.271Z</time></trkpt><trkpt lat="43.7459667" lon="6.3235533"><ele>864.0</ele><time>2026-05-02T10:23:43.271Z</time></trkpt><trkpt lat="43.74608" lon="6.3235167"><ele>859.6</ele><time>2026-05-02T10:23:44.272Z</time></trkpt><trkpt lat="43.746185" lon="6.3234917"><ele>855.2</ele><time>2026-05-02T10:23:45.271Z</time></trkpt><trkpt lat="43.7462817" lon="6.323485"><ele>850.8000000000001</ele><time>2026-05-02T10:23:46.271Z</time></trkpt><trkpt lat="43.7463717" lon="6.3234817"><ele>846.4000000000001</ele><time>2026-05-02T10:23:47.271Z</time></trkpt><trkpt lat="43.7464633" lon="6.3234783"><ele>842.0</ele><time>2026-05-02T10:23:48.271Z</time></trkpt><trkpt lat="43.74655" lon="6.3234617"><ele>842.0</ele><time>2026-05-02T10:23:49.272Z</time></trkpt><trkpt lat="43.7466317" lon="6.3233967"><ele>842.0</ele><time>2026-05-02T10:23:50.271Z</time></trkpt><trkpt lat="43.7466917" lon="6.3233017"><ele>842.0</ele><time>2026-05-02T10:23:51.271Z</time></trkpt><trkpt lat="43.7467183" lon="6.3231717"><ele>842.0</ele><time>2026-05-02T10:23:52.271Z</time></trkpt><trkpt lat="43.7467183" lon="6.323025"><ele>842.0</ele><time>2026-05-02T10:23:53.271Z</time></trkpt><trkpt lat="43.7467167" lon="6.3229"><ele>844.8333333333334</ele><time>2026-05-02T10:23:54.271Z</time></trkpt><trkpt lat="43.7467383" lon="6.3228"><ele>847.6666666666667</ele><time>2026-05-02T10:23:55.271Z</time></trkpt><trkpt lat="43.7467833" lon="6.3227183"><ele>850.5</ele><time>2026-05-02T10:23:56.271Z</time></trkpt><trkpt lat="43.7468517" lon="6.3226817"><ele>853.3333333333333</ele><time>2026-05-02T10:23:57.271Z</time></trkpt><trkpt lat="43.7469233" lon="6.32268"><ele>856.1666666666666</ele><time>2026-05-02T10:23:58.272Z</time></trkpt><trkpt lat="43.747015" lon="6.3227"><ele>859.0</ele><time>2026-05-02T10:23:59.271Z</time></trkpt><trkpt lat="43.7471233" lon="6.3227233"><ele>859.0</ele><time>2026-05-02T10:24:00.271Z</time></trkpt><trkpt lat="43.7472317" lon="6.3227533"><ele>859.0000000000001</ele><time>2026-05-02T10:24:01.272Z</time></trkpt><trkpt lat="43.7473183" lon="6.3228133"><ele>859.0000000000001</ele><time>2026-05-02T10:24:02.272Z</time></trkpt><trkpt lat="43.7474083" lon="6.3228817"><ele>859.0</ele><time>2026-05-02T10:24:03.272Z</time></trkpt><trkpt lat="43.7474967" lon="6.3229033"><ele>859.0</ele><time>2026-05-02T10:24:04.271Z</time></trkpt><trkpt lat="43.747585" lon="6.3228683"><ele>859.0</ele><time>2026-05-02T10:24:05.271Z</time></trkpt><trkpt lat="43.747665" lon="6.3228017"><ele>859.0000000000001</ele><time>2026-05-02T10:24:06.271Z</time></trkpt><trkpt lat="43.7477317" lon="6.3227083"><ele>859.0000000000001</ele><time>2026-05-02T10:24:07.271Z</time></trkpt><trkpt lat="43.7478117" lon="6.3226167"><ele>859.0</ele><time>2026-05-02T10:24:08.271Z</time></trkpt><trkpt lat="43.7478967" lon="6.322565"><ele>859.0</ele><time>2026-05-02T10:24:09.271Z</time></trkpt><trkpt lat="43.7479833" lon="6.3225267"><ele>863.8000000000001</ele><time>2026-05-02T10:24:10.271Z</time></trkpt><trkpt lat="43.7480567" lon="6.322455"><ele>868.6000000000001</ele><time>2026-05-02T10:24:11.271Z</time></trkpt><trkpt lat="43.7481183" lon="6.3223717"><ele>873.4</ele><time>2026-05-02T10:24:12.271Z</time></trkpt><trkpt lat="43.7481983" lon="6.3222733"><ele>878.2</ele><time>2026-05-02T10:24:13.272Z</time></trkpt><trkpt lat="43.748285" lon="6.3221917"><ele>883.0</ele><time>2026-05-02T10:24:14.271Z</time></trkpt><trkpt lat="43.7483833" lon="6.322125"><ele>883.0</ele><time>2026-05-02T10:24:15.271Z</time></trkpt><trkpt lat="43.748485" lon="6.3220683"><ele>883.0</ele><time>2026-05-02T10:24:16.271Z</time></trkpt><trkpt lat="43.7485767" lon="6.32201"><ele>883.0</ele><time>2026-05-02T10:24:17.271Z</time></trkpt><trkpt lat="43.7486733" lon="6.32194"><ele>883.0</ele><time>2026-05-02T10:24:18.271Z</time></trkpt><trkpt lat="43.7487633" lon="6.3218717"><ele>883.0</ele><time>2026-05-02T10:24:19.271Z</time></trkpt><trkpt lat="43.7488517" lon="6.3218017"><ele>876.2</ele><time>2026-05-02T10:24:20.272Z</time></trkpt><trkpt lat="43.7489517" lon="6.3217567"><ele>869.4</ele><time>2026-05-02T10:24:21.271Z</time></trkpt><trkpt lat="43.74905" lon="6.32175"><ele>862.6</ele><time>2026-05-02T10:24:22.271Z</time></trkpt><trkpt lat="43.7491467" lon="6.3217483"><ele>855.8000000000001</ele><time>2026-05-02T10:24:23.272Z</time></trkpt><trkpt lat="43.7492533" lon="6.3217383"><ele>849.0</ele><time>2026-05-02T10:24:24.271Z</time></trkpt><trkpt lat="43.7493533" lon="6.3217133"><ele>850.6666666666666</ele><time>2026-05-02T10:24:25.271Z</time></trkpt><trkpt lat="43.7494483" lon="6.3216833"><ele>852.3333333333333</ele><time>2026-05-02T10:24:26.272Z</time></trkpt><trkpt lat="43.749535" lon="6.3216467"><ele>854.0</ele><time>2026-05-02T10:24:27.271Z</time></trkpt><trkpt lat="43.7495983" lon="6.3215867"><ele>855.6666666666666</ele><time>2026-05-02T10:24:28.271Z</time></trkpt><trkpt lat="43.7496367" lon="6.3215083"><ele>857.3333333333333</ele><time>2026-05-02T10:24:29.271Z</time></trkpt><trkpt lat="43.749655" lon="6.3214233"><ele>859.0</ele><time>2026-05-02T10:24:30.271Z</time></trkpt><trkpt lat="43.7496533" lon="6.3213067"><ele>858.9999999999999</ele><time>2026-05-02T10:24:31.271Z</time></trkpt><trkpt lat="43.7496467" lon="6.3212017"><ele>859.0</ele><time>2026-05-02T10:24:32.271Z</time></trkpt><trkpt lat="43.749655" lon="6.321115"><ele>859.0</ele><time>2026-05-02T10:24:33.271Z</time></trkpt><trkpt lat="43.7497383" lon="6.3209883"><ele>859.0</ele><time>2026-05-02T10:24:35.272Z</time></trkpt><trkpt lat="43.7498083" lon="6.3209617"><ele>858.9999999999999</ele><time>2026-05-02T10:24:36.271Z</time></trkpt><trkpt lat="43.7498933" lon="6.3209733"><ele>859.0</ele><time>2026-05-02T10:24:37.271Z</time></trkpt><trkpt lat="43.749985" lon="6.3210033"><ele>859.0</ele><time>2026-05-02T10:24:38.271Z</time></trkpt><trkpt lat="43.7500833" lon="6.3210233"><ele>859.0000000000001</ele><time>2026-05-02T10:24:39.271Z</time></trkpt><trkpt lat="43.7501767" lon="6.3210567"><ele>859.0000000000001</ele><time>2026-05-02T10:24:40.271Z</time></trkpt><trkpt lat="43.750255" lon="6.321095"><ele>859.0</ele><time>2026-05-02T10:24:41.271Z</time></trkpt><trkpt lat="43.75033" lon="6.3211667"><ele>859.0</ele><time>2026-05-02T10:24:42.271Z</time></trkpt><trkpt lat="43.7503933" lon="6.3212367"><ele>856.3333333333333</ele><time>2026-05-02T10:24:43.271Z</time></trkpt><trkpt lat="43.7504483" lon="6.3212983"><ele>853.6666666666666</ele><time>2026-05-02T10:24:44.271Z</time></trkpt><trkpt lat="43.750525" lon="6.3213867"><ele>851.0</ele><time>2026-05-02T10:24:46.271Z</time></trkpt><trkpt lat="43.7505767" lon="6.3214467"><ele>848.3333333333333</ele><time>2026-05-02T10:25:59.27Z</time></trkpt><trkpt lat="43.7506867" lon="6.321475"><ele>845.6666666666666</ele><time>2026-05-02T10:26:01.27Z</time></trkpt><trkpt lat="43.750765" lon="6.321485"><ele>843.0</ele><time>2026-05-02T10:26:02.27Z</time></trkpt><trkpt lat="43.750845" lon="6.321475"><ele>843.0</ele><time>2026-05-02T10:26:03.27Z</time></trkpt><trkpt lat="43.7509233" lon="6.321445"><ele>843.0</ele><time>2026-05-02T10:26:04.27Z</time></trkpt><trkpt lat="43.7509967" lon="6.3213933"><ele>843.0</ele><time>2026-05-02T10:26:05.27Z</time></trkpt><trkpt lat="43.7510683" lon="6.3213133"><ele>843.0</ele><time>2026-05-02T10:26:06.27Z</time></trkpt><trkpt lat="43.7511317" lon="6.3212083"><ele>843.0</ele><time>2026-05-02T10:26:07.27Z</time></trkpt><trkpt lat="43.7511733" lon="6.3210733"><ele>839.8</ele><time>2026-05-02T10:26:08.27Z</time></trkpt><trkpt lat="43.7512" lon="6.3209183"><ele>836.5999999999999</ele><time>2026-05-02T10:26:09.27Z</time></trkpt><trkpt lat="43.751215" lon="6.3207617"><ele>833.4000000000001</ele><time>2026-05-02T10:26:10.27Z</time></trkpt><trkpt lat="43.751225" lon="6.3206133"><ele>830.2</ele><time>2026-05-02T10:26:11.271Z</time></trkpt><trkpt lat="43.7512333" lon="6.3204583"><ele>827.0</ele><time>2026-05-02T10:26:12.27Z</time></trkpt><trkpt lat="43.751245" lon="6.3203133"><ele>827.0</ele><time>2026-05-02T10:26:13.27Z</time></trkpt><trkpt lat="43.7512617" lon="6.3201583"><ele>827.0</ele><time>2026-05-02T10:26:14.27Z</time></trkpt><trkpt lat="43.75127" lon="6.3200067"><ele>827.0</ele><time>2026-05-02T10:26:15.27Z</time></trkpt><trkpt lat="43.75128" lon="6.31985"><ele>827.0</ele><time>2026-05-02T10:26:16.27Z</time></trkpt><trkpt lat="43.7512967" lon="6.3196917"><ele>827.5</ele><time>2026-05-02T10:26:17.271Z</time></trkpt><trkpt lat="43.751315" lon="6.3195267"><ele>828.0</ele><time>2026-05-02T10:26:18.271Z</time></trkpt><trkpt lat="43.751325" lon="6.3193467"><ele>828.5</ele><time>2026-05-02T10:26:19.27Z</time></trkpt><trkpt lat="43.75133" lon="6.319175"><ele>829.0</ele><time>2026-05-02T10:26:20.27Z</time></trkpt><trkpt lat="43.751335" lon="6.3190083"><ele>830.0</ele><time>2026-05-02T10:26:21.27Z</time></trkpt><trkpt lat="43.7513317" lon="6.3188267"><ele>831.0</ele><time>2026-05-02T10:26:22.27Z</time></trkpt><trkpt lat="43.75131" lon="6.31864"><ele>832.0</ele><time>2026-05-02T10:26:23.27Z</time></trkpt><trkpt lat="43.7512917" lon="6.318455"><ele>833.0</ele><time>2026-05-02T10:26:24.27Z</time></trkpt><trkpt lat="43.7512733" lon="6.3182717"><ele>833.0</ele><time>2026-05-02T10:26:25.27Z</time></trkpt><trkpt lat="43.7512667" lon="6.3180867"><ele>833.0</ele><time>2026-05-02T10:26:26.27Z</time></trkpt><trkpt lat="43.75126" lon="6.3178983"><ele>833.0</ele><time>2026-05-02T10:26:27.27Z</time></trkpt><trkpt lat="43.7512533" lon="6.3177067"><ele>833.0</ele><time>2026-05-02T10:26:28.27Z</time></trkpt><trkpt lat="43.75125" lon="6.3175133"><ele>834.5</ele><time>2026-05-02T10:26:29.27Z</time></trkpt><trkpt lat="43.7512483" lon="6.3173183"><ele>836.0</ele><time>2026-05-02T10:26:30.271Z</time></trkpt><trkpt lat="43.751245" lon="6.3171333"><ele>837.5</ele><time>2026-05-02T10:26:31.27Z</time></trkpt><trkpt lat="43.75125" lon="6.3169433"><ele>839.0</ele><time>2026-05-02T10:26:32.271Z</time></trkpt><trkpt lat="43.7512617" lon="6.3167633"><ele>841.2</ele><time>2026-05-02T10:26:33.27Z</time></trkpt><trkpt lat="43.7512733" lon="6.3165883"><ele>843.4000000000001</ele><time>2026-05-02T10:26:34.27Z</time></trkpt><trkpt lat="43.751295" lon="6.316435"><ele>845.6</ele><time>2026-05-02T10:26:35.27Z</time></trkpt><trkpt lat="43.7513367" lon="6.3163067"><ele>847.8</ele><time>2026-05-02T10:26:36.27Z</time></trkpt><trkpt lat="43.75141" lon="6.3162067"><ele>850.0</ele><time>2026-05-02T10:26:37.27Z</time></trkpt><trkpt lat="43.7514917" lon="6.316105"><ele>853.5</ele><time>2026-05-02T10:26:38.27Z</time></trkpt><trkpt lat="43.75158" lon="6.31599"><ele>857.0</ele><time>2026-05-02T10:26:39.27Z</time></trkpt><trkpt lat="43.7516583" lon="6.31586"><ele>860.5</ele><time>2026-05-02T10:26:40.271Z</time></trkpt><trkpt lat="43.751735" lon="6.3157117"><ele>864.0</ele><time>2026-05-02T10:26:41.27Z</time></trkpt><trkpt lat="43.751815" lon="6.3155567"><ele>861.5</ele><time>2026-05-02T10:26:42.27Z</time></trkpt><trkpt lat="43.7518883" lon="6.3153917"><ele>859.0</ele><time>2026-05-02T10:26:43.27Z</time></trkpt><trkpt lat="43.7519583" lon="6.3152167"><ele>856.5</ele><time>2026-05-02T10:26:44.271Z</time></trkpt><trkpt lat="43.75203" lon="6.315035"><ele>854.0</ele><time>2026-05-02T10:26:45.27Z</time></trkpt><trkpt lat="43.7521017" lon="6.3148717"><ele>857.0</ele><time>2026-05-02T10:26:46.27Z</time></trkpt><trkpt lat="43.7521783" lon="6.3147133"><ele>860.0</ele><time>2026-05-02T10:26:47.27Z</time></trkpt><trkpt lat="43.7522633" lon="6.3145783"><ele>863.0</ele><time>2026-05-02T10:26:48.27Z</time></trkpt><trkpt lat="43.752355" lon="6.3144417"><ele>866.0</ele><time>2026-05-02T10:26:49.27Z</time></trkpt><trkpt lat="43.7524467" lon="6.3143033"><ele>866.0</ele><time>2026-05-02T10:26:50.27Z</time></trkpt><trkpt lat="43.7525283" lon="6.3141833"><ele>865.9999999999999</ele><time>2026-05-02T10:26:51.27Z</time></trkpt><trkpt lat="43.752595" lon="6.31408"><ele>865.9999999999999</ele><time>2026-05-02T10:26:52.27Z</time></trkpt><trkpt lat="43.7526383" lon="6.313975"><ele>866.0</ele><time>2026-05-02T10:26:53.27Z</time></trkpt><trkpt lat="43.7526483" lon="6.3138717"><ele>866.0</ele><time>2026-05-02T10:26:54.27Z</time></trkpt><trkpt lat="43.7526317" lon="6.3137617"><ele>869.8</ele><time>2026-05-02T10:26:55.27Z</time></trkpt><trkpt lat="43.7525817" lon="6.313655"><ele>873.5999999999999</ele><time>2026-05-02T10:26:56.27Z</time></trkpt><trkpt lat="43.7525167" lon="6.3135517"><ele>877.4</ele><time>2026-05-02T10:26:57.27Z</time></trkpt><trkpt lat="43.7524567" lon="6.3134417"><ele>881.2</ele><time>2026-05-02T10:26:58.27Z</time></trkpt><trkpt lat="43.7524167" lon="6.31335"><ele>885.0</ele><time>2026-05-02T10:26:59.27Z</time></trkpt><trkpt lat="43.75242" lon="6.313205"><ele>885.0</ele><time>2026-05-02T10:27:01.27Z</time></trkpt><trkpt lat="43.75248" lon="6.3131567"><ele>885.0</ele><time>2026-05-02T10:27:02.271Z</time></trkpt><trkpt lat="43.752575" lon="6.31312"><ele>885.0</ele><time>2026-05-02T10:27:03.27Z</time></trkpt><trkpt lat="43.7526733" lon="6.313085"><ele>885.0</ele><time>2026-05-02T10:27:04.271Z</time></trkpt><trkpt lat="43.7527917" lon="6.3130433"><ele>885.0</ele><time>2026-05-02T10:27:05.27Z</time></trkpt><trkpt lat="43.752915" lon="6.312995"><ele>887.0</ele><time>2026-05-02T10:27:06.27Z</time></trkpt><trkpt lat="43.7530267" lon="6.312945"><ele>889.0</ele><time>2026-05-02T10:27:07.271Z</time></trkpt><trkpt lat="43.7531333" lon="6.3128933"><ele>891.0</ele><time>2026-05-02T10:27:08.27Z</time></trkpt><trkpt lat="43.753235" lon="6.31286"><ele>893.0</ele><time>2026-05-02T10:27:09.27Z</time></trkpt><trkpt lat="43.75333" lon="6.3128367"><ele>895.0</ele><time>2026-05-02T10:27:10.27Z</time></trkpt><trkpt lat="43.7534283" lon="6.3128083"><ele>895.0</ele><time>2026-05-02T10:27:11.27Z</time></trkpt><trkpt lat="43.7535233" lon="6.3127717"><ele>895.0</ele><time>2026-05-02T10:27:12.271Z</time></trkpt><trkpt lat="43.7536233" lon="6.312705"><ele>895.0</ele><time>2026-05-02T10:27:13.27Z</time></trkpt><trkpt lat="43.7537067" lon="6.3126083"><ele>895.0</ele><time>2026-05-02T10:27:14.27Z</time></trkpt><trkpt lat="43.75378" lon="6.3124667"><ele>895.0</ele><time>2026-05-02T10:27:15.27Z</time></trkpt><trkpt lat="43.7538233" lon="6.3122983"><ele>893.75</ele><time>2026-05-02T10:27:16.27Z</time></trkpt><trkpt lat="43.7538767" lon="6.3121183"><ele>892.5</ele><time>2026-05-02T10:27:17.27Z</time></trkpt><trkpt lat="43.7539217" lon="6.3119467"><ele>891.25</ele><time>2026-05-02T10:27:18.27Z</time></trkpt><trkpt lat="43.7539667" lon="6.3117633"><ele>890.0</ele><time>2026-05-02T10:27:19.27Z</time></trkpt><trkpt lat="43.7539967" lon="6.3115733"><ele>891.25</ele><time>2026-05-02T10:27:20.27Z</time></trkpt><trkpt lat="43.75402" lon="6.311365"><ele>892.5</ele><time>2026-05-02T10:27:21.27Z</time></trkpt><trkpt lat="43.754035" lon="6.3111667"><ele>893.75</ele><time>2026-05-02T10:27:22.27Z</time></trkpt><trkpt lat="43.7540417" lon="6.3109567"><ele>895.0</ele><time>2026-05-02T10:27:23.27Z</time></trkpt><trkpt lat="43.754045" lon="6.3107417"><ele>896.25</ele><time>2026-05-02T10:27:24.27Z</time></trkpt><trkpt lat="43.7540417" lon="6.3105267"><ele>897.5</ele><time>2026-05-02T10:27:25.27Z</time></trkpt><trkpt lat="43.7540317" lon="6.310325"><ele>898.75</ele><time>2026-05-02T10:27:26.27Z</time></trkpt><trkpt lat="43.7540183" lon="6.3101233"><ele>900.0</ele><time>2026-05-02T10:27:27.27Z</time></trkpt><trkpt lat="43.7540033" lon="6.3099283"><ele>900.75</ele><time>2026-05-02T10:27:28.27Z</time></trkpt><trkpt lat="43.7539917" lon="6.30973"><ele>901.5</ele><time>2026-05-02T10:27:29.27Z</time></trkpt><trkpt lat="43.75397" lon="6.3095433"><ele>902.25</ele><time>2026-05-02T10:27:30.27Z</time></trkpt><trkpt lat="43.75392" lon="6.3093583"><ele>903.0</ele><time>2026-05-02T10:27:31.27Z</time></trkpt><trkpt lat="43.7538683" lon="6.3091817"><ele>903.0</ele><time>2026-05-02T10:27:32.27Z</time></trkpt><trkpt lat="43.7538217" lon="6.3090117"><ele>903.0</ele><time>2026-05-02T10:27:33.27Z</time></trkpt><trkpt lat="43.7537933" lon="6.3088417"><ele>903.0</ele><time>2026-05-02T10:27:34.27Z</time></trkpt><trkpt lat="43.7537967" lon="6.3086783"><ele>903.0</ele><time>2026-05-02T10:27:35.27Z</time></trkpt><trkpt lat="43.75383" lon="6.3085233"><ele>904.25</ele><time>2026-05-02T10:27:36.27Z</time></trkpt><trkpt lat="43.7538983" lon="6.308365"><ele>905.5</ele><time>2026-05-02T10:27:37.27Z</time></trkpt><trkpt lat="43.7539783" lon="6.3082033"><ele>906.75</ele><time>2026-05-02T10:27:38.27Z</time></trkpt><trkpt lat="43.7540533" lon="6.3080283"><ele>908.0</ele><time>2026-05-02T10:27:39.27Z</time></trkpt><trkpt lat="43.7541133" lon="6.3078583"><ele>909.75</ele><time>2026-05-02T10:27:40.271Z</time></trkpt><trkpt lat="43.75415" lon="6.3076733"><ele>911.5</ele><time>2026-05-02T10:27:41.27Z</time></trkpt><trkpt lat="43.75417" lon="6.307475"><ele>913.25</ele><time>2026-05-02T10:27:42.271Z</time></trkpt><trkpt lat="43.75418" lon="6.30728"><ele>915.0</ele><time>2026-05-02T10:27:43.27Z</time></trkpt><trkpt lat="43.7541933" lon="6.3070767"><ele>917.0</ele><time>2026-05-02T10:27:44.27Z</time></trkpt><trkpt lat="43.7542117" lon="6.3068733"><ele>919.0</ele><time>2026-05-02T10:27:45.27Z</time></trkpt><trkpt lat="43.7542267" lon="6.306675"><ele>921.0</ele><time>2026-05-02T10:27:46.27Z</time></trkpt><trkpt lat="43.7542383" lon="6.3064783"><ele>923.0</ele><time>2026-05-02T10:27:47.27Z</time></trkpt><trkpt lat="43.7542533" lon="6.3062933"><ele>925.0</ele><time>2026-05-02T10:27:48.27Z</time></trkpt><trkpt lat="43.75427" lon="6.3061067"><ele>927.0</ele><time>2026-05-02T10:27:49.271Z</time></trkpt><trkpt lat="43.754285" lon="6.3059333"><ele>929.0</ele><time>2026-05-02T10:27:50.27Z</time></trkpt><trkpt lat="43.7543083" lon="6.30576"><ele>931.0</ele><time>2026-05-02T10:27:51.271Z</time></trkpt><trkpt lat="43.75434" lon="6.3055933"><ele>928.25</ele><time>2026-05-02T10:27:52.27Z</time></trkpt><trkpt lat="43.7543933" lon="6.30544"><ele>925.5</ele><time>2026-05-02T10:27:53.27Z</time></trkpt><trkpt lat="43.754465" lon="6.3052833"><ele>922.75</ele><time>2026-05-02T10:27:54.271Z</time></trkpt><trkpt lat="43.7545383" lon="6.30512"><ele>920.0</ele><time>2026-05-02T10:27:55.27Z</time></trkpt><trkpt lat="43.7546167" lon="6.304955"><ele>920.0</ele><time>2026-05-02T10:27:56.27Z</time></trkpt><trkpt lat="43.754675" lon="6.3047817"><ele>920.0</ele><time>2026-05-02T10:27:57.27Z</time></trkpt><trkpt lat="43.75472" lon="6.3046083"><ele>920.0</ele><time>2026-05-02T10:27:58.27Z</time></trkpt><trkpt lat="43.754745" lon="6.3044217"><ele>920.0</ele><time>2026-05-02T10:27:59.27Z</time></trkpt><trkpt lat="43.7547683" lon="6.3042217"><ele>922.0</ele><time>2026-05-02T10:28:00.27Z</time></trkpt><trkpt lat="43.7547933" lon="6.3040217"><ele>924.0</ele><time>2026-05-02T10:28:01.27Z</time></trkpt><trkpt lat="43.7548217" lon="6.3038317"><ele>926.0</ele><time>2026-05-02T10:28:02.271Z</time></trkpt><trkpt lat="43.7548517" lon="6.3036517"><ele>928.0</ele><time>2026-05-02T10:28:03.27Z</time></trkpt><trkpt lat="43.7548883" lon="6.30349"><ele>930.75</ele><time>2026-05-02T10:28:04.27Z</time></trkpt><trkpt lat="43.7549533" lon="6.30335"><ele>933.5</ele><time>2026-05-02T10:28:05.27Z</time></trkpt><trkpt lat="43.7550417" lon="6.3032217"><ele>936.25</ele><time>2026-05-02T10:28:06.27Z</time></trkpt><trkpt lat="43.7551417" lon="6.3031067"><ele>939.0</ele><time>2026-05-02T10:28:07.27Z</time></trkpt><trkpt lat="43.7552433" lon="6.3030033"><ele>939.25</ele><time>2026-05-02T10:28:08.271Z</time></trkpt><trkpt lat="43.755345" lon="6.3028817"><ele>939.5</ele><time>2026-05-02T10:28:09.27Z</time></trkpt><trkpt lat="43.7554367" lon="6.3027633"><ele>939.75</ele><time>2026-05-02T10:28:10.27Z</time></trkpt><trkpt lat="43.75552" lon="6.3026233"><ele>940.0</ele><time>2026-05-02T10:28:11.271Z</time></trkpt><trkpt lat="43.755585" lon="6.3024517"><ele>940.0</ele><time>2026-05-02T10:28:12.271Z</time></trkpt><trkpt lat="43.755645" lon="6.3022583"><ele>940.0</ele><time>2026-05-02T10:28:13.27Z</time></trkpt><trkpt lat="43.7557" lon="6.3020633"><ele>940.0</ele><time>2026-05-02T10:28:14.27Z</time></trkpt><trkpt lat="43.755755" lon="6.301875"><ele>942.25</ele><time>2026-05-02T10:28:15.27Z</time></trkpt><trkpt lat="43.7558167" lon="6.30171"><ele>944.5</ele><time>2026-05-02T10:28:16.27Z</time></trkpt><trkpt lat="43.75589" lon="6.30157"><ele>946.75</ele><time>2026-05-02T10:28:17.27Z</time></trkpt><trkpt lat="43.755975" lon="6.3014517"><ele>949.0</ele><time>2026-05-02T10:28:18.27Z</time></trkpt><trkpt lat="43.7560283" lon="6.301335"><ele>947.4999999999999</ele><time>2026-05-02T10:28:19.271Z</time></trkpt><trkpt lat="43.75606" lon="6.3012067"><ele>946.0</ele><time>2026-05-02T10:28:20.27Z</time></trkpt><trkpt lat="43.7560483" lon="6.3010867"><ele>944.5</ele><time>2026-05-02T10:28:21.27Z</time></trkpt><trkpt lat="43.756015" lon="6.3009867"><ele>943.0</ele><time>2026-05-02T10:28:22.27Z</time></trkpt><trkpt lat="43.7559533" lon="6.3009217"><ele>941.4999999999999</ele><time>2026-05-02T10:28:23.27Z</time></trkpt><trkpt lat="43.75588" lon="6.3008933"><ele>940.0</ele><time>2026-05-02T10:28:24.27Z</time></trkpt><trkpt lat="43.7558033" lon="6.3009317"><ele>942.25</ele><time>2026-05-02T10:28:25.27Z</time></trkpt><trkpt lat="43.755725" lon="6.3010433"><ele>944.5</ele><time>2026-05-02T10:28:26.27Z</time></trkpt><trkpt lat="43.75568" lon="6.3012183"><ele>946.75</ele><time>2026-05-02T10:28:27.27Z</time></trkpt><trkpt lat="43.755645" lon="6.30139"><ele>949.0</ele><time>2026-05-02T10:28:28.27Z</time></trkpt><trkpt lat="43.755595" lon="6.3015367"><ele>949.0</ele><time>2026-05-02T10:28:29.27Z</time></trkpt><trkpt lat="43.7555217" lon="6.301665"><ele>949.0</ele><time>2026-05-02T10:28:30.27Z</time></trkpt><trkpt lat="43.7554433" lon="6.301785"><ele>949.0</ele><time>2026-05-02T10:28:31.27Z</time></trkpt><trkpt lat="43.7553583" lon="6.3019"><ele>949.0</ele><time>2026-05-02T10:28:32.27Z</time></trkpt><trkpt lat="43.75527" lon="6.3019917"><ele>949.25</ele><time>2026-05-02T10:28:33.27Z</time></trkpt><trkpt lat="43.755165" lon="6.3020617"><ele>949.5</ele><time>2026-05-02T10:28:34.27Z</time></trkpt><trkpt lat="43.7550417" lon="6.302135"><ele>949.75</ele><time>2026-05-02T10:28:35.27Z</time></trkpt><trkpt lat="43.7549183" lon="6.302205"><ele>950.0</ele><time>2026-05-02T10:28:36.27Z</time></trkpt><trkpt lat="43.7547967" lon="6.3022733"><ele>950.0</ele><time>2026-05-02T10:28:37.27Z</time></trkpt><trkpt lat="43.7546817" lon="6.3023467"><ele>950.0</ele><time>2026-05-02T10:28:38.27Z</time></trkpt><trkpt lat="43.7545617" lon="6.3024167"><ele>950.0</ele><time>2026-05-02T10:28:39.27Z</time></trkpt><trkpt lat="43.754455" lon="6.30249"><ele>950.0</ele><time>2026-05-02T10:28:40.27Z</time></trkpt><trkpt lat="43.7543617" lon="6.3025733"><ele>953.2</ele><time>2026-05-02T10:28:41.27Z</time></trkpt><trkpt lat="43.7542933" lon="6.3026783"><ele>956.4</ele><time>2026-05-02T10:28:42.27Z</time></trkpt><trkpt lat="43.7542317" lon="6.3027983"><ele>959.5999999999999</ele><time>2026-05-02T10:28:43.27Z</time></trkpt><trkpt lat="43.754175" lon="6.3029083"><ele>962.8</ele><time>2026-05-02T10:28:44.27Z</time></trkpt><trkpt lat="43.7541217" lon="6.3030017"><ele>966.0</ele><time>2026-05-02T10:28:45.27Z</time></trkpt><trkpt lat="43.7540667" lon="6.3030567"><ele>966.0</ele><time>2026-05-02T10:28:46.27Z</time></trkpt><trkpt lat="43.753995" lon="6.3030533"><ele>966.0</ele><time>2026-05-02T10:28:47.27Z</time></trkpt><trkpt lat="43.7539217" lon="6.303015"><ele>966.0</ele><time>2026-05-02T10:28:48.27Z</time></trkpt><trkpt lat="43.75388" lon="6.3029083"><ele>966.0</ele><time>2026-05-02T10:28:49.27Z</time></trkpt><trkpt lat="43.7538767" lon="6.3027817"><ele>966.0</ele><time>2026-05-02T10:28:50.27Z</time></trkpt><trkpt lat="43.7539117" lon="6.3026817"><ele>966.0</ele><time>2026-05-02T10:28:51.271Z</time></trkpt><trkpt lat="43.75398" lon="6.3025883"><ele>966.0</ele><time>2026-05-02T10:28:52.27Z</time></trkpt><trkpt lat="43.754085" lon="6.3024983"><ele>966.0</ele><time>2026-05-02T10:28:53.27Z</time></trkpt><trkpt lat="43.7541933" lon="6.3023817"><ele>966.0</ele><time>2026-05-02T10:28:54.27Z</time></trkpt><trkpt lat="43.754295" lon="6.30224"><ele>966.0</ele><time>2026-05-02T10:28:55.27Z</time></trkpt><trkpt lat="43.7543833" lon="6.3020967"><ele>965.0</ele><time>2026-05-02T10:28:56.27Z</time></trkpt><trkpt lat="43.75447" lon="6.30195"><ele>964.0</ele><time>2026-05-02T10:28:57.271Z</time></trkpt><trkpt lat="43.7545667" lon="6.3018017"><ele>963.0</ele><time>2026-05-02T10:28:58.27Z</time></trkpt><trkpt lat="43.7546467" lon="6.3016317"><ele>962.0</ele><time>2026-05-02T10:28:59.27Z</time></trkpt><trkpt lat="43.7547167" lon="6.301455"><ele>966.25</ele><time>2026-05-02T10:29:00.271Z</time></trkpt><trkpt lat="43.7547783" lon="6.3012867"><ele>970.5</ele><time>2026-05-02T10:29:01.27Z</time></trkpt><trkpt lat="43.75485" lon="6.3011417"><ele>974.75</ele><time>2026-05-02T10:29:02.27Z</time></trkpt><trkpt lat="43.75493" lon="6.3010017"><ele>979.0</ele><time>2026-05-02T10:29:03.27Z</time></trkpt><trkpt lat="43.7550233" lon="6.3008833"><ele>979.0</ele><time>2026-05-02T10:29:04.27Z</time></trkpt><trkpt lat="43.7551167" lon="6.30078"><ele>979.0</ele><time>2026-05-02T10:29:05.271Z</time></trkpt><trkpt lat="43.755215" lon="6.30067"><ele>979.0</ele><time>2026-05-02T10:29:06.27Z</time></trkpt><trkpt lat="43.7553117" lon="6.30054"><ele>979.0</ele><time>2026-05-02T10:29:07.271Z</time></trkpt><trkpt lat="43.755405" lon="6.3004033"><ele>979.0</ele><time>2026-05-02T10:29:08.27Z</time></trkpt><trkpt lat="43.7554867" lon="6.3002617"><ele>979.0</ele><time>2026-05-02T10:29:09.27Z</time></trkpt><trkpt lat="43.7555783" lon="6.3001217"><ele>979.0</ele><time>2026-05-02T10:29:10.27Z</time></trkpt><trkpt lat="43.7556617" lon="6.29998"><ele>979.0</ele><time>2026-05-02T10:29:11.27Z</time></trkpt><trkpt lat="43.7557317" lon="6.2998233"><ele>982.25</ele><time>2026-05-02T10:29:12.27Z</time></trkpt><trkpt lat="43.7557967" lon="6.299665"><ele>985.5</ele><time>2026-05-02T10:29:13.27Z</time></trkpt><trkpt lat="43.7558617" lon="6.2995033"><ele>988.75</ele><time>2026-05-02T10:29:14.27Z</time></trkpt><trkpt lat="43.7559267" lon="6.299345"><ele>992.0</ele><time>2026-05-02T10:29:15.27Z</time></trkpt><trkpt lat="43.7559883" lon="6.2991883"><ele>988.0</ele><time>2026-05-02T10:29:16.27Z</time></trkpt><trkpt lat="43.7560417" lon="6.299035"><ele>984.0</ele><time>2026-05-02T10:29:17.27Z</time></trkpt><trkpt lat="43.75608" lon="6.298865"><ele>980.0</ele><time>2026-05-02T10:29:18.27Z</time></trkpt><trkpt lat="43.7560967" lon="6.298685"><ele>976.0</ele><time>2026-05-02T10:29:19.271Z</time></trkpt><trkpt lat="43.7561017" lon="6.2984983"><ele>976.0</ele><time>2026-05-02T10:29:20.271Z</time></trkpt><trkpt lat="43.7560933" lon="6.298315"><ele>976.0</ele><time>2026-05-02T10:29:21.27Z</time></trkpt><trkpt lat="43.7560733" lon="6.2981317"><ele>976.0</ele><time>2026-05-02T10:29:22.271Z</time></trkpt><trkpt lat="43.7560467" lon="6.297955"><ele>976.0</ele><time>2026-05-02T10:29:23.27Z</time></trkpt><trkpt lat="43.7559933" lon="6.2977883"><ele>981.5999999999999</ele><time>2026-05-02T10:29:24.27Z</time></trkpt><trkpt lat="43.75592" lon="6.297645"><ele>987.1999999999999</ele><time>2026-05-02T10:29:25.27Z</time></trkpt><trkpt lat="43.7558417" lon="6.29752"><ele>992.8000000000001</ele><time>2026-05-02T10:29:26.27Z</time></trkpt><trkpt lat="43.75578" lon="6.2974033"><ele>998.4000000000001</ele><time>2026-05-02T10:29:27.27Z</time></trkpt><trkpt lat="43.7557517" lon="6.2972733"><ele>1004.0</ele><time>2026-05-02T10:29:28.27Z</time></trkpt><trkpt lat="43.75577" lon="6.2971633"><ele>1002.4000000000001</ele><time>2026-05-02T10:29:29.27Z</time></trkpt><trkpt lat="43.7558367" lon="6.2970683"><ele>1000.8000000000001</ele><time>2026-05-02T10:29:30.27Z</time></trkpt><trkpt lat="43.755915" lon="6.2969833"><ele>999.1999999999999</ele><time>2026-05-02T10:29:31.271Z</time></trkpt><trkpt lat="43.7559967" lon="6.2969017"><ele>997.5999999999999</ele><time>2026-05-02T10:29:32.27Z</time></trkpt><trkpt lat="43.75609" lon="6.2968"><ele>996.0</ele><time>2026-05-02T10:29:33.27Z</time></trkpt><trkpt lat="43.7561717" lon="6.2966933"><ele>996.0</ele><time>2026-05-02T10:29:34.271Z</time></trkpt><trkpt lat="43.756255" lon="6.2965683"><ele>996.0</ele><time>2026-05-02T10:29:35.27Z</time></trkpt><trkpt lat="43.7563333" lon="6.2964167"><ele>996.0</ele><time>2026-05-02T10:29:36.271Z</time></trkpt><trkpt lat="43.756405" lon="6.2962733"><ele>996.0</ele><time>2026-05-02T10:29:37.271Z</time></trkpt><trkpt lat="43.75649" lon="6.296125"><ele>1000.0</ele><time>2026-05-02T10:29:38.27Z</time></trkpt><trkpt lat="43.75658" lon="6.2959633"><ele>1004.0</ele><time>2026-05-02T10:29:39.27Z</time></trkpt><trkpt lat="43.7566667" lon="6.2958"><ele>1008.0</ele><time>2026-05-02T10:29:40.271Z</time></trkpt><trkpt lat="43.7567567" lon="6.29564"><ele>1012.0</ele><time>2026-05-02T10:29:41.27Z</time></trkpt><trkpt lat="43.7568383" lon="6.29548"><ele>1014.75</ele><time>2026-05-02T10:29:42.271Z</time></trkpt><trkpt lat="43.7569233" lon="6.2953317"><ele>1017.5</ele><time>2026-05-02T10:29:43.271Z</time></trkpt><trkpt lat="43.7570067" lon="6.2951967"><ele>1020.25</ele><time>2026-05-02T10:29:44.27Z</time></trkpt><trkpt lat="43.7570967" lon="6.2950933"><ele>1023.0</ele><time>2026-05-02T10:29:45.27Z</time></trkpt><trkpt lat="43.7572067" lon="6.2950367"><ele>1023.0</ele><time>2026-05-02T10:29:46.27Z</time></trkpt><trkpt lat="43.7573233" lon="6.295025"><ele>1023.0</ele><time>2026-05-02T10:29:47.27Z</time></trkpt><trkpt lat="43.7574433" lon="6.2950417"><ele>1023.0</ele><time>2026-05-02T10:29:48.27Z</time></trkpt><trkpt lat="43.7575517" lon="6.295075"><ele>1023.0</ele><time>2026-05-02T10:29:49.27Z</time></trkpt><trkpt lat="43.7576767" lon="6.2950583"><ele>1022.0</ele><time>2026-05-02T10:29:50.27Z</time></trkpt><trkpt lat="43.75779" lon="6.2950033"><ele>1021.0</ele><time>2026-05-02T10:29:51.27Z</time></trkpt><trkpt lat="43.7579" lon="6.294895"><ele>1020.0</ele><time>2026-05-02T10:29:52.27Z</time></trkpt><trkpt lat="43.7580067" lon="6.2947867"><ele>1019.0</ele><time>2026-05-02T10:29:53.27Z</time></trkpt><trkpt lat="43.75812" lon="6.2946767"><ele>1017.5</ele><time>2026-05-02T10:29:54.27Z</time></trkpt><trkpt lat="43.75823" lon="6.2945583"><ele>1016.0</ele><time>2026-05-02T10:29:55.27Z</time></trkpt><trkpt lat="43.7583367" lon="6.2944467"><ele>1014.5</ele><time>2026-05-02T10:29:56.27Z</time></trkpt><trkpt lat="43.75844" lon="6.29433"><ele>1013.0</ele><time>2026-05-02T10:29:57.27Z</time></trkpt><trkpt lat="43.758545" lon="6.2942"><ele>1013.0</ele><time>2026-05-02T10:29:58.27Z</time></trkpt><trkpt lat="43.7586367" lon="6.294065"><ele>1013.0</ele><time>2026-05-02T10:29:59.27Z</time></trkpt><trkpt lat="43.7587167" lon="6.2939183"><ele>1013.0</ele><time>2026-05-02T10:30:00.27Z</time></trkpt><trkpt lat="43.7587967" lon="6.2937633"><ele>1013.0</ele><time>2026-05-02T10:30:01.27Z</time></trkpt><trkpt lat="43.7588583" lon="6.2936167"><ele>1014.75</ele><time>2026-05-02T10:30:02.27Z</time></trkpt><trkpt lat="43.7588917" lon="6.293465"><ele>1016.5</ele><time>2026-05-02T10:30:03.27Z</time></trkpt><trkpt lat="43.7589117" lon="6.293295"><ele>1018.25</ele><time>2026-05-02T10:30:04.27Z</time></trkpt><trkpt lat="43.7588967" lon="6.293135"><ele>1020.0</ele><time>2026-05-02T10:30:05.27Z</time></trkpt><trkpt lat="43.758865" lon="6.2929883"><ele>1016.5</ele><time>2026-05-02T10:30:06.27Z</time></trkpt><trkpt lat="43.7588083" lon="6.292865"><ele>1013.0</ele><time>2026-05-02T10:30:07.27Z</time></trkpt><trkpt lat="43.758725" lon="6.2927633"><ele>1009.5</ele><time>2026-05-02T10:30:08.27Z</time></trkpt><trkpt lat="43.7586283" lon="6.2926783"><ele>1006.0</ele><time>2026-05-02T10:30:09.27Z</time></trkpt><trkpt lat="43.75852" lon="6.2926"><ele>1014.75</ele><time>2026-05-02T10:30:10.27Z</time></trkpt><trkpt lat="43.7584067" lon="6.2925317"><ele>1023.5</ele><time>2026-05-02T10:30:11.27Z</time></trkpt><trkpt lat="43.7582983" lon="6.292455"><ele>1032.25</ele><time>2026-05-02T10:30:12.27Z</time></trkpt><trkpt lat="43.758195" lon="6.2923867"><ele>1041.0</ele><time>2026-05-02T10:30:13.27Z</time></trkpt><trkpt lat="43.7581017" lon="6.2922933"><ele>1039.25</ele><time>2026-05-02T10:30:14.27Z</time></trkpt><trkpt lat="43.75802" lon="6.2921717"><ele>1037.5</ele><time>2026-05-02T10:30:15.27Z</time></trkpt><trkpt lat="43.7579517" lon="6.2920217"><ele>1035.75</ele><time>2026-05-02T10:30:16.27Z</time></trkpt><trkpt lat="43.7578883" lon="6.2918817"><ele>1034.0</ele><time>2026-05-02T10:30:17.27Z</time></trkpt><trkpt lat="43.757835" lon="6.2917583"><ele>1034.0</ele><time>2026-05-02T10:30:18.271Z</time></trkpt><trkpt lat="43.7577967" lon="6.29164"><ele>1034.0</ele><time>2026-05-02T10:30:19.271Z</time></trkpt><trkpt lat="43.7577867" lon="6.2915333"><ele>1034.0</ele><time>2026-05-02T10:30:20.27Z</time></trkpt><trkpt lat="43.757815" lon="6.2914433"><ele>1034.0</ele><time>2026-05-02T10:30:21.271Z</time></trkpt><trkpt lat="43.75787" lon="6.2913817"><ele>1034.0</ele><time>2026-05-02T10:30:22.27Z</time></trkpt><trkpt lat="43.7579717" lon="6.2913317"><ele>1034.0</ele><time>2026-05-02T10:30:23.27Z</time></trkpt><trkpt lat="43.7580817" lon="6.29125"><ele>1039.5</ele><time>2026-05-02T10:30:24.27Z</time></trkpt><trkpt lat="43.7581883" lon="6.2911317"><ele>1045.0</ele><time>2026-05-02T10:30:25.27Z</time></trkpt><trkpt lat="43.7582867" lon="6.291"><ele>1050.5</ele><time>2026-05-02T10:30:26.27Z</time></trkpt><trkpt lat="43.758395" lon="6.2908633"><ele>1056.0</ele><time>2026-05-02T10:30:27.27Z</time></trkpt><trkpt lat="43.7584933" lon="6.29073"><ele>1052.75</ele><time>2026-05-02T10:30:28.27Z</time></trkpt><trkpt lat="43.75858" lon="6.2905917"><ele>1049.5</ele><time>2026-05-02T10:30:29.27Z</time></trkpt><trkpt lat="43.7586617" lon="6.2904733"><ele>1046.25</ele><time>2026-05-02T10:30:30.27Z</time></trkpt><trkpt lat="43.7587367" lon="6.2903667"><ele>1043.0</ele><time>2026-05-02T10:30:31.27Z</time></trkpt><trkpt lat="43.7588083" lon="6.2902533"><ele>1043.0</ele><time>2026-05-02T10:30:32.271Z</time></trkpt><trkpt lat="43.7588817" lon="6.2901283"><ele>1043.0</ele><time>2026-05-02T10:30:33.27Z</time></trkpt><trkpt lat="43.758925" lon="6.2899983"><ele>1043.0</ele><time>2026-05-02T10:30:34.271Z</time></trkpt><trkpt lat="43.7589517" lon="6.289835"><ele>1043.0</ele><time>2026-05-02T10:30:35.27Z</time></trkpt><trkpt lat="43.7589467" lon="6.2896633"><ele>1045.6</ele><time>2026-05-02T10:30:36.27Z</time></trkpt><trkpt lat="43.7589183" lon="6.2895033"><ele>1048.1999999999998</ele><time>2026-05-02T10:30:37.27Z</time></trkpt><trkpt lat="43.7588983" lon="6.2893533"><ele>1050.8</ele><time>2026-05-02T10:30:38.27Z</time></trkpt><trkpt lat="43.7589133" lon="6.2892117"><ele>1053.3999999999999</ele><time>2026-05-02T10:30:39.27Z</time></trkpt><trkpt lat="43.7589683" lon="6.2890833"><ele>1056.0</ele><time>2026-05-02T10:30:40.27Z</time></trkpt><trkpt lat="43.7590483" lon="6.2889633"><ele>1060.75</ele><time>2026-05-02T10:30:41.27Z</time></trkpt><trkpt lat="43.759145" lon="6.2888633"><ele>1065.5</ele><time>2026-05-02T10:30:42.27Z</time></trkpt><trkpt lat="43.7592517" lon="6.2887583"><ele>1070.25</ele><time>2026-05-02T10:30:43.27Z</time></trkpt><trkpt lat="43.7593467" lon="6.2886433"><ele>1075.0</ele><time>2026-05-02T10:30:44.27Z</time></trkpt><trkpt lat="43.7594217" lon="6.2885017"><ele>1065.5</ele><time>2026-05-02T10:30:45.271Z</time></trkpt><trkpt lat="43.7594683" lon="6.2883533"><ele>1056.0</ele><time>2026-05-02T10:30:46.27Z</time></trkpt><trkpt lat="43.7594767" lon="6.288195"><ele>1046.5</ele><time>2026-05-02T10:30:47.271Z</time></trkpt><trkpt lat="43.759465" lon="6.2880483"><ele>1037.0</ele><time>2026-05-02T10:30:48.271Z</time></trkpt><trkpt lat="43.7594283" lon="6.2878867"><ele>1037.0</ele><time>2026-05-02T10:30:49.271Z</time></trkpt><trkpt lat="43.759375" lon="6.2877267"><ele>1037.0</ele><time>2026-05-02T10:30:50.27Z</time></trkpt><trkpt lat="43.7593283" lon="6.2875683"><ele>1037.0</ele><time>2026-05-02T10:30:51.27Z</time></trkpt><trkpt lat="43.7592833" lon="6.287415"><ele>1037.0</ele><time>2026-05-02T10:30:52.27Z</time></trkpt><trkpt lat="43.7592417" lon="6.2872717"><ele>1041.8</ele><time>2026-05-02T10:30:53.271Z</time></trkpt><trkpt lat="43.7592167" lon="6.2871483"><ele>1046.6</ele><time>2026-05-02T10:30:54.27Z</time></trkpt><trkpt lat="43.7592233" lon="6.287035"><ele>1051.3999999999999</ele><time>2026-05-02T10:30:55.27Z</time></trkpt><trkpt lat="43.7592633" lon="6.2869333"><ele>1056.2</ele><time>2026-05-02T10:30:56.27Z</time></trkpt><trkpt lat="43.7593217" lon="6.286855"><ele>1061.0</ele><time>2026-05-02T10:30:57.27Z</time></trkpt><trkpt lat="43.7594233" lon="6.2867817"><ele>1061.0</ele><time>2026-05-02T10:30:58.271Z</time></trkpt><trkpt lat="43.759535" lon="6.2867167"><ele>1061.0</ele><time>2026-05-02T10:30:59.27Z</time></trkpt><trkpt lat="43.7596417" lon="6.2866217"><ele>1061.0</ele><time>2026-05-02T10:31:00.27Z</time></trkpt><trkpt lat="43.7597367" lon="6.2865117"><ele>1061.0</ele><time>2026-05-02T10:31:01.271Z</time></trkpt><trkpt lat="43.7598183" lon="6.286395"><ele>1067.5</ele><time>2026-05-02T10:31:02.27Z</time></trkpt><trkpt lat="43.7599033" lon="6.2862617"><ele>1074.0</ele><time>2026-05-02T10:31:03.27Z</time></trkpt><trkpt lat="43.75998" lon="6.28613"><ele>1080.5</ele><time>2026-05-02T10:31:04.27Z</time></trkpt><trkpt lat="43.760045" lon="6.2859867"><ele>1087.0</ele><time>2026-05-02T10:31:05.27Z</time></trkpt><trkpt lat="43.7600917" lon="6.28584"><ele>1087.0</ele><time>2026-05-02T10:31:06.27Z</time></trkpt><trkpt lat="43.7601267" lon="6.285685"><ele>1087.0</ele><time>2026-05-02T10:31:07.27Z</time></trkpt><trkpt lat="43.7601667" lon="6.2855567"><ele>1087.0</ele><time>2026-05-02T10:31:08.27Z</time></trkpt><trkpt lat="43.7602317" lon="6.2854483"><ele>1087.0</ele><time>2026-05-02T10:31:09.27Z</time></trkpt><trkpt lat="43.7603267" lon="6.2853783"><ele>1087.0</ele><time>2026-05-02T10:31:10.27Z</time></trkpt><trkpt lat="43.76044" lon="6.2853217"><ele>1088.0</ele><time>2026-05-02T10:31:11.27Z</time></trkpt><trkpt lat="43.7605733" lon="6.2852567"><ele>1089.0</ele><time>2026-05-02T10:31:12.27Z</time></trkpt><trkpt lat="43.7607033" lon="6.2851817"><ele>1090.0</ele><time>2026-05-02T10:31:13.27Z</time></trkpt><trkpt lat="43.7608167" lon="6.28507"><ele>1091.0</ele><time>2026-05-02T10:31:14.27Z</time></trkpt><trkpt lat="43.76093" lon="6.2849717"><ele>1085.5</ele><time>2026-05-02T10:31:15.27Z</time></trkpt><trkpt lat="43.761035" lon="6.2848433"><ele>1080.0</ele><time>2026-05-02T10:31:16.27Z</time></trkpt><trkpt lat="43.7611183" lon="6.284715"><ele>1074.5</ele><time>2026-05-02T10:31:17.27Z</time></trkpt><trkpt lat="43.7611917" lon="6.2845883"><ele>1069.0</ele><time>2026-05-02T10:31:18.27Z</time></trkpt><trkpt lat="43.7612267" lon="6.284465"><ele>1069.0</ele><time>2026-05-02T10:31:19.27Z</time></trkpt><trkpt lat="43.7612367" lon="6.284335"><ele>1069.0</ele><time>2026-05-02T10:31:20.27Z</time></trkpt><trkpt lat="43.7612367" lon="6.2841967"><ele>1069.0</ele><time>2026-05-02T10:31:21.27Z</time></trkpt><trkpt lat="43.761225" lon="6.284055"><ele>1069.0</ele><time>2026-05-02T10:31:22.27Z</time></trkpt><trkpt lat="43.761215" lon="6.2839133"><ele>1069.0</ele><time>2026-05-02T10:31:23.27Z</time></trkpt><trkpt lat="43.761205" lon="6.28378"><ele>1074.0</ele><time>2026-05-02T10:31:24.27Z</time></trkpt><trkpt lat="43.7611983" lon="6.283645"><ele>1079.0</ele><time>2026-05-02T10:31:25.27Z</time></trkpt><trkpt lat="43.76119" lon="6.2835167"><ele>1084.0</ele><time>2026-05-02T10:31:26.27Z</time></trkpt><trkpt lat="43.7611917" lon="6.2833983"><ele>1089.0</ele><time>2026-05-02T10:31:27.271Z</time></trkpt><trkpt lat="43.7612133" lon="6.2832983"><ele>1094.0</ele><time>2026-05-02T10:31:28.27Z</time></trkpt><trkpt lat="43.76131" lon="6.2831833"><ele>1094.0</ele><time>2026-05-02T10:31:30.27Z</time></trkpt><trkpt lat="43.7614" lon="6.2831867"><ele>1094.0</ele><time>2026-05-02T10:31:31.27Z</time></trkpt><trkpt lat="43.7615067" lon="6.2831983"><ele>1094.0</ele><time>2026-05-02T10:31:32.27Z</time></trkpt><trkpt lat="43.7616167" lon="6.2831817"><ele>1094.0</ele><time>2026-05-02T10:31:33.271Z</time></trkpt><trkpt lat="43.76172" lon="6.28315"><ele>1094.0</ele><time>2026-05-02T10:31:34.27Z</time></trkpt><trkpt lat="43.76182" lon="6.2831033"><ele>1096.0</ele><time>2026-05-02T10:31:35.27Z</time></trkpt><trkpt lat="43.761915" lon="6.2830583"><ele>1098.0</ele><time>2026-05-02T10:31:36.27Z</time></trkpt><trkpt lat="43.762005" lon="6.28301"><ele>1100.0</ele><time>2026-05-02T10:31:37.27Z</time></trkpt><trkpt lat="43.76209" lon="6.2829233"><ele>1102.0</ele><time>2026-05-02T10:31:38.27Z</time></trkpt><trkpt lat="43.7621517" lon="6.2828167"><ele>1104.0</ele><time>2026-05-02T10:31:39.27Z</time></trkpt><trkpt lat="43.76223" lon="6.28271"><ele>1104.0</ele><time>2026-05-02T10:31:40.271Z</time></trkpt><trkpt lat="43.7623317" lon="6.2826133"><ele>1104.0</ele><time>2026-05-02T10:31:41.27Z</time></trkpt><trkpt lat="43.7624433" lon="6.2825133"><ele>1104.0</ele><time>2026-05-02T10:31:42.27Z</time></trkpt><trkpt lat="43.7625517" lon="6.2824133"><ele>1104.0</ele><time>2026-05-02T10:31:43.27Z</time></trkpt><trkpt lat="43.7626617" lon="6.2822983"><ele>1107.5</ele><time>2026-05-02T10:31:44.27Z</time></trkpt><trkpt lat="43.7627583" lon="6.2821817"><ele>1111.0</ele><time>2026-05-02T10:31:45.27Z</time></trkpt><trkpt lat="43.7628467" lon="6.2820733"><ele>1114.5</ele><time>2026-05-02T10:31:46.27Z</time></trkpt><trkpt lat="43.76293" lon="6.28197"><ele>1118.0</ele><time>2026-05-02T10:31:47.27Z</time></trkpt><trkpt lat="43.76302" lon="6.2818717"><ele>1118.0</ele><time>2026-05-02T10:31:48.27Z</time></trkpt><trkpt lat="43.763115" lon="6.281805"><ele>1118.0</ele><time>2026-05-02T10:31:49.27Z</time></trkpt><trkpt lat="43.7632067" lon="6.2817833"><ele>1118.0</ele><time>2026-05-02T10:31:50.27Z</time></trkpt><trkpt lat="43.7633" lon="6.2818033"><ele>1118.0</ele><time>2026-05-02T10:31:51.271Z</time></trkpt><trkpt lat="43.7633983" lon="6.2818117"><ele>1118.0</ele><time>2026-05-02T10:31:52.27Z</time></trkpt><trkpt lat="43.7635017" lon="6.2817717"><ele>1115.75</ele><time>2026-05-02T10:31:53.271Z</time></trkpt><trkpt lat="43.7636117" lon="6.281705"><ele>1113.5</ele><time>2026-05-02T10:31:54.27Z</time></trkpt><trkpt lat="43.7637217" lon="6.2816017"><ele>1111.25</ele><time>2026-05-02T10:31:55.27Z</time></trkpt><trkpt lat="43.7638183" lon="6.2814767"><ele>1109.0</ele><time>2026-05-02T10:31:56.27Z</time></trkpt><trkpt lat="43.7639217" lon="6.281335"><ele>1115.6666666666667</ele><time>2026-05-02T10:31:57.27Z</time></trkpt><trkpt lat="43.7640267" lon="6.2811933"><ele>1122.3333333333333</ele><time>2026-05-02T10:31:58.271Z</time></trkpt><trkpt lat="43.76413" lon="6.2810433"><ele>1129.0</ele><time>2026-05-02T10:31:59.27Z</time></trkpt><trkpt lat="43.7642367" lon="6.280885"><ele>1129.0</ele><time>2026-05-02T10:32:00.27Z</time></trkpt><trkpt lat="43.7643433" lon="6.28072"><ele>1129.0</ele><time>2026-05-02T10:32:01.27Z</time></trkpt><trkpt lat="43.7644483" lon="6.2805617"><ele>1129.0</ele><time>2026-05-02T10:32:02.27Z</time></trkpt><trkpt lat="43.7645467" lon="6.2804"><ele>1129.0</ele><time>2026-05-02T10:32:03.27Z</time></trkpt><trkpt lat="43.7646467" lon="6.2802383"><ele>1129.0</ele><time>2026-05-02T10:32:04.27Z</time></trkpt><trkpt lat="43.764745" lon="6.2800833"><ele>1129.0</ele><time>2026-05-02T10:32:05.27Z</time></trkpt><trkpt lat="43.764845" lon="6.279925"><ele>1124.75</ele><time>2026-05-02T10:32:06.27Z</time></trkpt><trkpt lat="43.764945" lon="6.2797617"><ele>1120.5</ele><time>2026-05-02T10:32:07.27Z</time></trkpt><trkpt lat="43.76504" lon="6.2796083"><ele>1116.25</ele><time>2026-05-02T10:32:08.27Z</time></trkpt><trkpt lat="43.76513" lon="6.2794583"><ele>1112.0</ele><time>2026-05-02T10:32:09.271Z</time></trkpt><trkpt lat="43.7652217" lon="6.2792967"><ele>1112.0</ele><time>2026-05-02T10:32:10.27Z</time></trkpt><trkpt lat="43.7653067" lon="6.2791267"><ele>1112.0</ele><time>2026-05-02T10:32:11.27Z</time></trkpt><trkpt lat="43.76537" lon="6.2789633"><ele>1112.0</ele><time>2026-05-02T10:32:12.27Z</time></trkpt><trkpt lat="43.765425" lon="6.2788033"><ele>1112.0</ele><time>2026-05-02T10:32:13.27Z</time></trkpt><trkpt lat="43.7654733" lon="6.278655"><ele>1116.2</ele><time>2026-05-02T10:32:14.27Z</time></trkpt><trkpt lat="43.7655" lon="6.2785017"><ele>1120.4</ele><time>2026-05-02T10:32:15.27Z</time></trkpt><trkpt lat="43.765505" lon="6.2783467"><ele>1124.6</ele><time>2026-05-02T10:32:16.27Z</time></trkpt><trkpt lat="43.7655133" lon="6.2781933"><ele>1128.8</ele><time>2026-05-02T10:32:17.27Z</time></trkpt><trkpt lat="43.7655333" lon="6.27806"><ele>1133.0</ele><time>2026-05-02T10:32:18.27Z</time></trkpt><trkpt lat="43.7655683" lon="6.277945"><ele>1134.2</ele><time>2026-05-02T10:32:19.27Z</time></trkpt><trkpt lat="43.765635" lon="6.2778683"><ele>1135.4</ele><time>2026-05-02T10:32:20.27Z</time></trkpt><trkpt lat="43.765725" lon="6.2778017"><ele>1136.6000000000001</ele><time>2026-05-02T10:32:21.27Z</time></trkpt><trkpt lat="43.7658217" lon="6.277765"><ele>1137.8</ele><time>2026-05-02T10:32:22.27Z</time></trkpt><trkpt lat="43.765935" lon="6.2777117"><ele>1139.0</ele><time>2026-05-02T10:32:23.27Z</time></trkpt><trkpt lat="43.7660433" lon="6.277635"><ele>1139.0</ele><time>2026-05-02T10:32:24.27Z</time></trkpt><trkpt lat="43.7661483" lon="6.2775417"><ele>1139.0</ele><time>2026-05-02T10:32:25.27Z</time></trkpt><trkpt lat="43.766255" lon="6.2774483"><ele>1139.0</ele><time>2026-05-02T10:32:26.27Z</time></trkpt><trkpt lat="43.766355" lon="6.2773583"><ele>1139.0</ele><time>2026-05-02T10:32:27.27Z</time></trkpt><trkpt lat="43.7664517" lon="6.2772533"><ele>1146.25</ele><time>2026-05-02T10:32:28.27Z</time></trkpt><trkpt lat="43.7665467" lon="6.2771567"><ele>1153.5</ele><time>2026-05-02T10:32:29.27Z</time></trkpt><trkpt lat="43.76663" lon="6.2770517"><ele>1160.75</ele><time>2026-05-02T10:32:30.27Z</time></trkpt><trkpt lat="43.76671" lon="6.27693"><ele>1168.0</ele><time>2026-05-02T10:32:31.27Z</time></trkpt><trkpt lat="43.7667867" lon="6.276795"><ele>1168.0</ele><time>2026-05-02T10:32:32.271Z</time></trkpt><trkpt lat="43.7668433" lon="6.276645"><ele>1168.0</ele><time>2026-05-02T10:32:33.27Z</time></trkpt><trkpt lat="43.7668867" lon="6.2764817"><ele>1168.0</ele><time>2026-05-02T10:32:34.27Z</time></trkpt><trkpt lat="43.7669217" lon="6.2763067"><ele>1168.0</ele><time>2026-05-02T10:32:35.27Z</time></trkpt><trkpt lat="43.7669583" lon="6.2761283"><ele>1167.5</ele><time>2026-05-02T10:32:36.27Z</time></trkpt><trkpt lat="43.7669983" lon="6.2759517"><ele>1167.0</ele><time>2026-05-02T10:32:37.27Z</time></trkpt><trkpt lat="43.767045" lon="6.275785"><ele>1166.5</ele><time>2026-05-02T10:32:38.27Z</time></trkpt><trkpt lat="43.7670983" lon="6.2756217"><ele>1166.0</ele><time>2026-05-02T10:32:39.27Z</time></trkpt><trkpt lat="43.7671583" lon="6.27547"><ele>1166.0</ele><time>2026-05-02T10:32:40.27Z</time></trkpt><trkpt lat="43.7672267" lon="6.2753433"><ele>1166.0</ele><time>2026-05-02T10:32:41.27Z</time></trkpt><trkpt lat="43.7673" lon="6.275225"><ele>1166.0</ele><time>2026-05-02T10:32:42.27Z</time></trkpt><trkpt lat="43.76737" lon="6.2751083"><ele>1166.0</ele><time>2026-05-02T10:32:43.27Z</time></trkpt><trkpt lat="43.7674383" lon="6.2750017"><ele>1166.0</ele><time>2026-05-02T10:32:44.271Z</time></trkpt><trkpt lat="43.7674967" lon="6.27491"><ele>1166.0</ele><time>2026-05-02T10:32:45.27Z</time></trkpt><trkpt lat="43.76755" lon="6.27483"><ele>1166.0</ele><time>2026-05-02T10:32:46.27Z</time></trkpt><trkpt lat="43.76759" lon="6.2747617"><ele>1166.0</ele><time>2026-05-02T10:32:47.271Z</time></trkpt><trkpt lat="43.7676367" lon="6.2746533"><ele>1166.0</ele><time>2026-05-02T10:32:49.27Z</time></trkpt><trkpt lat="43.7676567" lon="6.2745683"><ele>1166.0</ele><time>2026-05-02T10:32:51.27Z</time></trkpt><trkpt lat="43.7676933" lon="6.2744733"><ele>1166.0</ele><time>2026-05-02T10:32:54.27Z</time></trkpt><trkpt lat="43.7676483" lon="6.2743783"><ele>1163.8333333333335</ele><time>2026-05-02T10:37:04.27Z</time></trkpt><trkpt lat="43.767605" lon="6.27429"><ele>1161.6666666666667</ele><time>2026-05-02T10:37:07.27Z</time></trkpt><trkpt lat="43.76754" lon="6.2742483"><ele>1159.5</ele><time>2026-05-02T10:37:12.27Z</time></trkpt><trkpt lat="43.767455" lon="6.27423"><ele>1157.3333333333333</ele><time>2026-05-02T10:37:18.27Z</time></trkpt><trkpt lat="43.7673883" lon="6.2742167"><ele>1155.1666666666665</ele><time>2026-05-02T10:37:19.27Z</time></trkpt><trkpt lat="43.7673033" lon="6.2742033"><ele>1153.0</ele><time>2026-05-02T10:37:20.27Z</time></trkpt><trkpt lat="43.7671983" lon="6.27419"><ele>1153.0</ele><time>2026-05-02T10:37:21.27Z</time></trkpt><trkpt lat="43.7670783" lon="6.27417"><ele>1153.0</ele><time>2026-05-02T10:37:22.27Z</time></trkpt><trkpt lat="43.7669433" lon="6.2741583"><ele>1153.0</ele><time>2026-05-02T10:37:23.27Z</time></trkpt><trkpt lat="43.7668167" lon="6.274145"><ele>1153.0</ele><time>2026-05-02T10:37:24.27Z</time></trkpt><trkpt lat="43.7666833" lon="6.2741283"><ele>1150.75</ele><time>2026-05-02T10:37:25.269Z</time></trkpt><trkpt lat="43.7665567" lon="6.2740933"><ele>1148.5</ele><time>2026-05-02T10:37:26.269Z</time></trkpt><trkpt lat="43.766435" lon="6.274045"><ele>1146.25</ele><time>2026-05-02T10:37:27.269Z</time></trkpt><trkpt lat="43.7663217" lon="6.2739933"><ele>1144.0</ele><time>2026-05-02T10:37:28.269Z</time></trkpt><trkpt lat="43.76622" lon="6.273925"><ele>1144.0</ele><time>2026-05-02T10:37:29.27Z</time></trkpt><trkpt lat="43.7661267" lon="6.27385"><ele>1144.0</ele><time>2026-05-02T10:37:30.269Z</time></trkpt><trkpt lat="43.76604" lon="6.273765"><ele>1144.0</ele><time>2026-05-02T10:37:31.269Z</time></trkpt><trkpt lat="43.7659583" lon="6.2736783"><ele>1144.0</ele><time>2026-05-02T10:37:32.27Z</time></trkpt><trkpt lat="43.7658767" lon="6.2735783"><ele>1144.0</ele><time>2026-05-02T10:37:33.269Z</time></trkpt><trkpt lat="43.765805" lon="6.2734683"><ele>1152.25</ele><time>2026-05-02T10:37:34.27Z</time></trkpt><trkpt lat="43.76574" lon="6.27334"><ele>1160.5</ele><time>2026-05-02T10:37:35.269Z</time></trkpt><trkpt lat="43.7656717" lon="6.273205"><ele>1168.75</ele><time>2026-05-02T10:37:36.269Z</time></trkpt><trkpt lat="43.765605" lon="6.273055"><ele>1177.0</ele><time>2026-05-02T10:37:37.27Z</time></trkpt><trkpt lat="43.7655433" lon="6.2728933"><ele>1177.0</ele><time>2026-05-02T10:37:38.269Z</time></trkpt><trkpt lat="43.7654867" lon="6.2727267"><ele>1177.0</ele><time>2026-05-02T10:37:39.27Z</time></trkpt><trkpt lat="43.765435" lon="6.27256"><ele>1177.0</ele><time>2026-05-02T10:37:40.269Z</time></trkpt><trkpt lat="43.7653883" lon="6.272385"><ele>1177.0</ele><time>2026-05-02T10:37:41.269Z</time></trkpt><trkpt lat="43.765345" lon="6.2722267"><ele>1175.4</ele><time>2026-05-02T10:37:42.269Z</time></trkpt><trkpt lat="43.7653217" lon="6.2720633"><ele>1173.8000000000002</ele><time>2026-05-02T10:37:43.269Z</time></trkpt><trkpt lat="43.765305" lon="6.2718983"><ele>1172.2</ele><time>2026-05-02T10:37:44.269Z</time></trkpt><trkpt lat="43.7653017" lon="6.2717517"><ele>1170.6000000000001</ele><time>2026-05-02T10:37:45.269Z</time></trkpt><trkpt lat="43.7653233" lon="6.2716133"><ele>1169.0</ele><time>2026-05-02T10:37:46.269Z</time></trkpt><trkpt lat="43.7653517" lon="6.2714917"><ele>1172.0</ele><time>2026-05-02T10:37:47.269Z</time></trkpt><trkpt lat="43.7653617" lon="6.2713717"><ele>1175.0</ele><time>2026-05-02T10:37:48.269Z</time></trkpt><trkpt lat="43.76535" lon="6.27125"><ele>1178.0</ele><time>2026-05-02T10:37:49.269Z</time></trkpt><trkpt lat="43.76531" lon="6.2711483"><ele>1181.0</ele><time>2026-05-02T10:37:50.269Z</time></trkpt><trkpt lat="43.7652317" lon="6.27106"><ele>1184.0</ele><time>2026-05-02T10:37:51.269Z</time></trkpt><trkpt lat="43.7651267" lon="6.270985"><ele>1184.0</ele><time>2026-05-02T10:37:52.269Z</time></trkpt><trkpt lat="43.7650083" lon="6.2709167"><ele>1184.0</ele><time>2026-05-02T10:37:53.269Z</time></trkpt><trkpt lat="43.7648983" lon="6.27085"><ele>1184.0</ele><time>2026-05-02T10:37:54.27Z</time></trkpt><trkpt lat="43.7647933" lon="6.2707883"><ele>1184.0</ele><time>2026-05-02T10:37:55.269Z</time></trkpt><trkpt lat="43.7646883" lon="6.2707317"><ele>1184.0</ele><time>2026-05-02T10:37:56.269Z</time></trkpt><trkpt lat="43.7645883" lon="6.2706833"><ele>1184.0</ele><time>2026-05-02T10:37:57.269Z</time></trkpt><trkpt lat="43.7644867" lon="6.2706517"><ele>1184.0</ele><time>2026-05-02T10:37:58.269Z</time></trkpt><trkpt lat="43.7643883" lon="6.2706183"><ele>1184.0</ele><time>2026-05-02T10:37:59.269Z</time></trkpt><trkpt lat="43.7642933" lon="6.2705617"><ele>1184.0</ele><time>2026-05-02T10:38:00.27Z</time></trkpt><trkpt lat="43.7642167" lon="6.2704717"><ele>1183.2</ele><time>2026-05-02T10:38:01.269Z</time></trkpt><trkpt lat="43.7641517" lon="6.2703567"><ele>1182.4</ele><time>2026-05-02T10:38:02.269Z</time></trkpt><trkpt lat="43.7641167" lon="6.2702117"><ele>1181.6</ele><time>2026-05-02T10:38:03.269Z</time></trkpt><trkpt lat="43.76409" lon="6.270055"><ele>1180.8</ele><time>2026-05-02T10:38:04.269Z</time></trkpt><trkpt lat="43.764065" lon="6.2698967"><ele>1180.0</ele><time>2026-05-02T10:38:05.269Z</time></trkpt><trkpt lat="43.7640417" lon="6.2697433"><ele>1180.0</ele><time>2026-05-02T10:38:06.269Z</time></trkpt><trkpt lat="43.76405" lon="6.2695833"><ele>1180.0</ele><time>2026-05-02T10:38:07.269Z</time></trkpt><trkpt lat="43.7640733" lon="6.2694317"><ele>1180.0</ele><time>2026-05-02T10:38:08.27Z</time></trkpt><trkpt lat="43.7641183" lon="6.269295"><ele>1180.0</ele><time>2026-05-02T10:38:09.269Z</time></trkpt><trkpt lat="43.7641617" lon="6.2691717"><ele>1180.0</ele><time>2026-05-02T10:38:10.269Z</time></trkpt><trkpt lat="43.764185" lon="6.2690667"><ele>1180.0</ele><time>2026-05-02T10:38:11.269Z</time></trkpt><trkpt lat="43.7641817" lon="6.2689733"><ele>1180.0</ele><time>2026-05-02T10:38:12.269Z</time></trkpt><trkpt lat="43.7641483" lon="6.2688967"><ele>1180.0</ele><time>2026-05-02T10:38:13.269Z</time></trkpt><trkpt lat="43.764075" lon="6.2688217"><ele>1180.0</ele><time>2026-05-02T10:38:14.269Z</time></trkpt><trkpt lat="43.763985" lon="6.2687533"><ele>1180.0</ele><time>2026-05-02T10:38:15.27Z</time></trkpt><trkpt lat="43.7639" lon="6.2686917"><ele>1180.0</ele><time>2026-05-02T10:38:16.27Z</time></trkpt><trkpt lat="43.763845" lon="6.2686283"><ele>1179.5</ele><time>2026-05-02T10:38:17.27Z</time></trkpt><trkpt lat="43.7638067" lon="6.268555"><ele>1179.0</ele><time>2026-05-02T10:38:18.269Z</time></trkpt><trkpt lat="43.7638017" lon="6.2684167"><ele>1178.5</ele><time>2026-05-02T10:38:20.269Z</time></trkpt><trkpt lat="43.763845" lon="6.2683517"><ele>1178.0</ele><time>2026-05-02T10:38:21.269Z</time></trkpt><trkpt lat="43.76391" lon="6.2682733"><ele>1177.5</ele><time>2026-05-02T10:38:22.269Z</time></trkpt><trkpt lat="43.7639917" lon="6.2681817"><ele>1177.0</ele><time>2026-05-02T10:38:23.269Z</time></trkpt><trkpt lat="43.7640633" lon="6.268055"><ele>1182.75</ele><time>2026-05-02T10:38:24.269Z</time></trkpt><trkpt lat="43.7641317" lon="6.267905"><ele>1188.5</ele><time>2026-05-02T10:38:25.269Z</time></trkpt><trkpt lat="43.7642067" lon="6.2677683"><ele>1194.25</ele><time>2026-05-02T10:38:26.269Z</time></trkpt><trkpt lat="43.7642867" lon="6.2676667"><ele>1200.0</ele><time>2026-05-02T10:38:27.269Z</time></trkpt><trkpt lat="43.7643883" lon="6.2675983"><ele>1189.4</ele><time>2026-05-02T10:38:28.269Z</time></trkpt><trkpt lat="43.7644867" lon="6.26752"><ele>1178.8</ele><time>2026-05-02T10:38:29.269Z</time></trkpt><trkpt lat="43.76457" lon="6.26741"><ele>1168.2</ele><time>2026-05-02T10:38:30.269Z</time></trkpt><trkpt lat="43.7646333" lon="6.2672917"><ele>1157.6</ele><time>2026-05-02T10:38:31.27Z</time></trkpt><trkpt lat="43.7646667" lon="6.267145"><ele>1147.0</ele><time>2026-05-02T10:38:32.269Z</time></trkpt><trkpt lat="43.7646817" lon="6.2669817"><ele>1147.0</ele><time>2026-05-02T10:38:33.269Z</time></trkpt><trkpt lat="43.76468" lon="6.2668183"><ele>1147.0</ele><time>2026-05-02T10:38:34.269Z</time></trkpt><trkpt lat="43.76469" lon="6.2666667"><ele>1147.0</ele><time>2026-05-02T10:38:35.269Z</time></trkpt><trkpt lat="43.7647133" lon="6.26651"><ele>1147.0</ele><time>2026-05-02T10:38:36.269Z</time></trkpt><trkpt lat="43.764755" lon="6.2663567"><ele>1153.75</ele><time>2026-05-02T10:38:37.269Z</time></trkpt><trkpt lat="43.7648217" lon="6.2662167"><ele>1160.5</ele><time>2026-05-02T10:38:38.269Z</time></trkpt><trkpt lat="43.7648983" lon="6.2660883"><ele>1167.25</ele><time>2026-05-02T10:38:39.269Z</time></trkpt><trkpt lat="43.76498" lon="6.26596"><ele>1174.0</ele><time>2026-05-02T10:38:40.269Z</time></trkpt><trkpt lat="43.7650483" lon="6.2658233"><ele>1174.0</ele><time>2026-05-02T10:38:41.27Z</time></trkpt><trkpt lat="43.7651183" lon="6.2656967"><ele>1174.0</ele><time>2026-05-02T10:38:42.269Z</time></trkpt><trkpt lat="43.76521" lon="6.26558"><ele>1174.0</ele><time>2026-05-02T10:38:43.269Z</time></trkpt><trkpt lat="43.76531" lon="6.2654767"><ele>1174.0</ele><time>2026-05-02T10:38:44.269Z</time></trkpt><trkpt lat="43.7654233" lon="6.2653767"><ele>1172.5</ele><time>2026-05-02T10:38:45.27Z</time></trkpt><trkpt lat="43.765535" lon="6.2652867"><ele>1171.0</ele><time>2026-05-02T10:38:46.27Z</time></trkpt><trkpt lat="43.765665" lon="6.2651967"><ele>1169.5</ele><time>2026-05-02T10:38:47.269Z</time></trkpt><trkpt lat="43.76579" lon="6.26511"><ele>1168.0</ele><time>2026-05-02T10:38:48.269Z</time></trkpt><trkpt lat="43.7659017" lon="6.2650383"><ele>1168.0</ele><time>2026-05-02T10:38:49.269Z</time></trkpt><trkpt lat="43.76601" lon="6.264975"><ele>1168.0</ele><time>2026-05-02T10:38:50.269Z</time></trkpt><trkpt lat="43.7661317" lon="6.2649617"><ele>1168.0</ele><time>2026-05-02T10:38:51.269Z</time></trkpt><trkpt lat="43.7662533" lon="6.2649417"><ele>1168.0</ele><time>2026-05-02T10:38:52.269Z</time></trkpt><trkpt lat="43.766365" lon="6.264915"><ele>1166.2</ele><time>2026-05-02T10:38:53.269Z</time></trkpt><trkpt lat="43.7664717" lon="6.2648783"><ele>1164.4</ele><time>2026-05-02T10:38:54.269Z</time></trkpt><trkpt lat="43.7665783" lon="6.2648167"><ele>1162.6000000000001</ele><time>2026-05-02T10:38:55.269Z</time></trkpt><trkpt lat="43.7666617" lon="6.2647533"><ele>1160.8</ele><time>2026-05-02T10:38:56.269Z</time></trkpt><trkpt lat="43.7667283" lon="6.264655"><ele>1159.0</ele><time>2026-05-02T10:38:57.269Z</time></trkpt><trkpt lat="43.7667933" lon="6.2645483"><ele>1143.4</ele><time>2026-05-02T10:38:58.27Z</time></trkpt><trkpt lat="43.7668683" lon="6.26443"><ele>1127.8000000000002</ele><time>2026-05-02T10:38:59.269Z</time></trkpt><trkpt lat="43.7669467" lon="6.2643133"><ele>1112.1999999999998</ele><time>2026-05-02T10:39:00.269Z</time></trkpt><trkpt lat="43.767005" lon="6.2642017"><ele>1096.6</ele><time>2026-05-02T10:39:01.269Z</time></trkpt><trkpt lat="43.7670617" lon="6.264085"><ele>1081.0</ele><time>2026-05-02T10:39:02.269Z</time></trkpt><trkpt lat="43.76709" lon="6.263975"><ele>1084.0</ele><time>2026-05-02T10:39:03.269Z</time></trkpt><trkpt lat="43.7670883" lon="6.26385"><ele>1087.0</ele><time>2026-05-02T10:39:04.269Z</time></trkpt><trkpt lat="43.76705" lon="6.2637017"><ele>1090.0</ele><time>2026-05-02T10:39:05.269Z</time></trkpt><trkpt lat="43.767015" lon="6.263555"><ele>1093.0</ele><time>2026-05-02T10:39:06.269Z</time></trkpt><trkpt lat="43.7669783" lon="6.26342"><ele>1096.0</ele><time>2026-05-02T10:39:07.269Z</time></trkpt><trkpt lat="43.76698" lon="6.26328"><ele>1096.0</ele><time>2026-05-02T10:39:08.269Z</time></trkpt><trkpt lat="43.7670267" lon="6.2631517"><ele>1096.0</ele><time>2026-05-02T10:39:09.269Z</time></trkpt><trkpt lat="43.767095" lon="6.263025"><ele>1096.0</ele><time>2026-05-02T10:39:10.269Z</time></trkpt><trkpt lat="43.7671633" lon="6.2629067"><ele>1096.0</ele><time>2026-05-02T10:39:11.269Z</time></trkpt><trkpt lat="43.7672217" lon="6.2627817"><ele>1096.0</ele><time>2026-05-02T10:39:12.27Z</time></trkpt><trkpt lat="43.7672367" lon="6.2626183"><ele>1099.75</ele><time>2026-05-02T10:39:13.269Z</time></trkpt><trkpt lat="43.7672633" lon="6.2624483"><ele>1103.5</ele><time>2026-05-02T10:39:14.269Z</time></trkpt><trkpt lat="43.7672917" lon="6.2622817"><ele>1107.25</ele><time>2026-05-02T10:39:15.27Z</time></trkpt><trkpt lat="43.767335" lon="6.262125"><ele>1111.0</ele><time>2026-05-02T10:39:16.269Z</time></trkpt><trkpt lat="43.7673867" lon="6.26197"><ele>1110.0</ele><time>2026-05-02T10:39:17.269Z</time></trkpt><trkpt lat="43.7674583" lon="6.2618367"><ele>1109.0</ele><time>2026-05-02T10:39:18.269Z</time></trkpt><trkpt lat="43.7675517" lon="6.2617433"><ele>1108.0</ele><time>2026-05-02T10:39:19.269Z</time></trkpt><trkpt lat="43.7676617" lon="6.2616667"><ele>1107.0</ele><time>2026-05-02T10:39:20.269Z</time></trkpt><trkpt lat="43.76778" lon="6.2616083"><ele>1107.0</ele><time>2026-05-02T10:39:21.269Z</time></trkpt><trkpt lat="43.767915" lon="6.26155"><ele>1107.0</ele><time>2026-05-02T10:39:22.269Z</time></trkpt><trkpt lat="43.7680433" lon="6.261505"><ele>1107.0</ele><time>2026-05-02T10:39:23.269Z</time></trkpt><trkpt lat="43.768185" lon="6.2614817"><ele>1107.0</ele><time>2026-05-02T10:39:24.269Z</time></trkpt><trkpt lat="43.7683283" lon="6.26148"><ele>1107.0</ele><time>2026-05-02T10:39:25.269Z</time></trkpt><trkpt lat="43.768465" lon="6.26145"><ele>1107.0</ele><time>2026-05-02T10:39:26.269Z</time></trkpt><trkpt lat="43.768595" lon="6.261425"><ele>1107.0</ele><time>2026-05-02T10:39:27.269Z</time></trkpt><trkpt lat="43.76873" lon="6.2613833"><ele>1107.0</ele><time>2026-05-02T10:39:28.269Z</time></trkpt><trkpt lat="43.7688567" lon="6.261315"><ele>1110.0</ele><time>2026-05-02T10:39:29.269Z</time></trkpt><trkpt lat="43.7689733" lon="6.261245"><ele>1113.0</ele><time>2026-05-02T10:39:30.269Z</time></trkpt><trkpt lat="43.7690883" lon="6.261165"><ele>1116.0</ele><time>2026-05-02T10:39:31.269Z</time></trkpt><trkpt lat="43.7692067" lon="6.2610983"><ele>1119.0</ele><time>2026-05-02T10:39:32.269Z</time></trkpt><trkpt lat="43.769325" lon="6.2610633"><ele>1114.0</ele><time>2026-05-02T10:39:33.27Z</time></trkpt><trkpt lat="43.769445" lon="6.2610267"><ele>1109.0</ele><time>2026-05-02T10:39:34.27Z</time></trkpt><trkpt lat="43.7695383" lon="6.26096"><ele>1104.0</ele><time>2026-05-02T10:39:35.269Z</time></trkpt><trkpt lat="43.769635" lon="6.26087"><ele>1099.0</ele><time>2026-05-02T10:39:36.27Z</time></trkpt><trkpt lat="43.7697367" lon="6.26079"><ele>1099.0</ele><time>2026-05-02T10:39:37.269Z</time></trkpt><trkpt lat="43.7698433" lon="6.260745"><ele>1099.0</ele><time>2026-05-02T10:39:38.269Z</time></trkpt><trkpt lat="43.7699583" lon="6.26074"><ele>1099.0</ele><time>2026-05-02T10:39:39.269Z</time></trkpt><trkpt lat="43.7700633" lon="6.26077"><ele>1099.0</ele><time>2026-05-02T10:39:40.27Z</time></trkpt><trkpt lat="43.770165" lon="6.2608367"><ele>1099.0</ele><time>2026-05-02T10:39:41.269Z</time></trkpt><trkpt lat="43.7702583" lon="6.26088"><ele>1098.8</ele><time>2026-05-02T10:39:42.269Z</time></trkpt><trkpt lat="43.77035" lon="6.26088"><ele>1098.6000000000001</ele><time>2026-05-02T10:39:43.269Z</time></trkpt><trkpt lat="43.7704117" lon="6.2608367"><ele>1098.4</ele><time>2026-05-02T10:39:44.269Z</time></trkpt><trkpt lat="43.7704933" lon="6.260735"><ele>1098.2</ele><time>2026-05-02T10:39:45.269Z</time></trkpt><trkpt lat="43.77059" lon="6.2606233"><ele>1098.0</ele><time>2026-05-02T10:39:46.269Z</time></trkpt><trkpt lat="43.7706967" lon="6.2605267"><ele>1098.0</ele><time>2026-05-02T10:39:47.269Z</time></trkpt><trkpt lat="43.7707967" lon="6.26047"><ele>1098.0</ele><time>2026-05-02T10:39:48.269Z</time></trkpt><trkpt lat="43.7708917" lon="6.2604167"><ele>1098.0</ele><time>2026-05-02T10:39:49.269Z</time></trkpt><trkpt lat="43.7709667" lon="6.2603433"><ele>1098.0</ele><time>2026-05-02T10:39:50.269Z</time></trkpt><trkpt lat="43.7710217" lon="6.2602283"><ele>1098.0</ele><time>2026-05-02T10:39:51.269Z</time></trkpt><trkpt lat="43.7710833" lon="6.2600883"><ele>1092.75</ele><time>2026-05-02T10:39:52.269Z</time></trkpt><trkpt lat="43.7711567" lon="6.2599633"><ele>1087.5</ele><time>2026-05-02T10:39:53.269Z</time></trkpt><trkpt lat="43.7712367" lon="6.2598467"><ele>1082.25</ele><time>2026-05-02T10:39:54.269Z</time></trkpt><trkpt lat="43.7713167" lon="6.259715"><ele>1077.0</ele><time>2026-05-02T10:39:55.269Z</time></trkpt><trkpt lat="43.7713917" lon="6.2595883"><ele>1077.0</ele><time>2026-05-02T10:39:56.269Z</time></trkpt><trkpt lat="43.7714833" lon="6.2594917"><ele>1077.0</ele><time>2026-05-02T10:39:57.269Z</time></trkpt><trkpt lat="43.7715717" lon="6.25942"><ele>1077.0</ele><time>2026-05-02T10:39:58.269Z</time></trkpt><trkpt lat="43.771655" lon="6.2593583"><ele>1077.0</ele><time>2026-05-02T10:39:59.269Z</time></trkpt><trkpt lat="43.7717117" lon="6.259265"><ele>1077.0</ele><time>2026-05-02T10:40:00.269Z</time></trkpt><trkpt lat="43.77175" lon="6.259145"><ele>1077.0</ele><time>2026-05-02T10:40:01.269Z</time></trkpt><trkpt lat="43.7717667" lon="6.2590117"><ele>1077.0</ele><time>2026-05-02T10:40:02.269Z</time></trkpt><trkpt lat="43.7717667" lon="6.2588517"><ele>1077.0</ele><time>2026-05-02T10:40:03.269Z</time></trkpt><trkpt lat="43.7717433" lon="6.2586883"><ele>1077.0</ele><time>2026-05-02T10:40:04.269Z</time></trkpt><trkpt lat="43.7716817" lon="6.2585433"><ele>1075.5</ele><time>2026-05-02T10:40:05.269Z</time></trkpt><trkpt lat="43.7716167" lon="6.2584067"><ele>1074.0</ele><time>2026-05-02T10:40:06.269Z</time></trkpt><trkpt lat="43.77155" lon="6.258285"><ele>1072.5</ele><time>2026-05-02T10:40:07.269Z</time></trkpt><trkpt lat="43.7714833" lon="6.258155"><ele>1071.0</ele><time>2026-05-02T10:40:08.27Z</time></trkpt><trkpt lat="43.771415" lon="6.2580233"><ele>1071.0</ele><time>2026-05-02T10:40:09.269Z</time></trkpt><trkpt lat="43.77132" lon="6.2579133"><ele>1071.0</ele><time>2026-05-02T10:40:10.27Z</time></trkpt><trkpt lat="43.7712233" lon="6.25781"><ele>1071.0</ele><time>2026-05-02T10:40:11.269Z</time></trkpt><trkpt lat="43.7711117" lon="6.25771"><ele>1071.0</ele><time>2026-05-02T10:40:12.269Z</time></trkpt><trkpt lat="43.7710083" lon="6.2576117"><ele>1071.0</ele><time>2026-05-02T10:40:13.269Z</time></trkpt><trkpt lat="43.77092" lon="6.2574967"><ele>1071.0</ele><time>2026-05-02T10:40:14.269Z</time></trkpt><trkpt lat="43.77087" lon="6.25735"><ele>1071.0</ele><time>2026-05-02T10:40:15.269Z</time></trkpt><trkpt lat="43.7708283" lon="6.2571983"><ele>1071.0</ele><time>2026-05-02T10:40:16.269Z</time></trkpt><trkpt lat="43.7707917" lon="6.25705"><ele>1068.25</ele><time>2026-05-02T10:40:17.269Z</time></trkpt><trkpt lat="43.7707567" lon="6.2568867"><ele>1065.5</ele><time>2026-05-02T10:40:18.269Z</time></trkpt><trkpt lat="43.7707533" lon="6.256725"><ele>1062.75</ele><time>2026-05-02T10:40:19.269Z</time></trkpt><trkpt lat="43.7707767" lon="6.2565733"><ele>1060.0</ele><time>2026-05-02T10:40:20.269Z</time></trkpt><trkpt lat="43.7708017" lon="6.2564283"><ele>1060.0</ele><time>2026-05-02T10:40:21.269Z</time></trkpt><trkpt lat="43.770815" lon="6.256285"><ele>1060.0</ele><time>2026-05-02T10:40:22.269Z</time></trkpt><trkpt lat="43.7708233" lon="6.256155"><ele>1060.0</ele><time>2026-05-02T10:40:23.269Z</time></trkpt><trkpt lat="43.7708483" lon="6.2560483"><ele>1060.0</ele><time>2026-05-02T10:40:24.269Z</time></trkpt><trkpt lat="43.7708883" lon="6.2559683"><ele>1060.0</ele><time>2026-05-02T10:40:25.269Z</time></trkpt><trkpt lat="43.7709517" lon="6.25594"><ele>1060.0</ele><time>2026-05-02T10:40:26.27Z</time></trkpt><trkpt lat="43.7710217" lon="6.2559717"><ele>1057.6</ele><time>2026-05-02T10:40:27.269Z</time></trkpt><trkpt lat="43.771085" lon="6.2560567"><ele>1055.2</ele><time>2026-05-02T10:40:28.269Z</time></trkpt><trkpt lat="43.7711217" lon="6.2561867"><ele>1052.8</ele><time>2026-05-02T10:40:29.269Z</time></trkpt><trkpt lat="43.7711367" lon="6.2563467"><ele>1050.4</ele><time>2026-05-02T10:40:30.269Z</time></trkpt><trkpt lat="43.7711433" lon="6.2565267"><ele>1048.0</ele><time>2026-05-02T10:40:31.269Z</time></trkpt><trkpt lat="43.77114" lon="6.2566967"><ele>1046.4</ele><time>2026-05-02T10:40:32.269Z</time></trkpt><trkpt lat="43.771145" lon="6.2568467"><ele>1044.8</ele><time>2026-05-02T10:40:33.269Z</time></trkpt><trkpt lat="43.7711567" lon="6.2569817"><ele>1043.2</ele><time>2026-05-02T10:40:34.269Z</time></trkpt><trkpt lat="43.7712067" lon="6.25709"><ele>1041.6</ele><time>2026-05-02T10:40:35.269Z</time></trkpt><trkpt lat="43.7712917" lon="6.2571667"><ele>1040.0</ele><time>2026-05-02T10:40:36.269Z</time></trkpt><trkpt lat="43.7713983" lon="6.25722"><ele>1040.0</ele><time>2026-05-02T10:40:37.269Z</time></trkpt><trkpt lat="43.7715217" lon="6.2572533"><ele>1040.0</ele><time>2026-05-02T10:40:38.27Z</time></trkpt><trkpt lat="43.7716533" lon="6.2572933"><ele>1040.0</ele><time>2026-05-02T10:40:39.269Z</time></trkpt><trkpt lat="43.7717783" lon="6.2573267"><ele>1040.0</ele><time>2026-05-02T10:40:40.269Z</time></trkpt><trkpt lat="43.7719033" lon="6.2573667"><ele>1038.5</ele><time>2026-05-02T10:40:41.269Z</time></trkpt><trkpt lat="43.7720233" lon="6.2574283"><ele>1037.0</ele><time>2026-05-02T10:40:42.269Z</time></trkpt><trkpt lat="43.7721467" lon="6.2574917"><ele>1035.5</ele><time>2026-05-02T10:40:43.269Z</time></trkpt><trkpt lat="43.7722667" lon="6.2575433"><ele>1034.0</ele><time>2026-05-02T10:40:44.269Z</time></trkpt><trkpt lat="43.7723833" lon="6.2575717"><ele>1034.0</ele><time>2026-05-02T10:40:45.269Z</time></trkpt><trkpt lat="43.7724917" lon="6.25759"><ele>1034.0</ele><time>2026-05-02T10:40:46.269Z</time></trkpt><trkpt lat="43.772605" lon="6.2576183"><ele>1034.0</ele><time>2026-05-02T10:40:47.269Z</time></trkpt><trkpt lat="43.77273" lon="6.257635"><ele>1034.0</ele><time>2026-05-02T10:40:48.269Z</time></trkpt><trkpt lat="43.772835" lon="6.2576367"><ele>1032.0</ele><time>2026-05-02T10:40:49.269Z</time></trkpt><trkpt lat="43.7729583" lon="6.2576167"><ele>1030.0</ele><time>2026-05-02T10:40:50.269Z</time></trkpt><trkpt lat="43.7730867" lon="6.25759"><ele>1028.0</ele><time>2026-05-02T10:40:51.269Z</time></trkpt><trkpt lat="43.7732067" lon="6.257535"><ele>1026.0</ele><time>2026-05-02T10:40:52.269Z</time></trkpt><trkpt lat="43.773325" lon="6.2574733"><ele>1026.0</ele><time>2026-05-02T10:40:53.269Z</time></trkpt><trkpt lat="43.7734333" lon="6.2574133"><ele>1026.0</ele><time>2026-05-02T10:40:54.269Z</time></trkpt><trkpt lat="43.7735333" lon="6.2573833"><ele>1026.0</ele><time>2026-05-02T10:40:55.269Z</time></trkpt><trkpt lat="43.7736417" lon="6.2573867"><ele>1026.0</ele><time>2026-05-02T10:40:56.269Z</time></trkpt><trkpt lat="43.773735" lon="6.2574167"><ele>1026.0</ele><time>2026-05-02T10:40:57.269Z</time></trkpt><trkpt lat="43.7738033" lon="6.2574383"><ele>1021.1999999999999</ele><time>2026-05-02T10:40:58.269Z</time></trkpt><trkpt lat="43.7738883" lon="6.2573633"><ele>1016.3999999999999</ele><time>2026-05-02T10:41:00.269Z</time></trkpt><trkpt lat="43.7738733" lon="6.2572767"><ele>1011.6</ele><time>2026-05-02T10:41:01.269Z</time></trkpt><trkpt lat="43.7737833" lon="6.2571617"><ele>1006.8</ele><time>2026-05-02T10:41:03.269Z</time></trkpt><trkpt lat="43.77371" lon="6.2571383"><ele>1002.0</ele><time>2026-05-02T10:41:04.27Z</time></trkpt><trkpt lat="43.7736167" lon="6.2571267"><ele>1004.75</ele><time>2026-05-02T10:41:05.269Z</time></trkpt><trkpt lat="43.7735167" lon="6.25711"><ele>1007.5</ele><time>2026-05-02T10:41:06.269Z</time></trkpt><trkpt lat="43.7733967" lon="6.2570967"><ele>1010.25</ele><time>2026-05-02T10:41:07.269Z</time></trkpt><trkpt lat="43.77327" lon="6.2570667"><ele>1013.0</ele><time>2026-05-02T10:41:08.269Z</time></trkpt><trkpt lat="43.7731433" lon="6.2570333"><ele>1013.0</ele><time>2026-05-02T10:41:09.269Z</time></trkpt><trkpt lat="43.773015" lon="6.2570117"><ele>1013.0</ele><time>2026-05-02T10:41:10.269Z</time></trkpt><trkpt lat="43.772885" lon="6.2569917"><ele>1013.0</ele><time>2026-05-02T10:41:11.269Z</time></trkpt><trkpt lat="43.7727833" lon="6.2569783"><ele>1013.0</ele><time>2026-05-02T10:41:12.269Z</time></trkpt><trkpt lat="43.7727" lon="6.2569817"><ele>1013.0</ele><time>2026-05-02T10:41:13.269Z</time></trkpt><trkpt lat="43.7726317" lon="6.25697"><ele>1013.0</ele><time>2026-05-02T10:41:14.269Z</time></trkpt><trkpt lat="43.7725683" lon="6.2569367"><ele>1013.0</ele><time>2026-05-02T10:41:15.269Z</time></trkpt><trkpt lat="43.7725333" lon="6.2568283"><ele>1013.0</ele><time>2026-05-02T10:41:17.269Z</time></trkpt><trkpt lat="43.772635" lon="6.2567717"><ele>1013.0</ele><time>2026-05-02T10:41:19.269Z</time></trkpt><trkpt lat="43.7727333" lon="6.2567683"><ele>1013.0</ele><time>2026-05-02T10:41:20.269Z</time></trkpt><trkpt lat="43.7728533" lon="6.2567733"><ele>1013.0</ele><time>2026-05-02T10:41:21.269Z</time></trkpt><trkpt lat="43.7729917" lon="6.2567633"><ele>1013.0</ele><time>2026-05-02T10:41:22.269Z</time></trkpt><trkpt lat="43.7731433" lon="6.25672"><ele>1013.0</ele><time>2026-05-02T10:41:23.27Z</time></trkpt><trkpt lat="43.7732767" lon="6.2566533"><ele>1013.0</ele><time>2026-05-02T10:41:24.269Z</time></trkpt><trkpt lat="43.773405" lon="6.25658"><ele>1013.0</ele><time>2026-05-02T10:41:25.269Z</time></trkpt><trkpt lat="43.7735183" lon="6.2565"><ele>1013.0</ele><time>2026-05-02T10:41:26.269Z</time></trkpt><trkpt lat="43.7736417" lon="6.2564117"><ele>1013.0</ele><time>2026-05-02T10:41:27.269Z</time></trkpt><trkpt lat="43.7737533" lon="6.2563367"><ele>1013.0</ele><time>2026-05-02T10:41:28.269Z</time></trkpt><trkpt lat="43.77385" lon="6.2562717"><ele>1009.2</ele><time>2026-05-02T10:41:29.27Z</time></trkpt><trkpt lat="43.773945" lon="6.25624"><ele>1005.4</ele><time>2026-05-02T10:41:30.269Z</time></trkpt><trkpt lat="43.7740467" lon="6.2562583"><ele>1001.6000000000001</ele><time>2026-05-02T10:41:31.269Z</time></trkpt><trkpt lat="43.7741283" lon="6.256315"><ele>997.8000000000001</ele><time>2026-05-02T10:41:32.269Z</time></trkpt><trkpt lat="43.7741833" lon="6.25642"><ele>994.0</ele><time>2026-05-02T10:41:33.269Z</time></trkpt><trkpt lat="43.7742017" lon="6.2565583"><ele>994.0</ele><time>2026-05-02T10:41:34.269Z</time></trkpt><trkpt lat="43.7742133" lon="6.2567283"><ele>994.0</ele><time>2026-05-02T10:41:35.269Z</time></trkpt><trkpt lat="43.774215" lon="6.2569083"><ele>994.0</ele><time>2026-05-02T10:41:36.269Z</time></trkpt><trkpt lat="43.7742217" lon="6.2571017"><ele>994.0</ele><time>2026-05-02T10:41:37.269Z</time></trkpt><trkpt lat="43.774225" lon="6.2573033"><ele>996.0</ele><time>2026-05-02T10:41:38.269Z</time></trkpt><trkpt lat="43.7742417" lon="6.2574883"><ele>998.0</ele><time>2026-05-02T10:41:39.269Z</time></trkpt><trkpt lat="43.77427" lon="6.257665"><ele>1000.0</ele><time>2026-05-02T10:41:40.27Z</time></trkpt><trkpt lat="43.7743133" lon="6.2578267"><ele>1002.0</ele><time>2026-05-02T10:41:41.269Z</time></trkpt><trkpt lat="43.77438" lon="6.2579817"><ele>994.5</ele><time>2026-05-02T10:41:42.269Z</time></trkpt><trkpt lat="43.7744533" lon="6.25813"><ele>987.0</ele><time>2026-05-02T10:41:43.269Z</time></trkpt><trkpt lat="43.7745383" lon="6.258275"><ele>979.5</ele><time>2026-05-02T10:41:44.27Z</time></trkpt><trkpt lat="43.7746383" lon="6.2584117"><ele>972.0</ele><time>2026-05-02T10:41:45.269Z</time></trkpt><trkpt lat="43.7747317" lon="6.2585517"><ele>972.0</ele><time>2026-05-02T10:41:46.269Z</time></trkpt><trkpt lat="43.77482" lon="6.258695"><ele>972.0</ele><time>2026-05-02T10:41:47.269Z</time></trkpt><trkpt lat="43.7749033" lon="6.258835"><ele>972.0</ele><time>2026-05-02T10:41:48.27Z</time></trkpt><trkpt lat="43.774975" lon="6.2589733"><ele>972.0</ele><time>2026-05-02T10:41:49.27Z</time></trkpt><trkpt lat="43.775055" lon="6.259105"><ele>974.0</ele><time>2026-05-02T10:41:50.27Z</time></trkpt><trkpt lat="43.7751417" lon="6.25924"><ele>976.0</ele><time>2026-05-02T10:41:51.269Z</time></trkpt><trkpt lat="43.7752033" lon="6.2593783"><ele>978.0</ele><time>2026-05-02T10:41:52.269Z</time></trkpt><trkpt lat="43.7752333" lon="6.2595367"><ele>980.0</ele><time>2026-05-02T10:41:53.269Z</time></trkpt><trkpt lat="43.7752367" lon="6.2596983"><ele>973.2</ele><time>2026-05-02T10:41:54.269Z</time></trkpt><trkpt lat="43.7752383" lon="6.2598583"><ele>966.4</ele><time>2026-05-02T10:41:55.269Z</time></trkpt><trkpt lat="43.77524" lon="6.2600017"><ele>959.5999999999999</ele><time>2026-05-02T10:41:56.269Z</time></trkpt><trkpt lat="43.7752367" lon="6.2601267"><ele>952.8</ele><time>2026-05-02T10:41:57.269Z</time></trkpt><trkpt lat="43.7752417" lon="6.260235"><ele>946.0</ele><time>2026-05-02T10:41:58.269Z</time></trkpt><trkpt lat="43.7752567" lon="6.26032"><ele>945.9999999999999</ele><time>2026-05-02T10:41:59.269Z</time></trkpt><trkpt lat="43.7753467" lon="6.2604133"><ele>946.0</ele><time>2026-05-02T10:42:01.27Z</time></trkpt><trkpt lat="43.77541" lon="6.26041"><ele>946.0</ele><time>2026-05-02T10:42:02.269Z</time></trkpt><trkpt lat="43.77547" lon="6.2603617"><ele>946.0</ele><time>2026-05-02T10:42:03.269Z</time></trkpt><trkpt lat="43.7755117" lon="6.2602767"><ele>945.9999999999999</ele><time>2026-05-02T10:42:04.269Z</time></trkpt><trkpt lat="43.7755133" lon="6.260165"><ele>946.0</ele><time>2026-05-02T10:42:05.269Z</time></trkpt><trkpt lat="43.7754933" lon="6.2600383"><ele>946.0</ele><time>2026-05-02T10:42:06.269Z</time></trkpt><trkpt lat="43.775455" lon="6.2599"><ele>945.9999999999999</ele><time>2026-05-02T10:42:07.27Z</time></trkpt><trkpt lat="43.77544" lon="6.2597617"><ele>945.9999999999999</ele><time>2026-05-02T10:42:08.269Z</time></trkpt><trkpt lat="43.77544" lon="6.259615"><ele>946.0</ele><time>2026-05-02T10:42:09.269Z</time></trkpt><trkpt lat="43.7754583" lon="6.2594733"><ele>946.0</ele><time>2026-05-02T10:42:10.269Z</time></trkpt><trkpt lat="43.7755167" lon="6.2593333"><ele>948.5</ele><time>2026-05-02T10:42:11.269Z</time></trkpt><trkpt lat="43.7755967" lon="6.2592217"><ele>951.0</ele><time>2026-05-02T10:42:12.269Z</time></trkpt><trkpt lat="43.7757033" lon="6.259135"><ele>953.5</ele><time>2026-05-02T10:42:13.269Z</time></trkpt><trkpt lat="43.7758067" lon="6.2590433"><ele>956.0</ele><time>2026-05-02T10:42:14.269Z</time></trkpt><trkpt lat="43.77591" lon="6.2589533"><ele>957.25</ele><time>2026-05-02T10:42:15.269Z</time></trkpt><trkpt lat="43.7760133" lon="6.2588583"><ele>958.5</ele><time>2026-05-02T10:42:16.269Z</time></trkpt><trkpt lat="43.7761117" lon="6.25876"><ele>959.75</ele><time>2026-05-02T10:42:17.269Z</time></trkpt><trkpt lat="43.7762017" lon="6.25865"><ele>961.0</ele><time>2026-05-02T10:42:18.269Z</time></trkpt><trkpt lat="43.7762733" lon="6.25852"><ele>961.0</ele><time>2026-05-02T10:42:19.269Z</time></trkpt><trkpt lat="43.7763367" lon="6.2583817"><ele>960.9999999999999</ele><time>2026-05-02T10:42:20.269Z</time></trkpt><trkpt lat="43.7763967" lon="6.2582483"><ele>960.9999999999999</ele><time>2026-05-02T10:42:21.269Z</time></trkpt><trkpt lat="43.7764633" lon="6.2581317"><ele>961.0</ele><time>2026-05-02T10:42:22.269Z</time></trkpt><trkpt lat="43.7765383" lon="6.2580283"><ele>961.0</ele><time>2026-05-02T10:42:23.269Z</time></trkpt><trkpt lat="43.776625" lon="6.257945"><ele>959.5999999999999</ele><time>2026-05-02T10:42:24.269Z</time></trkpt><trkpt lat="43.77671" lon="6.257865"><ele>958.1999999999999</ele><time>2026-05-02T10:42:25.269Z</time></trkpt><trkpt lat="43.7767933" lon="6.25779"><ele>956.8000000000001</ele><time>2026-05-02T10:42:26.269Z</time></trkpt><trkpt lat="43.7768783" lon="6.2577133"><ele>955.4000000000001</ele><time>2026-05-02T10:42:27.27Z</time></trkpt><trkpt lat="43.7769783" lon="6.25764"><ele>954.0</ele><time>2026-05-02T10:42:28.269Z</time></trkpt><trkpt lat="43.77708" lon="6.257555"><ele>954.0</ele><time>2026-05-02T10:42:29.269Z</time></trkpt><trkpt lat="43.7771767" lon="6.2574617"><ele>954.0</ele><time>2026-05-02T10:42:30.269Z</time></trkpt><trkpt lat="43.7772733" lon="6.25737"><ele>954.0</ele><time>2026-05-02T10:42:31.269Z</time></trkpt><trkpt lat="43.777375" lon="6.2572833"><ele>954.0</ele><time>2026-05-02T10:42:32.269Z</time></trkpt><trkpt lat="43.777465" lon="6.2572033"><ele>952.6666666666666</ele><time>2026-05-02T10:42:33.269Z</time></trkpt><trkpt lat="43.7775517" lon="6.2571367"><ele>951.3333333333333</ele><time>2026-05-02T10:42:34.269Z</time></trkpt><trkpt lat="43.77763" lon="6.2570783"><ele>950.0</ele><time>2026-05-02T10:42:35.269Z</time></trkpt><trkpt lat="43.7776933" lon="6.257025"><ele>948.6666666666666</ele><time>2026-05-02T10:42:36.269Z</time></trkpt><trkpt lat="43.777765" lon="6.256915"><ele>947.3333333333333</ele><time>2026-05-02T10:42:38.27Z</time></trkpt><trkpt lat="43.7777417" lon="6.2568133"><ele>946.0</ele><time>2026-05-02T10:42:40.269Z</time></trkpt><trkpt lat="43.7776483" lon="6.2568"><ele>940.8</ele><time>2026-05-02T10:42:42.269Z</time></trkpt><trkpt lat="43.77754" lon="6.256925"><ele>935.5999999999999</ele><time>2026-05-02T10:42:44.269Z</time></trkpt><trkpt lat="43.7774717" lon="6.2570033"><ele>930.4</ele><time>2026-05-02T10:42:45.269Z</time></trkpt><trkpt lat="43.7773883" lon="6.2570733"><ele>925.2</ele><time>2026-05-02T10:42:46.269Z</time></trkpt><trkpt lat="43.7772983" lon="6.257135"><ele>920.0</ele><time>2026-05-02T10:42:47.269Z</time></trkpt><trkpt lat="43.7771967" lon="6.2571933"><ele>920.0</ele><time>2026-05-02T10:42:48.269Z</time></trkpt><trkpt lat="43.777085" lon="6.2572517"><ele>920.0</ele><time>2026-05-02T10:42:49.269Z</time></trkpt><trkpt lat="43.776975" lon="6.2573133"><ele>920.0</ele><time>2026-05-02T10:42:50.269Z</time></trkpt><trkpt lat="43.7768667" lon="6.257365"><ele>920.0</ele><time>2026-05-02T10:42:51.269Z</time></trkpt><trkpt lat="43.77676" lon="6.2574133"><ele>923.0</ele><time>2026-05-02T10:42:52.269Z</time></trkpt><trkpt lat="43.776645" lon="6.2574683"><ele>926.0</ele><time>2026-05-02T10:42:53.269Z</time></trkpt><trkpt lat="43.7765283" lon="6.2575183"><ele>929.0</ele><time>2026-05-02T10:42:54.269Z</time></trkpt><trkpt lat="43.7764167" lon="6.2575817"><ele>932.0</ele><time>2026-05-02T10:42:55.269Z</time></trkpt><trkpt lat="43.7763233" lon="6.2576517"><ele>932.0</ele><time>2026-05-02T10:42:56.269Z</time></trkpt><trkpt lat="43.7762333" lon="6.25773"><ele>932.0</ele><time>2026-05-02T10:42:57.269Z</time></trkpt><trkpt lat="43.7761467" lon="6.2578033"><ele>932.0</ele><time>2026-05-02T10:42:58.269Z</time></trkpt><trkpt lat="43.776065" lon="6.257865"><ele>932.0</ele><time>2026-05-02T10:42:59.27Z</time></trkpt><trkpt lat="43.7759833" lon="6.25792"><ele>932.0</ele><time>2026-05-02T10:43:00.269Z</time></trkpt><trkpt lat="43.775895" lon="6.2579617"><ele>930.0</ele><time>2026-05-02T10:43:01.269Z</time></trkpt><trkpt lat="43.7758117" lon="6.2579667"><ele>928.0</ele><time>2026-05-02T10:43:02.269Z</time></trkpt><trkpt lat="43.77573" lon="6.2579333"><ele>926.0</ele><time>2026-05-02T10:43:03.269Z</time></trkpt><trkpt lat="43.775655" lon="6.2578483"><ele>924.0</ele><time>2026-05-02T10:43:04.269Z</time></trkpt><trkpt lat="43.7756017" lon="6.25773"><ele>922.0</ele><time>2026-05-02T10:43:05.269Z</time></trkpt><trkpt lat="43.7755567" lon="6.2575717"><ele>922.0</ele><time>2026-05-02T10:43:06.269Z</time></trkpt><trkpt lat="43.7754767" lon="6.2574133"><ele>922.0</ele><time>2026-05-02T10:43:07.269Z</time></trkpt><trkpt lat="43.775395" lon="6.2572683"><ele>922.0</ele><time>2026-05-02T10:43:08.269Z</time></trkpt><trkpt lat="43.7753317" lon="6.2571233"><ele>922.0</ele><time>2026-05-02T10:43:09.27Z</time></trkpt><trkpt lat="43.77529" lon="6.25697"><ele>917.25</ele><time>2026-05-02T10:43:10.269Z</time></trkpt><trkpt lat="43.7752817" lon="6.25681"><ele>912.5</ele><time>2026-05-02T10:43:11.269Z</time></trkpt><trkpt lat="43.7752867" lon="6.25666"><ele>907.75</ele><time>2026-05-02T10:43:12.269Z</time></trkpt><trkpt lat="43.7752967" lon="6.2565083"><ele>903.0</ele><time>2026-05-02T10:43:13.27Z</time></trkpt><trkpt lat="43.7752933" lon="6.256335"><ele>899.75</ele><time>2026-05-02T10:43:14.269Z</time></trkpt><trkpt lat="43.775285" lon="6.25615"><ele>896.5</ele><time>2026-05-02T10:43:15.269Z</time></trkpt><trkpt lat="43.7752617" lon="6.255975"><ele>893.25</ele><time>2026-05-02T10:43:16.269Z</time></trkpt><trkpt lat="43.7752283" lon="6.25581"><ele>890.0</ele><time>2026-05-02T10:43:17.269Z</time></trkpt><trkpt lat="43.7752" lon="6.2556367"><ele>888.2</ele><time>2026-05-02T10:43:18.269Z</time></trkpt><trkpt lat="43.7751733" lon="6.2554783"><ele>886.4</ele><time>2026-05-02T10:43:19.269Z</time></trkpt><trkpt lat="43.7751667" lon="6.2553383"><ele>884.5999999999999</ele><time>2026-05-02T10:43:20.269Z</time></trkpt><trkpt lat="43.7752067" lon="6.2552083"><ele>882.8</ele><time>2026-05-02T10:43:21.269Z</time></trkpt><trkpt lat="43.7752667" lon="6.2550717"><ele>881.0</ele><time>2026-05-02T10:43:22.269Z</time></trkpt><trkpt lat="43.77533" lon="6.2549317"><ele>882.75</ele><time>2026-05-02T10:43:23.269Z</time></trkpt><trkpt lat="43.7753883" lon="6.254765"><ele>884.5</ele><time>2026-05-02T10:43:24.269Z</time></trkpt><trkpt lat="43.7754333" lon="6.2545783"><ele>886.25</ele><time>2026-05-02T10:43:25.269Z</time></trkpt><trkpt lat="43.7754667" lon="6.2543867"><ele>888.0</ele><time>2026-05-02T10:43:26.269Z</time></trkpt><trkpt lat="43.7755033" lon="6.2542"><ele>888.0</ele><time>2026-05-02T10:43:27.269Z</time></trkpt><trkpt lat="43.77556" lon="6.25404"><ele>888.0</ele><time>2026-05-02T10:43:28.27Z</time></trkpt><trkpt lat="43.775635" lon="6.253885"><ele>888.0</ele><time>2026-05-02T10:43:29.269Z</time></trkpt><trkpt lat="43.7757067" lon="6.2537317"><ele>888.0</ele><time>2026-05-02T10:43:30.269Z</time></trkpt><trkpt lat="43.775775" lon="6.2535617"><ele>891.0</ele><time>2026-05-02T10:43:31.269Z</time></trkpt><trkpt lat="43.7758467" lon="6.253385"><ele>894.0</ele><time>2026-05-02T10:43:32.269Z</time></trkpt><trkpt lat="43.7759267" lon="6.253215"><ele>897.0</ele><time>2026-05-02T10:43:33.269Z</time></trkpt><trkpt lat="43.7760133" lon="6.25306"><ele>900.0</ele><time>2026-05-02T10:43:34.269Z</time></trkpt><trkpt lat="43.7760967" lon="6.2528967"><ele>891.5</ele><time>2026-05-02T10:43:35.269Z</time></trkpt><trkpt lat="43.7761617" lon="6.2527367"><ele>883.0</ele><time>2026-05-02T10:43:36.269Z</time></trkpt><trkpt lat="43.77622" lon="6.2525683"><ele>874.5</ele><time>2026-05-02T10:43:37.269Z</time></trkpt><trkpt lat="43.7762767" lon="6.252405"><ele>866.0</ele><time>2026-05-02T10:43:38.269Z</time></trkpt><trkpt lat="43.7763217" lon="6.2522383"><ele>866.0</ele><time>2026-05-02T10:43:39.269Z</time></trkpt><trkpt lat="43.7763517" lon="6.2520517"><ele>866.0</ele><time>2026-05-02T10:43:40.269Z</time></trkpt><trkpt lat="43.77637" lon="6.25186"><ele>866.0</ele><time>2026-05-02T10:43:41.27Z</time></trkpt><trkpt lat="43.77639" lon="6.2516567"><ele>866.0</ele><time>2026-05-02T10:43:42.27Z</time></trkpt><trkpt lat="43.776405" lon="6.251455"><ele>866.25</ele><time>2026-05-02T10:43:43.27Z</time></trkpt><trkpt lat="43.7764133" lon="6.2512517"><ele>866.5</ele><time>2026-05-02T10:43:44.269Z</time></trkpt><trkpt lat="43.7764233" lon="6.2510517"><ele>866.75</ele><time>2026-05-02T10:43:45.269Z</time></trkpt><trkpt lat="43.77644" lon="6.25085"><ele>867.0</ele><time>2026-05-02T10:43:46.269Z</time></trkpt><trkpt lat="43.77647" lon="6.2506583"><ele>868.0</ele><time>2026-05-02T10:43:47.269Z</time></trkpt><trkpt lat="43.776495" lon="6.2504667"><ele>869.0</ele><time>2026-05-02T10:43:48.27Z</time></trkpt><trkpt lat="43.7765367" lon="6.2502867"><ele>870.0</ele><time>2026-05-02T10:43:49.27Z</time></trkpt><trkpt lat="43.7765967" lon="6.2501283"><ele>871.0</ele><time>2026-05-02T10:43:50.269Z</time></trkpt><trkpt lat="43.7766783" lon="6.2499867"><ele>871.0</ele><time>2026-05-02T10:43:51.269Z</time></trkpt><trkpt lat="43.7767633" lon="6.24985"><ele>871.0</ele><time>2026-05-02T10:43:52.269Z</time></trkpt><trkpt lat="43.77683" lon="6.2497017"><ele>871.0</ele><time>2026-05-02T10:43:53.269Z</time></trkpt><trkpt lat="43.776895" lon="6.2495467"><ele>871.0</ele><time>2026-05-02T10:43:54.269Z</time></trkpt><trkpt lat="43.77696" lon="6.24939"><ele>865.25</ele><time>2026-05-02T10:43:55.269Z</time></trkpt><trkpt lat="43.77703" lon="6.24924"><ele>859.5</ele><time>2026-05-02T10:43:56.269Z</time></trkpt><trkpt lat="43.777095" lon="6.2490867"><ele>853.75</ele><time>2026-05-02T10:43:57.269Z</time></trkpt><trkpt lat="43.7771417" lon="6.2489133"><ele>848.0</ele><time>2026-05-02T10:43:58.269Z</time></trkpt><trkpt lat="43.777175" lon="6.248735"><ele>848.0</ele><time>2026-05-02T10:43:59.269Z</time></trkpt><trkpt lat="43.77719" lon="6.2485433"><ele>848.0</ele><time>2026-05-02T10:44:00.269Z</time></trkpt><trkpt lat="43.7771767" lon="6.2483583"><ele>848.0</ele><time>2026-05-02T10:44:01.269Z</time></trkpt><trkpt lat="43.7771367" lon="6.24818"><ele>848.0</ele><time>2026-05-02T10:44:02.269Z</time></trkpt><trkpt lat="43.777075" lon="6.24801"><ele>849.5</ele><time>2026-05-02T10:44:03.269Z</time></trkpt><trkpt lat="43.7769967" lon="6.2478483"><ele>851.0</ele><time>2026-05-02T10:44:04.269Z</time></trkpt><trkpt lat="43.7769017" lon="6.2477167"><ele>852.5</ele><time>2026-05-02T10:44:05.27Z</time></trkpt><trkpt lat="43.77678" lon="6.24759"><ele>854.0</ele><time>2026-05-02T10:44:06.269Z</time></trkpt><trkpt lat="43.7766633" lon="6.2474567"><ele>854.0</ele><time>2026-05-02T10:44:07.27Z</time></trkpt><trkpt lat="43.77655" lon="6.24732"><ele>854.0</ele><time>2026-05-02T10:44:08.269Z</time></trkpt><trkpt lat="43.7764483" lon="6.2471817"><ele>854.0</ele><time>2026-05-02T10:44:09.269Z</time></trkpt><trkpt lat="43.7763433" lon="6.2470467"><ele>854.0</ele><time>2026-05-02T10:44:10.269Z</time></trkpt><trkpt lat="43.7762417" lon="6.2469183"><ele>853.25</ele><time>2026-05-02T10:44:11.269Z</time></trkpt><trkpt lat="43.7761467" lon="6.2467917"><ele>852.5</ele><time>2026-05-02T10:44:12.269Z</time></trkpt><trkpt lat="43.77605" lon="6.2466683"><ele>851.75</ele><time>2026-05-02T10:44:13.269Z</time></trkpt><trkpt lat="43.7759633" lon="6.246535"><ele>851.0</ele><time>2026-05-02T10:44:14.269Z</time></trkpt><trkpt lat="43.77591" lon="6.2464017"><ele>848.5</ele><time>2026-05-02T10:44:15.269Z</time></trkpt><trkpt lat="43.775885" lon="6.2462333"><ele>846.0</ele><time>2026-05-02T10:44:16.269Z</time></trkpt><trkpt lat="43.7758817" lon="6.24606"><ele>843.5</ele><time>2026-05-02T10:44:17.269Z</time></trkpt><trkpt lat="43.7758867" lon="6.2458883"><ele>841.0</ele><time>2026-05-02T10:44:18.269Z</time></trkpt><trkpt lat="43.77589" lon="6.2457167"><ele>839.75</ele><time>2026-05-02T10:44:19.269Z</time></trkpt><trkpt lat="43.7758933" lon="6.24554"><ele>838.5</ele><time>2026-05-02T10:44:20.269Z</time></trkpt><trkpt lat="43.7758883" lon="6.2453567"><ele>837.25</ele><time>2026-05-02T10:44:21.269Z</time></trkpt><trkpt lat="43.7758933" lon="6.2451767"><ele>836.0</ele><time>2026-05-02T10:44:22.27Z</time></trkpt><trkpt lat="43.775915" lon="6.245015"><ele>836.0</ele><time>2026-05-02T10:44:23.27Z</time></trkpt><trkpt lat="43.7759467" lon="6.2448717"><ele>836.0</ele><time>2026-05-02T10:44:24.269Z</time></trkpt><trkpt lat="43.7759833" lon="6.2447483"><ele>836.0</ele><time>2026-05-02T10:44:25.269Z</time></trkpt><trkpt lat="43.776015" lon="6.2446383"><ele>836.0</ele><time>2026-05-02T10:44:26.269Z</time></trkpt><trkpt lat="43.7760233" lon="6.2445333"><ele>836.0</ele><time>2026-05-02T10:44:27.269Z</time></trkpt><trkpt lat="43.7759367" lon="6.2444033"><ele>832.1999999999999</ele><time>2026-05-02T10:44:29.269Z</time></trkpt><trkpt lat="43.7758483" lon="6.2444"><ele>828.4</ele><time>2026-05-02T10:44:30.269Z</time></trkpt><trkpt lat="43.77575" lon="6.2444067"><ele>824.6</ele><time>2026-05-02T10:44:31.269Z</time></trkpt><trkpt lat="43.7756367" lon="6.24442"><ele>820.8</ele><time>2026-05-02T10:44:32.269Z</time></trkpt><trkpt lat="43.7755333" lon="6.2444367"><ele>817.0</ele><time>2026-05-02T10:44:33.269Z</time></trkpt><trkpt lat="43.7754317" lon="6.2444517"><ele>817.0</ele><time>2026-05-02T10:44:34.269Z</time></trkpt><trkpt lat="43.7753233" lon="6.2444617"><ele>817.0</ele><time>2026-05-02T10:44:35.269Z</time></trkpt><trkpt lat="43.77522" lon="6.24446"><ele>817.0</ele><time>2026-05-02T10:44:36.27Z</time></trkpt><trkpt lat="43.7751167" lon="6.2444583"><ele>817.0</ele><time>2026-05-02T10:44:37.269Z</time></trkpt><trkpt lat="43.7750167" lon="6.2444433"><ele>817.0</ele><time>2026-05-02T10:44:38.269Z</time></trkpt><trkpt lat="43.7749167" lon="6.244425"><ele>816.0</ele><time>2026-05-02T10:44:39.27Z</time></trkpt><trkpt lat="43.7748067" lon="6.24439"><ele>815.0</ele><time>2026-05-02T10:44:40.269Z</time></trkpt><trkpt lat="43.7746883" lon="6.244355"><ele>814.0</ele><time>2026-05-02T10:44:41.27Z</time></trkpt><trkpt lat="43.7745817" lon="6.2443183"><ele>813.0</ele><time>2026-05-02T10:44:42.269Z</time></trkpt><trkpt lat="43.7744683" lon="6.2442833"><ele>813.0</ele><time>2026-05-02T10:44:43.269Z</time></trkpt><trkpt lat="43.7743617" lon="6.2442517"><ele>813.0</ele><time>2026-05-02T10:44:44.269Z</time></trkpt><trkpt lat="43.7742567" lon="6.2442217"><ele>813.0</ele><time>2026-05-02T10:44:45.269Z</time></trkpt><trkpt lat="43.7741483" lon="6.2441917"><ele>813.0</ele><time>2026-05-02T10:44:46.27Z</time></trkpt><trkpt lat="43.7740433" lon="6.2441617"><ele>813.0</ele><time>2026-05-02T10:44:47.269Z</time></trkpt><trkpt lat="43.773945" lon="6.244125"><ele>813.5999999999999</ele><time>2026-05-02T10:44:48.269Z</time></trkpt><trkpt lat="43.773835" lon="6.2440867"><ele>814.1999999999999</ele><time>2026-05-02T10:44:49.269Z</time></trkpt><trkpt lat="43.7737333" lon="6.2440433"><ele>814.8</ele><time>2026-05-02T10:44:50.269Z</time></trkpt><trkpt lat="43.7736467" lon="6.2440017"><ele>815.4</ele><time>2026-05-02T10:44:51.269Z</time></trkpt><trkpt lat="43.77355" lon="6.2439533"><ele>816.0</ele><time>2026-05-02T10:44:52.269Z</time></trkpt><trkpt lat="43.7734633" lon="6.2439"><ele>811.1999999999999</ele><time>2026-05-02T10:44:53.269Z</time></trkpt><trkpt lat="43.77337" lon="6.2438517"><ele>806.4</ele><time>2026-05-02T10:44:54.27Z</time></trkpt><trkpt lat="43.77328" lon="6.2438117"><ele>801.6</ele><time>2026-05-02T10:44:55.269Z</time></trkpt><trkpt lat="43.7731867" lon="6.243795"><ele>796.8</ele><time>2026-05-02T10:44:56.27Z</time></trkpt><trkpt lat="43.773085" lon="6.2438117"><ele>792.0</ele><time>2026-05-02T10:44:57.269Z</time></trkpt><trkpt lat="43.772995" lon="6.243835"><ele>792.0</ele><time>2026-05-02T10:44:58.269Z</time></trkpt><trkpt lat="43.7728933" lon="6.2438317"><ele>792.0</ele><time>2026-05-02T10:44:59.269Z</time></trkpt><trkpt lat="43.7727933" lon="6.2438017"><ele>792.0</ele><time>2026-05-02T10:45:00.269Z</time></trkpt><trkpt lat="43.7727067" lon="6.24374"><ele>792.0</ele><time>2026-05-02T10:45:01.269Z</time></trkpt><trkpt lat="43.772635" lon="6.2436683"><ele>792.0</ele><time>2026-05-02T10:45:02.269Z</time></trkpt><trkpt lat="43.7725533" lon="6.243615"><ele>792.1666666666666</ele><time>2026-05-02T10:45:03.269Z</time></trkpt><trkpt lat="43.7724783" lon="6.2435983"><ele>792.3333333333333</ele><time>2026-05-02T10:45:04.269Z</time></trkpt><trkpt lat="43.7724033" lon="6.2436167"><ele>792.5</ele><time>2026-05-02T10:45:05.269Z</time></trkpt><trkpt lat="43.772325" lon="6.2436533"><ele>792.6666666666666</ele><time>2026-05-02T10:45:06.269Z</time></trkpt><trkpt lat="43.7722467" lon="6.2436733"><ele>792.8333333333333</ele><time>2026-05-02T10:45:07.27Z</time></trkpt><trkpt lat="43.7721833" lon="6.243685"><ele>793.0</ele><time>2026-05-02T10:45:08.269Z</time></trkpt><trkpt lat="43.772105" lon="6.2436733"><ele>792.9999999999999</ele><time>2026-05-02T10:45:10.269Z</time></trkpt><trkpt lat="43.7720583" lon="6.2435933"><ele>793.0</ele><time>2026-05-02T10:45:12.269Z</time></trkpt><trkpt lat="43.7721017" lon="6.243495"><ele>793.0</ele><time>2026-05-02T10:45:14.269Z</time></trkpt><trkpt lat="43.7721983" lon="6.2433967"><ele>793.0</ele><time>2026-05-02T10:45:16.269Z</time></trkpt><trkpt lat="43.7722567" lon="6.2433517"><ele>792.9999999999999</ele><time>2026-05-02T10:45:17.269Z</time></trkpt><trkpt lat="43.7723117" lon="6.2433067"><ele>793.0</ele><time>2026-05-02T10:45:18.269Z</time></trkpt><trkpt lat="43.7723717" lon="6.2432617"><ele>793.0000000000001</ele><time>2026-05-02T10:45:19.269Z</time></trkpt><trkpt lat="43.7724283" lon="6.2432167"><ele>793.0</ele><time>2026-05-02T10:45:20.269Z</time></trkpt><trkpt lat="43.7724867" lon="6.24317"><ele>793.0</ele><time>2026-05-02T10:45:21.269Z</time></trkpt><trkpt lat="43.7725467" lon="6.2431283"><ele>793.0</ele><time>2026-05-02T10:45:22.27Z</time></trkpt><trkpt lat="43.7726133" lon="6.243085"><ele>793.0</ele><time>2026-05-02T10:45:23.269Z</time></trkpt><trkpt lat="43.7726933" lon="6.24306"><ele>793.0000000000001</ele><time>2026-05-02T10:45:24.269Z</time></trkpt><trkpt lat="43.77277" lon="6.2430433"><ele>793.0</ele><time>2026-05-02T10:45:25.269Z</time></trkpt><trkpt lat="43.7728533" lon="6.2430183"><ele>791.9999999999999</ele><time>2026-05-02T10:45:26.27Z</time></trkpt><trkpt lat="43.77294" lon="6.2429933"><ele>791.0</ele><time>2026-05-02T10:45:27.27Z</time></trkpt><trkpt lat="43.773025" lon="6.242965"><ele>790.0</ele><time>2026-05-02T10:45:28.27Z</time></trkpt><trkpt lat="43.77311" lon="6.2429433"><ele>789.0</ele><time>2026-05-02T10:45:29.269Z</time></trkpt><trkpt lat="43.7731833" lon="6.2429283"><ele>787.9999999999999</ele><time>2026-05-02T10:45:30.269Z</time></trkpt><trkpt lat="43.77325" lon="6.2429233"><ele>787.0</ele><time>2026-05-02T10:45:31.27Z</time></trkpt><trkpt lat="43.773355" lon="6.2429367"><ele>787.0</ele><time>2026-05-02T10:45:33.269Z</time></trkpt><trkpt lat="43.7734333" lon="6.2429667"><ele>787.0</ele><time>2026-05-02T10:45:35.269Z</time></trkpt><trkpt lat="43.77351" lon="6.2429417"><ele>787.0</ele><time>2026-05-02T10:45:38.269Z</time></trkpt><trkpt lat="43.7735333" lon="6.2427967"><ele>787.0</ele><time>2026-05-02T10:45:41.27Z</time></trkpt><trkpt lat="43.7735483" lon="6.24265"><ele>787.0</ele><time>2026-05-02T10:45:43.27Z</time></trkpt><trkpt lat="43.77356" lon="6.24251"><ele>786.4999999999999</ele><time>2026-05-02T10:45:45.269Z</time></trkpt><trkpt lat="43.773575" lon="6.2423933"><ele>786.0</ele><time>2026-05-02T10:45:47.269Z</time></trkpt><trkpt lat="43.77361" lon="6.2423183"><ele>785.5</ele><time>2026-05-02T10:45:49.269Z</time></trkpt><trkpt lat="43.7736717" lon="6.2422617"><ele>785.0</ele><time>2026-05-02T10:45:51.269Z</time></trkpt><trkpt lat="43.773735" lon="6.2422"><ele>784.4999999999999</ele><time>2026-05-02T10:45:53.269Z</time></trkpt><trkpt lat="43.773785" lon="6.242125"><ele>784.0</ele><time>2026-05-02T10:45:55.269Z</time></trkpt><trkpt lat="43.7738233" lon="6.242025"><ele>784.0</ele><time>2026-05-02T10:45:57.269Z</time></trkpt><trkpt lat="43.7738467" lon="6.241885"><ele>784.0</ele><time>2026-05-02T10:45:59.269Z</time></trkpt><trkpt lat="43.77385" lon="6.2417433"><ele>784.0</ele><time>2026-05-02T10:46:01.269Z</time></trkpt><trkpt lat="43.7738217" lon="6.241565"><ele>784.0</ele><time>2026-05-02T10:46:03.269Z</time></trkpt><trkpt lat="43.7738033" lon="6.2414683"><ele>784.0</ele><time>2026-05-02T10:46:04.269Z</time></trkpt><trkpt lat="43.7737883" lon="6.241375"><ele>782.4000000000001</ele><time>2026-05-02T10:46:05.269Z</time></trkpt><trkpt lat="43.7737783" lon="6.2412183"><ele>780.8</ele><time>2026-05-02T10:46:07.269Z</time></trkpt><trkpt lat="43.7737717" lon="6.2410817"><ele>779.2</ele><time>2026-05-02T10:46:09.269Z</time></trkpt><trkpt lat="43.7738583" lon="6.24101"><ele>777.5999999999999</ele><time>2026-05-02T10:46:11.269Z</time></trkpt><trkpt lat="43.7739283" lon="6.2410083"><ele>776.0</ele><time>2026-05-02T10:46:12.269Z</time></trkpt><trkpt lat="43.774" lon="6.2410217"><ele>776.0000000000001</ele><time>2026-05-02T10:46:13.27Z</time></trkpt><trkpt lat="43.774085" lon="6.241045"><ele>776.0</ele><time>2026-05-02T10:46:14.269Z</time></trkpt><trkpt lat="43.774165" lon="6.241065"><ele>776.0</ele><time>2026-05-02T10:46:15.269Z</time></trkpt><trkpt lat="43.7742367" lon="6.2410717"><ele>776.0</ele><time>2026-05-02T10:46:16.269Z</time></trkpt><trkpt lat="43.7743067" lon="6.2410833"><ele>776.0000000000001</ele><time>2026-05-02T10:46:17.269Z</time></trkpt><trkpt lat="43.7743783" lon="6.2410867"><ele>776.0</ele><time>2026-05-02T10:46:18.27Z</time></trkpt><trkpt lat="43.7744533" lon="6.2410983"><ele>775.0000000000001</ele><time>2026-05-02T10:46:19.27Z</time></trkpt><trkpt lat="43.7745317" lon="6.2411033"><ele>774.0</ele><time>2026-05-02T10:46:20.269Z</time></trkpt><trkpt lat="43.7745983" lon="6.241115"><ele>773.0</ele><time>2026-05-02T10:46:21.269Z</time></trkpt><trkpt lat="43.7746633" lon="6.241125"><ele>772.0</ele><time>2026-05-02T10:46:22.269Z</time></trkpt><trkpt lat="43.774795" lon="6.2411517"><ele>771.0000000000001</ele><time>2026-05-02T10:46:24.269Z</time></trkpt><trkpt lat="43.7748583" lon="6.2411633"><ele>770.0</ele><time>2026-05-02T10:46:25.269Z</time></trkpt><trkpt lat="43.7749517" lon="6.241175"><ele>770.0000000000001</ele><time>2026-05-02T10:46:27.269Z</time></trkpt><trkpt lat="43.7750167" lon="6.2411967"><ele>770.0</ele><time>2026-05-02T10:46:29.269Z</time></trkpt><trkpt lat="43.7750733" lon="6.2411367"><ele>770.0</ele><time>2026-05-02T10:47:10.269Z</time></trkpt><trkpt lat="43.775065" lon="6.24094"><ele>770.0</ele><time>2026-05-02T10:47:12.27Z</time></trkpt><trkpt lat="43.7750417" lon="6.2408283"><ele>770.0000000000001</ele><time>2026-05-02T10:47:13.269Z</time></trkpt><trkpt lat="43.7750183" lon="6.2407183"><ele>770.0</ele><time>2026-05-02T10:47:14.269Z</time></trkpt><trkpt lat="43.774995" lon="6.240625"><ele>768.8333333333334</ele><time>2026-05-02T10:47:15.269Z</time></trkpt><trkpt lat="43.774985" lon="6.2405317"><ele>767.6666666666667</ele><time>2026-05-02T10:47:16.269Z</time></trkpt><trkpt lat="43.7749883" lon="6.2404367"><ele>766.5</ele><time>2026-05-02T10:47:17.269Z</time></trkpt><trkpt lat="43.7750117" lon="6.2403283"><ele>765.3333333333334</ele><time>2026-05-02T10:47:18.269Z</time></trkpt><trkpt lat="43.7750383" lon="6.2402133"><ele>764.1666666666667</ele><time>2026-05-02T10:47:19.269Z</time></trkpt><trkpt lat="43.7750533" lon="6.2401017"><ele>763.0</ele><time>2026-05-02T10:47:20.269Z</time></trkpt><trkpt lat="43.775055" lon="6.2400067"><ele>763.0</ele><time>2026-05-02T10:47:21.27Z</time></trkpt><trkpt lat="43.775015" lon="6.23984"><ele>763.0</ele><time>2026-05-02T10:47:23.269Z</time></trkpt><trkpt lat="43.77497" lon="6.2397683"><ele>763.0</ele><time>2026-05-02T10:47:24.269Z</time></trkpt><trkpt lat="43.7749" lon="6.2397033"><ele>763.0</ele><time>2026-05-02T10:47:25.269Z</time></trkpt><trkpt lat="43.774805" lon="6.23964"><ele>763.0</ele><time>2026-05-02T10:47:26.269Z</time></trkpt><trkpt lat="43.77471" lon="6.2395783"><ele>759.5</ele><time>2026-05-02T10:47:27.269Z</time></trkpt><trkpt lat="43.77462" lon="6.2395"><ele>756.0</ele><time>2026-05-02T10:47:28.269Z</time></trkpt><trkpt lat="43.7745333" lon="6.2394"><ele>752.5</ele><time>2026-05-02T10:47:29.269Z</time></trkpt><trkpt lat="43.77446" lon="6.2392667"><ele>749.0</ele><time>2026-05-02T10:47:30.269Z</time></trkpt><trkpt lat="43.7743933" lon="6.2391117"><ele>748.0</ele><time>2026-05-02T10:47:31.269Z</time></trkpt><trkpt lat="43.7743233" lon="6.23893"><ele>747.0</ele><time>2026-05-02T10:47:32.269Z</time></trkpt><trkpt lat="43.77425" lon="6.238765"><ele>746.0</ele><time>2026-05-02T10:47:33.269Z</time></trkpt><trkpt lat="43.774175" lon="6.2386033"><ele>745.0</ele><time>2026-05-02T10:47:34.269Z</time></trkpt><trkpt lat="43.7741083" lon="6.2384567"><ele>745.0</ele><time>2026-05-02T10:47:35.269Z</time></trkpt><trkpt lat="43.77406" lon="6.2382983"><ele>745.0</ele><time>2026-05-02T10:47:36.269Z</time></trkpt><trkpt lat="43.774035" lon="6.2381433"><ele>745.0</ele><time>2026-05-02T10:47:37.269Z</time></trkpt><trkpt lat="43.77401" lon="6.23798"><ele>745.0</ele><time>2026-05-02T10:47:38.269Z</time></trkpt><trkpt lat="43.7739833" lon="6.23784"><ele>743.0</ele><time>2026-05-02T10:47:39.269Z</time></trkpt><trkpt lat="43.77394" lon="6.2377283"><ele>741.0</ele><time>2026-05-02T10:47:40.269Z</time></trkpt><trkpt lat="43.773875" lon="6.237655"><ele>739.0</ele><time>2026-05-02T10:47:41.269Z</time></trkpt><trkpt lat="43.7737933" lon="6.2376233"><ele>737.0</ele><time>2026-05-02T10:47:42.269Z</time></trkpt><trkpt lat="43.77371" lon="6.2376417"><ele>735.0</ele><time>2026-05-02T10:47:43.269Z</time></trkpt><trkpt lat="43.7736383" lon="6.2377267"><ele>733.0</ele><time>2026-05-02T10:47:44.269Z</time></trkpt><trkpt lat="43.7736033" lon="6.2378583"><ele>733.0</ele><time>2026-05-02T10:47:45.269Z</time></trkpt><trkpt lat="43.7736083" lon="6.2380183"><ele>733.0</ele><time>2026-05-02T10:47:46.269Z</time></trkpt><trkpt lat="43.77365" lon="6.238185"><ele>733.0</ele><time>2026-05-02T10:47:47.269Z</time></trkpt><trkpt lat="43.77369" lon="6.238335"><ele>733.0</ele><time>2026-05-02T10:47:48.269Z</time></trkpt><trkpt lat="43.7736867" lon="6.2384817"><ele>735.2</ele><time>2026-05-02T10:47:49.269Z</time></trkpt><trkpt lat="43.7736483" lon="6.2386133"><ele>737.4</ele><time>2026-05-02T10:47:50.269Z</time></trkpt><trkpt lat="43.7735767" lon="6.2387183"><ele>739.6</ele><time>2026-05-02T10:47:51.269Z</time></trkpt><trkpt lat="43.7734767" lon="6.2387983"><ele>741.8000000000001</ele><time>2026-05-02T10:47:52.269Z</time></trkpt><trkpt lat="43.77336" lon="6.2388633"><ele>744.0</ele><time>2026-05-02T10:47:53.269Z</time></trkpt><trkpt lat="43.773245" lon="6.23889"><ele>744.0</ele><time>2026-05-02T10:47:54.269Z</time></trkpt><trkpt lat="43.7731133" lon="6.238895"><ele>744.0</ele><time>2026-05-02T10:47:55.269Z</time></trkpt><trkpt lat="43.7729783" lon="6.2388867"><ele>744.0</ele><time>2026-05-02T10:47:56.269Z</time></trkpt><trkpt lat="43.7728367" lon="6.2388767"><ele>744.0</ele><time>2026-05-02T10:47:57.269Z</time></trkpt><trkpt lat="43.77271" lon="6.238865"><ele>742.0</ele><time>2026-05-02T10:47:58.269Z</time></trkpt><trkpt lat="43.7725833" lon="6.23885"><ele>740.0</ele><time>2026-05-02T10:47:59.269Z</time></trkpt><trkpt lat="43.772465" lon="6.2388183"><ele>738.0</ele><time>2026-05-02T10:48:00.269Z</time></trkpt><trkpt lat="43.77235" lon="6.2387683"><ele>736.0</ele><time>2026-05-02T10:48:01.269Z</time></trkpt><trkpt lat="43.7722367" lon="6.2387017"><ele>736.0</ele><time>2026-05-02T10:48:02.269Z</time></trkpt><trkpt lat="43.7721267" lon="6.2386333"><ele>736.0</ele><time>2026-05-02T10:48:03.269Z</time></trkpt><trkpt lat="43.772005" lon="6.23856"><ele>736.0</ele><time>2026-05-02T10:48:04.269Z</time></trkpt><trkpt lat="43.77189" lon="6.2384933"><ele>736.0</ele><time>2026-05-02T10:48:05.269Z</time></trkpt><trkpt lat="43.7717917" lon="6.238435"><ele>735.8</ele><time>2026-05-02T10:48:06.269Z</time></trkpt><trkpt lat="43.771695" lon="6.2383667"><ele>735.5999999999999</ele><time>2026-05-02T10:48:07.27Z</time></trkpt><trkpt lat="43.7716033" lon="6.2382883"><ele>735.4</ele><time>2026-05-02T10:48:08.27Z</time></trkpt><trkpt lat="43.771535" lon="6.2381833"><ele>735.2</ele><time>2026-05-02T10:48:09.269Z</time></trkpt><trkpt lat="43.7714867" lon="6.2380583"><ele>735.0</ele><time>2026-05-02T10:48:10.269Z</time></trkpt><trkpt lat="43.77146" lon="6.23793"><ele>734.25</ele><time>2026-05-02T10:48:11.269Z</time></trkpt><trkpt lat="43.7714633" lon="6.2377617"><ele>733.5</ele><time>2026-05-02T10:48:12.269Z</time></trkpt><trkpt lat="43.77145" lon="6.2375833"><ele>732.75</ele><time>2026-05-02T10:48:13.269Z</time></trkpt><trkpt lat="43.77144" lon="6.23741"><ele>732.0</ele><time>2026-05-02T10:48:14.269Z</time></trkpt><trkpt lat="43.7714233" lon="6.237245"><ele>729.75</ele><time>2026-05-02T10:48:15.27Z</time></trkpt><trkpt lat="43.7714167" lon="6.237095"><ele>727.5</ele><time>2026-05-02T10:48:16.269Z</time></trkpt><trkpt lat="43.7714383" lon="6.2369467"><ele>725.25</ele><time>2026-05-02T10:48:17.27Z</time></trkpt><trkpt lat="43.7715" lon="6.2368133"><ele>723.0</ele><time>2026-05-02T10:48:18.269Z</time></trkpt><trkpt lat="43.771595" lon="6.236695"><ele>723.0</ele><time>2026-05-02T10:48:19.269Z</time></trkpt><trkpt lat="43.771705" lon="6.23658"><ele>723.0</ele><time>2026-05-02T10:48:20.27Z</time></trkpt><trkpt lat="43.7718083" lon="6.2364567"><ele>723.0</ele><time>2026-05-02T10:48:21.269Z</time></trkpt><trkpt lat="43.7719167" lon="6.2363417"><ele>723.0</ele><time>2026-05-02T10:48:22.269Z</time></trkpt><trkpt lat="43.7720217" lon="6.2362417"><ele>721.25</ele><time>2026-05-02T10:48:23.269Z</time></trkpt><trkpt lat="43.7721433" lon="6.2361467"><ele>719.5</ele><time>2026-05-02T10:48:24.269Z</time></trkpt><trkpt lat="43.772275" lon="6.2360883"><ele>717.75</ele><time>2026-05-02T10:48:25.269Z</time></trkpt><trkpt lat="43.7724033" lon="6.236055"><ele>716.0</ele><time>2026-05-02T10:48:26.269Z</time></trkpt><trkpt lat="43.7725317" lon="6.2360167"><ele>716.0</ele><time>2026-05-02T10:48:27.27Z</time></trkpt><trkpt lat="43.772655" lon="6.23597"><ele>716.0</ele><time>2026-05-02T10:48:28.269Z</time></trkpt><trkpt lat="43.772775" lon="6.2358983"><ele>716.0</ele><time>2026-05-02T10:48:29.269Z</time></trkpt><trkpt lat="43.7728767" lon="6.2358133"><ele>716.0</ele><time>2026-05-02T10:48:30.269Z</time></trkpt><trkpt lat="43.7729667" lon="6.235715"><ele>713.0</ele><time>2026-05-02T10:48:31.269Z</time></trkpt><trkpt lat="43.7730467" lon="6.2356"><ele>710.0</ele><time>2026-05-02T10:48:32.269Z</time></trkpt><trkpt lat="43.77312" lon="6.23549"><ele>707.0</ele><time>2026-05-02T10:48:33.269Z</time></trkpt><trkpt lat="43.7731967" lon="6.2354"><ele>704.0</ele><time>2026-05-02T10:48:34.269Z</time></trkpt><trkpt lat="43.7732717" lon="6.2353483"><ele>701.0</ele><time>2026-05-02T10:48:35.269Z</time></trkpt><trkpt lat="43.77336" lon="6.235345"><ele>701.0</ele><time>2026-05-02T10:48:36.269Z</time></trkpt><trkpt lat="43.7734417" lon="6.235395"><ele>701.0</ele><time>2026-05-02T10:48:37.269Z</time></trkpt><trkpt lat="43.7735117" lon="6.2354983"><ele>701.0</ele><time>2026-05-02T10:48:38.27Z</time></trkpt><trkpt lat="43.773575" lon="6.23563"><ele>701.0</ele><time>2026-05-02T10:48:39.27Z</time></trkpt><trkpt lat="43.773615" lon="6.235795"><ele>701.0</ele><time>2026-05-02T10:48:40.27Z</time></trkpt><trkpt lat="43.7736567" lon="6.2359583"><ele>699.25</ele><time>2026-05-02T10:48:41.27Z</time></trkpt><trkpt lat="43.773705" lon="6.2361083"><ele>697.5</ele><time>2026-05-02T10:48:42.269Z</time></trkpt><trkpt lat="43.7737617" lon="6.2362383"><ele>695.75</ele><time>2026-05-02T10:48:43.269Z</time></trkpt><trkpt lat="43.7738417" lon="6.2363517"><ele>694.0</ele><time>2026-05-02T10:48:44.269Z</time></trkpt><trkpt lat="43.773935" lon="6.23645"><ele>699.0</ele><time>2026-05-02T10:48:45.269Z</time></trkpt><trkpt lat="43.7740517" lon="6.2365383"><ele>704.0</ele><time>2026-05-02T10:48:46.269Z</time></trkpt><trkpt lat="43.77417" lon="6.2366317"><ele>709.0</ele><time>2026-05-02T10:48:47.27Z</time></trkpt><trkpt lat="43.774265" lon="6.23672"><ele>714.0</ele><time>2026-05-02T10:48:48.269Z</time></trkpt><trkpt lat="43.7743517" lon="6.2368183"><ele>711.6</ele><time>2026-05-02T10:48:49.269Z</time></trkpt><trkpt lat="43.77444" lon="6.2369083"><ele>709.2</ele><time>2026-05-02T10:48:50.269Z</time></trkpt><trkpt lat="43.77453" lon="6.236995"><ele>706.8000000000001</ele><time>2026-05-02T10:48:51.269Z</time></trkpt><trkpt lat="43.7746233" lon="6.2370467"><ele>704.4000000000001</ele><time>2026-05-02T10:48:52.27Z</time></trkpt><trkpt lat="43.774725" lon="6.2370467"><ele>702.0</ele><time>2026-05-02T10:48:53.269Z</time></trkpt><trkpt lat="43.7748467" lon="6.236985"><ele>702.0</ele><time>2026-05-02T10:48:54.269Z</time></trkpt><trkpt lat="43.774975" lon="6.236905"><ele>702.0</ele><time>2026-05-02T10:48:55.27Z</time></trkpt><trkpt lat="43.7750983" lon="6.236835"><ele>702.0</ele><time>2026-05-02T10:48:56.269Z</time></trkpt><trkpt lat="43.7752083" lon="6.236775"><ele>702.0</ele><time>2026-05-02T10:48:57.269Z</time></trkpt><trkpt lat="43.77531" lon="6.2367183"><ele>701.8333333333334</ele><time>2026-05-02T10:48:58.269Z</time></trkpt><trkpt lat="43.7753817" lon="6.2366267"><ele>701.6666666666666</ele><time>2026-05-02T10:48:59.269Z</time></trkpt><trkpt lat="43.7754083" lon="6.2365117"><ele>701.5</ele><time>2026-05-02T10:49:00.269Z</time></trkpt><trkpt lat="43.775405" lon="6.2363883"><ele>701.3333333333333</ele><time>2026-05-02T10:49:01.269Z</time></trkpt><trkpt lat="43.77537" lon="6.2362867"><ele>701.1666666666666</ele><time>2026-05-02T10:49:02.269Z</time></trkpt><trkpt lat="43.7753117" lon="6.2362233"><ele>701.0</ele><time>2026-05-02T10:49:03.27Z</time></trkpt><trkpt lat="43.77523" lon="6.2362067"><ele>701.25</ele><time>2026-05-02T10:49:04.269Z</time></trkpt><trkpt lat="43.7751383" lon="6.23625"><ele>701.5</ele><time>2026-05-02T10:49:05.269Z</time></trkpt><trkpt lat="43.7750417" lon="6.23634"><ele>701.75</ele><time>2026-05-02T10:49:06.269Z</time></trkpt><trkpt lat="43.7749433" lon="6.2364433"><ele>702.0</ele><time>2026-05-02T10:49:07.269Z</time></trkpt><trkpt lat="43.77484" lon="6.2365083"><ele>702.0</ele><time>2026-05-02T10:49:08.269Z</time></trkpt><trkpt lat="43.7747483" lon="6.2365267"><ele>702.0</ele><time>2026-05-02T10:49:09.27Z</time></trkpt><trkpt lat="43.7746517" lon="6.236485"><ele>702.0</ele><time>2026-05-02T10:49:10.269Z</time></trkpt><trkpt lat="43.7745667" lon="6.23642"><ele>702.0</ele><time>2026-05-02T10:49:11.269Z</time></trkpt><trkpt lat="43.7744833" lon="6.236285"><ele>702.0</ele><time>2026-05-02T10:49:12.269Z</time></trkpt><trkpt lat="43.774405" lon="6.2361317"><ele>700.0</ele><time>2026-05-02T10:49:13.269Z</time></trkpt><trkpt lat="43.7743183" lon="6.2359617"><ele>698.0</ele><time>2026-05-02T10:49:14.269Z</time></trkpt><trkpt lat="43.7742383" lon="6.2357983"><ele>696.0</ele><time>2026-05-02T10:49:15.269Z</time></trkpt><trkpt lat="43.774155" lon="6.23565"><ele>694.0</ele><time>2026-05-02T10:49:16.269Z</time></trkpt><trkpt lat="43.77408" lon="6.2355033"><ele>691.5</ele><time>2026-05-02T10:49:17.269Z</time></trkpt><trkpt lat="43.77401" lon="6.2353633"><ele>689.0</ele><time>2026-05-02T10:49:18.269Z</time></trkpt><trkpt lat="43.773945" lon="6.2352167"><ele>686.5</ele><time>2026-05-02T10:49:19.269Z</time></trkpt><trkpt lat="43.7738883" lon="6.2350633"><ele>684.0</ele><time>2026-05-02T10:49:20.269Z</time></trkpt><trkpt lat="43.7738367" lon="6.234905"><ele>681.75</ele><time>2026-05-02T10:49:21.269Z</time></trkpt><trkpt lat="43.773785" lon="6.2347367"><ele>679.5</ele><time>2026-05-02T10:49:22.269Z</time></trkpt><trkpt lat="43.773715" lon="6.2345733"><ele>677.25</ele><time>2026-05-02T10:49:23.269Z</time></trkpt><trkpt lat="43.77363" lon="6.2344033"><ele>675.0</ele><time>2026-05-02T10:49:24.269Z</time></trkpt><trkpt lat="43.7735467" lon="6.2342417"><ele>675.25</ele><time>2026-05-02T10:49:25.269Z</time></trkpt><trkpt lat="43.7734617" lon="6.2340817"><ele>675.5</ele><time>2026-05-02T10:49:26.269Z</time></trkpt><trkpt lat="43.7733833" lon="6.2339317"><ele>675.75</ele><time>2026-05-02T10:49:27.269Z</time></trkpt><trkpt lat="43.7733" lon="6.2337917"><ele>676.0</ele><time>2026-05-02T10:49:28.269Z</time></trkpt><trkpt lat="43.7732233" lon="6.23365"><ele>676.0</ele><time>2026-05-02T10:49:29.269Z</time></trkpt><trkpt lat="43.7731583" lon="6.2335217"><ele>676.0</ele><time>2026-05-02T10:49:30.269Z</time></trkpt><trkpt lat="43.7731033" lon="6.2333717"><ele>676.0</ele><time>2026-05-02T10:49:31.269Z</time></trkpt><trkpt lat="43.7730767" lon="6.2332117"><ele>676.0</ele><time>2026-05-02T10:49:32.269Z</time></trkpt><trkpt lat="43.7730633" lon="6.23305"><ele>675.25</ele><time>2026-05-02T10:49:33.269Z</time></trkpt><trkpt lat="43.77304" lon="6.2328833"><ele>674.5</ele><time>2026-05-02T10:49:34.269Z</time></trkpt><trkpt lat="43.773" lon="6.2327233"><ele>673.75</ele><time>2026-05-02T10:49:35.269Z</time></trkpt><trkpt lat="43.77296" lon="6.23258"><ele>673.0</ele><time>2026-05-02T10:49:36.269Z</time></trkpt><trkpt lat="43.77293" lon="6.232445"><ele>673.0</ele><time>2026-05-02T10:49:37.269Z</time></trkpt><trkpt lat="43.7729317" lon="6.232315"><ele>673.0</ele><time>2026-05-02T10:49:38.269Z</time></trkpt><trkpt lat="43.7729633" lon="6.232195"><ele>673.0</ele><time>2026-05-02T10:49:39.269Z</time></trkpt><trkpt lat="43.773025" lon="6.2321117"><ele>673.0</ele><time>2026-05-02T10:49:40.269Z</time></trkpt><trkpt lat="43.7730967" lon="6.2320667"><ele>673.0</ele><time>2026-05-02T10:49:41.269Z</time></trkpt><trkpt lat="43.7731817" lon="6.2320683"><ele>673.0</ele><time>2026-05-02T10:49:42.269Z</time></trkpt><trkpt lat="43.7732667" lon="6.232135"><ele>673.0</ele><time>2026-05-02T10:49:43.269Z</time></trkpt><trkpt lat="43.77334" lon="6.2322583"><ele>673.0</ele><time>2026-05-02T10:49:44.269Z</time></trkpt><trkpt lat="43.7734017" lon="6.23242"><ele>673.0</ele><time>2026-05-02T10:49:45.269Z</time></trkpt><trkpt lat="43.7734483" lon="6.2325967"><ele>673.0</ele><time>2026-05-02T10:49:46.269Z</time></trkpt><trkpt lat="43.7734933" lon="6.23276"><ele>671.25</ele><time>2026-05-02T10:49:47.269Z</time></trkpt><trkpt lat="43.7735533" lon="6.23289"><ele>669.5</ele><time>2026-05-02T10:49:48.269Z</time></trkpt><trkpt lat="43.7736333" lon="6.2329967"><ele>667.75</ele><time>2026-05-02T10:49:49.269Z</time></trkpt><trkpt lat="43.7737333" lon="6.2330767"><ele>666.0</ele><time>2026-05-02T10:49:50.269Z</time></trkpt><trkpt lat="43.7738417" lon="6.2331517"><ele>666.0</ele><time>2026-05-02T10:49:51.27Z</time></trkpt><trkpt lat="43.77396" lon="6.233225"><ele>666.0</ele><time>2026-05-02T10:49:52.269Z</time></trkpt><trkpt lat="43.7740833" lon="6.2333017"><ele>666.0</ele><time>2026-05-02T10:49:53.269Z</time></trkpt><trkpt lat="43.77421" lon="6.23338"><ele>666.0</ele><time>2026-05-02T10:49:54.27Z</time></trkpt><trkpt lat="43.77434" lon="6.2334483"><ele>665.25</ele><time>2026-05-02T10:49:55.269Z</time></trkpt><trkpt lat="43.7744683" lon="6.2335033"><ele>664.5</ele><time>2026-05-02T10:49:56.269Z</time></trkpt><trkpt lat="43.774595" lon="6.2335317"><ele>663.75</ele><time>2026-05-02T10:49:57.269Z</time></trkpt><trkpt lat="43.7747167" lon="6.2335233"><ele>663.0</ele><time>2026-05-02T10:49:58.269Z</time></trkpt><trkpt lat="43.7748417" lon="6.2334917"><ele>663.0</ele><time>2026-05-02T10:49:59.27Z</time></trkpt><trkpt lat="43.7749733" lon="6.2334317"><ele>663.0</ele><time>2026-05-02T10:50:00.269Z</time></trkpt><trkpt lat="43.7750983" lon="6.23335"><ele>663.0</ele><time>2026-05-02T10:50:01.269Z</time></trkpt><trkpt lat="43.7752183" lon="6.2332433"><ele>663.0</ele><time>2026-05-02T10:50:02.269Z</time></trkpt><trkpt lat="43.7753417" lon="6.2331283"><ele>659.75</ele><time>2026-05-02T10:50:03.269Z</time></trkpt><trkpt lat="43.775475" lon="6.233035"><ele>656.5</ele><time>2026-05-02T10:50:04.27Z</time></trkpt><trkpt lat="43.775605" lon="6.2329667"><ele>653.25</ele><time>2026-05-02T10:50:05.269Z</time></trkpt><trkpt lat="43.7757367" lon="6.2329183"><ele>650.0</ele><time>2026-05-02T10:50:06.269Z</time></trkpt><trkpt lat="43.7758633" lon="6.2328667"><ele>650.0</ele><time>2026-05-02T10:50:07.269Z</time></trkpt><trkpt lat="43.7759833" lon="6.232825"><ele>650.0</ele><time>2026-05-02T10:50:08.269Z</time></trkpt><trkpt lat="43.7761017" lon="6.2327733"><ele>650.0</ele><time>2026-05-02T10:50:09.269Z</time></trkpt><trkpt lat="43.7762217" lon="6.23273"><ele>650.0</ele><time>2026-05-02T10:50:10.27Z</time></trkpt><trkpt lat="43.776325" lon="6.2326867"><ele>649.0</ele><time>2026-05-02T10:50:11.268Z</time></trkpt><trkpt lat="43.7764283" lon="6.2326533"><ele>648.0</ele><time>2026-05-02T10:50:12.268Z</time></trkpt><trkpt lat="43.7765417" lon="6.2326567"><ele>647.0</ele><time>2026-05-02T10:50:13.268Z</time></trkpt><trkpt lat="43.77665" lon="6.2327117"><ele>646.0</ele><time>2026-05-02T10:50:14.268Z</time></trkpt><trkpt lat="43.77675" lon="6.2328"><ele>646.0</ele><time>2026-05-02T10:50:15.268Z</time></trkpt><trkpt lat="43.7768383" lon="6.2329167"><ele>646.0</ele><time>2026-05-02T10:50:16.268Z</time></trkpt><trkpt lat="43.776915" lon="6.2330333"><ele>646.0</ele><time>2026-05-02T10:50:17.268Z</time></trkpt><trkpt lat="43.77699" lon="6.233155"><ele>646.0</ele><time>2026-05-02T10:50:18.268Z</time></trkpt><trkpt lat="43.7770617" lon="6.2332667"><ele>645.8333333333334</ele><time>2026-05-02T10:50:19.268Z</time></trkpt><trkpt lat="43.77712" lon="6.2333517"><ele>645.6666666666667</ele><time>2026-05-02T10:50:20.268Z</time></trkpt><trkpt lat="43.7771783" lon="6.2334183"><ele>645.5</ele><time>2026-05-02T10:50:21.268Z</time></trkpt><trkpt lat="43.777245" lon="6.2334417"><ele>645.3333333333334</ele><time>2026-05-02T10:50:22.268Z</time></trkpt><trkpt lat="43.77731" lon="6.2334483"><ele>645.1666666666666</ele><time>2026-05-02T10:50:23.268Z</time></trkpt><trkpt lat="43.7773833" lon="6.2334033"><ele>645.0</ele><time>2026-05-02T10:50:24.269Z</time></trkpt><trkpt lat="43.7774383" lon="6.23333"><ele>645.0</ele><time>2026-05-02T10:50:25.268Z</time></trkpt><trkpt lat="43.7774733" lon="6.2332367"><ele>645.0</ele><time>2026-05-02T10:50:26.268Z</time></trkpt><trkpt lat="43.7774917" lon="6.23313"><ele>645.0</ele><time>2026-05-02T10:50:27.269Z</time></trkpt><trkpt lat="43.7774983" lon="6.2330067"><ele>645.0</ele><time>2026-05-02T10:50:28.268Z</time></trkpt><trkpt lat="43.777505" lon="6.23289"><ele>645.0</ele><time>2026-05-02T10:50:29.268Z</time></trkpt><trkpt lat="43.7775217" lon="6.2327833"><ele>645.0</ele><time>2026-05-02T10:50:30.268Z</time></trkpt><trkpt lat="43.77755" lon="6.2326867"><ele>644.0</ele><time>2026-05-02T10:50:31.268Z</time></trkpt><trkpt lat="43.777595" lon="6.2326133"><ele>643.0</ele><time>2026-05-02T10:50:32.268Z</time></trkpt><trkpt lat="43.7776533" lon="6.232565"><ele>642.0</ele><time>2026-05-02T10:50:33.268Z</time></trkpt><trkpt lat="43.7777233" lon="6.2325383"><ele>641.0</ele><time>2026-05-02T10:50:34.268Z</time></trkpt><trkpt lat="43.7777933" lon="6.23252"><ele>640.0</ele><time>2026-05-02T10:50:35.268Z</time></trkpt><trkpt lat="43.7778667" lon="6.2325217"><ele>639.0</ele><time>2026-05-02T10:50:36.269Z</time></trkpt><trkpt lat="43.7779517" lon="6.2325283"><ele>638.0</ele><time>2026-05-02T10:50:37.268Z</time></trkpt><trkpt lat="43.77805" lon="6.2325367"><ele>637.1666666666666</ele><time>2026-05-02T10:50:38.268Z</time></trkpt><trkpt lat="43.7781417" lon="6.2325467"><ele>636.3333333333333</ele><time>2026-05-02T10:50:39.268Z</time></trkpt><trkpt lat="43.7782333" lon="6.23256"><ele>635.5</ele><time>2026-05-02T10:50:40.269Z</time></trkpt><trkpt lat="43.7783183" lon="6.2325683"><ele>634.6666666666666</ele><time>2026-05-02T10:50:41.268Z</time></trkpt><trkpt lat="43.7783983" lon="6.2325733"><ele>633.8333333333334</ele><time>2026-05-02T10:50:42.268Z</time></trkpt><trkpt lat="43.778475" lon="6.2325783"><ele>633.0</ele><time>2026-05-02T10:50:43.268Z</time></trkpt><trkpt lat="43.7785533" lon="6.23258"><ele>631.6666666666666</ele><time>2026-05-02T10:50:44.268Z</time></trkpt><trkpt lat="43.7786383" lon="6.23259"><ele>630.3333333333334</ele><time>2026-05-02T10:50:45.268Z</time></trkpt><trkpt lat="43.778715" lon="6.2326233"><ele>629.0</ele><time>2026-05-02T10:50:46.268Z</time></trkpt><trkpt lat="43.778775" lon="6.2326933"><ele>627.6666666666667</ele><time>2026-05-02T10:50:47.268Z</time></trkpt><trkpt lat="43.7788133" lon="6.2327867"><ele>626.3333333333334</ele><time>2026-05-02T10:50:48.268Z</time></trkpt><trkpt lat="43.7788333" lon="6.2328867"><ele>625.0</ele><time>2026-05-02T10:50:49.269Z</time></trkpt><trkpt lat="43.7788417" lon="6.2329917"><ele>625.0000000000001</ele><time>2026-05-02T10:50:50.268Z</time></trkpt><trkpt lat="43.7788567" lon="6.2330833"><ele>625.0</ele><time>2026-05-02T10:50:51.269Z</time></trkpt><trkpt lat="43.7788833" lon="6.233175"><ele>625.0</ele><time>2026-05-02T10:50:52.268Z</time></trkpt><trkpt lat="43.7789233" lon="6.233245"><ele>625.0</ele><time>2026-05-02T10:50:53.268Z</time></trkpt><trkpt lat="43.778975" lon="6.2333017"><ele>625.0</ele><time>2026-05-02T10:50:54.268Z</time></trkpt><trkpt lat="43.7790417" lon="6.2333317"><ele>625.0000000000001</ele><time>2026-05-02T10:50:55.268Z</time></trkpt><trkpt lat="43.7791133" lon="6.233325"><ele>625.0</ele><time>2026-05-02T10:50:56.268Z</time></trkpt><trkpt lat="43.7792" lon="6.23327"><ele>625.0</ele><time>2026-05-02T10:50:57.268Z</time></trkpt><trkpt lat="43.77927" lon="6.2331817"><ele>625.0</ele><time>2026-05-02T10:50:58.268Z</time></trkpt><trkpt lat="43.7793333" lon="6.2330733"><ele>625.0</ele><time>2026-05-02T10:50:59.268Z</time></trkpt><trkpt lat="43.7793883" lon="6.2329683"><ele>625.0</ele><time>2026-05-02T10:51:00.268Z</time></trkpt><trkpt lat="43.7794467" lon="6.2328633"><ele>625.0</ele><time>2026-05-02T10:51:01.268Z</time></trkpt><trkpt lat="43.7795067" lon="6.23276"><ele>624.8333333333334</ele><time>2026-05-02T10:51:02.268Z</time></trkpt><trkpt lat="43.7795617" lon="6.2326583"><ele>624.6666666666667</ele><time>2026-05-02T10:51:03.269Z</time></trkpt><trkpt lat="43.7796183" lon="6.2325567"><ele>624.5</ele><time>2026-05-02T10:51:04.268Z</time></trkpt><trkpt lat="43.7796867" lon="6.232485"><ele>624.3333333333334</ele><time>2026-05-02T10:51:05.269Z</time></trkpt><trkpt lat="43.7797633" lon="6.2324467"><ele>624.1666666666666</ele><time>2026-05-02T10:51:06.268Z</time></trkpt><trkpt lat="43.77985" lon="6.2324283"><ele>624.0</ele><time>2026-05-02T10:51:07.268Z</time></trkpt><trkpt lat="43.779935" lon="6.232445"><ele>624.0</ele><time>2026-05-02T10:51:08.268Z</time></trkpt><trkpt lat="43.780015" lon="6.2324667"><ele>624.0</ele><time>2026-05-02T10:51:09.268Z</time></trkpt><trkpt lat="43.7800883" lon="6.2324867"><ele>624.0</ele><time>2026-05-02T10:51:10.268Z</time></trkpt><trkpt lat="43.7801567" lon="6.2324983"><ele>624.0</ele><time>2026-05-02T10:51:11.268Z</time></trkpt><trkpt lat="43.7802717" lon="6.2324633"><ele>624.0</ele><time>2026-05-02T10:51:13.268Z</time></trkpt><trkpt lat="43.780325" lon="6.2324067"><ele>624.0</ele><time>2026-05-02T10:51:14.268Z</time></trkpt><trkpt lat="43.7803733" lon="6.2323333"><ele>622.0</ele><time>2026-05-02T10:51:15.268Z</time></trkpt><trkpt lat="43.78041" lon="6.23225"><ele>620.0</ele><time>2026-05-02T10:51:16.268Z</time></trkpt><trkpt lat="43.780445" lon="6.2321633"><ele>618.0</ele><time>2026-05-02T10:51:17.268Z</time></trkpt><trkpt lat="43.780485" lon="6.23209"><ele>616.0</ele><time>2026-05-02T10:51:18.268Z</time></trkpt><trkpt lat="43.780545" lon="6.23203"><ele>614.0</ele><time>2026-05-02T10:51:19.268Z</time></trkpt><trkpt lat="43.7806067" lon="6.2319933"><ele>612.0</ele><time>2026-05-02T10:51:20.269Z</time></trkpt><trkpt lat="43.78072" lon="6.2320183"><ele>612.0</ele><time>2026-05-02T10:51:22.268Z</time></trkpt><trkpt lat="43.78082" lon="6.2321467"><ele>612.0</ele><time>2026-05-02T10:51:24.269Z</time></trkpt><trkpt lat="43.7808633" lon="6.2322317"><ele>612.0</ele><time>2026-05-02T10:51:25.268Z</time></trkpt><trkpt lat="43.7808967" lon="6.232335"><ele>612.0</ele><time>2026-05-02T10:51:26.268Z</time></trkpt><trkpt lat="43.78092" lon="6.2324483"><ele>612.0</ele><time>2026-05-02T10:51:27.268Z</time></trkpt><trkpt lat="43.7809317" lon="6.2325633"><ele>611.8333333333334</ele><time>2026-05-02T10:51:28.268Z</time></trkpt><trkpt lat="43.78095" lon="6.2326633"><ele>611.6666666666666</ele><time>2026-05-02T10:51:29.269Z</time></trkpt><trkpt lat="43.78099" lon="6.2327467"><ele>611.5</ele><time>2026-05-02T10:51:30.268Z</time></trkpt><trkpt lat="43.78104" lon="6.2328167"><ele>611.3333333333333</ele><time>2026-05-02T10:51:31.268Z</time></trkpt><trkpt lat="43.781095" lon="6.23287"><ele>611.1666666666666</ele><time>2026-05-02T10:51:32.269Z</time></trkpt><trkpt lat="43.781155" lon="6.2329"><ele>611.0</ele><time>2026-05-02T10:51:33.268Z</time></trkpt><trkpt lat="43.781265" lon="6.2329067"><ele>611.0</ele><time>2026-05-02T10:51:35.268Z</time></trkpt><trkpt lat="43.7813817" lon="6.232835"><ele>611.0</ele><time>2026-05-02T10:51:37.268Z</time></trkpt><trkpt lat="43.7814267" lon="6.2326783"><ele>611.0</ele><time>2026-05-02T10:51:39.268Z</time></trkpt><trkpt lat="43.781415" lon="6.2325883"><ele>611.0</ele><time>2026-05-02T10:51:40.268Z</time></trkpt><trkpt lat="43.781375" lon="6.2324167"><ele>611.0</ele><time>2026-05-02T10:51:42.269Z</time></trkpt><trkpt lat="43.7813567" lon="6.2323283"><ele>609.5</ele><time>2026-05-02T10:51:43.268Z</time></trkpt><trkpt lat="43.7813417" lon="6.2322283"><ele>608.0</ele><time>2026-05-02T10:51:44.268Z</time></trkpt><trkpt lat="43.7813133" lon="6.23213"><ele>606.5</ele><time>2026-05-02T10:51:45.268Z</time></trkpt><trkpt lat="43.7812633" lon="6.2320433"><ele>605.0</ele><time>2026-05-02T10:51:46.268Z</time></trkpt><trkpt lat="43.78121" lon="6.231965"><ele>603.5</ele><time>2026-05-02T10:51:47.268Z</time></trkpt><trkpt lat="43.7811633" lon="6.2318883"><ele>602.0</ele><time>2026-05-02T10:51:48.269Z</time></trkpt><trkpt lat="43.7811217" lon="6.23181"><ele>602.0</ele><time>2026-05-02T10:51:49.268Z</time></trkpt><trkpt lat="43.781055" lon="6.23169"><ele>602.0</ele><time>2026-05-02T10:51:51.269Z</time></trkpt><trkpt lat="43.7810083" lon="6.23163"><ele>602.0</ele><time>2026-05-02T10:51:52.268Z</time></trkpt><trkpt lat="43.7809533" lon="6.2315733"><ele>602.0</ele><time>2026-05-02T10:51:53.268Z</time></trkpt><trkpt lat="43.7808867" lon="6.2315317"><ele>602.0</ele><time>2026-05-02T10:51:54.268Z</time></trkpt><trkpt lat="43.78081" lon="6.2315067"><ele>602.0</ele><time>2026-05-02T10:51:55.268Z</time></trkpt><trkpt lat="43.7807333" lon="6.2314933"><ele>603.0</ele><time>2026-05-02T10:51:56.268Z</time></trkpt><trkpt lat="43.7806617" lon="6.2314817"><ele>604.0</ele><time>2026-05-02T10:51:57.268Z</time></trkpt><trkpt lat="43.7805983" lon="6.23146"><ele>605.0</ele><time>2026-05-02T10:51:58.268Z</time></trkpt><trkpt lat="43.7805383" lon="6.2314133"><ele>606.0</ele><time>2026-05-02T10:51:59.269Z</time></trkpt><trkpt lat="43.7805" lon="6.23134"><ele>607.0</ele><time>2026-05-02T10:52:00.269Z</time></trkpt><trkpt lat="43.7804967" lon="6.2311717"><ele>608.0</ele><time>2026-05-02T10:52:02.268Z</time></trkpt><trkpt lat="43.78053" lon="6.2310917"><ele>608.0</ele><time>2026-05-02T10:52:03.268Z</time></trkpt><trkpt lat="43.78058" lon="6.2310267"><ele>608.0</ele><time>2026-05-02T10:52:04.268Z</time></trkpt><trkpt lat="43.7806467" lon="6.2309717"><ele>608.0</ele><time>2026-05-02T10:52:05.268Z</time></trkpt><trkpt lat="43.78072" lon="6.230905"><ele>608.0</ele><time>2026-05-02T10:52:06.269Z</time></trkpt><trkpt lat="43.780805" lon="6.2308417"><ele>608.0</ele><time>2026-05-02T10:52:07.268Z</time></trkpt><trkpt lat="43.7808967" lon="6.2307667"><ele>608.0</ele><time>2026-05-02T10:52:08.268Z</time></trkpt><trkpt lat="43.7809833" lon="6.2306783"><ele>605.6</ele><time>2026-05-02T10:52:09.268Z</time></trkpt><trkpt lat="43.7810533" lon="6.2305883"><ele>603.1999999999999</ele><time>2026-05-02T10:52:10.268Z</time></trkpt><trkpt lat="43.7811267" lon="6.2304717"><ele>600.8</ele><time>2026-05-02T10:52:11.268Z</time></trkpt><trkpt lat="43.7811967" lon="6.2303683"><ele>598.4</ele><time>2026-05-02T10:52:12.269Z</time></trkpt><trkpt lat="43.7812717" lon="6.2302733"><ele>596.0</ele><time>2026-05-02T10:52:13.268Z</time></trkpt><trkpt lat="43.7813533" lon="6.2301817"><ele>596.0</ele><time>2026-05-02T10:52:14.269Z</time></trkpt><trkpt lat="43.7814317" lon="6.230085"><ele>596.0</ele><time>2026-05-02T10:52:15.268Z</time></trkpt><trkpt lat="43.7815017" lon="6.2299917"><ele>596.0</ele><time>2026-05-02T10:52:16.268Z</time></trkpt><trkpt lat="43.7815633" lon="6.2299"><ele>596.0</ele><time>2026-05-02T10:52:17.268Z</time></trkpt><trkpt lat="43.7816233" lon="6.2298067"><ele>596.0</ele><time>2026-05-02T10:52:18.268Z</time></trkpt><trkpt lat="43.7816767" lon="6.2297083"><ele>596.0</ele><time>2026-05-02T10:52:19.268Z</time></trkpt><trkpt lat="43.7817233" lon="6.229605"><ele>596.0</ele><time>2026-05-02T10:52:20.268Z</time></trkpt><trkpt lat="43.7817567" lon="6.2295117"><ele>596.0</ele><time>2026-05-02T10:52:21.268Z</time></trkpt><trkpt lat="43.781775" lon="6.2294183"><ele>596.0</ele><time>2026-05-02T10:52:22.268Z</time></trkpt><trkpt lat="43.78177" lon="6.2293267"><ele>596.0</ele><time>2026-05-02T10:52:23.268Z</time></trkpt><trkpt lat="43.781705" lon="6.2292167"><ele>596.0</ele><time>2026-05-02T10:52:25.268Z</time></trkpt><trkpt lat="43.7815817" lon="6.2292283"><ele>596.0</ele><time>2026-05-02T10:52:27.268Z</time></trkpt><trkpt lat="43.7814967" lon="6.2292517"><ele>596.0</ele><time>2026-05-02T10:52:28.268Z</time></trkpt><trkpt lat="43.7813917" lon="6.2292767"><ele>596.0</ele><time>2026-05-02T10:52:29.269Z</time></trkpt><trkpt lat="43.78127" lon="6.229295"><ele>596.0</ele><time>2026-05-02T10:52:30.268Z</time></trkpt><trkpt lat="43.7811483" lon="6.2293033"><ele>596.0</ele><time>2026-05-02T10:52:31.268Z</time></trkpt><trkpt lat="43.78103" lon="6.22928"><ele>596.2</ele><time>2026-05-02T10:52:32.268Z</time></trkpt><trkpt lat="43.7809217" lon="6.2292383"><ele>596.4000000000001</ele><time>2026-05-02T10:52:33.268Z</time></trkpt><trkpt lat="43.780815" lon="6.229185"><ele>596.6</ele><time>2026-05-02T10:52:34.268Z</time></trkpt><trkpt lat="43.7807183" lon="6.2291333"><ele>596.8000000000001</ele><time>2026-05-02T10:52:35.269Z</time></trkpt><trkpt lat="43.7806183" lon="6.2290983"><ele>597.0</ele><time>2026-05-02T10:52:36.268Z</time></trkpt><trkpt lat="43.7805133" lon="6.2290883"><ele>597.0</ele><time>2026-05-02T10:52:37.268Z</time></trkpt><trkpt lat="43.7804033" lon="6.2290983"><ele>597.0</ele><time>2026-05-02T10:52:38.268Z</time></trkpt><trkpt lat="43.7803017" lon="6.2291"><ele>597.0</ele><time>2026-05-02T10:52:39.268Z</time></trkpt><trkpt lat="43.7802" lon="6.2290967"><ele>597.0</ele><time>2026-05-02T10:52:40.268Z</time></trkpt><trkpt lat="43.7800933" lon="6.2290833"><ele>597.0</ele><time>2026-05-02T10:52:41.268Z</time></trkpt><trkpt lat="43.779995" lon="6.2290567"><ele>597.2</ele><time>2026-05-02T10:52:42.268Z</time></trkpt><trkpt lat="43.7798883" lon="6.229025"><ele>597.4000000000001</ele><time>2026-05-02T10:52:43.268Z</time></trkpt><trkpt lat="43.7797867" lon="6.228985"><ele>597.5999999999999</ele><time>2026-05-02T10:52:44.268Z</time></trkpt><trkpt lat="43.7796917" lon="6.22894"><ele>597.8</ele><time>2026-05-02T10:52:45.268Z</time></trkpt><trkpt lat="43.7796017" lon="6.2288933"><ele>598.0</ele><time>2026-05-02T10:52:46.268Z</time></trkpt><trkpt lat="43.7795133" lon="6.2288517"><ele>597.6666666666667</ele><time>2026-05-02T10:52:47.268Z</time></trkpt><trkpt lat="43.779435" lon="6.2287883"><ele>597.3333333333334</ele><time>2026-05-02T10:52:48.268Z</time></trkpt><trkpt lat="43.7793767" lon="6.2287117"><ele>597.0</ele><time>2026-05-02T10:52:49.268Z</time></trkpt><trkpt lat="43.7793333" lon="6.2286133"><ele>596.6666666666666</ele><time>2026-05-02T10:52:50.268Z</time></trkpt><trkpt lat="43.7793217" lon="6.2284983"><ele>596.3333333333333</ele><time>2026-05-02T10:52:51.268Z</time></trkpt><trkpt lat="43.7793217" lon="6.2283633"><ele>596.0</ele><time>2026-05-02T10:52:52.269Z</time></trkpt><trkpt lat="43.7793017" lon="6.2282267"><ele>593.4</ele><time>2026-05-02T10:52:53.268Z</time></trkpt><trkpt lat="43.7792683" lon="6.2280883"><ele>590.8</ele><time>2026-05-02T10:52:54.268Z</time></trkpt><trkpt lat="43.7792183" lon="6.2279717"><ele>588.1999999999999</ele><time>2026-05-02T10:52:55.268Z</time></trkpt><trkpt lat="43.7791483" lon="6.22786"><ele>585.6</ele><time>2026-05-02T10:52:56.268Z</time></trkpt><trkpt lat="43.77908" lon="6.22777"><ele>583.0</ele><time>2026-05-02T10:52:57.268Z</time></trkpt><trkpt lat="43.779005" lon="6.2276783"><ele>583.0</ele><time>2026-05-02T10:52:58.268Z</time></trkpt><trkpt lat="43.778935" lon="6.2276017"><ele>583.0</ele><time>2026-05-02T10:52:59.268Z</time></trkpt><trkpt lat="43.7788783" lon="6.2275217"><ele>583.0</ele><time>2026-05-02T10:53:00.268Z</time></trkpt><trkpt lat="43.7788283" lon="6.22743"><ele>583.0</ele><time>2026-05-02T10:53:01.268Z</time></trkpt><trkpt lat="43.77879" lon="6.2273267"><ele>583.0</ele><time>2026-05-02T10:53:02.268Z</time></trkpt><trkpt lat="43.7787767" lon="6.2272117"><ele>583.0</ele><time>2026-05-02T10:53:03.268Z</time></trkpt><trkpt lat="43.77878" lon="6.2271017"><ele>581.6666666666667</ele><time>2026-05-02T10:53:04.268Z</time></trkpt><trkpt lat="43.7787967" lon="6.2269883"><ele>580.3333333333334</ele><time>2026-05-02T10:53:05.268Z</time></trkpt><trkpt lat="43.7788033" lon="6.2268833"><ele>579.0</ele><time>2026-05-02T10:53:06.268Z</time></trkpt><trkpt lat="43.7788017" lon="6.22678"><ele>577.6666666666666</ele><time>2026-05-02T10:53:07.268Z</time></trkpt><trkpt lat="43.77879" lon="6.22665"><ele>576.3333333333333</ele><time>2026-05-02T10:53:09.268Z</time></trkpt><trkpt lat="43.7787667" lon="6.2265383"><ele>575.0</ele><time>2026-05-02T10:53:12.268Z</time></trkpt><trkpt lat="43.77874" lon="6.2264517"><ele>575.0</ele><time>2026-05-02T10:53:15.268Z</time></trkpt><trkpt lat="43.77871" lon="6.22636"><ele>575.0</ele><time>2026-05-02T10:53:17.269Z</time></trkpt><trkpt lat="43.7786717" lon="6.2262383"><ele>575.0</ele><time>2026-05-02T10:53:19.269Z</time></trkpt><trkpt lat="43.778655" lon="6.2261533"><ele>575.0</ele><time>2026-05-02T10:53:20.269Z</time></trkpt><trkpt lat="43.77864" lon="6.2260667"><ele>575.0</ele><time>2026-05-02T10:53:21.268Z</time></trkpt><trkpt lat="43.7786217" lon="6.22591"><ele>575.0</ele><time>2026-05-02T10:53:23.269Z</time></trkpt><trkpt lat="43.7786133" lon="6.225765"><ele>577.2</ele><time>2026-05-02T10:53:25.268Z</time></trkpt><trkpt lat="43.778605" lon="6.2256283"><ele>579.4</ele><time>2026-05-02T10:53:27.268Z</time></trkpt><trkpt lat="43.7786067" lon="6.225485"><ele>581.6</ele><time>2026-05-02T10:53:29.268Z</time></trkpt><trkpt lat="43.7786067" lon="6.2253183"><ele>583.8</ele><time>2026-05-02T10:53:31.268Z</time></trkpt><trkpt lat="43.7785917" lon="6.2252283"><ele>586.0</ele><time>2026-05-02T10:53:32.268Z</time></trkpt><trkpt lat="43.7785717" lon="6.225145"><ele>585.8</ele><time>2026-05-02T10:53:33.268Z</time></trkpt><trkpt lat="43.7785017" lon="6.224995"><ele>585.6</ele><time>2026-05-02T10:53:35.268Z</time></trkpt><trkpt lat="43.7784333" lon="6.22492"><ele>585.4</ele><time>2026-05-02T10:53:36.268Z</time></trkpt><trkpt lat="43.7783617" lon="6.2248467"><ele>585.2</ele><time>2026-05-02T10:53:37.268Z</time></trkpt><trkpt lat="43.77828" lon="6.22478"><ele>585.0</ele><time>2026-05-02T10:53:38.268Z</time></trkpt><trkpt lat="43.7782017" lon="6.224705"><ele>585.0</ele><time>2026-05-02T10:53:39.269Z</time></trkpt><trkpt lat="43.778125" lon="6.2246233"><ele>585.0</ele><time>2026-05-02T10:53:40.268Z</time></trkpt><trkpt lat="43.778055" lon="6.2245483"><ele>585.0</ele><time>2026-05-02T10:53:41.268Z</time></trkpt><trkpt lat="43.77799" lon="6.22448"><ele>585.0</ele><time>2026-05-02T10:53:42.269Z</time></trkpt><trkpt lat="43.77793" lon="6.224415"><ele>585.0</ele><time>2026-05-02T10:53:43.268Z</time></trkpt><trkpt lat="43.7778767" lon="6.2243533"><ele>585.0</ele><time>2026-05-02T10:53:44.268Z</time></trkpt><trkpt lat="43.7778267" lon="6.2242867"><ele>585.0</ele><time>2026-05-02T10:53:45.268Z</time></trkpt><trkpt lat="43.7777817" lon="6.2242167"><ele>585.0</ele><time>2026-05-02T10:53:46.268Z</time></trkpt><trkpt lat="43.7777233" lon="6.2240617"><ele>585.0</ele><time>2026-05-02T10:53:48.268Z</time></trkpt><trkpt lat="43.7776967" lon="6.223965"><ele>585.0</ele><time>2026-05-02T10:53:49.268Z</time></trkpt><trkpt lat="43.7776617" lon="6.223855"><ele>585.0</ele><time>2026-05-02T10:53:50.268Z</time></trkpt><trkpt lat="43.7776283" lon="6.2237367"><ele>585.0</ele><time>2026-05-02T10:53:51.268Z</time></trkpt><trkpt lat="43.7775967" lon="6.22362"><ele>581.8</ele><time>2026-05-02T10:53:52.268Z</time></trkpt><trkpt lat="43.77756" lon="6.22351"><ele>578.6</ele><time>2026-05-02T10:53:53.268Z</time></trkpt><trkpt lat="43.77753" lon="6.2234"><ele>575.4</ele><time>2026-05-02T10:53:54.268Z</time></trkpt><trkpt lat="43.777495" lon="6.22329"><ele>572.2</ele><time>2026-05-02T10:53:55.268Z</time></trkpt><trkpt lat="43.7774667" lon="6.2231933"><ele>569.0</ele><time>2026-05-02T10:53:56.268Z</time></trkpt><trkpt lat="43.7774317" lon="6.2230283"><ele>568.8333333333333</ele><time>2026-05-02T10:53:58.268Z</time></trkpt><trkpt lat="43.7774133" lon="6.2229333"><ele>568.6666666666666</ele><time>2026-05-02T10:53:59.268Z</time></trkpt><trkpt lat="43.77738" lon="6.2228233"><ele>568.5</ele><time>2026-05-02T10:54:00.268Z</time></trkpt><trkpt lat="43.777345" lon="6.22271"><ele>568.3333333333334</ele><time>2026-05-02T10:54:01.268Z</time></trkpt><trkpt lat="43.777305" lon="6.2226017"><ele>568.1666666666667</ele><time>2026-05-02T10:54:02.268Z</time></trkpt><trkpt lat="43.77724" lon="6.2225"><ele>568.0</ele><time>2026-05-02T10:54:03.268Z</time></trkpt><trkpt lat="43.7771667" lon="6.2224033"><ele>567.4</ele><time>2026-05-02T10:54:04.268Z</time></trkpt><trkpt lat="43.7771017" lon="6.22231"><ele>566.8</ele><time>2026-05-02T10:54:05.268Z</time></trkpt><trkpt lat="43.7770367" lon="6.2222167"><ele>566.2</ele><time>2026-05-02T10:54:06.268Z</time></trkpt><trkpt lat="43.776965" lon="6.22213"><ele>565.6</ele><time>2026-05-02T10:54:07.268Z</time></trkpt><trkpt lat="43.77689" lon="6.222055"><ele>565.0</ele><time>2026-05-02T10:54:08.268Z</time></trkpt><trkpt lat="43.776815" lon="6.22199"><ele>563.3333333333334</ele><time>2026-05-02T10:54:09.268Z</time></trkpt><trkpt lat="43.77674" lon="6.2219217"><ele>561.6666666666667</ele><time>2026-05-02T10:54:10.268Z</time></trkpt><trkpt lat="43.776665" lon="6.2218483"><ele>560.0</ele><time>2026-05-02T10:54:11.268Z</time></trkpt><trkpt lat="43.77661" lon="6.2217633"><ele>558.3333333333334</ele><time>2026-05-02T10:54:12.268Z</time></trkpt><trkpt lat="43.776565" lon="6.2216633"><ele>556.6666666666666</ele><time>2026-05-02T10:54:13.268Z</time></trkpt><trkpt lat="43.77654" lon="6.2215517"><ele>555.0</ele><time>2026-05-02T10:54:14.268Z</time></trkpt><trkpt lat="43.77653" lon="6.22144"><ele>554.3333333333334</ele><time>2026-05-02T10:54:15.269Z</time></trkpt><trkpt lat="43.776535" lon="6.221325"><ele>553.6666666666666</ele><time>2026-05-02T10:54:16.268Z</time></trkpt><trkpt lat="43.776555" lon="6.2212167"><ele>553.0</ele><time>2026-05-02T10:54:17.268Z</time></trkpt><trkpt lat="43.7765967" lon="6.2211217"><ele>552.3333333333333</ele><time>2026-05-02T10:54:18.268Z</time></trkpt><trkpt lat="43.7766633" lon="6.2210417"><ele>551.6666666666666</ele><time>2026-05-02T10:54:19.269Z</time></trkpt><trkpt lat="43.7767333" lon="6.2209567"><ele>551.0</ele><time>2026-05-02T10:54:20.268Z</time></trkpt><trkpt lat="43.7768067" lon="6.2208833"><ele>550.6</ele><time>2026-05-02T10:54:21.268Z</time></trkpt><trkpt lat="43.7768833" lon="6.2208033"><ele>550.2</ele><time>2026-05-02T10:54:22.268Z</time></trkpt><trkpt lat="43.7769617" lon="6.22071"><ele>549.8</ele><time>2026-05-02T10:54:23.268Z</time></trkpt><trkpt lat="43.7770383" lon="6.2206133"><ele>549.4</ele><time>2026-05-02T10:54:24.268Z</time></trkpt><trkpt lat="43.777115" lon="6.22051"><ele>549.0</ele><time>2026-05-02T10:54:25.268Z</time></trkpt><trkpt lat="43.7771867" lon="6.2203967"><ele>549.0</ele><time>2026-05-02T10:54:26.268Z</time></trkpt><trkpt lat="43.7772383" lon="6.2202867"><ele>549.0</ele><time>2026-05-02T10:54:27.268Z</time></trkpt><trkpt lat="43.7772883" lon="6.2201683"><ele>549.0</ele><time>2026-05-02T10:54:28.268Z</time></trkpt><trkpt lat="43.777335" lon="6.2200417"><ele>549.0</ele><time>2026-05-02T10:54:29.268Z</time></trkpt><trkpt lat="43.7773833" lon="6.2199067"><ele>549.0</ele><time>2026-05-02T10:54:30.268Z</time></trkpt><trkpt lat="43.77743" lon="6.21978"><ele>549.0</ele><time>2026-05-02T10:54:31.268Z</time></trkpt><trkpt lat="43.7774767" lon="6.2196483"><ele>549.0</ele><time>2026-05-02T10:54:32.268Z</time></trkpt><trkpt lat="43.7775333" lon="6.219515"><ele>549.0</ele><time>2026-05-02T10:54:33.268Z</time></trkpt><trkpt lat="43.777595" lon="6.2193883"><ele>549.0</ele><time>2026-05-02T10:54:34.269Z</time></trkpt><trkpt lat="43.7776683" lon="6.2192617"><ele>549.0</ele><time>2026-05-02T10:54:35.268Z</time></trkpt><trkpt lat="43.7777533" lon="6.2191467"><ele>549.0</ele><time>2026-05-02T10:54:36.268Z</time></trkpt><trkpt lat="43.7778367" lon="6.2190317"><ele>549.0</ele><time>2026-05-02T10:54:37.268Z</time></trkpt><trkpt lat="43.77792" lon="6.2189117"><ele>549.0</ele><time>2026-05-02T10:54:38.268Z</time></trkpt><trkpt lat="43.7779933" lon="6.2188"><ele>549.0</ele><time>2026-05-02T10:54:39.268Z</time></trkpt><trkpt lat="43.7780567" lon="6.21869"><ele>549.0</ele><time>2026-05-02T10:54:40.268Z</time></trkpt><trkpt lat="43.778115" lon="6.2185783"><ele>548.1666666666666</ele><time>2026-05-02T10:54:41.268Z</time></trkpt><trkpt lat="43.7781733" lon="6.2184783"><ele>547.3333333333334</ele><time>2026-05-02T10:54:42.268Z</time></trkpt><trkpt lat="43.778235" lon="6.2183817"><ele>546.5</ele><time>2026-05-02T10:54:43.268Z</time></trkpt><trkpt lat="43.7783033" lon="6.218305"><ele>545.6666666666667</ele><time>2026-05-02T10:54:44.268Z</time></trkpt><trkpt lat="43.7783783" lon="6.2182567"><ele>544.8333333333334</ele><time>2026-05-02T10:54:45.268Z</time></trkpt><trkpt lat="43.7784517" lon="6.218235"><ele>544.0</ele><time>2026-05-02T10:54:46.268Z</time></trkpt><trkpt lat="43.7785383" lon="6.2182333"><ele>544.0</ele><time>2026-05-02T10:54:47.268Z</time></trkpt><trkpt lat="43.778615" lon="6.218235"><ele>544.0</ele><time>2026-05-02T10:54:48.268Z</time></trkpt><trkpt lat="43.7786967" lon="6.2182367"><ele>544.0</ele><time>2026-05-02T10:54:49.268Z</time></trkpt><trkpt lat="43.778775" lon="6.2182217"><ele>544.0</ele><time>2026-05-02T10:54:50.269Z</time></trkpt><trkpt lat="43.7788433" lon="6.2181783"><ele>544.0</ele><time>2026-05-02T10:54:51.268Z</time></trkpt><trkpt lat="43.7788967" lon="6.2181"><ele>544.0</ele><time>2026-05-02T10:54:52.268Z</time></trkpt><trkpt lat="43.77893" lon="6.2180183"><ele>543.5</ele><time>2026-05-02T10:54:53.268Z</time></trkpt><trkpt lat="43.7789433" lon="6.2179317"><ele>543.0</ele><time>2026-05-02T10:54:54.268Z</time></trkpt><trkpt lat="43.7789083" lon="6.2177767"><ele>542.5</ele><time>2026-05-02T10:54:56.268Z</time></trkpt><trkpt lat="43.7788533" lon="6.2177283"><ele>542.0</ele><time>2026-05-02T10:54:57.268Z</time></trkpt><trkpt lat="43.7787867" lon="6.2177033"><ele>541.5</ele><time>2026-05-02T10:54:58.268Z</time></trkpt><trkpt lat="43.77871" lon="6.2177233"><ele>541.0</ele><time>2026-05-02T10:54:59.268Z</time></trkpt><trkpt lat="43.7786267" lon="6.217775"><ele>541.0</ele><time>2026-05-02T10:55:00.268Z</time></trkpt><trkpt lat="43.7785383" lon="6.2178383"><ele>541.0</ele><time>2026-05-02T10:55:01.269Z</time></trkpt><trkpt lat="43.7784417" lon="6.217905"><ele>541.0</ele><time>2026-05-02T10:55:02.268Z</time></trkpt><trkpt lat="43.778345" lon="6.2179617"><ele>541.0</ele><time>2026-05-02T10:55:03.268Z</time></trkpt><trkpt lat="43.7782483" lon="6.2180117"><ele>541.0</ele><time>2026-05-02T10:55:04.268Z</time></trkpt><trkpt lat="43.77815" lon="6.2180283"><ele>538.4</ele><time>2026-05-02T10:55:05.268Z</time></trkpt><trkpt lat="43.7780583" lon="6.2180267"><ele>535.8</ele><time>2026-05-02T10:55:06.268Z</time></trkpt><trkpt lat="43.7779567" lon="6.2180233"><ele>533.1999999999999</ele><time>2026-05-02T10:55:07.268Z</time></trkpt><trkpt lat="43.77784" lon="6.2180167"><ele>530.6</ele><time>2026-05-02T10:55:08.268Z</time></trkpt><trkpt lat="43.77773" lon="6.218005"><ele>528.0</ele><time>2026-05-02T10:55:09.268Z</time></trkpt><trkpt lat="43.777625" lon="6.2179983"><ele>527.0</ele><time>2026-05-02T10:55:10.268Z</time></trkpt><trkpt lat="43.7775317" lon="6.21799"><ele>526.0</ele><time>2026-05-02T10:55:11.268Z</time></trkpt><trkpt lat="43.777445" lon="6.21798"><ele>525.0</ele><time>2026-05-02T10:55:12.269Z</time></trkpt><trkpt lat="43.7773667" lon="6.2179833"><ele>524.0</ele><time>2026-05-02T10:55:13.268Z</time></trkpt><trkpt lat="43.7772917" lon="6.218015"><ele>523.0</ele><time>2026-05-02T10:55:14.268Z</time></trkpt><trkpt lat="43.77723" lon="6.218065"><ele>522.0</ele><time>2026-05-02T10:55:15.268Z</time></trkpt><trkpt lat="43.7771667" lon="6.21814"><ele>523.2</ele><time>2026-05-02T10:55:16.268Z</time></trkpt><trkpt lat="43.7771217" lon="6.2182533"><ele>524.4000000000001</ele><time>2026-05-02T10:55:17.268Z</time></trkpt><trkpt lat="43.77709" lon="6.21839"><ele>525.5999999999999</ele><time>2026-05-02T10:55:18.268Z</time></trkpt><trkpt lat="43.7770617" lon="6.2185167"><ele>526.8</ele><time>2026-05-02T10:55:19.268Z</time></trkpt><trkpt lat="43.77703" lon="6.2186283"><ele>528.0</ele><time>2026-05-02T10:55:20.268Z</time></trkpt><trkpt lat="43.7769817" lon="6.2187317"><ele>528.0</ele><time>2026-05-02T10:55:21.268Z</time></trkpt><trkpt lat="43.77694" lon="6.2188267"><ele>528.0</ele><time>2026-05-02T10:55:22.269Z</time></trkpt><trkpt lat="43.7768617" lon="6.21892"><ele>528.0</ele><time>2026-05-02T10:55:23.268Z</time></trkpt><trkpt lat="43.7767667" lon="6.2189917"><ele>528.0</ele><time>2026-05-02T10:55:24.268Z</time></trkpt><trkpt lat="43.77667" lon="6.2190367"><ele>528.0</ele><time>2026-05-02T10:55:25.268Z</time></trkpt><trkpt lat="43.776565" lon="6.2190767"><ele>527.1999999999999</ele><time>2026-05-02T10:55:26.268Z</time></trkpt><trkpt lat="43.7764633" lon="6.2190917"><ele>526.4</ele><time>2026-05-02T10:55:27.268Z</time></trkpt><trkpt lat="43.776365" lon="6.2190867"><ele>525.5999999999999</ele><time>2026-05-02T10:55:28.268Z</time></trkpt><trkpt lat="43.7762767" lon="6.2190633"><ele>524.8</ele><time>2026-05-02T10:55:29.268Z</time></trkpt><trkpt lat="43.7761833" lon="6.2190317"><ele>524.0</ele><time>2026-05-02T10:55:30.268Z</time></trkpt><trkpt lat="43.77609" lon="6.2190017"><ele>522.8333333333333</ele><time>2026-05-02T10:55:31.268Z</time></trkpt><trkpt lat="43.7760067" lon="6.218975"><ele>521.6666666666666</ele><time>2026-05-02T10:55:32.268Z</time></trkpt><trkpt lat="43.7759317" lon="6.21894"><ele>520.5</ele><time>2026-05-02T10:55:33.268Z</time></trkpt><trkpt lat="43.7758667" lon="6.2189183"><ele>519.3333333333334</ele><time>2026-05-02T10:55:34.268Z</time></trkpt><trkpt lat="43.7758017" lon="6.21891"><ele>518.1666666666667</ele><time>2026-05-02T10:55:35.269Z</time></trkpt><trkpt lat="43.7757067" lon="6.21896"><ele>517.0</ele><time>2026-05-02T10:55:37.268Z</time></trkpt><trkpt lat="43.775615" lon="6.219085"><ele>517.0</ele><time>2026-05-02T10:55:39.268Z</time></trkpt><trkpt lat="43.7755717" lon="6.2191817"><ele>517.0</ele><time>2026-05-02T10:55:40.269Z</time></trkpt><trkpt lat="43.7755317" lon="6.2192733"><ele>517.0</ele><time>2026-05-02T10:55:41.268Z</time></trkpt><trkpt lat="43.7754917" lon="6.2193683"><ele>517.0</ele><time>2026-05-02T10:55:42.268Z</time></trkpt><trkpt lat="43.7754517" lon="6.2194683"><ele>517.0</ele><time>2026-05-02T10:55:43.268Z</time></trkpt><trkpt lat="43.775405" lon="6.21957"><ele>517.0</ele><time>2026-05-02T10:55:44.268Z</time></trkpt><trkpt lat="43.7753433" lon="6.2196617"><ele>517.0</ele><time>2026-05-02T10:55:45.268Z</time></trkpt><trkpt lat="43.7752817" lon="6.2197267"><ele>517.0</ele><time>2026-05-02T10:55:46.268Z</time></trkpt><trkpt lat="43.7752117" lon="6.2197767"><ele>517.0</ele><time>2026-05-02T10:55:47.268Z</time></trkpt><trkpt lat="43.7751333" lon="6.2198133"><ele>517.0</ele><time>2026-05-02T10:55:48.269Z</time></trkpt><trkpt lat="43.7750417" lon="6.21983"><ele>517.0</ele><time>2026-05-02T10:55:49.268Z</time></trkpt><trkpt lat="43.7749483" lon="6.219825"><ele>517.0</ele><time>2026-05-02T10:55:50.268Z</time></trkpt><trkpt lat="43.7748617" lon="6.219815"><ele>515.0</ele><time>2026-05-02T10:55:51.268Z</time></trkpt><trkpt lat="43.7747683" lon="6.2197983"><ele>513.0</ele><time>2026-05-02T10:55:52.268Z</time></trkpt><trkpt lat="43.77468" lon="6.2197567"><ele>511.00000000000006</ele><time>2026-05-02T10:55:53.268Z</time></trkpt><trkpt lat="43.7745883" lon="6.219715"><ele>509.0</ele><time>2026-05-02T10:55:54.268Z</time></trkpt><trkpt lat="43.7744967" lon="6.219665"><ele>507.0</ele><time>2026-05-02T10:55:55.269Z</time></trkpt><trkpt lat="43.7744117" lon="6.2196133"><ele>506.20000000000005</ele><time>2026-05-02T10:55:56.268Z</time></trkpt><trkpt lat="43.7743317" lon="6.2195717"><ele>505.40000000000003</ele><time>2026-05-02T10:55:57.269Z</time></trkpt><trkpt lat="43.77426" lon="6.219525"><ele>504.59999999999997</ele><time>2026-05-02T10:55:58.268Z</time></trkpt><trkpt lat="43.774195" lon="6.2194817"><ele>503.79999999999995</ele><time>2026-05-02T10:55:59.268Z</time></trkpt><trkpt lat="43.7740933" lon="6.2193917"><ele>503.0</ele><time>2026-05-02T10:56:01.269Z</time></trkpt><trkpt lat="43.7740383" lon="6.219265"><ele>502.99999999999994</ele><time>2026-05-02T10:56:03.268Z</time></trkpt><trkpt lat="43.774015" lon="6.2191117"><ele>503.0</ele><time>2026-05-02T10:56:05.268Z</time></trkpt><trkpt lat="43.7739833" lon="6.2189717"><ele>503.0</ele><time>2026-05-02T10:56:07.268Z</time></trkpt><trkpt lat="43.7739633" lon="6.2188533"><ele>503.0</ele><time>2026-05-02T10:56:09.268Z</time></trkpt><trkpt lat="43.77394" lon="6.218755"><ele>502.99999999999994</ele><time>2026-05-02T10:56:11.268Z</time></trkpt><trkpt lat="43.77393" lon="6.218665"><ele>503.0</ele><time>2026-05-02T10:56:13.268Z</time></trkpt><trkpt lat="43.773935" lon="6.2185617"><ele>502.79999999999995</ele><time>2026-05-02T10:56:15.268Z</time></trkpt><trkpt lat="43.7740217" lon="6.218465"><ele>502.59999999999997</ele><time>2026-05-02T10:56:17.268Z</time></trkpt><trkpt lat="43.7740933" lon="6.2184317"><ele>502.40000000000003</ele><time>2026-05-02T10:56:18.268Z</time></trkpt><trkpt lat="43.774175" lon="6.2184"><ele>502.20000000000005</ele><time>2026-05-02T10:56:19.268Z</time></trkpt><trkpt lat="43.7742583" lon="6.218375"><ele>502.0</ele><time>2026-05-02T10:56:20.268Z</time></trkpt><trkpt lat="43.7743517" lon="6.2183383"><ele>502.40000000000003</ele><time>2026-05-02T10:56:21.268Z</time></trkpt><trkpt lat="43.77445" lon="6.2183033"><ele>502.80000000000007</ele><time>2026-05-02T10:56:22.268Z</time></trkpt><trkpt lat="43.7745433" lon="6.21826"><ele>503.2</ele><time>2026-05-02T10:56:23.268Z</time></trkpt><trkpt lat="43.7746417" lon="6.21821"><ele>503.6</ele><time>2026-05-02T10:56:24.268Z</time></trkpt><trkpt lat="43.7747317" lon="6.218155"><ele>504.0</ele><time>2026-05-02T10:56:25.268Z</time></trkpt><trkpt lat="43.7748133" lon="6.2181"><ele>503.3333333333333</ele><time>2026-05-02T10:56:26.268Z</time></trkpt><trkpt lat="43.774885" lon="6.2180383"><ele>502.66666666666663</ele><time>2026-05-02T10:56:27.268Z</time></trkpt><trkpt lat="43.7749567" lon="6.2179833"><ele>502.0</ele><time>2026-05-02T10:56:28.268Z</time></trkpt><trkpt lat="43.77502" lon="6.2179267"><ele>501.3333333333333</ele><time>2026-05-02T10:56:29.268Z</time></trkpt><trkpt lat="43.7750717" lon="6.217875"><ele>500.66666666666663</ele><time>2026-05-02T10:56:30.269Z</time></trkpt><trkpt lat="43.7751467" lon="6.2177983"><ele>500.0</ele><time>2026-05-02T10:56:32.268Z</time></trkpt><trkpt lat="43.7751617" lon="6.2176867"><ele>499.99999999999994</ele><time>2026-05-02T10:56:34.268Z</time></trkpt><trkpt lat="43.77514" lon="6.2175967"><ele>500.0</ele><time>2026-05-02T10:56:35.268Z</time></trkpt><trkpt lat="43.7751" lon="6.2174967"><ele>500.0</ele><time>2026-05-02T10:56:36.268Z</time></trkpt><trkpt lat="43.7750483" lon="6.2174"><ele>500.0</ele><time>2026-05-02T10:56:37.268Z</time></trkpt><trkpt lat="43.7750067" lon="6.217285"><ele>499.99999999999994</ele><time>2026-05-02T10:56:38.268Z</time></trkpt><trkpt lat="43.7749983" lon="6.2171533"><ele>500.0</ele><time>2026-05-02T10:56:39.268Z</time></trkpt><trkpt lat="43.7750267" lon="6.2170017"><ele>499.75</ele><time>2026-05-02T10:56:40.269Z</time></trkpt><trkpt lat="43.7750783" lon="6.2168333"><ele>499.5</ele><time>2026-05-02T10:56:41.268Z</time></trkpt><trkpt lat="43.775155" lon="6.2166533"><ele>499.25</ele><time>2026-05-02T10:56:42.268Z</time></trkpt><trkpt lat="43.775235" lon="6.2164667"><ele>499.0</ele><time>2026-05-02T10:56:43.269Z</time></trkpt><trkpt lat="43.775315" lon="6.21627"><ele>499.0</ele><time>2026-05-02T10:56:44.268Z</time></trkpt><trkpt lat="43.7753817" lon="6.216065"><ele>499.0</ele><time>2026-05-02T10:56:45.268Z</time></trkpt><trkpt lat="43.7754467" lon="6.215855"><ele>499.0</ele><time>2026-05-02T10:56:46.268Z</time></trkpt><trkpt lat="43.7755167" lon="6.2156433"><ele>500.33333333333337</ele><time>2026-05-02T10:56:47.268Z</time></trkpt><trkpt lat="43.77558" lon="6.2154267"><ele>501.66666666666663</ele><time>2026-05-02T10:56:48.268Z</time></trkpt><trkpt lat="43.7756367" lon="6.2152117"><ele>503.0</ele><time>2026-05-02T10:56:49.268Z</time></trkpt><trkpt lat="43.7756867" lon="6.214995"><ele>504.66666666666663</ele><time>2026-05-02T10:56:50.268Z</time></trkpt><trkpt lat="43.7757283" lon="6.21477"><ele>506.33333333333337</ele><time>2026-05-02T10:56:51.268Z</time></trkpt><trkpt lat="43.77576" lon="6.2145567"><ele>508.0</ele><time>2026-05-02T10:56:52.268Z</time></trkpt><trkpt lat="43.7757867" lon="6.2143367"><ele>508.0</ele><time>2026-05-02T10:56:53.268Z</time></trkpt><trkpt lat="43.7758183" lon="6.21412"><ele>508.0</ele><time>2026-05-02T10:56:54.268Z</time></trkpt><trkpt lat="43.775845" lon="6.2139083"><ele>508.0</ele><time>2026-05-02T10:56:55.268Z</time></trkpt><trkpt lat="43.77588" lon="6.2137083"><ele>509.25</ele><time>2026-05-02T10:56:56.268Z</time></trkpt><trkpt lat="43.7759267" lon="6.21352"><ele>510.5</ele><time>2026-05-02T10:56:57.268Z</time></trkpt><trkpt lat="43.775965" lon="6.2133417"><ele>511.75</ele><time>2026-05-02T10:56:58.268Z</time></trkpt><trkpt lat="43.7759967" lon="6.2131567"><ele>513.0</ele><time>2026-05-02T10:56:59.268Z</time></trkpt><trkpt lat="43.7760133" lon="6.2129783"><ele>513.0</ele><time>2026-05-02T10:57:00.268Z</time></trkpt><trkpt lat="43.7760067" lon="6.21281"><ele>513.0</ele><time>2026-05-02T10:57:01.268Z</time></trkpt><trkpt lat="43.775965" lon="6.2126567"><ele>513.0</ele><time>2026-05-02T10:57:02.269Z</time></trkpt><trkpt lat="43.7758933" lon="6.212525"><ele>513.0</ele><time>2026-05-02T10:57:03.268Z</time></trkpt><trkpt lat="43.775805" lon="6.2124233"><ele>513.0</ele><time>2026-05-02T10:57:04.269Z</time></trkpt><trkpt lat="43.7757033" lon="6.2123433"><ele>513.0</ele><time>2026-05-02T10:57:05.269Z</time></trkpt><trkpt lat="43.7755983" lon="6.212285"><ele>513.0</ele><time>2026-05-02T10:57:06.269Z</time></trkpt><trkpt lat="43.775495" lon="6.2122333"><ele>513.0</ele><time>2026-05-02T10:57:07.269Z</time></trkpt><trkpt lat="43.775395" lon="6.2121883"><ele>513.0</ele><time>2026-05-02T10:57:08.268Z</time></trkpt><trkpt lat="43.7752983" lon="6.21215"><ele>513.4</ele><time>2026-05-02T10:57:09.268Z</time></trkpt><trkpt lat="43.7751967" lon="6.2121117"><ele>513.8</ele><time>2026-05-02T10:57:10.269Z</time></trkpt><trkpt lat="43.7751033" lon="6.212075"><ele>514.2</ele><time>2026-05-02T10:57:11.268Z</time></trkpt><trkpt lat="43.7750183" lon="6.212035"><ele>514.6</ele><time>2026-05-02T10:57:12.268Z</time></trkpt><trkpt lat="43.7749317" lon="6.2119867"><ele>515.0</ele><time>2026-05-02T10:57:13.269Z</time></trkpt><trkpt lat="43.774855" lon="6.21194"><ele>515.0</ele><time>2026-05-02T10:57:14.268Z</time></trkpt><trkpt lat="43.77477" lon="6.2118883"><ele>515.0</ele><time>2026-05-02T10:57:15.268Z</time></trkpt><trkpt lat="43.7746983" lon="6.2118183"><ele>515.0</ele><time>2026-05-02T10:57:16.269Z</time></trkpt><trkpt lat="43.7746333" lon="6.2117333"><ele>515.0</ele><time>2026-05-02T10:57:17.269Z</time></trkpt><trkpt lat="43.7745817" lon="6.2116367"><ele>515.0</ele><time>2026-05-02T10:57:18.268Z</time></trkpt><trkpt lat="43.7745417" lon="6.21154"><ele>515.0</ele><time>2026-05-02T10:57:19.268Z</time></trkpt><trkpt lat="43.774515" lon="6.211425"><ele>514.8</ele><time>2026-05-02T10:57:20.268Z</time></trkpt><trkpt lat="43.7744867" lon="6.2113033"><ele>514.6</ele><time>2026-05-02T10:57:21.269Z</time></trkpt><trkpt lat="43.7744617" lon="6.2111733"><ele>514.4</ele><time>2026-05-02T10:57:22.268Z</time></trkpt><trkpt lat="43.774435" lon="6.211055"><ele>514.2</ele><time>2026-05-02T10:57:23.268Z</time></trkpt><trkpt lat="43.77441" lon="6.2109333"><ele>514.0</ele><time>2026-05-02T10:57:24.268Z</time></trkpt><trkpt lat="43.7743767" lon="6.21082"><ele>514.0</ele><time>2026-05-02T10:57:25.268Z</time></trkpt><trkpt lat="43.774345" lon="6.2107083"><ele>514.0</ele><time>2026-05-02T10:57:26.268Z</time></trkpt><trkpt lat="43.7743" lon="6.2105967"><ele>514.0</ele><time>2026-05-02T10:57:27.268Z</time></trkpt><trkpt lat="43.7742467" lon="6.210485"><ele>514.0</ele><time>2026-05-02T10:57:28.268Z</time></trkpt><trkpt lat="43.7741867" lon="6.2103833"><ele>514.0</ele><time>2026-05-02T10:57:29.268Z</time></trkpt><trkpt lat="43.7741167" lon="6.2102883"><ele>514.0</ele><time>2026-05-02T10:57:30.268Z</time></trkpt><trkpt lat="43.7740483" lon="6.2101983"><ele>514.0</ele><time>2026-05-02T10:57:31.269Z</time></trkpt><trkpt lat="43.7739833" lon="6.2101167"><ele>514.0</ele><time>2026-05-02T10:57:32.268Z</time></trkpt><trkpt lat="43.773915" lon="6.210045"><ele>514.0</ele><time>2026-05-02T10:57:33.268Z</time></trkpt><trkpt lat="43.7738367" lon="6.20998"><ele>514.0</ele><time>2026-05-02T10:57:34.268Z</time></trkpt><trkpt lat="43.7737583" lon="6.2099133"><ele>514.0</ele><time>2026-05-02T10:57:35.268Z</time></trkpt><trkpt lat="43.7736717" lon="6.2098517"><ele>514.0</ele><time>2026-05-02T10:57:36.268Z</time></trkpt><trkpt lat="43.7735817" lon="6.2097867"><ele>514.0</ele><time>2026-05-02T10:57:37.268Z</time></trkpt><trkpt lat="43.7734967" lon="6.2097183"><ele>514.0</ele><time>2026-05-02T10:57:38.268Z</time></trkpt><trkpt lat="43.7734117" lon="6.2096467"><ele>514.0</ele><time>2026-05-02T10:57:39.269Z</time></trkpt><trkpt lat="43.7733317" lon="6.20958"><ele>513.2</ele><time>2026-05-02T10:57:40.268Z</time></trkpt><trkpt lat="43.7732467" lon="6.209525"><ele>512.4</ele><time>2026-05-02T10:57:41.268Z</time></trkpt><trkpt lat="43.773155" lon="6.2094667"><ele>511.6</ele><time>2026-05-02T10:57:42.268Z</time></trkpt><trkpt lat="43.7730633" lon="6.20941"><ele>510.8</ele><time>2026-05-02T10:57:43.268Z</time></trkpt><trkpt lat="43.7729717" lon="6.2093583"><ele>510.0</ele><time>2026-05-02T10:57:44.268Z</time></trkpt><trkpt lat="43.7728833" lon="6.209335"><ele>510.0</ele><time>2026-05-02T10:57:45.268Z</time></trkpt><trkpt lat="43.7727917" lon="6.2093383"><ele>510.0</ele><time>2026-05-02T10:57:46.268Z</time></trkpt><trkpt lat="43.7726967" lon="6.2093617"><ele>510.0</ele><time>2026-05-02T10:57:47.268Z</time></trkpt><trkpt lat="43.7726067" lon="6.2094033"><ele>510.0</ele><time>2026-05-02T10:57:48.268Z</time></trkpt><trkpt lat="43.7725167" lon="6.2094717"><ele>510.0</ele><time>2026-05-02T10:57:49.268Z</time></trkpt><trkpt lat="43.7724417" lon="6.2095617"><ele>508.5</ele><time>2026-05-02T10:57:50.268Z</time></trkpt><trkpt lat="43.77236" lon="6.2096683"><ele>507.0</ele><time>2026-05-02T10:57:51.268Z</time></trkpt><trkpt lat="43.7722817" lon="6.2097983"><ele>505.5</ele><time>2026-05-02T10:57:52.268Z</time></trkpt><trkpt lat="43.7722133" lon="6.2099317"><ele>504.0</ele><time>2026-05-02T10:57:53.268Z</time></trkpt><trkpt lat="43.7721467" lon="6.2100783"><ele>503.75</ele><time>2026-05-02T10:57:54.269Z</time></trkpt><trkpt lat="43.7720667" lon="6.2102317"><ele>503.5</ele><time>2026-05-02T10:57:55.268Z</time></trkpt><trkpt lat="43.7720117" lon="6.210395"><ele>503.25</ele><time>2026-05-02T10:57:56.268Z</time></trkpt><trkpt lat="43.7719683" lon="6.2105567"><ele>503.0</ele><time>2026-05-02T10:57:57.269Z</time></trkpt><trkpt lat="43.7719317" lon="6.2107233"><ele>504.0</ele><time>2026-05-02T10:57:58.268Z</time></trkpt><trkpt lat="43.7718967" lon="6.2108967"><ele>505.0</ele><time>2026-05-02T10:57:59.268Z</time></trkpt><trkpt lat="43.7718767" lon="6.2110667"><ele>506.0</ele><time>2026-05-02T10:58:00.268Z</time></trkpt><trkpt lat="43.77186" lon="6.2112267"><ele>507.0</ele><time>2026-05-02T10:58:01.268Z</time></trkpt><trkpt lat="43.7718517" lon="6.2113883"><ele>504.5</ele><time>2026-05-02T10:58:02.268Z</time></trkpt><trkpt lat="43.7718367" lon="6.21155"><ele>502.0</ele><time>2026-05-02T10:58:03.269Z</time></trkpt><trkpt lat="43.77182" lon="6.2117033"><ele>499.5</ele><time>2026-05-02T10:58:04.268Z</time></trkpt><trkpt lat="43.7718017" lon="6.2118583"><ele>497.0</ele><time>2026-05-02T10:58:05.268Z</time></trkpt><trkpt lat="43.7717617" lon="6.2120083"><ele>497.0</ele><time>2026-05-02T10:58:06.268Z</time></trkpt><trkpt lat="43.771715" lon="6.2121467"><ele>497.00000000000006</ele><time>2026-05-02T10:58:07.268Z</time></trkpt><trkpt lat="43.77167" lon="6.212275"><ele>497.00000000000006</ele><time>2026-05-02T10:58:08.268Z</time></trkpt><trkpt lat="43.7716117" lon="6.2123833"><ele>497.0</ele><time>2026-05-02T10:58:09.269Z</time></trkpt><trkpt lat="43.771545" lon="6.2124683"><ele>497.0</ele><time>2026-05-02T10:58:10.269Z</time></trkpt><trkpt lat="43.7714717" lon="6.21251"><ele>496.99999999999994</ele><time>2026-05-02T10:58:11.268Z</time></trkpt><trkpt lat="43.77138" lon="6.21251"><ele>497.0</ele><time>2026-05-02T10:58:12.268Z</time></trkpt><trkpt lat="43.7712883" lon="6.2124617"><ele>497.0</ele><time>2026-05-02T10:58:13.269Z</time></trkpt><trkpt lat="43.7712217" lon="6.2123883"><ele>497.0</ele><time>2026-05-02T10:58:14.268Z</time></trkpt><trkpt lat="43.7711783" lon="6.2123"><ele>496.99999999999994</ele><time>2026-05-02T10:58:15.268Z</time></trkpt><trkpt lat="43.771155" lon="6.2121983"><ele>497.0</ele><time>2026-05-02T10:58:16.268Z</time></trkpt><trkpt lat="43.7711483" lon="6.2120817"><ele>497.0</ele><time>2026-05-02T10:58:17.268Z</time></trkpt><trkpt lat="43.7711533" lon="6.2119433"><ele>497.00000000000006</ele><time>2026-05-02T10:58:18.268Z</time></trkpt><trkpt lat="43.7711583" lon="6.2117883"><ele>497.00000000000006</ele><time>2026-05-02T10:58:19.268Z</time></trkpt><trkpt lat="43.77117" lon="6.2116333"><ele>497.0</ele><time>2026-05-02T10:58:20.268Z</time></trkpt><trkpt lat="43.7711817" lon="6.211485"><ele>497.0</ele><time>2026-05-02T10:58:21.268Z</time></trkpt><trkpt lat="43.7711917" lon="6.21134"><ele>496.40000000000003</ele><time>2026-05-02T10:58:22.268Z</time></trkpt><trkpt lat="43.7711967" lon="6.211205"><ele>495.80000000000007</ele><time>2026-05-02T10:58:23.268Z</time></trkpt><trkpt lat="43.7711983" lon="6.2110583"><ele>495.2</ele><time>2026-05-02T10:58:24.268Z</time></trkpt><trkpt lat="43.77119" lon="6.210905"><ele>494.6</ele><time>2026-05-02T10:58:25.268Z</time></trkpt><trkpt lat="43.7711783" lon="6.2107667"><ele>494.0</ele><time>2026-05-02T10:58:26.269Z</time></trkpt><trkpt lat="43.7711633" lon="6.2106283"><ele>493.2</ele><time>2026-05-02T10:58:27.268Z</time></trkpt><trkpt lat="43.7711483" lon="6.2105017"><ele>492.4</ele><time>2026-05-02T10:58:28.269Z</time></trkpt><trkpt lat="43.7711317" lon="6.210365"><ele>491.6</ele><time>2026-05-02T10:58:29.268Z</time></trkpt><trkpt lat="43.771115" lon="6.2102283"><ele>490.8</ele><time>2026-05-02T10:58:30.268Z</time></trkpt><trkpt lat="43.7711" lon="6.210095"><ele>490.0</ele><time>2026-05-02T10:58:31.268Z</time></trkpt><trkpt lat="43.7710817" lon="6.2099683"><ele>490.00000000000006</ele><time>2026-05-02T10:58:32.268Z</time></trkpt><trkpt lat="43.771065" lon="6.2098483"><ele>490.0</ele><time>2026-05-02T10:58:33.268Z</time></trkpt><trkpt lat="43.77105" lon="6.2097367"><ele>490.0</ele><time>2026-05-02T10:58:34.268Z</time></trkpt><trkpt lat="43.7710333" lon="6.2096317"><ele>490.0</ele><time>2026-05-02T10:58:35.268Z</time></trkpt><trkpt lat="43.7710183" lon="6.2095383"><ele>490.00000000000006</ele><time>2026-05-02T10:58:36.268Z</time></trkpt><trkpt lat="43.7710217" lon="6.2094017"><ele>490.0</ele><time>2026-05-02T10:58:38.268Z</time></trkpt><trkpt lat="43.7710683" lon="6.2092967"><ele>490.1666666666667</ele><time>2026-05-02T10:58:40.269Z</time></trkpt><trkpt lat="43.77117" lon="6.209205"><ele>490.33333333333337</ele><time>2026-05-02T10:58:42.268Z</time></trkpt><trkpt lat="43.771225" lon="6.2091533"><ele>490.5</ele><time>2026-05-02T10:58:43.268Z</time></trkpt><trkpt lat="43.771285" lon="6.2090933"><ele>490.66666666666663</ele><time>2026-05-02T10:58:44.268Z</time></trkpt><trkpt lat="43.77133" lon="6.2090317"><ele>490.8333333333333</ele><time>2026-05-02T10:58:45.269Z</time></trkpt><trkpt lat="43.7713817" lon="6.2089583"><ele>491.0</ele><time>2026-05-02T10:58:46.268Z</time></trkpt><trkpt lat="43.771425" lon="6.2088667"><ele>490.99999999999994</ele><time>2026-05-02T10:58:47.268Z</time></trkpt><trkpt lat="43.771455" lon="6.208755"><ele>491.0</ele><time>2026-05-02T10:58:48.268Z</time></trkpt><trkpt lat="43.7714767" lon="6.208645"><ele>491.0</ele><time>2026-05-02T10:58:49.269Z</time></trkpt><trkpt lat="43.7714883" lon="6.2085583"><ele>491.0</ele><time>2026-05-02T10:58:50.268Z</time></trkpt><trkpt lat="43.7714983" lon="6.2084417"><ele>490.99999999999994</ele><time>2026-05-02T10:58:52.268Z</time></trkpt><trkpt lat="43.7714933" lon="6.2083317"><ele>491.0</ele><time>2026-05-02T10:58:55.268Z</time></trkpt><trkpt lat="43.7714917" lon="6.2082317"><ele>490.8</ele><time>2026-05-02T10:58:58.268Z</time></trkpt><trkpt lat="43.771465" lon="6.2080667"><ele>490.6</ele><time>2026-05-02T10:59:00.268Z</time></trkpt><trkpt lat="43.771435" lon="6.2079583"><ele>490.4</ele><time>2026-05-02T10:59:01.268Z</time></trkpt><trkpt lat="43.771405" lon="6.2078467"><ele>490.2</ele><time>2026-05-02T10:59:02.268Z</time></trkpt><trkpt lat="43.77138" lon="6.20774"><ele>490.0</ele><time>2026-05-02T10:59:03.268Z</time></trkpt><trkpt lat="43.77136" lon="6.2076333"><ele>490.0</ele><time>2026-05-02T10:59:04.268Z</time></trkpt><trkpt lat="43.7713567" lon="6.207515"><ele>490.0</ele><time>2026-05-02T10:59:05.268Z</time></trkpt><trkpt lat="43.7713633" lon="6.2073933"><ele>490.0</ele><time>2026-05-02T10:59:06.268Z</time></trkpt><trkpt lat="43.7713867" lon="6.2072633"><ele>490.0</ele><time>2026-05-02T10:59:07.268Z</time></trkpt><trkpt lat="43.7714233" lon="6.2071383"><ele>490.0</ele><time>2026-05-02T10:59:08.268Z</time></trkpt><trkpt lat="43.77146" lon="6.207005"><ele>489.00000000000006</ele><time>2026-05-02T10:59:09.268Z</time></trkpt><trkpt lat="43.7714917" lon="6.206875"><ele>488.0</ele><time>2026-05-02T10:59:10.268Z</time></trkpt><trkpt lat="43.771515" lon="6.2067533"><ele>487.0</ele><time>2026-05-02T10:59:11.268Z</time></trkpt><trkpt lat="43.7715317" lon="6.20664"><ele>486.0</ele><time>2026-05-02T10:59:12.268Z</time></trkpt><trkpt lat="43.77155" lon="6.206525"><ele>485.00000000000006</ele><time>2026-05-02T10:59:13.268Z</time></trkpt><trkpt lat="43.7715717" lon="6.2064133"><ele>484.0</ele><time>2026-05-02T10:59:14.268Z</time></trkpt><trkpt lat="43.7715917" lon="6.2063083"><ele>483.6666666666667</ele><time>2026-05-02T10:59:15.268Z</time></trkpt><trkpt lat="43.7716217" lon="6.20621"><ele>483.33333333333337</ele><time>2026-05-02T10:59:16.268Z</time></trkpt><trkpt lat="43.7716667" lon="6.2061083"><ele>483.0</ele><time>2026-05-02T10:59:17.268Z</time></trkpt><trkpt lat="43.7717367" lon="6.2060267"><ele>482.66666666666663</ele><time>2026-05-02T10:59:18.268Z</time></trkpt><trkpt lat="43.7718133" lon="6.2059467"><ele>482.3333333333333</ele><time>2026-05-02T10:59:19.268Z</time></trkpt><trkpt lat="43.7718917" lon="6.205895"><ele>482.0</ele><time>2026-05-02T10:59:20.268Z</time></trkpt><trkpt lat="43.771965" lon="6.2058483"><ele>481.99999999999994</ele><time>2026-05-02T10:59:21.268Z</time></trkpt><trkpt lat="43.7720267" lon="6.2057867"><ele>482.0</ele><time>2026-05-02T10:59:22.268Z</time></trkpt><trkpt lat="43.772085" lon="6.205705"><ele>482.0</ele><time>2026-05-02T10:59:23.268Z</time></trkpt><trkpt lat="43.7721333" lon="6.2055983"><ele>482.0</ele><time>2026-05-02T10:59:24.268Z</time></trkpt><trkpt lat="43.7721817" lon="6.205505"><ele>481.99999999999994</ele><time>2026-05-02T10:59:25.269Z</time></trkpt><trkpt lat="43.772235" lon="6.2054217"><ele>482.0</ele><time>2026-05-02T10:59:26.268Z</time></trkpt><trkpt lat="43.7722933" lon="6.20536"><ele>481.6</ele><time>2026-05-02T10:59:27.268Z</time></trkpt><trkpt lat="43.7724083" lon="6.2053317"><ele>481.20000000000005</ele><time>2026-05-02T10:59:29.268Z</time></trkpt><trkpt lat="43.7725217" lon="6.20539"><ele>480.8</ele><time>2026-05-02T10:59:31.268Z</time></trkpt><trkpt lat="43.772585" lon="6.20544"><ele>480.4</ele><time>2026-05-02T10:59:32.268Z</time></trkpt><trkpt lat="43.77265" lon="6.205485"><ele>480.0</ele><time>2026-05-02T10:59:33.268Z</time></trkpt><trkpt lat="43.772715" lon="6.2055267"><ele>480.0</ele><time>2026-05-02T10:59:34.268Z</time></trkpt><trkpt lat="43.7727883" lon="6.2055667"><ele>480.0</ele><time>2026-05-02T10:59:35.268Z</time></trkpt><trkpt lat="43.772865" lon="6.2056033"><ele>480.0</ele><time>2026-05-02T10:59:36.268Z</time></trkpt><trkpt lat="43.7729383" lon="6.2056383"><ele>480.0</ele><time>2026-05-02T10:59:37.269Z</time></trkpt><trkpt lat="43.77302" lon="6.2056867"><ele>480.0</ele><time>2026-05-02T10:59:38.268Z</time></trkpt><trkpt lat="43.7731083" lon="6.2057333"><ele>480.0</ele><time>2026-05-02T10:59:39.268Z</time></trkpt><trkpt lat="43.7732033" lon="6.20578"><ele>479.8</ele><time>2026-05-02T10:59:40.268Z</time></trkpt><trkpt lat="43.7733033" lon="6.2058317"><ele>479.6</ele><time>2026-05-02T10:59:41.268Z</time></trkpt><trkpt lat="43.773405" lon="6.205875"><ele>479.4</ele><time>2026-05-02T10:59:42.269Z</time></trkpt><trkpt lat="43.773505" lon="6.2059233"><ele>479.2</ele><time>2026-05-02T10:59:43.269Z</time></trkpt><trkpt lat="43.773595" lon="6.2059617"><ele>479.0</ele><time>2026-05-02T10:59:44.269Z</time></trkpt><trkpt lat="43.7736883" lon="6.2060017"><ele>479.0</ele><time>2026-05-02T10:59:45.268Z</time></trkpt><trkpt lat="43.77378" lon="6.20604"><ele>479.0</ele><time>2026-05-02T10:59:46.268Z</time></trkpt><trkpt lat="43.77387" lon="6.20609"><ele>479.0</ele><time>2026-05-02T10:59:47.269Z</time></trkpt><trkpt lat="43.7739633" lon="6.206135"><ele>479.0</ele><time>2026-05-02T10:59:48.268Z</time></trkpt><trkpt lat="43.77406" lon="6.2061783"><ele>479.0</ele><time>2026-05-02T10:59:49.268Z</time></trkpt><trkpt lat="43.7741533" lon="6.2062183"><ele>479.0</ele><time>2026-05-02T10:59:50.268Z</time></trkpt><trkpt lat="43.7742417" lon="6.20626"><ele>479.0</ele><time>2026-05-02T10:59:51.269Z</time></trkpt><trkpt lat="43.77433" lon="6.206305"><ele>479.0</ele><time>2026-05-02T10:59:52.269Z</time></trkpt><trkpt lat="43.7744167" lon="6.2063467"><ele>479.0</ele><time>2026-05-02T10:59:53.268Z</time></trkpt><trkpt lat="43.7745067" lon="6.20639"><ele>479.0</ele><time>2026-05-02T10:59:54.269Z</time></trkpt><trkpt lat="43.7745967" lon="6.206435"><ele>478.79999999999995</ele><time>2026-05-02T10:59:55.268Z</time></trkpt><trkpt lat="43.7746867" lon="6.20648"><ele>478.59999999999997</ele><time>2026-05-02T10:59:56.268Z</time></trkpt><trkpt lat="43.77478" lon="6.2065217"><ele>478.4</ele><time>2026-05-02T10:59:57.268Z</time></trkpt><trkpt lat="43.7748767" lon="6.206575"><ele>478.2</ele><time>2026-05-02T10:59:58.268Z</time></trkpt><trkpt lat="43.7749717" lon="6.2066167"><ele>478.0</ele><time>2026-05-02T10:59:59.268Z</time></trkpt><trkpt lat="43.7750733" lon="6.2066683"><ele>478.83333333333337</ele><time>2026-05-02T11:00:00.268Z</time></trkpt><trkpt lat="43.7751633" lon="6.206715"><ele>479.6666666666667</ele><time>2026-05-02T11:00:01.268Z</time></trkpt><trkpt lat="43.77525" lon="6.206755"><ele>480.5</ele><time>2026-05-02T11:00:02.268Z</time></trkpt><trkpt lat="43.7753333" lon="6.2067967"><ele>481.33333333333337</ele><time>2026-05-02T11:00:03.268Z</time></trkpt><trkpt lat="43.7754033" lon="6.2068417"><ele>482.1666666666667</ele><time>2026-05-02T11:00:04.268Z</time></trkpt><trkpt lat="43.7754617" lon="6.2068983"><ele>483.0</ele><time>2026-05-02T11:00:05.268Z</time></trkpt><trkpt lat="43.7755067" lon="6.20698"><ele>483.0</ele><time>2026-05-02T11:00:06.268Z</time></trkpt><trkpt lat="43.7755483" lon="6.20705"><ele>483.0</ele><time>2026-05-02T11:00:07.268Z</time></trkpt><trkpt lat="43.7756" lon="6.2071217"><ele>483.0</ele><time>2026-05-02T11:00:08.268Z</time></trkpt><trkpt lat="43.775665" lon="6.2072"><ele>483.0</ele><time>2026-05-02T11:00:09.268Z</time></trkpt><trkpt lat="43.77573" lon="6.2072817"><ele>483.0</ele><time>2026-05-02T11:00:10.268Z</time></trkpt><trkpt lat="43.7758033" lon="6.2073633"><ele>483.0</ele><time>2026-05-02T11:00:11.268Z</time></trkpt><trkpt lat="43.7758833" lon="6.2074517"><ele>482.59999999999997</ele><time>2026-05-02T11:00:12.268Z</time></trkpt><trkpt lat="43.775965" lon="6.2075333"><ele>482.19999999999993</ele><time>2026-05-02T11:00:13.267Z</time></trkpt><trkpt lat="43.7760383" lon="6.20761"><ele>481.8</ele><time>2026-05-02T11:00:14.267Z</time></trkpt><trkpt lat="43.7761167" lon="6.2076983"><ele>481.4</ele><time>2026-05-02T11:00:15.267Z</time></trkpt><trkpt lat="43.7762017" lon="6.2077867"><ele>481.0</ele><time>2026-05-02T11:00:16.267Z</time></trkpt><trkpt lat="43.7762817" lon="6.2078633"><ele>481.00000000000006</ele><time>2026-05-02T11:00:17.267Z</time></trkpt><trkpt lat="43.7763617" lon="6.2079483"><ele>481.0</ele><time>2026-05-02T11:00:18.267Z</time></trkpt><trkpt lat="43.7764317" lon="6.20803"><ele>481.0</ele><time>2026-05-02T11:00:19.267Z</time></trkpt><trkpt lat="43.7765" lon="6.2081117"><ele>481.0</ele><time>2026-05-02T11:00:20.268Z</time></trkpt><trkpt lat="43.7765617" lon="6.208185"><ele>481.00000000000006</ele><time>2026-05-02T11:00:21.267Z</time></trkpt><trkpt lat="43.7766167" lon="6.2082517"><ele>481.0</ele><time>2026-05-02T11:00:22.267Z</time></trkpt><trkpt lat="43.7766617" lon="6.2083183"><ele>481.6666666666667</ele><time>2026-05-02T11:00:23.267Z</time></trkpt><trkpt lat="43.7766933" lon="6.2084683"><ele>482.33333333333337</ele><time>2026-05-02T11:00:25.268Z</time></trkpt><trkpt lat="43.7766767" lon="6.20856"><ele>483.0</ele><time>2026-05-02T11:00:26.267Z</time></trkpt><trkpt lat="43.7766383" lon="6.2086633"><ele>483.66666666666663</ele><time>2026-05-02T11:00:27.267Z</time></trkpt><trkpt lat="43.7765917" lon="6.20877"><ele>484.3333333333333</ele><time>2026-05-02T11:00:28.267Z</time></trkpt><trkpt lat="43.7765483" lon="6.2088717"><ele>485.0</ele><time>2026-05-02T11:00:29.267Z</time></trkpt><trkpt lat="43.7765133" lon="6.2089567"><ele>485.8</ele><time>2026-05-02T11:00:30.267Z</time></trkpt><trkpt lat="43.7764833" lon="6.2090417"><ele>486.6</ele><time>2026-05-02T11:00:31.267Z</time></trkpt><trkpt lat="43.77646" lon="6.2092183"><ele>487.4</ele><time>2026-05-02T11:00:33.267Z</time></trkpt><trkpt lat="43.7764767" lon="6.2093217"><ele>488.2</ele><time>2026-05-02T11:00:34.267Z</time></trkpt><trkpt lat="43.7765067" lon="6.2094583"><ele>489.0</ele><time>2026-05-02T11:00:35.267Z</time></trkpt><trkpt lat="43.77655" lon="6.2096017"><ele>489.0</ele><time>2026-05-02T11:00:36.267Z</time></trkpt><trkpt lat="43.77659" lon="6.2097417"><ele>489.0</ele><time>2026-05-02T11:00:37.267Z</time></trkpt><trkpt lat="43.776645" lon="6.2098933"><ele>489.0</ele><time>2026-05-02T11:00:38.268Z</time></trkpt><trkpt lat="43.77668" lon="6.2100383"><ele>489.0</ele><time>2026-05-02T11:00:39.267Z</time></trkpt><trkpt lat="43.77671" lon="6.210175"><ele>489.0</ele><time>2026-05-02T11:00:40.267Z</time></trkpt><trkpt lat="43.776735" lon="6.2103117"><ele>489.2</ele><time>2026-05-02T11:00:41.267Z</time></trkpt><trkpt lat="43.7767617" lon="6.2104417"><ele>489.4</ele><time>2026-05-02T11:00:42.267Z</time></trkpt><trkpt lat="43.776795" lon="6.2105717"><ele>489.6</ele><time>2026-05-02T11:00:43.267Z</time></trkpt><trkpt lat="43.776835" lon="6.2107017"><ele>489.8</ele><time>2026-05-02T11:00:44.267Z</time></trkpt><trkpt lat="43.7768733" lon="6.210825"><ele>490.0</ele><time>2026-05-02T11:00:45.267Z</time></trkpt><trkpt lat="43.7769017" lon="6.21094"><ele>490.00000000000006</ele><time>2026-05-02T11:00:46.267Z</time></trkpt><trkpt lat="43.776925" lon="6.211035"><ele>490.0</ele><time>2026-05-02T11:00:47.267Z</time></trkpt><trkpt lat="43.7769583" lon="6.2111717"><ele>490.0</ele><time>2026-05-02T11:00:49.267Z</time></trkpt><trkpt lat="43.776985" lon="6.211255"><ele>490.0</ele><time>2026-05-02T11:00:51.267Z</time></trkpt><trkpt lat="43.777025" lon="6.2113633"><ele>490.00000000000006</ele><time>2026-05-02T11:00:54.267Z</time></trkpt><trkpt lat="43.77705" lon="6.211445"><ele>490.0</ele><time>2026-05-02T11:00:56.267Z</time></trkpt><trkpt lat="43.777065" lon="6.2115417"><ele>489.6</ele><time>2026-05-02T11:00:58.268Z</time></trkpt><trkpt lat="43.77707" lon="6.2116667"><ele>489.2</ele><time>2026-05-02T11:01:00.267Z</time></trkpt><trkpt lat="43.7770717" lon="6.2117867"><ele>488.79999999999995</ele><time>2026-05-02T11:01:02.267Z</time></trkpt><trkpt lat="43.7770783" lon="6.2119117"><ele>488.4</ele><time>2026-05-02T11:01:04.267Z</time></trkpt><trkpt lat="43.7770733" lon="6.2120767"><ele>488.0</ele><time>2026-05-02T11:01:06.267Z</time></trkpt><trkpt lat="43.77706" lon="6.2121717"><ele>487.99999999999994</ele><time>2026-05-02T11:01:07.267Z</time></trkpt><trkpt lat="43.7770283" lon="6.2122767"><ele>488.0</ele><time>2026-05-02T11:01:08.267Z</time></trkpt><trkpt lat="43.7769917" lon="6.2123817"><ele>488.0</ele><time>2026-05-02T11:01:09.267Z</time></trkpt><trkpt lat="43.776965" lon="6.212465"><ele>488.0</ele><time>2026-05-02T11:01:10.268Z</time></trkpt><trkpt lat="43.7769433" lon="6.2126117"><ele>487.99999999999994</ele><time>2026-05-02T11:01:12.268Z</time></trkpt><trkpt lat="43.7770017" lon="6.2127217"><ele>488.0</ele><time>2026-05-02T11:01:14.267Z</time></trkpt><trkpt lat="43.77712" lon="6.2127917"><ele>487.99999999999994</ele><time>2026-05-02T11:01:16.267Z</time></trkpt><trkpt lat="43.77718" lon="6.2128367"><ele>488.0</ele><time>2026-05-02T11:01:17.268Z</time></trkpt><trkpt lat="43.7772417" lon="6.2128933"><ele>488.0</ele><time>2026-05-02T11:01:18.267Z</time></trkpt><trkpt lat="43.77734" lon="6.2130033"><ele>488.0</ele><time>2026-05-02T11:01:20.267Z</time></trkpt><trkpt lat="43.7773633" lon="6.213085"><ele>487.99999999999994</ele><time>2026-05-02T11:01:21.267Z</time></trkpt><trkpt lat="43.7773717" lon="6.2131883"><ele>488.0</ele><time>2026-05-02T11:01:22.267Z</time></trkpt><trkpt lat="43.7773583" lon="6.2133017"><ele>488.66666666666663</ele><time>2026-05-02T11:01:23.267Z</time></trkpt><trkpt lat="43.77731" lon="6.2134233"><ele>489.3333333333333</ele><time>2026-05-02T11:01:24.267Z</time></trkpt><trkpt lat="43.77725" lon="6.2135367"><ele>490.0</ele><time>2026-05-02T11:01:25.267Z</time></trkpt><trkpt lat="43.7771967" lon="6.21363"><ele>490.66666666666663</ele><time>2026-05-02T11:01:26.267Z</time></trkpt><trkpt lat="43.7771433" lon="6.2137067"><ele>491.3333333333333</ele><time>2026-05-02T11:01:27.267Z</time></trkpt><trkpt lat="43.7771017" lon="6.2137833"><ele>492.0</ele><time>2026-05-02T11:01:28.267Z</time></trkpt><trkpt lat="43.777025" lon="6.2139133"><ele>492.0</ele><time>2026-05-02T11:01:30.267Z</time></trkpt><trkpt lat="43.7769767" lon="6.2140183"><ele>492.00000000000006</ele><time>2026-05-02T11:01:32.267Z</time></trkpt><trkpt lat="43.777045" lon="6.2140833"><ele>492.00000000000006</ele><time>2026-05-02T11:01:36.267Z</time></trkpt><trkpt lat="43.7771333" lon="6.213945"><ele>492.0</ele><time>2026-05-02T11:01:38.267Z</time></trkpt><trkpt lat="43.77719" lon="6.213825"><ele>492.0</ele><time>2026-05-02T11:01:39.267Z</time></trkpt><trkpt lat="43.777255" lon="6.213695"><ele>492.0</ele><time>2026-05-02T11:01:40.267Z</time></trkpt><trkpt lat="43.777325" lon="6.2135667"><ele>492.0</ele><time>2026-05-02T11:01:41.267Z</time></trkpt><trkpt lat="43.7773983" lon="6.2134267"><ele>492.0</ele><time>2026-05-02T11:01:42.267Z</time></trkpt><trkpt lat="43.77747" lon="6.21327"><ele>492.0</ele><time>2026-05-02T11:01:43.267Z</time></trkpt><trkpt lat="43.777545" lon="6.2131033"><ele>492.33333333333337</ele><time>2026-05-02T11:01:44.268Z</time></trkpt><trkpt lat="43.7776383" lon="6.2129383"><ele>492.6666666666667</ele><time>2026-05-02T11:01:45.267Z</time></trkpt><trkpt lat="43.7777283" lon="6.212755"><ele>493.0</ele><time>2026-05-02T11:01:46.267Z</time></trkpt><trkpt lat="43.7778267" lon="6.2125617"><ele>493.0</ele><time>2026-05-02T11:01:47.267Z</time></trkpt><trkpt lat="43.77794" lon="6.21238"><ele>493.0</ele><time>2026-05-02T11:01:48.267Z</time></trkpt><trkpt lat="43.7780683" lon="6.21221"><ele>493.0</ele><time>2026-05-02T11:01:49.267Z</time></trkpt><trkpt lat="43.7782083" lon="6.212045"><ele>491.33333333333337</ele><time>2026-05-02T11:01:50.267Z</time></trkpt><trkpt lat="43.7783633" lon="6.211895"><ele>489.66666666666663</ele><time>2026-05-02T11:01:51.267Z</time></trkpt><trkpt lat="43.7785233" lon="6.2117667"><ele>488.0</ele><time>2026-05-02T11:01:52.267Z</time></trkpt><trkpt lat="43.7786883" lon="6.2116533"><ele>488.0</ele><time>2026-05-02T11:01:53.267Z</time></trkpt><trkpt lat="43.77886" lon="6.2115583"><ele>488.0</ele><time>2026-05-02T11:01:54.267Z</time></trkpt><trkpt lat="43.7790333" lon="6.2114983"><ele>488.0</ele><time>2026-05-02T11:01:55.267Z</time></trkpt><trkpt lat="43.7792233" lon="6.2114533"><ele>487.3333333333333</ele><time>2026-05-02T11:01:56.267Z</time></trkpt><trkpt lat="43.7794067" lon="6.2114117"><ele>486.66666666666663</ele><time>2026-05-02T11:01:57.267Z</time></trkpt><trkpt lat="43.7795833" lon="6.2113867"><ele>486.0</ele><time>2026-05-02T11:01:58.268Z</time></trkpt><trkpt lat="43.7797617" lon="6.211395"><ele>486.0</ele><time>2026-05-02T11:01:59.267Z</time></trkpt><trkpt lat="43.77995" lon="6.2114333"><ele>486.0</ele><time>2026-05-02T11:02:00.267Z</time></trkpt><trkpt lat="43.78013" lon="6.2115"><ele>486.0</ele><time>2026-05-02T11:02:01.267Z</time></trkpt><trkpt lat="43.7803083" lon="6.2115833"><ele>486.66666666666663</ele><time>2026-05-02T11:02:02.267Z</time></trkpt><trkpt lat="43.780485" lon="6.2116867"><ele>487.3333333333333</ele><time>2026-05-02T11:02:03.267Z</time></trkpt><trkpt lat="43.780655" lon="6.2118117"><ele>488.0</ele><time>2026-05-02T11:02:04.267Z</time></trkpt><trkpt lat="43.7808167" lon="6.2119517"><ele>488.0</ele><time>2026-05-02T11:02:05.267Z</time></trkpt><trkpt lat="43.7809667" lon="6.2121"><ele>488.0</ele><time>2026-05-02T11:02:06.267Z</time></trkpt><trkpt lat="43.781095" lon="6.212245"><ele>488.0</ele><time>2026-05-02T11:02:07.267Z</time></trkpt><trkpt lat="43.781215" lon="6.212385"><ele>488.0</ele><time>2026-05-02T11:02:08.267Z</time></trkpt><trkpt lat="43.7813267" lon="6.2125283"><ele>488.0</ele><time>2026-05-02T11:02:09.267Z</time></trkpt><trkpt lat="43.78144" lon="6.2126717"><ele>488.0</ele><time>2026-05-02T11:02:10.267Z</time></trkpt><trkpt lat="43.7815483" lon="6.212805"><ele>488.0</ele><time>2026-05-02T11:02:11.267Z</time></trkpt><trkpt lat="43.7816583" lon="6.2129367"><ele>488.0</ele><time>2026-05-02T11:02:12.268Z</time></trkpt><trkpt lat="43.781765" lon="6.213065"><ele>488.0</ele><time>2026-05-02T11:02:13.267Z</time></trkpt><trkpt lat="43.781865" lon="6.2131883"><ele>488.0</ele><time>2026-05-02T11:02:14.267Z</time></trkpt><trkpt lat="43.78196" lon="6.2133083"><ele>488.5</ele><time>2026-05-02T11:02:15.267Z</time></trkpt><trkpt lat="43.78206" lon="6.213415"><ele>489.0</ele><time>2026-05-02T11:02:16.267Z</time></trkpt><trkpt lat="43.78215" lon="6.213515"><ele>489.5</ele><time>2026-05-02T11:02:17.267Z</time></trkpt><trkpt lat="43.782235" lon="6.2136217"><ele>490.0</ele><time>2026-05-02T11:02:18.267Z</time></trkpt><trkpt lat="43.7823167" lon="6.21373"><ele>490.0</ele><time>2026-05-02T11:02:19.267Z</time></trkpt><trkpt lat="43.7824083" lon="6.2138467"><ele>490.0</ele><time>2026-05-02T11:02:20.267Z</time></trkpt><trkpt lat="43.7825" lon="6.2139733"><ele>490.0</ele><time>2026-05-02T11:02:21.268Z</time></trkpt><trkpt lat="43.78261" lon="6.2141083"><ele>490.0</ele><time>2026-05-02T11:02:22.267Z</time></trkpt><trkpt lat="43.7827333" lon="6.2142533"><ele>489.33333333333337</ele><time>2026-05-02T11:02:23.268Z</time></trkpt><trkpt lat="43.7828717" lon="6.2144117"><ele>488.66666666666663</ele><time>2026-05-02T11:02:24.268Z</time></trkpt><trkpt lat="43.783" lon="6.2145833"><ele>488.0</ele><time>2026-05-02T11:02:25.267Z</time></trkpt><trkpt lat="43.783145" lon="6.2147733"><ele>486.66666666666663</ele><time>2026-05-02T11:02:26.267Z</time></trkpt><trkpt lat="43.7832933" lon="6.2149683"><ele>485.33333333333337</ele><time>2026-05-02T11:02:27.267Z</time></trkpt><trkpt lat="43.7834483" lon="6.2151583"><ele>484.0</ele><time>2026-05-02T11:02:28.268Z</time></trkpt><trkpt lat="43.7835983" lon="6.2153533"><ele>484.0</ele><time>2026-05-02T11:02:29.267Z</time></trkpt><trkpt lat="43.78375" lon="6.2155383"><ele>484.0</ele><time>2026-05-02T11:02:30.267Z</time></trkpt><trkpt lat="43.7838967" lon="6.2157233"><ele>484.0</ele><time>2026-05-02T11:02:31.267Z</time></trkpt><trkpt lat="43.7840433" lon="6.2159133"><ele>484.0</ele><time>2026-05-02T11:02:32.267Z</time></trkpt><trkpt lat="43.7841933" lon="6.2161"><ele>484.0</ele><time>2026-05-02T11:02:33.268Z</time></trkpt><trkpt lat="43.7843467" lon="6.2162917"><ele>484.0</ele><time>2026-05-02T11:02:34.267Z</time></trkpt><trkpt lat="43.7844983" lon="6.21648"><ele>485.33333333333337</ele><time>2026-05-02T11:02:35.267Z</time></trkpt><trkpt lat="43.78465" lon="6.21667"><ele>486.66666666666663</ele><time>2026-05-02T11:02:36.267Z</time></trkpt><trkpt lat="43.7848017" lon="6.2168583"><ele>488.0</ele><time>2026-05-02T11:02:37.267Z</time></trkpt><trkpt lat="43.7849517" lon="6.217045"><ele>488.0</ele><time>2026-05-02T11:02:38.267Z</time></trkpt><trkpt lat="43.7851033" lon="6.21723"><ele>488.0</ele><time>2026-05-02T11:02:39.267Z</time></trkpt><trkpt lat="43.7852483" lon="6.2174167"><ele>488.0</ele><time>2026-05-02T11:02:40.268Z</time></trkpt><trkpt lat="43.7854017" lon="6.2176067"><ele>487.66666666666663</ele><time>2026-05-02T11:02:41.267Z</time></trkpt><trkpt lat="43.7855483" lon="6.21779"><ele>487.33333333333337</ele><time>2026-05-02T11:02:42.267Z</time></trkpt><trkpt lat="43.7856983" lon="6.2179733"><ele>487.0</ele><time>2026-05-02T11:02:43.267Z</time></trkpt><trkpt lat="43.7858483" lon="6.21815"><ele>487.33333333333337</ele><time>2026-05-02T11:02:44.267Z</time></trkpt><trkpt lat="43.785995" lon="6.2183367"><ele>487.66666666666663</ele><time>2026-05-02T11:02:45.267Z</time></trkpt><trkpt lat="43.7861433" lon="6.2185267"><ele>488.0</ele><time>2026-05-02T11:02:46.267Z</time></trkpt><trkpt lat="43.7862867" lon="6.218705"><ele>488.0</ele><time>2026-05-02T11:02:47.267Z</time></trkpt><trkpt lat="43.786435" lon="6.2188933"><ele>488.0</ele><time>2026-05-02T11:02:48.267Z</time></trkpt><trkpt lat="43.7865817" lon="6.2190717"><ele>488.0</ele><time>2026-05-02T11:02:49.267Z</time></trkpt><trkpt lat="43.7867233" lon="6.21925"><ele>488.0</ele><time>2026-05-02T11:02:50.267Z</time></trkpt><trkpt lat="43.7868567" lon="6.219435"><ele>488.0</ele><time>2026-05-02T11:02:51.267Z</time></trkpt><trkpt lat="43.7870017" lon="6.2196133"><ele>488.0</ele><time>2026-05-02T11:02:52.267Z</time></trkpt><trkpt lat="43.7871483" lon="6.21979"><ele>490.0</ele><time>2026-05-02T11:02:53.267Z</time></trkpt><trkpt lat="43.7872867" lon="6.21997"><ele>492.0</ele><time>2026-05-02T11:02:54.267Z</time></trkpt><trkpt lat="43.7874283" lon="6.220135"><ele>494.0</ele><time>2026-05-02T11:02:55.267Z</time></trkpt><trkpt lat="43.7875633" lon="6.2203083"><ele>493.66666666666663</ele><time>2026-05-02T11:02:56.267Z</time></trkpt><trkpt lat="43.7877017" lon="6.2204817"><ele>493.33333333333337</ele><time>2026-05-02T11:02:57.267Z</time></trkpt><trkpt lat="43.787835" lon="6.220645"><ele>493.0</ele><time>2026-05-02T11:02:58.267Z</time></trkpt><trkpt lat="43.7879583" lon="6.220825"><ele>493.0</ele><time>2026-05-02T11:02:59.267Z</time></trkpt><trkpt lat="43.788075" lon="6.2210217"><ele>493.0</ele><time>2026-05-02T11:03:00.267Z</time></trkpt><trkpt lat="43.7881733" lon="6.2212333"><ele>493.0</ele><time>2026-05-02T11:03:01.267Z</time></trkpt><trkpt lat="43.788255" lon="6.2214717"><ele>494.6666666666667</ele><time>2026-05-02T11:03:02.267Z</time></trkpt><trkpt lat="43.7883283" lon="6.221725"><ele>496.33333333333337</ele><time>2026-05-02T11:03:03.267Z</time></trkpt><trkpt lat="43.78839" lon="6.2219783"><ele>498.0</ele><time>2026-05-02T11:03:04.267Z</time></trkpt><trkpt lat="43.788445" lon="6.2222417"><ele>500.0</ele><time>2026-05-02T11:03:05.267Z</time></trkpt><trkpt lat="43.7885017" lon="6.2224983"><ele>502.0</ele><time>2026-05-02T11:03:06.267Z</time></trkpt><trkpt lat="43.788565" lon="6.2227567"><ele>504.0</ele><time>2026-05-02T11:03:07.267Z</time></trkpt><trkpt lat="43.7886233" lon="6.2230133"><ele>500.33333333333337</ele><time>2026-05-02T11:03:08.267Z</time></trkpt><trkpt lat="43.7886783" lon="6.2232567"><ele>496.6666666666667</ele><time>2026-05-02T11:03:09.268Z</time></trkpt><trkpt lat="43.7887517" lon="6.2234983"><ele>493.0</ele><time>2026-05-02T11:03:10.267Z</time></trkpt><trkpt lat="43.7888283" lon="6.223725"><ele>493.0</ele><time>2026-05-02T11:03:11.267Z</time></trkpt><trkpt lat="43.7889383" lon="6.2239483"><ele>493.0</ele><time>2026-05-02T11:03:12.267Z</time></trkpt><trkpt lat="43.7890633" lon="6.2241567"><ele>493.0</ele><time>2026-05-02T11:03:13.267Z</time></trkpt><trkpt lat="43.7892" lon="6.2243433"><ele>496.33333333333337</ele><time>2026-05-02T11:03:14.268Z</time></trkpt><trkpt lat="43.78935" lon="6.22451"><ele>499.66666666666663</ele><time>2026-05-02T11:03:15.267Z</time></trkpt><trkpt lat="43.7895" lon="6.2246633"><ele>503.0</ele><time>2026-05-02T11:03:16.268Z</time></trkpt><trkpt lat="43.7896483" lon="6.2248017"><ele>503.66666666666663</ele><time>2026-05-02T11:03:17.267Z</time></trkpt><trkpt lat="43.7898067" lon="6.2249233"><ele>504.33333333333337</ele><time>2026-05-02T11:03:18.267Z</time></trkpt><trkpt lat="43.78999" lon="6.225025"><ele>505.0</ele><time>2026-05-02T11:03:19.268Z</time></trkpt><trkpt lat="43.79016" lon="6.225115"><ele>502.6666666666667</ele><time>2026-05-02T11:03:20.267Z</time></trkpt><trkpt lat="43.790335" lon="6.2251967"><ele>500.33333333333337</ele><time>2026-05-02T11:03:21.267Z</time></trkpt><trkpt lat="43.7905133" lon="6.2252817"><ele>498.0</ele><time>2026-05-02T11:03:22.267Z</time></trkpt><trkpt lat="43.7906933" lon="6.2253567"><ele>498.0</ele><time>2026-05-02T11:03:23.267Z</time></trkpt><trkpt lat="43.7908667" lon="6.2254417"><ele>498.0</ele><time>2026-05-02T11:03:24.267Z</time></trkpt><trkpt lat="43.791035" lon="6.225535"><ele>498.0</ele><time>2026-05-02T11:03:25.267Z</time></trkpt><trkpt lat="43.791195" lon="6.225645"><ele>500.66666666666663</ele><time>2026-05-02T11:03:26.267Z</time></trkpt><trkpt lat="43.7913483" lon="6.2257767"><ele>503.3333333333333</ele><time>2026-05-02T11:03:27.267Z</time></trkpt><trkpt lat="43.7914983" lon="6.225935"><ele>506.0</ele><time>2026-05-02T11:03:28.268Z</time></trkpt><trkpt lat="43.7916433" lon="6.22611"><ele>506.0</ele><time>2026-05-02T11:03:29.267Z</time></trkpt><trkpt lat="43.7917867" lon="6.2262967"><ele>506.0</ele><time>2026-05-02T11:03:30.267Z</time></trkpt><trkpt lat="43.791915" lon="6.2265033"><ele>506.0</ele><time>2026-05-02T11:03:31.267Z</time></trkpt><trkpt lat="43.7920383" lon="6.2267217"><ele>507.3333333333333</ele><time>2026-05-02T11:03:32.267Z</time></trkpt><trkpt lat="43.7921767" lon="6.2269433"><ele>508.66666666666663</ele><time>2026-05-02T11:03:33.267Z</time></trkpt><trkpt lat="43.7923083" lon="6.2271733"><ele>510.0</ele><time>2026-05-02T11:03:34.268Z</time></trkpt><trkpt lat="43.792435" lon="6.2274"><ele>510.0</ele><time>2026-05-02T11:03:35.267Z</time></trkpt><trkpt lat="43.7925633" lon="6.2276233"><ele>510.0</ele><time>2026-05-02T11:03:36.268Z</time></trkpt><trkpt lat="43.7926933" lon="6.22785"><ele>510.0</ele><time>2026-05-02T11:03:37.267Z</time></trkpt><trkpt lat="43.7928283" lon="6.228055"><ele>509.0</ele><time>2026-05-02T11:03:38.267Z</time></trkpt><trkpt lat="43.79295" lon="6.2282567"><ele>508.0</ele><time>2026-05-02T11:03:39.268Z</time></trkpt><trkpt lat="43.7930683" lon="6.2284633"><ele>507.0</ele><time>2026-05-02T11:03:40.267Z</time></trkpt><trkpt lat="43.79317" lon="6.2286667"><ele>507.0</ele><time>2026-05-02T11:03:41.268Z</time></trkpt><trkpt lat="43.7932533" lon="6.2288817"><ele>507.0</ele><time>2026-05-02T11:03:42.267Z</time></trkpt><trkpt lat="43.7933017" lon="6.22912"><ele>507.0</ele><time>2026-05-02T11:03:43.267Z</time></trkpt><trkpt lat="43.79331" lon="6.2293633"><ele>506.66666666666663</ele><time>2026-05-02T11:03:44.267Z</time></trkpt><trkpt lat="43.7933167" lon="6.2296217"><ele>506.3333333333333</ele><time>2026-05-02T11:03:45.267Z</time></trkpt><trkpt lat="43.793305" lon="6.2298833"><ele>506.0</ele><time>2026-05-02T11:03:46.268Z</time></trkpt><trkpt lat="43.7932733" lon="6.2301467"><ele>506.0</ele><time>2026-05-02T11:03:47.267Z</time></trkpt><trkpt lat="43.7932517" lon="6.2303983"><ele>506.0</ele><time>2026-05-02T11:03:48.267Z</time></trkpt><trkpt lat="43.79324" lon="6.2306417"><ele>506.0</ele><time>2026-05-02T11:03:49.267Z</time></trkpt><trkpt lat="43.79324" lon="6.2308683"><ele>502.66666666666663</ele><time>2026-05-02T11:03:50.267Z</time></trkpt><trkpt lat="43.7932433" lon="6.2310867"><ele>499.33333333333337</ele><time>2026-05-02T11:03:51.267Z</time></trkpt><trkpt lat="43.79326" lon="6.231305"><ele>496.0</ele><time>2026-05-02T11:03:52.268Z</time></trkpt><trkpt lat="43.7933183" lon="6.2315"><ele>495.0</ele><time>2026-05-02T11:03:53.267Z</time></trkpt><trkpt lat="43.79339" lon="6.2316733"><ele>494.0</ele><time>2026-05-02T11:03:54.267Z</time></trkpt><trkpt lat="43.7934783" lon="6.2318217"><ele>493.0</ele><time>2026-05-02T11:03:55.267Z</time></trkpt><trkpt lat="43.793585" lon="6.2319417"><ele>492.0</ele><time>2026-05-02T11:03:56.267Z</time></trkpt><trkpt lat="43.7937167" lon="6.232035"><ele>491.33333333333337</ele><time>2026-05-02T11:03:57.267Z</time></trkpt><trkpt lat="43.7938617" lon="6.23211"><ele>490.6666666666667</ele><time>2026-05-02T11:03:58.267Z</time></trkpt><trkpt lat="43.7940217" lon="6.23215"><ele>490.0</ele><time>2026-05-02T11:03:59.267Z</time></trkpt><trkpt lat="43.7941933" lon="6.2321817"><ele>488.0</ele><time>2026-05-02T11:04:00.267Z</time></trkpt><trkpt lat="43.7943683" lon="6.2322033"><ele>486.0</ele><time>2026-05-02T11:04:01.267Z</time></trkpt><trkpt lat="43.7945333" lon="6.232225"><ele>484.0</ele><time>2026-05-02T11:04:02.267Z</time></trkpt><trkpt lat="43.79469" lon="6.2322417"><ele>484.0</ele><time>2026-05-02T11:04:03.267Z</time></trkpt><trkpt lat="43.794845" lon="6.23226"><ele>484.0</ele><time>2026-05-02T11:04:04.267Z</time></trkpt><trkpt lat="43.7949933" lon="6.2322967"><ele>484.0</ele><time>2026-05-02T11:04:05.267Z</time></trkpt><trkpt lat="43.7951333" lon="6.23235"><ele>484.0</ele><time>2026-05-02T11:04:06.267Z</time></trkpt><trkpt lat="43.795275" lon="6.2324317"><ele>484.0</ele><time>2026-05-02T11:04:07.267Z</time></trkpt><trkpt lat="43.7954067" lon="6.2325317"><ele>484.0</ele><time>2026-05-02T11:04:08.267Z</time></trkpt><trkpt lat="43.795535" lon="6.2326783"><ele>484.0</ele><time>2026-05-02T11:04:09.267Z</time></trkpt><trkpt lat="43.7956533" lon="6.232855"><ele>484.0</ele><time>2026-05-02T11:04:10.267Z</time></trkpt><trkpt lat="43.7957533" lon="6.2330467"><ele>484.0</ele><time>2026-05-02T11:04:11.267Z</time></trkpt><trkpt lat="43.795825" lon="6.233255"><ele>486.33333333333337</ele><time>2026-05-02T11:04:12.267Z</time></trkpt><trkpt lat="43.79588" lon="6.23348"><ele>488.66666666666663</ele><time>2026-05-02T11:04:13.267Z</time></trkpt><trkpt lat="43.7959033" lon="6.2337167"><ele>491.0</ele><time>2026-05-02T11:04:14.267Z</time></trkpt><trkpt lat="43.7959017" lon="6.233945"><ele>492.3333333333333</ele><time>2026-05-02T11:04:15.267Z</time></trkpt><trkpt lat="43.7958767" lon="6.2341683"><ele>493.66666666666663</ele><time>2026-05-02T11:04:16.267Z</time></trkpt><trkpt lat="43.79583" lon="6.2343967"><ele>495.0</ele><time>2026-05-02T11:04:17.267Z</time></trkpt><trkpt lat="43.795775" lon="6.2346183"><ele>493.0</ele><time>2026-05-02T11:04:18.267Z</time></trkpt><trkpt lat="43.7957133" lon="6.23485"><ele>491.0</ele><time>2026-05-02T11:04:19.267Z</time></trkpt><trkpt lat="43.79564" lon="6.2350817"><ele>489.0</ele><time>2026-05-02T11:04:20.267Z</time></trkpt><trkpt lat="43.79557" lon="6.2353033"><ele>489.0</ele><time>2026-05-02T11:04:21.267Z</time></trkpt><trkpt lat="43.795515" lon="6.235525"><ele>489.0</ele><time>2026-05-02T11:04:22.267Z</time></trkpt><trkpt lat="43.7954633" lon="6.2357467"><ele>489.0</ele><time>2026-05-02T11:04:23.267Z</time></trkpt><trkpt lat="43.795425" lon="6.2359583"><ele>488.66666666666663</ele><time>2026-05-02T11:04:24.267Z</time></trkpt><trkpt lat="43.795405" lon="6.2361717"><ele>488.3333333333333</ele><time>2026-05-02T11:04:25.267Z</time></trkpt><trkpt lat="43.7954267" lon="6.2363833"><ele>488.0</ele><time>2026-05-02T11:04:26.268Z</time></trkpt><trkpt lat="43.795485" lon="6.2365817"><ele>488.0</ele><time>2026-05-02T11:04:27.267Z</time></trkpt><trkpt lat="43.7955717" lon="6.2367567"><ele>488.0</ele><time>2026-05-02T11:04:28.267Z</time></trkpt><trkpt lat="43.795685" lon="6.2369167"><ele>488.0</ele><time>2026-05-02T11:04:29.267Z</time></trkpt><trkpt lat="43.7958267" lon="6.23704"><ele>488.0</ele><time>2026-05-02T11:04:30.267Z</time></trkpt><trkpt lat="43.7959933" lon="6.2371167"><ele>488.0</ele><time>2026-05-02T11:04:31.267Z</time></trkpt><trkpt lat="43.7961567" lon="6.23717"><ele>488.0</ele><time>2026-05-02T11:04:32.268Z</time></trkpt><trkpt lat="43.7963117" lon="6.2372117"><ele>486.66666666666663</ele><time>2026-05-02T11:04:33.267Z</time></trkpt><trkpt lat="43.796475" lon="6.2372517"><ele>485.33333333333337</ele><time>2026-05-02T11:04:34.267Z</time></trkpt><trkpt lat="43.7966317" lon="6.2373017"><ele>484.0</ele><time>2026-05-02T11:04:35.267Z</time></trkpt><trkpt lat="43.7967767" lon="6.2373917"><ele>481.6666666666667</ele><time>2026-05-02T11:04:36.267Z</time></trkpt><trkpt lat="43.79692" lon="6.2375017"><ele>479.33333333333337</ele><time>2026-05-02T11:04:37.267Z</time></trkpt><trkpt lat="43.797035" lon="6.2376533"><ele>477.0</ele><time>2026-05-02T11:04:38.267Z</time></trkpt><trkpt lat="43.7971183" lon="6.2378367"><ele>477.0</ele><time>2026-05-02T11:04:39.267Z</time></trkpt><trkpt lat="43.797165" lon="6.2380483"><ele>477.0</ele><time>2026-05-02T11:04:40.268Z</time></trkpt><trkpt lat="43.79718" lon="6.238275"><ele>477.0</ele><time>2026-05-02T11:04:41.267Z</time></trkpt><trkpt lat="43.7971767" lon="6.2385133"><ele>479.33333333333337</ele><time>2026-05-02T11:04:42.267Z</time></trkpt><trkpt lat="43.79715" lon="6.2387617"><ele>481.6666666666667</ele><time>2026-05-02T11:04:43.267Z</time></trkpt><trkpt lat="43.79712" lon="6.2390067"><ele>484.0</ele><time>2026-05-02T11:04:44.267Z</time></trkpt><trkpt lat="43.7970883" lon="6.239255"><ele>484.6666666666667</ele><time>2026-05-02T11:04:45.267Z</time></trkpt><trkpt lat="43.797055" lon="6.2395017"><ele>485.33333333333337</ele><time>2026-05-02T11:04:46.267Z</time></trkpt><trkpt lat="43.7970367" lon="6.2397433"><ele>486.0</ele><time>2026-05-02T11:04:47.267Z</time></trkpt><trkpt lat="43.797015" lon="6.23999"><ele>486.0</ele><time>2026-05-02T11:04:48.267Z</time></trkpt><trkpt lat="43.796995" lon="6.2402333"><ele>486.0</ele><time>2026-05-02T11:04:49.267Z</time></trkpt><trkpt lat="43.79697" lon="6.2404717"><ele>486.0</ele><time>2026-05-02T11:04:50.267Z</time></trkpt><trkpt lat="43.7969417" lon="6.2406983"><ele>486.66666666666663</ele><time>2026-05-02T11:04:51.268Z</time></trkpt><trkpt lat="43.7969083" lon="6.2409233"><ele>487.3333333333333</ele><time>2026-05-02T11:04:52.267Z</time></trkpt><trkpt lat="43.7968917" lon="6.241145"><ele>488.0</ele><time>2026-05-02T11:04:53.267Z</time></trkpt><trkpt lat="43.79687" lon="6.2413617"><ele>488.0</ele><time>2026-05-02T11:04:54.268Z</time></trkpt><trkpt lat="43.7968433" lon="6.2415733"><ele>488.0</ele><time>2026-05-02T11:04:55.267Z</time></trkpt><trkpt lat="43.7968233" lon="6.24179"><ele>488.0</ele><time>2026-05-02T11:04:56.267Z</time></trkpt><trkpt lat="43.79681" lon="6.241995"><ele>488.75</ele><time>2026-05-02T11:04:57.267Z</time></trkpt><trkpt lat="43.796815" lon="6.2421967"><ele>489.5</ele><time>2026-05-02T11:04:58.267Z</time></trkpt><trkpt lat="43.7968333" lon="6.24239"><ele>490.25</ele><time>2026-05-02T11:04:59.267Z</time></trkpt><trkpt lat="43.7968667" lon="6.2425917"><ele>491.0</ele><time>2026-05-02T11:05:00.267Z</time></trkpt><trkpt lat="43.7969033" lon="6.2427933"><ele>491.0</ele><time>2026-05-02T11:05:01.268Z</time></trkpt><trkpt lat="43.796955" lon="6.2429783"><ele>491.0</ele><time>2026-05-02T11:05:02.267Z</time></trkpt><trkpt lat="43.7970167" lon="6.243165"><ele>491.0</ele><time>2026-05-02T11:05:03.267Z</time></trkpt><trkpt lat="43.7970967" lon="6.2433367"><ele>491.0</ele><time>2026-05-02T11:05:04.267Z</time></trkpt><trkpt lat="43.7971767" lon="6.2434917"><ele>492.25</ele><time>2026-05-02T11:05:05.267Z</time></trkpt><trkpt lat="43.7972633" lon="6.2436467"><ele>493.5</ele><time>2026-05-02T11:05:06.267Z</time></trkpt><trkpt lat="43.7973717" lon="6.2437967"><ele>494.75</ele><time>2026-05-02T11:05:07.268Z</time></trkpt><trkpt lat="43.7974883" lon="6.243935"><ele>496.0</ele><time>2026-05-02T11:05:08.267Z</time></trkpt><trkpt lat="43.79761" lon="6.2440567"><ele>495.0</ele><time>2026-05-02T11:05:09.267Z</time></trkpt><trkpt lat="43.7977467" lon="6.244165"><ele>494.0</ele><time>2026-05-02T11:05:10.267Z</time></trkpt><trkpt lat="43.7978767" lon="6.2442733"><ele>493.0</ele><time>2026-05-02T11:05:11.267Z</time></trkpt><trkpt lat="43.7980117" lon="6.2443767"><ele>493.0</ele><time>2026-05-02T11:05:12.268Z</time></trkpt><trkpt lat="43.79815" lon="6.2444767"><ele>493.0</ele><time>2026-05-02T11:05:13.267Z</time></trkpt><trkpt lat="43.7982783" lon="6.2445867"><ele>493.0</ele><time>2026-05-02T11:05:14.267Z</time></trkpt><trkpt lat="43.7984133" lon="6.244695"><ele>492.6666666666667</ele><time>2026-05-02T11:05:15.267Z</time></trkpt><trkpt lat="43.798545" lon="6.2448"><ele>492.33333333333337</ele><time>2026-05-02T11:05:16.267Z</time></trkpt><trkpt lat="43.7986817" lon="6.2449117"><ele>492.0</ele><time>2026-05-02T11:05:17.267Z</time></trkpt><trkpt lat="43.7988217" lon="6.245025"><ele>492.0</ele><time>2026-05-02T11:05:18.267Z</time></trkpt><trkpt lat="43.79897" lon="6.245145"><ele>492.0</ele><time>2026-05-02T11:05:19.267Z</time></trkpt><trkpt lat="43.79911" lon="6.2452783"><ele>492.0</ele><time>2026-05-02T11:05:20.267Z</time></trkpt><trkpt lat="43.7992417" lon="6.2454217"><ele>490.33333333333337</ele><time>2026-05-02T11:05:21.267Z</time></trkpt><trkpt lat="43.7993683" lon="6.245575"><ele>488.6666666666667</ele><time>2026-05-02T11:05:22.267Z</time></trkpt><trkpt lat="43.7994967" lon="6.245735"><ele>487.0</ele><time>2026-05-02T11:05:23.267Z</time></trkpt><trkpt lat="43.7996167" lon="6.245895"><ele>487.0</ele><time>2026-05-02T11:05:24.268Z</time></trkpt><trkpt lat="43.7997283" lon="6.2460567"><ele>487.0</ele><time>2026-05-02T11:05:25.267Z</time></trkpt><trkpt lat="43.7998467" lon="6.2462383"><ele>487.0</ele><time>2026-05-02T11:05:26.267Z</time></trkpt><trkpt lat="43.7999583" lon="6.2464217"><ele>489.33333333333337</ele><time>2026-05-02T11:05:27.267Z</time></trkpt><trkpt lat="43.800065" lon="6.246625"><ele>491.66666666666663</ele><time>2026-05-02T11:05:28.267Z</time></trkpt><trkpt lat="43.800165" lon="6.2468233"><ele>494.0</ele><time>2026-05-02T11:05:29.267Z</time></trkpt><trkpt lat="43.8002583" lon="6.2470233"><ele>491.3333333333333</ele><time>2026-05-02T11:05:30.267Z</time></trkpt><trkpt lat="43.8003533" lon="6.247225"><ele>488.66666666666663</ele><time>2026-05-02T11:05:31.268Z</time></trkpt><trkpt lat="43.8004367" lon="6.2474267"><ele>486.0</ele><time>2026-05-02T11:05:32.267Z</time></trkpt><trkpt lat="43.8005217" lon="6.247625"><ele>486.0</ele><time>2026-05-02T11:05:33.267Z</time></trkpt><trkpt lat="43.8006033" lon="6.2478233"><ele>486.0</ele><time>2026-05-02T11:05:34.267Z</time></trkpt><trkpt lat="43.8006883" lon="6.2480067"><ele>486.0</ele><time>2026-05-02T11:05:35.267Z</time></trkpt><trkpt lat="43.8007733" lon="6.24819"><ele>489.0</ele><time>2026-05-02T11:05:36.267Z</time></trkpt><trkpt lat="43.800845" lon="6.248365"><ele>492.0</ele><time>2026-05-02T11:05:37.267Z</time></trkpt><trkpt lat="43.800905" lon="6.2485217"><ele>495.0</ele><time>2026-05-02T11:05:38.267Z</time></trkpt><trkpt lat="43.8009683" lon="6.2486767"><ele>498.0</ele><time>2026-05-02T11:05:39.267Z</time></trkpt><trkpt lat="43.8010333" lon="6.24882"><ele>493.79999999999995</ele><time>2026-05-02T11:05:40.267Z</time></trkpt><trkpt lat="43.801105" lon="6.248945"><ele>489.59999999999997</ele><time>2026-05-02T11:05:41.267Z</time></trkpt><trkpt lat="43.8011867" lon="6.2490533"><ele>485.40000000000003</ele><time>2026-05-02T11:05:42.267Z</time></trkpt><trkpt lat="43.8012733" lon="6.2491267"><ele>481.20000000000005</ele><time>2026-05-02T11:05:43.267Z</time></trkpt><trkpt lat="43.8013533" lon="6.249185"><ele>477.0</ele><time>2026-05-02T11:05:44.267Z</time></trkpt><trkpt lat="43.8014117" lon="6.2492267"><ele>477.0</ele><time>2026-05-02T11:05:45.267Z</time></trkpt><trkpt lat="43.8014933" lon="6.2492867"><ele>477.0</ele><time>2026-05-02T11:05:47.267Z</time></trkpt><trkpt lat="43.8015667" lon="6.2493383"><ele>477.0</ele><time>2026-05-02T11:05:50.268Z</time></trkpt><trkpt lat="43.8016467" lon="6.2494017"><ele>477.0</ele><time>2026-05-02T11:05:53.267Z</time></trkpt><trkpt lat="43.8017267" lon="6.2494533"><ele>477.0</ele><time>2026-05-02T11:05:55.267Z</time></trkpt><trkpt lat="43.8018033" lon="6.2495183"><ele>477.0</ele><time>2026-05-02T11:05:57.267Z</time></trkpt><trkpt lat="43.8018817" lon="6.2495733"><ele>477.40000000000003</ele><time>2026-05-02T11:05:59.267Z</time></trkpt><trkpt lat="43.8019633" lon="6.2496283"><ele>477.80000000000007</ele><time>2026-05-02T11:06:01.267Z</time></trkpt><trkpt lat="43.8020517" lon="6.2496917"><ele>478.2</ele><time>2026-05-02T11:06:03.267Z</time></trkpt><trkpt lat="43.8021383" lon="6.2497633"><ele>478.6</ele><time>2026-05-02T11:06:05.268Z</time></trkpt><trkpt lat="43.802235" lon="6.2498483"><ele>479.0</ele><time>2026-05-02T11:06:07.268Z</time></trkpt><trkpt lat="43.8023017" lon="6.249895"><ele>481.0</ele><time>2026-05-02T11:06:08.267Z</time></trkpt><trkpt lat="43.80238" lon="6.2499367"><ele>483.0</ele><time>2026-05-02T11:06:09.267Z</time></trkpt><trkpt lat="43.8024667" lon="6.2499733"><ele>485.0</ele><time>2026-05-02T11:06:10.268Z</time></trkpt><trkpt lat="43.8025667" lon="6.25"><ele>487.0</ele><time>2026-05-02T11:06:11.267Z</time></trkpt><trkpt lat="43.802665" lon="6.2499983"><ele>489.0</ele><time>2026-05-02T11:06:12.267Z</time></trkpt><trkpt lat="43.8027767" lon="6.2499383"><ele>492.0</ele><time>2026-05-02T11:06:13.267Z</time></trkpt><trkpt lat="43.8028883" lon="6.2498217"><ele>495.0</ele><time>2026-05-02T11:06:14.267Z</time></trkpt><trkpt lat="43.8029667" lon="6.2496617"><ele>498.0</ele><time>2026-05-02T11:06:15.267Z</time></trkpt><trkpt lat="43.803015" lon="6.2494867"><ele>501.0</ele><time>2026-05-02T11:06:16.267Z</time></trkpt><trkpt lat="43.8030367" lon="6.2492967"><ele>501.0</ele><time>2026-05-02T11:06:17.267Z</time></trkpt><trkpt lat="43.8030617" lon="6.249105"><ele>501.0</ele><time>2026-05-02T11:06:18.267Z</time></trkpt><trkpt lat="43.8031117" lon="6.2489217"><ele>501.0</ele><time>2026-05-02T11:06:19.268Z</time></trkpt><trkpt lat="43.8031967" lon="6.2487533"><ele>501.0</ele><time>2026-05-02T11:06:20.267Z</time></trkpt><trkpt lat="43.8033083" lon="6.248595"><ele>497.66666666666663</ele><time>2026-05-02T11:06:21.267Z</time></trkpt><trkpt lat="43.8034217" lon="6.2484367"><ele>494.3333333333333</ele><time>2026-05-02T11:06:22.267Z</time></trkpt><trkpt lat="43.80353" lon="6.24826"><ele>491.0</ele><time>2026-05-02T11:06:23.267Z</time></trkpt><trkpt lat="43.8036417" lon="6.24808"><ele>490.3333333333333</ele><time>2026-05-02T11:06:24.267Z</time></trkpt><trkpt lat="43.80375" lon="6.2478983"><ele>489.66666666666663</ele><time>2026-05-02T11:06:25.267Z</time></trkpt><trkpt lat="43.803845" lon="6.2477033"><ele>489.0</ele><time>2026-05-02T11:06:26.267Z</time></trkpt><trkpt lat="43.80393" lon="6.2474917"><ele>488.0</ele><time>2026-05-02T11:06:27.267Z</time></trkpt><trkpt lat="43.803985" lon="6.2472683"><ele>487.0</ele><time>2026-05-02T11:06:28.267Z</time></trkpt><trkpt lat="43.8040217" lon="6.247015"><ele>486.0</ele><time>2026-05-02T11:06:29.267Z</time></trkpt><trkpt lat="43.8040467" lon="6.246745"><ele>486.0</ele><time>2026-05-02T11:06:30.267Z</time></trkpt><trkpt lat="43.8040767" lon="6.246465"><ele>486.0</ele><time>2026-05-02T11:06:31.267Z</time></trkpt><trkpt lat="43.8041117" lon="6.2461867"><ele>486.0</ele><time>2026-05-02T11:06:32.268Z</time></trkpt><trkpt lat="43.8041417" lon="6.245905"><ele>486.0</ele><time>2026-05-02T11:06:33.267Z</time></trkpt><trkpt lat="43.8041767" lon="6.2456083"><ele>486.0</ele><time>2026-05-02T11:06:34.268Z</time></trkpt><trkpt lat="43.8042083" lon="6.2453333"><ele>486.0</ele><time>2026-05-02T11:06:35.267Z</time></trkpt><trkpt lat="43.80424" lon="6.2450617"><ele>487.66666666666663</ele><time>2026-05-02T11:06:36.267Z</time></trkpt><trkpt lat="43.80426" lon="6.2447933"><ele>489.3333333333333</ele><time>2026-05-02T11:06:37.267Z</time></trkpt><trkpt lat="43.804265" lon="6.2445283"><ele>491.0</ele><time>2026-05-02T11:06:38.267Z</time></trkpt><trkpt lat="43.8042517" lon="6.2442583"><ele>491.0</ele><time>2026-05-02T11:06:39.267Z</time></trkpt><trkpt lat="43.8042367" lon="6.243995"><ele>491.0</ele><time>2026-05-02T11:06:40.268Z</time></trkpt><trkpt lat="43.8042067" lon="6.2437317"><ele>491.0</ele><time>2026-05-02T11:06:41.268Z</time></trkpt><trkpt lat="43.804195" lon="6.2434633"><ele>492.3333333333333</ele><time>2026-05-02T11:06:42.267Z</time></trkpt><trkpt lat="43.8041867" lon="6.2432067"><ele>493.66666666666663</ele><time>2026-05-02T11:06:43.267Z</time></trkpt><trkpt lat="43.8041983" lon="6.2429533"><ele>495.0</ele><time>2026-05-02T11:06:44.267Z</time></trkpt><trkpt lat="43.8042117" lon="6.2427017"><ele>495.66666666666663</ele><time>2026-05-02T11:06:45.267Z</time></trkpt><trkpt lat="43.8042317" lon="6.2424533"><ele>496.3333333333333</ele><time>2026-05-02T11:06:46.267Z</time></trkpt><trkpt lat="43.8042517" lon="6.2421983"><ele>497.0</ele><time>2026-05-02T11:06:47.267Z</time></trkpt><trkpt lat="43.804265" lon="6.241945"><ele>497.66666666666663</ele><time>2026-05-02T11:06:48.267Z</time></trkpt><trkpt lat="43.804275" lon="6.2417"><ele>498.33333333333337</ele><time>2026-05-02T11:06:49.268Z</time></trkpt><trkpt lat="43.804285" lon="6.24146"><ele>499.0</ele><time>2026-05-02T11:06:50.268Z</time></trkpt><trkpt lat="43.804285" lon="6.2412183"><ele>501.33333333333337</ele><time>2026-05-02T11:06:51.267Z</time></trkpt><trkpt lat="43.8042633" lon="6.24098"><ele>503.66666666666663</ele><time>2026-05-02T11:06:52.267Z</time></trkpt><trkpt lat="43.8042333" lon="6.24075"><ele>506.0</ele><time>2026-05-02T11:06:53.267Z</time></trkpt><trkpt lat="43.8042083" lon="6.2405267"><ele>508.3333333333333</ele><time>2026-05-02T11:06:54.267Z</time></trkpt><trkpt lat="43.80418" lon="6.2403"><ele>510.66666666666663</ele><time>2026-05-02T11:06:55.267Z</time></trkpt><trkpt lat="43.8041483" lon="6.2400817"><ele>513.0</ele><time>2026-05-02T11:06:56.268Z</time></trkpt><trkpt lat="43.8041317" lon="6.2398617"><ele>512.0</ele><time>2026-05-02T11:06:57.267Z</time></trkpt><trkpt lat="43.8041233" lon="6.2396417"><ele>511.0</ele><time>2026-05-02T11:06:58.267Z</time></trkpt><trkpt lat="43.8041283" lon="6.2394183"><ele>510.0</ele><time>2026-05-02T11:06:59.267Z</time></trkpt><trkpt lat="43.8041383" lon="6.239195"><ele>510.0</ele><time>2026-05-02T11:07:00.267Z</time></trkpt><trkpt lat="43.8041583" lon="6.23897"><ele>510.0</ele><time>2026-05-02T11:07:01.267Z</time></trkpt><trkpt lat="43.8041933" lon="6.23874"><ele>510.0</ele><time>2026-05-02T11:07:02.268Z</time></trkpt><trkpt lat="43.8042217" lon="6.2385033"><ele>510.33333333333337</ele><time>2026-05-02T11:07:03.267Z</time></trkpt><trkpt lat="43.804255" lon="6.2382817"><ele>510.6666666666667</ele><time>2026-05-02T11:07:04.267Z</time></trkpt><trkpt lat="43.80429" lon="6.23806"><ele>511.0</ele><time>2026-05-02T11:07:05.267Z</time></trkpt><trkpt lat="43.804305" lon="6.23783"><ele>513.0</ele><time>2026-05-02T11:07:06.267Z</time></trkpt><trkpt lat="43.8042983" lon="6.2375983"><ele>515.0</ele><time>2026-05-02T11:07:07.267Z</time></trkpt><trkpt lat="43.804275" lon="6.2373667"><ele>517.0</ele><time>2026-05-02T11:07:08.267Z</time></trkpt><trkpt lat="43.80423" lon="6.23714"><ele>520.3333333333334</ele><time>2026-05-02T11:07:09.267Z</time></trkpt><trkpt lat="43.8041733" lon="6.2369333"><ele>523.6666666666666</ele><time>2026-05-02T11:07:10.267Z</time></trkpt><trkpt lat="43.8041" lon="6.236725"><ele>527.0</ele><time>2026-05-02T11:07:11.267Z</time></trkpt><trkpt lat="43.8040233" lon="6.2365333"><ele>530.6666666666666</ele><time>2026-05-02T11:07:12.267Z</time></trkpt><trkpt lat="43.8039317" lon="6.2363517"><ele>534.3333333333334</ele><time>2026-05-02T11:07:13.267Z</time></trkpt><trkpt lat="43.8038367" lon="6.2361683"><ele>538.0</ele><time>2026-05-02T11:07:14.267Z</time></trkpt><trkpt lat="43.8037367" lon="6.2359817"><ele>538.0</ele><time>2026-05-02T11:07:15.267Z</time></trkpt><trkpt lat="43.8036433" lon="6.2358"><ele>538.0</ele><time>2026-05-02T11:07:16.268Z</time></trkpt><trkpt lat="43.80355" lon="6.2356317"><ele>538.0</ele><time>2026-05-02T11:07:17.267Z</time></trkpt><trkpt lat="43.8034567" lon="6.2354583"><ele>536.5</ele><time>2026-05-02T11:07:18.267Z</time></trkpt><trkpt lat="43.80338" lon="6.235295"><ele>535.0</ele><time>2026-05-02T11:07:19.267Z</time></trkpt><trkpt lat="43.8033267" lon="6.2351167"><ele>533.5</ele><time>2026-05-02T11:07:20.268Z</time></trkpt><trkpt lat="43.8032867" lon="6.2349033"><ele>532.0</ele><time>2026-05-02T11:07:21.267Z</time></trkpt><trkpt lat="43.8032767" lon="6.23469"><ele>532.0</ele><time>2026-05-02T11:07:22.267Z</time></trkpt><trkpt lat="43.8033067" lon="6.2344583"><ele>532.0</ele><time>2026-05-02T11:07:23.267Z</time></trkpt><trkpt lat="43.80337" lon="6.2342483"><ele>532.0</ele><time>2026-05-02T11:07:24.267Z</time></trkpt><trkpt lat="43.8034683" lon="6.2340583"><ele>529.3333333333334</ele><time>2026-05-02T11:07:25.267Z</time></trkpt><trkpt lat="43.803595" lon="6.2338967"><ele>526.6666666666666</ele><time>2026-05-02T11:07:26.267Z</time></trkpt><trkpt lat="43.80374" lon="6.2337833"><ele>524.0</ele><time>2026-05-02T11:07:27.267Z</time></trkpt><trkpt lat="43.8039033" lon="6.2337217"><ele>524.0</ele><time>2026-05-02T11:07:28.267Z</time></trkpt><trkpt lat="43.804075" lon="6.23372"><ele>524.0</ele><time>2026-05-02T11:07:29.267Z</time></trkpt><trkpt lat="43.80426" lon="6.2337483"><ele>524.0</ele><time>2026-05-02T11:07:30.267Z</time></trkpt><trkpt lat="43.8044383" lon="6.2338133"><ele>525.0</ele><time>2026-05-02T11:07:31.267Z</time></trkpt><trkpt lat="43.8046167" lon="6.2338917"><ele>526.0</ele><time>2026-05-02T11:07:32.267Z</time></trkpt><trkpt lat="43.8047867" lon="6.2339483"><ele>527.0</ele><time>2026-05-02T11:07:33.268Z</time></trkpt><trkpt lat="43.8049517" lon="6.234005"><ele>527.0</ele><time>2026-05-02T11:07:34.267Z</time></trkpt><trkpt lat="43.805115" lon="6.2340617"><ele>527.0</ele><time>2026-05-02T11:07:35.267Z</time></trkpt><trkpt lat="43.8052617" lon="6.2341167"><ele>527.0</ele><time>2026-05-02T11:07:36.267Z</time></trkpt><trkpt lat="43.8053967" lon="6.2341633"><ele>526.0</ele><time>2026-05-02T11:07:37.267Z</time></trkpt><trkpt lat="43.8055267" lon="6.2342067"><ele>525.0</ele><time>2026-05-02T11:07:38.267Z</time></trkpt><trkpt lat="43.8056567" lon="6.2342483"><ele>524.0</ele><time>2026-05-02T11:07:39.267Z</time></trkpt><trkpt lat="43.8057883" lon="6.234285"><ele>523.0</ele><time>2026-05-02T11:07:40.267Z</time></trkpt><trkpt lat="43.8059283" lon="6.2343383"><ele>522.6666666666667</ele><time>2026-05-02T11:07:41.267Z</time></trkpt><trkpt lat="43.8060767" lon="6.2343883"><ele>522.3333333333334</ele><time>2026-05-02T11:07:42.267Z</time></trkpt><trkpt lat="43.8062317" lon="6.2344383"><ele>522.0</ele><time>2026-05-02T11:07:43.267Z</time></trkpt><trkpt lat="43.8063883" lon="6.2344917"><ele>522.0</ele><time>2026-05-02T11:07:44.267Z</time></trkpt><trkpt lat="43.8065533" lon="6.2345533"><ele>522.0</ele><time>2026-05-02T11:07:45.268Z</time></trkpt><trkpt lat="43.8067367" lon="6.2346233"><ele>522.0</ele><time>2026-05-02T11:07:46.267Z</time></trkpt><trkpt lat="43.8069133" lon="6.23469"><ele>522.3333333333334</ele><time>2026-05-02T11:07:47.267Z</time></trkpt><trkpt lat="43.8070933" lon="6.2347433"><ele>522.6666666666667</ele><time>2026-05-02T11:07:48.267Z</time></trkpt><trkpt lat="43.80727" lon="6.234795"><ele>523.0</ele><time>2026-05-02T11:07:49.267Z</time></trkpt><trkpt lat="43.8074483" lon="6.2348217"><ele>523.0</ele><time>2026-05-02T11:07:50.267Z</time></trkpt><trkpt lat="43.807625" lon="6.23482"><ele>523.0</ele><time>2026-05-02T11:07:51.267Z</time></trkpt><trkpt lat="43.8078017" lon="6.2347767"><ele>523.0</ele><time>2026-05-02T11:07:52.267Z</time></trkpt><trkpt lat="43.8079717" lon="6.2347033"><ele>520.6666666666667</ele><time>2026-05-02T11:07:53.267Z</time></trkpt><trkpt lat="43.8081267" lon="6.23458"><ele>518.3333333333334</ele><time>2026-05-02T11:07:54.267Z</time></trkpt><trkpt lat="43.8082733" lon="6.2344217"><ele>516.0</ele><time>2026-05-02T11:07:55.267Z</time></trkpt><trkpt lat="43.8083933" lon="6.2342367"><ele>516.0</ele><time>2026-05-02T11:07:56.267Z</time></trkpt><trkpt lat="43.8085017" lon="6.234015"><ele>516.0</ele><time>2026-05-02T11:07:57.267Z</time></trkpt><trkpt lat="43.80858" lon="6.2337883"><ele>516.0</ele><time>2026-05-02T11:07:58.267Z</time></trkpt><trkpt lat="43.8086367" lon="6.233545"><ele>515.6666666666666</ele><time>2026-05-02T11:07:59.267Z</time></trkpt><trkpt lat="43.80866" lon="6.23329"><ele>515.3333333333333</ele><time>2026-05-02T11:08:00.267Z</time></trkpt><trkpt lat="43.808645" lon="6.23303"><ele>515.0</ele><time>2026-05-02T11:08:01.267Z</time></trkpt><trkpt lat="43.8086067" lon="6.2327833"><ele>515.0</ele><time>2026-05-02T11:08:02.267Z</time></trkpt><trkpt lat="43.80855" lon="6.2325417"><ele>515.0</ele><time>2026-05-02T11:08:03.267Z</time></trkpt><trkpt lat="43.8084683" lon="6.23231"><ele>515.0</ele><time>2026-05-02T11:08:04.267Z</time></trkpt><trkpt lat="43.8084" lon="6.232085"><ele>510.66666666666663</ele><time>2026-05-02T11:08:05.267Z</time></trkpt><trkpt lat="43.8083367" lon="6.231855"><ele>506.33333333333337</ele><time>2026-05-02T11:08:06.268Z</time></trkpt><trkpt lat="43.80828" lon="6.2316283"><ele>502.0</ele><time>2026-05-02T11:08:07.267Z</time></trkpt><trkpt lat="43.80823" lon="6.2314133"><ele>501.0</ele><time>2026-05-02T11:08:08.268Z</time></trkpt><trkpt lat="43.8081933" lon="6.2312017"><ele>500.0</ele><time>2026-05-02T11:08:09.267Z</time></trkpt><trkpt lat="43.8081717" lon="6.2309783"><ele>499.0</ele><time>2026-05-02T11:08:10.267Z</time></trkpt><trkpt lat="43.8081567" lon="6.2307583"><ele>496.6666666666667</ele><time>2026-05-02T11:08:11.268Z</time></trkpt><trkpt lat="43.8081617" lon="6.230535"><ele>494.33333333333337</ele><time>2026-05-02T11:08:12.267Z</time></trkpt><trkpt lat="43.8081867" lon="6.230305"><ele>492.0</ele><time>2026-05-02T11:08:13.267Z</time></trkpt><trkpt lat="43.8082283" lon="6.2300683"><ele>492.0</ele><time>2026-05-02T11:08:14.267Z</time></trkpt><trkpt lat="43.8082817" lon="6.22983"><ele>492.0</ele><time>2026-05-02T11:08:15.267Z</time></trkpt><trkpt lat="43.8083567" lon="6.2296083"><ele>492.0</ele><time>2026-05-02T11:08:16.267Z</time></trkpt><trkpt lat="43.808455" lon="6.2293967"><ele>491.66666666666663</ele><time>2026-05-02T11:08:17.267Z</time></trkpt><trkpt lat="43.8085683" lon="6.229195"><ele>491.3333333333333</ele><time>2026-05-02T11:08:18.267Z</time></trkpt><trkpt lat="43.8087033" lon="6.2290033"><ele>491.0</ele><time>2026-05-02T11:08:19.267Z</time></trkpt><trkpt lat="43.8088433" lon="6.2288217"><ele>489.66666666666663</ele><time>2026-05-02T11:08:20.267Z</time></trkpt><trkpt lat="43.8089967" lon="6.2286767"><ele>488.33333333333337</ele><time>2026-05-02T11:08:21.267Z</time></trkpt><trkpt lat="43.8091683" lon="6.2285517"><ele>487.0</ele><time>2026-05-02T11:08:22.268Z</time></trkpt><trkpt lat="43.8093533" lon="6.2284533"><ele>487.0</ele><time>2026-05-02T11:08:23.267Z</time></trkpt><trkpt lat="43.8095383" lon="6.2283667"><ele>487.0</ele><time>2026-05-02T11:08:24.267Z</time></trkpt><trkpt lat="43.80972" lon="6.2282817"><ele>487.0</ele><time>2026-05-02T11:08:25.267Z</time></trkpt><trkpt lat="43.809905" lon="6.228205"><ele>487.0</ele><time>2026-05-02T11:08:26.267Z</time></trkpt><trkpt lat="43.8100817" lon="6.228125"><ele>487.0</ele><time>2026-05-02T11:08:27.267Z</time></trkpt><trkpt lat="43.8102617" lon="6.2280483"><ele>487.0</ele><time>2026-05-02T11:08:28.267Z</time></trkpt><trkpt lat="43.8104483" lon="6.2279667"><ele>487.0</ele><time>2026-05-02T11:08:29.267Z</time></trkpt><trkpt lat="43.8106383" lon="6.227885"><ele>487.0</ele><time>2026-05-02T11:08:30.267Z</time></trkpt><trkpt lat="43.8108233" lon="6.2278117"><ele>487.0</ele><time>2026-05-02T11:08:31.267Z</time></trkpt><trkpt lat="43.81101" lon="6.227735"><ele>489.0</ele><time>2026-05-02T11:08:32.267Z</time></trkpt><trkpt lat="43.8111883" lon="6.2276533"><ele>491.0</ele><time>2026-05-02T11:08:33.267Z</time></trkpt><trkpt lat="43.81136" lon="6.2275767"><ele>493.0</ele><time>2026-05-02T11:08:34.267Z</time></trkpt><trkpt lat="43.81153" lon="6.2274983"><ele>493.0</ele><time>2026-05-02T11:08:35.267Z</time></trkpt><trkpt lat="43.81171" lon="6.227415"><ele>493.0</ele><time>2026-05-02T11:08:36.267Z</time></trkpt><trkpt lat="43.81188" lon="6.22733"><ele>493.0</ele><time>2026-05-02T11:08:37.267Z</time></trkpt><trkpt lat="43.8120567" lon="6.22724"><ele>491.33333333333337</ele><time>2026-05-02T11:08:38.267Z</time></trkpt><trkpt lat="43.8122417" lon="6.227145"><ele>489.66666666666663</ele><time>2026-05-02T11:08:39.267Z</time></trkpt><trkpt lat="43.8124133" lon="6.227035"><ele>488.0</ele><time>2026-05-02T11:08:40.267Z</time></trkpt><trkpt lat="43.8125917" lon="6.226915"><ele>488.66666666666663</ele><time>2026-05-02T11:08:41.267Z</time></trkpt><trkpt lat="43.8127633" lon="6.22678"><ele>489.33333333333337</ele><time>2026-05-02T11:08:42.268Z</time></trkpt><trkpt lat="43.8129417" lon="6.22665"><ele>490.0</ele><time>2026-05-02T11:08:43.267Z</time></trkpt><trkpt lat="43.8131233" lon="6.22654"><ele>490.33333333333337</ele><time>2026-05-02T11:08:44.268Z</time></trkpt><trkpt lat="43.8133083" lon="6.2264533"><ele>490.66666666666663</ele><time>2026-05-02T11:08:45.267Z</time></trkpt><trkpt lat="43.8135017" lon="6.226395"><ele>491.0</ele><time>2026-05-02T11:08:46.267Z</time></trkpt><trkpt lat="43.8137067" lon="6.22637"><ele>491.0</ele><time>2026-05-02T11:08:47.268Z</time></trkpt><trkpt lat="43.81391" lon="6.2263667"><ele>491.0</ele><time>2026-05-02T11:08:48.267Z</time></trkpt><trkpt lat="43.8141117" lon="6.2263717"><ele>491.0</ele><time>2026-05-02T11:08:49.268Z</time></trkpt><trkpt lat="43.8143183" lon="6.2263917"><ele>491.3333333333333</ele><time>2026-05-02T11:08:50.268Z</time></trkpt><trkpt lat="43.8145083" lon="6.2264067"><ele>491.66666666666663</ele><time>2026-05-02T11:08:51.267Z</time></trkpt><trkpt lat="43.814695" lon="6.226415"><ele>492.0</ele><time>2026-05-02T11:08:52.267Z</time></trkpt><trkpt lat="43.8148867" lon="6.22643"><ele>492.0</ele><time>2026-05-02T11:08:53.267Z</time></trkpt><trkpt lat="43.815075" lon="6.2264417"><ele>492.0</ele><time>2026-05-02T11:08:54.267Z</time></trkpt><trkpt lat="43.8152683" lon="6.2264533"><ele>492.0</ele><time>2026-05-02T11:08:55.267Z</time></trkpt><trkpt lat="43.81546" lon="6.2264617"><ele>491.66666666666663</ele><time>2026-05-02T11:08:56.267Z</time></trkpt><trkpt lat="43.8156533" lon="6.2264733"><ele>491.3333333333333</ele><time>2026-05-02T11:08:57.267Z</time></trkpt><trkpt lat="43.8158467" lon="6.22648"><ele>491.0</ele><time>2026-05-02T11:08:58.267Z</time></trkpt><trkpt lat="43.8160483" lon="6.2264933"><ele>494.3333333333333</ele><time>2026-05-02T11:08:59.267Z</time></trkpt><trkpt lat="43.816245" lon="6.2265033"><ele>497.66666666666663</ele><time>2026-05-02T11:09:00.267Z</time></trkpt><trkpt lat="43.81644" lon="6.2265233"><ele>501.0</ele><time>2026-05-02T11:09:01.267Z</time></trkpt><trkpt lat="43.8166333" lon="6.2265233"><ele>502.0</ele><time>2026-05-02T11:09:02.267Z</time></trkpt><trkpt lat="43.8168233" lon="6.2265367"><ele>503.0</ele><time>2026-05-02T11:09:03.267Z</time></trkpt><trkpt lat="43.8170217" lon="6.2265567"><ele>504.0</ele><time>2026-05-02T11:09:04.267Z</time></trkpt><trkpt lat="43.8172167" lon="6.2265633"><ele>504.0</ele><time>2026-05-02T11:09:05.267Z</time></trkpt><trkpt lat="43.8174183" lon="6.22658"><ele>504.0</ele><time>2026-05-02T11:09:06.267Z</time></trkpt><trkpt lat="43.8176133" lon="6.22659"><ele>504.0</ele><time>2026-05-02T11:09:07.267Z</time></trkpt><trkpt lat="43.8178033" lon="6.2265883"><ele>504.66666666666663</ele><time>2026-05-02T11:09:08.267Z</time></trkpt><trkpt lat="43.8179933" lon="6.2266"><ele>505.3333333333333</ele><time>2026-05-02T11:09:09.267Z</time></trkpt><trkpt lat="43.81818" lon="6.2266183"><ele>506.0</ele><time>2026-05-02T11:09:10.267Z</time></trkpt><trkpt lat="43.8183733" lon="6.22663"><ele>506.66666666666663</ele><time>2026-05-02T11:09:11.267Z</time></trkpt><trkpt lat="43.818565" lon="6.2266417"><ele>507.33333333333337</ele><time>2026-05-02T11:09:12.267Z</time></trkpt><trkpt lat="43.8187483" lon="6.2266617"><ele>508.0</ele><time>2026-05-02T11:09:13.267Z</time></trkpt><trkpt lat="43.8189417" lon="6.226685"><ele>508.0</ele><time>2026-05-02T11:09:14.267Z</time></trkpt><trkpt lat="43.8191333" lon="6.2267067"><ele>508.0</ele><time>2026-05-02T11:09:15.267Z</time></trkpt><trkpt lat="43.8193317" lon="6.2267167"><ele>508.0</ele><time>2026-05-02T11:09:16.267Z</time></trkpt><trkpt lat="43.8195267" lon="6.2267233"><ele>508.6666666666667</ele><time>2026-05-02T11:09:17.267Z</time></trkpt><trkpt lat="43.8197233" lon="6.2267033"><ele>509.33333333333337</ele><time>2026-05-02T11:09:18.268Z</time></trkpt><trkpt lat="43.8199217" lon="6.22665"><ele>510.0</ele><time>2026-05-02T11:09:19.267Z</time></trkpt><trkpt lat="43.820115" lon="6.22657"><ele>509.0</ele><time>2026-05-02T11:09:20.268Z</time></trkpt><trkpt lat="43.8203033" lon="6.2264783"><ele>508.0</ele><time>2026-05-02T11:09:21.267Z</time></trkpt><trkpt lat="43.8204883" lon="6.226375"><ele>507.0</ele><time>2026-05-02T11:09:22.267Z</time></trkpt><trkpt lat="43.8206817" lon="6.2262567"><ele>507.0</ele><time>2026-05-02T11:09:23.267Z</time></trkpt><trkpt lat="43.8208683" lon="6.2261433"><ele>507.0</ele><time>2026-05-02T11:09:24.267Z</time></trkpt><trkpt lat="43.821055" lon="6.2260317"><ele>507.0</ele><time>2026-05-02T11:09:25.267Z</time></trkpt><trkpt lat="43.8212417" lon="6.2259117"><ele>506.33333333333337</ele><time>2026-05-02T11:09:26.267Z</time></trkpt><trkpt lat="43.8214217" lon="6.2257883"><ele>505.6666666666667</ele><time>2026-05-02T11:09:27.267Z</time></trkpt><trkpt lat="43.8216083" lon="6.2256617"><ele>505.0</ele><time>2026-05-02T11:09:28.267Z</time></trkpt><trkpt lat="43.8217967" lon="6.225545"><ele>507.0</ele><time>2026-05-02T11:09:29.267Z</time></trkpt><trkpt lat="43.8219717" lon="6.225435"><ele>509.0</ele><time>2026-05-02T11:09:30.267Z</time></trkpt><trkpt lat="43.82215" lon="6.22532"><ele>511.0</ele><time>2026-05-02T11:09:31.267Z</time></trkpt><trkpt lat="43.8223267" lon="6.2252067"><ele>511.0</ele><time>2026-05-02T11:09:32.268Z</time></trkpt><trkpt lat="43.8225017" lon="6.2250983"><ele>511.0</ele><time>2026-05-02T11:09:33.267Z</time></trkpt><trkpt lat="43.8226783" lon="6.2249833"><ele>511.0</ele><time>2026-05-02T11:09:34.267Z</time></trkpt><trkpt lat="43.822855" lon="6.2248767"><ele>510.0</ele><time>2026-05-02T11:09:35.268Z</time></trkpt><trkpt lat="43.8230283" lon="6.22477"><ele>509.0</ele><time>2026-05-02T11:09:36.267Z</time></trkpt><trkpt lat="43.823205" lon="6.2246667"><ele>508.0</ele><time>2026-05-02T11:09:37.267Z</time></trkpt><trkpt lat="43.8233817" lon="6.2245767"><ele>509.0</ele><time>2026-05-02T11:09:38.267Z</time></trkpt><trkpt lat="43.8235633" lon="6.224505"><ele>510.0</ele><time>2026-05-02T11:09:39.267Z</time></trkpt><trkpt lat="43.8237467" lon="6.224455"><ele>511.0</ele><time>2026-05-02T11:09:40.267Z</time></trkpt><trkpt lat="43.8239217" lon="6.2244267"><ele>511.0</ele><time>2026-05-02T11:09:41.267Z</time></trkpt><trkpt lat="43.8241017" lon="6.2244267"><ele>511.0</ele><time>2026-05-02T11:09:42.268Z</time></trkpt><trkpt lat="43.824285" lon="6.2244733"><ele>511.0</ele><time>2026-05-02T11:09:43.266Z</time></trkpt><trkpt lat="43.824465" lon="6.2245467"><ele>512.0</ele><time>2026-05-02T11:09:44.266Z</time></trkpt><trkpt lat="43.824645" lon="6.2246083"><ele>513.0</ele><time>2026-05-02T11:09:45.266Z</time></trkpt><trkpt lat="43.8248267" lon="6.2246683"><ele>514.0</ele><time>2026-05-02T11:09:46.266Z</time></trkpt><trkpt lat="43.8250067" lon="6.2246967"><ele>514.6666666666667</ele><time>2026-05-02T11:09:47.266Z</time></trkpt><trkpt lat="43.8251867" lon="6.2247083"><ele>515.3333333333334</ele><time>2026-05-02T11:09:48.266Z</time></trkpt><trkpt lat="43.82537" lon="6.2247217"><ele>516.0</ele><time>2026-05-02T11:09:49.266Z</time></trkpt><trkpt lat="43.825545" lon="6.2247283"><ele>516.0</ele><time>2026-05-02T11:09:50.266Z</time></trkpt><trkpt lat="43.8257067" lon="6.224735"><ele>516.0</ele><time>2026-05-02T11:09:51.266Z</time></trkpt><trkpt lat="43.8258733" lon="6.224745"><ele>516.0</ele><time>2026-05-02T11:09:52.266Z</time></trkpt><trkpt lat="43.8260267" lon="6.22475"><ele>517.25</ele><time>2026-05-02T11:09:53.266Z</time></trkpt><trkpt lat="43.8261733" lon="6.2247433"><ele>518.5</ele><time>2026-05-02T11:09:54.266Z</time></trkpt><trkpt lat="43.8263167" lon="6.2247433"><ele>519.75</ele><time>2026-05-02T11:09:55.266Z</time></trkpt><trkpt lat="43.82646" lon="6.2247417"><ele>521.0</ele><time>2026-05-02T11:09:56.266Z</time></trkpt><trkpt lat="43.8266117" lon="6.2247283"><ele>521.0</ele><time>2026-05-02T11:09:57.266Z</time></trkpt><trkpt lat="43.8267617" lon="6.2247083"><ele>521.0</ele><time>2026-05-02T11:09:58.266Z</time></trkpt><trkpt lat="43.8269033" lon="6.2246817"><ele>521.0</ele><time>2026-05-02T11:09:59.266Z</time></trkpt><trkpt lat="43.82704" lon="6.2246617"><ele>521.0</ele><time>2026-05-02T11:10:00.266Z</time></trkpt><trkpt lat="43.827175" lon="6.2246433"><ele>522.25</ele><time>2026-05-02T11:10:01.266Z</time></trkpt><trkpt lat="43.8273017" lon="6.2246233"><ele>523.5</ele><time>2026-05-02T11:10:02.266Z</time></trkpt><trkpt lat="43.827415" lon="6.224615"><ele>524.75</ele><time>2026-05-02T11:10:03.267Z</time></trkpt><trkpt lat="43.827525" lon="6.22461"><ele>526.0</ele><time>2026-05-02T11:10:04.266Z</time></trkpt><trkpt lat="43.8276317" lon="6.224625"><ele>525.6666666666667</ele><time>2026-05-02T11:10:05.266Z</time></trkpt><trkpt lat="43.8277367" lon="6.2246583"><ele>525.3333333333334</ele><time>2026-05-02T11:10:06.266Z</time></trkpt><trkpt lat="43.82783" lon="6.224695"><ele>525.0</ele><time>2026-05-02T11:10:07.266Z</time></trkpt><trkpt lat="43.8279117" lon="6.2247417"><ele>524.6666666666666</ele><time>2026-05-02T11:10:08.266Z</time></trkpt><trkpt lat="43.8279933" lon="6.22478"><ele>524.3333333333333</ele><time>2026-05-02T11:10:09.266Z</time></trkpt><trkpt lat="43.82806" lon="6.2247983"><ele>524.0</ele><time>2026-05-02T11:10:10.266Z</time></trkpt><trkpt lat="43.8281383" lon="6.22478"><ele>524.0</ele><time>2026-05-02T11:10:11.266Z</time></trkpt><trkpt lat="43.82822" lon="6.2247383"><ele>524.0</ele><time>2026-05-02T11:10:12.266Z</time></trkpt><trkpt lat="43.828315" lon="6.2247083"><ele>524.0</ele><time>2026-05-02T11:10:13.266Z</time></trkpt><trkpt lat="43.8284217" lon="6.2247"><ele>524.0</ele><time>2026-05-02T11:10:14.266Z</time></trkpt><trkpt lat="43.8285383" lon="6.2247083"><ele>524.0</ele><time>2026-05-02T11:10:15.266Z</time></trkpt><trkpt lat="43.8286733" lon="6.2247367"><ele>523.5</ele><time>2026-05-02T11:10:16.266Z</time></trkpt><trkpt lat="43.8288017" lon="6.2247767"><ele>523.0</ele><time>2026-05-02T11:10:17.266Z</time></trkpt><trkpt lat="43.82893" lon="6.2248067"><ele>522.5</ele><time>2026-05-02T11:10:18.266Z</time></trkpt><trkpt lat="43.8290567" lon="6.22484"><ele>522.0</ele><time>2026-05-02T11:10:19.266Z</time></trkpt><trkpt lat="43.8291883" lon="6.22486"><ele>521.75</ele><time>2026-05-02T11:10:20.266Z</time></trkpt><trkpt lat="43.8293133" lon="6.224875"><ele>521.5</ele><time>2026-05-02T11:10:21.266Z</time></trkpt><trkpt lat="43.829445" lon="6.2248833"><ele>521.25</ele><time>2026-05-02T11:10:22.266Z</time></trkpt><trkpt lat="43.8295783" lon="6.22491"><ele>521.0</ele><time>2026-05-02T11:10:23.266Z</time></trkpt><trkpt lat="43.8297017" lon="6.2249317"><ele>521.0</ele><time>2026-05-02T11:10:24.266Z</time></trkpt><trkpt lat="43.8298267" lon="6.22495"><ele>521.0</ele><time>2026-05-02T11:10:25.266Z</time></trkpt><trkpt lat="43.8299467" lon="6.2249633"><ele>521.0</ele><time>2026-05-02T11:10:26.266Z</time></trkpt><trkpt lat="43.8300717" lon="6.22498"><ele>521.0</ele><time>2026-05-02T11:10:27.266Z</time></trkpt><trkpt lat="43.8302167" lon="6.2250067"><ele>523.0</ele><time>2026-05-02T11:10:28.266Z</time></trkpt><trkpt lat="43.8303633" lon="6.22501"><ele>525.0</ele><time>2026-05-02T11:10:29.266Z</time></trkpt><trkpt lat="43.8305217" lon="6.2249983"><ele>527.0</ele><time>2026-05-02T11:10:30.266Z</time></trkpt><trkpt lat="43.8307" lon="6.2249633"><ele>527.0</ele><time>2026-05-02T11:10:31.266Z</time></trkpt><trkpt lat="43.830895" lon="6.224895"><ele>527.0</ele><time>2026-05-02T11:10:32.266Z</time></trkpt><trkpt lat="43.8310783" lon="6.2247967"><ele>527.0</ele><time>2026-05-02T11:10:33.266Z</time></trkpt><trkpt lat="43.83124" lon="6.2246867"><ele>528.3333333333333</ele><time>2026-05-02T11:10:34.266Z</time></trkpt><trkpt lat="43.8313817" lon="6.2245533"><ele>529.6666666666666</ele><time>2026-05-02T11:10:35.267Z</time></trkpt><trkpt lat="43.8315133" lon="6.2243967"><ele>531.0</ele><time>2026-05-02T11:10:36.266Z</time></trkpt><trkpt lat="43.8316367" lon="6.2242183"><ele>531.0</ele><time>2026-05-02T11:10:37.266Z</time></trkpt><trkpt lat="43.8317583" lon="6.224035"><ele>531.0</ele><time>2026-05-02T11:10:38.266Z</time></trkpt><trkpt lat="43.8318783" lon="6.2238567"><ele>531.0</ele><time>2026-05-02T11:10:39.266Z</time></trkpt><trkpt lat="43.8319933" lon="6.2236817"><ele>533.0</ele><time>2026-05-02T11:10:40.266Z</time></trkpt><trkpt lat="43.832105" lon="6.2235067"><ele>535.0</ele><time>2026-05-02T11:10:41.266Z</time></trkpt><trkpt lat="43.8322" lon="6.2233433"><ele>537.0</ele><time>2026-05-02T11:10:42.266Z</time></trkpt><trkpt lat="43.8323017" lon="6.223185"><ele>537.0</ele><time>2026-05-02T11:10:43.266Z</time></trkpt><trkpt lat="43.8323983" lon="6.2230217"><ele>537.0</ele><time>2026-05-02T11:10:44.266Z</time></trkpt><trkpt lat="43.83249" lon="6.22286"><ele>537.0</ele><time>2026-05-02T11:10:45.267Z</time></trkpt><trkpt lat="43.83258" lon="6.2227017"><ele>537.0</ele><time>2026-05-02T11:10:46.266Z</time></trkpt><trkpt lat="43.8326683" lon="6.2225517"><ele>537.0</ele><time>2026-05-02T11:10:47.266Z</time></trkpt><trkpt lat="43.8327617" lon="6.2224"><ele>537.0</ele><time>2026-05-02T11:10:48.267Z</time></trkpt><trkpt lat="43.8328583" lon="6.2222467"><ele>537.0</ele><time>2026-05-02T11:10:49.266Z</time></trkpt><trkpt lat="43.8329567" lon="6.2221"><ele>537.0</ele><time>2026-05-02T11:10:50.266Z</time></trkpt><trkpt lat="43.833065" lon="6.2219533"><ele>537.0</ele><time>2026-05-02T11:10:51.266Z</time></trkpt><trkpt lat="43.8331717" lon="6.2218083"><ele>537.0</ele><time>2026-05-02T11:10:52.266Z</time></trkpt><trkpt lat="43.8332817" lon="6.22166"><ele>537.0</ele><time>2026-05-02T11:10:53.266Z</time></trkpt><trkpt lat="43.8333917" lon="6.2215267"><ele>537.0</ele><time>2026-05-02T11:10:54.266Z</time></trkpt><trkpt lat="43.8335167" lon="6.221395"><ele>537.0</ele><time>2026-05-02T11:10:55.266Z</time></trkpt><trkpt lat="43.8336567" lon="6.2212983"><ele>537.0</ele><time>2026-05-02T11:10:56.266Z</time></trkpt><trkpt lat="43.8337917" lon="6.22122"><ele>537.0</ele><time>2026-05-02T11:10:57.266Z</time></trkpt><trkpt lat="43.8339267" lon="6.2211417"><ele>537.0</ele><time>2026-05-02T11:10:58.266Z</time></trkpt><trkpt lat="43.8340583" lon="6.2210533"><ele>537.0</ele><time>2026-05-02T11:10:59.266Z</time></trkpt><trkpt lat="43.8341717" lon="6.2209633"><ele>537.0</ele><time>2026-05-02T11:11:00.266Z</time></trkpt><trkpt lat="43.8342733" lon="6.220885"><ele>537.0</ele><time>2026-05-02T11:11:01.266Z</time></trkpt><trkpt lat="43.8343717" lon="6.2208317"><ele>537.0</ele><time>2026-05-02T11:11:02.266Z</time></trkpt><trkpt lat="43.8344667" lon="6.2208067"><ele>537.0</ele><time>2026-05-02T11:11:03.266Z</time></trkpt><trkpt lat="43.8345533" lon="6.2208267"><ele>540.0</ele><time>2026-05-02T11:11:04.267Z</time></trkpt><trkpt lat="43.8346283" lon="6.2208833"><ele>543.0</ele><time>2026-05-02T11:11:05.266Z</time></trkpt><trkpt lat="43.834675" lon="6.2209817"><ele>546.0</ele><time>2026-05-02T11:11:06.266Z</time></trkpt><trkpt lat="43.8346817" lon="6.2210983"><ele>549.0</ele><time>2026-05-02T11:11:07.266Z</time></trkpt><trkpt lat="43.8346483" lon="6.2212167"><ele>552.0</ele><time>2026-05-02T11:11:08.266Z</time></trkpt><trkpt lat="43.8345833" lon="6.2213283"><ele>552.0</ele><time>2026-05-02T11:11:09.266Z</time></trkpt><trkpt lat="43.8344833" lon="6.2214367"><ele>552.0</ele><time>2026-05-02T11:11:10.266Z</time></trkpt><trkpt lat="43.83438" lon="6.2215567"><ele>552.0</ele><time>2026-05-02T11:11:11.266Z</time></trkpt><trkpt lat="43.8342767" lon="6.2216583"><ele>552.0</ele><time>2026-05-02T11:11:12.266Z</time></trkpt><trkpt lat="43.8342" lon="6.2217567"><ele>550.6666666666666</ele><time>2026-05-02T11:11:13.266Z</time></trkpt><trkpt lat="43.8341267" lon="6.221845"><ele>549.3333333333334</ele><time>2026-05-02T11:11:14.267Z</time></trkpt><trkpt lat="43.8340633" lon="6.2219333"><ele>548.0</ele><time>2026-05-02T11:11:15.266Z</time></trkpt><trkpt lat="43.83402" lon="6.22203"><ele>546.6666666666667</ele><time>2026-05-02T11:11:16.266Z</time></trkpt><trkpt lat="43.8339867" lon="6.2221217"><ele>545.3333333333334</ele><time>2026-05-02T11:11:17.267Z</time></trkpt><trkpt lat="43.8339967" lon="6.2222183"><ele>544.0</ele><time>2026-05-02T11:11:18.266Z</time></trkpt><trkpt lat="43.8340283" lon="6.2223017"><ele>545.2</ele><time>2026-05-02T11:11:19.266Z</time></trkpt><trkpt lat="43.83408" lon="6.2223583"><ele>546.4</ele><time>2026-05-02T11:11:20.266Z</time></trkpt><trkpt lat="43.8341433" lon="6.222375"><ele>547.6</ele><time>2026-05-02T11:11:21.267Z</time></trkpt><trkpt lat="43.8342283" lon="6.22233"><ele>548.8</ele><time>2026-05-02T11:11:22.266Z</time></trkpt><trkpt lat="43.8343283" lon="6.2222267"><ele>550.0</ele><time>2026-05-02T11:11:23.266Z</time></trkpt><trkpt lat="43.8344317" lon="6.2221067"><ele>551.6</ele><time>2026-05-02T11:11:24.266Z</time></trkpt><trkpt lat="43.834525" lon="6.22203"><ele>553.2</ele><time>2026-05-02T11:11:25.266Z</time></trkpt><trkpt lat="43.8346283" lon="6.2219817"><ele>554.8</ele><time>2026-05-02T11:11:26.266Z</time></trkpt><trkpt lat="43.834735" lon="6.22196"><ele>556.4</ele><time>2026-05-02T11:11:27.266Z</time></trkpt><trkpt lat="43.8348333" lon="6.2219267"><ele>558.0</ele><time>2026-05-02T11:11:28.266Z</time></trkpt><trkpt lat="43.8349267" lon="6.22188"><ele>558.0</ele><time>2026-05-02T11:11:29.266Z</time></trkpt><trkpt lat="43.8350133" lon="6.2218167"><ele>558.0</ele><time>2026-05-02T11:11:30.266Z</time></trkpt><trkpt lat="43.8350667" lon="6.2217267"><ele>558.0</ele><time>2026-05-02T11:11:31.266Z</time></trkpt><trkpt lat="43.8351017" lon="6.2216017"><ele>558.0</ele><time>2026-05-02T11:11:32.266Z</time></trkpt><trkpt lat="43.8351267" lon="6.221485"><ele>558.0</ele><time>2026-05-02T11:11:33.266Z</time></trkpt><trkpt lat="43.8351633" lon="6.2213683"><ele>559.1666666666666</ele><time>2026-05-02T11:11:34.266Z</time></trkpt><trkpt lat="43.8352083" lon="6.22126"><ele>560.3333333333334</ele><time>2026-05-02T11:11:35.267Z</time></trkpt><trkpt lat="43.8352567" lon="6.22117"><ele>561.5</ele><time>2026-05-02T11:11:36.266Z</time></trkpt><trkpt lat="43.8353217" lon="6.22109"><ele>562.6666666666667</ele><time>2026-05-02T11:11:37.266Z</time></trkpt><trkpt lat="43.8353817" lon="6.22102"><ele>563.8333333333334</ele><time>2026-05-02T11:11:38.266Z</time></trkpt><trkpt lat="43.8354417" lon="6.22096"><ele>565.0</ele><time>2026-05-02T11:11:39.266Z</time></trkpt><trkpt lat="43.8355083" lon="6.2209283"><ele>565.0</ele><time>2026-05-02T11:11:40.266Z</time></trkpt><trkpt lat="43.835575" lon="6.2209267"><ele>565.0</ele><time>2026-05-02T11:11:41.266Z</time></trkpt><trkpt lat="43.835645" lon="6.2209267"><ele>565.0</ele><time>2026-05-02T11:11:42.266Z</time></trkpt><trkpt lat="43.8357183" lon="6.2209183"><ele>565.0</ele><time>2026-05-02T11:11:43.266Z</time></trkpt><trkpt lat="43.8357967" lon="6.2209033"><ele>565.0</ele><time>2026-05-02T11:11:44.266Z</time></trkpt><trkpt lat="43.8358783" lon="6.220885"><ele>565.0</ele><time>2026-05-02T11:11:45.266Z</time></trkpt><trkpt lat="43.835955" lon="6.2208667"><ele>565.9999999999999</ele><time>2026-05-02T11:11:46.266Z</time></trkpt><trkpt lat="43.8360183" lon="6.2208367"><ele>567.0</ele><time>2026-05-02T11:11:47.267Z</time></trkpt><trkpt lat="43.83608" lon="6.2208017"><ele>568.0</ele><time>2026-05-02T11:11:48.267Z</time></trkpt><trkpt lat="43.836145" lon="6.2207683"><ele>569.0</ele><time>2026-05-02T11:11:49.266Z</time></trkpt><trkpt lat="43.836215" lon="6.2207467"><ele>570.0</ele><time>2026-05-02T11:11:50.266Z</time></trkpt><trkpt lat="43.8362833" lon="6.2207267"><ele>570.9999999999999</ele><time>2026-05-02T11:11:51.266Z</time></trkpt><trkpt lat="43.83635" lon="6.2207167"><ele>572.0</ele><time>2026-05-02T11:11:52.266Z</time></trkpt><trkpt lat="43.83642" lon="6.220715"><ele>572.0</ele><time>2026-05-02T11:11:53.266Z</time></trkpt><trkpt lat="43.83649" lon="6.2207217"><ele>572.0</ele><time>2026-05-02T11:11:54.267Z</time></trkpt><trkpt lat="43.8365583" lon="6.2207317"><ele>572.0</ele><time>2026-05-02T11:11:55.266Z</time></trkpt><trkpt lat="43.8366283" lon="6.2207483"><ele>572.0</ele><time>2026-05-02T11:11:56.266Z</time></trkpt><trkpt lat="43.8367033" lon="6.220775"><ele>572.0</ele><time>2026-05-02T11:11:57.266Z</time></trkpt><trkpt lat="43.836785" lon="6.2207967"><ele>572.0</ele><time>2026-05-02T11:11:58.267Z</time></trkpt><trkpt lat="43.8368633" lon="6.2208217"><ele>572.5</ele><time>2026-05-02T11:11:59.266Z</time></trkpt><trkpt lat="43.8369433" lon="6.2208433"><ele>573.0</ele><time>2026-05-02T11:12:00.267Z</time></trkpt><trkpt lat="43.837015" lon="6.22087"><ele>573.5</ele><time>2026-05-02T11:12:01.266Z</time></trkpt><trkpt lat="43.8370883" lon="6.220895"><ele>574.0</ele><time>2026-05-02T11:12:02.266Z</time></trkpt><trkpt lat="43.8371633" lon="6.220915"><ele>574.5</ele><time>2026-05-02T11:12:03.266Z</time></trkpt><trkpt lat="43.83724" lon="6.220945"><ele>575.0</ele><time>2026-05-02T11:12:04.266Z</time></trkpt><trkpt lat="43.837315" lon="6.2209733"><ele>575.0</ele><time>2026-05-02T11:12:05.266Z</time></trkpt><trkpt lat="43.8373967" lon="6.2210117"><ele>575.0</ele><time>2026-05-02T11:12:06.266Z</time></trkpt><trkpt lat="43.8374767" lon="6.221055"><ele>575.0</ele><time>2026-05-02T11:12:07.267Z</time></trkpt><trkpt lat="43.8375483" lon="6.2210967"><ele>575.0</ele><time>2026-05-02T11:12:08.266Z</time></trkpt><trkpt lat="43.8376183" lon="6.2211417"><ele>575.0</ele><time>2026-05-02T11:12:09.267Z</time></trkpt><trkpt lat="43.8376883" lon="6.2211867"><ele>575.0</ele><time>2026-05-02T11:12:10.266Z</time></trkpt><trkpt lat="43.8377583" lon="6.2212333"><ele>575.8333333333333</ele><time>2026-05-02T11:12:11.266Z</time></trkpt><trkpt lat="43.8378267" lon="6.221285"><ele>576.6666666666666</ele><time>2026-05-02T11:12:12.266Z</time></trkpt><trkpt lat="43.8378917" lon="6.221345"><ele>577.5</ele><time>2026-05-02T11:12:13.266Z</time></trkpt><trkpt lat="43.8379517" lon="6.22142"><ele>578.3333333333334</ele><time>2026-05-02T11:12:14.266Z</time></trkpt><trkpt lat="43.8380067" lon="6.2215117"><ele>579.1666666666667</ele><time>2026-05-02T11:12:15.266Z</time></trkpt><trkpt lat="43.8380483" lon="6.2216017"><ele>580.0</ele><time>2026-05-02T11:12:16.266Z</time></trkpt><trkpt lat="43.8380967" lon="6.221695"><ele>581.6</ele><time>2026-05-02T11:12:17.266Z</time></trkpt><trkpt lat="43.8381567" lon="6.221765"><ele>583.2</ele><time>2026-05-02T11:12:18.266Z</time></trkpt><trkpt lat="43.8382283" lon="6.221805"><ele>584.8</ele><time>2026-05-02T11:12:19.266Z</time></trkpt><trkpt lat="43.83836" lon="6.2217833"><ele>586.4</ele><time>2026-05-02T11:12:21.267Z</time></trkpt><trkpt lat="43.8384333" lon="6.2217283"><ele>588.0</ele><time>2026-05-02T11:12:22.266Z</time></trkpt><trkpt lat="43.8384933" lon="6.2216533"><ele>587.5</ele><time>2026-05-02T11:12:23.266Z</time></trkpt><trkpt lat="43.8385383" lon="6.2215583"><ele>587.0</ele><time>2026-05-02T11:12:24.266Z</time></trkpt><trkpt lat="43.8385783" lon="6.2214567"><ele>586.5</ele><time>2026-05-02T11:12:25.266Z</time></trkpt><trkpt lat="43.8386167" lon="6.2213717"><ele>586.0</ele><time>2026-05-02T11:12:26.266Z</time></trkpt><trkpt lat="43.8386717" lon="6.221305"><ele>585.5</ele><time>2026-05-02T11:12:27.266Z</time></trkpt><trkpt lat="43.8387383" lon="6.22126"><ele>585.0</ele><time>2026-05-02T11:12:28.266Z</time></trkpt><trkpt lat="43.8388017" lon="6.2212417"><ele>585.0</ele><time>2026-05-02T11:12:29.266Z</time></trkpt><trkpt lat="43.8388733" lon="6.2212467"><ele>585.0</ele><time>2026-05-02T11:12:30.266Z</time></trkpt><trkpt lat="43.8389517" lon="6.22126"><ele>585.0</ele><time>2026-05-02T11:12:31.266Z</time></trkpt><trkpt lat="43.8390267" lon="6.2212917"><ele>585.0</ele><time>2026-05-02T11:12:32.266Z</time></trkpt><trkpt lat="43.8390933" lon="6.22134"><ele>585.0</ele><time>2026-05-02T11:12:33.267Z</time></trkpt><trkpt lat="43.8391583" lon="6.221405"><ele>585.0</ele><time>2026-05-02T11:12:34.266Z</time></trkpt><trkpt lat="43.83921" lon="6.22148"><ele>586.0</ele><time>2026-05-02T11:12:35.266Z</time></trkpt><trkpt lat="43.8392617" lon="6.2215583"><ele>587.0</ele><time>2026-05-02T11:12:36.266Z</time></trkpt><trkpt lat="43.839305" lon="6.22164"><ele>588.0</ele><time>2026-05-02T11:12:37.266Z</time></trkpt><trkpt lat="43.8393517" lon="6.2217233"><ele>589.0</ele><time>2026-05-02T11:12:38.266Z</time></trkpt><trkpt lat="43.8394083" lon="6.2217983"><ele>590.0</ele><time>2026-05-02T11:12:39.267Z</time></trkpt><trkpt lat="43.83947" lon="6.221855"><ele>591.0</ele><time>2026-05-02T11:12:40.266Z</time></trkpt><trkpt lat="43.8395317" lon="6.2219083"><ele>591.0</ele><time>2026-05-02T11:12:41.266Z</time></trkpt><trkpt lat="43.839595" lon="6.22195"><ele>591.0</ele><time>2026-05-02T11:12:42.266Z</time></trkpt><trkpt lat="43.83967" lon="6.2219817"><ele>591.0</ele><time>2026-05-02T11:12:43.266Z</time></trkpt><trkpt lat="43.8397483" lon="6.2220017"><ele>591.0</ele><time>2026-05-02T11:12:44.266Z</time></trkpt><trkpt lat="43.83983" lon="6.2219917"><ele>591.0</ele><time>2026-05-02T11:12:45.267Z</time></trkpt><trkpt lat="43.839905" lon="6.2219933"><ele>591.0</ele><time>2026-05-02T11:12:46.266Z</time></trkpt><trkpt lat="43.8399833" lon="6.2219883"><ele>591.0</ele><time>2026-05-02T11:12:47.267Z</time></trkpt><trkpt lat="43.8400667" lon="6.2219767"><ele>591.0</ele><time>2026-05-02T11:12:48.267Z</time></trkpt><trkpt lat="43.8401417" lon="6.22197"><ele>591.0</ele><time>2026-05-02T11:12:49.266Z</time></trkpt><trkpt lat="43.8402317" lon="6.2219617"><ele>591.0</ele><time>2026-05-02T11:12:50.264Z</time></trkpt><trkpt lat="43.8403183" lon="6.2219433"><ele>591.0</ele><time>2026-05-02T11:12:51.266Z</time></trkpt><trkpt lat="43.8404017" lon="6.22192"><ele>591.0</ele><time>2026-05-02T11:12:52.266Z</time></trkpt><trkpt lat="43.8404833" lon="6.2218783"><ele>592.6666666666666</ele><time>2026-05-02T11:12:53.267Z</time></trkpt><trkpt lat="43.8405633" lon="6.2218333"><ele>594.3333333333334</ele><time>2026-05-02T11:12:54.266Z</time></trkpt><trkpt lat="43.8406333" lon="6.2217817"><ele>596.0</ele><time>2026-05-02T11:12:55.267Z</time></trkpt><trkpt lat="43.8407033" lon="6.2217117"><ele>597.6666666666667</ele><time>2026-05-02T11:12:56.266Z</time></trkpt><trkpt lat="43.8407767" lon="6.22164"><ele>599.3333333333334</ele><time>2026-05-02T11:12:57.266Z</time></trkpt><trkpt lat="43.8408483" lon="6.2215683"><ele>601.0</ele><time>2026-05-02T11:12:58.266Z</time></trkpt><trkpt lat="43.8409217" lon="6.2214983"><ele>600.5</ele><time>2026-05-02T11:12:59.267Z</time></trkpt><trkpt lat="43.840995" lon="6.22144"><ele>600.0</ele><time>2026-05-02T11:13:00.266Z</time></trkpt><trkpt lat="43.841075" lon="6.2213983"><ele>599.5</ele><time>2026-05-02T11:13:01.266Z</time></trkpt><trkpt lat="43.841165" lon="6.2213817"><ele>599.0</ele><time>2026-05-02T11:13:02.266Z</time></trkpt><trkpt lat="43.8412417" lon="6.2213917"><ele>598.5</ele><time>2026-05-02T11:13:03.266Z</time></trkpt><trkpt lat="43.8413117" lon="6.22138"><ele>598.0</ele><time>2026-05-02T11:13:04.267Z</time></trkpt><trkpt lat="43.841365" lon="6.2213333"><ele>598.0</ele><time>2026-05-02T11:13:05.266Z</time></trkpt><trkpt lat="43.8414167" lon="6.22118"><ele>598.0</ele><time>2026-05-02T11:13:07.266Z</time></trkpt><trkpt lat="43.8414617" lon="6.221015"><ele>598.0</ele><time>2026-05-02T11:13:09.266Z</time></trkpt><trkpt lat="43.8415033" lon="6.2209333"><ele>598.0</ele><time>2026-05-02T11:13:10.266Z</time></trkpt><trkpt lat="43.8415583" lon="6.2208483"><ele>598.0</ele><time>2026-05-02T11:13:11.266Z</time></trkpt><trkpt lat="43.8416233" lon="6.220755"><ele>598.0</ele><time>2026-05-02T11:13:12.267Z</time></trkpt><trkpt lat="43.841695" lon="6.2206617"><ele>598.0</ele><time>2026-05-02T11:13:13.266Z</time></trkpt><trkpt lat="43.8417617" lon="6.2205567"><ele>598.0</ele><time>2026-05-02T11:13:14.266Z</time></trkpt><trkpt lat="43.8418367" lon="6.22045"><ele>598.0</ele><time>2026-05-02T11:13:15.266Z</time></trkpt><trkpt lat="43.841915" lon="6.2203467"><ele>598.0</ele><time>2026-05-02T11:13:16.266Z</time></trkpt><trkpt lat="43.8420033" lon="6.2202417"><ele>595.75</ele><time>2026-05-02T11:13:17.266Z</time></trkpt><trkpt lat="43.8421133" lon="6.22014"><ele>593.5</ele><time>2026-05-02T11:13:18.266Z</time></trkpt><trkpt lat="43.8422183" lon="6.2200467"><ele>591.25</ele><time>2026-05-02T11:13:19.266Z</time></trkpt><trkpt lat="43.8423483" lon="6.2199617"><ele>589.0</ele><time>2026-05-02T11:13:20.266Z</time></trkpt><trkpt lat="43.8424867" lon="6.21989"><ele>589.0</ele><time>2026-05-02T11:13:21.266Z</time></trkpt><trkpt lat="43.842615" lon="6.2198233"><ele>589.0</ele><time>2026-05-02T11:13:22.266Z</time></trkpt><trkpt lat="43.8427533" lon="6.21977"><ele>589.0</ele><time>2026-05-02T11:13:23.267Z</time></trkpt><trkpt lat="43.8428917" lon="6.2197283"><ele>589.0</ele><time>2026-05-02T11:13:24.266Z</time></trkpt><trkpt lat="43.843015" lon="6.21968"><ele>587.0</ele><time>2026-05-02T11:13:25.266Z</time></trkpt><trkpt lat="43.8431433" lon="6.2196417"><ele>585.0</ele><time>2026-05-02T11:13:26.266Z</time></trkpt><trkpt lat="43.8432567" lon="6.219605"><ele>583.0</ele><time>2026-05-02T11:13:27.266Z</time></trkpt><trkpt lat="43.84338" lon="6.21957"><ele>581.0</ele><time>2026-05-02T11:13:28.266Z</time></trkpt><trkpt lat="43.8434983" lon="6.219535"><ele>581.0</ele><time>2026-05-02T11:13:29.266Z</time></trkpt><trkpt lat="43.843605" lon="6.2194917"><ele>581.0</ele><time>2026-05-02T11:13:30.266Z</time></trkpt><trkpt lat="43.84372" lon="6.2194517"><ele>581.0</ele><time>2026-05-02T11:13:31.266Z</time></trkpt><trkpt lat="43.8438333" lon="6.2194083"><ele>581.0</ele><time>2026-05-02T11:13:32.266Z</time></trkpt><trkpt lat="43.8439533" lon="6.21936"><ele>581.0</ele><time>2026-05-02T11:13:33.266Z</time></trkpt><trkpt lat="43.84406" lon="6.2193"><ele>581.0</ele><time>2026-05-02T11:13:34.266Z</time></trkpt><trkpt lat="43.8441717" lon="6.21923"><ele>581.0</ele><time>2026-05-02T11:13:35.266Z</time></trkpt><trkpt lat="43.844275" lon="6.219145"><ele>581.0</ele><time>2026-05-02T11:13:36.267Z</time></trkpt><trkpt lat="43.8443717" lon="6.2190483"><ele>579.4</ele><time>2026-05-02T11:13:37.266Z</time></trkpt><trkpt lat="43.8444583" lon="6.21895"><ele>577.8</ele><time>2026-05-02T11:13:38.266Z</time></trkpt><trkpt lat="43.84453" lon="6.21884"><ele>576.1999999999999</ele><time>2026-05-02T11:13:39.266Z</time></trkpt><trkpt lat="43.8445967" lon="6.2187417"><ele>574.6</ele><time>2026-05-02T11:13:40.266Z</time></trkpt><trkpt lat="43.8446683" lon="6.2186367"><ele>573.0</ele><time>2026-05-02T11:13:41.266Z</time></trkpt><trkpt lat="43.8447267" lon="6.218525"><ele>573.0</ele><time>2026-05-02T11:13:42.266Z</time></trkpt><trkpt lat="43.8447783" lon="6.2184217"><ele>573.0</ele><time>2026-05-02T11:13:43.266Z</time></trkpt><trkpt lat="43.8448217" lon="6.2183133"><ele>573.0</ele><time>2026-05-02T11:13:44.266Z</time></trkpt><trkpt lat="43.84486" lon="6.21819"><ele>573.0</ele><time>2026-05-02T11:13:45.266Z</time></trkpt><trkpt lat="43.844895" lon="6.2180567"><ele>573.0</ele><time>2026-05-02T11:13:46.267Z</time></trkpt><trkpt lat="43.8449283" lon="6.2179167"><ele>572.4</ele><time>2026-05-02T11:13:47.266Z</time></trkpt><trkpt lat="43.84496" lon="6.21777"><ele>571.8</ele><time>2026-05-02T11:13:48.266Z</time></trkpt><trkpt lat="43.84498" lon="6.217625"><ele>571.2</ele><time>2026-05-02T11:13:49.266Z</time></trkpt><trkpt lat="43.8449967" lon="6.217475"><ele>570.6</ele><time>2026-05-02T11:13:50.266Z</time></trkpt><trkpt lat="43.8450033" lon="6.2173217"><ele>570.0</ele><time>2026-05-02T11:13:51.266Z</time></trkpt><trkpt lat="43.8449967" lon="6.2171583"><ele>569.75</ele><time>2026-05-02T11:13:52.266Z</time></trkpt><trkpt lat="43.844985" lon="6.216995"><ele>569.5</ele><time>2026-05-02T11:13:53.266Z</time></trkpt><trkpt lat="43.8449683" lon="6.2168367"><ele>569.25</ele><time>2026-05-02T11:13:54.266Z</time></trkpt><trkpt lat="43.84493" lon="6.21667"><ele>569.0</ele><time>2026-05-02T11:13:55.266Z</time></trkpt><trkpt lat="43.8448983" lon="6.2165267"><ele>569.6666666666666</ele><time>2026-05-02T11:13:56.266Z</time></trkpt><trkpt lat="43.8448533" lon="6.2164017"><ele>570.3333333333333</ele><time>2026-05-02T11:13:57.266Z</time></trkpt><trkpt lat="43.844815" lon="6.2162917"><ele>571.0</ele><time>2026-05-02T11:13:58.266Z</time></trkpt><trkpt lat="43.8447767" lon="6.2161983"><ele>571.6666666666666</ele><time>2026-05-02T11:13:59.266Z</time></trkpt><trkpt lat="43.8447367" lon="6.2161217"><ele>572.3333333333334</ele><time>2026-05-02T11:14:00.266Z</time></trkpt><trkpt lat="43.8446917" lon="6.2160033"><ele>573.0</ele><time>2026-05-02T11:14:02.266Z</time></trkpt><trkpt lat="43.8446683" lon="6.21586"><ele>573.0</ele><time>2026-05-02T11:14:04.266Z</time></trkpt><trkpt lat="43.8447217" lon="6.2157"><ele>573.0</ele><time>2026-05-02T11:14:06.267Z</time></trkpt><trkpt lat="43.844785" lon="6.2156317"><ele>573.0</ele><time>2026-05-02T11:14:07.267Z</time></trkpt><trkpt lat="43.8448667" lon="6.2155917"><ele>573.0</ele><time>2026-05-02T11:14:08.266Z</time></trkpt><trkpt lat="43.8449567" lon="6.2155833"><ele>573.0</ele><time>2026-05-02T11:14:09.266Z</time></trkpt><trkpt lat="43.84505" lon="6.2156167"><ele>575.4</ele><time>2026-05-02T11:14:10.266Z</time></trkpt><trkpt lat="43.8451383" lon="6.215685"><ele>577.8</ele><time>2026-05-02T11:14:11.266Z</time></trkpt><trkpt lat="43.8452017" lon="6.215785"><ele>580.2</ele><time>2026-05-02T11:14:12.266Z</time></trkpt><trkpt lat="43.8452533" lon="6.2159317"><ele>582.6</ele><time>2026-05-02T11:14:13.266Z</time></trkpt><trkpt lat="43.84529" lon="6.216085"><ele>585.0</ele><time>2026-05-02T11:14:14.266Z</time></trkpt><trkpt lat="43.8453283" lon="6.216235"><ele>585.0</ele><time>2026-05-02T11:14:15.266Z</time></trkpt><trkpt lat="43.84538" lon="6.2163817"><ele>585.0</ele><time>2026-05-02T11:14:16.267Z</time></trkpt><trkpt lat="43.8454433" lon="6.216515"><ele>585.0</ele><time>2026-05-02T11:14:17.266Z</time></trkpt><trkpt lat="43.8455283" lon="6.2166317"><ele>585.0</ele><time>2026-05-02T11:14:18.266Z</time></trkpt><trkpt lat="43.8456317" lon="6.2167317"><ele>584.5</ele><time>2026-05-02T11:14:19.266Z</time></trkpt><trkpt lat="43.8457383" lon="6.2168267"><ele>584.0</ele><time>2026-05-02T11:14:20.266Z</time></trkpt><trkpt lat="43.8458367" lon="6.2169017"><ele>583.5</ele><time>2026-05-02T11:14:21.266Z</time></trkpt><trkpt lat="43.8459417" lon="6.2169767"><ele>583.0</ele><time>2026-05-02T11:14:22.266Z</time></trkpt><trkpt lat="43.8460383" lon="6.2170617"><ele>583.1999999999999</ele><time>2026-05-02T11:14:23.266Z</time></trkpt><trkpt lat="43.8461283" lon="6.21715"><ele>583.4</ele><time>2026-05-02T11:14:24.266Z</time></trkpt><trkpt lat="43.846215" lon="6.2172333"><ele>583.5999999999999</ele><time>2026-05-02T11:14:25.266Z</time></trkpt><trkpt lat="43.8463" lon="6.2173133"><ele>583.8</ele><time>2026-05-02T11:14:26.266Z</time></trkpt><trkpt lat="43.8463817" lon="6.2173917"><ele>584.0</ele><time>2026-05-02T11:14:27.267Z</time></trkpt><trkpt lat="43.8464633" lon="6.2174583"><ele>584.0</ele><time>2026-05-02T11:14:28.266Z</time></trkpt><trkpt lat="43.8465583" lon="6.217505"><ele>584.0</ele><time>2026-05-02T11:14:29.266Z</time></trkpt><trkpt lat="43.8466583" lon="6.217545"><ele>584.0</ele><time>2026-05-02T11:14:30.266Z</time></trkpt><trkpt lat="43.8467633" lon="6.2175833"><ele>584.0</ele><time>2026-05-02T11:14:31.266Z</time></trkpt><trkpt lat="43.84688" lon="6.21764"><ele>584.0</ele><time>2026-05-02T11:14:32.266Z</time></trkpt><trkpt lat="43.846985" lon="6.2177167"><ele>586.5</ele><time>2026-05-02T11:14:33.266Z</time></trkpt><trkpt lat="43.847095" lon="6.21781"><ele>589.0</ele><time>2026-05-02T11:14:34.266Z</time></trkpt><trkpt lat="43.8472067" lon="6.2179017"><ele>591.5</ele><time>2026-05-02T11:14:35.266Z</time></trkpt><trkpt lat="43.8473067" lon="6.2179883"><ele>594.0</ele><time>2026-05-02T11:14:36.266Z</time></trkpt><trkpt lat="43.8474067" lon="6.2180783"><ele>592.5</ele><time>2026-05-02T11:14:37.266Z</time></trkpt><trkpt lat="43.8475117" lon="6.21818"><ele>591.0</ele><time>2026-05-02T11:14:38.266Z</time></trkpt><trkpt lat="43.8476167" lon="6.2182717"><ele>589.5</ele><time>2026-05-02T11:14:39.266Z</time></trkpt><trkpt lat="43.8477167" lon="6.2183667"><ele>588.0</ele><time>2026-05-02T11:14:40.266Z</time></trkpt><trkpt lat="43.8478183" lon="6.21846"><ele>592.0</ele><time>2026-05-02T11:14:41.266Z</time></trkpt><trkpt lat="43.8479233" lon="6.21855"><ele>596.0</ele><time>2026-05-02T11:14:42.267Z</time></trkpt><trkpt lat="43.84802" lon="6.21863"><ele>600.0</ele><time>2026-05-02T11:14:43.266Z</time></trkpt><trkpt lat="43.84812" lon="6.2187133"><ele>604.0</ele><time>2026-05-02T11:14:44.266Z</time></trkpt><trkpt lat="43.8482117" lon="6.2187883"><ele>604.0</ele><time>2026-05-02T11:14:45.266Z</time></trkpt><trkpt lat="43.8482933" lon="6.21887"><ele>604.0</ele><time>2026-05-02T11:14:46.266Z</time></trkpt><trkpt lat="43.84838" lon="6.2189767"><ele>604.0</ele><time>2026-05-02T11:14:47.266Z</time></trkpt><trkpt lat="43.8484567" lon="6.219085"><ele>604.0</ele><time>2026-05-02T11:14:48.266Z</time></trkpt><trkpt lat="43.8485383" lon="6.2191967"><ele>604.0</ele><time>2026-05-02T11:14:49.266Z</time></trkpt><trkpt lat="43.848635" lon="6.219285"><ele>607.75</ele><time>2026-05-02T11:14:50.266Z</time></trkpt><trkpt lat="43.8487383" lon="6.219375"><ele>611.5</ele><time>2026-05-02T11:14:51.266Z</time></trkpt><trkpt lat="43.8488483" lon="6.21945"><ele>615.25</ele><time>2026-05-02T11:14:52.267Z</time></trkpt><trkpt lat="43.8489483" lon="6.2195133"><ele>619.0</ele><time>2026-05-02T11:14:53.266Z</time></trkpt><trkpt lat="43.8490417" lon="6.2195833"><ele>619.0</ele><time>2026-05-02T11:14:54.266Z</time></trkpt><trkpt lat="43.8491317" lon="6.21965"><ele>619.0</ele><time>2026-05-02T11:14:55.266Z</time></trkpt><trkpt lat="43.8492383" lon="6.2197117"><ele>619.0</ele><time>2026-05-02T11:14:56.266Z</time></trkpt><trkpt lat="43.8493467" lon="6.2197483"><ele>619.0</ele><time>2026-05-02T11:14:57.266Z</time></trkpt><trkpt lat="43.84945" lon="6.21976"><ele>619.0</ele><time>2026-05-02T11:14:58.267Z</time></trkpt><trkpt lat="43.849545" lon="6.2197617"><ele>620.8333333333334</ele><time>2026-05-02T11:14:59.266Z</time></trkpt><trkpt lat="43.8496317" lon="6.21978"><ele>622.6666666666667</ele><time>2026-05-02T11:15:00.266Z</time></trkpt><trkpt lat="43.8497083" lon="6.2198167"><ele>624.5</ele><time>2026-05-02T11:15:01.266Z</time></trkpt><trkpt lat="43.8497933" lon="6.2198717"><ele>626.3333333333334</ele><time>2026-05-02T11:15:02.266Z</time></trkpt><trkpt lat="43.8498583" lon="6.219945"><ele>628.1666666666666</ele><time>2026-05-02T11:15:03.266Z</time></trkpt><trkpt lat="43.8499067" lon="6.2200083"><ele>630.0</ele><time>2026-05-02T11:15:04.266Z</time></trkpt><trkpt lat="43.8499367" lon="6.22013"><ele>630.0</ele><time>2026-05-02T11:15:06.267Z</time></trkpt><trkpt lat="43.8498767" lon="6.2202067"><ele>630.0</ele><time>2026-05-02T11:15:08.266Z</time></trkpt><trkpt lat="43.8498067" lon="6.22025"><ele>630.0</ele><time>2026-05-02T11:15:09.266Z</time></trkpt><trkpt lat="43.8497083" lon="6.220295"><ele>630.0</ele><time>2026-05-02T11:15:10.266Z</time></trkpt><trkpt lat="43.8495617" lon="6.2203317"><ele>630.0</ele><time>2026-05-02T11:15:11.266Z</time></trkpt><trkpt lat="43.8493883" lon="6.2203517"><ele>625.25</ele><time>2026-05-02T11:15:12.266Z</time></trkpt><trkpt lat="43.8492333" lon="6.2203583"><ele>620.5</ele><time>2026-05-02T11:15:13.266Z</time></trkpt><trkpt lat="43.8490983" lon="6.2203417"><ele>615.75</ele><time>2026-05-02T11:15:14.266Z</time></trkpt><trkpt lat="43.84898" lon="6.22032"><ele>611.0</ele><time>2026-05-02T11:15:15.266Z</time></trkpt><trkpt lat="43.8488717" lon="6.2202983"><ele>611.0</ele><time>2026-05-02T11:15:16.266Z</time></trkpt><trkpt lat="43.8487467" lon="6.2202833"><ele>611.0</ele><time>2026-05-02T11:15:17.267Z</time></trkpt><trkpt lat="43.84864" lon="6.2202817"><ele>611.0</ele><time>2026-05-02T11:15:18.266Z</time></trkpt><trkpt lat="43.848525" lon="6.2202933"><ele>611.0</ele><time>2026-05-02T11:15:19.266Z</time></trkpt><trkpt lat="43.8484133" lon="6.2203133"><ele>609.8</ele><time>2026-05-02T11:15:20.266Z</time></trkpt><trkpt lat="43.848315" lon="6.2203267"><ele>608.6</ele><time>2026-05-02T11:15:21.266Z</time></trkpt><trkpt lat="43.8482167" lon="6.2203333"><ele>607.4</ele><time>2026-05-02T11:15:22.266Z</time></trkpt><trkpt lat="43.8481283" lon="6.220335"><ele>606.2</ele><time>2026-05-02T11:15:23.267Z</time></trkpt><trkpt lat="43.8480333" lon="6.2203283"><ele>605.0</ele><time>2026-05-02T11:15:24.266Z</time></trkpt><trkpt lat="43.8479367" lon="6.2203333"><ele>605.0</ele><time>2026-05-02T11:15:25.266Z</time></trkpt><trkpt lat="43.8478567" lon="6.2203417"><ele>605.0</ele><time>2026-05-02T11:15:26.267Z</time></trkpt><trkpt lat="43.847775" lon="6.220365"><ele>605.0</ele><time>2026-05-02T11:15:27.266Z</time></trkpt><trkpt lat="43.8476817" lon="6.2204"><ele>605.0</ele><time>2026-05-02T11:15:28.266Z</time></trkpt><trkpt lat="43.84759" lon="6.2204283"><ele>605.0</ele><time>2026-05-02T11:15:29.266Z</time></trkpt><trkpt lat="43.8475017" lon="6.2204483"><ele>605.0</ele><time>2026-05-02T11:15:30.266Z</time></trkpt><trkpt lat="43.8474183" lon="6.220475"><ele>604.6666666666666</ele><time>2026-05-02T11:15:31.266Z</time></trkpt><trkpt lat="43.8473467" lon="6.2205133"><ele>604.3333333333333</ele><time>2026-05-02T11:15:32.266Z</time></trkpt><trkpt lat="43.8472817" lon="6.220565"><ele>604.0</ele><time>2026-05-02T11:15:33.266Z</time></trkpt><trkpt lat="43.8472217" lon="6.2206183"><ele>603.6666666666666</ele><time>2026-05-02T11:15:34.267Z</time></trkpt><trkpt lat="43.8471417" lon="6.220705"><ele>603.3333333333334</ele><time>2026-05-02T11:15:36.266Z</time></trkpt><trkpt lat="43.8471117" lon="6.2207883"><ele>603.0</ele><time>2026-05-02T11:15:38.266Z</time></trkpt><trkpt lat="43.8471083" lon="6.2209133"><ele>608.1999999999999</ele><time>2026-05-02T11:15:40.266Z</time></trkpt><trkpt lat="43.84711" lon="6.2210517"><ele>613.4</ele><time>2026-05-02T11:15:42.266Z</time></trkpt><trkpt lat="43.8470567" lon="6.2211817"><ele>618.5999999999999</ele><time>2026-05-02T11:15:44.266Z</time></trkpt><trkpt lat="43.84702" lon="6.2213433"><ele>623.8</ele><time>2026-05-02T11:15:46.266Z</time></trkpt><trkpt lat="43.84697" lon="6.2214817"><ele>629.0</ele><time>2026-05-02T11:15:48.267Z</time></trkpt><trkpt lat="43.8468867" lon="6.22156"><ele>630.0</ele><time>2026-05-02T11:15:50.267Z</time></trkpt><trkpt lat="43.8468267" lon="6.2216333"><ele>631.0</ele><time>2026-05-02T11:15:52.267Z</time></trkpt><trkpt lat="43.846745" lon="6.2215967"><ele>632.0</ele><time>2026-05-02T11:15:56.267Z</time></trkpt><trkpt lat="43.8466917" lon="6.22155"><ele>633.0</ele><time>2026-05-02T11:15:59.266Z</time></trkpt><trkpt lat="43.8466083" lon="6.2214917"><ele>634.0</ele><time>2026-05-02T11:16:02.266Z</time></trkpt><trkpt lat="43.8465383" lon="6.2214467"><ele>635.0</ele><time>2026-05-02T11:16:04.266Z</time></trkpt><trkpt lat="43.84646" lon="6.2214033"><ele>630.2</ele><time>2026-05-02T11:16:06.266Z</time></trkpt><trkpt lat="43.8463667" lon="6.2213583"><ele>625.4</ele><time>2026-05-02T11:16:08.266Z</time></trkpt><trkpt lat="43.84627" lon="6.2213617"><ele>620.6</ele><time>2026-05-02T11:16:10.267Z</time></trkpt><trkpt lat="43.8461733" lon="6.2213783"><ele>615.8</ele><time>2026-05-02T11:16:12.267Z</time></trkpt><trkpt lat="43.84608" lon="6.221385"><ele>611.0</ele><time>2026-05-02T11:16:14.266Z</time></trkpt><trkpt lat="43.8459733" lon="6.2213533"><ele>611.1666666666666</ele><time>2026-05-02T11:16:16.266Z</time></trkpt><trkpt lat="43.845855" lon="6.2212933"><ele>611.3333333333333</ele><time>2026-05-02T11:16:18.266Z</time></trkpt><trkpt lat="43.8457817" lon="6.2212683"><ele>611.5</ele><time>2026-05-02T11:16:19.266Z</time></trkpt><trkpt lat="43.8457083" lon="6.22125"><ele>611.6666666666666</ele><time>2026-05-02T11:16:20.266Z</time></trkpt><trkpt lat="43.845635" lon="6.2212333"><ele>611.8333333333334</ele><time>2026-05-02T11:16:21.266Z</time></trkpt><trkpt lat="43.8455583" lon="6.2212217"><ele>612.0</ele><time>2026-05-02T11:16:22.266Z</time></trkpt><trkpt lat="43.84549" lon="6.22122"><ele>612.0</ele><time>2026-05-02T11:16:23.266Z</time></trkpt><trkpt lat="43.8454267" lon="6.2212167"><ele>612.0</ele><time>2026-05-02T11:16:24.266Z</time></trkpt><trkpt lat="43.8453133" lon="6.221215"><ele>612.0</ele><time>2026-05-02T11:16:26.266Z</time></trkpt><trkpt lat="43.8451783" lon="6.2212133"><ele>612.0</ele><time>2026-05-02T11:16:28.266Z</time></trkpt><trkpt lat="43.845105" lon="6.221215"><ele>612.0</ele><time>2026-05-02T11:16:29.267Z</time></trkpt><trkpt lat="43.84501" lon="6.22123"><ele>612.0</ele><time>2026-05-02T11:16:30.266Z</time></trkpt><trkpt lat="43.8449283" lon="6.2212317"><ele>612.0</ele><time>2026-05-02T11:16:31.266Z</time></trkpt><trkpt lat="43.84485" lon="6.2212367"><ele>612.0</ele><time>2026-05-02T11:16:32.266Z</time></trkpt><trkpt lat="43.8447817" lon="6.2212433"><ele>612.0</ele><time>2026-05-02T11:16:33.266Z</time></trkpt><trkpt lat="43.84471" lon="6.221235"><ele>612.0</ele><time>2026-05-02T11:16:34.267Z</time></trkpt><trkpt lat="43.8446383" lon="6.2212367"><ele>612.0</ele><time>2026-05-02T11:16:35.266Z</time></trkpt><trkpt lat="43.8445667" lon="6.2212317"><ele>612.0</ele><time>2026-05-02T11:16:36.266Z</time></trkpt><trkpt lat="43.8444883" lon="6.2212367"><ele>612.0</ele><time>2026-05-02T11:16:37.266Z</time></trkpt><trkpt lat="43.8444083" lon="6.221235"><ele>612.0</ele><time>2026-05-02T11:16:38.266Z</time></trkpt><trkpt lat="43.8443333" lon="6.2212467"><ele>612.0</ele><time>2026-05-02T11:16:39.266Z</time></trkpt><trkpt lat="43.8442517" lon="6.22125"><ele>612.0</ele><time>2026-05-02T11:16:40.267Z</time></trkpt><trkpt lat="43.844185" lon="6.2212517"><ele>612.0</ele><time>2026-05-02T11:16:41.266Z</time></trkpt><trkpt lat="43.8441217" lon="6.2212617"><ele>612.0</ele><time>2026-05-02T11:16:42.267Z</time></trkpt><trkpt lat="43.844035" lon="6.2212867"><ele>611.0</ele><time>2026-05-02T11:16:44.267Z</time></trkpt><trkpt lat="43.8439417" lon="6.22134"><ele>610.0</ele><time>2026-05-02T11:16:46.267Z</time></trkpt><trkpt lat="43.8438567" lon="6.2214133"><ele>609.0</ele><time>2026-05-02T11:16:48.266Z</time></trkpt><trkpt lat="43.8438" lon="6.221485"><ele>608.0</ele><time>2026-05-02T11:16:51.266Z</time></trkpt><trkpt lat="43.8437283" lon="6.2215467"><ele>607.0</ele><time>2026-05-02T11:16:53.266Z</time></trkpt><trkpt lat="43.8436267" lon="6.22159"><ele>623.0</ele><time>2026-05-02T11:16:55.266Z</time></trkpt><trkpt lat="43.8435617" lon="6.221585"><ele>623.0</ele><time>2026-05-02T11:16:57.266Z</time></trkpt><trkpt lat="43.8436167" lon="6.2214633"><ele>607.0</ele><time>2026-05-02T11:17:07.266Z</time></trkpt><trkpt lat="43.8436833" lon="6.22143"><ele>607.0</ele><time>2026-05-02T11:17:10.266Z</time></trkpt></trkseg></trk></gpx>